<?xml version='1.0' encoding='UTF-8'?><gpx version="1.1" creator="JPX - https://github.com/jenetics/jpx" xmlns="http://www.topografix.com/GPX/1/1"><trk><trkseg><trkpt lat="45.079317659980624" lon="7.653133342642607"><ele>263.0</ele><time>2026-04-04T09:25:53.266Z</time></trkpt><trkpt lat="45.079265940045076" lon="7.652858057997797"><ele>263.0</ele><time>2026-04-04T09:26:00.005Z</time></trkpt><trkpt lat="45.07922843102838" lon="7.6527500990849475"><ele>263.0</ele><time>2026-04-04T09:26:01.005Z</time></trkpt><trkpt lat="45.07916368082638" lon="7.652725623927687"><ele>263.0</ele><time>2026-04-04T09:26:02.005Z</time></trkpt><trkpt lat="45.07917082506556" lon="7.652528603150825"><ele>262.6</ele><time>2026-04-04T09:26:25Z</time></trkpt><trkpt lat="45.07920849767839" lon="7.652429410959916"><ele>262.20000000000005</ele><time>2026-04-04T09:26:27Z</time></trkpt><trkpt lat="45.079202921876266" lon="7.652304751851189"><ele>261.8</ele><time>2026-04-04T09:26:29Z</time></trkpt><trkpt lat="45.079168435187306" lon="7.6521891359769"><ele>261.40000000000003</ele><time>2026-04-04T09:26:32Z</time></trkpt><trkpt lat="45.07919122527385" lon="7.652050867898093"><ele>261.0</ele><time>2026-04-04T09:26:34Z</time></trkpt><trkpt lat="45.079229708249756" lon="7.651901156531505"><ele>261.0</ele><time>2026-04-04T09:26:36Z</time></trkpt><trkpt lat="45.0792705551502" lon="7.651753583911089"><ele>261.0</ele><time>2026-04-04T09:26:38Z</time></trkpt><trkpt lat="45.079294323673956" lon="7.651597627274064"><ele>261.0</ele><time>2026-04-04T09:26:40Z</time></trkpt><trkpt lat="45.07931929582004" lon="7.651423575410391"><ele>261.0</ele><time>2026-04-04T09:26:42Z</time></trkpt><trkpt lat="45.07933788476674" lon="7.651329421850519"><ele>261.0</ele><time>2026-04-04T09:26:42.999Z</time></trkpt><trkpt lat="45.07935804554733" lon="7.651228256412065"><ele>261.0</ele><time>2026-04-04T09:26:43.999Z</time></trkpt><trkpt lat="45.07938264111995" lon="7.651126625485442"><ele>261.0</ele><time>2026-04-04T09:26:44.999Z</time></trkpt><trkpt lat="45.07940282847767" lon="7.65102512946569"><ele>261.0</ele><time>2026-04-04T09:26:45.999Z</time></trkpt><trkpt lat="45.079434629342984" lon="7.650926144338403"><ele>261.0</ele><time>2026-04-04T09:26:46.999Z</time></trkpt><trkpt lat="45.07944271889699" lon="7.650821514304606"><ele>261.0</ele><time>2026-04-04T09:26:47.999Z</time></trkpt><trkpt lat="45.079455852298445" lon="7.650715612345674"><ele>261.0</ele><time>2026-04-04T09:26:48.999Z</time></trkpt><trkpt lat="45.079477351554175" lon="7.650609181495355"><ele>261.3333333333333</ele><time>2026-04-04T09:26:49.999Z</time></trkpt><trkpt lat="45.079499768948544" lon="7.650515644322199"><ele>261.6666666666667</ele><time>2026-04-04T09:26:50.999Z</time></trkpt><trkpt lat="45.0795315845314" lon="7.650398644214732"><ele>262.0</ele><time>2026-04-04T09:26:52.999Z</time></trkpt><trkpt lat="45.07955354262485" lon="7.650303177769826"><ele>262.33333333333337</ele><time>2026-04-04T09:26:55.999Z</time></trkpt><trkpt lat="45.07958582692193" lon="7.6502229397996855"><ele>262.6666666666667</ele><time>2026-04-04T09:27:10.999Z</time></trkpt><trkpt lat="45.07968769846421" lon="7.650256788123049"><ele>263.0</ele><time>2026-04-04T09:27:16.999Z</time></trkpt><trkpt lat="45.07977212639243" lon="7.650280859262243"><ele>263.1666666666667</ele><time>2026-04-04T09:27:19.999Z</time></trkpt><trkpt lat="45.079849703386614" lon="7.650316565912258"><ele>263.33333333333337</ele><time>2026-04-04T09:27:22.999Z</time></trkpt><trkpt lat="45.079926593430294" lon="7.65034466320403"><ele>263.5</ele><time>2026-04-04T09:27:25.999Z</time></trkpt><trkpt lat="45.0799938235299" lon="7.650360480814533"><ele>263.6666666666667</ele><time>2026-04-04T09:27:28.999Z</time></trkpt><trkpt lat="45.08006340313698" lon="7.650377952570485"><ele>263.8333333333333</ele><time>2026-04-04T09:27:31.999Z</time></trkpt><trkpt lat="45.08015796892643" lon="7.6504057265060705"><ele>264.0</ele><time>2026-04-04T09:27:34.999Z</time></trkpt><trkpt lat="45.08024025499885" lon="7.650262984704758"><ele>263.6666666666667</ele><time>2026-04-04T09:27:51.999Z</time></trkpt><trkpt lat="45.08025206029304" lon="7.650168470685241"><ele>263.3333333333333</ele><time>2026-04-04T09:28:09.999Z</time></trkpt><trkpt lat="45.080280914492775" lon="7.6500099983886045"><ele>263.0</ele><time>2026-04-04T09:28:11.999Z</time></trkpt><trkpt lat="45.0803072442077" lon="7.649911958960826"><ele>262.66666666666663</ele><time>2026-04-04T09:28:12.999Z</time></trkpt><trkpt lat="45.08033100736393" lon="7.649819134388751"><ele>262.3333333333333</ele><time>2026-04-04T09:28:14Z</time></trkpt><trkpt lat="45.080360481640774" lon="7.6497126378605955"><ele>262.0</ele><time>2026-04-04T09:28:15Z</time></trkpt><trkpt lat="45.08038566905999" lon="7.649599478698583"><ele>262.0</ele><time>2026-04-04T09:28:16Z</time></trkpt><trkpt lat="45.080412698695" lon="7.649474477443174"><ele>262.0</ele><time>2026-04-04T09:28:17Z</time></trkpt><trkpt lat="45.080449616088366" lon="7.649339390570945"><ele>262.0</ele><time>2026-04-04T09:28:18Z</time></trkpt><trkpt lat="45.08048207174281" lon="7.649187058749097"><ele>262.0</ele><time>2026-04-04T09:28:19Z</time></trkpt><trkpt lat="45.08052007561027" lon="7.649014913925553"><ele>262.0</ele><time>2026-04-04T09:28:20Z</time></trkpt><trkpt lat="45.080565408493804" lon="7.6488505773005535"><ele>262.0</ele><time>2026-04-04T09:28:21Z</time></trkpt><trkpt lat="45.08062855771172" lon="7.648637253133442"><ele>262.0</ele><time>2026-04-04T09:28:22Z</time></trkpt><trkpt lat="45.08067560520663" lon="7.648428015990051"><ele>262.0</ele><time>2026-04-04T09:28:23Z</time></trkpt><trkpt lat="45.08072744273035" lon="7.648204721157315"><ele>262.25</ele><time>2026-04-04T09:28:24Z</time></trkpt><trkpt lat="45.08077870146426" lon="7.647981053390507"><ele>262.5</ele><time>2026-04-04T09:28:25Z</time></trkpt><trkpt lat="45.080824795070384" lon="7.647786980716309"><ele>262.75</ele><time>2026-04-04T09:28:26Z</time></trkpt><trkpt lat="45.08086063761387" lon="7.647620726000013"><ele>263.0</ele><time>2026-04-04T09:28:27Z</time></trkpt><trkpt lat="45.08089643681337" lon="7.647489905390605"><ele>262.6666666666667</ele><time>2026-04-04T09:28:28Z</time></trkpt><trkpt lat="45.08092196498543" lon="7.647400853135406"><ele>262.33333333333337</ele><time>2026-04-04T09:28:29Z</time></trkpt><trkpt lat="45.08093540938424" lon="7.647292613039097"><ele>262.0</ele><time>2026-04-04T09:28:31Z</time></trkpt><trkpt lat="45.08104855812367" lon="7.647326459050973"><ele>261.6666666666667</ele><time>2026-04-04T09:28:32Z</time></trkpt><trkpt lat="45.081113765817335" lon="7.6473874661278725"><ele>261.3333333333333</ele><time>2026-04-04T09:28:33Z</time></trkpt><trkpt lat="45.08118328035324" lon="7.647454412204218"><ele>261.0</ele><time>2026-04-04T09:28:34Z</time></trkpt><trkpt lat="45.08126516998131" lon="7.647520030271398"><ele>261.0</ele><time>2026-04-04T09:28:35Z</time></trkpt><trkpt lat="45.0813698295239" lon="7.64759454385261"><ele>261.0</ele><time>2026-04-04T09:28:36Z</time></trkpt><trkpt lat="45.08147872899595" lon="7.647666828868837"><ele>261.0</ele><time>2026-04-04T09:28:37Z</time></trkpt><trkpt lat="45.081587685164436" lon="7.647740454355053"><ele>261.0</ele><time>2026-04-04T09:28:38Z</time></trkpt><trkpt lat="45.08170144839137" lon="7.647809367155682"><ele>261.6666666666667</ele><time>2026-04-04T09:28:39Z</time></trkpt><trkpt lat="45.08183166200893" lon="7.64789393421663"><ele>262.33333333333337</ele><time>2026-04-04T09:28:40Z</time></trkpt><trkpt lat="45.081969077856485" lon="7.647981658236516"><ele>263.0</ele><time>2026-04-04T09:28:41Z</time></trkpt><trkpt lat="45.08211616796706" lon="7.648079361994873"><ele>263.0</ele><time>2026-04-04T09:28:42Z</time></trkpt><trkpt lat="45.08226260003077" lon="7.648177222065558"><ele>263.0</ele><time>2026-04-04T09:28:43Z</time></trkpt><trkpt lat="45.08241000861035" lon="7.6482755642826055"><ele>263.0</ele><time>2026-04-04T09:28:44Z</time></trkpt><trkpt lat="45.08254892181794" lon="7.648362227756246"><ele>263.33333333333337</ele><time>2026-04-04T09:28:45Z</time></trkpt><trkpt lat="45.082692685582074" lon="7.648461425555095"><ele>263.6666666666667</ele><time>2026-04-04T09:28:46Z</time></trkpt><trkpt lat="45.08283546132333" lon="7.6485550369302695"><ele>264.0</ele><time>2026-04-04T09:28:47Z</time></trkpt><trkpt lat="45.08297983187208" lon="7.648646002097493"><ele>263.0</ele><time>2026-04-04T09:28:48Z</time></trkpt><trkpt lat="45.08312364965119" lon="7.648743220064501"><ele>262.0</ele><time>2026-04-04T09:28:49Z</time></trkpt><trkpt lat="45.08326419205733" lon="7.648839620807689"><ele>261.0</ele><time>2026-04-04T09:28:50Z</time></trkpt><trkpt lat="45.08340599113043" lon="7.648937522272656"><ele>260.3333333333333</ele><time>2026-04-04T09:28:51Z</time></trkpt><trkpt lat="45.08354520470489" lon="7.649032462829846"><ele>259.66666666666663</ele><time>2026-04-04T09:28:52Z</time></trkpt><trkpt lat="45.08368735845683" lon="7.6491279431456904"><ele>259.0</ele><time>2026-04-04T09:28:53Z</time></trkpt><trkpt lat="45.083834274240424" lon="7.649226124771518"><ele>259.0</ele><time>2026-04-04T09:28:54Z</time></trkpt><trkpt lat="45.083975429942825" lon="7.6493203747705465"><ele>259.0</ele><time>2026-04-04T09:28:55Z</time></trkpt><trkpt lat="45.08411259430274" lon="7.649416718619784"><ele>259.0</ele><time>2026-04-04T09:28:56Z</time></trkpt><trkpt lat="45.084256244741894" lon="7.64951730193149"><ele>258.66666666666663</ele><time>2026-04-04T09:28:57Z</time></trkpt><trkpt lat="45.08440005873849" lon="7.6496140055847395"><ele>258.3333333333333</ele><time>2026-04-04T09:28:58Z</time></trkpt><trkpt lat="45.08454668335756" lon="7.649713431043239"><ele>258.0</ele><time>2026-04-04T09:28:59Z</time></trkpt><trkpt lat="45.08467865532636" lon="7.649802508544549"><ele>258.0</ele><time>2026-04-04T09:29:00Z</time></trkpt><trkpt lat="45.08480607960501" lon="7.649893340486878"><ele>258.0</ele><time>2026-04-04T09:29:01Z</time></trkpt><trkpt lat="45.084932830273885" lon="7.64997970034533"><ele>258.0</ele><time>2026-04-04T09:29:02Z</time></trkpt><trkpt lat="45.08506045038484" lon="7.650060982781615"><ele>258.0</ele><time>2026-04-04T09:29:03Z</time></trkpt><trkpt lat="45.08518349883821" lon="7.6501511095432235"><ele>256.5</ele><time>2026-04-04T09:29:04Z</time></trkpt><trkpt lat="45.085310651955595" lon="7.650241123899578"><ele>255.0</ele><time>2026-04-04T09:29:05Z</time></trkpt><trkpt lat="45.08543884267319" lon="7.650325766536471"><ele>253.5</ele><time>2026-04-04T09:29:06Z</time></trkpt><trkpt lat="45.08555737158158" lon="7.650402824142374"><ele>252.0</ele><time>2026-04-04T09:29:07Z</time></trkpt><trkpt lat="45.08567988364202" lon="7.650486748093716"><ele>251.25</ele><time>2026-04-04T09:29:08Z</time></trkpt><trkpt lat="45.085808834989095" lon="7.650574189945968"><ele>250.5</ele><time>2026-04-04T09:29:09Z</time></trkpt><trkpt lat="45.08593646692819" lon="7.6506648012557354"><ele>249.75</ele><time>2026-04-04T09:29:10Z</time></trkpt><trkpt lat="45.0860518656603" lon="7.650749831629147"><ele>249.0</ele><time>2026-04-04T09:29:11Z</time></trkpt><trkpt lat="45.0861638312528" lon="7.650817208380157"><ele>249.0</ele><time>2026-04-04T09:29:12Z</time></trkpt><trkpt lat="45.08627162070843" lon="7.6508803291681735"><ele>248.99999999999997</ele><time>2026-04-04T09:29:13Z</time></trkpt><trkpt lat="45.08637576921011" lon="7.650942172367699"><ele>248.99999999999997</ele><time>2026-04-04T09:29:14Z</time></trkpt><trkpt lat="45.08646871431759" lon="7.650999539496667"><ele>249.0</ele><time>2026-04-04T09:29:15Z</time></trkpt><trkpt lat="45.08656438160973" lon="7.651059935469373"><ele>249.0</ele><time>2026-04-04T09:29:16Z</time></trkpt><trkpt lat="45.086656487842596" lon="7.651112484436716"><ele>248.0</ele><time>2026-04-04T09:29:17Z</time></trkpt><trkpt lat="45.08674578032727" lon="7.651174585568158"><ele>246.99999999999997</ele><time>2026-04-04T09:29:18Z</time></trkpt><trkpt lat="45.08683576995463" lon="7.651237333601191"><ele>245.99999999999997</ele><time>2026-04-04T09:29:19Z</time></trkpt><trkpt lat="45.086929541897824" lon="7.651295816297521"><ele>245.0</ele><time>2026-04-04T09:29:20Z</time></trkpt><trkpt lat="45.08702305465156" lon="7.651356916911409"><ele>244.0</ele><time>2026-04-04T09:29:21Z</time></trkpt><trkpt lat="45.087116812380124" lon="7.651416296103538"><ele>244.0</ele><time>2026-04-04T09:29:22Z</time></trkpt><trkpt lat="45.08721163074288" lon="7.651480079177877"><ele>243.99999999999997</ele><time>2026-04-04T09:29:23Z</time></trkpt><trkpt lat="45.08731158622602" lon="7.6515489865052775"><ele>243.99999999999997</ele><time>2026-04-04T09:29:24Z</time></trkpt><trkpt lat="45.08741246761273" lon="7.651618531986704"><ele>244.0</ele><time>2026-04-04T09:29:25Z</time></trkpt><trkpt lat="45.08751707544994" lon="7.651687853527339"><ele>244.0</ele><time>2026-04-04T09:29:26Z</time></trkpt><trkpt lat="45.08762419638449" lon="7.651759423646147"><ele>244.0</ele><time>2026-04-04T09:29:27Z</time></trkpt><trkpt lat="45.08773356385857" lon="7.65183494037855"><ele>244.0</ele><time>2026-04-04T09:29:28Z</time></trkpt><trkpt lat="45.08784413252192" lon="7.651911638554317"><ele>244.0</ele><time>2026-04-04T09:29:29Z</time></trkpt><trkpt lat="45.08795772834324" lon="7.651989671909329"><ele>244.0</ele><time>2026-04-04T09:29:30Z</time></trkpt><trkpt lat="45.08807436329476" lon="7.652062984360316"><ele>244.0</ele><time>2026-04-04T09:29:31Z</time></trkpt><trkpt lat="45.08819331099444" lon="7.652136010725485"><ele>244.0</ele><time>2026-04-04T09:29:32Z</time></trkpt><trkpt lat="45.08830694128023" lon="7.652211676897829"><ele>244.0</ele><time>2026-04-04T09:29:33Z</time></trkpt><trkpt lat="45.08842086982059" lon="7.652290219672995"><ele>244.0</ele><time>2026-04-04T09:29:34Z</time></trkpt><trkpt lat="45.08853670200577" lon="7.652366569820134"><ele>243.75</ele><time>2026-04-04T09:29:35Z</time></trkpt><trkpt lat="45.08865174292488" lon="7.652441714499272"><ele>243.5</ele><time>2026-04-04T09:29:36Z</time></trkpt><trkpt lat="45.08877028238752" lon="7.652520116592016"><ele>243.25</ele><time>2026-04-04T09:29:37Z</time></trkpt><trkpt lat="45.08888533581484" lon="7.652594377509448"><ele>243.0</ele><time>2026-04-04T09:29:38Z</time></trkpt><trkpt lat="45.088996133246624" lon="7.652670254662555"><ele>242.5</ele><time>2026-04-04T09:29:39Z</time></trkpt><trkpt lat="45.08910809098432" lon="7.652744872451214"><ele>242.0</ele><time>2026-04-04T09:29:40Z</time></trkpt><trkpt lat="45.089221137227106" lon="7.652818375717023"><ele>241.5</ele><time>2026-04-04T09:29:41Z</time></trkpt><trkpt lat="45.089333904065874" lon="7.65289478448325"><ele>241.0</ele><time>2026-04-04T09:29:42Z</time></trkpt><trkpt lat="45.08944508231343" lon="7.652976201235913"><ele>241.0</ele><time>2026-04-04T09:29:43Z</time></trkpt><trkpt lat="45.089555651408965" lon="7.653060001424545"><ele>241.0</ele><time>2026-04-04T09:29:44Z</time></trkpt><trkpt lat="45.08966599512041" lon="7.653145586241384"><ele>241.0</ele><time>2026-04-04T09:29:45Z</time></trkpt><trkpt lat="45.089774886949805" lon="7.653224838844596"><ele>241.0</ele><time>2026-04-04T09:29:46Z</time></trkpt><trkpt lat="45.089883554417895" lon="7.653298230537516"><ele>241.0</ele><time>2026-04-04T09:29:47Z</time></trkpt><trkpt lat="45.089988713514664" lon="7.6533699361183265"><ele>241.00000000000003</ele><time>2026-04-04T09:29:48Z</time></trkpt><trkpt lat="45.090091196560536" lon="7.653436903385896"><ele>241.00000000000003</ele><time>2026-04-04T09:29:49Z</time></trkpt><trkpt lat="45.09018955052388" lon="7.653502910933514"><ele>241.0</ele><time>2026-04-04T09:29:50Z</time></trkpt><trkpt lat="45.09028156071193" lon="7.653564203170562"><ele>241.0</ele><time>2026-04-04T09:29:51Z</time></trkpt><trkpt lat="45.090371174954726" lon="7.653623915954996"><ele>240.99999999999997</ele><time>2026-04-04T09:29:52Z</time></trkpt><trkpt lat="45.09045360738968" lon="7.653678945160658"><ele>241.0</ele><time>2026-04-04T09:29:53Z</time></trkpt><trkpt lat="45.09052997501501" lon="7.653730732510799"><ele>241.0</ele><time>2026-04-04T09:29:54Z</time></trkpt><trkpt lat="45.09059938734369" lon="7.653777599374007"><ele>241.0</ele><time>2026-04-04T09:29:55Z</time></trkpt><trkpt lat="45.09066540792471" lon="7.653821383258942"><ele>240.99999999999997</ele><time>2026-04-04T09:29:56Z</time></trkpt><trkpt lat="45.090727244479986" lon="7.6538598079874856"><ele>241.0</ele><time>2026-04-04T09:29:57Z</time></trkpt><trkpt lat="45.09084127792044" lon="7.653921658799844"><ele>240.4</ele><time>2026-04-04T09:29:59Z</time></trkpt><trkpt lat="45.09095688866523" lon="7.65398434826224"><ele>239.8</ele><time>2026-04-04T09:30:01Z</time></trkpt><trkpt lat="45.09105822778139" lon="7.654056190922232"><ele>239.20000000000002</ele><time>2026-04-04T09:30:03Z</time></trkpt><trkpt lat="45.09113734983196" lon="7.654115792177371"><ele>238.60000000000002</ele><time>2026-04-04T09:30:05Z</time></trkpt><trkpt lat="45.09120613760762" lon="7.654162323677431"><ele>238.0</ele><time>2026-04-04T09:30:07Z</time></trkpt><trkpt lat="45.09126251574907" lon="7.654206227468995"><ele>237.99999999999997</ele><time>2026-04-04T09:30:10Z</time></trkpt><trkpt lat="45.09132708924881" lon="7.654251664086841"><ele>238.0</ele><time>2026-04-04T09:30:14Z</time></trkpt><trkpt lat="45.091389343712194" lon="7.654294192902644"><ele>238.0</ele><time>2026-04-04T09:30:17Z</time></trkpt><trkpt lat="45.09145900555005" lon="7.654340639541727"><ele>238.0</ele><time>2026-04-04T09:30:20Z</time></trkpt><trkpt lat="45.091519103735145" lon="7.654382585326131"><ele>237.99999999999997</ele><time>2026-04-04T09:30:23Z</time></trkpt><trkpt lat="45.09159601441128" lon="7.654437062600913"><ele>238.0</ele><time>2026-04-04T09:30:37Z</time></trkpt><trkpt lat="45.09170659968792" lon="7.654516286584438"><ele>238.2</ele><time>2026-04-04T09:30:39Z</time></trkpt><trkpt lat="45.091771926436" lon="7.654566760553854"><ele>238.4</ele><time>2026-04-04T09:30:39.999Z</time></trkpt><trkpt lat="45.0918475910687" lon="7.654620511202019"><ele>238.59999999999997</ele><time>2026-04-04T09:30:40.999Z</time></trkpt><trkpt lat="45.09193577752358" lon="7.65467715596644"><ele>238.79999999999998</ele><time>2026-04-04T09:30:41.999Z</time></trkpt><trkpt lat="45.09202743325716" lon="7.654739907630287"><ele>239.0</ele><time>2026-04-04T09:30:42.999Z</time></trkpt><trkpt lat="45.09211903302023" lon="7.654802598616394"><ele>239.0</ele><time>2026-04-04T09:30:43.999Z</time></trkpt><trkpt lat="45.09221543072811" lon="7.654863325317035"><ele>238.99999999999997</ele><time>2026-04-04T09:30:44.999Z</time></trkpt><trkpt lat="45.0923116684748" lon="7.654930833183523"><ele>238.99999999999997</ele><time>2026-04-04T09:30:45.999Z</time></trkpt><trkpt lat="45.09241533772303" lon="7.655001269287128"><ele>239.0</ele><time>2026-04-04T09:30:46.999Z</time></trkpt><trkpt lat="45.092524027736246" lon="7.655071493890467"><ele>239.0</ele><time>2026-04-04T09:30:47.999Z</time></trkpt><trkpt lat="45.092631830242944" lon="7.655139776039822"><ele>239.75</ele><time>2026-04-04T09:30:48.999Z</time></trkpt><trkpt lat="45.09273977548232" lon="7.655214894841611"><ele>240.5</ele><time>2026-04-04T09:30:49.999Z</time></trkpt><trkpt lat="45.09285246669461" lon="7.655290985138243"><ele>241.25</ele><time>2026-04-04T09:30:50.999Z</time></trkpt><trkpt lat="45.09296283360707" lon="7.655365497594444"><ele>242.0</ele><time>2026-04-04T09:30:51.999Z</time></trkpt><trkpt lat="45.09306932924291" lon="7.655436016594415"><ele>242.0</ele><time>2026-04-04T09:30:52.999Z</time></trkpt><trkpt lat="45.09317494089317" lon="7.655507710846399"><ele>242.0</ele><time>2026-04-04T09:30:53.999Z</time></trkpt><trkpt lat="45.09328219562766" lon="7.65558159591269"><ele>242.0</ele><time>2026-04-04T09:30:54.999Z</time></trkpt><trkpt lat="45.093389202404104" lon="7.65565311977539"><ele>242.0</ele><time>2026-04-04T09:30:55.999Z</time></trkpt><trkpt lat="45.09349358657534" lon="7.6557233559218005"><ele>242.2</ele><time>2026-04-04T09:30:56.999Z</time></trkpt><trkpt lat="45.09359344273721" lon="7.6557901332391145"><ele>242.39999999999998</ele><time>2026-04-04T09:30:57.999Z</time></trkpt><trkpt lat="45.09368846436877" lon="7.655855006937058"><ele>242.60000000000002</ele><time>2026-04-04T09:30:58.999Z</time></trkpt><trkpt lat="45.0937761304176" lon="7.6559164581637065"><ele>242.8</ele><time>2026-04-04T09:30:59.999Z</time></trkpt><trkpt lat="45.09385794078227" lon="7.655969019273312"><ele>243.0</ele><time>2026-04-04T09:31:00.999Z</time></trkpt><trkpt lat="45.0939324119371" lon="7.656016673863485"><ele>243.0</ele><time>2026-04-04T09:31:01.999Z</time></trkpt><trkpt lat="45.09400213649493" lon="7.656057706136391"><ele>243.0</ele><time>2026-04-04T09:31:02.999Z</time></trkpt><trkpt lat="45.09407024331358" lon="7.656088894021463"><ele>243.0</ele><time>2026-04-04T09:31:03.999Z</time></trkpt><trkpt lat="45.09416323508737" lon="7.656139007181198"><ele>243.0</ele><time>2026-04-04T09:31:05.999Z</time></trkpt><trkpt lat="45.09422961300264" lon="7.656182633591026"><ele>243.0</ele><time>2026-04-04T09:31:07.999Z</time></trkpt><trkpt lat="45.09434194664021" lon="7.656254011048343"><ele>243.0</ele><time>2026-04-04T09:31:09.999Z</time></trkpt><trkpt lat="45.094413996708795" lon="7.6563038300156965"><ele>245.60000000000002</ele><time>2026-04-04T09:31:10.999Z</time></trkpt><trkpt lat="45.09449597129817" lon="7.656359039285545"><ele>248.20000000000002</ele><time>2026-04-04T09:31:11.999Z</time></trkpt><trkpt lat="45.09458616340521" lon="7.656421615859366"><ele>250.8</ele><time>2026-04-04T09:31:12.999Z</time></trkpt><trkpt lat="45.09468064350288" lon="7.656484555756333"><ele>253.4</ele><time>2026-04-04T09:31:13.999Z</time></trkpt><trkpt lat="45.094781029057025" lon="7.65655206915867"><ele>256.0</ele><time>2026-04-04T09:31:14.999Z</time></trkpt><trkpt lat="45.09489175769265" lon="7.656623633064509"><ele>256.0</ele><time>2026-04-04T09:31:15.999Z</time></trkpt><trkpt lat="45.09501231325691" lon="7.656702121520821"><ele>256.0</ele><time>2026-04-04T09:31:16.999Z</time></trkpt><trkpt lat="45.0951376143527" lon="7.65678606954988"><ele>256.0</ele><time>2026-04-04T09:31:17.999Z</time></trkpt><trkpt lat="45.095265883424844" lon="7.656870070701937"><ele>256.0</ele><time>2026-04-04T09:31:18.999Z</time></trkpt><trkpt lat="45.09539279856347" lon="7.656960458967263"><ele>255.66666666666666</ele><time>2026-04-04T09:31:19.999Z</time></trkpt><trkpt lat="45.09552774321013" lon="7.657052234995047"><ele>255.33333333333331</ele><time>2026-04-04T09:31:20.999Z</time></trkpt><trkpt lat="45.09566856800318" lon="7.657146509993157"><ele>255.0</ele><time>2026-04-04T09:31:21.999Z</time></trkpt><trkpt lat="45.09581061318139" lon="7.657241545634137"><ele>254.33333333333331</ele><time>2026-04-04T09:31:22.999Z</time></trkpt><trkpt lat="45.09595585228666" lon="7.657338208318515"><ele>253.66666666666666</ele><time>2026-04-04T09:31:23.999Z</time></trkpt><trkpt lat="45.096102599460544" lon="7.657438133057453"><ele>253.0</ele><time>2026-04-04T09:31:24.999Z</time></trkpt><trkpt lat="45.09625247071357" lon="7.657536763708176"><ele>253.0</ele><time>2026-04-04T09:31:25.999Z</time></trkpt><trkpt lat="45.09640275742623" lon="7.65763550308704"><ele>253.0</ele><time>2026-04-04T09:31:26.999Z</time></trkpt><trkpt lat="45.096553621631706" lon="7.657735754568851"><ele>253.0</ele><time>2026-04-04T09:31:27.999Z</time></trkpt><trkpt lat="45.09669695984638" lon="7.657837938002979"><ele>252.0</ele><time>2026-04-04T09:31:28.999Z</time></trkpt><trkpt lat="45.096846382214814" lon="7.657937483476325"><ele>251.0</ele><time>2026-04-04T09:31:29.999Z</time></trkpt><trkpt lat="45.096997580960824" lon="7.658036447319616"><ele>250.0</ele><time>2026-04-04T09:31:30.999Z</time></trkpt><trkpt lat="45.09714285263441" lon="7.658127720295988"><ele>250.0</ele><time>2026-04-04T09:31:31.999Z</time></trkpt><trkpt lat="45.09729683127513" lon="7.658227860608777"><ele>250.0</ele><time>2026-04-04T09:31:32.999Z</time></trkpt><trkpt lat="45.097452060538174" lon="7.658328394317616"><ele>250.0</ele><time>2026-04-04T09:31:33.999Z</time></trkpt><trkpt lat="45.09760872679148" lon="7.658433949680245"><ele>250.0</ele><time>2026-04-04T09:31:34.999Z</time></trkpt><trkpt lat="45.097765908939614" lon="7.658538862809041"><ele>250.0</ele><time>2026-04-04T09:31:35.999Z</time></trkpt><trkpt lat="45.097927560165026" lon="7.6586435949938645"><ele>250.0</ele><time>2026-04-04T09:31:36.999Z</time></trkpt><trkpt lat="45.09808702767765" lon="7.658744495340015"><ele>250.0</ele><time>2026-04-04T09:31:37.999Z</time></trkpt><trkpt lat="45.098246086520284" lon="7.658854837041111"><ele>250.0</ele><time>2026-04-04T09:31:38.999Z</time></trkpt><trkpt lat="45.098403250776386" lon="7.6589549610438"><ele>250.0</ele><time>2026-04-04T09:31:39.999Z</time></trkpt><trkpt lat="45.09855819660032" lon="7.659060823424642"><ele>250.66666666666666</ele><time>2026-04-04T09:31:40.999Z</time></trkpt><trkpt lat="45.098714728316445" lon="7.659163132044319"><ele>251.33333333333331</ele><time>2026-04-04T09:31:41.999Z</time></trkpt><trkpt lat="45.098873798371656" lon="7.659266192892891"><ele>252.0</ele><time>2026-04-04T09:31:42.999Z</time></trkpt><trkpt lat="45.09902386653516" lon="7.659366965856659"><ele>252.33333333333331</ele><time>2026-04-04T09:31:43.999Z</time></trkpt><trkpt lat="45.09917675815477" lon="7.659469290066824"><ele>252.66666666666666</ele><time>2026-04-04T09:31:44.999Z</time></trkpt><trkpt lat="45.09933191530531" lon="7.659573596179824"><ele>253.0</ele><time>2026-04-04T09:31:45.999Z</time></trkpt><trkpt lat="45.09948784216256" lon="7.659677967547517"><ele>253.0</ele><time>2026-04-04T09:31:46.999Z</time></trkpt><trkpt lat="45.099650265352864" lon="7.659783998323414"><ele>253.0</ele><time>2026-04-04T09:31:47.999Z</time></trkpt><trkpt lat="45.09981917699827" lon="7.6599013600811725"><ele>253.0</ele><time>2026-04-04T09:31:48.999Z</time></trkpt><trkpt lat="45.09998979935919" lon="7.6600194696376755"><ele>252.33333333333331</ele><time>2026-04-04T09:31:49.999Z</time></trkpt><trkpt lat="45.10015285859466" lon="7.660136657045723"><ele>251.66666666666669</ele><time>2026-04-04T09:31:50.999Z</time></trkpt><trkpt lat="45.100309047192056" lon="7.66025212246953"><ele>251.0</ele><time>2026-04-04T09:31:51.999Z</time></trkpt><trkpt lat="45.10045877641254" lon="7.6603479294407055"><ele>251.0</ele><time>2026-04-04T09:31:52.999Z</time></trkpt><trkpt lat="45.10060490929784" lon="7.660455156190421"><ele>251.0</ele><time>2026-04-04T09:31:53.999Z</time></trkpt><trkpt lat="45.100752625243" lon="7.660555418544219"><ele>251.0</ele><time>2026-04-04T09:31:54.999Z</time></trkpt><trkpt lat="45.10090482947458" lon="7.660658914249427"><ele>251.0</ele><time>2026-04-04T09:31:55.999Z</time></trkpt><trkpt lat="45.101062351905114" lon="7.660768693965744"><ele>251.0</ele><time>2026-04-04T09:31:56.999Z</time></trkpt><trkpt lat="45.10122301813963" lon="7.660878189647118"><ele>251.0</ele><time>2026-04-04T09:31:57.999Z</time></trkpt><trkpt lat="45.101384406906675" lon="7.66098085885647"><ele>251.0</ele><time>2026-04-04T09:31:58.999Z</time></trkpt><trkpt lat="45.10154732082338" lon="7.661064233174392"><ele>251.0</ele><time>2026-04-04T09:31:59.999Z</time></trkpt><trkpt lat="45.101704037778596" lon="7.661168734613653"><ele>251.0</ele><time>2026-04-04T09:32:00.999Z</time></trkpt><trkpt lat="45.10185957591626" lon="7.66127082401655"><ele>251.66666666666669</ele><time>2026-04-04T09:32:01.999Z</time></trkpt><trkpt lat="45.102013577238836" lon="7.6613709599036826"><ele>252.33333333333331</ele><time>2026-04-04T09:32:02.999Z</time></trkpt><trkpt lat="45.102158008440405" lon="7.661470380363909"><ele>253.0</ele><time>2026-04-04T09:32:03.999Z</time></trkpt><trkpt lat="45.10230288852524" lon="7.661568203171923"><ele>252.75</ele><time>2026-04-04T09:32:04.999Z</time></trkpt><trkpt lat="45.10243754668159" lon="7.661658887489106"><ele>252.5</ele><time>2026-04-04T09:32:05.999Z</time></trkpt><trkpt lat="45.10256470871364" lon="7.661742073394483"><ele>252.25</ele><time>2026-04-04T09:32:06.999Z</time></trkpt><trkpt lat="45.102686268234" lon="7.661825176042229"><ele>252.0</ele><time>2026-04-04T09:32:07.999Z</time></trkpt><trkpt lat="45.10279519853853" lon="7.661898361677085"><ele>252.0</ele><time>2026-04-04T09:32:08.999Z</time></trkpt><trkpt lat="45.102895493436094" lon="7.661970603062329"><ele>252.0</ele><time>2026-04-04T09:32:09.999Z</time></trkpt><trkpt lat="45.10298503778988" lon="7.662033250296397"><ele>252.0</ele><time>2026-04-04T09:32:10.999Z</time></trkpt><trkpt lat="45.10305273192695" lon="7.662075747407598"><ele>252.0</ele><time>2026-04-04T09:32:11.999Z</time></trkpt><trkpt lat="45.1031436162585" lon="7.662137484537751"><ele>252.0</ele><time>2026-04-04T09:32:13.999Z</time></trkpt><trkpt lat="45.1032087029416" lon="7.662186024954247"><ele>251.5</ele><time>2026-04-04T09:32:16.999Z</time></trkpt><trkpt lat="45.10327020144096" lon="7.6622325186279445"><ele>251.0</ele><time>2026-04-04T09:33:03Z</time></trkpt><trkpt lat="45.103354760658185" lon="7.662270947036093"><ele>250.5</ele><time>2026-04-04T09:33:07Z</time></trkpt><trkpt lat="45.10341516219472" lon="7.662307200241211"><ele>250.0</ele><time>2026-04-04T09:33:08Z</time></trkpt><trkpt lat="45.10348500518258" lon="7.66234874509896"><ele>249.5</ele><time>2026-04-04T09:33:09Z</time></trkpt><trkpt lat="45.10355902551851" lon="7.662390364677804"><ele>249.0</ele><time>2026-04-04T09:33:10Z</time></trkpt><trkpt lat="45.103642600368346" lon="7.6624350317975995"><ele>249.0</ele><time>2026-04-04T09:33:11Z</time></trkpt><trkpt lat="45.10373918225222" lon="7.662487717053161"><ele>249.0</ele><time>2026-04-04T09:33:12Z</time></trkpt><trkpt lat="45.10384747389563" lon="7.662541830863809"><ele>249.0</ele><time>2026-04-04T09:33:13Z</time></trkpt><trkpt lat="45.10396136502682" lon="7.662603594787068"><ele>249.0</ele><time>2026-04-04T09:33:14Z</time></trkpt><trkpt lat="45.10408305167725" lon="7.662673349640791"><ele>249.0</ele><time>2026-04-04T09:33:15Z</time></trkpt><trkpt lat="45.104212207793914" lon="7.662748734701839"><ele>249.0</ele><time>2026-04-04T09:33:16Z</time></trkpt><trkpt lat="45.1043464299704" lon="7.662834057452994"><ele>249.0</ele><time>2026-04-04T09:33:17Z</time></trkpt><trkpt lat="45.1044847605751" lon="7.662925428031384"><ele>249.0</ele><time>2026-04-04T09:33:18Z</time></trkpt><trkpt lat="45.10462052833151" lon="7.663047708087249"><ele>249.33333333333331</ele><time>2026-04-04T09:33:19Z</time></trkpt><trkpt lat="45.10475099281876" lon="7.663186014790898"><ele>249.66666666666666</ele><time>2026-04-04T09:33:20Z</time></trkpt><trkpt lat="45.10486899294312" lon="7.6633361816931584"><ele>250.0</ele><time>2026-04-04T09:33:21Z</time></trkpt><trkpt lat="45.104971807140075" lon="7.663520284851578"><ele>250.0</ele><time>2026-04-04T09:33:22.016Z</time></trkpt><trkpt lat="45.105052751116155" lon="7.663728400827692"><ele>250.0</ele><time>2026-04-04T09:33:23.017Z</time></trkpt><trkpt lat="45.10510875217831" lon="7.663960974137943"><ele>250.0</ele><time>2026-04-04T09:33:24.023Z</time></trkpt><trkpt lat="45.10513799139173" lon="7.664203667529355"><ele>250.0</ele><time>2026-04-04T09:33:25.015Z</time></trkpt><trkpt lat="45.10514861539215" lon="7.664445783350664"><ele>250.0</ele><time>2026-04-04T09:33:26.021Z</time></trkpt><trkpt lat="45.10512160239033" lon="7.664670053453132"><ele>250.0</ele><time>2026-04-04T09:33:27.027Z</time></trkpt><trkpt lat="45.10511127212949" lon="7.664886395566434"><ele>250.0</ele><time>2026-04-04T09:33:28Z</time></trkpt><trkpt lat="45.105093634291926" lon="7.6652291179892424"><ele>250.0</ele><time>2026-04-04T09:33:29Z</time></trkpt><trkpt lat="45.10508013766676" lon="7.665474010187872"><ele>250.0</ele><time>2026-04-04T09:33:30Z</time></trkpt><trkpt lat="45.105075791154206" lon="7.665735298136439"><ele>250.0</ele><time>2026-04-04T09:33:31Z</time></trkpt><trkpt lat="45.10507964124714" lon="7.665945529796841"><ele>250.0</ele><time>2026-04-04T09:33:32Z</time></trkpt><trkpt lat="45.105076448912925" lon="7.66614193590539"><ele>250.0</ele><time>2026-04-04T09:33:33Z</time></trkpt><trkpt lat="45.105071738899824" lon="7.666330181251458"><ele>250.0</ele><time>2026-04-04T09:33:34Z</time></trkpt><trkpt lat="45.10506368845226" lon="7.666516334205442"><ele>250.0</ele><time>2026-04-04T09:33:35Z</time></trkpt><trkpt lat="45.105052457287115" lon="7.666707306848605"><ele>250.0</ele><time>2026-04-04T09:33:36Z</time></trkpt><trkpt lat="45.10503385434422" lon="7.666897846504835"><ele>250.0</ele><time>2026-04-04T09:33:37Z</time></trkpt><trkpt lat="45.10501328174791" lon="7.667081640054356"><ele>250.0</ele><time>2026-04-04T09:33:38Z</time></trkpt><trkpt lat="45.10500112726796" lon="7.667260932131775"><ele>249.5</ele><time>2026-04-04T09:33:39Z</time></trkpt><trkpt lat="45.104991610716915" lon="7.6674405387602595"><ele>249.0</ele><time>2026-04-04T09:33:40Z</time></trkpt><trkpt lat="45.10498057757041" lon="7.6676188826081315"><ele>248.5</ele><time>2026-04-04T09:33:41Z</time></trkpt><trkpt lat="45.10496944728071" lon="7.667796702220967"><ele>248.0</ele><time>2026-04-04T09:33:42Z</time></trkpt><trkpt lat="45.10495911005587" lon="7.667968065594808"><ele>248.0</ele><time>2026-04-04T09:33:43Z</time></trkpt><trkpt lat="45.10495676066209" lon="7.668141971205782"><ele>248.0</ele><time>2026-04-04T09:33:44Z</time></trkpt><trkpt lat="45.10495180129574" lon="7.668322388728096"><ele>248.0</ele><time>2026-04-04T09:33:45Z</time></trkpt><trkpt lat="45.104943019054716" lon="7.668500872476088"><ele>248.0</ele><time>2026-04-04T09:33:46Z</time></trkpt><trkpt lat="45.10493603383479" lon="7.668680677552031"><ele>247.75</ele><time>2026-04-04T09:33:47Z</time></trkpt><trkpt lat="45.104929497935686" lon="7.668860909589114"><ele>247.5</ele><time>2026-04-04T09:33:48Z</time></trkpt><trkpt lat="45.104924403774646" lon="7.669043876181194"><ele>247.25</ele><time>2026-04-04T09:33:49Z</time></trkpt><trkpt lat="45.10491931229101" lon="7.669226729799249"><ele>247.0</ele><time>2026-04-04T09:33:50Z</time></trkpt><trkpt lat="45.10491388596482" lon="7.669408988673578"><ele>247.25</ele><time>2026-04-04T09:33:51Z</time></trkpt><trkpt lat="45.104906442181026" lon="7.669590763268484"><ele>247.5</ele><time>2026-04-04T09:33:52Z</time></trkpt><trkpt lat="45.104901211886265" lon="7.6697705121746615"><ele>247.75</ele><time>2026-04-04T09:33:53Z</time></trkpt><trkpt lat="45.10489749283946" lon="7.669950271312705"><ele>248.0</ele><time>2026-04-04T09:33:54Z</time></trkpt><trkpt lat="45.10489520868629" lon="7.670125766080471"><ele>247.5</ele><time>2026-04-04T09:33:55Z</time></trkpt><trkpt lat="45.10489024290811" lon="7.670297008086763"><ele>247.0</ele><time>2026-04-04T09:33:56Z</time></trkpt><trkpt lat="45.10488477578028" lon="7.670463813210349"><ele>246.5</ele><time>2026-04-04T09:33:57Z</time></trkpt><trkpt lat="45.104877154422496" lon="7.670628957701034"><ele>246.0</ele><time>2026-04-04T09:33:58Z</time></trkpt><trkpt lat="45.104868929400844" lon="7.670790532390927"><ele>246.0</ele><time>2026-04-04T09:33:59Z</time></trkpt><trkpt lat="45.104857130647304" lon="7.67095153026491"><ele>246.00000000000003</ele><time>2026-04-04T09:34:00Z</time></trkpt><trkpt lat="45.10485172506856" lon="7.671113047314754"><ele>246.00000000000003</ele><time>2026-04-04T09:34:01Z</time></trkpt><trkpt lat="45.10484450006507" lon="7.671271937977847"><ele>246.0</ele><time>2026-04-04T09:34:02Z</time></trkpt><trkpt lat="45.10483782724682" lon="7.671425491233523"><ele>246.0</ele><time>2026-04-04T09:34:03Z</time></trkpt><trkpt lat="45.104830334801264" lon="7.6715748488171345"><ele>246.20000000000002</ele><time>2026-04-04T09:34:04Z</time></trkpt><trkpt lat="45.10482221122758" lon="7.671718401139663"><ele>246.40000000000003</ele><time>2026-04-04T09:34:05Z</time></trkpt><trkpt lat="45.10481398000936" lon="7.671854430208044"><ele>246.6</ele><time>2026-04-04T09:34:06Z</time></trkpt><trkpt lat="45.10480363743916" lon="7.67197831956526"><ele>246.8</ele><time>2026-04-04T09:34:07Z</time></trkpt><trkpt lat="45.10479793512137" lon="7.672078110832619"><ele>247.0</ele><time>2026-04-04T09:34:08Z</time></trkpt><trkpt lat="45.104792770002454" lon="7.6722160729409"><ele>246.66666666666666</ele><time>2026-04-04T09:34:10Z</time></trkpt><trkpt lat="45.10478595991436" lon="7.672326600911865"><ele>246.33333333333331</ele><time>2026-04-04T09:34:12Z</time></trkpt><trkpt lat="45.104787529846874" lon="7.672425211630851"><ele>246.0</ele><time>2026-04-04T09:34:14Z</time></trkpt><trkpt lat="45.10480138039714" lon="7.672521813455495"><ele>245.66666666666669</ele><time>2026-04-04T09:34:57Z</time></trkpt><trkpt lat="45.1047986775961" lon="7.672653749133153"><ele>245.33333333333334</ele><time>2026-04-04T09:34:59Z</time></trkpt><trkpt lat="45.104794066736844" lon="7.672752971925189"><ele>245.0</ele><time>2026-04-04T09:35:00Z</time></trkpt><trkpt lat="45.10478549248364" lon="7.672855164098525"><ele>244.2</ele><time>2026-04-04T09:35:01Z</time></trkpt><trkpt lat="45.104778143960544" lon="7.672977881564827"><ele>243.4</ele><time>2026-04-04T09:35:02Z</time></trkpt><trkpt lat="45.10476889425005" lon="7.673115573417148"><ele>242.60000000000002</ele><time>2026-04-04T09:35:03Z</time></trkpt><trkpt lat="45.10476044501054" lon="7.673264532253976"><ele>241.8</ele><time>2026-04-04T09:35:04Z</time></trkpt><trkpt lat="45.10474798672246" lon="7.673414859024212"><ele>241.0</ele><time>2026-04-04T09:35:05Z</time></trkpt><trkpt lat="45.10473701009245" lon="7.673579883283572"><ele>241.0</ele><time>2026-04-04T09:35:06Z</time></trkpt><trkpt lat="45.10472470057122" lon="7.673751700267492"><ele>241.0</ele><time>2026-04-04T09:35:07Z</time></trkpt><trkpt lat="45.10471460535445" lon="7.673917886430381"><ele>241.0</ele><time>2026-04-04T09:35:08Z</time></trkpt><trkpt lat="45.104704674559166" lon="7.674079467446406"><ele>241.0</ele><time>2026-04-04T09:35:09Z</time></trkpt><trkpt lat="45.10469364191664" lon="7.674239060039724"><ele>241.0</ele><time>2026-04-04T09:35:10Z</time></trkpt><trkpt lat="45.104686662970636" lon="7.6743975336043535"><ele>241.00000000000003</ele><time>2026-04-04T09:35:11Z</time></trkpt><trkpt lat="45.10467612769451" lon="7.674553777339532"><ele>241.00000000000003</ele><time>2026-04-04T09:35:12Z</time></trkpt><trkpt lat="45.10466379323266" lon="7.6747063786472305"><ele>241.0</ele><time>2026-04-04T09:35:13Z</time></trkpt><trkpt lat="45.10465564881609" lon="7.674860148796688"><ele>241.0</ele><time>2026-04-04T09:35:14Z</time></trkpt><trkpt lat="45.10464977297267" lon="7.67501127194663"><ele>242.0</ele><time>2026-04-04T09:35:15Z</time></trkpt><trkpt lat="45.1046420208332" lon="7.675160476033251"><ele>243.00000000000003</ele><time>2026-04-04T09:35:16Z</time></trkpt><trkpt lat="45.104631960694924" lon="7.675306017962645"><ele>244.00000000000003</ele><time>2026-04-04T09:35:17Z</time></trkpt><trkpt lat="45.10462298317776" lon="7.675452771125421"><ele>245.0</ele><time>2026-04-04T09:35:18Z</time></trkpt><trkpt lat="45.10461423508772" lon="7.6756014048353"><ele>246.0</ele><time>2026-04-04T09:35:19Z</time></trkpt><trkpt lat="45.10460670716002" lon="7.6757501525338"><ele>246.25</ele><time>2026-04-04T09:35:20Z</time></trkpt><trkpt lat="45.1045960305511" lon="7.675897457442007"><ele>246.5</ele><time>2026-04-04T09:35:21Z</time></trkpt><trkpt lat="45.10458729035886" lon="7.676054253287253"><ele>246.75</ele><time>2026-04-04T09:35:22Z</time></trkpt><trkpt lat="45.104580342319544" lon="7.676218517659834"><ele>247.0</ele><time>2026-04-04T09:35:23Z</time></trkpt><trkpt lat="45.10456952903848" lon="7.676389895855029"><ele>247.25</ele><time>2026-04-04T09:35:24Z</time></trkpt><trkpt lat="45.10455798053024" lon="7.676555208960525"><ele>247.5</ele><time>2026-04-04T09:35:25Z</time></trkpt><trkpt lat="45.10454896380683" lon="7.676725683430273"><ele>247.75</ele><time>2026-04-04T09:35:26Z</time></trkpt><trkpt lat="45.104541683542465" lon="7.676888134846778"><ele>248.0</ele><time>2026-04-04T09:35:27Z</time></trkpt><trkpt lat="45.10452845463284" lon="7.677060000618995"><ele>247.5</ele><time>2026-04-04T09:35:28Z</time></trkpt><trkpt lat="45.104519254332104" lon="7.677228632611718"><ele>247.0</ele><time>2026-04-04T09:35:29Z</time></trkpt><trkpt lat="45.10451168652028" lon="7.677392214566195"><ele>246.5</ele><time>2026-04-04T09:35:30Z</time></trkpt><trkpt lat="45.1045030647465" lon="7.67754763478333"><ele>246.0</ele><time>2026-04-04T09:35:31Z</time></trkpt><trkpt lat="45.104493150610914" lon="7.677698770602763"><ele>245.8</ele><time>2026-04-04T09:35:32Z</time></trkpt><trkpt lat="45.10448449832141" lon="7.677845176119347"><ele>245.60000000000002</ele><time>2026-04-04T09:35:33Z</time></trkpt><trkpt lat="45.1044748664002" lon="7.677990190577426"><ele>245.4</ele><time>2026-04-04T09:35:34Z</time></trkpt><trkpt lat="45.104464912193855" lon="7.678122383588096"><ele>245.2</ele><time>2026-04-04T09:35:35Z</time></trkpt><trkpt lat="45.104454779610016" lon="7.678230593729725"><ele>245.0</ele><time>2026-04-04T09:35:36Z</time></trkpt><trkpt lat="45.104450487717656" lon="7.678366633068519"><ele>245.00000000000003</ele><time>2026-04-04T09:35:38Z</time></trkpt><trkpt lat="45.10444397813087" lon="7.678461867893128"><ele>245.0</ele><time>2026-04-04T09:35:40Z</time></trkpt><trkpt lat="45.10443344314607" lon="7.678577295714133"><ele>245.0</ele><time>2026-04-04T09:35:43Z</time></trkpt><trkpt lat="45.104442485770996" lon="7.678695934666909"><ele>245.0</ele><time>2026-04-04T09:36:44Z</time></trkpt><trkpt lat="45.10443442071782" lon="7.6788552945031405"><ele>245.00000000000003</ele><time>2026-04-04T09:36:46Z</time></trkpt><trkpt lat="45.1044286777866" lon="7.678956453651378"><ele>245.0</ele><time>2026-04-04T09:36:47Z</time></trkpt><trkpt lat="45.104421218198866" lon="7.679074511161933"><ele>245.0</ele><time>2026-04-04T09:36:48Z</time></trkpt><trkpt lat="45.10441212006038" lon="7.679212600243661"><ele>245.0</ele><time>2026-04-04T09:36:49Z</time></trkpt><trkpt lat="45.10440449334575" lon="7.679367276700479"><ele>245.0</ele><time>2026-04-04T09:36:50Z</time></trkpt><trkpt lat="45.10439723510381" lon="7.679525135925537"><ele>245.0</ele><time>2026-04-04T09:36:51Z</time></trkpt><trkpt lat="45.10439040425007" lon="7.679693126053248"><ele>245.0</ele><time>2026-04-04T09:36:52Z</time></trkpt><trkpt lat="45.104382218887544" lon="7.67987165031504"><ele>245.0</ele><time>2026-04-04T09:36:53Z</time></trkpt><trkpt lat="45.104370319473915" lon="7.680059727638501"><ele>245.0</ele><time>2026-04-04T09:36:54Z</time></trkpt><trkpt lat="45.10435802753718" lon="7.680250902654143"><ele>245.0</ele><time>2026-04-04T09:36:55Z</time></trkpt><trkpt lat="45.10434702511171" lon="7.680445892863455"><ele>245.0</ele><time>2026-04-04T09:36:56Z</time></trkpt><trkpt lat="45.10433101412706" lon="7.680635781752817"><ele>245.0</ele><time>2026-04-04T09:36:57Z</time></trkpt><trkpt lat="45.10431863726575" lon="7.680817346269038"><ele>245.0</ele><time>2026-04-04T09:36:58Z</time></trkpt><trkpt lat="45.10430222844274" lon="7.680990894558443"><ele>245.0</ele><time>2026-04-04T09:36:59Z</time></trkpt><trkpt lat="45.104291453512616" lon="7.681153046317129"><ele>245.0</ele><time>2026-04-04T09:37:00Z</time></trkpt><trkpt lat="45.10428099209894" lon="7.681316138683064"><ele>244.5</ele><time>2026-04-04T09:37:01Z</time></trkpt><trkpt lat="45.10428173528076" lon="7.681476447993301"><ele>244.0</ele><time>2026-04-04T09:37:02Z</time></trkpt><trkpt lat="45.10427357418328" lon="7.6816504091271165"><ele>243.5</ele><time>2026-04-04T09:37:03Z</time></trkpt><trkpt lat="45.10426467059679" lon="7.681826830827359"><ele>243.0</ele><time>2026-04-04T09:37:04Z</time></trkpt><trkpt lat="45.10425470587664" lon="7.6820193773641545"><ele>243.0</ele><time>2026-04-04T09:37:05Z</time></trkpt><trkpt lat="45.10424576858161" lon="7.682210458453023"><ele>243.0</ele><time>2026-04-04T09:37:06Z</time></trkpt><trkpt lat="45.10423555056134" lon="7.682414805485884"><ele>243.0</ele><time>2026-04-04T09:37:07Z</time></trkpt><trkpt lat="45.104225267855384" lon="7.682616260138599"><ele>243.0</ele><time>2026-04-04T09:37:08Z</time></trkpt><trkpt lat="45.1042134366631" lon="7.682818417997636"><ele>243.0</ele><time>2026-04-04T09:37:09Z</time></trkpt><trkpt lat="45.10420465315346" lon="7.683017223595511"><ele>243.0</ele><time>2026-04-04T09:37:10Z</time></trkpt><trkpt lat="45.10419371689917" lon="7.683211269780684"><ele>243.0</ele><time>2026-04-04T09:37:11Z</time></trkpt><trkpt lat="45.10418222683162" lon="7.6833965862210265"><ele>243.0</ele><time>2026-04-04T09:37:12Z</time></trkpt><trkpt lat="45.104168508368204" lon="7.683582278965851"><ele>242.60000000000002</ele><time>2026-04-04T09:37:13Z</time></trkpt><trkpt lat="45.10415847782927" lon="7.683763027862171"><ele>242.20000000000002</ele><time>2026-04-04T09:37:14Z</time></trkpt><trkpt lat="45.104150482345325" lon="7.683926989704846"><ele>241.8</ele><time>2026-04-04T09:37:15Z</time></trkpt><trkpt lat="45.10414827859715" lon="7.684071094357496"><ele>241.4</ele><time>2026-04-04T09:37:16Z</time></trkpt><trkpt lat="45.10414889744185" lon="7.684189260658696"><ele>241.0</ele><time>2026-04-04T09:37:17Z</time></trkpt><trkpt lat="45.104144231116116" lon="7.68432209718105"><ele>240.83333333333331</ele><time>2026-04-04T09:37:19Z</time></trkpt><trkpt lat="45.10413913231405" lon="7.684443507619406"><ele>240.66666666666666</ele><time>2026-04-04T09:37:26Z</time></trkpt><trkpt lat="45.104124942626164" lon="7.684566751054262"><ele>240.5</ele><time>2026-04-04T09:37:28Z</time></trkpt><trkpt lat="45.10411385652363" lon="7.684673791897081"><ele>240.33333333333331</ele><time>2026-04-04T09:37:30Z</time></trkpt><trkpt lat="45.10411487398724" lon="7.684798316806393"><ele>240.16666666666666</ele><time>2026-04-04T09:37:33Z</time></trkpt><trkpt lat="45.1041747956694" lon="7.6848396357149005"><ele>240.0</ele><time>2026-04-04T09:37:34Z</time></trkpt><trkpt lat="45.10428305127636" lon="7.6848938710159524"><ele>240.0</ele><time>2026-04-04T09:37:36Z</time></trkpt><trkpt lat="45.10434661710859" lon="7.684904774322545"><ele>240.0</ele><time>2026-04-04T09:37:37Z</time></trkpt><trkpt lat="45.10441964140543" lon="7.684914403645797"><ele>240.0</ele><time>2026-04-04T09:37:38Z</time></trkpt><trkpt lat="45.1045008037167" lon="7.684910437162727"><ele>240.0</ele><time>2026-04-04T09:37:39Z</time></trkpt><trkpt lat="45.10458811735105" lon="7.68491684775256"><ele>240.0</ele><time>2026-04-04T09:37:40Z</time></trkpt><trkpt lat="45.104675182313144" lon="7.684920102582973"><ele>240.0</ele><time>2026-04-04T09:37:41Z</time></trkpt><trkpt lat="45.104766975247436" lon="7.684918868222679"><ele>240.0</ele><time>2026-04-04T09:37:42Z</time></trkpt><trkpt lat="45.10486022598504" lon="7.684921080468019"><ele>240.0</ele><time>2026-04-04T09:37:43Z</time></trkpt><trkpt lat="45.104956116501384" lon="7.6849251618622425"><ele>240.0</ele><time>2026-04-04T09:37:44Z</time></trkpt><trkpt lat="45.10505232666246" lon="7.6849270029491965"><ele>240.0</ele><time>2026-04-04T09:37:45Z</time></trkpt><trkpt lat="45.1051508568397" lon="7.684926387237888"><ele>240.0</ele><time>2026-04-04T09:37:46Z</time></trkpt><trkpt lat="45.10523839230964" lon="7.684929191333627"><ele>240.0</ele><time>2026-04-04T09:37:47Z</time></trkpt><trkpt lat="45.10532838685914" lon="7.684929955424997"><ele>240.0</ele><time>2026-04-04T09:37:48Z</time></trkpt><trkpt lat="45.10541441728182" lon="7.684937381094547"><ele>240.0</ele><time>2026-04-04T09:37:49Z</time></trkpt><trkpt lat="45.105500293102224" lon="7.684943365838213"><ele>240.0</ele><time>2026-04-04T09:37:50Z</time></trkpt><trkpt lat="45.10558750365859" lon="7.684952589945104"><ele>240.0</ele><time>2026-04-04T09:37:51Z</time></trkpt><trkpt lat="45.105675465144216" lon="7.684958508558648"><ele>240.0</ele><time>2026-04-04T09:37:52Z</time></trkpt><trkpt lat="45.10576348935736" lon="7.684961874653044"><ele>240.0</ele><time>2026-04-04T09:37:53Z</time></trkpt><trkpt lat="45.10585632926543" lon="7.684964948796539"><ele>240.0</ele><time>2026-04-04T09:37:54Z</time></trkpt><trkpt lat="45.10595148845638" lon="7.684975223360164"><ele>240.0</ele><time>2026-04-04T09:37:55Z</time></trkpt><trkpt lat="45.10604078039022" lon="7.684982293072001"><ele>240.0</ele><time>2026-04-04T09:37:56Z</time></trkpt><trkpt lat="45.106133413599416" lon="7.684986475598435"><ele>240.0</ele><time>2026-04-04T09:37:57Z</time></trkpt><trkpt lat="45.10622709356542" lon="7.684991177613794"><ele>240.0</ele><time>2026-04-04T09:37:58Z</time></trkpt><trkpt lat="45.10631732128553" lon="7.684998820073469"><ele>240.0</ele><time>2026-04-04T09:37:59Z</time></trkpt><trkpt lat="45.10639906034254" lon="7.685005467595691"><ele>240.0</ele><time>2026-04-04T09:38:00Z</time></trkpt><trkpt lat="45.10648588642378" lon="7.6850101718783"><ele>240.0</ele><time>2026-04-04T09:38:01Z</time></trkpt><trkpt lat="45.10656327393111" lon="7.685017781455633"><ele>240.0</ele><time>2026-04-04T09:38:02Z</time></trkpt><trkpt lat="45.10666243582752" lon="7.685032662802631"><ele>240.0</ele><time>2026-04-04T09:38:04Z</time></trkpt><trkpt lat="45.10675459990473" lon="7.685066568540436"><ele>239.6</ele><time>2026-04-04T09:38:07Z</time></trkpt><trkpt lat="45.1068712075268" lon="7.685137084639981"><ele>239.2</ele><time>2026-04-04T09:38:09Z</time></trkpt><trkpt lat="45.10695173091331" lon="7.68511502357142"><ele>238.8</ele><time>2026-04-04T09:38:10Z</time></trkpt><trkpt lat="45.10704855328366" lon="7.6850783587487905"><ele>238.4</ele><time>2026-04-04T09:38:11Z</time></trkpt><trkpt lat="45.107169707933146" lon="7.685068539046389"><ele>238.0</ele><time>2026-04-04T09:38:12Z</time></trkpt><trkpt lat="45.10728751728761" lon="7.685099599236213"><ele>237.75</ele><time>2026-04-04T09:38:13Z</time></trkpt><trkpt lat="45.10741453878451" lon="7.685127068992884"><ele>237.5</ele><time>2026-04-04T09:38:14Z</time></trkpt><trkpt lat="45.10754402948673" lon="7.685148981881504"><ele>237.25</ele><time>2026-04-04T09:38:15Z</time></trkpt><trkpt lat="45.10767159972963" lon="7.685170320897859"><ele>237.0</ele><time>2026-04-04T09:38:16Z</time></trkpt><trkpt lat="45.10779496292641" lon="7.685191365976506"><ele>237.0</ele><time>2026-04-04T09:38:17Z</time></trkpt><trkpt lat="45.10792251517759" lon="7.6852084003895484"><ele>237.0</ele><time>2026-04-04T09:38:18Z</time></trkpt><trkpt lat="45.10805116079096" lon="7.685225634064833"><ele>237.0</ele><time>2026-04-04T09:38:19Z</time></trkpt><trkpt lat="45.108180206060055" lon="7.685249453856975"><ele>237.0</ele><time>2026-04-04T09:38:20Z</time></trkpt><trkpt lat="45.10829721548548" lon="7.685282588908316"><ele>236.0</ele><time>2026-04-04T09:38:21Z</time></trkpt><trkpt lat="45.108414133765265" lon="7.685309931424785"><ele>235.0</ele><time>2026-04-04T09:38:22Z</time></trkpt><trkpt lat="45.10852954023228" lon="7.6853376548966255"><ele>234.0</ele><time>2026-04-04T09:38:23Z</time></trkpt><trkpt lat="45.10864434613339" lon="7.685361761950452"><ele>233.0</ele><time>2026-04-04T09:38:24Z</time></trkpt><trkpt lat="45.108755882917485" lon="7.685384546328741"><ele>233.0</ele><time>2026-04-04T09:38:25Z</time></trkpt><trkpt lat="45.10885567327307" lon="7.6853987499238"><ele>233.0</ele><time>2026-04-04T09:38:26Z</time></trkpt><trkpt lat="45.108952222202284" lon="7.685418736060945"><ele>233.0</ele><time>2026-04-04T09:38:27Z</time></trkpt><trkpt lat="45.10903945887646" lon="7.685437429715705"><ele>233.0</ele><time>2026-04-04T09:38:28Z</time></trkpt><trkpt lat="45.109122811977684" lon="7.685425838211918"><ele>233.0</ele><time>2026-04-04T09:38:29Z</time></trkpt><trkpt lat="45.10919497871155" lon="7.685507295450105"><ele>233.66666666666669</ele><time>2026-04-04T09:38:30Z</time></trkpt><trkpt lat="45.10924881183423" lon="7.685575778744832"><ele>234.33333333333334</ele><time>2026-04-04T09:38:31Z</time></trkpt><trkpt lat="45.109293045980735" lon="7.685668488303958"><ele>235.0</ele><time>2026-04-04T09:38:32Z</time></trkpt><trkpt lat="45.109321055932384" lon="7.685767287467074"><ele>235.66666666666669</ele><time>2026-04-04T09:38:33Z</time></trkpt><trkpt lat="45.10933092402493" lon="7.68587020333831"><ele>236.33333333333334</ele><time>2026-04-04T09:38:34Z</time></trkpt><trkpt lat="45.10931426635114" lon="7.685978380548932"><ele>237.0</ele><time>2026-04-04T09:38:35Z</time></trkpt><trkpt lat="45.10928783109689" lon="7.68608418315369"><ele>237.0</ele><time>2026-04-04T09:38:36Z</time></trkpt><trkpt lat="45.109255574583585" lon="7.6862019053820365"><ele>237.0</ele><time>2026-04-04T09:38:37Z</time></trkpt><trkpt lat="45.109218149213426" lon="7.6863372255854046"><ele>237.0</ele><time>2026-04-04T09:38:38Z</time></trkpt><trkpt lat="45.10917930519407" lon="7.686475958793331"><ele>237.0</ele><time>2026-04-04T09:38:39Z</time></trkpt><trkpt lat="45.10913790290607" lon="7.686624997654733"><ele>237.0</ele><time>2026-04-04T09:38:40Z</time></trkpt><trkpt lat="45.10909275361843" lon="7.686780193051047"><ele>237.0</ele><time>2026-04-04T09:38:41Z</time></trkpt><trkpt lat="45.10904327267657" lon="7.686947236363596"><ele>237.0</ele><time>2026-04-04T09:38:42Z</time></trkpt><trkpt lat="45.1089923151491" lon="7.687119016314845"><ele>237.0</ele><time>2026-04-04T09:38:43Z</time></trkpt><trkpt lat="45.1089423463338" lon="7.687285903448438"><ele>237.0</ele><time>2026-04-04T09:38:44Z</time></trkpt><trkpt lat="45.10889046178208" lon="7.687455207794763"><ele>237.0</ele><time>2026-04-04T09:38:45Z</time></trkpt><trkpt lat="45.10883783962991" lon="7.687627167100305"><ele>237.0</ele><time>2026-04-04T09:38:46Z</time></trkpt><trkpt lat="45.108787107284826" lon="7.687796754824751"><ele>237.0</ele><time>2026-04-04T09:38:47Z</time></trkpt><trkpt lat="45.10873132881193" lon="7.687973618106786"><ele>237.0</ele><time>2026-04-04T09:38:48Z</time></trkpt><trkpt lat="45.10867422195967" lon="7.688164371891988"><ele>236.66666666666669</ele><time>2026-04-04T09:38:49Z</time></trkpt><trkpt lat="45.108619397587134" lon="7.688364500410592"><ele>236.33333333333334</ele><time>2026-04-04T09:38:50Z</time></trkpt><trkpt lat="45.10856424857768" lon="7.688568899540549"><ele>236.0</ele><time>2026-04-04T09:38:51Z</time></trkpt><trkpt lat="45.10850482269049" lon="7.688770176735943"><ele>236.0</ele><time>2026-04-04T09:38:52Z</time></trkpt><trkpt lat="45.10844035668971" lon="7.688976343168055"><ele>236.0</ele><time>2026-04-04T09:38:53Z</time></trkpt><trkpt lat="45.108378690504296" lon="7.689175266034621"><ele>236.0</ele><time>2026-04-04T09:38:54Z</time></trkpt><trkpt lat="45.10831917831826" lon="7.68936998173114"><ele>235.66666666666669</ele><time>2026-04-04T09:38:55Z</time></trkpt><trkpt lat="45.108260111880774" lon="7.689563985260223"><ele>235.33333333333331</ele><time>2026-04-04T09:38:56Z</time></trkpt><trkpt lat="45.10820203966366" lon="7.689764658965476"><ele>235.0</ele><time>2026-04-04T09:38:57Z</time></trkpt><trkpt lat="45.10813615655764" lon="7.689981195726838"><ele>234.66666666666666</ele><time>2026-04-04T09:38:58Z</time></trkpt><trkpt lat="45.10806741309869" lon="7.690206598234241"><ele>234.33333333333331</ele><time>2026-04-04T09:38:59Z</time></trkpt><trkpt lat="45.10799275135427" lon="7.690443644294298"><ele>234.0</ele><time>2026-04-04T09:39:00Z</time></trkpt><trkpt lat="45.10791071760671" lon="7.690688718611242"><ele>234.0</ele><time>2026-04-04T09:39:01Z</time></trkpt><trkpt lat="45.10782674625616" lon="7.690937674323208"><ele>234.0</ele><time>2026-04-04T09:39:02Z</time></trkpt><trkpt lat="45.10775293255997" lon="7.691158761843009"><ele>234.0</ele><time>2026-04-04T09:39:03Z</time></trkpt><trkpt lat="45.10768849037791" lon="7.691366575388856"><ele>234.0</ele><time>2026-04-04T09:39:04Z</time></trkpt><trkpt lat="45.107638090071376" lon="7.691549292089235"><ele>234.0</ele><time>2026-04-04T09:39:05Z</time></trkpt><trkpt lat="45.10758670895042" lon="7.691719759190255"><ele>234.0</ele><time>2026-04-04T09:39:06Z</time></trkpt><trkpt lat="45.10754299937528" lon="7.691850006768315"><ele>234.0</ele><time>2026-04-04T09:39:07Z</time></trkpt><trkpt lat="45.10750763373081" lon="7.691962548336244"><ele>234.16666666666666</ele><time>2026-04-04T09:39:08Z</time></trkpt><trkpt lat="45.10747569196482" lon="7.692053883074292"><ele>234.33333333333331</ele><time>2026-04-04T09:39:10Z</time></trkpt><trkpt lat="45.10743707795726" lon="7.692174760625437"><ele>234.5</ele><time>2026-04-04T09:39:34Z</time></trkpt><trkpt lat="45.10740980921758" lon="7.69226809124357"><ele>234.66666666666666</ele><time>2026-04-04T09:39:35Z</time></trkpt><trkpt lat="45.107375743760734" lon="7.692374956470533"><ele>234.83333333333331</ele><time>2026-04-04T09:39:36Z</time></trkpt><trkpt lat="45.107336629889126" lon="7.692499145138113"><ele>235.0</ele><time>2026-04-04T09:39:37Z</time></trkpt><trkpt lat="45.10729597715308" lon="7.692630265794926"><ele>234.5</ele><time>2026-04-04T09:39:38Z</time></trkpt><trkpt lat="45.10725173803508" lon="7.692773258288838"><ele>234.0</ele><time>2026-04-04T09:39:39Z</time></trkpt><trkpt lat="45.107207481627924" lon="7.692918169479352"><ele>233.5</ele><time>2026-04-04T09:39:40Z</time></trkpt><trkpt lat="45.10716164789735" lon="7.69307696421542"><ele>233.0</ele><time>2026-04-04T09:39:41Z</time></trkpt><trkpt lat="45.10711364408547" lon="7.693245419030027"><ele>233.0</ele><time>2026-04-04T09:39:42Z</time></trkpt><trkpt lat="45.10706289313381" lon="7.693428517077667"><ele>233.0</ele><time>2026-04-04T09:39:43Z</time></trkpt><trkpt lat="45.10701174476157" lon="7.693608582701068"><ele>233.0</ele><time>2026-04-04T09:39:44Z</time></trkpt><trkpt lat="45.10695234883513" lon="7.693798804209518"><ele>233.0</ele><time>2026-04-04T09:39:45Z</time></trkpt><trkpt lat="45.10689477835772" lon="7.693985222048212"><ele>232.25</ele><time>2026-04-04T09:39:46Z</time></trkpt><trkpt lat="45.10683941670614" lon="7.694166013101063"><ele>231.5</ele><time>2026-04-04T09:39:47Z</time></trkpt><trkpt lat="45.10678259477067" lon="7.694347945695876"><ele>230.75</ele><time>2026-04-04T09:39:48Z</time></trkpt><trkpt lat="45.106725884176335" lon="7.69453196729952"><ele>230.0</ele><time>2026-04-04T09:39:49Z</time></trkpt><trkpt lat="45.10667086637553" lon="7.694711868952147"><ele>230.0</ele><time>2026-04-04T09:39:50Z</time></trkpt><trkpt lat="45.106614378689244" lon="7.694897139260224"><ele>230.0</ele><time>2026-04-04T09:39:51Z</time></trkpt><trkpt lat="45.10655935933761" lon="7.695074222143741"><ele>230.0</ele><time>2026-04-04T09:39:52Z</time></trkpt><trkpt lat="45.10650551867486" lon="7.695247817130576"><ele>230.0</ele><time>2026-04-04T09:39:53Z</time></trkpt><trkpt lat="45.10645363514669" lon="7.695410459439799"><ele>230.8</ele><time>2026-04-04T09:39:54Z</time></trkpt><trkpt lat="45.10640159924687" lon="7.695567898442898"><ele>231.6</ele><time>2026-04-04T09:39:55Z</time></trkpt><trkpt lat="45.106354029628335" lon="7.695713435914524"><ele>232.39999999999998</ele><time>2026-04-04T09:39:56Z</time></trkpt><trkpt lat="45.10631073468442" lon="7.695854900161199"><ele>233.2</ele><time>2026-04-04T09:39:57Z</time></trkpt><trkpt lat="45.10627317450949" lon="7.695983835435796"><ele>234.0</ele><time>2026-04-04T09:39:58Z</time></trkpt><trkpt lat="45.10624087157378" lon="7.696104643820989"><ele>234.2857142857143</ele><time>2026-04-04T09:39:59Z</time></trkpt><trkpt lat="45.1062094870418" lon="7.696201196876399"><ele>234.5714285714286</ele><time>2026-04-04T09:40:00Z</time></trkpt><trkpt lat="45.10618514419375" lon="7.696286125899645"><ele>234.85714285714286</ele><time>2026-04-04T09:40:01Z</time></trkpt><trkpt lat="45.10615926068498" lon="7.696389757125397"><ele>235.14285714285717</ele><time>2026-04-04T09:40:04Z</time></trkpt><trkpt lat="45.10612057894255" lon="7.696517584100019"><ele>235.42857142857144</ele><time>2026-04-04T09:41:06Z</time></trkpt><trkpt lat="45.10610099614151" lon="7.696607050444175"><ele>235.71428571428572</ele><time>2026-04-04T09:41:07Z</time></trkpt><trkpt lat="45.10607790427672" lon="7.696695136075049"><ele>236.0</ele><time>2026-04-04T09:41:08Z</time></trkpt><trkpt lat="45.106052392203466" lon="7.696798496437382"><ele>235.60000000000002</ele><time>2026-04-04T09:41:09Z</time></trkpt><trkpt lat="45.106023587701756" lon="7.696921446783058"><ele>235.20000000000002</ele><time>2026-04-04T09:41:10Z</time></trkpt><trkpt lat="45.10599265322722" lon="7.697053442724497"><ele>234.79999999999998</ele><time>2026-04-04T09:41:11Z</time></trkpt><trkpt lat="45.105963991338456" lon="7.697177508203953"><ele>234.39999999999998</ele><time>2026-04-04T09:41:12Z</time></trkpt><trkpt lat="45.10593311852327" lon="7.697308934091096"><ele>234.0</ele><time>2026-04-04T09:41:13Z</time></trkpt><trkpt lat="45.10589593601257" lon="7.697442489201462"><ele>234.0</ele><time>2026-04-04T09:41:14Z</time></trkpt><trkpt lat="45.105867034524024" lon="7.697582202251437"><ele>233.99999999999997</ele><time>2026-04-04T09:41:15Z</time></trkpt><trkpt lat="45.10583442884207" lon="7.697719323620662"><ele>233.99999999999997</ele><time>2026-04-04T09:41:16Z</time></trkpt><trkpt lat="45.10579476333675" lon="7.697868731636167"><ele>234.0</ele><time>2026-04-04T09:41:17Z</time></trkpt><trkpt lat="45.10575289789197" lon="7.698038256238137"><ele>234.0</ele><time>2026-04-04T09:41:18Z</time></trkpt><trkpt lat="45.10570765428064" lon="7.6982189657866025"><ele>233.33333333333331</ele><time>2026-04-04T09:41:19Z</time></trkpt><trkpt lat="45.10566033292335" lon="7.6984136395601634"><ele>232.66666666666666</ele><time>2026-04-04T09:41:20Z</time></trkpt><trkpt lat="45.105609832062115" lon="7.698635019687228"><ele>232.0</ele><time>2026-04-04T09:41:21Z</time></trkpt><trkpt lat="45.10554815648523" lon="7.698858609861439"><ele>231.33333333333331</ele><time>2026-04-04T09:41:22Z</time></trkpt><trkpt lat="45.10547634790459" lon="7.699080612244058"><ele>230.66666666666669</ele><time>2026-04-04T09:41:23Z</time></trkpt><trkpt lat="45.10539094903735" lon="7.699313094597086"><ele>230.0</ele><time>2026-04-04T09:41:24Z</time></trkpt><trkpt lat="45.105310444203106" lon="7.699548449958516"><ele>230.0</ele><time>2026-04-04T09:41:25Z</time></trkpt><trkpt lat="45.10523411565116" lon="7.699773871073834"><ele>230.0</ele><time>2026-04-04T09:41:26Z</time></trkpt><trkpt lat="45.105158121013744" lon="7.6999864098441515"><ele>230.0</ele><time>2026-04-04T09:41:27Z</time></trkpt><trkpt lat="45.105082688465274" lon="7.700197975448014"><ele>230.66666666666669</ele><time>2026-04-04T09:41:28Z</time></trkpt><trkpt lat="45.10500901812916" lon="7.700400107497111"><ele>231.33333333333331</ele><time>2026-04-04T09:41:29Z</time></trkpt><trkpt lat="45.10493363146471" lon="7.700604591188587"><ele>232.0</ele><time>2026-04-04T09:41:30Z</time></trkpt><trkpt lat="45.10484847984115" lon="7.700819344244404"><ele>232.0</ele><time>2026-04-04T09:41:31Z</time></trkpt><trkpt lat="45.1047681872824" lon="7.701031991940321"><ele>232.0</ele><time>2026-04-04T09:41:32Z</time></trkpt><trkpt lat="45.10469124778519" lon="7.70124253417878"><ele>232.0</ele><time>2026-04-04T09:41:33Z</time></trkpt><trkpt lat="45.10465388234725" lon="7.701389457186747"><ele>232.0</ele><time>2026-04-04T09:41:34Z</time></trkpt><trkpt lat="45.10460633873768" lon="7.7015613142682655"><ele>231.0</ele><time>2026-04-04T09:41:35Z</time></trkpt><trkpt lat="45.10454448835613" lon="7.701712987663795"><ele>230.0</ele><time>2026-04-04T09:41:36Z</time></trkpt><trkpt lat="45.1045101045003" lon="7.701882481576307"><ele>229.0</ele><time>2026-04-04T09:41:37Z</time></trkpt><trkpt lat="45.10450187063647" lon="7.702062535999431"><ele>228.0</ele><time>2026-04-04T09:41:38Z</time></trkpt><trkpt lat="45.10447773475018" lon="7.7022135274693735"><ele>227.60000000000002</ele><time>2026-04-04T09:41:39Z</time></trkpt><trkpt lat="45.104463349228254" lon="7.702332442552159"><ele>227.20000000000002</ele><time>2026-04-04T09:41:40Z</time></trkpt><trkpt lat="45.104654383552194" lon="7.7024641064059045"><ele>226.8</ele><time>2026-04-04T09:44:27Z</time></trkpt><trkpt lat="45.10471292600806" lon="7.702534075872066"><ele>226.4</ele><time>2026-04-04T09:44:30Z</time></trkpt><trkpt lat="45.10473706645582" lon="7.702444200927162"><ele>226.0</ele><time>2026-04-04T09:44:35Z</time></trkpt><trkpt lat="45.10468340058989" lon="7.7025363140315894"><ele>226.0</ele><time>2026-04-04T09:45:35Z</time></trkpt><trkpt lat="45.10453172562546" lon="7.702519321093968"><ele>226.00000000000003</ele><time>2026-04-04T09:45:37Z</time></trkpt><trkpt lat="45.10447087513974" lon="7.702376589864354"><ele>226.00000000000003</ele><time>2026-04-04T09:45:38Z</time></trkpt><trkpt lat="45.10450706274669" lon="7.702294413418379"><ele>226.0</ele><time>2026-04-04T09:45:40Z</time></trkpt><trkpt lat="45.10458177225245" lon="7.702334990906675"><ele>226.0</ele><time>2026-04-04T09:45:49Z</time></trkpt><trkpt lat="45.10454203899844" lon="7.702255692160088"><ele>225.99999999999997</ele><time>2026-04-04T09:45:57Z</time></trkpt><trkpt lat="45.10459214599264" lon="7.702370832159917"><ele>226.0</ele><time>2026-04-04T09:47:56Z</time></trkpt><trkpt lat="45.10466050321561" lon="7.7023796951407935"><ele>226.0</ele><time>2026-04-04T09:48:00Z</time></trkpt><trkpt lat="45.10470881664182" lon="7.702457244731422"><ele>226.0</ele><time>2026-04-04T09:48:39Z</time></trkpt><trkpt lat="45.10477360915803" lon="7.702459881935034"><ele>225.99999999999997</ele><time>2026-04-04T09:48:41Z</time></trkpt><trkpt lat="45.104858491414085" lon="7.702389194544987"><ele>226.0</ele><time>2026-04-04T09:48:43Z</time></trkpt><trkpt lat="45.104929665605546" lon="7.7023410536000965"><ele>226.4</ele><time>2026-04-04T09:48:45Z</time></trkpt><trkpt lat="45.10499259205537" lon="7.702318207457959"><ele>226.8</ele><time>2026-04-04T09:48:47Z</time></trkpt><trkpt lat="45.105062332011634" lon="7.702387671659681"><ele>227.20000000000002</ele><time>2026-04-04T09:48:49Z</time></trkpt><trkpt lat="45.105139759517265" lon="7.70243859686047"><ele>227.60000000000002</ele><time>2026-04-04T09:48:51Z</time></trkpt><trkpt lat="45.10524093875144" lon="7.702502928964357"><ele>228.0</ele><time>2026-04-04T09:48:53Z</time></trkpt><trkpt lat="45.10536684599291" lon="7.702558584719941"><ele>228.0</ele><time>2026-04-04T09:48:55Z</time></trkpt><trkpt lat="45.105427477382484" lon="7.7026249608046715"><ele>228.0</ele><time>2026-04-04T09:48:56Z</time></trkpt><trkpt lat="45.10550127698208" lon="7.7026740506782145"><ele>228.0</ele><time>2026-04-04T09:48:57Z</time></trkpt><trkpt lat="45.10557779537071" lon="7.702725666974573"><ele>228.0</ele><time>2026-04-04T09:48:58Z</time></trkpt><trkpt lat="45.10566310719989" lon="7.702784220861522"><ele>228.0</ele><time>2026-04-04T09:48:59Z</time></trkpt><trkpt lat="45.10574993135508" lon="7.70284390801528"><ele>228.0</ele><time>2026-04-04T09:49:00Z</time></trkpt><trkpt lat="45.10583185112073" lon="7.7029002807863325"><ele>227.0</ele><time>2026-04-04T09:49:01Z</time></trkpt><trkpt lat="45.10592027074704" lon="7.702955732104791"><ele>226.0</ele><time>2026-04-04T09:49:02Z</time></trkpt><trkpt lat="45.106011509942256" lon="7.70301456914813"><ele>225.0</ele><time>2026-04-04T09:49:03Z</time></trkpt><trkpt lat="45.10610905005642" lon="7.703077469833213"><ele>224.0</ele><time>2026-04-04T09:49:04Z</time></trkpt><trkpt lat="45.10621067780592" lon="7.703112653677626"><ele>223.0</ele><time>2026-04-04T09:49:05Z</time></trkpt><trkpt lat="45.106310205584535" lon="7.703177414565359"><ele>223.0</ele><time>2026-04-04T09:49:06Z</time></trkpt><trkpt lat="45.106412678108896" lon="7.7032466888399505"><ele>223.0</ele><time>2026-04-04T09:49:07Z</time></trkpt><trkpt lat="45.10651615619786" lon="7.703321025306049"><ele>223.0</ele><time>2026-04-04T09:49:08Z</time></trkpt><trkpt lat="45.106624166733766" lon="7.703395176330355"><ele>223.0</ele><time>2026-04-04T09:49:09Z</time></trkpt><trkpt lat="45.10672892507304" lon="7.703462746026047"><ele>223.0</ele><time>2026-04-04T09:49:10Z</time></trkpt><trkpt lat="45.10683031113742" lon="7.703555824821046"><ele>223.0</ele><time>2026-04-04T09:49:11Z</time></trkpt><trkpt lat="45.10694064981169" lon="7.703627794033865"><ele>223.0</ele><time>2026-04-04T09:49:12Z</time></trkpt><trkpt lat="45.10705454091537" lon="7.703669044686244"><ele>223.0</ele><time>2026-04-04T09:49:13Z</time></trkpt><trkpt lat="45.10716354482218" lon="7.703741601373661"><ele>222.75</ele><time>2026-04-04T09:49:14Z</time></trkpt><trkpt lat="45.10727385723424" lon="7.703812888942836"><ele>222.5</ele><time>2026-04-04T09:49:15Z</time></trkpt><trkpt lat="45.1073889606003" lon="7.703887898728486"><ele>222.25</ele><time>2026-04-04T09:49:16Z</time></trkpt><trkpt lat="45.107503248060574" lon="7.703987127752023"><ele>222.0</ele><time>2026-04-04T09:49:17Z</time></trkpt><trkpt lat="45.10763210737115" lon="7.704050676528096"><ele>222.5</ele><time>2026-04-04T09:49:18Z</time></trkpt><trkpt lat="45.107753399124405" lon="7.704132806895876"><ele>223.0</ele><time>2026-04-04T09:49:19Z</time></trkpt><trkpt lat="45.10787000791367" lon="7.704209481463596"><ele>223.5</ele><time>2026-04-04T09:49:20Z</time></trkpt><trkpt lat="45.10799014348263" lon="7.704289148938507"><ele>224.0</ele><time>2026-04-04T09:49:21Z</time></trkpt><trkpt lat="45.108115856717404" lon="7.704370737722072"><ele>224.0</ele><time>2026-04-04T09:49:22Z</time></trkpt><trkpt lat="45.10824042889291" lon="7.704461356598498"><ele>224.0</ele><time>2026-04-04T09:49:23Z</time></trkpt><trkpt lat="45.10836013828464" lon="7.704547347324428"><ele>224.0</ele><time>2026-04-04T09:49:24Z</time></trkpt><trkpt lat="45.10847556023412" lon="7.704631160502212"><ele>224.0</ele><time>2026-04-04T09:49:25Z</time></trkpt><trkpt lat="45.108588102341216" lon="7.70470962671988"><ele>223.5</ele><time>2026-04-04T09:49:26Z</time></trkpt><trkpt lat="45.10870209496122" lon="7.704780892918651"><ele>223.0</ele><time>2026-04-04T09:49:27Z</time></trkpt><trkpt lat="45.10881955398125" lon="7.70485474411155"><ele>222.5</ele><time>2026-04-04T09:49:28Z</time></trkpt><trkpt lat="45.108940162147505" lon="7.7049217418898115"><ele>222.0</ele><time>2026-04-04T09:49:29Z</time></trkpt><trkpt lat="45.10906544609647" lon="7.704987831114455"><ele>222.0</ele><time>2026-04-04T09:49:30Z</time></trkpt><trkpt lat="45.10919805872573" lon="7.705042274495108"><ele>222.0</ele><time>2026-04-04T09:49:31Z</time></trkpt><trkpt lat="45.10932757629914" lon="7.7050908030385346"><ele>222.0</ele><time>2026-04-04T09:49:32Z</time></trkpt><trkpt lat="45.1094531519739" lon="7.705150128233921"><ele>222.0</ele><time>2026-04-04T09:49:33Z</time></trkpt><trkpt lat="45.10956948222049" lon="7.7052310246563644"><ele>221.75</ele><time>2026-04-04T09:49:34Z</time></trkpt><trkpt lat="45.109681995082624" lon="7.705306124836984"><ele>221.5</ele><time>2026-04-04T09:49:35Z</time></trkpt><trkpt lat="45.10979994990098" lon="7.705367101050055"><ele>221.25</ele><time>2026-04-04T09:49:36Z</time></trkpt><trkpt lat="45.109910163718055" lon="7.705424403060257"><ele>221.0</ele><time>2026-04-04T09:49:37Z</time></trkpt><trkpt lat="45.11001802036807" lon="7.705494370860143"><ele>221.0</ele><time>2026-04-04T09:49:38Z</time></trkpt><trkpt lat="45.11011924439053" lon="7.7055625752299814"><ele>221.00000000000003</ele><time>2026-04-04T09:49:39Z</time></trkpt><trkpt lat="45.1102139185408" lon="7.7056288868519385"><ele>221.00000000000003</ele><time>2026-04-04T09:49:40Z</time></trkpt><trkpt lat="45.110300863661195" lon="7.705687224619373"><ele>221.0</ele><time>2026-04-04T09:49:41Z</time></trkpt><trkpt lat="45.11038175450002" lon="7.7057405086164215"><ele>221.0</ele><time>2026-04-04T09:49:42Z</time></trkpt><trkpt lat="45.11045456846532" lon="7.7057856795088435"><ele>221.00000000000003</ele><time>2026-04-04T09:49:43Z</time></trkpt><trkpt lat="45.11053330272622" lon="7.705837314188633"><ele>221.0</ele><time>2026-04-04T09:49:44Z</time></trkpt><trkpt lat="45.11060077933358" lon="7.705882767609689"><ele>221.0</ele><time>2026-04-04T09:49:45Z</time></trkpt><trkpt lat="45.11067332708627" lon="7.7059309863888075"><ele>221.0</ele><time>2026-04-04T09:49:46Z</time></trkpt><trkpt lat="45.11074400544548" lon="7.705977199454847"><ele>221.00000000000003</ele><time>2026-04-04T09:49:47Z</time></trkpt><trkpt lat="45.11081467176873" lon="7.706024597272599"><ele>221.0</ele><time>2026-04-04T09:49:48Z</time></trkpt><trkpt lat="45.11088366217872" lon="7.706072969587184"><ele>220.16666666666669</ele><time>2026-04-04T09:49:49Z</time></trkpt><trkpt lat="45.11095608790409" lon="7.706122812752169"><ele>219.33333333333334</ele><time>2026-04-04T09:49:50Z</time></trkpt><trkpt lat="45.11103041499306" lon="7.706171517104186"><ele>218.5</ele><time>2026-04-04T09:49:51Z</time></trkpt><trkpt lat="45.111104855156" lon="7.706216587864566"><ele>217.66666666666669</ele><time>2026-04-04T09:49:52Z</time></trkpt><trkpt lat="45.11118259464034" lon="7.706274359517658"><ele>216.83333333333334</ele><time>2026-04-04T09:49:54Z</time></trkpt><trkpt lat="45.11124192654949" lon="7.706324586508408"><ele>216.0</ele><time>2026-04-04T09:50:09Z</time></trkpt><trkpt lat="45.11132511338183" lon="7.706384021017341"><ele>216.0</ele><time>2026-04-04T09:50:11Z</time></trkpt><trkpt lat="45.11140073587491" lon="7.706438180454067"><ele>216.0</ele><time>2026-04-04T09:50:13Z</time></trkpt><trkpt lat="45.11146335307061" lon="7.706480323367698"><ele>216.0</ele><time>2026-04-04T09:50:15Z</time></trkpt><trkpt lat="45.1115273980517" lon="7.70652241083395"><ele>216.0</ele><time>2026-04-04T09:50:19Z</time></trkpt><trkpt lat="45.11159711725827" lon="7.706563453074527"><ele>216.0</ele><time>2026-04-04T09:50:23Z</time></trkpt><trkpt lat="45.111678834329794" lon="7.706597462195422"><ele>216.0</ele><time>2026-04-04T09:50:27Z</time></trkpt><trkpt lat="45.1117896838761" lon="7.706665434957893"><ele>216.5</ele><time>2026-04-04T09:50:29Z</time></trkpt><trkpt lat="45.111876911880195" lon="7.706742808009691"><ele>217.0</ele><time>2026-04-04T09:50:31Z</time></trkpt><trkpt lat="45.11195049840122" lon="7.706810181267654"><ele>217.5</ele><time>2026-04-04T09:50:33Z</time></trkpt><trkpt lat="45.11201210286186" lon="7.706957580465663"><ele>218.0</ele><time>2026-04-04T09:50:35Z</time></trkpt><trkpt lat="45.11203477934618" lon="7.707047436633404"><ele>218.5</ele><time>2026-04-04T09:50:36Z</time></trkpt><trkpt lat="45.11206088456171" lon="7.707128964278145"><ele>219.0</ele><time>2026-04-04T09:50:37Z</time></trkpt><trkpt lat="45.11208903085102" lon="7.707211361473837"><ele>219.2</ele><time>2026-04-04T09:50:38Z</time></trkpt><trkpt lat="45.112118519311124" lon="7.707304235340445"><ele>219.39999999999998</ele><time>2026-04-04T09:50:39Z</time></trkpt><trkpt lat="45.11208728490201" lon="7.707525024533093"><ele>219.6</ele><time>2026-04-04T09:50:41Z</time></trkpt><trkpt lat="45.112040213185985" lon="7.707638361817284"><ele>219.8</ele><time>2026-04-04T09:50:42Z</time></trkpt><trkpt lat="45.11197757095081" lon="7.7077614612834555"><ele>220.0</ele><time>2026-04-04T09:50:43Z</time></trkpt><trkpt lat="45.111900784801584" lon="7.707896718359594"><ele>220.0</ele><time>2026-04-04T09:50:44Z</time></trkpt><trkpt lat="45.11182579688567" lon="7.708038302666431"><ele>220.0</ele><time>2026-04-04T09:50:45Z</time></trkpt><trkpt lat="45.1117513013709" lon="7.708186064434098"><ele>220.0</ele><time>2026-04-04T09:50:46Z</time></trkpt><trkpt lat="45.111672135522824" lon="7.708335144787901"><ele>220.0</ele><time>2026-04-04T09:50:47Z</time></trkpt><trkpt lat="45.11158985491184" lon="7.70849045378868"><ele>219.75</ele><time>2026-04-04T09:50:48Z</time></trkpt><trkpt lat="45.111508052137474" lon="7.708649638675574"><ele>219.5</ele><time>2026-04-04T09:50:49Z</time></trkpt><trkpt lat="45.1114247391481" lon="7.708804173430598"><ele>219.25</ele><time>2026-04-04T09:50:50Z</time></trkpt><trkpt lat="45.111334022245764" lon="7.708968309091565"><ele>219.0</ele><time>2026-04-04T09:50:51Z</time></trkpt><trkpt lat="45.11123640420882" lon="7.709142720570322"><ele>219.0</ele><time>2026-04-04T09:50:52Z</time></trkpt><trkpt lat="45.11114059636475" lon="7.709318558415683"><ele>219.0</ele><time>2026-04-04T09:50:53Z</time></trkpt><trkpt lat="45.111046550629474" lon="7.7094949650019835"><ele>219.0</ele><time>2026-04-04T09:50:54Z</time></trkpt><trkpt lat="45.11094989022014" lon="7.709669257197427"><ele>219.0</ele><time>2026-04-04T09:50:55Z</time></trkpt><trkpt lat="45.11085521905332" lon="7.709844627001072"><ele>219.0</ele><time>2026-04-04T09:50:56Z</time></trkpt><trkpt lat="45.11076083383063" lon="7.710026218711232"><ele>219.0</ele><time>2026-04-04T09:50:57Z</time></trkpt><trkpt lat="45.11065971525793" lon="7.7102218699439"><ele>218.33333333333331</ele><time>2026-04-04T09:50:58Z</time></trkpt><trkpt lat="45.1105547585383" lon="7.7104176108894755"><ele>217.66666666666666</ele><time>2026-04-04T09:50:59Z</time></trkpt><trkpt lat="45.110450047108955" lon="7.710620537755024"><ele>217.0</ele><time>2026-04-04T09:51:00Z</time></trkpt><trkpt lat="45.11033751949904" lon="7.710820150247359"><ele>217.0</ele><time>2026-04-04T09:51:01Z</time></trkpt><trkpt lat="45.110226014235835" lon="7.711025099623124"><ele>217.0</ele><time>2026-04-04T09:51:02Z</time></trkpt><trkpt lat="45.11011275651298" lon="7.711230080354785"><ele>217.0</ele><time>2026-04-04T09:51:03Z</time></trkpt><trkpt lat="45.10999971086104" lon="7.711441261480561"><ele>217.0</ele><time>2026-04-04T09:51:04Z</time></trkpt><trkpt lat="45.10988171440586" lon="7.711658752898241"><ele>217.0</ele><time>2026-04-04T09:51:05Z</time></trkpt><trkpt lat="45.10975405162487" lon="7.711861429336885"><ele>217.0</ele><time>2026-04-04T09:51:06Z</time></trkpt><trkpt lat="45.10964980727529" lon="7.712070883839131"><ele>217.66666666666666</ele><time>2026-04-04T09:51:07Z</time></trkpt><trkpt lat="45.10953432789358" lon="7.712283047021619"><ele>218.33333333333331</ele><time>2026-04-04T09:51:08Z</time></trkpt><trkpt lat="45.109417962346896" lon="7.712493151276543"><ele>219.0</ele><time>2026-04-04T09:51:09Z</time></trkpt><trkpt lat="45.10929853393804" lon="7.712696980958775"><ele>218.66666666666669</ele><time>2026-04-04T09:51:10Z</time></trkpt><trkpt lat="45.10918015663577" lon="7.7129057470166735"><ele>218.33333333333334</ele><time>2026-04-04T09:51:11Z</time></trkpt><trkpt lat="45.109062541353346" lon="7.713117770923919"><ele>218.0</ele><time>2026-04-04T09:51:12Z</time></trkpt><trkpt lat="45.1089425196452" lon="7.713339949563201"><ele>217.33333333333334</ele><time>2026-04-04T09:51:13Z</time></trkpt><trkpt lat="45.10882206712362" lon="7.713560621839089"><ele>216.66666666666669</ele><time>2026-04-04T09:51:14Z</time></trkpt><trkpt lat="45.108699425684925" lon="7.7137855236453845"><ele>216.0</ele><time>2026-04-04T09:51:15Z</time></trkpt><trkpt lat="45.1085758478196" lon="7.714015014881957"><ele>216.0</ele><time>2026-04-04T09:51:16Z</time></trkpt><trkpt lat="45.10845397766728" lon="7.71424490408106"><ele>216.0</ele><time>2026-04-04T09:51:17Z</time></trkpt><trkpt lat="45.10833231066249" lon="7.714471689290936"><ele>216.0</ele><time>2026-04-04T09:51:18Z</time></trkpt><trkpt lat="45.108206012529216" lon="7.714701141467839"><ele>216.0</ele><time>2026-04-04T09:51:19Z</time></trkpt><trkpt lat="45.1080821326939" lon="7.714917881876035"><ele>216.0</ele><time>2026-04-04T09:51:20Z</time></trkpt><trkpt lat="45.107954869377416" lon="7.715126123558598"><ele>216.0</ele><time>2026-04-04T09:51:21Z</time></trkpt><trkpt lat="45.10782995325" lon="7.715318289672586"><ele>216.0</ele><time>2026-04-04T09:51:22Z</time></trkpt><trkpt lat="45.10770108446582" lon="7.7154989099186775"><ele>216.0</ele><time>2026-04-04T09:51:23Z</time></trkpt><trkpt lat="45.10757372468593" lon="7.71567558487699"><ele>216.0</ele><time>2026-04-04T09:51:24Z</time></trkpt><trkpt lat="45.107441780856576" lon="7.715852240992196"><ele>216.0</ele><time>2026-04-04T09:51:25Z</time></trkpt><trkpt lat="45.107315877882925" lon="7.716025748823085"><ele>216.0</ele><time>2026-04-04T09:51:26Z</time></trkpt><trkpt lat="45.107194395142656" lon="7.716201633693302"><ele>216.0</ele><time>2026-04-04T09:51:27Z</time></trkpt><trkpt lat="45.1070715984881" lon="7.716381661042205"><ele>216.33333333333331</ele><time>2026-04-04T09:51:28Z</time></trkpt><trkpt lat="45.10694711157497" lon="7.716558345230034"><ele>216.66666666666666</ele><time>2026-04-04T09:51:29Z</time></trkpt><trkpt lat="45.10682187690965" lon="7.7167355776922255"><ele>217.0</ele><time>2026-04-04T09:51:30Z</time></trkpt><trkpt lat="45.106693594472965" lon="7.716915596354905"><ele>216.33333333333331</ele><time>2026-04-04T09:51:31Z</time></trkpt><trkpt lat="45.10656286298755" lon="7.717095762607275"><ele>215.66666666666669</ele><time>2026-04-04T09:51:32Z</time></trkpt><trkpt lat="45.1064353309098" lon="7.717271022583192"><ele>215.0</ele><time>2026-04-04T09:51:33Z</time></trkpt><trkpt lat="45.10629939320587" lon="7.717458623911687"><ele>215.0</ele><time>2026-04-04T09:51:34Z</time></trkpt><trkpt lat="45.10615973119907" lon="7.717656586536248"><ele>215.0</ele><time>2026-04-04T09:51:35Z</time></trkpt><trkpt lat="45.106003231794894" lon="7.717874628835307"><ele>215.0</ele><time>2026-04-04T09:51:36Z</time></trkpt><trkpt lat="45.10583354897434" lon="7.718093318124824"><ele>214.66666666666669</ele><time>2026-04-04T09:51:37Z</time></trkpt><trkpt lat="45.105667790224686" lon="7.7183035608865715"><ele>214.33333333333331</ele><time>2026-04-04T09:51:38Z</time></trkpt><trkpt lat="45.105510151731515" lon="7.718513417273078"><ele>214.0</ele><time>2026-04-04T09:51:39Z</time></trkpt><trkpt lat="45.10535780053144" lon="7.718717837840612"><ele>214.0</ele><time>2026-04-04T09:51:40Z</time></trkpt><trkpt lat="45.10520463796733" lon="7.718918337220792"><ele>214.0</ele><time>2026-04-04T09:51:41Z</time></trkpt><trkpt lat="45.105043567401" lon="7.719088810851483"><ele>214.0</ele><time>2026-04-04T09:51:42Z</time></trkpt><trkpt lat="45.104863751602146" lon="7.719236025509422"><ele>214.0</ele><time>2026-04-04T09:51:43Z</time></trkpt><trkpt lat="45.10467870673574" lon="7.719366925316028"><ele>214.0</ele><time>2026-04-04T09:51:44Z</time></trkpt><trkpt lat="45.104489682095654" lon="7.719482764768603"><ele>214.0</ele><time>2026-04-04T09:51:45Z</time></trkpt><trkpt lat="45.104302827574884" lon="7.7196025248674704"><ele>213.33333333333331</ele><time>2026-04-04T09:51:46Z</time></trkpt><trkpt lat="45.10411070260265" lon="7.719723127594454"><ele>212.66666666666669</ele><time>2026-04-04T09:51:47Z</time></trkpt><trkpt lat="45.10391042279956" lon="7.719842929726762"><ele>212.0</ele><time>2026-04-04T09:51:48Z</time></trkpt><trkpt lat="45.10371372651021" lon="7.71995867963242"><ele>212.0</ele><time>2026-04-04T09:51:49Z</time></trkpt><trkpt lat="45.10350750202808" lon="7.72005206107324"><ele>212.0</ele><time>2026-04-04T09:51:50Z</time></trkpt><trkpt lat="45.10331448673207" lon="7.720168657376524"><ele>212.0</ele><time>2026-04-04T09:51:51Z</time></trkpt><trkpt lat="45.10311944699162" lon="7.720285962778902"><ele>213.0</ele><time>2026-04-04T09:51:52Z</time></trkpt><trkpt lat="45.1029340915397" lon="7.720410822034542"><ele>214.0</ele><time>2026-04-04T09:51:53Z</time></trkpt><trkpt lat="45.10274297593268" lon="7.720515792179862"><ele>215.0</ele><time>2026-04-04T09:51:54Z</time></trkpt><trkpt lat="45.10255470401891" lon="7.720622432026255"><ele>214.33333333333334</ele><time>2026-04-04T09:51:55Z</time></trkpt><trkpt lat="45.10236691892478" lon="7.720718519244686"><ele>213.66666666666669</ele><time>2026-04-04T09:51:56Z</time></trkpt><trkpt lat="45.10217339358374" lon="7.720802644034678"><ele>213.0</ele><time>2026-04-04T09:51:57Z</time></trkpt><trkpt lat="45.101978721339115" lon="7.720844083704884"><ele>213.0</ele><time>2026-04-04T09:51:58Z</time></trkpt><trkpt lat="45.10178378503312" lon="7.720911401043353"><ele>213.0</ele><time>2026-04-04T09:51:59Z</time></trkpt><trkpt lat="45.10159261312721" lon="7.720977012926056"><ele>213.0</ele><time>2026-04-04T09:52:00Z</time></trkpt><trkpt lat="45.10139952536142" lon="7.721043282348462"><ele>213.33333333333331</ele><time>2026-04-04T09:52:01Z</time></trkpt><trkpt lat="45.10121538550921" lon="7.721106587369541"><ele>213.66666666666666</ele><time>2026-04-04T09:52:02Z</time></trkpt><trkpt lat="45.10104239765326" lon="7.7211660991407"><ele>214.0</ele><time>2026-04-04T09:52:03Z</time></trkpt><trkpt lat="45.10088300731925" lon="7.72122093309774"><ele>213.75</ele><time>2026-04-04T09:52:04Z</time></trkpt><trkpt lat="45.1007369343793" lon="7.721271185492516"><ele>213.5</ele><time>2026-04-04T09:52:05Z</time></trkpt><trkpt lat="45.10059809289465" lon="7.721319136345824"><ele>213.25</ele><time>2026-04-04T09:52:06Z</time></trkpt><trkpt lat="45.10047139111779" lon="7.721364266891314"><ele>213.0</ele><time>2026-04-04T09:52:07Z</time></trkpt><trkpt lat="45.10035495990999" lon="7.721409830799861"><ele>213.0</ele><time>2026-04-04T09:52:08Z</time></trkpt><trkpt lat="45.100241185411555" lon="7.721462013018165"><ele>213.0</ele><time>2026-04-04T09:52:09Z</time></trkpt><trkpt lat="45.10013968750211" lon="7.721518257816421"><ele>213.0</ele><time>2026-04-04T09:52:10Z</time></trkpt><trkpt lat="45.100048315071895" lon="7.721596660528176"><ele>213.0</ele><time>2026-04-04T09:52:11Z</time></trkpt><trkpt lat="45.09995932494601" lon="7.721671152424865"><ele>213.0</ele><time>2026-04-04T09:52:12Z</time></trkpt><trkpt lat="45.09987054630531" lon="7.721725169607384"><ele>213.0</ele><time>2026-04-04T09:52:13Z</time></trkpt><trkpt lat="45.099798249036034" lon="7.721794853811228"><ele>213.0</ele><time>2026-04-04T09:52:14Z</time></trkpt><trkpt lat="45.09973191848178" lon="7.721862369789936"><ele>213.0</ele><time>2026-04-04T09:52:15Z</time></trkpt><trkpt lat="45.099678463766445" lon="7.721954411629729"><ele>213.0</ele><time>2026-04-04T09:52:16Z</time></trkpt><trkpt lat="45.099618045445155" lon="7.722026930785093"><ele>213.0</ele><time>2026-04-04T09:52:17Z</time></trkpt><trkpt lat="45.09956815035063" lon="7.722096709067148"><ele>213.0</ele><time>2026-04-04T09:52:18Z</time></trkpt><trkpt lat="45.09951615598811" lon="7.722169312721188"><ele>213.0</ele><time>2026-04-04T09:52:19Z</time></trkpt><trkpt lat="45.099466432900506" lon="7.722237965989126"><ele>213.0</ele><time>2026-04-04T09:52:20Z</time></trkpt><trkpt lat="45.09938413383114" lon="7.722350486669123"><ele>213.0</ele><time>2026-04-04T09:52:22Z</time></trkpt><trkpt lat="45.09933414760354" lon="7.72241567032854"><ele>213.0</ele><time>2026-04-04T09:52:23Z</time></trkpt><trkpt lat="45.09927863632331" lon="7.7224909121885155"><ele>213.0</ele><time>2026-04-04T09:52:24Z</time></trkpt><trkpt lat="45.09922311312372" lon="7.722570439556575"><ele>213.0</ele><time>2026-04-04T09:52:25Z</time></trkpt><trkpt lat="45.09916580355464" lon="7.722652430568945"><ele>213.0</ele><time>2026-04-04T09:52:26Z</time></trkpt><trkpt lat="45.09909485291767" lon="7.722751374049277"><ele>213.0</ele><time>2026-04-04T09:52:27Z</time></trkpt><trkpt lat="45.09902087648387" lon="7.7228580609489885"><ele>213.0</ele><time>2026-04-04T09:52:28Z</time></trkpt><trkpt lat="45.098937302769" lon="7.722980072442887"><ele>213.0</ele><time>2026-04-04T09:52:29Z</time></trkpt><trkpt lat="45.09885030552054" lon="7.72310951047674"><ele>213.0</ele><time>2026-04-04T09:52:30Z</time></trkpt><trkpt lat="45.0987593950051" lon="7.723245511812153"><ele>213.0</ele><time>2026-04-04T09:52:31Z</time></trkpt><trkpt lat="45.098656296789414" lon="7.723396659054131"><ele>213.0</ele><time>2026-04-04T09:52:32Z</time></trkpt><trkpt lat="45.09854936764103" lon="7.723552144089988"><ele>213.0</ele><time>2026-04-04T09:52:33Z</time></trkpt><trkpt lat="45.098439066760825" lon="7.723717860824205"><ele>212.66666666666669</ele><time>2026-04-04T09:52:34Z</time></trkpt><trkpt lat="45.09832296854914" lon="7.723891719744682"><ele>212.33333333333334</ele><time>2026-04-04T09:52:35Z</time></trkpt><trkpt lat="45.09819274812389" lon="7.7240537110835925"><ele>212.0</ele><time>2026-04-04T09:52:36Z</time></trkpt><trkpt lat="45.09807284526942" lon="7.724228248485082"><ele>212.0</ele><time>2026-04-04T09:52:37Z</time></trkpt><trkpt lat="45.09795069211422" lon="7.724406062840166"><ele>212.0</ele><time>2026-04-04T09:52:38Z</time></trkpt><trkpt lat="45.09782740954436" lon="7.724585521305673"><ele>212.0</ele><time>2026-04-04T09:52:39Z</time></trkpt><trkpt lat="45.09770259484213" lon="7.724767206774403"><ele>212.0</ele><time>2026-04-04T09:52:40Z</time></trkpt><trkpt lat="45.097575393617994" lon="7.724953264305656"><ele>212.0</ele><time>2026-04-04T09:52:41Z</time></trkpt><trkpt lat="45.097449336075336" lon="7.725136686249808"><ele>212.0</ele><time>2026-04-04T09:52:42Z</time></trkpt><trkpt lat="45.09733838957561" lon="7.725326137291722"><ele>212.0</ele><time>2026-04-04T09:52:43Z</time></trkpt><trkpt lat="45.097222253146704" lon="7.7254955503115434"><ele>212.0</ele><time>2026-04-04T09:52:44Z</time></trkpt><trkpt lat="45.09711974800962" lon="7.725647692298357"><ele>212.0</ele><time>2026-04-04T09:52:45Z</time></trkpt><trkpt lat="45.097030816280366" lon="7.7257818384663945"><ele>212.0</ele><time>2026-04-04T09:52:46Z</time></trkpt><trkpt lat="45.0969526680205" lon="7.725896642741644"><ele>212.00000000000003</ele><time>2026-04-04T09:52:47Z</time></trkpt><trkpt lat="45.09689250440447" lon="7.725976394881896"><ele>212.0</ele><time>2026-04-04T09:52:48Z</time></trkpt><trkpt lat="45.0968501945275" lon="7.726044318379415"><ele>212.0</ele><time>2026-04-04T09:52:49Z</time></trkpt><trkpt lat="45.096783567109746" lon="7.726147664231643"><ele>212.0</ele><time>2026-04-04T09:52:51Z</time></trkpt><trkpt lat="45.096721357011106" lon="7.726237093647701"><ele>212.00000000000003</ele><time>2026-04-04T09:52:53Z</time></trkpt><trkpt lat="45.0966501184253" lon="7.726321453879367"><ele>212.0</ele><time>2026-04-04T09:52:55Z</time></trkpt><trkpt lat="45.09652324334405" lon="7.726356888569848"><ele>211.50000000000003</ele><time>2026-04-04T09:52:57Z</time></trkpt><trkpt lat="45.09648086396425" lon="7.7264572908596785"><ele>211.0</ele><time>2026-04-04T09:52:58Z</time></trkpt><trkpt lat="45.09643745310464" lon="7.726547863835305"><ele>210.5</ele><time>2026-04-04T09:52:59Z</time></trkpt><trkpt lat="45.09638952332282" lon="7.726638993824188"><ele>210.0</ele><time>2026-04-04T09:53:00Z</time></trkpt><trkpt lat="45.096330438919644" lon="7.726729308474209"><ele>209.50000000000003</ele><time>2026-04-04T09:53:01Z</time></trkpt><trkpt lat="45.09626466632599" lon="7.726824237334223"><ele>209.0</ele><time>2026-04-04T09:53:02Z</time></trkpt><trkpt lat="45.096198051429575" lon="7.726926848722558"><ele>209.0</ele><time>2026-04-04T09:53:03Z</time></trkpt><trkpt lat="45.09613272514796" lon="7.727039705298544"><ele>209.0</ele><time>2026-04-04T09:53:04Z</time></trkpt><trkpt lat="45.09606431151412" lon="7.727164173448591"><ele>209.0</ele><time>2026-04-04T09:53:05Z</time></trkpt><trkpt lat="45.09599086842248" lon="7.727297406747043"><ele>209.0</ele><time>2026-04-04T09:53:06Z</time></trkpt><trkpt lat="45.095910682106144" lon="7.727442365968923"><ele>209.0</ele><time>2026-04-04T09:53:07Z</time></trkpt><trkpt lat="45.09583078670302" lon="7.727599875483875"><ele>209.0</ele><time>2026-04-04T09:53:08Z</time></trkpt><trkpt lat="45.09574939644031" lon="7.727769207772418"><ele>209.0</ele><time>2026-04-04T09:53:09Z</time></trkpt><trkpt lat="45.09566934097292" lon="7.7279397256193025"><ele>209.0</ele><time>2026-04-04T09:53:10Z</time></trkpt><trkpt lat="45.095588137807205" lon="7.728123068906025"><ele>209.66666666666669</ele><time>2026-04-04T09:53:11Z</time></trkpt><trkpt lat="45.09550676386852" lon="7.728311820213095"><ele>210.33333333333331</ele><time>2026-04-04T09:53:12Z</time></trkpt><trkpt lat="45.09542936032907" lon="7.728510202621247"><ele>211.0</ele><time>2026-04-04T09:53:13Z</time></trkpt><trkpt lat="45.095352068140954" lon="7.728720158951434"><ele>211.0</ele><time>2026-04-04T09:53:14Z</time></trkpt><trkpt lat="45.0952764854461" lon="7.728934747403891"><ele>211.0</ele><time>2026-04-04T09:53:15Z</time></trkpt><trkpt lat="45.09520394182734" lon="7.729153484925147"><ele>211.0</ele><time>2026-04-04T09:53:16Z</time></trkpt><trkpt lat="45.09513390778456" lon="7.729377946884271"><ele>211.0</ele><time>2026-04-04T09:53:17Z</time></trkpt><trkpt lat="45.09506263956304" lon="7.729609687449312"><ele>211.0</ele><time>2026-04-04T09:53:18Z</time></trkpt><trkpt lat="45.094981822399276" lon="7.729849253696505"><ele>211.0</ele><time>2026-04-04T09:53:19Z</time></trkpt><trkpt lat="45.09490301717492" lon="7.730085905871413"><ele>210.33333333333331</ele><time>2026-04-04T09:53:20Z</time></trkpt><trkpt lat="45.09483182091571" lon="7.730331106433499"><ele>209.66666666666669</ele><time>2026-04-04T09:53:21Z</time></trkpt><trkpt lat="45.09476276549873" lon="7.730574956902874"><ele>209.0</ele><time>2026-04-04T09:53:22Z</time></trkpt><trkpt lat="45.09469962174565" lon="7.7308042569542375"><ele>209.0</ele><time>2026-04-04T09:53:23Z</time></trkpt><trkpt lat="45.09464319040314" lon="7.731030223928919"><ele>209.0</ele><time>2026-04-04T09:53:24Z</time></trkpt><trkpt lat="45.094592398334" lon="7.731266366398899"><ele>209.0</ele><time>2026-04-04T09:53:25Z</time></trkpt><trkpt lat="45.09456896513723" lon="7.731480571397346"><ele>209.33333333333334</ele><time>2026-04-04T09:53:26Z</time></trkpt><trkpt lat="45.09449115053154" lon="7.7316510618512515"><ele>209.66666666666669</ele><time>2026-04-04T09:53:27Z</time></trkpt><trkpt lat="45.09459758780389" lon="7.7318835830671935"><ele>210.0</ele><time>2026-04-04T09:53:28Z</time></trkpt><trkpt lat="45.09464466390592" lon="7.732080235376018"><ele>210.0</ele><time>2026-04-04T09:53:29Z</time></trkpt><trkpt lat="45.09471833279767" lon="7.732257948471706"><ele>210.0</ele><time>2026-04-04T09:53:30Z</time></trkpt><trkpt lat="45.09482120120465" lon="7.732425684899524"><ele>210.0</ele><time>2026-04-04T09:53:31Z</time></trkpt><trkpt lat="45.0949408744418" lon="7.732559551166034"><ele>210.25</ele><time>2026-04-04T09:53:32Z</time></trkpt><trkpt lat="45.095074785309706" lon="7.732653728529538"><ele>210.5</ele><time>2026-04-04T09:53:33Z</time></trkpt><trkpt lat="45.09521527721636" lon="7.732703907783156"><ele>210.75</ele><time>2026-04-04T09:53:34Z</time></trkpt><trkpt lat="45.09536310822693" lon="7.732703358722028"><ele>211.0</ele><time>2026-04-04T09:53:35Z</time></trkpt><trkpt lat="45.09551030708029" lon="7.732673941185467"><ele>211.0</ele><time>2026-04-04T09:53:36Z</time></trkpt><trkpt lat="45.09564631554993" lon="7.732590168563782"><ele>211.0</ele><time>2026-04-04T09:53:37Z</time></trkpt><trkpt lat="45.09576747774243" lon="7.732463199325377"><ele>211.0</ele><time>2026-04-04T09:53:38Z</time></trkpt><trkpt lat="45.0958661168193" lon="7.732301923282778"><ele>210.33333333333331</ele><time>2026-04-04T09:53:39Z</time></trkpt><trkpt lat="45.09593887535361" lon="7.732110028771928"><ele>209.66666666666669</ele><time>2026-04-04T09:53:40Z</time></trkpt><trkpt lat="45.095982950457774" lon="7.73191140691474"><ele>209.0</ele><time>2026-04-04T09:53:41Z</time></trkpt><trkpt lat="45.09599253123" lon="7.731696674621259"><ele>209.0</ele><time>2026-04-04T09:53:42Z</time></trkpt><trkpt lat="45.09596563986878" lon="7.731484196092937"><ele>209.0</ele><time>2026-04-04T09:53:43Z</time></trkpt><trkpt lat="45.09590495327473" lon="7.731291107658098"><ele>209.0</ele><time>2026-04-04T09:53:44Z</time></trkpt><trkpt lat="45.09581261847823" lon="7.731128728369713"><ele>209.0</ele><time>2026-04-04T09:53:45Z</time></trkpt><trkpt lat="45.095697799517275" lon="7.730997299331094"><ele>210.0</ele><time>2026-04-04T09:53:46Z</time></trkpt><trkpt lat="45.095558760817724" lon="7.730904667216367"><ele>211.0</ele><time>2026-04-04T09:53:47Z</time></trkpt><trkpt lat="45.09540677786864" lon="7.730819699431191"><ele>212.0</ele><time>2026-04-04T09:53:48Z</time></trkpt><trkpt lat="45.095250803113814" lon="7.730732448181664"><ele>212.0</ele><time>2026-04-04T09:53:49Z</time></trkpt><trkpt lat="45.0950835250569" lon="7.7306291337722515"><ele>212.0</ele><time>2026-04-04T09:53:50Z</time></trkpt><trkpt lat="45.09493052971174" lon="7.730539696448964"><ele>212.0</ele><time>2026-04-04T09:53:51Z</time></trkpt><trkpt lat="45.09478983196363" lon="7.730433112350679"><ele>211.33333333333334</ele><time>2026-04-04T09:53:52Z</time></trkpt><trkpt lat="45.09462751563861" lon="7.730357018208318"><ele>210.66666666666669</ele><time>2026-04-04T09:53:53Z</time></trkpt><trkpt lat="45.0944846897484" lon="7.730267284752522"><ele>210.0</ele><time>2026-04-04T09:53:54Z</time></trkpt><trkpt lat="45.09434725596455" lon="7.730182112818168"><ele>210.0</ele><time>2026-04-04T09:53:55Z</time></trkpt><trkpt lat="45.09421466704571" lon="7.730074916043976"><ele>210.0</ele><time>2026-04-04T09:53:56Z</time></trkpt><trkpt lat="45.094069520635145" lon="7.72998448688592"><ele>210.0</ele><time>2026-04-04T09:53:57Z</time></trkpt><trkpt lat="45.093918293364645" lon="7.729890269256911"><ele>209.0</ele><time>2026-04-04T09:53:58Z</time></trkpt><trkpt lat="45.09376521005354" lon="7.7297948953442415"><ele>208.0</ele><time>2026-04-04T09:53:59Z</time></trkpt><trkpt lat="45.093605198526106" lon="7.729695205007111"><ele>207.0</ele><time>2026-04-04T09:54:00Z</time></trkpt><trkpt lat="45.09344897898505" lon="7.729597875303784"><ele>207.0</ele><time>2026-04-04T09:54:01Z</time></trkpt><trkpt lat="45.093286118122975" lon="7.729496380095974"><ele>207.0</ele><time>2026-04-04T09:54:02Z</time></trkpt><trkpt lat="45.0931165203018" lon="7.729390672550384"><ele>207.0</ele><time>2026-04-04T09:54:03Z</time></trkpt><trkpt lat="45.092944201356254" lon="7.729283269027136"><ele>208.0</ele><time>2026-04-04T09:54:04Z</time></trkpt><trkpt lat="45.09277633408055" lon="7.729178640073153"><ele>209.0</ele><time>2026-04-04T09:54:05Z</time></trkpt><trkpt lat="45.0926131761459" lon="7.729076946487161"><ele>210.0</ele><time>2026-04-04T09:54:06Z</time></trkpt><trkpt lat="45.09245099393798" lon="7.728975295920277"><ele>210.33333333333331</ele><time>2026-04-04T09:54:07Z</time></trkpt><trkpt lat="45.09229225235615" lon="7.728876047606981"><ele>210.66666666666666</ele><time>2026-04-04T09:54:08Z</time></trkpt><trkpt lat="45.09213747242799" lon="7.728779624079466"><ele>211.0</ele><time>2026-04-04T09:54:09Z</time></trkpt><trkpt lat="45.09197397942214" lon="7.72867934595168"><ele>211.0</ele><time>2026-04-04T09:54:10Z</time></trkpt><trkpt lat="45.091812876709135" lon="7.728574122816971"><ele>211.0</ele><time>2026-04-04T09:54:11Z</time></trkpt><trkpt lat="45.091650273091055" lon="7.728459500636797"><ele>211.0</ele><time>2026-04-04T09:54:12Z</time></trkpt><trkpt lat="45.09147690294232" lon="7.728342860173438"><ele>212.33333333333331</ele><time>2026-04-04T09:54:13Z</time></trkpt><trkpt lat="45.09129837217382" lon="7.728230472258171"><ele>213.66666666666669</ele><time>2026-04-04T09:54:14Z</time></trkpt><trkpt lat="45.09111728552059" lon="7.728118396241261"><ele>215.0</ele><time>2026-04-04T09:54:15Z</time></trkpt><trkpt lat="45.09093498567741" lon="7.728005715843195"><ele>214.66666666666669</ele><time>2026-04-04T09:54:16Z</time></trkpt><trkpt lat="45.09074990391925" lon="7.727891974402324"><ele>214.33333333333331</ele><time>2026-04-04T09:54:17Z</time></trkpt><trkpt lat="45.09056321650628" lon="7.727777246232547"><ele>214.0</ele><time>2026-04-04T09:54:18Z</time></trkpt><trkpt lat="45.09037741987369" lon="7.727662566311436"><ele>214.0</ele><time>2026-04-04T09:54:19Z</time></trkpt><trkpt lat="45.09019039680421" lon="7.727546726503472"><ele>214.0</ele><time>2026-04-04T09:54:20Z</time></trkpt><trkpt lat="45.09000753015114" lon="7.72743535508347"><ele>214.0</ele><time>2026-04-04T09:54:21Z</time></trkpt><trkpt lat="45.08982503762121" lon="7.7273368931612305"><ele>213.66666666666666</ele><time>2026-04-04T09:54:22Z</time></trkpt><trkpt lat="45.08965164942439" lon="7.727260594883919"><ele>213.33333333333331</ele><time>2026-04-04T09:54:23Z</time></trkpt><trkpt lat="45.08946852165884" lon="7.727199676394964"><ele>213.0</ele><time>2026-04-04T09:54:24Z</time></trkpt><trkpt lat="45.08928420248219" lon="7.727156541047178"><ele>213.0</ele><time>2026-04-04T09:54:25Z</time></trkpt><trkpt lat="45.089092729215736" lon="7.727129668668991"><ele>213.0</ele><time>2026-04-04T09:54:26Z</time></trkpt><trkpt lat="45.088906702326845" lon="7.727123787406051"><ele>213.0</ele><time>2026-04-04T09:54:27Z</time></trkpt><trkpt lat="45.08871682359135" lon="7.727129907203441"><ele>212.66666666666669</ele><time>2026-04-04T09:54:28Z</time></trkpt><trkpt lat="45.08853484170815" lon="7.727159871715129"><ele>212.33333333333334</ele><time>2026-04-04T09:54:29Z</time></trkpt><trkpt lat="45.08834580544982" lon="7.727210522850608"><ele>212.0</ele><time>2026-04-04T09:54:30Z</time></trkpt><trkpt lat="45.08816736144513" lon="7.727277983767006"><ele>211.66666666666669</ele><time>2026-04-04T09:54:31Z</time></trkpt><trkpt lat="45.08798858193945" lon="7.727359894439304"><ele>211.33333333333331</ele><time>2026-04-04T09:54:32Z</time></trkpt><trkpt lat="45.0878168371131" lon="7.727448886564714"><ele>211.0</ele><time>2026-04-04T09:54:33Z</time></trkpt><trkpt lat="45.08764610639221" lon="7.727538326910685"><ele>211.0</ele><time>2026-04-04T09:54:34Z</time></trkpt><trkpt lat="45.08746789697674" lon="7.727631685096424"><ele>211.0</ele><time>2026-04-04T09:54:35Z</time></trkpt><trkpt lat="45.087283671488144" lon="7.727728194894253"><ele>211.0</ele><time>2026-04-04T09:54:36Z</time></trkpt><trkpt lat="45.0871094105739" lon="7.727819484498884"><ele>211.33333333333331</ele><time>2026-04-04T09:54:37Z</time></trkpt><trkpt lat="45.086936631309975" lon="7.727910404925111"><ele>211.66666666666669</ele><time>2026-04-04T09:54:38Z</time></trkpt><trkpt lat="45.086760749681936" lon="7.7280030966671545"><ele>212.0</ele><time>2026-04-04T09:54:39Z</time></trkpt><trkpt lat="45.08658386543351" lon="7.728096316777591"><ele>212.33333333333334</ele><time>2026-04-04T09:54:40Z</time></trkpt><trkpt lat="45.086402282715966" lon="7.728192013163432"><ele>212.66666666666669</ele><time>2026-04-04T09:54:41Z</time></trkpt><trkpt lat="45.08622308506925" lon="7.728288067070298"><ele>213.0</ele><time>2026-04-04T09:54:42Z</time></trkpt><trkpt lat="45.086048010150456" lon="7.728381105018485"><ele>213.0</ele><time>2026-04-04T09:54:43Z</time></trkpt><trkpt lat="45.085870403012485" lon="7.728457904593194"><ele>213.0</ele><time>2026-04-04T09:54:44Z</time></trkpt><trkpt lat="45.085691327527435" lon="7.728517809903013"><ele>213.0</ele><time>2026-04-04T09:54:45Z</time></trkpt><trkpt lat="45.08551129275457" lon="7.728565810134981"><ele>214.0</ele><time>2026-04-04T09:54:46Z</time></trkpt><trkpt lat="45.085326899725075" lon="7.728605208178325"><ele>215.0</ele><time>2026-04-04T09:54:47Z</time></trkpt><trkpt lat="45.08514947336848" lon="7.728641013676304"><ele>216.0</ele><time>2026-04-04T09:54:48Z</time></trkpt><trkpt lat="45.08497619181668" lon="7.72867878363143"><ele>216.5</ele><time>2026-04-04T09:54:49Z</time></trkpt><trkpt lat="45.0848197125874" lon="7.728712930347545"><ele>217.0</ele><time>2026-04-04T09:54:50Z</time></trkpt><trkpt lat="45.084676046542754" lon="7.728766999737614"><ele>217.5</ele><time>2026-04-04T09:54:51Z</time></trkpt><trkpt lat="45.08454173762097" lon="7.728792431267384"><ele>218.0</ele><time>2026-04-04T09:54:52Z</time></trkpt><trkpt lat="45.084420815387574" lon="7.728809860883751"><ele>218.0</ele><time>2026-04-04T09:54:53Z</time></trkpt><trkpt lat="45.08430666579657" lon="7.7288282291243435"><ele>218.0</ele><time>2026-04-04T09:54:54Z</time></trkpt><trkpt lat="45.08420679874527" lon="7.728849560520373"><ele>218.0</ele><time>2026-04-04T09:54:55Z</time></trkpt><trkpt lat="45.08411799938095" lon="7.728867512730095"><ele>218.0</ele><time>2026-04-04T09:54:56Z</time></trkpt><trkpt lat="45.08405171431974" lon="7.728885226100652"><ele>218.0</ele><time>2026-04-04T09:54:57Z</time></trkpt><trkpt lat="45.08396685482293" lon="7.728909476339706"><ele>217.66666666666669</ele><time>2026-04-04T09:54:59Z</time></trkpt><trkpt lat="45.08390268346342" lon="7.728922958879745"><ele>217.33333333333334</ele><time>2026-04-04T09:55:03Z</time></trkpt><trkpt lat="45.083837342843445" lon="7.728923429080299"><ele>217.0</ele><time>2026-04-04T09:55:09Z</time></trkpt><trkpt lat="45.083713394319815" lon="7.72896464604321"><ele>216.66666666666669</ele><time>2026-04-04T09:55:11Z</time></trkpt><trkpt lat="45.08364943370115" lon="7.728977024881934"><ele>216.33333333333334</ele><time>2026-04-04T09:55:12Z</time></trkpt><trkpt lat="45.083571171733595" lon="7.728992812506436"><ele>216.0</ele><time>2026-04-04T09:55:13Z</time></trkpt><trkpt lat="45.08347766260459" lon="7.729018071882748"><ele>216.0</ele><time>2026-04-04T09:55:14Z</time></trkpt><trkpt lat="45.083380670911055" lon="7.729035559850483"><ele>216.00000000000003</ele><time>2026-04-04T09:55:15Z</time></trkpt><trkpt lat="45.08328006373526" lon="7.729058982621853"><ele>216.00000000000003</ele><time>2026-04-04T09:55:16Z</time></trkpt><trkpt lat="45.08318639366258" lon="7.729077655362934"><ele>216.0</ele><time>2026-04-04T09:55:17Z</time></trkpt><trkpt lat="45.08309577726749" lon="7.729096911951028"><ele>216.0</ele><time>2026-04-04T09:55:18Z</time></trkpt><trkpt lat="45.08300468854764" lon="7.729115523603312"><ele>216.4</ele><time>2026-04-04T09:55:19Z</time></trkpt><trkpt lat="45.08291314267331" lon="7.729135389443743"><ele>216.8</ele><time>2026-04-04T09:55:20Z</time></trkpt><trkpt lat="45.08282261697434" lon="7.7291552720677545"><ele>217.20000000000002</ele><time>2026-04-04T09:55:21Z</time></trkpt><trkpt lat="45.08272679913138" lon="7.729176543776684"><ele>217.60000000000002</ele><time>2026-04-04T09:55:22Z</time></trkpt><trkpt lat="45.08262959437537" lon="7.729197476010817"><ele>218.0</ele><time>2026-04-04T09:55:23Z</time></trkpt><trkpt lat="45.08252699158683" lon="7.729218596808023"><ele>218.5</ele><time>2026-04-04T09:55:24Z</time></trkpt><trkpt lat="45.082413379386715" lon="7.72923425766001"><ele>219.0</ele><time>2026-04-04T09:55:25Z</time></trkpt><trkpt lat="45.08229543554501" lon="7.729244371583408"><ele>219.5</ele><time>2026-04-04T09:55:26Z</time></trkpt><trkpt lat="45.0821803465414" lon="7.729244411032696"><ele>220.0</ele><time>2026-04-04T09:55:27Z</time></trkpt><trkpt lat="45.08207779149013" lon="7.729245678092541"><ele>219.99999999999997</ele><time>2026-04-04T09:55:28Z</time></trkpt><trkpt lat="45.08198679855054" lon="7.729248440890979"><ele>220.0</ele><time>2026-04-04T09:55:29Z</time></trkpt><trkpt lat="45.081905958737806" lon="7.729250547153894"><ele>220.0</ele><time>2026-04-04T09:55:30Z</time></trkpt><trkpt lat="45.08183470289657" lon="7.7292501495517065"><ele>220.0</ele><time>2026-04-04T09:55:31Z</time></trkpt><trkpt lat="45.081766493310575" lon="7.729255135725084"><ele>219.99999999999997</ele><time>2026-04-04T09:55:32Z</time></trkpt><trkpt lat="45.08164734216792" lon="7.729257746171535"><ele>220.0</ele><time>2026-04-04T09:55:34Z</time></trkpt><trkpt lat="45.081558689181115" lon="7.729265700635622"><ele>219.8</ele><time>2026-04-04T09:55:36Z</time></trkpt><trkpt lat="45.08149293680944" lon="7.729266386082132"><ele>219.6</ele><time>2026-04-04T09:55:45Z</time></trkpt><trkpt lat="45.081419444358794" lon="7.729272214530806"><ele>219.39999999999998</ele><time>2026-04-04T09:55:47Z</time></trkpt><trkpt lat="45.0812872233648" lon="7.729271623364345"><ele>219.2</ele><time>2026-04-04T09:55:49Z</time></trkpt><trkpt lat="45.08119748615434" lon="7.729273390369407"><ele>219.0</ele><time>2026-04-04T09:55:50Z</time></trkpt><trkpt lat="45.08109430850638" lon="7.7292739702916515"><ele>219.0</ele><time>2026-04-04T09:55:51Z</time></trkpt><trkpt lat="45.080987764910546" lon="7.729272626935816"><ele>219.0</ele><time>2026-04-04T09:55:52Z</time></trkpt><trkpt lat="45.08087022420499" lon="7.729276173649736"><ele>219.0</ele><time>2026-04-04T09:55:53Z</time></trkpt><trkpt lat="45.08075435189116" lon="7.729276682308144"><ele>219.0</ele><time>2026-04-04T09:55:54Z</time></trkpt><trkpt lat="45.08063838158185" lon="7.729280782178585"><ele>218.5</ele><time>2026-04-04T09:55:55Z</time></trkpt><trkpt lat="45.080519369441745" lon="7.729284372884768"><ele>218.0</ele><time>2026-04-04T09:55:56Z</time></trkpt><trkpt lat="45.08040062272967" lon="7.729285846348867"><ele>217.5</ele><time>2026-04-04T09:55:57Z</time></trkpt><trkpt lat="45.08028290826867" lon="7.729290177797641"><ele>217.0</ele><time>2026-04-04T09:55:58Z</time></trkpt><trkpt lat="45.08016347659371" lon="7.7292941976547995"><ele>217.0</ele><time>2026-04-04T09:55:59Z</time></trkpt><trkpt lat="45.08004102793617" lon="7.729300512954422"><ele>217.0</ele><time>2026-04-04T09:56:00Z</time></trkpt><trkpt lat="45.0799162990046" lon="7.7293080121759505"><ele>217.0</ele><time>2026-04-04T09:56:01Z</time></trkpt><trkpt lat="45.079787550685325" lon="7.729316050632719"><ele>217.0</ele><time>2026-04-04T09:56:02Z</time></trkpt><trkpt lat="45.07965854072427" lon="7.729325940235695"><ele>217.0</ele><time>2026-04-04T09:56:03Z</time></trkpt><trkpt lat="45.079526732616095" lon="7.729334081864972"><ele>217.0</ele><time>2026-04-04T09:56:04Z</time></trkpt><trkpt lat="45.07939918756944" lon="7.72933709648063"><ele>217.0</ele><time>2026-04-04T09:56:05Z</time></trkpt><trkpt lat="45.07927292291481" lon="7.72933459031525"><ele>217.0</ele><time>2026-04-04T09:56:06Z</time></trkpt><trkpt lat="45.07914923791918" lon="7.729333321733874"><ele>217.25</ele><time>2026-04-04T09:56:07Z</time></trkpt><trkpt lat="45.07902597276183" lon="7.729336119299784"><ele>217.5</ele><time>2026-04-04T09:56:08Z</time></trkpt><trkpt lat="45.078906262547065" lon="7.729338947579255"><ele>217.75</ele><time>2026-04-04T09:56:09Z</time></trkpt><trkpt lat="45.07879032895356" lon="7.729340140023881"><ele>218.0</ele><time>2026-04-04T09:56:10Z</time></trkpt><trkpt lat="45.078670138571184" lon="7.72934281880005"><ele>218.0</ele><time>2026-04-04T09:56:11Z</time></trkpt><trkpt lat="45.078551742489104" lon="7.729348994512117"><ele>218.0</ele><time>2026-04-04T09:56:12Z</time></trkpt><trkpt lat="45.07843407184462" lon="7.729352822762628"><ele>218.0</ele><time>2026-04-04T09:56:13Z</time></trkpt><trkpt lat="45.078314981438304" lon="7.729361181493167"><ele>218.0</ele><time>2026-04-04T09:56:14Z</time></trkpt><trkpt lat="45.07819567147305" lon="7.729367791378882"><ele>217.75</ele><time>2026-04-04T09:56:15Z</time></trkpt><trkpt lat="45.078070872121515" lon="7.7293754803858885"><ele>217.5</ele><time>2026-04-04T09:56:16Z</time></trkpt><trkpt lat="45.07794884277666" lon="7.729386747094263"><ele>217.25</ele><time>2026-04-04T09:56:17Z</time></trkpt><trkpt lat="45.07782939597542" lon="7.729376616455113"><ele>217.0</ele><time>2026-04-04T09:56:18Z</time></trkpt><trkpt lat="45.07771203147019" lon="7.729380012303651"><ele>217.0</ele><time>2026-04-04T09:56:19Z</time></trkpt><trkpt lat="45.077590502845766" lon="7.729383528639221"><ele>217.0</ele><time>2026-04-04T09:56:20Z</time></trkpt><trkpt lat="45.0774713232377" lon="7.729386977006151"><ele>217.0</ele><time>2026-04-04T09:56:21Z</time></trkpt><trkpt lat="45.077359745802106" lon="7.729410975738478"><ele>217.0</ele><time>2026-04-04T09:56:22Z</time></trkpt><trkpt lat="45.077249346186726" lon="7.7294112876798176"><ele>217.39999999999998</ele><time>2026-04-04T09:56:23Z</time></trkpt><trkpt lat="45.077139779376516" lon="7.729412880315106"><ele>217.79999999999998</ele><time>2026-04-04T09:56:24Z</time></trkpt><trkpt lat="45.0770332496765" lon="7.7294153227091895"><ele>218.2</ele><time>2026-04-04T09:56:25Z</time></trkpt><trkpt lat="45.07692729508692" lon="7.729415597110084"><ele>218.6</ele><time>2026-04-04T09:56:26Z</time></trkpt><trkpt lat="45.07682550263335" lon="7.729419542412065"><ele>219.0</ele><time>2026-04-04T09:56:27Z</time></trkpt><trkpt lat="45.07672577306749" lon="7.729423754186281"><ele>219.0</ele><time>2026-04-04T09:56:28Z</time></trkpt><trkpt lat="45.07662725317487" lon="7.729426698886855"><ele>218.99999999999997</ele><time>2026-04-04T09:56:29Z</time></trkpt><trkpt lat="45.07653535499195" lon="7.7294270466343615"><ele>218.99999999999997</ele><time>2026-04-04T09:56:30Z</time></trkpt><trkpt lat="45.07644175855248" lon="7.729428145696911"><ele>219.0</ele><time>2026-04-04T09:56:31Z</time></trkpt><trkpt lat="45.076351514492316" lon="7.7294298781935"><ele>219.0</ele><time>2026-04-04T09:56:32Z</time></trkpt><trkpt lat="45.0762632211334" lon="7.729431434514012"><ele>218.83333333333334</ele><time>2026-04-04T09:56:33Z</time></trkpt><trkpt lat="45.07617723663664" lon="7.729436626464696"><ele>218.66666666666669</ele><time>2026-04-04T09:56:34Z</time></trkpt><trkpt lat="45.07609553611166" lon="7.72944239609474"><ele>218.5</ele><time>2026-04-04T09:56:35Z</time></trkpt><trkpt lat="45.07601950338523" lon="7.729444401552674"><ele>218.33333333333334</ele><time>2026-04-04T09:56:36Z</time></trkpt><trkpt lat="45.075951779469705" lon="7.729444831333114"><ele>218.16666666666669</ele><time>2026-04-04T09:56:37Z</time></trkpt><trkpt lat="45.075850430379205" lon="7.729442578683116"><ele>218.0</ele><time>2026-04-04T09:56:39Z</time></trkpt><trkpt lat="45.07578285364148" lon="7.729448331818674"><ele>218.4</ele><time>2026-04-04T09:56:41Z</time></trkpt><trkpt lat="45.07569788021819" lon="7.729447747534897"><ele>218.8</ele><time>2026-04-04T09:57:05Z</time></trkpt><trkpt lat="45.075602248053954" lon="7.729460200789926"><ele>219.2</ele><time>2026-04-04T09:57:07Z</time></trkpt><trkpt lat="45.075497029950505" lon="7.729461989092235"><ele>219.6</ele><time>2026-04-04T09:57:09Z</time></trkpt><trkpt lat="45.075386917161346" lon="7.729446331684764"><ele>220.0</ele><time>2026-04-04T09:57:11Z</time></trkpt><trkpt lat="45.075269332461616" lon="7.729503744239507"><ele>220.0</ele><time>2026-04-04T09:57:13Z</time></trkpt><trkpt lat="45.07522397245126" lon="7.7295955366173255"><ele>220.0</ele><time>2026-04-04T09:57:14Z</time></trkpt><trkpt lat="45.075243243225565" lon="7.729729386992073"><ele>220.0</ele><time>2026-04-04T09:57:15Z</time></trkpt><trkpt lat="45.0752582117796" lon="7.729896171992436"><ele>220.0</ele><time>2026-04-04T09:57:17Z</time></trkpt><trkpt lat="45.07527276530444" lon="7.730048302339505"><ele>220.0</ele><time>2026-04-04T09:57:19Z</time></trkpt><trkpt lat="45.075277233896" lon="7.73016045249655"><ele>220.6</ele><time>2026-04-04T09:57:21Z</time></trkpt><trkpt lat="45.07527892410625" lon="7.730299838164691"><ele>221.2</ele><time>2026-04-04T09:57:41Z</time></trkpt><trkpt lat="45.07526911644787" lon="7.730478929713607"><ele>221.8</ele><time>2026-04-04T09:57:43Z</time></trkpt><trkpt lat="45.07527026346717" lon="7.730573385422088"><ele>222.4</ele><time>2026-04-04T09:57:44Z</time></trkpt><trkpt lat="45.07536047812266" lon="7.730650780015949"><ele>223.0</ele><time>2026-04-04T09:57:45Z</time></trkpt><trkpt lat="45.075408660725664" lon="7.7307749533271855"><ele>223.0</ele><time>2026-04-04T09:57:47Z</time></trkpt><trkpt lat="45.07549346118893" lon="7.730823827355076"><ele>223.0</ele><time>2026-04-04T09:57:48Z</time></trkpt><trkpt lat="45.07557811682901" lon="7.7308765949379"><ele>223.0</ele><time>2026-04-04T09:57:49Z</time></trkpt><trkpt lat="45.07566888477987" lon="7.730934546736886"><ele>223.0</ele><time>2026-04-04T09:57:50Z</time></trkpt><trkpt lat="45.075761513031914" lon="7.730995674987373"><ele>223.0</ele><time>2026-04-04T09:57:51Z</time></trkpt><trkpt lat="45.07585961374243" lon="7.731060265118771"><ele>224.25</ele><time>2026-04-04T09:57:52Z</time></trkpt><trkpt lat="45.07596533072262" lon="7.731131643203067"><ele>225.5</ele><time>2026-04-04T09:57:53Z</time></trkpt><trkpt lat="45.07607613298178" lon="7.731206597685526"><ele>226.75</ele><time>2026-04-04T09:57:54Z</time></trkpt><trkpt lat="45.076193531699346" lon="7.731279741362182"><ele>228.0</ele><time>2026-04-04T09:57:55Z</time></trkpt><trkpt lat="45.07631211401124" lon="7.7313573212584386"><ele>228.0</ele><time>2026-04-04T09:57:56Z</time></trkpt><trkpt lat="45.07643182308331" lon="7.731433450898766"><ele>228.0</ele><time>2026-04-04T09:57:57Z</time></trkpt><trkpt lat="45.076559941287" lon="7.731515457491194"><ele>228.0</ele><time>2026-04-04T09:57:58Z</time></trkpt><trkpt lat="45.07668965927545" lon="7.731594079179095"><ele>228.0</ele><time>2026-04-04T09:57:59Z</time></trkpt><trkpt lat="45.076826607630004" lon="7.731683209764442"><ele>227.5</ele><time>2026-04-04T09:58:00Z</time></trkpt><trkpt lat="45.07695615793255" lon="7.731766327112032"><ele>227.0</ele><time>2026-04-04T09:58:01Z</time></trkpt><trkpt lat="45.07709263111222" lon="7.731849031959775"><ele>226.5</ele><time>2026-04-04T09:58:02Z</time></trkpt><trkpt lat="45.07721650977554" lon="7.731937091984222"><ele>226.0</ele><time>2026-04-04T09:58:03Z</time></trkpt><trkpt lat="45.07733421549555" lon="7.732020268481614"><ele>226.20000000000002</ele><time>2026-04-04T09:58:04Z</time></trkpt><trkpt lat="45.07744502902367" lon="7.732092408174499"><ele>226.40000000000003</ele><time>2026-04-04T09:58:05Z</time></trkpt><trkpt lat="45.07754563630135" lon="7.732157599600454"><ele>226.6</ele><time>2026-04-04T09:58:06Z</time></trkpt><trkpt lat="45.07762453324368" lon="7.7322087375448865"><ele>226.8</ele><time>2026-04-04T09:58:07Z</time></trkpt><trkpt lat="45.077699987669774" lon="7.7322595441828845"><ele>227.0</ele><time>2026-04-04T09:58:08Z</time></trkpt><trkpt lat="45.07777087997715" lon="7.732307264494911"><ele>227.0</ele><time>2026-04-04T09:58:09Z</time></trkpt><trkpt lat="45.07788129199527" lon="7.732381088181533"><ele>227.0</ele><time>2026-04-04T09:58:11Z</time></trkpt><trkpt lat="45.077977091464334" lon="7.732439202597885"><ele>227.0</ele><time>2026-04-04T09:58:13Z</time></trkpt><trkpt lat="45.07807119538121" lon="7.732487594279281"><ele>227.0</ele><time>2026-04-04T09:58:15Z</time></trkpt><trkpt lat="45.07813442421047" lon="7.732509990508947"><ele>227.0</ele><time>2026-04-04T09:58:16Z</time></trkpt><trkpt lat="45.07820488384755" lon="7.732518072302785"><ele>227.2</ele><time>2026-04-04T09:58:17Z</time></trkpt><trkpt lat="45.07828571044941" lon="7.732502034097705"><ele>227.39999999999998</ele><time>2026-04-04T09:58:18Z</time></trkpt><trkpt lat="45.0783611782147" lon="7.732471239496147"><ele>227.60000000000002</ele><time>2026-04-04T09:58:19Z</time></trkpt><trkpt lat="45.078451116436256" lon="7.7324200169676445"><ele>227.8</ele><time>2026-04-04T09:58:20Z</time></trkpt><trkpt lat="45.07854634186133" lon="7.7323585482568316"><ele>228.0</ele><time>2026-04-04T09:58:21Z</time></trkpt><trkpt lat="45.07863506077858" lon="7.732300586233003"><ele>228.0</ele><time>2026-04-04T09:58:22Z</time></trkpt><trkpt lat="45.07872510798784" lon="7.732237648210491"><ele>228.0</ele><time>2026-04-04T09:58:23Z</time></trkpt><trkpt lat="45.07881745476542" lon="7.73217319390735"><ele>228.0</ele><time>2026-04-04T09:58:24Z</time></trkpt><trkpt lat="45.07890841166062" lon="7.73210612996772"><ele>228.0</ele><time>2026-04-04T09:58:25Z</time></trkpt><trkpt lat="45.07900423276488" lon="7.7320442185498"><ele>228.0</ele><time>2026-04-04T09:58:26Z</time></trkpt><trkpt lat="45.07909550711334" lon="7.7319837538929255"><ele>227.8</ele><time>2026-04-04T09:58:27Z</time></trkpt><trkpt lat="45.07919049952651" lon="7.731916418238679"><ele>227.60000000000002</ele><time>2026-04-04T09:58:28Z</time></trkpt><trkpt lat="45.07928990511165" lon="7.731851484096998"><ele>227.39999999999998</ele><time>2026-04-04T09:58:29Z</time></trkpt><trkpt lat="45.07938584580125" lon="7.7317876120022"><ele>227.2</ele><time>2026-04-04T09:58:30Z</time></trkpt><trkpt lat="45.07948386825038" lon="7.731727533422442"><ele>227.0</ele><time>2026-04-04T09:58:31Z</time></trkpt><trkpt lat="45.079578515213385" lon="7.731664439081985"><ele>226.8</ele><time>2026-04-04T09:58:32Z</time></trkpt><trkpt lat="45.079670059729764" lon="7.73159920944108"><ele>226.6</ele><time>2026-04-04T09:58:33Z</time></trkpt><trkpt lat="45.07975442709365" lon="7.731552612288061"><ele>226.40000000000003</ele><time>2026-04-04T09:58:34Z</time></trkpt><trkpt lat="45.07982904297253" lon="7.731523608724434"><ele>226.20000000000002</ele><time>2026-04-04T09:58:35Z</time></trkpt><trkpt lat="45.07989985722057" lon="7.731524966282541"><ele>226.0</ele><time>2026-04-04T09:58:36Z</time></trkpt><trkpt lat="45.080010527307515" lon="7.731670665848188"><ele>226.0</ele><time>2026-04-04T09:58:38Z</time></trkpt><trkpt lat="45.080070991740634" lon="7.73174544874325"><ele>226.00000000000003</ele><time>2026-04-04T09:58:39Z</time></trkpt><trkpt lat="45.08013431602099" lon="7.731829485413746"><ele>226.00000000000003</ele><time>2026-04-04T09:58:40Z</time></trkpt><trkpt lat="45.080180622372765" lon="7.731952847207776"><ele>226.0</ele><time>2026-04-04T09:58:41Z</time></trkpt><trkpt lat="45.080219126343884" lon="7.732084052657243"><ele>226.0</ele><time>2026-04-04T09:58:42Z</time></trkpt><trkpt lat="45.08026080503968" lon="7.732219973017376"><ele>226.0</ele><time>2026-04-04T09:58:43Z</time></trkpt><trkpt lat="45.080307512575835" lon="7.73236490842216"><ele>226.0</ele><time>2026-04-04T09:58:44Z</time></trkpt><trkpt lat="45.08036097673784" lon="7.7325065804036255"><ele>226.0</ele><time>2026-04-04T09:58:45Z</time></trkpt><trkpt lat="45.08041893993352" lon="7.732641535601334"><ele>226.0</ele><time>2026-04-04T09:58:46Z</time></trkpt><trkpt lat="45.08048178485525" lon="7.732788338781597"><ele>227.0</ele><time>2026-04-04T09:58:47Z</time></trkpt><trkpt lat="45.080542577496125" lon="7.732983732396791"><ele>228.0</ele><time>2026-04-04T09:58:48Z</time></trkpt><trkpt lat="45.080611506270685" lon="7.733205513887048"><ele>229.0</ele><time>2026-04-04T09:58:49Z</time></trkpt><trkpt lat="45.08069055085022" lon="7.733435369060733"><ele>230.33333333333331</ele><time>2026-04-04T09:58:50Z</time></trkpt><trkpt lat="45.08076712669162" lon="7.7336501488456815"><ele>231.66666666666669</ele><time>2026-04-04T09:58:51Z</time></trkpt><trkpt lat="45.08083647141463" lon="7.733839834029818"><ele>233.0</ele><time>2026-04-04T09:58:52Z</time></trkpt><trkpt lat="45.080897970054316" lon="7.7340118220121745"><ele>233.0</ele><time>2026-04-04T09:58:53Z</time></trkpt><trkpt lat="45.08095197478883" lon="7.734179407884943"><ele>233.0</ele><time>2026-04-04T09:58:54Z</time></trkpt><trkpt lat="45.08099291030602" lon="7.734334842888426"><ele>233.0</ele><time>2026-04-04T09:58:55Z</time></trkpt><trkpt lat="45.08101939978948" lon="7.734501442297167"><ele>233.0</ele><time>2026-04-04T09:58:56Z</time></trkpt><trkpt lat="45.08101978170038" lon="7.7346762742938155"><ele>234.25</ele><time>2026-04-04T09:58:57Z</time></trkpt><trkpt lat="45.08099902710077" lon="7.734852553653355"><ele>235.5</ele><time>2026-04-04T09:58:58Z</time></trkpt><trkpt lat="45.080958515534775" lon="7.735025183133089"><ele>236.75</ele><time>2026-04-04T09:58:59Z</time></trkpt><trkpt lat="45.080880037576286" lon="7.735182418398396"><ele>238.0</ele><time>2026-04-04T09:59:00Z</time></trkpt><trkpt lat="45.08080836307802" lon="7.7353417615390585"><ele>238.5</ele><time>2026-04-04T09:59:01Z</time></trkpt><trkpt lat="45.08073187854815" lon="7.735483662623676"><ele>239.0</ele><time>2026-04-04T09:59:02Z</time></trkpt><trkpt lat="45.080645456053176" lon="7.735617850252492"><ele>239.5</ele><time>2026-04-04T09:59:03Z</time></trkpt><trkpt lat="45.08056622772933" lon="7.73576402824271"><ele>240.0</ele><time>2026-04-04T09:59:04Z</time></trkpt><trkpt lat="45.0804618444965" lon="7.735893005124492"><ele>240.0</ele><time>2026-04-04T09:59:05Z</time></trkpt><trkpt lat="45.080378654087355" lon="7.736044426930462"><ele>240.0</ele><time>2026-04-04T09:59:06Z</time></trkpt><trkpt lat="45.08028510381977" lon="7.73617743344946"><ele>240.0</ele><time>2026-04-04T09:59:07Z</time></trkpt><trkpt lat="45.08019309591371" lon="7.736303357881953"><ele>240.0</ele><time>2026-04-04T09:59:08Z</time></trkpt><trkpt lat="45.080102989029854" lon="7.736433522816834"><ele>239.75</ele><time>2026-04-04T09:59:09Z</time></trkpt><trkpt lat="45.080018372273805" lon="7.73656004127142"><ele>239.5</ele><time>2026-04-04T09:59:10Z</time></trkpt><trkpt lat="45.07992780758157" lon="7.73669335620791"><ele>239.25</ele><time>2026-04-04T09:59:11Z</time></trkpt><trkpt lat="45.079829455946204" lon="7.736833454301258"><ele>239.0</ele><time>2026-04-04T09:59:12Z</time></trkpt><trkpt lat="45.07973421605461" lon="7.7369753057247594"><ele>239.5</ele><time>2026-04-04T09:59:13Z</time></trkpt><trkpt lat="45.07963778714875" lon="7.737118709133753"><ele>240.0</ele><time>2026-04-04T09:59:14Z</time></trkpt><trkpt lat="45.07953760933669" lon="7.7372629368859"><ele>240.5</ele><time>2026-04-04T09:59:15Z</time></trkpt><trkpt lat="45.07943848411034" lon="7.73740664840291"><ele>241.0</ele><time>2026-04-04T09:59:16Z</time></trkpt><trkpt lat="45.07933776450176" lon="7.737558213751208"><ele>241.0</ele><time>2026-04-04T09:59:17Z</time></trkpt><trkpt lat="45.07922432779009" lon="7.737715012929604"><ele>241.0</ele><time>2026-04-04T09:59:18Z</time></trkpt><trkpt lat="45.07912041194076" lon="7.7378762686358415"><ele>241.0</ele><time>2026-04-04T09:59:19Z</time></trkpt><trkpt lat="45.07900209105565" lon="7.738027968453911"><ele>242.66666666666666</ele><time>2026-04-04T09:59:20Z</time></trkpt><trkpt lat="45.0788754133141" lon="7.7381858070828216"><ele>244.33333333333331</ele><time>2026-04-04T09:59:21Z</time></trkpt><trkpt lat="45.0787342862412" lon="7.738332055981058"><ele>246.0</ele><time>2026-04-04T09:59:22Z</time></trkpt><trkpt lat="45.07859120176467" lon="7.73846835168266"><ele>246.66666666666669</ele><time>2026-04-04T09:59:23Z</time></trkpt><trkpt lat="45.07845276899072" lon="7.738609241977349"><ele>247.33333333333334</ele><time>2026-04-04T09:59:24Z</time></trkpt><trkpt lat="45.078315007392035" lon="7.738753705559368"><ele>248.0</ele><time>2026-04-04T09:59:25Z</time></trkpt><trkpt lat="45.078168304741496" lon="7.738876373982683"><ele>248.0</ele><time>2026-04-04T09:59:26Z</time></trkpt><trkpt lat="45.078025858517805" lon="7.739019841691904"><ele>248.0</ele><time>2026-04-04T09:59:27Z</time></trkpt><trkpt lat="45.077889176371016" lon="7.739157504081626"><ele>248.0</ele><time>2026-04-04T09:59:28Z</time></trkpt><trkpt lat="45.077767862960464" lon="7.739303512317599"><ele>249.66666666666669</ele><time>2026-04-04T09:59:29Z</time></trkpt><trkpt lat="45.0776323635193" lon="7.739425068748018"><ele>251.33333333333331</ele><time>2026-04-04T09:59:30Z</time></trkpt><trkpt lat="45.0774980550441" lon="7.739530372159928"><ele>253.0</ele><time>2026-04-04T09:59:31Z</time></trkpt><trkpt lat="45.077365376771255" lon="7.739631427546596"><ele>253.0</ele><time>2026-04-04T09:59:32Z</time></trkpt><trkpt lat="45.07722187374881" lon="7.73973161113695"><ele>253.0</ele><time>2026-04-04T09:59:33Z</time></trkpt><trkpt lat="45.077078342113765" lon="7.739838634686219"><ele>253.0</ele><time>2026-04-04T09:59:34Z</time></trkpt><trkpt lat="45.07693986770585" lon="7.739953495011123"><ele>253.0</ele><time>2026-04-04T09:59:35Z</time></trkpt><trkpt lat="45.07680078320487" lon="7.740065100495586"><ele>253.0</ele><time>2026-04-04T09:59:36Z</time></trkpt><trkpt lat="45.07666828971026" lon="7.740174092179723"><ele>253.0</ele><time>2026-04-04T09:59:37Z</time></trkpt><trkpt lat="45.076542856597364" lon="7.740295550896507"><ele>252.66666666666666</ele><time>2026-04-04T09:59:38Z</time></trkpt><trkpt lat="45.07643076663937" lon="7.7404392206739026"><ele>252.33333333333331</ele><time>2026-04-04T09:59:39Z</time></trkpt><trkpt lat="45.07634135912249" lon="7.740617190285199"><ele>252.0</ele><time>2026-04-04T09:59:40Z</time></trkpt><trkpt lat="45.076265541800346" lon="7.740815464012845"><ele>252.0</ele><time>2026-04-04T09:59:41Z</time></trkpt><trkpt lat="45.07619826403403" lon="7.7410233385004075"><ele>252.0</ele><time>2026-04-04T09:59:42Z</time></trkpt><trkpt lat="45.076138437632345" lon="7.741239139487791"><ele>252.0</ele><time>2026-04-04T09:59:43Z</time></trkpt><trkpt lat="45.07608858930951" lon="7.74146400903853"><ele>254.33333333333331</ele><time>2026-04-04T09:59:44Z</time></trkpt><trkpt lat="45.07603188761071" lon="7.7416910673221775"><ele>256.66666666666663</ele><time>2026-04-04T09:59:45Z</time></trkpt><trkpt lat="45.07597002243622" lon="7.7419176484394905"><ele>259.0</ele><time>2026-04-04T09:59:46Z</time></trkpt><trkpt lat="45.075911959168934" lon="7.742141936160121"><ele>258.0</ele><time>2026-04-04T09:59:47Z</time></trkpt><trkpt lat="45.07585575014468" lon="7.742370073596819"><ele>257.0</ele><time>2026-04-04T09:59:48Z</time></trkpt><trkpt lat="45.075780389608845" lon="7.7425982537467934"><ele>256.0</ele><time>2026-04-04T09:59:49Z</time></trkpt><trkpt lat="45.075721531901" lon="7.742823915273004"><ele>256.0</ele><time>2026-04-04T09:59:50Z</time></trkpt><trkpt lat="45.07566102993241" lon="7.743060851265278"><ele>256.0</ele><time>2026-04-04T09:59:51Z</time></trkpt><trkpt lat="45.07560197551379" lon="7.743288513496273"><ele>256.0</ele><time>2026-04-04T09:59:52Z</time></trkpt><trkpt lat="45.07554138899087" lon="7.743522804441638"><ele>259.3333333333333</ele><time>2026-04-04T09:59:53Z</time></trkpt><trkpt lat="45.075507554475806" lon="7.743770923483167"><ele>262.6666666666667</ele><time>2026-04-04T09:59:54Z</time></trkpt><trkpt lat="45.07544201557034" lon="7.744009101330308"><ele>266.0</ele><time>2026-04-04T09:59:55Z</time></trkpt><trkpt lat="45.07537695321544" lon="7.744250139539951"><ele>269.0</ele><time>2026-04-04T09:59:56Z</time></trkpt><trkpt lat="45.075302849087805" lon="7.744495297895946"><ele>272.0</ele><time>2026-04-04T09:59:57Z</time></trkpt><trkpt lat="45.07522570876623" lon="7.744738224101207"><ele>275.0</ele><time>2026-04-04T09:59:58Z</time></trkpt><trkpt lat="45.075142303108564" lon="7.744978562059195"><ele>276.6666666666667</ele><time>2026-04-04T09:59:59Z</time></trkpt><trkpt lat="45.075054045697925" lon="7.745221852233332"><ele>278.3333333333333</ele><time>2026-04-04T10:00:00Z</time></trkpt><trkpt lat="45.074937284499946" lon="7.745440352671023"><ele>280.0</ele><time>2026-04-04T10:00:01Z</time></trkpt><trkpt lat="45.07485008516537" lon="7.745665321542301"><ele>277.66666666666663</ele><time>2026-04-04T10:00:02Z</time></trkpt><trkpt lat="45.074764454999084" lon="7.745882458491629"><ele>275.3333333333333</ele><time>2026-04-04T10:00:03Z</time></trkpt><trkpt lat="45.0746803775666" lon="7.746095146482245"><ele>273.0</ele><time>2026-04-04T10:00:04Z</time></trkpt><trkpt lat="45.07460094916601" lon="7.746294911901112"><ele>273.0</ele><time>2026-04-04T10:00:05Z</time></trkpt><trkpt lat="45.07451746526235" lon="7.746490368114806"><ele>273.0</ele><time>2026-04-04T10:00:06Z</time></trkpt><trkpt lat="45.07442937350716" lon="7.746688736747962"><ele>273.0</ele><time>2026-04-04T10:00:07Z</time></trkpt><trkpt lat="45.07433855268442" lon="7.7468864926548555"><ele>273.3333333333333</ele><time>2026-04-04T10:00:08Z</time></trkpt><trkpt lat="45.074247117520294" lon="7.747082068164504"><ele>273.66666666666663</ele><time>2026-04-04T10:00:09Z</time></trkpt><trkpt lat="45.0741523838942" lon="7.747280408041251"><ele>274.0</ele><time>2026-04-04T10:00:10Z</time></trkpt><trkpt lat="45.07405734821049" lon="7.747482106861322"><ele>274.0</ele><time>2026-04-04T10:00:11Z</time></trkpt><trkpt lat="45.07396409338526" lon="7.74768583866687"><ele>274.0</ele><time>2026-04-04T10:00:12Z</time></trkpt><trkpt lat="45.07387265183687" lon="7.747891435304373"><ele>274.0</ele><time>2026-04-04T10:00:13Z</time></trkpt><trkpt lat="45.07378717675388" lon="7.748109497860923"><ele>275.0</ele><time>2026-04-04T10:00:14Z</time></trkpt><trkpt lat="45.073709748250934" lon="7.7483219868842355"><ele>276.0</ele><time>2026-04-04T10:00:15Z</time></trkpt><trkpt lat="45.07363416481566" lon="7.748544440502155"><ele>277.0</ele><time>2026-04-04T10:00:16Z</time></trkpt><trkpt lat="45.07356841825553" lon="7.748777123726546"><ele>280.0</ele><time>2026-04-04T10:00:17Z</time></trkpt><trkpt lat="45.07351367655471" lon="7.749008191740107"><ele>283.0</ele><time>2026-04-04T10:00:18Z</time></trkpt><trkpt lat="45.073463557402896" lon="7.749246947934396"><ele>286.0</ele><time>2026-04-04T10:00:19Z</time></trkpt><trkpt lat="45.0734109369447" lon="7.7494787542644445"><ele>284.3333333333333</ele><time>2026-04-04T10:00:20Z</time></trkpt><trkpt lat="45.07333728812576" lon="7.749705009432442"><ele>282.6666666666667</ele><time>2026-04-04T10:00:21Z</time></trkpt><trkpt lat="45.07323768232119" lon="7.7499130762698"><ele>281.0</ele><time>2026-04-04T10:00:22Z</time></trkpt><trkpt lat="45.07313583217267" lon="7.750112792019849"><ele>282.33333333333337</ele><time>2026-04-04T10:00:23Z</time></trkpt><trkpt lat="45.07302913383709" lon="7.75031624818911"><ele>283.6666666666667</ele><time>2026-04-04T10:00:24Z</time></trkpt><trkpt lat="45.07292317559377" lon="7.750518293191401"><ele>285.0</ele><time>2026-04-04T10:00:25Z</time></trkpt><trkpt lat="45.072819526319826" lon="7.750716330842489"><ele>285.0</ele><time>2026-04-04T10:00:26Z</time></trkpt><trkpt lat="45.072716244038205" lon="7.750915546266321"><ele>285.0</ele><time>2026-04-04T10:00:27Z</time></trkpt><trkpt lat="45.072614552699356" lon="7.7511170540924645"><ele>285.0</ele><time>2026-04-04T10:00:28Z</time></trkpt><trkpt lat="45.07251989176573" lon="7.751334601780299"><ele>286.3333333333333</ele><time>2026-04-04T10:00:29Z</time></trkpt><trkpt lat="45.07242685473906" lon="7.751551376284017"><ele>287.66666666666663</ele><time>2026-04-04T10:00:30Z</time></trkpt><trkpt lat="45.07233335873632" lon="7.751768985031445"><ele>289.0</ele><time>2026-04-04T10:00:31Z</time></trkpt><trkpt lat="45.07224078172059" lon="7.751975871909564"><ele>290.66666666666663</ele><time>2026-04-04T10:00:32Z</time></trkpt><trkpt lat="45.07214785915436" lon="7.752178926555951"><ele>292.3333333333333</ele><time>2026-04-04T10:00:33Z</time></trkpt><trkpt lat="45.072052338444976" lon="7.752363487731151"><ele>294.0</ele><time>2026-04-04T10:00:34Z</time></trkpt><trkpt lat="45.07195621739242" lon="7.7525331030547315"><ele>294.0</ele><time>2026-04-04T10:00:35Z</time></trkpt><trkpt lat="45.07184712643487" lon="7.752668187268601"><ele>294.0</ele><time>2026-04-04T10:00:36Z</time></trkpt><trkpt lat="45.0717067138217" lon="7.752767209138763"><ele>294.0</ele><time>2026-04-04T10:00:37Z</time></trkpt><trkpt lat="45.07155928830472" lon="7.752865669829156"><ele>299.3333333333333</ele><time>2026-04-04T10:00:38Z</time></trkpt><trkpt lat="45.071406773387096" lon="7.752965817132454"><ele>304.66666666666663</ele><time>2026-04-04T10:00:39Z</time></trkpt><trkpt lat="45.071247774046455" lon="7.753053799082168"><ele>310.0</ele><time>2026-04-04T10:00:40Z</time></trkpt><trkpt lat="45.071094933565206" lon="7.7531431371212305"><ele>310.0</ele><time>2026-04-04T10:00:41Z</time></trkpt><trkpt lat="45.07094856921463" lon="7.753270299731961"><ele>310.0</ele><time>2026-04-04T10:00:42Z</time></trkpt><trkpt lat="45.07079763203865" lon="7.753360474490686"><ele>310.0</ele><time>2026-04-04T10:00:43Z</time></trkpt><trkpt lat="45.07064342138252" lon="7.753451969805471"><ele>311.3333333333333</ele><time>2026-04-04T10:00:44Z</time></trkpt><trkpt lat="45.07048145929669" lon="7.753540144462285"><ele>312.6666666666667</ele><time>2026-04-04T10:00:45Z</time></trkpt><trkpt lat="45.07031880624554" lon="7.753598947380249"><ele>314.0</ele><time>2026-04-04T10:00:46Z</time></trkpt><trkpt lat="45.070178603031636" lon="7.753686889590941"><ele>314.0</ele><time>2026-04-04T10:00:47Z</time></trkpt><trkpt lat="45.07004060366601" lon="7.753785000459008"><ele>314.0</ele><time>2026-04-04T10:00:48Z</time></trkpt><trkpt lat="45.06990936205839" lon="7.75391497994636"><ele>314.0</ele><time>2026-04-04T10:00:49Z</time></trkpt><trkpt lat="45.06978548557192" lon="7.754058255907921"><ele>313.0</ele><time>2026-04-04T10:00:50Z</time></trkpt><trkpt lat="45.06966842483843" lon="7.754224116559974"><ele>312.0</ele><time>2026-04-04T10:00:51Z</time></trkpt><trkpt lat="45.06958486063482" lon="7.754420357179766"><ele>311.0</ele><time>2026-04-04T10:00:52Z</time></trkpt><trkpt lat="45.06948082873787" lon="7.754595737428733"><ele>311.0</ele><time>2026-04-04T10:00:53Z</time></trkpt><trkpt lat="45.06939136854965" lon="7.754792765836099"><ele>311.0</ele><time>2026-04-04T10:00:54Z</time></trkpt><trkpt lat="45.06933544829005" lon="7.755005197280912"><ele>311.0</ele><time>2026-04-04T10:00:55Z</time></trkpt><trkpt lat="45.069253951081244" lon="7.755195264251095"><ele>311.0</ele><time>2026-04-04T10:00:56Z</time></trkpt><trkpt lat="45.06916616431927" lon="7.755383083214101"><ele>311.0</ele><time>2026-04-04T10:00:57Z</time></trkpt><trkpt lat="45.069086442716305" lon="7.755562616840145"><ele>311.0</ele><time>2026-04-04T10:00:58Z</time></trkpt><trkpt lat="45.06899632732475" lon="7.755740520090182"><ele>311.0</ele><time>2026-04-04T10:00:59Z</time></trkpt><trkpt lat="45.068887529306316" lon="7.75587888036096"><ele>311.0</ele><time>2026-04-04T10:01:00Z</time></trkpt><trkpt lat="45.06878313344725" lon="7.756017215870893"><ele>311.0</ele><time>2026-04-04T10:01:01Z</time></trkpt><trkpt lat="45.06866534944034" lon="7.756143177002092"><ele>311.0</ele><time>2026-04-04T10:01:02Z</time></trkpt><trkpt lat="45.06853841972154" lon="7.756260666881084"><ele>314.25</ele><time>2026-04-04T10:01:03Z</time></trkpt><trkpt lat="45.06841103929923" lon="7.756354903957339"><ele>317.5</ele><time>2026-04-04T10:01:04Z</time></trkpt><trkpt lat="45.06827144632919" lon="7.7564274866795"><ele>320.75</ele><time>2026-04-04T10:01:05Z</time></trkpt><trkpt lat="45.068122543303076" lon="7.756498104288255"><ele>324.0</ele><time>2026-04-04T10:01:06Z</time></trkpt><trkpt lat="45.067972289145246" lon="7.756565872615138"><ele>324.0</ele><time>2026-04-04T10:01:07Z</time></trkpt><trkpt lat="45.06781536166094" lon="7.756634420598766"><ele>324.0</ele><time>2026-04-04T10:01:08Z</time></trkpt><trkpt lat="45.06765847443511" lon="7.756703089909902"><ele>324.0</ele><time>2026-04-04T10:01:09Z</time></trkpt><trkpt lat="45.067497545427194" lon="7.756773552782969"><ele>322.6666666666667</ele><time>2026-04-04T10:01:10Z</time></trkpt><trkpt lat="45.0673353318174" lon="7.75684457810247"><ele>321.33333333333337</ele><time>2026-04-04T10:01:11Z</time></trkpt><trkpt lat="45.06717533380871" lon="7.756914633334621"><ele>320.0</ele><time>2026-04-04T10:01:12Z</time></trkpt><trkpt lat="45.06701277011451" lon="7.75698581193654"><ele>323.0</ele><time>2026-04-04T10:01:13Z</time></trkpt><trkpt lat="45.066836714588455" lon="7.75706399301384"><ele>326.0</ele><time>2026-04-04T10:01:14Z</time></trkpt><trkpt lat="45.066659984587865" lon="7.757144390456054"><ele>329.0</ele><time>2026-04-04T10:01:15Z</time></trkpt><trkpt lat="45.066484942437214" lon="7.757227015373572"><ele>329.0</ele><time>2026-04-04T10:01:16Z</time></trkpt><trkpt lat="45.06632253905175" lon="7.757309061572584"><ele>329.0</ele><time>2026-04-04T10:01:17Z</time></trkpt><trkpt lat="45.06613664183907" lon="7.757415469980993"><ele>329.0</ele><time>2026-04-04T10:01:18Z</time></trkpt><trkpt lat="45.06594926082222" lon="7.757536813095582"><ele>328.6666666666667</ele><time>2026-04-04T10:01:19Z</time></trkpt><trkpt lat="45.065758305400315" lon="7.757668977694109"><ele>328.3333333333333</ele><time>2026-04-04T10:01:20Z</time></trkpt><trkpt lat="45.065570812496574" lon="7.757804210245595"><ele>328.0</ele><time>2026-04-04T10:01:21Z</time></trkpt><trkpt lat="45.06540766808561" lon="7.757968573733388"><ele>330.66666666666663</ele><time>2026-04-04T10:01:22Z</time></trkpt><trkpt lat="45.06523644535954" lon="7.758081119327593"><ele>333.3333333333333</ele><time>2026-04-04T10:01:23Z</time></trkpt><trkpt lat="45.06507339342735" lon="7.758189201043855"><ele>336.0</ele><time>2026-04-04T10:01:24Z</time></trkpt><trkpt lat="45.06492312008652" lon="7.758292585188022"><ele>336.0</ele><time>2026-04-04T10:01:25Z</time></trkpt><trkpt lat="45.06477061906678" lon="7.758353700394559"><ele>336.0</ele><time>2026-04-04T10:01:26Z</time></trkpt><trkpt lat="45.06463864513063" lon="7.758445559512676"><ele>336.0</ele><time>2026-04-04T10:01:27Z</time></trkpt><trkpt lat="45.06450072321722" lon="7.758541556792053"><ele>341.25</ele><time>2026-04-04T10:01:28Z</time></trkpt><trkpt lat="45.064372472256615" lon="7.758630665112016"><ele>346.5</ele><time>2026-04-04T10:01:29Z</time></trkpt><trkpt lat="45.06424014244361" lon="7.758721433584158"><ele>351.75</ele><time>2026-04-04T10:01:30Z</time></trkpt><trkpt lat="45.06410856998611" lon="7.758797317867955"><ele>357.0</ele><time>2026-04-04T10:01:31Z</time></trkpt><trkpt lat="45.06396449481788" lon="7.7588584988360205"><ele>357.3333333333333</ele><time>2026-04-04T10:01:32Z</time></trkpt><trkpt lat="45.06380707623705" lon="7.758908111151861"><ele>357.66666666666663</ele><time>2026-04-04T10:01:33Z</time></trkpt><trkpt lat="45.063650340558006" lon="7.758937309444753"><ele>358.0</ele><time>2026-04-04T10:01:34Z</time></trkpt><trkpt lat="45.063486773068234" lon="7.758956990710849"><ele>358.0</ele><time>2026-04-04T10:01:35Z</time></trkpt><trkpt lat="45.06333440566209" lon="7.758970136377637"><ele>358.0</ele><time>2026-04-04T10:01:36Z</time></trkpt><trkpt lat="45.06318183197283" lon="7.758986602903436"><ele>358.0</ele><time>2026-04-04T10:01:37Z</time></trkpt><trkpt lat="45.06302009080369" lon="7.759014782941031"><ele>354.66666666666663</ele><time>2026-04-04T10:01:38Z</time></trkpt><trkpt lat="45.06286798678356" lon="7.759065202435257"><ele>351.3333333333333</ele><time>2026-04-04T10:01:39Z</time></trkpt><trkpt lat="45.0627206906652" lon="7.759137401309761"><ele>348.0</ele><time>2026-04-04T10:01:40Z</time></trkpt><trkpt lat="45.062582095273264" lon="7.759233814545186"><ele>348.0</ele><time>2026-04-04T10:01:41Z</time></trkpt><trkpt lat="45.0624489944691" lon="7.7593542812819365"><ele>348.0</ele><time>2026-04-04T10:01:42Z</time></trkpt><trkpt lat="45.062324634259504" lon="7.759486443884201"><ele>348.0</ele><time>2026-04-04T10:01:43Z</time></trkpt><trkpt lat="45.06221317350769" lon="7.759631723381773"><ele>348.75</ele><time>2026-04-04T10:01:44Z</time></trkpt><trkpt lat="45.06211162069679" lon="7.759776011328824"><ele>349.5</ele><time>2026-04-04T10:01:45Z</time></trkpt><trkpt lat="45.062016595812906" lon="7.759914929614401"><ele>350.25</ele><time>2026-04-04T10:01:46Z</time></trkpt><trkpt lat="45.061921139925126" lon="7.760060138625988"><ele>351.0</ele><time>2026-04-04T10:01:47Z</time></trkpt><trkpt lat="45.0618234939679" lon="7.760211594972112"><ele>350.25</ele><time>2026-04-04T10:01:48Z</time></trkpt><trkpt lat="45.061721497993375" lon="7.760364043264275"><ele>349.5</ele><time>2026-04-04T10:01:49Z</time></trkpt><trkpt lat="45.06161869709453" lon="7.760513836584109"><ele>348.75</ele><time>2026-04-04T10:01:50Z</time></trkpt><trkpt lat="45.06151399816807" lon="7.76066677886078"><ele>348.0</ele><time>2026-04-04T10:01:51Z</time></trkpt><trkpt lat="45.0614138699493" lon="7.760818648382486"><ele>348.0</ele><time>2026-04-04T10:01:52Z</time></trkpt><trkpt lat="45.061312182921014" lon="7.760956791586854"><ele>348.0</ele><time>2026-04-04T10:01:53Z</time></trkpt><trkpt lat="45.061208575216455" lon="7.761085720805912"><ele>348.0</ele><time>2026-04-04T10:01:54Z</time></trkpt><trkpt lat="45.06109793637563" lon="7.761194601443983"><ele>348.0</ele><time>2026-04-04T10:01:55Z</time></trkpt><trkpt lat="45.06097643275234" lon="7.761277855791539"><ele>351.25</ele><time>2026-04-04T10:01:56Z</time></trkpt><trkpt lat="45.06084830761304" lon="7.761351580269695"><ele>354.5</ele><time>2026-04-04T10:01:57Z</time></trkpt><trkpt lat="45.06071643241019" lon="7.761421909693658"><ele>357.75</ele><time>2026-04-04T10:01:58Z</time></trkpt><trkpt lat="45.060580371979626" lon="7.761481131838371"><ele>361.0</ele><time>2026-04-04T10:01:59Z</time></trkpt><trkpt lat="45.060439292155245" lon="7.761538935749987"><ele>361.0</ele><time>2026-04-04T10:02:00Z</time></trkpt><trkpt lat="45.06029975199138" lon="7.7615932521273265"><ele>361.0</ele><time>2026-04-04T10:02:01Z</time></trkpt><trkpt lat="45.060158902369125" lon="7.76164990960372"><ele>361.0</ele><time>2026-04-04T10:02:02Z</time></trkpt><trkpt lat="45.06002363471846" lon="7.761731755531424"><ele>361.0</ele><time>2026-04-04T10:02:03Z</time></trkpt><trkpt lat="45.05989369804657" lon="7.761834083746831"><ele>363.0</ele><time>2026-04-04T10:02:04Z</time></trkpt><trkpt lat="45.059774029694225" lon="7.761946909078024"><ele>365.0</ele><time>2026-04-04T10:02:05Z</time></trkpt><trkpt lat="45.059659672180345" lon="7.762091523257099"><ele>367.0</ele><time>2026-04-04T10:02:06Z</time></trkpt><trkpt lat="45.05955836619885" lon="7.762256066600329"><ele>367.0</ele><time>2026-04-04T10:02:07Z</time></trkpt><trkpt lat="45.05947122757906" lon="7.762431765443904"><ele>367.0</ele><time>2026-04-04T10:02:08Z</time></trkpt><trkpt lat="45.059392298284834" lon="7.7626098478733265"><ele>367.0</ele><time>2026-04-04T10:02:09Z</time></trkpt><trkpt lat="45.05933672674512" lon="7.76279426790255"><ele>367.0</ele><time>2026-04-04T10:02:10Z</time></trkpt><trkpt lat="45.059270184086465" lon="7.762962965901064"><ele>368.75</ele><time>2026-04-04T10:02:11Z</time></trkpt><trkpt lat="45.05918179061524" lon="7.763110397955967"><ele>370.5</ele><time>2026-04-04T10:02:12Z</time></trkpt><trkpt lat="45.059097407826705" lon="7.763252540812143"><ele>372.25</ele><time>2026-04-04T10:02:13Z</time></trkpt><trkpt lat="45.059002926279796" lon="7.763390239170279"><ele>374.0</ele><time>2026-04-04T10:02:14Z</time></trkpt><trkpt lat="45.058897418117546" lon="7.763510819971831"><ele>375.5</ele><time>2026-04-04T10:02:15Z</time></trkpt><trkpt lat="45.05878561467238" lon="7.763618846996475"><ele>377.0</ele><time>2026-04-04T10:02:16Z</time></trkpt><trkpt lat="45.05867269670593" lon="7.7637276865867415"><ele>378.5</ele><time>2026-04-04T10:02:17Z</time></trkpt><trkpt lat="45.0585480066938" lon="7.763797931510611"><ele>380.0</ele><time>2026-04-04T10:02:18Z</time></trkpt><trkpt lat="45.0584170054873" lon="7.763823951297377"><ele>380.0</ele><time>2026-04-04T10:02:19Z</time></trkpt><trkpt lat="45.058291594994294" lon="7.763860160897736"><ele>380.0</ele><time>2026-04-04T10:02:20Z</time></trkpt><trkpt lat="45.05816020636677" lon="7.763891826605643"><ele>380.0</ele><time>2026-04-04T10:02:21Z</time></trkpt><trkpt lat="45.05802885935076" lon="7.763911788347138"><ele>380.0</ele><time>2026-04-04T10:02:22Z</time></trkpt><trkpt lat="45.057900456320375" lon="7.763933963364156"><ele>379.75</ele><time>2026-04-04T10:02:23Z</time></trkpt><trkpt lat="45.0577771189359" lon="7.763954754875783"><ele>379.5</ele><time>2026-04-04T10:02:24Z</time></trkpt><trkpt lat="45.05765841405491" lon="7.763974765463995"><ele>379.25</ele><time>2026-04-04T10:02:25Z</time></trkpt><trkpt lat="45.057536923122775" lon="7.763995245711301"><ele>379.0</ele><time>2026-04-04T10:02:26Z</time></trkpt><trkpt lat="45.057418321578844" lon="7.764015238881795"><ele>378.75</ele><time>2026-04-04T10:02:27Z</time></trkpt><trkpt lat="45.05729655228491" lon="7.764035766053932"><ele>378.5</ele><time>2026-04-04T10:02:28Z</time></trkpt><trkpt lat="45.05716807329716" lon="7.764061016647563"><ele>378.25</ele><time>2026-04-04T10:02:29Z</time></trkpt><trkpt lat="45.05703485680553" lon="7.7640975052540515"><ele>378.0</ele><time>2026-04-04T10:02:30Z</time></trkpt><trkpt lat="45.056899153019046" lon="7.764151041602443"><ele>378.0</ele><time>2026-04-04T10:02:31Z</time></trkpt><trkpt lat="45.0567786848457" lon="7.76426841489557"><ele>378.0</ele><time>2026-04-04T10:02:32Z</time></trkpt><trkpt lat="45.05665261574403" lon="7.764366346315436"><ele>378.0</ele><time>2026-04-04T10:02:33Z</time></trkpt><trkpt lat="45.056531117931044" lon="7.764482717513052"><ele>378.0</ele><time>2026-04-04T10:02:34Z</time></trkpt><trkpt lat="45.056416862396105" lon="7.764619485649042"><ele>380.0</ele><time>2026-04-04T10:02:35Z</time></trkpt><trkpt lat="45.05629293809831" lon="7.764752657154406"><ele>382.0</ele><time>2026-04-04T10:02:36Z</time></trkpt><trkpt lat="45.05618967476958" lon="7.764926452394594"><ele>384.0</ele><time>2026-04-04T10:02:37Z</time></trkpt><trkpt lat="45.05609323140801" lon="7.76509566488325"><ele>386.0</ele><time>2026-04-04T10:02:38Z</time></trkpt><trkpt lat="45.055997724808" lon="7.765261197441927"><ele>388.0</ele><time>2026-04-04T10:02:39Z</time></trkpt><trkpt lat="45.05590325273981" lon="7.765410714130978"><ele>390.0</ele><time>2026-04-04T10:02:40Z</time></trkpt><trkpt lat="45.05579828263117" lon="7.765541878860503"><ele>392.0</ele><time>2026-04-04T10:02:41Z</time></trkpt><trkpt lat="45.055682324857" lon="7.765650121099931"><ele>392.0</ele><time>2026-04-04T10:02:42Z</time></trkpt><trkpt lat="45.05556078927519" lon="7.765735438221799"><ele>392.0</ele><time>2026-04-04T10:02:43Z</time></trkpt><trkpt lat="45.055433994538966" lon="7.765807481939972"><ele>392.0</ele><time>2026-04-04T10:02:44Z</time></trkpt><trkpt lat="45.055298952048325" lon="7.7658512458228275"><ele>392.0</ele><time>2026-04-04T10:02:45Z</time></trkpt><trkpt lat="45.05515567487939" lon="7.765871807940987"><ele>392.0</ele><time>2026-04-04T10:02:46Z</time></trkpt><trkpt lat="45.05500620200375" lon="7.76586964184511"><ele>392.0</ele><time>2026-04-04T10:02:47Z</time></trkpt><trkpt lat="45.054856340120125" lon="7.765841834273612"><ele>392.0</ele><time>2026-04-04T10:02:48Z</time></trkpt><trkpt lat="45.05470087004153" lon="7.765800699437798"><ele>394.66666666666663</ele><time>2026-04-04T10:02:49Z</time></trkpt><trkpt lat="45.054545779589894" lon="7.765758105734559"><ele>397.33333333333337</ele><time>2026-04-04T10:02:50Z</time></trkpt><trkpt lat="45.05439876270521" lon="7.765716535081082"><ele>400.0</ele><time>2026-04-04T10:02:51Z</time></trkpt><trkpt lat="45.054256140080255" lon="7.765680180084694"><ele>401.33333333333337</ele><time>2026-04-04T10:02:52Z</time></trkpt><trkpt lat="45.05409907519342" lon="7.76565215078588"><ele>402.66666666666663</ele><time>2026-04-04T10:02:53Z</time></trkpt><trkpt lat="45.05394768870537" lon="7.765634988581698"><ele>404.0</ele><time>2026-04-04T10:02:54Z</time></trkpt><trkpt lat="45.05379772480131" lon="7.765622509420605"><ele>404.0</ele><time>2026-04-04T10:02:55Z</time></trkpt><trkpt lat="45.05365033411606" lon="7.7656083089895835"><ele>404.0</ele><time>2026-04-04T10:02:56Z</time></trkpt><trkpt lat="45.05349393073114" lon="7.765593126021768"><ele>404.0</ele><time>2026-04-04T10:02:57Z</time></trkpt><trkpt lat="45.05334621822555" lon="7.765578116168598"><ele>404.5</ele><time>2026-04-04T10:02:58Z</time></trkpt><trkpt lat="45.0532015112806" lon="7.765563203486584"><ele>405.0</ele><time>2026-04-04T10:02:59Z</time></trkpt><trkpt lat="45.05305347026123" lon="7.7655479969242265"><ele>405.5</ele><time>2026-04-04T10:03:00Z</time></trkpt><trkpt lat="45.05290756906048" lon="7.76553640832716"><ele>406.0</ele><time>2026-04-04T10:03:01Z</time></trkpt><trkpt lat="45.05275610653043" lon="7.765525113902698"><ele>406.0</ele><time>2026-04-04T10:03:02Z</time></trkpt><trkpt lat="45.05260339340317" lon="7.765521711412951"><ele>406.0</ele><time>2026-04-04T10:03:03Z</time></trkpt><trkpt lat="45.05245133720321" lon="7.765530409405059"><ele>406.0</ele><time>2026-04-04T10:03:04Z</time></trkpt><trkpt lat="45.05229538080126" lon="7.765548164022819"><ele>408.33333333333337</ele><time>2026-04-04T10:03:05Z</time></trkpt><trkpt lat="45.05214190203491" lon="7.765568939217704"><ele>410.66666666666663</ele><time>2026-04-04T10:03:06Z</time></trkpt><trkpt lat="45.051988002268175" lon="7.765595554178687"><ele>413.0</ele><time>2026-04-04T10:03:07Z</time></trkpt><trkpt lat="45.05183439768529" lon="7.76562477651017"><ele>413.0</ele><time>2026-04-04T10:03:08Z</time></trkpt><trkpt lat="45.05167860637038" lon="7.765647201742447"><ele>413.0</ele><time>2026-04-04T10:03:09Z</time></trkpt><trkpt lat="45.051519062310994" lon="7.765660715942722"><ele>413.0</ele><time>2026-04-04T10:03:10Z</time></trkpt><trkpt lat="45.05135541193138" lon="7.7656487271545895"><ele>415.0</ele><time>2026-04-04T10:03:11Z</time></trkpt><trkpt lat="45.05118830098635" lon="7.76561946163181"><ele>417.0</ele><time>2026-04-04T10:03:12Z</time></trkpt><trkpt lat="45.051018773470695" lon="7.765575001519168"><ele>419.0</ele><time>2026-04-04T10:03:13Z</time></trkpt><trkpt lat="45.05085110645342" lon="7.765517759215289"><ele>423.0</ele><time>2026-04-04T10:03:14Z</time></trkpt><trkpt lat="45.05068705484882" lon="7.765447760236935"><ele>427.0</ele><time>2026-04-04T10:03:15Z</time></trkpt><trkpt lat="45.05053034465318" lon="7.76537032138782"><ele>431.0</ele><time>2026-04-04T10:03:16Z</time></trkpt><trkpt lat="45.050375006953985" lon="7.765288705009474"><ele>431.0</ele><time>2026-04-04T10:03:17Z</time></trkpt><trkpt lat="45.05022252405637" lon="7.765201661468884"><ele>431.0</ele><time>2026-04-04T10:03:18Z</time></trkpt><trkpt lat="45.050071770286195" lon="7.7651127442388885"><ele>431.0</ele><time>2026-04-04T10:03:19Z</time></trkpt><trkpt lat="45.04992092505867" lon="7.765023771359794"><ele>431.3333333333333</ele><time>2026-04-04T10:03:20Z</time></trkpt><trkpt lat="45.049772959827365" lon="7.764938341564497"><ele>431.66666666666663</ele><time>2026-04-04T10:03:21Z</time></trkpt><trkpt lat="45.04962590413395" lon="7.7648580566910095"><ele>432.0</ele><time>2026-04-04T10:03:22Z</time></trkpt><trkpt lat="45.049474002813334" lon="7.764784840231673"><ele>432.0</ele><time>2026-04-04T10:03:23Z</time></trkpt><trkpt lat="45.0493206115383" lon="7.764726664444268"><ele>432.0</ele><time>2026-04-04T10:03:24Z</time></trkpt><trkpt lat="45.04916036827063" lon="7.764698186166822"><ele>432.0</ele><time>2026-04-04T10:03:25Z</time></trkpt><trkpt lat="45.04900346297824" lon="7.764694976808102"><ele>434.0</ele><time>2026-04-04T10:03:26Z</time></trkpt><trkpt lat="45.04884915181688" lon="7.764714671666266"><ele>436.0</ele><time>2026-04-04T10:03:27Z</time></trkpt><trkpt lat="45.04870329839187" lon="7.764773318607982"><ele>438.0</ele><time>2026-04-04T10:03:28Z</time></trkpt><trkpt lat="45.04857230241571" lon="7.764850426114199"><ele>440.0</ele><time>2026-04-04T10:03:29Z</time></trkpt><trkpt lat="45.048462094230544" lon="7.764937300621427"><ele>440.0</ele><time>2026-04-04T10:03:30Z</time></trkpt><trkpt lat="45.04837235781954" lon="7.765022833964702"><ele>440.0</ele><time>2026-04-04T10:03:31Z</time></trkpt><trkpt lat="45.04829399538751" lon="7.765110791605754"><ele>440.0</ele><time>2026-04-04T10:03:32Z</time></trkpt><trkpt lat="45.04822097997853" lon="7.765201717187443"><ele>440.0</ele><time>2026-04-04T10:03:33Z</time></trkpt><trkpt lat="45.04815917824336" lon="7.765280155987486"><ele>440.0</ele><time>2026-04-04T10:03:34Z</time></trkpt><trkpt lat="45.04809155180843" lon="7.765364577414738"><ele>445.99999999999994</ele><time>2026-04-04T10:03:35Z</time></trkpt><trkpt lat="45.04802330790106" lon="7.765449435873018"><ele>452.0</ele><time>2026-04-04T10:03:36Z</time></trkpt><trkpt lat="45.04795466757465" lon="7.765534787380892"><ele>458.0</ele><time>2026-04-04T10:03:37Z</time></trkpt><trkpt lat="45.04788772003711" lon="7.7656180338099405"><ele>464.0</ele><time>2026-04-04T10:03:38Z</time></trkpt><trkpt lat="45.04782415268725" lon="7.76569707716314"><ele>469.99999999999994</ele><time>2026-04-04T10:03:39Z</time></trkpt><trkpt lat="45.04777300594903" lon="7.765789582948533"><ele>476.0</ele><time>2026-04-04T10:03:40Z</time></trkpt><trkpt lat="45.04770086430645" lon="7.765832935527203"><ele>476.0</ele><time>2026-04-04T10:03:41.021Z</time></trkpt><trkpt lat="45.04763528079754" lon="7.765896320404091"><ele>476.0</ele><time>2026-04-04T10:03:42.018Z</time></trkpt><trkpt lat="45.04756681057054" lon="7.765967457953482"><ele>476.0</ele><time>2026-04-04T10:03:43.018Z</time></trkpt><trkpt lat="45.04622066311155" lon="7.7677492912815085"><ele>493.5</ele><time>2026-04-04T10:03:47.12Z</time></trkpt><trkpt lat="45.04588765945851" lon="7.7681756253923595"><ele>511.0</ele><time>2026-04-04T10:03:48.12Z</time></trkpt><trkpt lat="45.04554985905658" lon="7.7685960420668065"><ele>514.0</ele><time>2026-04-04T10:03:49.121Z</time></trkpt><trkpt lat="45.04521856081824" lon="7.769022838549174"><ele>517.0</ele><time>2026-04-04T10:03:50.119Z</time></trkpt><trkpt lat="45.041739908088964" lon="7.773494012661067"><ele>499.75</ele><time>2026-04-04T10:04:52Z</time></trkpt><trkpt lat="45.04159634645977" lon="7.7736306890438005"><ele>482.5</ele><time>2026-04-04T10:04:53Z</time></trkpt><trkpt lat="45.041499111068084" lon="7.7737238589742095"><ele>465.25</ele><time>2026-04-04T10:04:54Z</time></trkpt><trkpt lat="45.04140725105089" lon="7.773825578839721"><ele>448.0</ele><time>2026-04-04T10:04:55Z</time></trkpt><trkpt lat="45.041320429675544" lon="7.773929427770833"><ele>448.0</ele><time>2026-04-04T10:04:56Z</time></trkpt><trkpt lat="45.04122821139034" lon="7.774020648872411"><ele>448.0</ele><time>2026-04-04T10:04:57Z</time></trkpt><trkpt lat="45.04115687484476" lon="7.774152643226805"><ele>448.0</ele><time>2026-04-04T10:04:58Z</time></trkpt><trkpt lat="45.041076172837265" lon="7.7742569275315745"><ele>448.0</ele><time>2026-04-04T10:04:59Z</time></trkpt><trkpt lat="45.04099474011907" lon="7.774369461301521"><ele>447.25</ele><time>2026-04-04T10:05:00Z</time></trkpt><trkpt lat="45.040913747073475" lon="7.7744870501155345"><ele>446.5</ele><time>2026-04-04T10:05:01Z</time></trkpt><trkpt lat="45.04082074844709" lon="7.774593205653622"><ele>445.75</ele><time>2026-04-04T10:05:02Z</time></trkpt><trkpt lat="45.04075312689355" lon="7.774730329743793"><ele>445.0</ele><time>2026-04-04T10:05:03Z</time></trkpt><trkpt lat="45.04068786395723" lon="7.774870663375964"><ele>443.0</ele><time>2026-04-04T10:05:04Z</time></trkpt><trkpt lat="45.040643644379934" lon="7.775032275628924"><ele>441.0</ele><time>2026-04-04T10:05:05Z</time></trkpt><trkpt lat="45.04059276350674" lon="7.7751885553112094"><ele>439.0</ele><time>2026-04-04T10:05:06Z</time></trkpt><trkpt lat="45.04053508545068" lon="7.775342862849892"><ele>437.0</ele><time>2026-04-04T10:05:07Z</time></trkpt><trkpt lat="45.0405129803466" lon="7.775516590581194"><ele>436.25</ele><time>2026-04-04T10:05:08Z</time></trkpt><trkpt lat="45.04048301604358" lon="7.775690854555057"><ele>435.5</ele><time>2026-04-04T10:05:09Z</time></trkpt><trkpt lat="45.04046635977898" lon="7.775873751141701"><ele>434.75</ele><time>2026-04-04T10:05:10Z</time></trkpt><trkpt lat="45.040454999726705" lon="7.776057300698143"><ele>434.0</ele><time>2026-04-04T10:05:11Z</time></trkpt><trkpt lat="45.040452075929146" lon="7.7762439672307835"><ele>434.0</ele><time>2026-04-04T10:05:12Z</time></trkpt><trkpt lat="45.040454643727806" lon="7.77642899130937"><ele>434.0</ele><time>2026-04-04T10:05:13Z</time></trkpt><trkpt lat="45.04045864915528" lon="7.776618924388556"><ele>434.0</ele><time>2026-04-04T10:05:14Z</time></trkpt><trkpt lat="45.04045657235963" lon="7.776798292480799"><ele>434.0</ele><time>2026-04-04T10:05:15Z</time></trkpt><trkpt lat="45.040459897325405" lon="7.776964291068354"><ele>431.75</ele><time>2026-04-04T10:05:16Z</time></trkpt><trkpt lat="45.04046245880493" lon="7.777131721456263"><ele>429.5</ele><time>2026-04-04T10:05:17Z</time></trkpt><trkpt lat="45.04046473638459" lon="7.777294862085445"><ele>427.25</ele><time>2026-04-04T10:05:18Z</time></trkpt><trkpt lat="45.0404665418761" lon="7.777450414299802"><ele>425.0</ele><time>2026-04-04T10:05:19Z</time></trkpt><trkpt lat="45.040469700154546" lon="7.777608171787077"><ele>424.0</ele><time>2026-04-04T10:05:20Z</time></trkpt><trkpt lat="45.040470863991146" lon="7.77776425866111"><ele>423.0</ele><time>2026-04-04T10:05:21Z</time></trkpt><trkpt lat="45.04047363235474" lon="7.777916492843832"><ele>422.0</ele><time>2026-04-04T10:05:22Z</time></trkpt><trkpt lat="45.04047600389363" lon="7.778071815079172"><ele>421.0</ele><time>2026-04-04T10:05:23Z</time></trkpt><trkpt lat="45.04047867242483" lon="7.778228437904762"><ele>420.0</ele><time>2026-04-04T10:05:24Z</time></trkpt><trkpt lat="45.040476854405725" lon="7.778386641351385"><ele>419.8</ele><time>2026-04-04T10:05:25Z</time></trkpt><trkpt lat="45.040477036768486" lon="7.778546145393446"><ele>419.6</ele><time>2026-04-04T10:05:26Z</time></trkpt><trkpt lat="45.040475051589674" lon="7.77869982014185"><ele>419.4</ele><time>2026-04-04T10:05:27Z</time></trkpt><trkpt lat="45.04047520505825" lon="7.778853648793504"><ele>419.2</ele><time>2026-04-04T10:05:28Z</time></trkpt><trkpt lat="45.04047595869999" lon="7.778995171069562"><ele>419.0</ele><time>2026-04-04T10:05:29Z</time></trkpt><trkpt lat="45.04047662012918" lon="7.779122949799262"><ele>418.99999999999994</ele><time>2026-04-04T10:05:30Z</time></trkpt><trkpt lat="45.04047524725243" lon="7.779246097710673"><ele>419.0</ele><time>2026-04-04T10:05:31Z</time></trkpt><trkpt lat="45.04047648888179" lon="7.779363155102777"><ele>419.0</ele><time>2026-04-04T10:05:32Z</time></trkpt><trkpt lat="45.040479396662754" lon="7.77947485364269"><ele>419.0</ele><time>2026-04-04T10:05:33Z</time></trkpt><trkpt lat="45.04048105241117" lon="7.779591383627717"><ele>418.99999999999994</ele><time>2026-04-04T10:05:34Z</time></trkpt><trkpt lat="45.04048266296673" lon="7.7797046325325745"><ele>419.0</ele><time>2026-04-04T10:05:35Z</time></trkpt><trkpt lat="45.04048408247158" lon="7.7798183128810665"><ele>418.99999999999994</ele><time>2026-04-04T10:05:36Z</time></trkpt><trkpt lat="45.04048544332042" lon="7.779934118748487"><ele>419.0</ele><time>2026-04-04T10:05:37Z</time></trkpt><trkpt lat="45.04048930768769" lon="7.7800526085512045"><ele>419.0</ele><time>2026-04-04T10:05:38Z</time></trkpt><trkpt lat="45.04049147195399" lon="7.780171341629002"><ele>419.0</ele><time>2026-04-04T10:05:39Z</time></trkpt><trkpt lat="45.04049149663023" lon="7.7802941745055545"><ele>418.99999999999994</ele><time>2026-04-04T10:05:40Z</time></trkpt><trkpt lat="45.04048763310286" lon="7.780410990524968"><ele>419.0</ele><time>2026-04-04T10:05:41Z</time></trkpt><trkpt lat="45.04046660958046" lon="7.78050332148311"><ele>419.0</ele><time>2026-04-04T10:05:42Z</time></trkpt><trkpt lat="45.04038015315816" lon="7.7805989755225085"><ele>419.0</ele><time>2026-04-04T10:05:44Z</time></trkpt><trkpt lat="45.040336229939136" lon="7.780517081476445"><ele>419.0</ele><time>2026-04-04T10:05:45Z</time></trkpt><trkpt lat="45.04027947254501" lon="7.780476918312085"><ele>419.0</ele><time>2026-04-04T10:05:46Z</time></trkpt><trkpt lat="45.040162358546034" lon="7.7803990045978075"><ele>419.0</ele><time>2026-04-04T10:05:48Z</time></trkpt><trkpt lat="45.04011352699426" lon="7.780316542337766"><ele>419.0</ele><time>2026-04-04T10:05:49Z</time></trkpt><trkpt lat="45.04005588090906" lon="7.780243763129308"><ele>419.0</ele><time>2026-04-04T10:05:50Z</time></trkpt><trkpt lat="45.03999455610069" lon="7.780169686738884"><ele>419.0</ele><time>2026-04-04T10:05:51Z</time></trkpt><trkpt lat="45.03989714775132" lon="7.77996564927042"><ele>419.0</ele><time>2026-04-04T10:05:53Z</time></trkpt><trkpt lat="45.03984757223008" lon="7.779842807786418"><ele>419.0</ele><time>2026-04-04T10:05:54Z</time></trkpt><trkpt lat="45.039795713593314" lon="7.779717650864668"><ele>417.0</ele><time>2026-04-04T10:05:55Z</time></trkpt><trkpt lat="45.03974045566448" lon="7.7795896026374916"><ele>415.0</ele><time>2026-04-04T10:05:56Z</time></trkpt><trkpt lat="45.0396871877536" lon="7.779461836934591"><ele>413.0</ele><time>2026-04-04T10:05:57Z</time></trkpt><trkpt lat="45.03963973265546" lon="7.779322039329937"><ele>411.0</ele><time>2026-04-04T10:05:58Z</time></trkpt><trkpt lat="45.03958193169301" lon="7.779192844297815"><ele>409.0</ele><time>2026-04-04T10:05:59Z</time></trkpt><trkpt lat="45.03953200479917" lon="7.7790638375308285"><ele>409.0</ele><time>2026-04-04T10:06:00Z</time></trkpt><trkpt lat="45.0394855619891" lon="7.778946379901467"><ele>409.0</ele><time>2026-04-04T10:06:01Z</time></trkpt><trkpt lat="45.039444189358306" lon="7.778857863561612"><ele>409.0</ele><time>2026-04-04T10:06:02Z</time></trkpt><trkpt lat="45.03933983209998" lon="7.7787988513376565"><ele>409.0</ele><time>2026-04-04T10:06:04Z</time></trkpt><trkpt lat="45.03919956216744" lon="7.7788519770105236"><ele>409.0</ele><time>2026-04-04T10:06:06Z</time></trkpt><trkpt lat="45.03913734285029" lon="7.778891659633654"><ele>407.83333333333337</ele><time>2026-04-04T10:06:07Z</time></trkpt><trkpt lat="45.03905979926346" lon="7.778941115622417"><ele>406.6666666666667</ele><time>2026-04-04T10:06:08Z</time></trkpt><trkpt lat="45.03898279693925" lon="7.778990353912116"><ele>405.5</ele><time>2026-04-04T10:06:09Z</time></trkpt><trkpt lat="45.03891090120351" lon="7.7790349040057825"><ele>404.33333333333337</ele><time>2026-04-04T10:06:10Z</time></trkpt><trkpt lat="45.03885156370944" lon="7.77907155214743"><ele>403.1666666666667</ele><time>2026-04-04T10:06:11Z</time></trkpt><trkpt lat="45.03880019967219" lon="7.779013277211743"><ele>402.0</ele><time>2026-04-04T10:06:12Z</time></trkpt><trkpt lat="45.03873774137194" lon="7.778949799454763"><ele>402.0</ele><time>2026-04-04T10:06:14Z</time></trkpt><trkpt lat="45.038631388624076" lon="7.77906859910716"><ele>402.0</ele><time>2026-04-04T10:06:17Z</time></trkpt><trkpt lat="45.0386095647895" lon="7.779216677514832"><ele>402.0</ele><time>2026-04-04T10:06:19Z</time></trkpt><trkpt lat="45.03851385468836" lon="7.779273475081607"><ele>402.0</ele><time>2026-04-04T10:06:21Z</time></trkpt><trkpt lat="45.03844447891092" lon="7.779329178048365"><ele>402.0</ele><time>2026-04-04T10:06:22Z</time></trkpt><trkpt lat="45.03836873950112" lon="7.779397298506672"><ele>400.0</ele><time>2026-04-04T10:06:23Z</time></trkpt><trkpt lat="45.0382875790654" lon="7.779472770981204"><ele>398.0</ele><time>2026-04-04T10:06:24Z</time></trkpt><trkpt lat="45.038208281946204" lon="7.77955581051207"><ele>396.0</ele><time>2026-04-04T10:06:25Z</time></trkpt><trkpt lat="45.03813056705674" lon="7.779636936599709"><ele>394.0</ele><time>2026-04-04T10:06:26Z</time></trkpt><trkpt lat="45.038054298502196" lon="7.779722866811664"><ele>392.0</ele><time>2026-04-04T10:06:27Z</time></trkpt><trkpt lat="45.037979168704126" lon="7.7798058021968854"><ele>392.0</ele><time>2026-04-04T10:06:28Z</time></trkpt><trkpt lat="45.037902056454755" lon="7.779890925899954"><ele>392.0</ele><time>2026-04-04T10:06:29Z</time></trkpt><trkpt lat="45.037823160995224" lon="7.779978018095206"><ele>392.0</ele><time>2026-04-04T10:06:30Z</time></trkpt><trkpt lat="45.03774418736973" lon="7.780065196629769"><ele>392.0</ele><time>2026-04-04T10:06:31Z</time></trkpt><trkpt lat="45.03766730730862" lon="7.780150063927553"><ele>392.0</ele><time>2026-04-04T10:06:32Z</time></trkpt><trkpt lat="45.03758922194674" lon="7.780237042518792"><ele>392.0</ele><time>2026-04-04T10:06:33Z</time></trkpt><trkpt lat="45.03751119245144" lon="7.780325232599758"><ele>392.0</ele><time>2026-04-04T10:06:34Z</time></trkpt><trkpt lat="45.03743257457794" lon="7.780415450674614"><ele>392.0</ele><time>2026-04-04T10:06:35Z</time></trkpt><trkpt lat="45.037356445368914" lon="7.7805041893276545"><ele>392.0</ele><time>2026-04-04T10:06:36Z</time></trkpt><trkpt lat="45.03729205575795" lon="7.780615984084774"><ele>392.0</ele><time>2026-04-04T10:06:37Z</time></trkpt><trkpt lat="45.03721580667475" lon="7.780706475871397"><ele>391.20000000000005</ele><time>2026-04-04T10:06:38Z</time></trkpt><trkpt lat="45.037149549947884" lon="7.780810959140995"><ele>390.4</ele><time>2026-04-04T10:06:39Z</time></trkpt><trkpt lat="45.037086958379824" lon="7.780921837908295"><ele>389.6</ele><time>2026-04-04T10:06:40Z</time></trkpt><trkpt lat="45.03702537557372" lon="7.781054787472216"><ele>388.79999999999995</ele><time>2026-04-04T10:06:41Z</time></trkpt><trkpt lat="45.03696752088815" lon="7.781177339696118"><ele>388.0</ele><time>2026-04-04T10:06:42Z</time></trkpt><trkpt lat="45.036908061822594" lon="7.781296657193464"><ele>387.6666666666667</ele><time>2026-04-04T10:06:43Z</time></trkpt><trkpt lat="45.03686083249501" lon="7.781418477371887"><ele>387.33333333333337</ele><time>2026-04-04T10:06:44Z</time></trkpt><trkpt lat="45.0368145026349" lon="7.781538115141597"><ele>387.0</ele><time>2026-04-04T10:06:45Z</time></trkpt><trkpt lat="45.0367719050843" lon="7.781654573538688"><ele>386.66666666666663</ele><time>2026-04-04T10:06:46Z</time></trkpt><trkpt lat="45.03673288356932" lon="7.78176477816452"><ele>386.3333333333333</ele><time>2026-04-04T10:06:47Z</time></trkpt><trkpt lat="45.03670063075649" lon="7.781856800642303"><ele>386.0</ele><time>2026-04-04T10:06:48Z</time></trkpt><trkpt lat="45.03667019474858" lon="7.781972460870848"><ele>384.20000000000005</ele><time>2026-04-04T10:06:49Z</time></trkpt><trkpt lat="45.03663614452969" lon="7.782086685914844"><ele>382.40000000000003</ele><time>2026-04-04T10:06:50Z</time></trkpt><trkpt lat="45.036589644621166" lon="7.782198340068671"><ele>380.6</ele><time>2026-04-04T10:06:51Z</time></trkpt><trkpt lat="45.03655512402138" lon="7.782322429157376"><ele>378.8</ele><time>2026-04-04T10:06:52Z</time></trkpt><trkpt lat="45.036516477788126" lon="7.78244298081561"><ele>377.0</ele><time>2026-04-04T10:06:53Z</time></trkpt><trkpt lat="45.036470603454944" lon="7.7825667517557715"><ele>377.0</ele><time>2026-04-04T10:06:54Z</time></trkpt><trkpt lat="45.03641938974417" lon="7.7826848628414345"><ele>377.0</ele><time>2026-04-04T10:06:55Z</time></trkpt><trkpt lat="45.036360723042854" lon="7.782794961365053"><ele>377.0</ele><time>2026-04-04T10:06:56Z</time></trkpt><trkpt lat="45.036298614878945" lon="7.782899236348697"><ele>377.0</ele><time>2026-04-04T10:06:57Z</time></trkpt><trkpt lat="45.03623015745163" lon="7.783002318883643"><ele>377.0</ele><time>2026-04-04T10:06:58Z</time></trkpt><trkpt lat="45.036154583204336" lon="7.783095982467065"><ele>377.0</ele><time>2026-04-04T10:06:59Z</time></trkpt><trkpt lat="45.03607167875033" lon="7.78318724030282"><ele>377.0</ele><time>2026-04-04T10:07:00Z</time></trkpt><trkpt lat="45.035986092798616" lon="7.783281893366364"><ele>377.0</ele><time>2026-04-04T10:07:01Z</time></trkpt><trkpt lat="45.03589861045267" lon="7.783378013007295"><ele>377.0</ele><time>2026-04-04T10:07:02Z</time></trkpt><trkpt lat="45.03580646048095" lon="7.783479261211442"><ele>377.0</ele><time>2026-04-04T10:07:03Z</time></trkpt><trkpt lat="45.03571108705146" lon="7.7835840512340235"><ele>375.5</ele><time>2026-04-04T10:07:04Z</time></trkpt><trkpt lat="45.035610783005005" lon="7.783696531764082"><ele>374.0</ele><time>2026-04-04T10:07:05Z</time></trkpt><trkpt lat="45.035512811165624" lon="7.783822738203606"><ele>372.5</ele><time>2026-04-04T10:07:06Z</time></trkpt><trkpt lat="45.03541717382269" lon="7.783959135339715"><ele>371.0</ele><time>2026-04-04T10:07:07Z</time></trkpt><trkpt lat="45.03532723587832" lon="7.784104370774861"><ele>371.0</ele><time>2026-04-04T10:07:08Z</time></trkpt><trkpt lat="45.03523705479784" lon="7.784253051943401"><ele>371.0</ele><time>2026-04-04T10:07:09Z</time></trkpt><trkpt lat="45.03514387857915" lon="7.784411511908029"><ele>371.0</ele><time>2026-04-04T10:07:10Z</time></trkpt><trkpt lat="45.03506347374886" lon="7.7845850384505075"><ele>371.0</ele><time>2026-04-04T10:07:11Z</time></trkpt><trkpt lat="45.034980025825185" lon="7.784747360528499"><ele>369.75</ele><time>2026-04-04T10:07:12Z</time></trkpt><trkpt lat="45.03490981687724" lon="7.784917819626403"><ele>368.5</ele><time>2026-04-04T10:07:13Z</time></trkpt><trkpt lat="45.034864419593895" lon="7.785105384961627"><ele>367.25</ele><time>2026-04-04T10:07:14Z</time></trkpt><trkpt lat="45.034841557687926" lon="7.785301578746523"><ele>366.0</ele><time>2026-04-04T10:07:15Z</time></trkpt><trkpt lat="45.03477699228248" lon="7.785477587412556"><ele>365.75</ele><time>2026-04-04T10:07:16Z</time></trkpt><trkpt lat="45.034704001448034" lon="7.785640290806557"><ele>365.5</ele><time>2026-04-04T10:07:17Z</time></trkpt><trkpt lat="45.034642237909736" lon="7.785808059736535"><ele>365.25</ele><time>2026-04-04T10:07:18Z</time></trkpt><trkpt lat="45.03456054509683" lon="7.785934804495173"><ele>365.0</ele><time>2026-04-04T10:07:19Z</time></trkpt><trkpt lat="45.03449431002409" lon="7.786033522097558"><ele>365.0</ele><time>2026-04-04T10:07:20Z</time></trkpt><trkpt lat="45.03444695683357" lon="7.786093316151936"><ele>365.0</ele><time>2026-04-04T10:07:22Z</time></trkpt><trkpt lat="45.03448069193961" lon="7.786235837088598"><ele>365.0</ele><time>2026-04-04T10:07:24Z</time></trkpt><trkpt lat="45.03450196230477" lon="7.78632884079413"><ele>365.0</ele><time>2026-04-04T10:07:25Z</time></trkpt><trkpt lat="45.03449976200238" lon="7.786441967076725"><ele>365.0</ele><time>2026-04-04T10:07:26Z</time></trkpt><trkpt lat="45.03448627392754" lon="7.786572101518092"><ele>365.0</ele><time>2026-04-04T10:07:27Z</time></trkpt><trkpt lat="45.03446363182469" lon="7.7867166798407315"><ele>364.5</ele><time>2026-04-04T10:07:28Z</time></trkpt><trkpt lat="45.0344342933553" lon="7.786875822291799"><ele>364.0</ele><time>2026-04-04T10:07:29Z</time></trkpt><trkpt lat="45.034407376292855" lon="7.787040175159915"><ele>363.5</ele><time>2026-04-04T10:07:30Z</time></trkpt><trkpt lat="45.034384972633404" lon="7.787214163911186"><ele>363.0</ele><time>2026-04-04T10:07:31Z</time></trkpt><trkpt lat="45.034347475050964" lon="7.787391900653828"><ele>363.0</ele><time>2026-04-04T10:07:32Z</time></trkpt><trkpt lat="45.0342871813253" lon="7.787562532256652"><ele>363.0</ele><time>2026-04-04T10:07:33Z</time></trkpt><trkpt lat="45.034223446725605" lon="7.787732459851499"><ele>363.0</ele><time>2026-04-04T10:07:34Z</time></trkpt><trkpt lat="45.03414425932119" lon="7.78788682850219"><ele>363.0</ele><time>2026-04-04T10:07:35Z</time></trkpt><trkpt lat="45.034050588168384" lon="7.7880397108368875"><ele>362.75</ele><time>2026-04-04T10:07:36Z</time></trkpt><trkpt lat="45.03395566890455" lon="7.788192901849275"><ele>362.5</ele><time>2026-04-04T10:07:37Z</time></trkpt><trkpt lat="45.03386382288986" lon="7.788342781761109"><ele>362.25</ele><time>2026-04-04T10:07:38Z</time></trkpt><trkpt lat="45.03377336453165" lon="7.788488864459857"><ele>362.0</ele><time>2026-04-04T10:07:39Z</time></trkpt><trkpt lat="45.033685726064206" lon="7.788626427201569"><ele>364.25</ele><time>2026-04-04T10:07:40Z</time></trkpt><trkpt lat="45.033596376173236" lon="7.788759998549632"><ele>366.5</ele><time>2026-04-04T10:07:41Z</time></trkpt><trkpt lat="45.03349424859318" lon="7.788894823609114"><ele>368.75</ele><time>2026-04-04T10:07:42Z</time></trkpt><trkpt lat="45.03341501394351" lon="7.789048046889123"><ele>371.0</ele><time>2026-04-04T10:07:43Z</time></trkpt><trkpt lat="45.033324103974536" lon="7.78917332138999"><ele>370.6</ele><time>2026-04-04T10:07:44Z</time></trkpt><trkpt lat="45.03325423607095" lon="7.789307604406654"><ele>370.20000000000005</ele><time>2026-04-04T10:07:45Z</time></trkpt><trkpt lat="45.03318876163758" lon="7.789409115551006"><ele>369.79999999999995</ele><time>2026-04-04T10:07:46Z</time></trkpt><trkpt lat="45.033130744410975" lon="7.789489085897683"><ele>369.4</ele><time>2026-04-04T10:07:47Z</time></trkpt><trkpt lat="45.033100715644416" lon="7.789588646230502"><ele>369.0</ele><time>2026-04-04T10:07:48Z</time></trkpt><trkpt lat="45.03308040246211" lon="7.789702828287925"><ele>370.8333333333333</ele><time>2026-04-04T10:07:49Z</time></trkpt><trkpt lat="45.03306217223433" lon="7.7898292421617485"><ele>372.6666666666667</ele><time>2026-04-04T10:07:50Z</time></trkpt><trkpt lat="45.03302895465654" lon="7.789951732634792"><ele>374.5</ele><time>2026-04-04T10:07:51Z</time></trkpt><trkpt lat="45.033016360832455" lon="7.790075035779247"><ele>376.33333333333337</ele><time>2026-04-04T10:07:52Z</time></trkpt><trkpt lat="45.03298857421039" lon="7.790187325625965"><ele>378.1666666666667</ele><time>2026-04-04T10:07:53Z</time></trkpt><trkpt lat="45.03296952404052" lon="7.7902814151054915"><ele>380.0</ele><time>2026-04-04T10:07:54Z</time></trkpt><trkpt lat="45.03298275430524" lon="7.790369020792776"><ele>380.33333333333337</ele><time>2026-04-04T10:08:27Z</time></trkpt><trkpt lat="45.03297254151624" lon="7.790488471412607"><ele>380.6666666666667</ele><time>2026-04-04T10:09:42Z</time></trkpt><trkpt lat="45.03288399030414" lon="7.790576804805913"><ele>381.0</ele><time>2026-04-04T10:09:44Z</time></trkpt><trkpt lat="45.03282066608446" lon="7.790612643213741"><ele>381.3333333333333</ele><time>2026-04-04T10:09:45Z</time></trkpt><trkpt lat="45.03276174934108" lon="7.7906497239881976"><ele>381.66666666666663</ele><time>2026-04-04T10:09:46Z</time></trkpt><trkpt lat="45.032651354291886" lon="7.7907178413313485"><ele>382.0</ele><time>2026-04-04T10:09:48Z</time></trkpt><trkpt lat="45.03256052905965" lon="7.790787456397883"><ele>382.0</ele><time>2026-04-04T10:09:50Z</time></trkpt><trkpt lat="45.03247998160457" lon="7.790854420256993"><ele>382.0</ele><time>2026-04-04T10:09:52Z</time></trkpt><trkpt lat="45.03241659352154" lon="7.790917055953339"><ele>382.0</ele><time>2026-04-04T10:09:54Z</time></trkpt><trkpt lat="45.03236089341387" lon="7.790973060341282"><ele>382.0</ele><time>2026-04-04T10:09:56Z</time></trkpt><trkpt lat="45.03230553749151" lon="7.79104344916482"><ele>382.0</ele><time>2026-04-04T10:09:59Z</time></trkpt><trkpt lat="45.032235081006334" lon="7.791123732747202"><ele>382.0</ele><time>2026-04-04T10:10:44Z</time></trkpt><trkpt lat="45.03213814906664" lon="7.791250015397401"><ele>382.3333333333333</ele><time>2026-04-04T10:10:46Z</time></trkpt><trkpt lat="45.03209004316108" lon="7.791324026977791"><ele>382.66666666666663</ele><time>2026-04-04T10:10:47Z</time></trkpt><trkpt lat="45.032036121385175" lon="7.791419556125018"><ele>383.0</ele><time>2026-04-04T10:10:48Z</time></trkpt><trkpt lat="45.031979756777424" lon="7.7915220633604525"><ele>383.3333333333333</ele><time>2026-04-04T10:10:49Z</time></trkpt><trkpt lat="45.031920519123766" lon="7.791632070453177"><ele>383.6666666666667</ele><time>2026-04-04T10:10:50Z</time></trkpt><trkpt lat="45.03186426877826" lon="7.791739035994342"><ele>384.0</ele><time>2026-04-04T10:10:51Z</time></trkpt><trkpt lat="45.03180728738013" lon="7.791854507198383"><ele>383.2</ele><time>2026-04-04T10:10:52Z</time></trkpt><trkpt lat="45.031747387328245" lon="7.791973230774245"><ele>382.4</ele><time>2026-04-04T10:10:53Z</time></trkpt><trkpt lat="45.03168712152239" lon="7.792096166696078"><ele>381.6</ele><time>2026-04-04T10:10:54Z</time></trkpt><trkpt lat="45.03162651540476" lon="7.792222570419571"><ele>380.8</ele><time>2026-04-04T10:10:55Z</time></trkpt><trkpt lat="45.03156084587572" lon="7.792349242815681"><ele>380.0</ele><time>2026-04-04T10:10:56Z</time></trkpt><trkpt lat="45.03149602626414" lon="7.792480376399138"><ele>381.5</ele><time>2026-04-04T10:10:57Z</time></trkpt><trkpt lat="45.03142851474694" lon="7.792613367814823"><ele>383.0</ele><time>2026-04-04T10:10:58Z</time></trkpt><trkpt lat="45.03136125238013" lon="7.7927542767858595"><ele>384.5</ele><time>2026-04-04T10:10:59Z</time></trkpt><trkpt lat="45.031289117571994" lon="7.7928993082333875"><ele>386.0</ele><time>2026-04-04T10:11:00Z</time></trkpt><trkpt lat="45.031212171901835" lon="7.793050781767378"><ele>386.0</ele><time>2026-04-04T10:11:01Z</time></trkpt><trkpt lat="45.03113985524657" lon="7.793201395337717"><ele>386.0</ele><time>2026-04-04T10:11:02Z</time></trkpt><trkpt lat="45.03105905957262" lon="7.793358423078635"><ele>386.0</ele><time>2026-04-04T10:11:03Z</time></trkpt><trkpt lat="45.03097850850526" lon="7.793520828054053"><ele>386.0</ele><time>2026-04-04T10:11:04Z</time></trkpt><trkpt lat="45.03089506312007" lon="7.7936907545732605"><ele>384.0</ele><time>2026-04-04T10:11:05Z</time></trkpt><trkpt lat="45.03081014698151" lon="7.793864105734992"><ele>382.0</ele><time>2026-04-04T10:11:06Z</time></trkpt><trkpt lat="45.03072135234028" lon="7.794039711766593"><ele>380.0</ele><time>2026-04-04T10:11:07Z</time></trkpt><trkpt lat="45.030632556546614" lon="7.794222187766376"><ele>377.6666666666667</ele><time>2026-04-04T10:11:08Z</time></trkpt><trkpt lat="45.030539543867214" lon="7.794411946668232"><ele>375.3333333333333</ele><time>2026-04-04T10:11:09Z</time></trkpt><trkpt lat="45.03044216014771" lon="7.794601679929452"><ele>373.0</ele><time>2026-04-04T10:11:10Z</time></trkpt><trkpt lat="45.03034156491583" lon="7.794800975578466"><ele>373.0</ele><time>2026-04-04T10:11:11Z</time></trkpt><trkpt lat="45.030239751388066" lon="7.795008245076955"><ele>373.0</ele><time>2026-04-04T10:11:12Z</time></trkpt><trkpt lat="45.03013556037942" lon="7.795217282771623"><ele>373.0</ele><time>2026-04-04T10:11:13Z</time></trkpt><trkpt lat="45.03003100504447" lon="7.795424403716588"><ele>372.0</ele><time>2026-04-04T10:11:14Z</time></trkpt><trkpt lat="45.02992382064936" lon="7.79563295391753"><ele>371.0</ele><time>2026-04-04T10:11:15Z</time></trkpt><trkpt lat="45.02982195606385" lon="7.795834630985082"><ele>370.0</ele><time>2026-04-04T10:11:16Z</time></trkpt><trkpt lat="45.02971650524073" lon="7.796039797371172"><ele>367.0</ele><time>2026-04-04T10:11:17Z</time></trkpt><trkpt lat="45.02961115094768" lon="7.796245635637062"><ele>364.0</ele><time>2026-04-04T10:11:18Z</time></trkpt><trkpt lat="45.02950814907731" lon="7.7964475960335315"><ele>361.0</ele><time>2026-04-04T10:11:19Z</time></trkpt><trkpt lat="45.02940781048145" lon="7.796645344699828"><ele>360.66666666666663</ele><time>2026-04-04T10:11:20Z</time></trkpt><trkpt lat="45.029306174934206" lon="7.796845559712242"><ele>360.3333333333333</ele><time>2026-04-04T10:11:21Z</time></trkpt><trkpt lat="45.02920909219567" lon="7.7970476932286505"><ele>360.0</ele><time>2026-04-04T10:11:22Z</time></trkpt><trkpt lat="45.02911501970809" lon="7.797245081197141"><ele>360.0</ele><time>2026-04-04T10:11:23Z</time></trkpt><trkpt lat="45.02902150597382" lon="7.797431925022678"><ele>360.0</ele><time>2026-04-04T10:11:24Z</time></trkpt><trkpt lat="45.02893259318066" lon="7.797608903060162"><ele>360.0</ele><time>2026-04-04T10:11:25Z</time></trkpt><trkpt lat="45.028850878206015" lon="7.797766266800929"><ele>358.6</ele><time>2026-04-04T10:11:26Z</time></trkpt><trkpt lat="45.0287810473044" lon="7.797905452189063"><ele>357.2</ele><time>2026-04-04T10:11:27Z</time></trkpt><trkpt lat="45.028713135837535" lon="7.798035904696476"><ele>355.79999999999995</ele><time>2026-04-04T10:11:28Z</time></trkpt><trkpt lat="45.02864814309185" lon="7.798152147153738"><ele>354.4</ele><time>2026-04-04T10:11:29Z</time></trkpt><trkpt lat="45.028576830969975" lon="7.798254497871393"><ele>353.0</ele><time>2026-04-04T10:11:30Z</time></trkpt><trkpt lat="45.028498981662125" lon="7.798346213137095"><ele>353.0</ele><time>2026-04-04T10:11:31Z</time></trkpt><trkpt lat="45.02841904585153" lon="7.7984405164906985"><ele>353.0</ele><time>2026-04-04T10:11:32Z</time></trkpt><trkpt lat="45.02835310374568" lon="7.7985535513924225"><ele>353.0</ele><time>2026-04-04T10:11:33Z</time></trkpt><trkpt lat="45.028299499905735" lon="7.798697066238611"><ele>353.0</ele><time>2026-04-04T10:11:34Z</time></trkpt><trkpt lat="45.028233541369815" lon="7.798840111310304"><ele>353.0</ele><time>2026-04-04T10:11:35Z</time></trkpt><trkpt lat="45.02815493231435" lon="7.798977137530836"><ele>352.25</ele><time>2026-04-04T10:11:36Z</time></trkpt><trkpt lat="45.028065976926946" lon="7.799110143722533"><ele>351.5</ele><time>2026-04-04T10:11:37Z</time></trkpt><trkpt lat="45.027975289233986" lon="7.799245745411882"><ele>350.75</ele><time>2026-04-04T10:11:38Z</time></trkpt><trkpt lat="45.02788778443557" lon="7.799380770101029"><ele>350.0</ele><time>2026-04-04T10:11:39Z</time></trkpt><trkpt lat="45.02779850034296" lon="7.799515627230846"><ele>348.75</ele><time>2026-04-04T10:11:40Z</time></trkpt><trkpt lat="45.027710396807606" lon="7.799652702373638"><ele>347.5</ele><time>2026-04-04T10:11:41Z</time></trkpt><trkpt lat="45.02761873714645" lon="7.799792905521816"><ele>346.25</ele><time>2026-04-04T10:11:42Z</time></trkpt><trkpt lat="45.027528644121524" lon="7.799931501993393"><ele>345.0</ele><time>2026-04-04T10:11:43Z</time></trkpt><trkpt lat="45.02743761944079" lon="7.800071747315315"><ele>343.6</ele><time>2026-04-04T10:11:44Z</time></trkpt><trkpt lat="45.027351497784856" lon="7.800204111722231"><ele>342.2</ele><time>2026-04-04T10:11:45Z</time></trkpt><trkpt lat="45.02727035521027" lon="7.800319571423827"><ele>340.79999999999995</ele><time>2026-04-04T10:11:46Z</time></trkpt><trkpt lat="45.02719852333023" lon="7.800427448973023"><ele>339.4</ele><time>2026-04-04T10:11:47Z</time></trkpt><trkpt lat="45.027141135467254" lon="7.800515543990828"><ele>338.0</ele><time>2026-04-04T10:11:48Z</time></trkpt><trkpt lat="45.02707677969052" lon="7.8005921091886865"><ele>338.0</ele><time>2026-04-04T10:11:49Z</time></trkpt><trkpt lat="45.02700672287538" lon="7.80065084346481"><ele>338.0</ele><time>2026-04-04T10:11:50Z</time></trkpt><trkpt lat="45.02693650711038" lon="7.800702633222072"><ele>338.0</ele><time>2026-04-04T10:11:51Z</time></trkpt><trkpt lat="45.02688631255406" lon="7.800784539669782"><ele>338.0</ele><time>2026-04-04T10:11:52Z</time></trkpt><trkpt lat="45.026858876781326" lon="7.800891403837018"><ele>338.0</ele><time>2026-04-04T10:11:53Z</time></trkpt><trkpt lat="45.026820540399754" lon="7.8009997384863725"><ele>338.0</ele><time>2026-04-04T10:11:54Z</time></trkpt><trkpt lat="45.02676540011861" lon="7.801098447006528"><ele>337.2</ele><time>2026-04-04T10:11:55Z</time></trkpt><trkpt lat="45.026701035017446" lon="7.801197577186358"><ele>336.4</ele><time>2026-04-04T10:11:56Z</time></trkpt><trkpt lat="45.026627156152394" lon="7.80130641308182"><ele>335.59999999999997</ele><time>2026-04-04T10:11:57Z</time></trkpt><trkpt lat="45.02654817306389" lon="7.801422785118688"><ele>334.79999999999995</ele><time>2026-04-04T10:11:58Z</time></trkpt><trkpt lat="45.02646727035572" lon="7.801541453359129"><ele>334.0</ele><time>2026-04-04T10:11:59Z</time></trkpt><trkpt lat="45.02638309842626" lon="7.801667106912617"><ele>333.75</ele><time>2026-04-04T10:12:00Z</time></trkpt><trkpt lat="45.02629779567815" lon="7.801793568182739"><ele>333.5</ele><time>2026-04-04T10:12:01Z</time></trkpt><trkpt lat="45.02621184856654" lon="7.801923165708836"><ele>333.25</ele><time>2026-04-04T10:12:02Z</time></trkpt><trkpt lat="45.02612737714616" lon="7.802051878410936"><ele>333.0</ele><time>2026-04-04T10:12:03Z</time></trkpt><trkpt lat="45.026037633439564" lon="7.802192144171203"><ele>332.3333333333333</ele><time>2026-04-04T10:12:04Z</time></trkpt><trkpt lat="45.025933032924506" lon="7.802356824807121"><ele>331.66666666666663</ele><time>2026-04-04T10:12:05Z</time></trkpt><trkpt lat="45.025805265071135" lon="7.802553585539529"><ele>331.0</ele><time>2026-04-04T10:12:06Z</time></trkpt><trkpt lat="45.025679126687976" lon="7.8027468400343265"><ele>329.66666666666663</ele><time>2026-04-04T10:12:07Z</time></trkpt><trkpt lat="45.02555874782974" lon="7.8029249120236335"><ele>328.3333333333333</ele><time>2026-04-04T10:12:08Z</time></trkpt><trkpt lat="45.025444419638134" lon="7.803096728970577"><ele>327.0</ele><time>2026-04-04T10:12:09Z</time></trkpt><trkpt lat="45.0253414895531" lon="7.803256808667165"><ele>327.0</ele><time>2026-04-04T10:12:10Z</time></trkpt><trkpt lat="45.025242509271486" lon="7.803407922835918"><ele>327.0</ele><time>2026-04-04T10:12:11Z</time></trkpt><trkpt lat="45.0251500574758" lon="7.8035486086342205"><ele>327.0</ele><time>2026-04-04T10:12:12Z</time></trkpt><trkpt lat="45.025056609943825" lon="7.80369194758883"><ele>327.0</ele><time>2026-04-04T10:12:13Z</time></trkpt><trkpt lat="45.024960706383226" lon="7.803838633663028"><ele>326.6666666666667</ele><time>2026-04-04T10:12:14Z</time></trkpt><trkpt lat="45.024858052822815" lon="7.803994105147274"><ele>326.33333333333337</ele><time>2026-04-04T10:12:15Z</time></trkpt><trkpt lat="45.024756426315825" lon="7.804151414158164"><ele>326.0</ele><time>2026-04-04T10:12:16Z</time></trkpt><trkpt lat="45.02465736596331" lon="7.80431194049884"><ele>323.6666666666667</ele><time>2026-04-04T10:12:17Z</time></trkpt><trkpt lat="45.024554046151835" lon="7.80447089360945"><ele>321.3333333333333</ele><time>2026-04-04T10:12:18Z</time></trkpt><trkpt lat="45.02444766371284" lon="7.804628539568575"><ele>319.0</ele><time>2026-04-04T10:12:19Z</time></trkpt><trkpt lat="45.024336642058316" lon="7.804786465941858"><ele>319.0</ele><time>2026-04-04T10:12:20Z</time></trkpt><trkpt lat="45.02423270605811" lon="7.804951722485245"><ele>319.0</ele><time>2026-04-04T10:12:21Z</time></trkpt><trkpt lat="45.0241238213988" lon="7.805114057525356"><ele>319.0</ele><time>2026-04-04T10:12:22Z</time></trkpt><trkpt lat="45.02400686410371" lon="7.805259471955278"><ele>317.3333333333333</ele><time>2026-04-04T10:12:23Z</time></trkpt><trkpt lat="45.02390916954085" lon="7.805435200754478"><ele>315.6666666666667</ele><time>2026-04-04T10:12:24Z</time></trkpt><trkpt lat="45.023806341055746" lon="7.805601421388992"><ele>314.0</ele><time>2026-04-04T10:12:25Z</time></trkpt><trkpt lat="45.02369881870987" lon="7.805759954001446"><ele>314.0</ele><time>2026-04-04T10:12:26Z</time></trkpt><trkpt lat="45.023591363943645" lon="7.805923638524835"><ele>314.0</ele><time>2026-04-04T10:12:27Z</time></trkpt><trkpt lat="45.023485170535764" lon="7.806086101743074"><ele>314.0</ele><time>2026-04-04T10:12:28Z</time></trkpt><trkpt lat="45.02337710277802" lon="7.806249481312186"><ele>311.0</ele><time>2026-04-04T10:12:29Z</time></trkpt><trkpt lat="45.02326686988554" lon="7.806409878317065"><ele>308.0</ele><time>2026-04-04T10:12:30Z</time></trkpt><trkpt lat="45.023155430946204" lon="7.806575333756176"><ele>305.0</ele><time>2026-04-04T10:12:31Z</time></trkpt><trkpt lat="45.02304482395726" lon="7.806743117988302"><ele>306.0</ele><time>2026-04-04T10:12:32Z</time></trkpt><trkpt lat="45.02293217404496" lon="7.8069145002017075"><ele>307.0</ele><time>2026-04-04T10:12:33Z</time></trkpt><trkpt lat="45.02283855787624" lon="7.8070718798344485"><ele>308.0</ele><time>2026-04-04T10:12:34Z</time></trkpt><trkpt lat="45.02273742493401" lon="7.807227141498048"><ele>308.0</ele><time>2026-04-04T10:12:35Z</time></trkpt><trkpt lat="45.022632561186406" lon="7.807388758939616"><ele>308.0</ele><time>2026-04-04T10:12:36Z</time></trkpt><trkpt lat="45.022528308583134" lon="7.807543109229178"><ele>308.0</ele><time>2026-04-04T10:12:37Z</time></trkpt><trkpt lat="45.02242258536033" lon="7.807705521319773"><ele>307.33333333333337</ele><time>2026-04-04T10:12:38Z</time></trkpt><trkpt lat="45.02231864660797" lon="7.807861049190114"><ele>306.6666666666667</ele><time>2026-04-04T10:12:39Z</time></trkpt><trkpt lat="45.02221115104925" lon="7.8080176331421365"><ele>306.0</ele><time>2026-04-04T10:12:40Z</time></trkpt><trkpt lat="45.02210502547495" lon="7.808179348808041"><ele>306.0</ele><time>2026-04-04T10:12:41Z</time></trkpt><trkpt lat="45.02199951042523" lon="7.808345117092535"><ele>306.0</ele><time>2026-04-04T10:12:42Z</time></trkpt><trkpt lat="45.02189151377558" lon="7.808510573862553"><ele>306.0</ele><time>2026-04-04T10:12:43Z</time></trkpt><trkpt lat="45.021782857793696" lon="7.8086759587713725"><ele>306.0</ele><time>2026-04-04T10:12:44Z</time></trkpt><trkpt lat="45.02167308366232" lon="7.808845777804698"><ele>306.0</ele><time>2026-04-04T10:12:45Z</time></trkpt><trkpt lat="45.02156474897758" lon="7.809017484587117"><ele>306.0</ele><time>2026-04-04T10:12:46Z</time></trkpt><trkpt lat="45.0214535838909" lon="7.809187654101364"><ele>306.6666666666667</ele><time>2026-04-04T10:12:47Z</time></trkpt><trkpt lat="45.02134317536096" lon="7.809347489220512"><ele>307.33333333333337</ele><time>2026-04-04T10:12:48Z</time></trkpt><trkpt lat="45.02123593235702" lon="7.809505863816409"><ele>308.0</ele><time>2026-04-04T10:12:49Z</time></trkpt><trkpt lat="45.02112938594521" lon="7.8096690812051355"><ele>308.0</ele><time>2026-04-04T10:12:50Z</time></trkpt><trkpt lat="45.02102285177172" lon="7.809832133867228"><ele>308.0</ele><time>2026-04-04T10:12:51Z</time></trkpt><trkpt lat="45.02091808011461" lon="7.809999590360206"><ele>308.0</ele><time>2026-04-04T10:12:52Z</time></trkpt><trkpt lat="45.02081342569498" lon="7.810158842587235"><ele>307.75</ele><time>2026-04-04T10:12:53Z</time></trkpt><trkpt lat="45.0207109208783" lon="7.810308778267274"><ele>307.5</ele><time>2026-04-04T10:12:54Z</time></trkpt><trkpt lat="45.02061530555912" lon="7.810457934493426"><ele>307.25</ele><time>2026-04-04T10:12:55Z</time></trkpt><trkpt lat="45.020514506465105" lon="7.810580350008667"><ele>307.0</ele><time>2026-04-04T10:12:56Z</time></trkpt><trkpt lat="45.020424805979744" lon="7.810716530849591"><ele>307.0</ele><time>2026-04-04T10:12:57Z</time></trkpt><trkpt lat="45.020338905059894" lon="7.810846943497899"><ele>307.0</ele><time>2026-04-04T10:12:58Z</time></trkpt><trkpt lat="45.0202709124794" lon="7.811005261754417"><ele>307.0</ele><time>2026-04-04T10:12:59Z</time></trkpt><trkpt lat="45.02019171800399" lon="7.8111357919833795"><ele>307.0</ele><time>2026-04-04T10:13:00Z</time></trkpt><trkpt lat="45.020116781084326" lon="7.811250219533335"><ele>307.0</ele><time>2026-04-04T10:13:01Z</time></trkpt><trkpt lat="45.020046356572074" lon="7.811357679610524"><ele>307.0</ele><time>2026-04-04T10:13:02Z</time></trkpt><trkpt lat="45.01998188538771" lon="7.811448318029999"><ele>307.0</ele><time>2026-04-04T10:13:03Z</time></trkpt><trkpt lat="45.01991581338769" lon="7.811516988982456"><ele>307.0</ele><time>2026-04-04T10:13:04Z</time></trkpt><trkpt lat="45.01984507583163" lon="7.8115689107816815"><ele>307.0</ele><time>2026-04-04T10:13:05Z</time></trkpt><trkpt lat="45.01979330662494" lon="7.811620842031036"><ele>307.0</ele><time>2026-04-04T10:13:06Z</time></trkpt><trkpt lat="45.01973601096396" lon="7.811701377252112"><ele>307.16666666666663</ele><time>2026-04-04T10:13:07Z</time></trkpt><trkpt lat="45.01968348828501" lon="7.8117780283480585"><ele>307.3333333333333</ele><time>2026-04-04T10:13:08Z</time></trkpt><trkpt lat="45.01961745151903" lon="7.811906339082315"><ele>307.5</ele><time>2026-04-04T10:13:10Z</time></trkpt><trkpt lat="45.01956402733675" lon="7.8120420731668165"><ele>307.6666666666667</ele><time>2026-04-04T10:13:12Z</time></trkpt><trkpt lat="45.019520595943355" lon="7.812111978007889"><ele>307.83333333333337</ele><time>2026-04-04T10:13:13Z</time></trkpt><trkpt lat="45.019465555766935" lon="7.812195439236682"><ele>308.0</ele><time>2026-04-04T10:13:14Z</time></trkpt><trkpt lat="45.019406325497094" lon="7.812285924336926"><ele>308.0</ele><time>2026-04-04T10:13:15Z</time></trkpt><trkpt lat="45.0193484439972" lon="7.812379460964659"><ele>308.0</ele><time>2026-04-04T10:13:16Z</time></trkpt><trkpt lat="45.019283142287925" lon="7.812446086562771"><ele>308.0</ele><time>2026-04-04T10:13:17Z</time></trkpt><trkpt lat="45.01923582786105" lon="7.812518194993447"><ele>308.0</ele><time>2026-04-04T10:13:18Z</time></trkpt><trkpt lat="45.019181874253505" lon="7.81264614347143"><ele>308.0</ele><time>2026-04-04T10:13:20Z</time></trkpt><trkpt lat="45.01913791712574" lon="7.812710870128838"><ele>308.0</ele><time>2026-04-04T10:13:22Z</time></trkpt><trkpt lat="45.01908216736466" lon="7.812753938602526"><ele>307.33333333333337</ele><time>2026-04-04T10:13:30Z</time></trkpt><trkpt lat="45.019025471512556" lon="7.812811784388182"><ele>306.6666666666667</ele><time>2026-04-04T10:13:58Z</time></trkpt><trkpt lat="45.018943589837" lon="7.812931271233494"><ele>306.0</ele><time>2026-04-04T10:14:00Z</time></trkpt><trkpt lat="45.01889468254665" lon="7.8129983554002935"><ele>305.3333333333333</ele><time>2026-04-04T10:14:01Z</time></trkpt><trkpt lat="45.018841491946034" lon="7.813079354424561"><ele>304.66666666666663</ele><time>2026-04-04T10:14:02Z</time></trkpt><trkpt lat="45.01878489466765" lon="7.813171255349053"><ele>304.0</ele><time>2026-04-04T10:14:03Z</time></trkpt><trkpt lat="45.018725409956545" lon="7.813282466506401"><ele>304.0</ele><time>2026-04-04T10:14:04Z</time></trkpt><trkpt lat="45.01865843374081" lon="7.813387144704319"><ele>304.0</ele><time>2026-04-04T10:14:05Z</time></trkpt><trkpt lat="45.018595586509996" lon="7.813483800341316"><ele>304.0</ele><time>2026-04-04T10:14:06Z</time></trkpt><trkpt lat="45.01852664662996" lon="7.8135863302892"><ele>304.0</ele><time>2026-04-04T10:14:07Z</time></trkpt><trkpt lat="45.01845496206438" lon="7.8136951541163"><ele>304.0</ele><time>2026-04-04T10:14:08Z</time></trkpt><trkpt lat="45.0183824679818" lon="7.813810365649829"><ele>303.75</ele><time>2026-04-04T10:14:09Z</time></trkpt><trkpt lat="45.01831108733699" lon="7.813927586558307"><ele>303.5</ele><time>2026-04-04T10:14:10Z</time></trkpt><trkpt lat="45.01822761806864" lon="7.814058895628253"><ele>303.25</ele><time>2026-04-04T10:14:11Z</time></trkpt><trkpt lat="45.018141524379324" lon="7.814190346711666"><ele>303.0</ele><time>2026-04-04T10:14:12Z</time></trkpt><trkpt lat="45.018056616871036" lon="7.814322035040277"><ele>302.75</ele><time>2026-04-04T10:14:13Z</time></trkpt><trkpt lat="45.017970206115685" lon="7.814456399186909"><ele>302.5</ele><time>2026-04-04T10:14:14Z</time></trkpt><trkpt lat="45.01788538643854" lon="7.814590749995055"><ele>302.25</ele><time>2026-04-04T10:14:15Z</time></trkpt><trkpt lat="45.01780330377875" lon="7.814724068517689"><ele>302.0</ele><time>2026-04-04T10:14:16Z</time></trkpt><trkpt lat="45.017729413461126" lon="7.814857726085816"><ele>302.0</ele><time>2026-04-04T10:14:17Z</time></trkpt><trkpt lat="45.01765468840515" lon="7.814986860160101"><ele>302.0</ele><time>2026-04-04T10:14:18Z</time></trkpt><trkpt lat="45.017575571737815" lon="7.815107525558226"><ele>302.0</ele><time>2026-04-04T10:14:19Z</time></trkpt><trkpt lat="45.01749705618523" lon="7.815223728854446"><ele>302.0</ele><time>2026-04-04T10:14:20Z</time></trkpt><trkpt lat="45.01744075618025" lon="7.815344773510586"><ele>301.2</ele><time>2026-04-04T10:14:21Z</time></trkpt><trkpt lat="45.01743175740069" lon="7.815461810985481"><ele>300.4</ele><time>2026-04-04T10:14:22Z</time></trkpt><trkpt lat="45.01745649132355" lon="7.815579355287454"><ele>299.6</ele><time>2026-04-04T10:14:23Z</time></trkpt><trkpt lat="45.01747462795729" lon="7.815710892068494"><ele>298.8</ele><time>2026-04-04T10:14:24Z</time></trkpt><trkpt lat="45.01745392543602" lon="7.815855006572499"><ele>298.0</ele><time>2026-04-04T10:14:25Z</time></trkpt><trkpt lat="45.017415081506606" lon="7.816008742093256"><ele>298.0</ele><time>2026-04-04T10:14:26Z</time></trkpt><trkpt lat="45.01737305345539" lon="7.816172198828429"><ele>298.0</ele><time>2026-04-04T10:14:27Z</time></trkpt><trkpt lat="45.017332576757404" lon="7.816349301357123"><ele>298.0</ele><time>2026-04-04T10:14:28Z</time></trkpt><trkpt lat="45.01729312398338" lon="7.816528945194857"><ele>298.0</ele><time>2026-04-04T10:14:29Z</time></trkpt><trkpt lat="45.017254610923274" lon="7.816708935577037"><ele>298.5</ele><time>2026-04-04T10:14:30Z</time></trkpt><trkpt lat="45.01721614549024" lon="7.816892429421195"><ele>299.0</ele><time>2026-04-04T10:14:31Z</time></trkpt><trkpt lat="45.01717945391037" lon="7.817076808019117"><ele>299.5</ele><time>2026-04-04T10:14:32Z</time></trkpt><trkpt lat="45.017140214963" lon="7.817248013953918"><ele>300.0</ele><time>2026-04-04T10:14:33Z</time></trkpt><trkpt lat="45.017102570396446" lon="7.817409965539373"><ele>300.0</ele><time>2026-04-04T10:14:34Z</time></trkpt><trkpt lat="45.017062763765196" lon="7.817559448998007"><ele>300.0</ele><time>2026-04-04T10:14:35Z</time></trkpt><trkpt lat="45.01703714353092" lon="7.817705192794282"><ele>300.0</ele><time>2026-04-04T10:14:36Z</time></trkpt><trkpt lat="45.01700641025953" lon="7.817843163664274"><ele>300.0</ele><time>2026-04-04T10:14:37Z</time></trkpt><trkpt lat="45.01697562665173" lon="7.8179729107253255"><ele>300.0</ele><time>2026-04-04T10:14:38Z</time></trkpt><trkpt lat="45.01694268314128" lon="7.8180994612265815"><ele>300.8</ele><time>2026-04-04T10:14:39Z</time></trkpt><trkpt lat="45.016914342824414" lon="7.818230363495072"><ele>301.6</ele><time>2026-04-04T10:14:40Z</time></trkpt><trkpt lat="45.01688797426616" lon="7.818362108729431"><ele>302.4</ele><time>2026-04-04T10:14:41Z</time></trkpt><trkpt lat="45.016856676368064" lon="7.818495271477159"><ele>303.2</ele><time>2026-04-04T10:14:42Z</time></trkpt><trkpt lat="45.01682083326877" lon="7.818623409473007"><ele>304.0</ele><time>2026-04-04T10:14:43Z</time></trkpt><trkpt lat="45.01679018652612" lon="7.818750855734924"><ele>304.0</ele><time>2026-04-04T10:14:44Z</time></trkpt><trkpt lat="45.01676352714162" lon="7.818872577841348"><ele>304.0</ele><time>2026-04-04T10:14:45Z</time></trkpt><trkpt lat="45.01673731556506" lon="7.81898391656262"><ele>304.0</ele><time>2026-04-04T10:14:46Z</time></trkpt><trkpt lat="45.01669845612397" lon="7.819143813493234"><ele>304.0</ele><time>2026-04-04T10:14:48Z</time></trkpt><trkpt lat="45.01666561278308" lon="7.819258489370962"><ele>304.0</ele><time>2026-04-04T10:14:50Z</time></trkpt><trkpt lat="45.01663514527992" lon="7.8193576330363985"><ele>302.3333333333333</ele><time>2026-04-04T10:14:54Z</time></trkpt><trkpt lat="45.01661556104746" lon="7.819458535880475"><ele>300.66666666666663</ele><time>2026-04-04T10:14:59Z</time></trkpt><trkpt lat="45.01657558029596" lon="7.819580320771873"><ele>299.0</ele><time>2026-04-04T10:15:04Z</time></trkpt><trkpt lat="45.01654701214999" lon="7.8196720829733355"><ele>297.3333333333333</ele><time>2026-04-04T10:15:05Z</time></trkpt><trkpt lat="45.01651610800516" lon="7.819769011093715"><ele>295.6666666666667</ele><time>2026-04-04T10:15:06Z</time></trkpt><trkpt lat="45.016483658331765" lon="7.8198808353709515"><ele>294.0</ele><time>2026-04-04T10:15:07Z</time></trkpt><trkpt lat="45.016448711373705" lon="7.8200064661564"><ele>295.5</ele><time>2026-04-04T10:15:08Z</time></trkpt><trkpt lat="45.01640993979086" lon="7.8201514241114465"><ele>297.0</ele><time>2026-04-04T10:15:09Z</time></trkpt><trkpt lat="45.016373005299926" lon="7.8202954552558595"><ele>298.5</ele><time>2026-04-04T10:15:10Z</time></trkpt><trkpt lat="45.01633362566513" lon="7.820447290847716"><ele>300.0</ele><time>2026-04-04T10:15:11Z</time></trkpt><trkpt lat="45.01629103829886" lon="7.820608620177696"><ele>300.0</ele><time>2026-04-04T10:15:12Z</time></trkpt><trkpt lat="45.01625450561487" lon="7.820774717819335"><ele>300.0</ele><time>2026-04-04T10:15:13Z</time></trkpt><trkpt lat="45.016222004800866" lon="7.820952181134321"><ele>300.0</ele><time>2026-04-04T10:15:14Z</time></trkpt><trkpt lat="45.016204731276375" lon="7.821128471302388"><ele>300.0</ele><time>2026-04-04T10:15:15Z</time></trkpt><trkpt lat="45.016195926659805" lon="7.821303575625577"><ele>300.75</ele><time>2026-04-04T10:15:16Z</time></trkpt><trkpt lat="45.016195121226495" lon="7.821484613203215"><ele>301.5</ele><time>2026-04-04T10:15:17Z</time></trkpt><trkpt lat="45.016209303120235" lon="7.821672824817042"><ele>302.25</ele><time>2026-04-04T10:15:18Z</time></trkpt><trkpt lat="45.01622222516008" lon="7.821865126412674"><ele>303.0</ele><time>2026-04-04T10:15:19Z</time></trkpt><trkpt lat="45.016239354374314" lon="7.8220571809135295"><ele>303.5</ele><time>2026-04-04T10:15:20Z</time></trkpt><trkpt lat="45.01625422982652" lon="7.822263010986373"><ele>304.0</ele><time>2026-04-04T10:15:21Z</time></trkpt><trkpt lat="45.01627377750112" lon="7.822468965321113"><ele>304.5</ele><time>2026-04-04T10:15:22Z</time></trkpt><trkpt lat="45.01629468126177" lon="7.822679517276451"><ele>305.0</ele><time>2026-04-04T10:15:23Z</time></trkpt><trkpt lat="45.01631440978956" lon="7.822889267072171"><ele>305.0</ele><time>2026-04-04T10:15:24Z</time></trkpt><trkpt lat="45.01633628468754" lon="7.823103833431996"><ele>305.0</ele><time>2026-04-04T10:15:25Z</time></trkpt><trkpt lat="45.01634592640431" lon="7.823321597050389"><ele>305.0</ele><time>2026-04-04T10:15:26Z</time></trkpt><trkpt lat="45.0163665277297" lon="7.823553066384664"><ele>305.33333333333337</ele><time>2026-04-04T10:15:27Z</time></trkpt><trkpt lat="45.0163768524821" lon="7.823785938697245"><ele>305.6666666666667</ele><time>2026-04-04T10:15:28Z</time></trkpt><trkpt lat="45.016370059056925" lon="7.824018497118235"><ele>306.0</ele><time>2026-04-04T10:15:29Z</time></trkpt><trkpt lat="45.01636174973389" lon="7.824264775450102"><ele>303.6666666666667</ele><time>2026-04-04T10:15:30Z</time></trkpt><trkpt lat="45.016356966651514" lon="7.8245031599822585"><ele>301.33333333333337</ele><time>2026-04-04T10:15:31Z</time></trkpt><trkpt lat="45.01633962889126" lon="7.824748513788435"><ele>299.0</ele><time>2026-04-04T10:15:32Z</time></trkpt><trkpt lat="45.01632674999996" lon="7.824994413980493"><ele>297.6666666666667</ele><time>2026-04-04T10:15:33Z</time></trkpt><trkpt lat="45.01630007669091" lon="7.825229767275585"><ele>296.3333333333333</ele><time>2026-04-04T10:15:34Z</time></trkpt><trkpt lat="45.01626143611679" lon="7.825459621636876"><ele>295.0</ele><time>2026-04-04T10:15:35Z</time></trkpt><trkpt lat="45.0162341221759" lon="7.825678986114384"><ele>295.0</ele><time>2026-04-04T10:15:36Z</time></trkpt><trkpt lat="45.01619207430067" lon="7.8258852613872385"><ele>295.0</ele><time>2026-04-04T10:15:37Z</time></trkpt><trkpt lat="45.016151013292685" lon="7.826091217090512"><ele>295.0</ele><time>2026-04-04T10:15:38Z</time></trkpt><trkpt lat="45.01611235410621" lon="7.826289604274764"><ele>295.0</ele><time>2026-04-04T10:15:39Z</time></trkpt><trkpt lat="45.01608036625321" lon="7.826476536697205"><ele>294.75</ele><time>2026-04-04T10:15:40Z</time></trkpt><trkpt lat="45.016049005524124" lon="7.8266603718455965"><ele>294.5</ele><time>2026-04-04T10:15:41Z</time></trkpt><trkpt lat="45.01601746859812" lon="7.826836178013176"><ele>294.25</ele><time>2026-04-04T10:15:42Z</time></trkpt><trkpt lat="45.01598921176734" lon="7.8269876761324095"><ele>294.0</ele><time>2026-04-04T10:15:43Z</time></trkpt><trkpt lat="45.01596577749473" lon="7.827120350635336"><ele>293.8333333333333</ele><time>2026-04-04T10:15:44Z</time></trkpt><trkpt lat="45.01594696548506" lon="7.8272422149799254"><ele>293.6666666666667</ele><time>2026-04-04T10:15:45Z</time></trkpt><trkpt lat="45.01593128861412" lon="7.827357857058055"><ele>293.5</ele><time>2026-04-04T10:15:46Z</time></trkpt><trkpt lat="45.015916575899496" lon="7.827473247081284"><ele>293.33333333333337</ele><time>2026-04-04T10:15:47Z</time></trkpt><trkpt lat="45.01589623800263" lon="7.8275777377539475"><ele>293.1666666666667</ele><time>2026-04-04T10:15:48Z</time></trkpt><trkpt lat="45.01587801959065" lon="7.827671763283351"><ele>293.0</ele><time>2026-04-04T10:15:49Z</time></trkpt><trkpt lat="45.01585162427002" lon="7.827815112459778"><ele>293.0</ele><time>2026-04-04T10:15:51Z</time></trkpt><trkpt lat="45.0158366770852" lon="7.827927702471614"><ele>293.0</ele><time>2026-04-04T10:15:54Z</time></trkpt><trkpt lat="45.01581321003389" lon="7.828018966863709"><ele>293.0</ele><time>2026-04-04T10:16:29Z</time></trkpt><trkpt lat="45.015774563517375" lon="7.828174765333688"><ele>293.0</ele><time>2026-04-04T10:16:31Z</time></trkpt><trkpt lat="45.01575432026202" lon="7.828263593268419"><ele>293.0</ele><time>2026-04-04T10:16:32Z</time></trkpt><trkpt lat="45.015735450437184" lon="7.828352424472081"><ele>293.0</ele><time>2026-04-04T10:16:33Z</time></trkpt><trkpt lat="45.01580291860755" lon="7.828497713798278"><ele>292.6666666666667</ele><time>2026-04-04T10:16:34Z</time></trkpt><trkpt lat="45.01585669900018" lon="7.828584671165755"><ele>292.33333333333337</ele><time>2026-04-04T10:16:35Z</time></trkpt><trkpt lat="45.0158960807771" lon="7.8286822882924385"><ele>292.0</ele><time>2026-04-04T10:16:36Z</time></trkpt><trkpt lat="45.015938051014665" lon="7.828762827414184"><ele>291.6666666666667</ele><time>2026-04-04T10:16:37Z</time></trkpt><trkpt lat="45.01598542182658" lon="7.828845742544874"><ele>291.3333333333333</ele><time>2026-04-04T10:16:38Z</time></trkpt><trkpt lat="45.016031818052355" lon="7.828934569609681"><ele>291.0</ele><time>2026-04-04T10:16:39Z</time></trkpt><trkpt lat="45.01608313252104" lon="7.829030949918574"><ele>291.0</ele><time>2026-04-04T10:16:40Z</time></trkpt><trkpt lat="45.01613788072309" lon="7.829132889239772"><ele>291.0</ele><time>2026-04-04T10:16:41Z</time></trkpt><trkpt lat="45.01620431854736" lon="7.829230926274479"><ele>291.0</ele><time>2026-04-04T10:16:42Z</time></trkpt><trkpt lat="45.01627574392005" lon="7.829340346825042"><ele>291.0</ele><time>2026-04-04T10:16:43Z</time></trkpt><trkpt lat="45.016350812367484" lon="7.829458352879406"><ele>291.0</ele><time>2026-04-04T10:16:44Z</time></trkpt><trkpt lat="45.01642398707162" lon="7.8295779757953925"><ele>291.25</ele><time>2026-04-04T10:16:45Z</time></trkpt><trkpt lat="45.01650020130507" lon="7.829700812472183"><ele>291.5</ele><time>2026-04-04T10:16:46Z</time></trkpt><trkpt lat="45.01657252320819" lon="7.829828335958158"><ele>291.75</ele><time>2026-04-04T10:16:47Z</time></trkpt><trkpt lat="45.01665212561927" lon="7.829951476509035"><ele>292.0</ele><time>2026-04-04T10:16:48Z</time></trkpt><trkpt lat="45.0167263299695" lon="7.830072301474502"><ele>292.2</ele><time>2026-04-04T10:16:49Z</time></trkpt><trkpt lat="45.016797122604885" lon="7.830188100588066"><ele>292.4</ele><time>2026-04-04T10:16:50Z</time></trkpt><trkpt lat="45.01686637620216" lon="7.830297892359441"><ele>292.6</ele><time>2026-04-04T10:16:51Z</time></trkpt><trkpt lat="45.0169300432037" lon="7.830403948167767"><ele>292.8</ele><time>2026-04-04T10:16:52Z</time></trkpt><trkpt lat="45.0169941612838" lon="7.830505237436299"><ele>293.0</ele><time>2026-04-04T10:16:53Z</time></trkpt><trkpt lat="45.017056885614466" lon="7.830603605181985"><ele>293.0</ele><time>2026-04-04T10:16:54Z</time></trkpt><trkpt lat="45.017117071908345" lon="7.830699474433157"><ele>293.0</ele><time>2026-04-04T10:16:55Z</time></trkpt><trkpt lat="45.017175746605965" lon="7.83079385491924"><ele>293.0</ele><time>2026-04-04T10:16:56Z</time></trkpt><trkpt lat="45.017228994461036" lon="7.830885233138696"><ele>293.0</ele><time>2026-04-04T10:16:57Z</time></trkpt><trkpt lat="45.017287904366086" lon="7.83098044064751"><ele>293.0</ele><time>2026-04-04T10:16:58Z</time></trkpt><trkpt lat="45.017346696765216" lon="7.83107443212328"><ele>293.0</ele><time>2026-04-04T10:16:59Z</time></trkpt><trkpt lat="45.01739605589072" lon="7.831191949710137"><ele>293.4</ele><time>2026-04-04T10:17:00Z</time></trkpt><trkpt lat="45.017458365946446" lon="7.831292671054346"><ele>293.8</ele><time>2026-04-04T10:17:01Z</time></trkpt><trkpt lat="45.01753399041424" lon="7.831386050670563"><ele>294.2</ele><time>2026-04-04T10:17:02Z</time></trkpt><trkpt lat="45.017600344440964" lon="7.831497596303648"><ele>294.6</ele><time>2026-04-04T10:17:03Z</time></trkpt><trkpt lat="45.01766530954927" lon="7.83160712041843"><ele>295.0</ele><time>2026-04-04T10:17:04Z</time></trkpt><trkpt lat="45.01773355007381" lon="7.83171024719775"><ele>294.4</ele><time>2026-04-04T10:17:05Z</time></trkpt><trkpt lat="45.01780105108714" lon="7.8318173076145445"><ele>293.8</ele><time>2026-04-04T10:17:06Z</time></trkpt><trkpt lat="45.017869721953645" lon="7.831922669435693"><ele>293.2</ele><time>2026-04-04T10:17:07Z</time></trkpt><trkpt lat="45.01792761745833" lon="7.832034199232587"><ele>292.6</ele><time>2026-04-04T10:17:08Z</time></trkpt><trkpt lat="45.01799743591695" lon="7.832141065308649"><ele>292.0</ele><time>2026-04-04T10:17:09Z</time></trkpt><trkpt lat="45.018071349331535" lon="7.832248201839133"><ele>292.0</ele><time>2026-04-04T10:17:10Z</time></trkpt><trkpt lat="45.018140027156306" lon="7.832357518236591"><ele>292.0</ele><time>2026-04-04T10:17:11Z</time></trkpt><trkpt lat="45.018209148993606" lon="7.8324728001756245"><ele>292.0</ele><time>2026-04-04T10:17:12Z</time></trkpt><trkpt lat="45.018276218360846" lon="7.832583922966894"><ele>292.0</ele><time>2026-04-04T10:17:13Z</time></trkpt><trkpt lat="45.01834991037673" lon="7.832690695265418"><ele>292.0</ele><time>2026-04-04T10:17:14Z</time></trkpt><trkpt lat="45.01841970277676" lon="7.832796987333149"><ele>292.0</ele><time>2026-04-04T10:17:15Z</time></trkpt><trkpt lat="45.018491226853335" lon="7.832901065497142"><ele>292.0</ele><time>2026-04-04T10:17:16Z</time></trkpt><trkpt lat="45.01856117726112" lon="7.83300749075583"><ele>292.0</ele><time>2026-04-04T10:17:17Z</time></trkpt><trkpt lat="45.01862759154553" lon="7.833113999590459"><ele>292.0</ele><time>2026-04-04T10:17:18Z</time></trkpt><trkpt lat="45.018687857878454" lon="7.833228072397198"><ele>292.0</ele><time>2026-04-04T10:17:19Z</time></trkpt><trkpt lat="45.01875410235652" lon="7.833336170845836"><ele>292.0</ele><time>2026-04-04T10:17:20Z</time></trkpt><trkpt lat="45.01882090573885" lon="7.833446870357951"><ele>292.0</ele><time>2026-04-04T10:17:21Z</time></trkpt><trkpt lat="45.01888681446579" lon="7.8335542002460326"><ele>292.0</ele><time>2026-04-04T10:17:22Z</time></trkpt><trkpt lat="45.01894592250511" lon="7.833648483718202"><ele>292.0</ele><time>2026-04-04T10:17:23Z</time></trkpt><trkpt lat="45.019002087594316" lon="7.833724588015417"><ele>292.0</ele><time>2026-04-04T10:17:24Z</time></trkpt><trkpt lat="45.01904990651868" lon="7.83381973218273"><ele>291.8</ele><time>2026-04-04T10:17:25Z</time></trkpt><trkpt lat="45.01909988660349" lon="7.833907814326356"><ele>291.6</ele><time>2026-04-04T10:17:26Z</time></trkpt><trkpt lat="45.01916122793844" lon="7.834000250168879"><ele>291.40000000000003</ele><time>2026-04-04T10:17:27Z</time></trkpt><trkpt lat="45.01922547430033" lon="7.834098372656653"><ele>291.2</ele><time>2026-04-04T10:17:28Z</time></trkpt><trkpt lat="45.01928419973557" lon="7.834206845998921"><ele>291.0</ele><time>2026-04-04T10:17:29Z</time></trkpt><trkpt lat="45.01934941580738" lon="7.834311711516548"><ele>290.6</ele><time>2026-04-04T10:17:30Z</time></trkpt><trkpt lat="45.019415500867744" lon="7.834419967359357"><ele>290.20000000000005</ele><time>2026-04-04T10:17:31Z</time></trkpt><trkpt lat="45.01948085707029" lon="7.834530025496997"><ele>289.79999999999995</ele><time>2026-04-04T10:17:32Z</time></trkpt><trkpt lat="45.019549893139136" lon="7.8346445071157955"><ele>289.4</ele><time>2026-04-04T10:17:33Z</time></trkpt><trkpt lat="45.01962278233957" lon="7.834762782465003"><ele>289.0</ele><time>2026-04-04T10:17:34Z</time></trkpt><trkpt lat="45.019701536475544" lon="7.834890905476801"><ele>289.0</ele><time>2026-04-04T10:17:35Z</time></trkpt><trkpt lat="45.019786736184905" lon="7.835032991846014"><ele>289.0</ele><time>2026-04-04T10:17:36Z</time></trkpt><trkpt lat="45.019878279588816" lon="7.83518579807588"><ele>289.0</ele><time>2026-04-04T10:17:37Z</time></trkpt><trkpt lat="45.019975808714676" lon="7.835351625659337"><ele>289.0</ele><time>2026-04-04T10:17:38Z</time></trkpt><trkpt lat="45.020075235649415" lon="7.835517576851301"><ele>289.0</ele><time>2026-04-04T10:17:39Z</time></trkpt><trkpt lat="45.02017740691071" lon="7.835682377385314"><ele>289.0</ele><time>2026-04-04T10:17:40Z</time></trkpt><trkpt lat="45.02027699997607" lon="7.83584874651125"><ele>289.0</ele><time>2026-04-04T10:17:41Z</time></trkpt><trkpt lat="45.020377512653624" lon="7.836009883815496"><ele>289.0</ele><time>2026-04-04T10:17:42Z</time></trkpt><trkpt lat="45.020472404710404" lon="7.836159801619563"><ele>289.0</ele><time>2026-04-04T10:17:43Z</time></trkpt><trkpt lat="45.02056247986746" lon="7.836310813985137"><ele>289.0</ele><time>2026-04-04T10:17:44Z</time></trkpt><trkpt lat="45.020645266035054" lon="7.836456683609163"><ele>289.0</ele><time>2026-04-04T10:17:45Z</time></trkpt><trkpt lat="45.02072430060355" lon="7.83660086636963"><ele>289.0</ele><time>2026-04-04T10:17:46Z</time></trkpt><trkpt lat="45.02080422826894" lon="7.8367438283210245"><ele>289.0</ele><time>2026-04-04T10:17:47Z</time></trkpt><trkpt lat="45.0208825731405" lon="7.836878222430716"><ele>289.0</ele><time>2026-04-04T10:17:48Z</time></trkpt><trkpt lat="45.02096420941756" lon="7.8370093344198795"><ele>289.0</ele><time>2026-04-04T10:17:49Z</time></trkpt><trkpt lat="45.02104583407451" lon="7.837138965079448"><ele>289.5</ele><time>2026-04-04T10:17:50Z</time></trkpt><trkpt lat="45.02112957840954" lon="7.837269425787111"><ele>290.0</ele><time>2026-04-04T10:17:51Z</time></trkpt><trkpt lat="45.02121158356703" lon="7.83739576716284"><ele>290.5</ele><time>2026-04-04T10:17:52Z</time></trkpt><trkpt lat="45.02128960338264" lon="7.837514111235085"><ele>291.0</ele><time>2026-04-04T10:17:53Z</time></trkpt><trkpt lat="45.02135572121484" lon="7.8376258589356125"><ele>291.6</ele><time>2026-04-04T10:17:54Z</time></trkpt><trkpt lat="45.021419950439864" lon="7.837738070676964"><ele>292.20000000000005</ele><time>2026-04-04T10:17:55Z</time></trkpt><trkpt lat="45.02148093678188" lon="7.837847036312385"><ele>292.79999999999995</ele><time>2026-04-04T10:17:56Z</time></trkpt><trkpt lat="45.02154390709855" lon="7.837965196866177"><ele>293.4</ele><time>2026-04-04T10:17:57Z</time></trkpt><trkpt lat="45.02162079977155" lon="7.838098686182552"><ele>294.0</ele><time>2026-04-04T10:17:58Z</time></trkpt><trkpt lat="45.02170880440543" lon="7.838246121125761"><ele>295.6666666666667</ele><time>2026-04-04T10:17:59Z</time></trkpt><trkpt lat="45.02180579784422" lon="7.838413617698418"><ele>297.33333333333337</ele><time>2026-04-04T10:18:00Z</time></trkpt><trkpt lat="45.02190519307746" lon="7.838612114633149"><ele>299.0</ele><time>2026-04-04T10:18:01Z</time></trkpt><trkpt lat="45.021994147277496" lon="7.8388160511673775"><ele>301.6666666666667</ele><time>2026-04-04T10:18:02Z</time></trkpt><trkpt lat="45.02206536653391" lon="7.839047579869968"><ele>304.3333333333333</ele><time>2026-04-04T10:18:03Z</time></trkpt><trkpt lat="45.02214063243128" lon="7.839292354361612"><ele>307.0</ele><time>2026-04-04T10:18:04Z</time></trkpt><trkpt lat="45.02222506090566" lon="7.839545399429034"><ele>307.0</ele><time>2026-04-04T10:18:05Z</time></trkpt><trkpt lat="45.02226550582839" lon="7.839829772766661"><ele>307.0</ele><time>2026-04-04T10:18:06Z</time></trkpt><trkpt lat="45.02232499772521" lon="7.840101614398845"><ele>307.0</ele><time>2026-04-04T10:18:07Z</time></trkpt><trkpt lat="45.02235416584148" lon="7.84037687752958"><ele>304.3333333333333</ele><time>2026-04-04T10:18:08Z</time></trkpt><trkpt lat="45.022368647280025" lon="7.840644904544313"><ele>301.6666666666667</ele><time>2026-04-04T10:18:09Z</time></trkpt><trkpt lat="45.022371999209945" lon="7.840917906540806"><ele>299.0</ele><time>2026-04-04T10:18:10Z</time></trkpt><trkpt lat="45.022355426735054" lon="7.841184641342856"><ele>299.0</ele><time>2026-04-04T10:18:11Z</time></trkpt><trkpt lat="45.022345333046665" lon="7.841433037140095"><ele>299.0</ele><time>2026-04-04T10:18:12Z</time></trkpt><trkpt lat="45.02234000017304" lon="7.841660897766531"><ele>299.0</ele><time>2026-04-04T10:18:13Z</time></trkpt><trkpt lat="45.02234218434699" lon="7.841871229751122"><ele>298.8</ele><time>2026-04-04T10:18:14Z</time></trkpt><trkpt lat="45.02235809112989" lon="7.842063131067738"><ele>298.59999999999997</ele><time>2026-04-04T10:18:15Z</time></trkpt><trkpt lat="45.022387345586196" lon="7.842204533017601"><ele>298.4</ele><time>2026-04-04T10:18:16Z</time></trkpt><trkpt lat="45.02238436334127" lon="7.842317523249935"><ele>298.2</ele><time>2026-04-04T10:18:17Z</time></trkpt><trkpt lat="45.02236437552777" lon="7.842412564240368"><ele>298.0</ele><time>2026-04-04T10:18:18Z</time></trkpt><trkpt lat="45.022280120413726" lon="7.8425419004472765"><ele>298.0</ele><time>2026-04-04T10:18:20Z</time></trkpt><trkpt lat="45.02229705780641" lon="7.84270097328767"><ele>298.0</ele><time>2026-04-04T10:18:22Z</time></trkpt><trkpt lat="45.02237052627566" lon="7.842794793590085"><ele>298.0</ele><time>2026-04-04T10:18:24Z</time></trkpt><trkpt lat="45.02250763368938" lon="7.84274878322871"><ele>298.0</ele><time>2026-04-04T10:18:26Z</time></trkpt><trkpt lat="45.02259420952948" lon="7.842951338356749"><ele>298.0</ele><time>2026-04-04T10:18:27Z</time></trkpt><trkpt lat="45.02267661201972" lon="7.843079206311865"><ele>298.0</ele><time>2026-04-04T10:18:28Z</time></trkpt><trkpt lat="45.02276099610552" lon="7.843226368894835"><ele>298.0</ele><time>2026-04-04T10:18:29Z</time></trkpt><trkpt lat="45.02285667473467" lon="7.843395303144229"><ele>298.0</ele><time>2026-04-04T10:18:30Z</time></trkpt><trkpt lat="45.02295432160892" lon="7.843574027212853"><ele>298.0</ele><time>2026-04-04T10:18:31Z</time></trkpt><trkpt lat="45.02306050713822" lon="7.8437702589821034"><ele>298.0</ele><time>2026-04-04T10:18:32Z</time></trkpt><trkpt lat="45.02317022036954" lon="7.8439721807946015"><ele>298.0</ele><time>2026-04-04T10:18:33Z</time></trkpt><trkpt lat="45.023281645073475" lon="7.84417565936749"><ele>296.0</ele><time>2026-04-04T10:18:34Z</time></trkpt><trkpt lat="45.023400767809996" lon="7.844396991691317"><ele>294.0</ele><time>2026-04-04T10:18:35Z</time></trkpt><trkpt lat="45.02352590730923" lon="7.84462357102111"><ele>292.0</ele><time>2026-04-04T10:18:36Z</time></trkpt><trkpt lat="45.0236555521719" lon="7.844856811005544"><ele>292.0</ele><time>2026-04-04T10:18:37Z</time></trkpt><trkpt lat="45.02378413550325" lon="7.845096262687228"><ele>292.0</ele><time>2026-04-04T10:18:38Z</time></trkpt><trkpt lat="45.02391811498362" lon="7.84534687141103"><ele>292.0</ele><time>2026-04-04T10:18:39Z</time></trkpt><trkpt lat="45.024056585006406" lon="7.845604743648821"><ele>292.5</ele><time>2026-04-04T10:18:40Z</time></trkpt><trkpt lat="45.02419615796307" lon="7.845868937276122"><ele>293.0</ele><time>2026-04-04T10:18:41Z</time></trkpt><trkpt lat="45.02433921562336" lon="7.8461382787249825"><ele>290.5</ele><time>2026-04-04T10:18:42Z</time></trkpt><trkpt lat="45.02448607664993" lon="7.846407056608568"><ele>288.0</ele><time>2026-04-04T10:18:43Z</time></trkpt><trkpt lat="45.02462687443763" lon="7.846664358279731"><ele>288.3333333333333</ele><time>2026-04-04T10:18:44Z</time></trkpt><trkpt lat="45.02476393842451" lon="7.846913953701787"><ele>288.66666666666663</ele><time>2026-04-04T10:18:45Z</time></trkpt><trkpt lat="45.024900795462884" lon="7.847162705232658"><ele>289.0</ele><time>2026-04-04T10:18:46Z</time></trkpt><trkpt lat="45.025036731958444" lon="7.847406443262221"><ele>289.3333333333333</ele><time>2026-04-04T10:18:47Z</time></trkpt><trkpt lat="45.02517084784031" lon="7.847649608439741"><ele>289.6666666666667</ele><time>2026-04-04T10:18:48Z</time></trkpt><trkpt lat="45.025301533165006" lon="7.847891471125184"><ele>290.0</ele><time>2026-04-04T10:18:49Z</time></trkpt><trkpt lat="45.02543568861353" lon="7.848137849307947"><ele>290.0</ele><time>2026-04-04T10:18:50Z</time></trkpt><trkpt lat="45.025562670327375" lon="7.848375202142197"><ele>290.0</ele><time>2026-04-04T10:18:51Z</time></trkpt><trkpt lat="45.02568904859325" lon="7.848611833592846"><ele>290.0</ele><time>2026-04-04T10:18:52Z</time></trkpt><trkpt lat="45.02581579615162" lon="7.848845760245928"><ele>289.6666666666667</ele><time>2026-04-04T10:18:53Z</time></trkpt><trkpt lat="45.02594009394158" lon="7.849072572778779"><ele>289.3333333333333</ele><time>2026-04-04T10:18:54Z</time></trkpt><trkpt lat="45.02605797895646" lon="7.849282724408681"><ele>289.0</ele><time>2026-04-04T10:18:55Z</time></trkpt><trkpt lat="45.02617083556409" lon="7.849476182434105"><ele>288.5</ele><time>2026-04-04T10:18:56Z</time></trkpt><trkpt lat="45.02627109458114" lon="7.849650137684957"><ele>288.0</ele><time>2026-04-04T10:18:57Z</time></trkpt><trkpt lat="45.026353545215336" lon="7.849801333032004"><ele>287.5</ele><time>2026-04-04T10:18:58Z</time></trkpt><trkpt lat="45.026416663365396" lon="7.849941956361358"><ele>287.0</ele><time>2026-04-04T10:18:59Z</time></trkpt><trkpt lat="45.026460646878554" lon="7.850076929619395"><ele>286.8</ele><time>2026-04-04T10:19:00Z</time></trkpt><trkpt lat="45.02646492855957" lon="7.850206825301235"><ele>286.6</ele><time>2026-04-04T10:19:01Z</time></trkpt><trkpt lat="45.02648373134035" lon="7.850333208069412"><ele>286.40000000000003</ele><time>2026-04-04T10:19:02Z</time></trkpt><trkpt lat="45.02652010636214" lon="7.850443780934548"><ele>286.2</ele><time>2026-04-04T10:19:03Z</time></trkpt><trkpt lat="45.02660979425352" lon="7.850493367646182"><ele>286.0</ele><time>2026-04-04T10:19:04Z</time></trkpt><trkpt lat="45.026694419830655" lon="7.850554010464988"><ele>286.25</ele><time>2026-04-04T10:19:05Z</time></trkpt><trkpt lat="45.02677873507287" lon="7.850641122466999"><ele>286.5</ele><time>2026-04-04T10:19:06Z</time></trkpt><trkpt lat="45.02685462477743" lon="7.850761659110491"><ele>286.75</ele><time>2026-04-04T10:19:07Z</time></trkpt><trkpt lat="45.026927556531156" lon="7.85089933955564"><ele>287.0</ele><time>2026-04-04T10:19:08Z</time></trkpt><trkpt lat="45.02699527023305" lon="7.8510291135386865"><ele>287.0</ele><time>2026-04-04T10:19:09Z</time></trkpt><trkpt lat="45.027063126016216" lon="7.8511528668725274"><ele>287.0</ele><time>2026-04-04T10:19:10Z</time></trkpt><trkpt lat="45.027129626015416" lon="7.851272310863575"><ele>287.0</ele><time>2026-04-04T10:19:11Z</time></trkpt><trkpt lat="45.02719600192456" lon="7.851395204070868"><ele>287.0</ele><time>2026-04-04T10:19:12Z</time></trkpt><trkpt lat="45.02726746012714" lon="7.851531819157355"><ele>287.0</ele><time>2026-04-04T10:19:13Z</time></trkpt><trkpt lat="45.027347674073496" lon="7.851681014437941"><ele>287.0</ele><time>2026-04-04T10:19:14Z</time></trkpt><trkpt lat="45.02742948855341" lon="7.8518309787113"><ele>287.0</ele><time>2026-04-04T10:19:15Z</time></trkpt><trkpt lat="45.02751739376319" lon="7.851983137572527"><ele>287.0</ele><time>2026-04-04T10:19:16Z</time></trkpt><trkpt lat="45.02760547473322" lon="7.852138905907746"><ele>287.0</ele><time>2026-04-04T10:19:17Z</time></trkpt><trkpt lat="45.02769247091643" lon="7.852299586359423"><ele>287.0</ele><time>2026-04-04T10:19:18Z</time></trkpt><trkpt lat="45.02777869669257" lon="7.852461837213406"><ele>287.0</ele><time>2026-04-04T10:19:19Z</time></trkpt><trkpt lat="45.02786848577687" lon="7.852627609942145"><ele>287.0</ele><time>2026-04-04T10:19:20Z</time></trkpt><trkpt lat="45.02796128703422" lon="7.852794132644796"><ele>287.0</ele><time>2026-04-04T10:19:21Z</time></trkpt><trkpt lat="45.028056159325104" lon="7.852967494650322"><ele>287.0</ele><time>2026-04-04T10:19:22Z</time></trkpt><trkpt lat="45.02814964757431" lon="7.853140541913832"><ele>287.0</ele><time>2026-04-04T10:19:23Z</time></trkpt><trkpt lat="45.02824019518113" lon="7.853307043202812"><ele>287.0</ele><time>2026-04-04T10:19:24Z</time></trkpt><trkpt lat="45.02833218136731" lon="7.853473667266572"><ele>287.0</ele><time>2026-04-04T10:19:25Z</time></trkpt><trkpt lat="45.02842057975657" lon="7.8536395623201125"><ele>287.0</ele><time>2026-04-04T10:19:26Z</time></trkpt><trkpt lat="45.02851100283594" lon="7.853808819471395"><ele>287.0</ele><time>2026-04-04T10:19:27Z</time></trkpt><trkpt lat="45.0286078314874" lon="7.853982061233999"><ele>287.0</ele><time>2026-04-04T10:19:28Z</time></trkpt><trkpt lat="45.02870560110167" lon="7.85416156820115"><ele>287.0</ele><time>2026-04-04T10:19:29Z</time></trkpt><trkpt lat="45.028805713309765" lon="7.854349551103978"><ele>287.0</ele><time>2026-04-04T10:19:30Z</time></trkpt><trkpt lat="45.02891160528527" lon="7.854543131306669"><ele>285.6666666666667</ele><time>2026-04-04T10:19:31Z</time></trkpt><trkpt lat="45.0290190568606" lon="7.854738836154034"><ele>284.3333333333333</ele><time>2026-04-04T10:19:32Z</time></trkpt><trkpt lat="45.02912928014706" lon="7.854935017452461"><ele>283.0</ele><time>2026-04-04T10:19:33Z</time></trkpt><trkpt lat="45.02924153031633" lon="7.855135026840646"><ele>283.0</ele><time>2026-04-04T10:19:34Z</time></trkpt><trkpt lat="45.02935284607762" lon="7.855338827691627"><ele>283.0</ele><time>2026-04-04T10:19:35Z</time></trkpt><trkpt lat="45.02945593041583" lon="7.855532078978554"><ele>283.0</ele><time>2026-04-04T10:19:36Z</time></trkpt><trkpt lat="45.02955905925185" lon="7.855719775925077"><ele>283.0</ele><time>2026-04-04T10:19:37Z</time></trkpt><trkpt lat="45.02965616894696" lon="7.855902975937972"><ele>283.0</ele><time>2026-04-04T10:19:38Z</time></trkpt><trkpt lat="45.029743706818024" lon="7.856071352942557"><ele>283.0</ele><time>2026-04-04T10:19:39Z</time></trkpt><trkpt lat="45.02982562073737" lon="7.856215975748716"><ele>283.0</ele><time>2026-04-04T10:19:40Z</time></trkpt><trkpt lat="45.02991315354795" lon="7.856350330321547"><ele>282.75</ele><time>2026-04-04T10:19:41Z</time></trkpt><trkpt lat="45.030004068146276" lon="7.856483864549506"><ele>282.5</ele><time>2026-04-04T10:19:42Z</time></trkpt><trkpt lat="45.030078907988475" lon="7.85661677312928"><ele>282.25</ele><time>2026-04-04T10:19:43Z</time></trkpt><trkpt lat="45.03015605368894" lon="7.8567476651579335"><ele>282.0</ele><time>2026-04-04T10:19:44Z</time></trkpt><trkpt lat="45.03017979583909" lon="7.856932744973626"><ele>282.0</ele><time>2026-04-04T10:19:45Z</time></trkpt><trkpt lat="45.03021947018469" lon="7.857077714537254"><ele>282.0</ele><time>2026-04-04T10:19:46Z</time></trkpt><trkpt lat="45.03029011832908" lon="7.857189507774838"><ele>282.0</ele><time>2026-04-04T10:19:47Z</time></trkpt><trkpt lat="45.03037933002892" lon="7.857279556912929"><ele>282.0</ele><time>2026-04-04T10:19:48Z</time></trkpt><trkpt lat="45.03046274553923" lon="7.857384388894905"><ele>282.0</ele><time>2026-04-04T10:19:49Z</time></trkpt><trkpt lat="45.03053881502175" lon="7.857513213861004"><ele>282.0</ele><time>2026-04-04T10:19:50Z</time></trkpt><trkpt lat="45.03062111695207" lon="7.857662639437019"><ele>282.0</ele><time>2026-04-04T10:19:51Z</time></trkpt><trkpt lat="45.030718395090624" lon="7.857841399350108"><ele>282.0</ele><time>2026-04-04T10:19:52Z</time></trkpt><trkpt lat="45.03082708511505" lon="7.85804854714133"><ele>281.6666666666667</ele><time>2026-04-04T10:19:53Z</time></trkpt><trkpt lat="45.0309528023453" lon="7.858278917663301"><ele>281.33333333333337</ele><time>2026-04-04T10:19:54Z</time></trkpt><trkpt lat="45.0310858344003" lon="7.8585185124295505"><ele>281.0</ele><time>2026-04-04T10:19:55Z</time></trkpt><trkpt lat="45.03121673073361" lon="7.858770324529783"><ele>281.0</ele><time>2026-04-04T10:19:56Z</time></trkpt><trkpt lat="45.031342490125546" lon="7.859038596633904"><ele>281.0</ele><time>2026-04-04T10:19:57Z</time></trkpt><trkpt lat="45.03147748454563" lon="7.859298165263662"><ele>280.6666666666667</ele><time>2026-04-04T10:19:58Z</time></trkpt><trkpt lat="45.03161623412465" lon="7.859549992696588"><ele>280.3333333333333</ele><time>2026-04-04T10:19:59Z</time></trkpt><trkpt lat="45.03175145202541" lon="7.859800253948966"><ele>280.0</ele><time>2026-04-04T10:20:00Z</time></trkpt><trkpt lat="45.03188291704591" lon="7.860053234654263"><ele>279.66666666666663</ele><time>2026-04-04T10:20:01Z</time></trkpt><trkpt lat="45.03201414882775" lon="7.860299980165685"><ele>279.3333333333333</ele><time>2026-04-04T10:20:02Z</time></trkpt><trkpt lat="45.0321422797716" lon="7.860541611458199"><ele>279.0</ele><time>2026-04-04T10:20:03Z</time></trkpt><trkpt lat="45.03227051935977" lon="7.860776118641541"><ele>279.0</ele><time>2026-04-04T10:20:04Z</time></trkpt><trkpt lat="45.03239691254554" lon="7.861007611488587"><ele>279.0</ele><time>2026-04-04T10:20:05Z</time></trkpt><trkpt lat="45.03251563624208" lon="7.8612327415939935"><ele>279.0</ele><time>2026-04-04T10:20:06Z</time></trkpt><trkpt lat="45.032633918656764" lon="7.861454675904557"><ele>279.0</ele><time>2026-04-04T10:20:07Z</time></trkpt><trkpt lat="45.03274961820705" lon="7.861671462042412"><ele>279.0</ele><time>2026-04-04T10:20:08Z</time></trkpt><trkpt lat="45.0328603824825" lon="7.861875713852677"><ele>279.0</ele><time>2026-04-04T10:20:09Z</time></trkpt><trkpt lat="45.03296630555328" lon="7.862076668519771"><ele>279.0</ele><time>2026-04-04T10:20:10Z</time></trkpt><trkpt lat="45.03307136671975" lon="7.8622759010888466"><ele>279.0</ele><time>2026-04-04T10:20:11Z</time></trkpt><trkpt lat="45.033177642102885" lon="7.862473429851651"><ele>279.0</ele><time>2026-04-04T10:20:12Z</time></trkpt><trkpt lat="45.03328154322936" lon="7.862665617013278"><ele>278.6666666666667</ele><time>2026-04-04T10:20:13Z</time></trkpt><trkpt lat="45.03338656105339" lon="7.862865352252364"><ele>278.33333333333337</ele><time>2026-04-04T10:20:14Z</time></trkpt><trkpt lat="45.03348801640666" lon="7.863058924015587"><ele>278.0</ele><time>2026-04-04T10:20:15Z</time></trkpt><trkpt lat="45.03359442268463" lon="7.8632539734167874"><ele>278.0</ele><time>2026-04-04T10:20:16Z</time></trkpt><trkpt lat="45.03369894271041" lon="7.863444747399567"><ele>278.0</ele><time>2026-04-04T10:20:17Z</time></trkpt><trkpt lat="45.033802041270114" lon="7.86363730572977"><ele>278.0</ele><time>2026-04-04T10:20:18Z</time></trkpt><trkpt lat="45.03390420351471" lon="7.863830596546987"><ele>278.0</ele><time>2026-04-04T10:20:19Z</time></trkpt><trkpt lat="45.03399918622109" lon="7.864014908623978"><ele>278.0</ele><time>2026-04-04T10:20:20Z</time></trkpt><trkpt lat="45.034089672206235" lon="7.8641875452550645"><ele>278.0</ele><time>2026-04-04T10:20:21Z</time></trkpt><trkpt lat="45.03417335051264" lon="7.864348975692839"><ele>278.0</ele><time>2026-04-04T10:20:22Z</time></trkpt><trkpt lat="45.03424493976354" lon="7.864491740133108"><ele>278.0</ele><time>2026-04-04T10:20:23Z</time></trkpt><trkpt lat="45.0343143857187" lon="7.864628080315054"><ele>278.0</ele><time>2026-04-04T10:20:24Z</time></trkpt><trkpt lat="45.034388610316" lon="7.864764226720692"><ele>278.0</ele><time>2026-04-04T10:20:25Z</time></trkpt><trkpt lat="45.03446926201436" lon="7.8649103628881765"><ele>278.0</ele><time>2026-04-04T10:20:26Z</time></trkpt><trkpt lat="45.03455324258483" lon="7.865063835230636"><ele>278.0</ele><time>2026-04-04T10:20:27Z</time></trkpt><trkpt lat="45.0346413224205" lon="7.865216368860484"><ele>278.0</ele><time>2026-04-04T10:20:28Z</time></trkpt><trkpt lat="45.03473357552179" lon="7.865377933824222"><ele>278.0</ele><time>2026-04-04T10:20:29Z</time></trkpt><trkpt lat="45.03482576653416" lon="7.865550062042668"><ele>278.0</ele><time>2026-04-04T10:20:30Z</time></trkpt><trkpt lat="45.03491962756316" lon="7.865719542892815"><ele>278.0</ele><time>2026-04-04T10:20:31Z</time></trkpt><trkpt lat="45.03501321513087" lon="7.865890761209666"><ele>278.0</ele><time>2026-04-04T10:20:32Z</time></trkpt><trkpt lat="45.03511008499653" lon="7.866067847785723"><ele>278.33333333333337</ele><time>2026-04-04T10:20:33Z</time></trkpt><trkpt lat="45.03520351327254" lon="7.866248295765504"><ele>278.6666666666667</ele><time>2026-04-04T10:20:34Z</time></trkpt><trkpt lat="45.03528620457843" lon="7.8664406463950876"><ele>279.0</ele><time>2026-04-04T10:20:35Z</time></trkpt><trkpt lat="45.035351548434804" lon="7.8666322262490995"><ele>279.0</ele><time>2026-04-04T10:20:36Z</time></trkpt><trkpt lat="45.03538595167252" lon="7.866845366268521"><ele>279.0</ele><time>2026-04-04T10:20:37Z</time></trkpt><trkpt lat="45.03540211773657" lon="7.867052604294122"><ele>279.0</ele><time>2026-04-04T10:20:38Z</time></trkpt><trkpt lat="45.03540211889598" lon="7.867243142618952"><ele>279.0</ele><time>2026-04-04T10:20:39Z</time></trkpt><trkpt lat="45.03540297597675" lon="7.867409296616438"><ele>279.0</ele><time>2026-04-04T10:20:40Z</time></trkpt><trkpt lat="45.035409827005914" lon="7.867552877849239"><ele>279.0</ele><time>2026-04-04T10:20:41Z</time></trkpt><trkpt lat="45.03542527376257" lon="7.867682151240511"><ele>279.0</ele><time>2026-04-04T10:20:42Z</time></trkpt><trkpt lat="45.035444809193585" lon="7.8677830391481915"><ele>279.0</ele><time>2026-04-04T10:20:43Z</time></trkpt><trkpt lat="45.03546309853734" lon="7.86786862872796"><ele>279.0</ele><time>2026-04-04T10:20:44Z</time></trkpt><trkpt lat="45.03548185926261" lon="7.867956445627846"><ele>279.0</ele><time>2026-04-04T10:20:45Z</time></trkpt><trkpt lat="45.03550395638" lon="7.868043742807488"><ele>279.0</ele><time>2026-04-04T10:20:46Z</time></trkpt><trkpt lat="45.03552572827322" lon="7.868129440524885"><ele>279.0</ele><time>2026-04-04T10:20:47Z</time></trkpt><trkpt lat="45.035553624513454" lon="7.8682114757691055"><ele>279.0</ele><time>2026-04-04T10:20:48Z</time></trkpt><trkpt lat="45.03560798785021" lon="7.868369659330289"><ele>279.0</ele><time>2026-04-04T10:20:50Z</time></trkpt><trkpt lat="45.03564084098523" lon="7.868457952454841"><ele>279.0</ele><time>2026-04-04T10:20:51Z</time></trkpt><trkpt lat="45.03567583177496" lon="7.8685487645852366"><ele>279.0</ele><time>2026-04-04T10:20:52Z</time></trkpt><trkpt lat="45.035712640763556" lon="7.868641808558926"><ele>279.0</ele><time>2026-04-04T10:20:53Z</time></trkpt><trkpt lat="45.03574884445627" lon="7.868737001829102"><ele>279.0</ele><time>2026-04-04T10:20:54Z</time></trkpt><trkpt lat="45.03578668419286" lon="7.868832407548827"><ele>279.0</ele><time>2026-04-04T10:20:55Z</time></trkpt><trkpt lat="45.03582563805699" lon="7.868930967582151"><ele>279.0</ele><time>2026-04-04T10:20:56Z</time></trkpt><trkpt lat="45.0358593451706" lon="7.869023459879549"><ele>279.0</ele><time>2026-04-04T10:20:57Z</time></trkpt><trkpt lat="45.03589595917936" lon="7.86911502554949"><ele>279.0</ele><time>2026-04-04T10:20:58Z</time></trkpt><trkpt lat="45.035937291777906" lon="7.869213822553669"><ele>278.8333333333333</ele><time>2026-04-04T10:20:59Z</time></trkpt><trkpt lat="45.03597894739606" lon="7.869314767927978"><ele>278.6666666666667</ele><time>2026-04-04T10:21:00Z</time></trkpt><trkpt lat="45.036019897728345" lon="7.869421459349305"><ele>278.5</ele><time>2026-04-04T10:21:01Z</time></trkpt><trkpt lat="45.036058522862135" lon="7.869529305742671"><ele>278.33333333333337</ele><time>2026-04-04T10:21:02Z</time></trkpt><trkpt lat="45.036100849304425" lon="7.869636592895624"><ele>278.1666666666667</ele><time>2026-04-04T10:21:03Z</time></trkpt><trkpt lat="45.036145113367645" lon="7.86973997632969"><ele>278.0</ele><time>2026-04-04T10:21:04Z</time></trkpt><trkpt lat="45.03619268840716" lon="7.869844047083951"><ele>278.0</ele><time>2026-04-04T10:21:05Z</time></trkpt><trkpt lat="45.036241460128096" lon="7.869945380531513"><ele>278.0</ele><time>2026-04-04T10:21:06Z</time></trkpt><trkpt lat="45.03629253580698" lon="7.870042897218703"><ele>278.0</ele><time>2026-04-04T10:21:07Z</time></trkpt><trkpt lat="45.03634471907448" lon="7.870139027484841"><ele>278.0</ele><time>2026-04-04T10:21:08Z</time></trkpt><trkpt lat="45.03639962514457" lon="7.870242444652679"><ele>278.0</ele><time>2026-04-04T10:21:09Z</time></trkpt><trkpt lat="45.03645156294381" lon="7.870353687892463"><ele>278.0</ele><time>2026-04-04T10:21:10Z</time></trkpt><trkpt lat="45.036495617074266" lon="7.870468229435631"><ele>278.8</ele><time>2026-04-04T10:21:11Z</time></trkpt><trkpt lat="45.03653319072146" lon="7.870578593603575"><ele>279.6</ele><time>2026-04-04T10:21:12Z</time></trkpt><trkpt lat="45.03656665778832" lon="7.870677687546945"><ele>280.4</ele><time>2026-04-04T10:21:13Z</time></trkpt><trkpt lat="45.03659402914657" lon="7.870770164734042"><ele>281.2</ele><time>2026-04-04T10:21:14Z</time></trkpt><trkpt lat="45.03663620655533" lon="7.8709267784323815"><ele>282.0</ele><time>2026-04-04T10:21:16Z</time></trkpt><trkpt lat="45.03668110416435" lon="7.871102455912098"><ele>282.8</ele><time>2026-04-04T10:21:18Z</time></trkpt><trkpt lat="45.03671081274809" lon="7.871202748177015"><ele>283.6</ele><time>2026-04-04T10:21:19Z</time></trkpt><trkpt lat="45.03674518792779" lon="7.8713069658696835"><ele>284.40000000000003</ele><time>2026-04-04T10:21:20Z</time></trkpt><trkpt lat="45.036779654771934" lon="7.871425791425318"><ele>285.2</ele><time>2026-04-04T10:21:21Z</time></trkpt><trkpt lat="45.03681064886156" lon="7.871559421550527"><ele>286.0</ele><time>2026-04-04T10:21:22Z</time></trkpt><trkpt lat="45.03684313785738" lon="7.871698722009411"><ele>287.75</ele><time>2026-04-04T10:21:23Z</time></trkpt><trkpt lat="45.036877954653086" lon="7.871846181874151"><ele>289.5</ele><time>2026-04-04T10:21:24Z</time></trkpt><trkpt lat="45.03691468347157" lon="7.8720033303556916"><ele>291.25</ele><time>2026-04-04T10:21:25Z</time></trkpt><trkpt lat="45.036962453334986" lon="7.872155821849009"><ele>293.0</ele><time>2026-04-04T10:21:26Z</time></trkpt><trkpt lat="45.03700491742461" lon="7.872315797020845"><ele>293.0</ele><time>2026-04-04T10:21:27Z</time></trkpt><trkpt lat="45.037049415395096" lon="7.872484725319024"><ele>293.0</ele><time>2026-04-04T10:21:28Z</time></trkpt><trkpt lat="45.03708978153299" lon="7.8726644573497815"><ele>293.0</ele><time>2026-04-04T10:21:29Z</time></trkpt><trkpt lat="45.03712771160671" lon="7.872836416068569"><ele>293.0</ele><time>2026-04-04T10:21:30Z</time></trkpt><trkpt lat="45.03715841090491" lon="7.873006829572793"><ele>292.8</ele><time>2026-04-04T10:21:31Z</time></trkpt><trkpt lat="45.03717273652023" lon="7.873169619383931"><ele>292.6</ele><time>2026-04-04T10:21:32Z</time></trkpt><trkpt lat="45.03716902374522" lon="7.873322087473272"><ele>292.4</ele><time>2026-04-04T10:21:33Z</time></trkpt><trkpt lat="45.03714599339389" lon="7.873449860123538"><ele>292.2</ele><time>2026-04-04T10:21:34Z</time></trkpt><trkpt lat="45.037112442258255" lon="7.873568693162625"><ele>292.0</ele><time>2026-04-04T10:21:35Z</time></trkpt><trkpt lat="45.037072917928455" lon="7.873682208113758"><ele>291.0</ele><time>2026-04-04T10:21:36Z</time></trkpt><trkpt lat="45.03705134577388" lon="7.873804796158331"><ele>290.0</ele><time>2026-04-04T10:21:37Z</time></trkpt><trkpt lat="45.03702911220912" lon="7.873951320520257"><ele>289.0</ele><time>2026-04-04T10:21:38Z</time></trkpt><trkpt lat="45.03694614726951" lon="7.87406203330846"><ele>288.0</ele><time>2026-04-04T10:21:39Z</time></trkpt><trkpt lat="45.0368629352266" lon="7.874201087683717"><ele>287.0</ele><time>2026-04-04T10:21:40Z</time></trkpt><trkpt lat="45.03677174981952" lon="7.8743470316191235"><ele>286.0</ele><time>2026-04-04T10:21:41Z</time></trkpt><trkpt lat="45.03667446374941" lon="7.874501483102225"><ele>285.0</ele><time>2026-04-04T10:21:42Z</time></trkpt><trkpt lat="45.03656992367326" lon="7.8746673375206075"><ele>284.0</ele><time>2026-04-04T10:21:43Z</time></trkpt><trkpt lat="45.036470294247515" lon="7.874825361051439"><ele>283.75</ele><time>2026-04-04T10:21:44Z</time></trkpt><trkpt lat="45.03637232347435" lon="7.874980753755102"><ele>283.5</ele><time>2026-04-04T10:21:45Z</time></trkpt><trkpt lat="45.036276638944585" lon="7.8751325202981945"><ele>283.25</ele><time>2026-04-04T10:21:46Z</time></trkpt><trkpt lat="45.03618290254091" lon="7.87528119690495"><ele>283.0</ele><time>2026-04-04T10:21:47Z</time></trkpt><trkpt lat="45.03608893252657" lon="7.875430243956754"><ele>282.5</ele><time>2026-04-04T10:21:48Z</time></trkpt><trkpt lat="45.035995588564695" lon="7.875578298079178"><ele>282.0</ele><time>2026-04-04T10:21:49Z</time></trkpt><trkpt lat="45.03592468867862" lon="7.875751832104067"><ele>281.5</ele><time>2026-04-04T10:21:50Z</time></trkpt><trkpt lat="45.03583270448611" lon="7.875900400596323"><ele>281.0</ele><time>2026-04-04T10:21:51Z</time></trkpt><trkpt lat="45.03573639877972" lon="7.876056493473272"><ele>280.75</ele><time>2026-04-04T10:21:52Z</time></trkpt><trkpt lat="45.035638873024574" lon="7.876211194815025"><ele>280.5</ele><time>2026-04-04T10:21:53Z</time></trkpt><trkpt lat="45.0355242753769" lon="7.87632677473612"><ele>280.25</ele><time>2026-04-04T10:21:54Z</time></trkpt><trkpt lat="45.03543621628712" lon="7.876466945881769"><ele>280.0</ele><time>2026-04-04T10:21:55Z</time></trkpt><trkpt lat="45.03534972139823" lon="7.876605829794012"><ele>280.0</ele><time>2026-04-04T10:21:56Z</time></trkpt><trkpt lat="45.03526470048207" lon="7.876742347040881"><ele>280.0</ele><time>2026-04-04T10:21:57Z</time></trkpt><trkpt lat="45.035176666408596" lon="7.876883701185559"><ele>280.0</ele><time>2026-04-04T10:21:58Z</time></trkpt><trkpt lat="45.03508301970706" lon="7.877033516543639"><ele>280.0</ele><time>2026-04-04T10:21:59Z</time></trkpt><trkpt lat="45.03498753143742" lon="7.877186366320406"><ele>279.5</ele><time>2026-04-04T10:22:00Z</time></trkpt><trkpt lat="45.0348907637128" lon="7.877340532426681"><ele>279.0</ele><time>2026-04-04T10:22:01Z</time></trkpt><trkpt lat="45.034791667810225" lon="7.877497930673408"><ele>278.5</ele><time>2026-04-04T10:22:02Z</time></trkpt><trkpt lat="45.034693956042425" lon="7.877653662466919"><ele>278.0</ele><time>2026-04-04T10:22:03Z</time></trkpt><trkpt lat="45.034598469253936" lon="7.877804345324881"><ele>278.0</ele><time>2026-04-04T10:22:04Z</time></trkpt><trkpt lat="45.0345035058302" lon="7.877954200650089"><ele>278.0</ele><time>2026-04-04T10:22:05Z</time></trkpt><trkpt lat="45.03440957504346" lon="7.878103274081643"><ele>278.0</ele><time>2026-04-04T10:22:06Z</time></trkpt><trkpt lat="45.03431599285725" lon="7.878250075704626"><ele>278.0</ele><time>2026-04-04T10:22:07Z</time></trkpt><trkpt lat="45.034224093191874" lon="7.878395506731901"><ele>277.5</ele><time>2026-04-04T10:22:08Z</time></trkpt><trkpt lat="45.03413677292182" lon="7.878543678632461"><ele>277.0</ele><time>2026-04-04T10:22:09Z</time></trkpt><trkpt lat="45.03405374856671" lon="7.8787032104682355"><ele>276.5</ele><time>2026-04-04T10:22:10Z</time></trkpt><trkpt lat="45.034006546236" lon="7.878895151846217"><ele>276.0</ele><time>2026-04-04T10:22:11Z</time></trkpt><trkpt lat="45.03394372665319" lon="7.879082775205712"><ele>276.3333333333333</ele><time>2026-04-04T10:22:12Z</time></trkpt><trkpt lat="45.03390452326376" lon="7.879304658232588"><ele>276.66666666666663</ele><time>2026-04-04T10:22:13Z</time></trkpt><trkpt lat="45.03386814721392" lon="7.879547234914894"><ele>277.0</ele><time>2026-04-04T10:22:14Z</time></trkpt><trkpt lat="45.03383561454625" lon="7.8798007300306425"><ele>277.0</ele><time>2026-04-04T10:22:15Z</time></trkpt><trkpt lat="45.03379804275951" lon="7.880068909130706"><ele>277.0</ele><time>2026-04-04T10:22:16Z</time></trkpt><trkpt lat="45.03375541732306" lon="7.880378460393999"><ele>277.0</ele><time>2026-04-04T10:22:17Z</time></trkpt><trkpt lat="45.03370768232731" lon="7.880721410699595"><ele>278.0</ele><time>2026-04-04T10:22:18Z</time></trkpt><trkpt lat="45.033657319523684" lon="7.881084080689323"><ele>279.0</ele><time>2026-04-04T10:22:19Z</time></trkpt><trkpt lat="45.03360793255179" lon="7.881446839376525"><ele>277.5</ele><time>2026-04-04T10:22:20Z</time></trkpt><trkpt lat="45.03356069095806" lon="7.881792613384944"><ele>276.0</ele><time>2026-04-04T10:22:21Z</time></trkpt><trkpt lat="45.0335145682095" lon="7.882130198009476"><ele>276.0</ele><time>2026-04-04T10:22:22Z</time></trkpt><trkpt lat="45.03347015598077" lon="7.882455263103187"><ele>276.0</ele><time>2026-04-04T10:22:23Z</time></trkpt><trkpt lat="45.033428424768545" lon="7.882760704991474"><ele>276.3333333333333</ele><time>2026-04-04T10:22:24Z</time></trkpt><trkpt lat="45.033389273761784" lon="7.883047262003057"><ele>276.66666666666663</ele><time>2026-04-04T10:22:25Z</time></trkpt><trkpt lat="45.033352740654855" lon="7.883322241924927"><ele>277.0</ele><time>2026-04-04T10:22:26Z</time></trkpt><trkpt lat="45.03332064017245" lon="7.883593426647842"><ele>277.0</ele><time>2026-04-04T10:22:27Z</time></trkpt><trkpt lat="45.033306555152244" lon="7.883866565509187"><ele>277.0</ele><time>2026-04-04T10:22:28Z</time></trkpt><trkpt lat="45.03330562292315" lon="7.884137918599857"><ele>277.0</ele><time>2026-04-04T10:22:29Z</time></trkpt><trkpt lat="45.03331589850805" lon="7.884415166376697"><ele>277.0</ele><time>2026-04-04T10:22:30Z</time></trkpt><trkpt lat="45.03333652560659" lon="7.8846933440578715"><ele>277.0</ele><time>2026-04-04T10:22:31Z</time></trkpt><trkpt lat="45.033364765916005" lon="7.884977383139033"><ele>277.0</ele><time>2026-04-04T10:22:32Z</time></trkpt><trkpt lat="45.03340279947185" lon="7.885256820607886"><ele>277.0</ele><time>2026-04-04T10:22:33Z</time></trkpt><trkpt lat="45.03346816995237" lon="7.885527117226954"><ele>277.0</ele><time>2026-04-04T10:22:34Z</time></trkpt><trkpt lat="45.03352882118562" lon="7.8857942791454825"><ele>277.0</ele><time>2026-04-04T10:22:35Z</time></trkpt><trkpt lat="45.03360366460861" lon="7.886051989074534"><ele>276.3333333333333</ele><time>2026-04-04T10:22:36Z</time></trkpt><trkpt lat="45.03368479729946" lon="7.886305295170627"><ele>275.6666666666667</ele><time>2026-04-04T10:22:37Z</time></trkpt><trkpt lat="45.0337699712409" lon="7.886560939550756"><ele>275.0</ele><time>2026-04-04T10:22:38Z</time></trkpt><trkpt lat="45.03386075135192" lon="7.886815574382512"><ele>275.0</ele><time>2026-04-04T10:22:39Z</time></trkpt><trkpt lat="45.033955226325276" lon="7.887074362618187"><ele>275.0</ele><time>2026-04-04T10:22:40Z</time></trkpt><trkpt lat="45.03404932456688" lon="7.887337744688992"><ele>275.0</ele><time>2026-04-04T10:22:41Z</time></trkpt><trkpt lat="45.03414435998006" lon="7.887600879282298"><ele>275.0</ele><time>2026-04-04T10:22:42Z</time></trkpt><trkpt lat="45.03424012339828" lon="7.887866003780408"><ele>275.0</ele><time>2026-04-04T10:22:43Z</time></trkpt><trkpt lat="45.03433618584726" lon="7.888133938111685"><ele>275.0</ele><time>2026-04-04T10:22:44Z</time></trkpt><trkpt lat="45.03443026422522" lon="7.888403427897054"><ele>275.6666666666667</ele><time>2026-04-04T10:22:45Z</time></trkpt><trkpt lat="45.034527473065125" lon="7.888672171768246"><ele>276.3333333333333</ele><time>2026-04-04T10:22:46Z</time></trkpt><trkpt lat="45.03462487260118" lon="7.888942349938094"><ele>277.0</ele><time>2026-04-04T10:22:47Z</time></trkpt><trkpt lat="45.034721138942565" lon="7.889215731110429"><ele>276.66666666666663</ele><time>2026-04-04T10:22:48Z</time></trkpt><trkpt lat="45.034815918319374" lon="7.889487814087901"><ele>276.3333333333333</ele><time>2026-04-04T10:22:49Z</time></trkpt><trkpt lat="45.03491345796395" lon="7.889761036042768"><ele>276.0</ele><time>2026-04-04T10:22:50Z</time></trkpt><trkpt lat="45.03501107887204" lon="7.890033308548149"><ele>275.3333333333333</ele><time>2026-04-04T10:22:51Z</time></trkpt><trkpt lat="45.03510726656402" lon="7.8903045439910064"><ele>274.66666666666663</ele><time>2026-04-04T10:22:52Z</time></trkpt><trkpt lat="45.03520350175296" lon="7.890572150678696"><ele>274.0</ele><time>2026-04-04T10:22:53Z</time></trkpt><trkpt lat="45.03529822478341" lon="7.890843656908489"><ele>275.0</ele><time>2026-04-04T10:22:54Z</time></trkpt><trkpt lat="45.03539330417914" lon="7.891109799924766"><ele>276.0</ele><time>2026-04-04T10:22:55Z</time></trkpt><trkpt lat="45.03548861694519" lon="7.891375817239047"><ele>277.0</ele><time>2026-04-04T10:22:56Z</time></trkpt><trkpt lat="45.03558278226642" lon="7.8916418273889155"><ele>277.0</ele><time>2026-04-04T10:22:57Z</time></trkpt><trkpt lat="45.035677154372564" lon="7.891906662426599"><ele>277.0</ele><time>2026-04-04T10:22:58Z</time></trkpt><trkpt lat="45.03577034249638" lon="7.892168336801807"><ele>277.0</ele><time>2026-04-04T10:22:59Z</time></trkpt><trkpt lat="45.03586428180082" lon="7.892427512259532"><ele>277.3333333333333</ele><time>2026-04-04T10:23:00Z</time></trkpt><trkpt lat="45.03595620076447" lon="7.8926905109027565"><ele>277.6666666666667</ele><time>2026-04-04T10:23:01Z</time></trkpt><trkpt lat="45.03604868167384" lon="7.8929546641552815"><ele>278.0</ele><time>2026-04-04T10:23:02Z</time></trkpt><trkpt lat="45.03614218987974" lon="7.8932169667189935"><ele>279.33333333333337</ele><time>2026-04-04T10:23:03Z</time></trkpt><trkpt lat="45.036238107331435" lon="7.893484814933998"><ele>280.6666666666667</ele><time>2026-04-04T10:23:04Z</time></trkpt><trkpt lat="45.03633231396574" lon="7.893749493992891"><ele>282.0</ele><time>2026-04-04T10:23:05Z</time></trkpt><trkpt lat="45.036425401491144" lon="7.89400747954751"><ele>282.3333333333333</ele><time>2026-04-04T10:23:06Z</time></trkpt><trkpt lat="45.036515690864" lon="7.894265021967841"><ele>282.66666666666663</ele><time>2026-04-04T10:23:07Z</time></trkpt><trkpt lat="45.03660469392903" lon="7.894519032441306"><ele>283.0</ele><time>2026-04-04T10:23:08Z</time></trkpt><trkpt lat="45.036691275972586" lon="7.894766038926846"><ele>283.0</ele><time>2026-04-04T10:23:09Z</time></trkpt><trkpt lat="45.03677515953305" lon="7.895001199394453"><ele>283.0</ele><time>2026-04-04T10:23:10Z</time></trkpt><trkpt lat="45.03685968292765" lon="7.8952365899417325"><ele>283.0</ele><time>2026-04-04T10:23:11Z</time></trkpt><trkpt lat="45.03694255721134" lon="7.8954693437049945"><ele>284.3333333333333</ele><time>2026-04-04T10:23:12Z</time></trkpt><trkpt lat="45.03702357073862" lon="7.895699106031386"><ele>285.6666666666667</ele><time>2026-04-04T10:23:13Z</time></trkpt><trkpt lat="45.03710300604369" lon="7.895925875091181"><ele>287.0</ele><time>2026-04-04T10:23:14Z</time></trkpt><trkpt lat="45.03718270450575" lon="7.896148602522061"><ele>287.33333333333337</ele><time>2026-04-04T10:23:15Z</time></trkpt><trkpt lat="45.037265179818846" lon="7.896373465015981"><ele>287.6666666666667</ele><time>2026-04-04T10:23:16Z</time></trkpt><trkpt lat="45.037344687143744" lon="7.896597321535413"><ele>288.0</ele><time>2026-04-04T10:23:17Z</time></trkpt><trkpt lat="45.03742137199037" lon="7.8968137678762504"><ele>287.3333333333333</ele><time>2026-04-04T10:23:18Z</time></trkpt><trkpt lat="45.037496495866506" lon="7.897022703206729"><ele>286.66666666666663</ele><time>2026-04-04T10:23:19Z</time></trkpt><trkpt lat="45.037566686179495" lon="7.897223490200195"><ele>286.0</ele><time>2026-04-04T10:23:20Z</time></trkpt><trkpt lat="45.03762518538592" lon="7.89741108352571"><ele>287.5</ele><time>2026-04-04T10:23:21Z</time></trkpt><trkpt lat="45.03767121591087" lon="7.897596158111204"><ele>289.0</ele><time>2026-04-04T10:23:22Z</time></trkpt><trkpt lat="45.03769272001225" lon="7.897790511587382"><ele>290.5</ele><time>2026-04-04T10:23:23Z</time></trkpt><trkpt lat="45.037696489334024" lon="7.8979893025999095"><ele>292.0</ele><time>2026-04-04T10:23:24Z</time></trkpt><trkpt lat="45.03768621426468" lon="7.898192841749575"><ele>292.0</ele><time>2026-04-04T10:23:25Z</time></trkpt><trkpt lat="45.037680192617984" lon="7.89839739140644"><ele>292.0</ele><time>2026-04-04T10:23:26Z</time></trkpt><trkpt lat="45.03767877966109" lon="7.89860370181815"><ele>292.0</ele><time>2026-04-04T10:23:27Z</time></trkpt><trkpt lat="45.0376766397553" lon="7.898813828044803"><ele>292.0</ele><time>2026-04-04T10:23:28Z</time></trkpt><trkpt lat="45.037673567795444" lon="7.8990177210151105"><ele>293.0</ele><time>2026-04-04T10:23:29Z</time></trkpt><trkpt lat="45.037666761158555" lon="7.899223674380559"><ele>294.0</ele><time>2026-04-04T10:23:30Z</time></trkpt><trkpt lat="45.03766231878921" lon="7.8994246032076525"><ele>295.0</ele><time>2026-04-04T10:23:31Z</time></trkpt><trkpt lat="45.03766109462463" lon="7.899622594771178"><ele>296.0</ele><time>2026-04-04T10:23:32Z</time></trkpt><trkpt lat="45.03766600331918" lon="7.899822868249861"><ele>296.5</ele><time>2026-04-04T10:23:33Z</time></trkpt><trkpt lat="45.037671070157934" lon="7.900017601055786"><ele>297.0</ele><time>2026-04-04T10:23:34Z</time></trkpt><trkpt lat="45.037681434848665" lon="7.9002010698684835"><ele>297.5</ele><time>2026-04-04T10:23:35Z</time></trkpt><trkpt lat="45.037696287673995" lon="7.900379177515138"><ele>298.0</ele><time>2026-04-04T10:23:36Z</time></trkpt><trkpt lat="45.0377134286821" lon="7.900554133647659"><ele>298.0</ele><time>2026-04-04T10:23:37Z</time></trkpt><trkpt lat="45.03773054559306" lon="7.900722019631735"><ele>298.0</ele><time>2026-04-04T10:23:38Z</time></trkpt><trkpt lat="45.03774577570518" lon="7.900885011458856"><ele>298.0</ele><time>2026-04-04T10:23:39Z</time></trkpt><trkpt lat="45.03775897252905" lon="7.901039020005627"><ele>298.0</ele><time>2026-04-04T10:23:40Z</time></trkpt><trkpt lat="45.03776848014513" lon="7.901175434041097"><ele>298.0</ele><time>2026-04-04T10:23:41Z</time></trkpt><trkpt lat="45.03777850059579" lon="7.901294992293484"><ele>297.42857142857144</ele><time>2026-04-04T10:23:42Z</time></trkpt><trkpt lat="45.03778708824592" lon="7.901402901910464"><ele>296.85714285714283</ele><time>2026-04-04T10:23:43Z</time></trkpt><trkpt lat="45.03779818684231" lon="7.901500035525782"><ele>296.2857142857143</ele><time>2026-04-04T10:23:44Z</time></trkpt><trkpt lat="45.037801095882536" lon="7.901596921400172"><ele>295.7142857142857</ele><time>2026-04-04T10:23:45Z</time></trkpt><trkpt lat="45.03779034563665" lon="7.9016909831982245"><ele>295.1428571428571</ele><time>2026-04-04T10:23:46Z</time></trkpt><trkpt lat="45.03775932598151" lon="7.901788772217398"><ele>294.57142857142856</ele><time>2026-04-04T10:23:47Z</time></trkpt><trkpt lat="45.03774510400116" lon="7.901895007386471"><ele>294.0</ele><time>2026-04-04T10:23:48Z</time></trkpt><trkpt lat="45.037763828669206" lon="7.902001785874888"><ele>294.0</ele><time>2026-04-04T10:23:49Z</time></trkpt><trkpt lat="45.0378070769027" lon="7.902094546762502"><ele>294.0</ele><time>2026-04-04T10:23:50Z</time></trkpt><trkpt lat="45.03784615189077" lon="7.9022004110841175"><ele>294.0</ele><time>2026-04-04T10:23:51Z</time></trkpt><trkpt lat="45.03787073249817" lon="7.902333826415828"><ele>294.0</ele><time>2026-04-04T10:23:52Z</time></trkpt><trkpt lat="45.037881650784875" lon="7.9024821109085455"><ele>294.0</ele><time>2026-04-04T10:23:53Z</time></trkpt><trkpt lat="45.037896277862096" lon="7.902642812332133"><ele>294.25</ele><time>2026-04-04T10:23:54Z</time></trkpt><trkpt lat="45.03791487670886" lon="7.9028165092727285"><ele>294.5</ele><time>2026-04-04T10:23:55Z</time></trkpt><trkpt lat="45.0379355401768" lon="7.903000569168586"><ele>294.75</ele><time>2026-04-04T10:23:56Z</time></trkpt><trkpt lat="45.03795473282055" lon="7.903193678492129"><ele>295.0</ele><time>2026-04-04T10:23:57Z</time></trkpt><trkpt lat="45.03797428491891" lon="7.903392880301059"><ele>295.0</ele><time>2026-04-04T10:23:58Z</time></trkpt><trkpt lat="45.03799792480422" lon="7.9035984626172855"><ele>295.0</ele><time>2026-04-04T10:23:59Z</time></trkpt><trkpt lat="45.03801535832544" lon="7.903805310745548"><ele>295.0</ele><time>2026-04-04T10:24:00Z</time></trkpt><trkpt lat="45.03802874477701" lon="7.90400134256767"><ele>295.0</ele><time>2026-04-04T10:24:01Z</time></trkpt><trkpt lat="45.03804282951777" lon="7.90418779399346"><ele>294.75</ele><time>2026-04-04T10:24:02Z</time></trkpt><trkpt lat="45.03805704517279" lon="7.904362148749322"><ele>294.5</ele><time>2026-04-04T10:24:03Z</time></trkpt><trkpt lat="45.038070138437796" lon="7.90452987167123"><ele>294.25</ele><time>2026-04-04T10:24:04Z</time></trkpt><trkpt lat="45.03808434878038" lon="7.904701962797206"><ele>294.0</ele><time>2026-04-04T10:24:05Z</time></trkpt><trkpt lat="45.03810005517457" lon="7.904878902668001"><ele>294.0</ele><time>2026-04-04T10:24:06Z</time></trkpt><trkpt lat="45.03811360024163" lon="7.905069359856879"><ele>294.0</ele><time>2026-04-04T10:24:07Z</time></trkpt><trkpt lat="45.03812739127555" lon="7.905265454600686"><ele>294.0</ele><time>2026-04-04T10:24:08Z</time></trkpt><trkpt lat="45.03814473372612" lon="7.905474466729753"><ele>294.0</ele><time>2026-04-04T10:24:09Z</time></trkpt><trkpt lat="45.038165117619435" lon="7.905692075426855"><ele>294.6666666666667</ele><time>2026-04-04T10:24:10Z</time></trkpt><trkpt lat="45.038187992632785" lon="7.905917871036385"><ele>295.33333333333337</ele><time>2026-04-04T10:24:11Z</time></trkpt><trkpt lat="45.03820806088548" lon="7.906139035883073"><ele>296.0</ele><time>2026-04-04T10:24:12Z</time></trkpt><trkpt lat="45.03822445568127" lon="7.906337929061685"><ele>296.0</ele><time>2026-04-04T10:24:13Z</time></trkpt><trkpt lat="45.038238471992855" lon="7.906514590538959"><ele>296.0</ele><time>2026-04-04T10:24:14Z</time></trkpt><trkpt lat="45.03824007410918" lon="7.906655925069538"><ele>296.0</ele><time>2026-04-04T10:24:15Z</time></trkpt><trkpt lat="45.03824389398534" lon="7.906785875293217"><ele>296.0</ele><time>2026-04-04T10:24:16Z</time></trkpt><trkpt lat="45.0382556336446" lon="7.90690217923979"><ele>296.0</ele><time>2026-04-04T10:24:17Z</time></trkpt><trkpt lat="45.03826530904472" lon="7.9070116114418765"><ele>296.8</ele><time>2026-04-04T10:24:18Z</time></trkpt><trkpt lat="45.03827709384095" lon="7.907124622151477"><ele>297.6</ele><time>2026-04-04T10:24:19Z</time></trkpt><trkpt lat="45.038290996549016" lon="7.907246757597449"><ele>298.4</ele><time>2026-04-04T10:24:20Z</time></trkpt><trkpt lat="45.038303115031844" lon="7.907380565727297"><ele>299.2</ele><time>2026-04-04T10:24:21Z</time></trkpt><trkpt lat="45.03831478359924" lon="7.907522433809589"><ele>300.0</ele><time>2026-04-04T10:24:22Z</time></trkpt><trkpt lat="45.03833020745261" lon="7.907672976032797"><ele>300.75</ele><time>2026-04-04T10:24:23Z</time></trkpt><trkpt lat="45.038343719694595" lon="7.9078330025534935"><ele>301.5</ele><time>2026-04-04T10:24:24Z</time></trkpt><trkpt lat="45.038355950055816" lon="7.9080043929246"><ele>302.25</ele><time>2026-04-04T10:24:25Z</time></trkpt><trkpt lat="45.038371402548044" lon="7.908182537683903"><ele>303.0</ele><time>2026-04-04T10:24:26Z</time></trkpt><trkpt lat="45.03838845410234" lon="7.9083726621788735"><ele>303.5</ele><time>2026-04-04T10:24:27Z</time></trkpt><trkpt lat="45.03840729976271" lon="7.908569809040585"><ele>304.0</ele><time>2026-04-04T10:24:28Z</time></trkpt><trkpt lat="45.03842406356929" lon="7.908779027528583"><ele>304.5</ele><time>2026-04-04T10:24:29Z</time></trkpt><trkpt lat="45.038444121328595" lon="7.908991062371547"><ele>305.0</ele><time>2026-04-04T10:24:30Z</time></trkpt><trkpt lat="45.03846270437872" lon="7.909206272677455"><ele>304.6666666666667</ele><time>2026-04-04T10:24:31Z</time></trkpt><trkpt lat="45.03847784303412" lon="7.90942650815834"><ele>304.3333333333333</ele><time>2026-04-04T10:24:32Z</time></trkpt><trkpt lat="45.038486576562505" lon="7.9096505923258595"><ele>304.0</ele><time>2026-04-04T10:24:33Z</time></trkpt><trkpt lat="45.038484370733784" lon="7.90988789766208"><ele>302.66666666666663</ele><time>2026-04-04T10:24:34Z</time></trkpt><trkpt lat="45.03847630388194" lon="7.9101238805090475"><ele>301.3333333333333</ele><time>2026-04-04T10:24:35Z</time></trkpt><trkpt lat="45.038469808307156" lon="7.910365466782386"><ele>300.0</ele><time>2026-04-04T10:24:36Z</time></trkpt><trkpt lat="45.03847832034422" lon="7.910615885252763"><ele>300.0</ele><time>2026-04-04T10:24:37Z</time></trkpt><trkpt lat="45.038502724297565" lon="7.910879033023941"><ele>300.0</ele><time>2026-04-04T10:24:38Z</time></trkpt><trkpt lat="45.038540581840245" lon="7.911147251187807"><ele>300.0</ele><time>2026-04-04T10:24:39Z</time></trkpt><trkpt lat="45.03859136884678" lon="7.911418933185485"><ele>298.3333333333333</ele><time>2026-04-04T10:24:40Z</time></trkpt><trkpt lat="45.03864995243407" lon="7.911690876823389"><ele>296.66666666666663</ele><time>2026-04-04T10:24:41Z</time></trkpt><trkpt lat="45.03872471898272" lon="7.911963974582037"><ele>295.0</ele><time>2026-04-04T10:24:42Z</time></trkpt><trkpt lat="45.03880821887262" lon="7.912232526291364"><ele>294.3333333333333</ele><time>2026-04-04T10:24:43Z</time></trkpt><trkpt lat="45.03888823662241" lon="7.912490708808272"><ele>293.6666666666667</ele><time>2026-04-04T10:24:44Z</time></trkpt><trkpt lat="45.038962618956596" lon="7.912736725557274"><ele>293.0</ele><time>2026-04-04T10:24:45Z</time></trkpt><trkpt lat="45.039037911571825" lon="7.912970853086149"><ele>293.0</ele><time>2026-04-04T10:24:46Z</time></trkpt><trkpt lat="45.039110733910384" lon="7.913195573040002"><ele>293.0</ele><time>2026-04-04T10:24:47Z</time></trkpt><trkpt lat="45.039179914214486" lon="7.9134154244884245"><ele>293.0</ele><time>2026-04-04T10:24:48Z</time></trkpt><trkpt lat="45.03924212995358" lon="7.913628206787591"><ele>293.6666666666667</ele><time>2026-04-04T10:24:49Z</time></trkpt><trkpt lat="45.03930155446396" lon="7.913829800995137"><ele>294.3333333333333</ele><time>2026-04-04T10:24:50Z</time></trkpt><trkpt lat="45.039361173131894" lon="7.914024830634334"><ele>295.0</ele><time>2026-04-04T10:24:51Z</time></trkpt><trkpt lat="45.03941953006216" lon="7.914217548946036"><ele>295.25</ele><time>2026-04-04T10:24:52Z</time></trkpt><trkpt lat="45.039475856949636" lon="7.914406262486067"><ele>295.5</ele><time>2026-04-04T10:24:53Z</time></trkpt><trkpt lat="45.03953201670394" lon="7.914594695055882"><ele>295.75</ele><time>2026-04-04T10:24:54Z</time></trkpt><trkpt lat="45.03958660251907" lon="7.914783663497594"><ele>296.0</ele><time>2026-04-04T10:24:55Z</time></trkpt><trkpt lat="45.03964196272463" lon="7.914968330961974"><ele>296.75</ele><time>2026-04-04T10:24:56Z</time></trkpt><trkpt lat="45.0396999406002" lon="7.91515915047686"><ele>297.5</ele><time>2026-04-04T10:24:57Z</time></trkpt><trkpt lat="45.039758077128646" lon="7.9153539307764555"><ele>298.25</ele><time>2026-04-04T10:24:58Z</time></trkpt><trkpt lat="45.039816555757675" lon="7.915550306846269"><ele>299.0</ele><time>2026-04-04T10:24:59Z</time></trkpt><trkpt lat="45.03987553883723" lon="7.915747819034452"><ele>298.6666666666667</ele><time>2026-04-04T10:25:00Z</time></trkpt><trkpt lat="45.039934623712924" lon="7.9159499216262175"><ele>298.3333333333333</ele><time>2026-04-04T10:25:01Z</time></trkpt><trkpt lat="45.039990199410454" lon="7.916158049534467"><ele>298.0</ele><time>2026-04-04T10:25:02Z</time></trkpt><trkpt lat="45.04004242929425" lon="7.916372075434384"><ele>298.0</ele><time>2026-04-04T10:25:03Z</time></trkpt><trkpt lat="45.04009230029965" lon="7.916581013021378"><ele>298.0</ele><time>2026-04-04T10:25:04Z</time></trkpt><trkpt lat="45.04014317924954" lon="7.916791373782325"><ele>298.0</ele><time>2026-04-04T10:25:05Z</time></trkpt><trkpt lat="45.04019273288263" lon="7.9170007875709985"><ele>300.3333333333333</ele><time>2026-04-04T10:25:06Z</time></trkpt><trkpt lat="45.04023195991658" lon="7.917198229193851"><ele>302.6666666666667</ele><time>2026-04-04T10:25:07Z</time></trkpt><trkpt lat="45.040273887091956" lon="7.91741441274395"><ele>305.0</ele><time>2026-04-04T10:25:08Z</time></trkpt><trkpt lat="45.040323239554034" lon="7.917662216633849"><ele>306.0</ele><time>2026-04-04T10:25:09Z</time></trkpt><trkpt lat="45.040367609115044" lon="7.9179017126482965"><ele>307.0</ele><time>2026-04-04T10:25:10Z</time></trkpt><trkpt lat="45.04041415707172" lon="7.9181671224687316"><ele>308.0</ele><time>2026-04-04T10:25:11Z</time></trkpt><trkpt lat="45.040445715970556" lon="7.918448601696172"><ele>308.0</ele><time>2026-04-04T10:25:12Z</time></trkpt><trkpt lat="45.040489828198055" lon="7.918741943522601"><ele>308.0</ele><time>2026-04-04T10:25:13Z</time></trkpt><trkpt lat="45.040510451335955" lon="7.91891460896164"><ele>308.0</ele><time>2026-04-04T10:25:15Z</time></trkpt><trkpt lat="45.040530633762586" lon="7.919050948261368"><ele>308.0</ele><time>2026-04-04T10:25:16Z</time></trkpt><trkpt lat="45.04054327057579" lon="7.919153189799288"><ele>308.0</ele><time>2026-04-04T10:25:17Z</time></trkpt><trkpt lat="45.040558940774794" lon="7.919255031078943"><ele>308.0</ele><time>2026-04-04T10:25:18Z</time></trkpt><trkpt lat="45.04059542470756" lon="7.919424591369255"><ele>308.0</ele><time>2026-04-04T10:25:20Z</time></trkpt><trkpt lat="45.040612555400166" lon="7.919525643733608"><ele>308.0</ele><time>2026-04-04T10:25:21Z</time></trkpt><trkpt lat="45.04063347486756" lon="7.919636260144934"><ele>308.0</ele><time>2026-04-04T10:25:22Z</time></trkpt><trkpt lat="45.04065032262447" lon="7.919748513194999"><ele>308.0</ele><time>2026-04-04T10:25:23Z</time></trkpt><trkpt lat="45.04066034275096" lon="7.91984546380083"><ele>308.0</ele><time>2026-04-04T10:25:24Z</time></trkpt><trkpt lat="45.04066934503371" lon="7.9199852167516"><ele>308.0</ele><time>2026-04-04T10:25:26Z</time></trkpt><trkpt lat="45.04067261207464" lon="7.920106922797969"><ele>308.0</ele><time>2026-04-04T10:25:28Z</time></trkpt><trkpt lat="45.04068085420935" lon="7.92024806213792"><ele>308.0</ele><time>2026-04-04T10:25:30Z</time></trkpt><trkpt lat="45.040684768178615" lon="7.920391765405052"><ele>308.0</ele><time>2026-04-04T10:25:32Z</time></trkpt><trkpt lat="45.040683760753794" lon="7.920523536931213"><ele>308.6</ele><time>2026-04-04T10:25:34Z</time></trkpt><trkpt lat="45.04068452932928" lon="7.920614695066019"><ele>309.20000000000005</ele><time>2026-04-04T10:25:36Z</time></trkpt><trkpt lat="45.04068588225205" lon="7.920787265504038"><ele>309.8</ele><time>2026-04-04T10:25:38Z</time></trkpt><trkpt lat="45.04068832043369" lon="7.92090435063543"><ele>310.40000000000003</ele><time>2026-04-04T10:25:39Z</time></trkpt><trkpt lat="45.04068761776127" lon="7.921039470157268"><ele>311.0</ele><time>2026-04-04T10:25:40Z</time></trkpt><trkpt lat="45.04068706503859" lon="7.921184086756375"><ele>312.0</ele><time>2026-04-04T10:25:41Z</time></trkpt><trkpt lat="45.040685583206255" lon="7.921337777309862"><ele>313.0</ele><time>2026-04-04T10:25:42Z</time></trkpt><trkpt lat="45.04068655457278" lon="7.921494950250677"><ele>314.0</ele><time>2026-04-04T10:25:43Z</time></trkpt><trkpt lat="45.04068289679128" lon="7.921660093538185"><ele>315.0</ele><time>2026-04-04T10:25:44Z</time></trkpt><trkpt lat="45.0406840660239" lon="7.921832910818989"><ele>315.25</ele><time>2026-04-04T10:25:45Z</time></trkpt><trkpt lat="45.04068412379205" lon="7.922006187626315"><ele>315.5</ele><time>2026-04-04T10:25:46Z</time></trkpt><trkpt lat="45.04068242441074" lon="7.922180920794514"><ele>315.75</ele><time>2026-04-04T10:25:47Z</time></trkpt><trkpt lat="45.04067806564115" lon="7.922368613512125"><ele>316.0</ele><time>2026-04-04T10:25:48Z</time></trkpt><trkpt lat="45.04063758233406" lon="7.922558385018047"><ele>313.66666666666663</ele><time>2026-04-04T10:25:49Z</time></trkpt><trkpt lat="45.04059824547163" lon="7.9227666022535"><ele>311.3333333333333</ele><time>2026-04-04T10:25:50Z</time></trkpt><trkpt lat="45.04055706648555" lon="7.92298029461583"><ele>309.0</ele><time>2026-04-04T10:25:51Z</time></trkpt><trkpt lat="45.0405144689766" lon="7.9231972316960295"><ele>306.0</ele><time>2026-04-04T10:25:52Z</time></trkpt><trkpt lat="45.04047063390463" lon="7.923420472007746"><ele>303.0</ele><time>2026-04-04T10:25:53Z</time></trkpt><trkpt lat="45.04042656486581" lon="7.923644903320336"><ele>300.0</ele><time>2026-04-04T10:25:54Z</time></trkpt><trkpt lat="45.04038301397252" lon="7.923866696110676"><ele>300.0</ele><time>2026-04-04T10:25:55Z</time></trkpt><trkpt lat="45.04033577501826" lon="7.924107271227321"><ele>300.0</ele><time>2026-04-04T10:25:56Z</time></trkpt><trkpt lat="45.04028919371718" lon="7.924343998880281"><ele>300.0</ele><time>2026-04-04T10:25:57Z</time></trkpt><trkpt lat="45.04024115879922" lon="7.924587680889647"><ele>299.0</ele><time>2026-04-04T10:25:58Z</time></trkpt><trkpt lat="45.04019380742109" lon="7.924827895268269"><ele>298.0</ele><time>2026-04-04T10:25:59Z</time></trkpt><trkpt lat="45.04014397125351" lon="7.9250807151394795"><ele>297.0</ele><time>2026-04-04T10:26:00Z</time></trkpt><trkpt lat="45.0400970100005" lon="7.925325030773298"><ele>297.0</ele><time>2026-04-04T10:26:01Z</time></trkpt><trkpt lat="45.04005020642422" lon="7.925576988046567"><ele>297.0</ele><time>2026-04-04T10:26:02Z</time></trkpt><trkpt lat="45.040006923865896" lon="7.925835560620964"><ele>297.0</ele><time>2026-04-04T10:26:03Z</time></trkpt><trkpt lat="45.03997048964371" lon="7.926104708075594"><ele>296.6666666666667</ele><time>2026-04-04T10:26:04Z</time></trkpt><trkpt lat="45.03994104448189" lon="7.926380826712733"><ele>296.33333333333337</ele><time>2026-04-04T10:26:05Z</time></trkpt><trkpt lat="45.03992091327903" lon="7.926663142087336"><ele>296.0</ele><time>2026-04-04T10:26:06Z</time></trkpt><trkpt lat="45.039903312913665" lon="7.92694465851534"><ele>296.0</ele><time>2026-04-04T10:26:07Z</time></trkpt><trkpt lat="45.0398852533408" lon="7.927219282266256"><ele>296.0</ele><time>2026-04-04T10:26:08Z</time></trkpt><trkpt lat="45.03986744736896" lon="7.927490049327885"><ele>296.0</ele><time>2026-04-04T10:26:09Z</time></trkpt><trkpt lat="45.03985009381896" lon="7.927753937042899"><ele>295.6666666666667</ele><time>2026-04-04T10:26:10Z</time></trkpt><trkpt lat="45.03983270447208" lon="7.928021683894279"><ele>295.3333333333333</ele><time>2026-04-04T10:26:11Z</time></trkpt><trkpt lat="45.039817074151586" lon="7.928274102999795"><ele>295.0</ele><time>2026-04-04T10:26:12Z</time></trkpt><trkpt lat="45.039802072765646" lon="7.928516364836457"><ele>295.66666666666663</ele><time>2026-04-04T10:26:13Z</time></trkpt><trkpt lat="45.03978669202341" lon="7.928764753152966"><ele>296.3333333333333</ele><time>2026-04-04T10:26:14Z</time></trkpt><trkpt lat="45.03977066673317" lon="7.929023550657284"><ele>297.0</ele><time>2026-04-04T10:26:15Z</time></trkpt><trkpt lat="45.0397551167899" lon="7.929270356746255"><ele>297.6666666666667</ele><time>2026-04-04T10:26:16Z</time></trkpt><trkpt lat="45.03973964524865" lon="7.9295119729707615"><ele>298.33333333333337</ele><time>2026-04-04T10:26:17Z</time></trkpt><trkpt lat="45.039725129616265" lon="7.929740389169179"><ele>299.0</ele><time>2026-04-04T10:26:18Z</time></trkpt><trkpt lat="45.039709880216456" lon="7.929981001774132"><ele>298.0</ele><time>2026-04-04T10:26:19Z</time></trkpt><trkpt lat="45.03969398877683" lon="7.930231744796626"><ele>297.0</ele><time>2026-04-04T10:26:20Z</time></trkpt><trkpt lat="45.03967697960197" lon="7.93049886519282"><ele>296.0</ele><time>2026-04-04T10:26:21Z</time></trkpt><trkpt lat="45.039657845846406" lon="7.930798815971859"><ele>295.6666666666667</ele><time>2026-04-04T10:26:22Z</time></trkpt><trkpt lat="45.039638764854566" lon="7.931097939269759"><ele>295.3333333333333</ele><time>2026-04-04T10:26:23Z</time></trkpt><trkpt lat="45.039620257034365" lon="7.931388077446622"><ele>295.0</ele><time>2026-04-04T10:26:24Z</time></trkpt><trkpt lat="45.03960110121685" lon="7.931685935091674"><ele>296.0</ele><time>2026-04-04T10:26:25Z</time></trkpt><trkpt lat="45.03958124950318" lon="7.931994312805443"><ele>297.0</ele><time>2026-04-04T10:26:26Z</time></trkpt><trkpt lat="45.039561103388635" lon="7.932306015556731"><ele>298.0</ele><time>2026-04-04T10:26:27Z</time></trkpt><trkpt lat="45.03955806436793" lon="7.932596543836022"><ele>299.3333333333333</ele><time>2026-04-04T10:26:28Z</time></trkpt><trkpt lat="45.03953953318677" lon="7.932855427252868"><ele>300.6666666666667</ele><time>2026-04-04T10:26:29Z</time></trkpt><trkpt lat="45.039509442033804" lon="7.933088475597498"><ele>302.0</ele><time>2026-04-04T10:26:30Z</time></trkpt><trkpt lat="45.03950992996143" lon="7.9333105203903305"><ele>302.33333333333337</ele><time>2026-04-04T10:26:31Z</time></trkpt><trkpt lat="45.03949499136688" lon="7.933526971223737"><ele>302.6666666666667</ele><time>2026-04-04T10:26:32Z</time></trkpt><trkpt lat="45.03948042444479" lon="7.93374284491049"><ele>303.0</ele><time>2026-04-04T10:26:33Z</time></trkpt><trkpt lat="45.03945240093616" lon="7.9339457114532275"><ele>303.0</ele><time>2026-04-04T10:26:34Z</time></trkpt><trkpt lat="45.03943941367272" lon="7.934144590516249"><ele>303.0</ele><time>2026-04-04T10:26:35Z</time></trkpt><trkpt lat="45.039426901015425" lon="7.934336201568507"><ele>303.0</ele><time>2026-04-04T10:26:36Z</time></trkpt><trkpt lat="45.03941463794613" lon="7.934523990844629"><ele>303.0</ele><time>2026-04-04T10:26:37Z</time></trkpt><trkpt lat="45.039402489010236" lon="7.934712463776252"><ele>303.5</ele><time>2026-04-04T10:26:38Z</time></trkpt><trkpt lat="45.03938992754295" lon="7.9349075904864925"><ele>304.0</ele><time>2026-04-04T10:26:39Z</time></trkpt><trkpt lat="45.039377035439124" lon="7.935107853278246"><ele>304.5</ele><time>2026-04-04T10:26:40Z</time></trkpt><trkpt lat="45.03936404783339" lon="7.935309598311177"><ele>305.0</ele><time>2026-04-04T10:26:41Z</time></trkpt><trkpt lat="45.03935061225135" lon="7.93551766213437"><ele>305.75</ele><time>2026-04-04T10:26:42Z</time></trkpt><trkpt lat="45.03933718942886" lon="7.9357256130870715"><ele>306.5</ele><time>2026-04-04T10:26:43Z</time></trkpt><trkpt lat="45.03932354397977" lon="7.935937012923455"><ele>307.25</ele><time>2026-04-04T10:26:44Z</time></trkpt><trkpt lat="45.039309907080295" lon="7.936148280361955"><ele>308.0</ele><time>2026-04-04T10:26:45Z</time></trkpt><trkpt lat="45.039295792737285" lon="7.936363453321784"><ele>309.0</ele><time>2026-04-04T10:26:46Z</time></trkpt><trkpt lat="45.039281839396885" lon="7.936575434882195"><ele>310.0</ele><time>2026-04-04T10:26:47Z</time></trkpt><trkpt lat="45.039267469768355" lon="7.936793740839986"><ele>311.0</ele><time>2026-04-04T10:26:48Z</time></trkpt><trkpt lat="45.03925314926158" lon="7.937011300555817"><ele>311.0</ele><time>2026-04-04T10:26:49Z</time></trkpt><trkpt lat="45.03923933337061" lon="7.937219898620654"><ele>311.0</ele><time>2026-04-04T10:26:50Z</time></trkpt><trkpt lat="45.0392256629384" lon="7.937425676737216"><ele>311.0</ele><time>2026-04-04T10:26:51Z</time></trkpt><trkpt lat="45.039212639389284" lon="7.9376217171994154"><ele>311.0</ele><time>2026-04-04T10:26:52Z</time></trkpt><trkpt lat="45.03920077552115" lon="7.93780030129271"><ele>311.25</ele><time>2026-04-04T10:26:53Z</time></trkpt><trkpt lat="45.039190918585064" lon="7.937948675697779"><ele>311.5</ele><time>2026-04-04T10:26:54Z</time></trkpt><trkpt lat="45.0391804623716" lon="7.938106070739577"><ele>311.75</ele><time>2026-04-04T10:26:55Z</time></trkpt><trkpt lat="45.03916913877659" lon="7.938276517934719"><ele>312.0</ele><time>2026-04-04T10:26:56Z</time></trkpt><trkpt lat="45.039169776129" lon="7.938459065683185"><ele>312.25</ele><time>2026-04-04T10:26:57Z</time></trkpt><trkpt lat="45.03915777912897" lon="7.938643122664056"><ele>312.5</ele><time>2026-04-04T10:26:58Z</time></trkpt><trkpt lat="45.039141656044734" lon="7.938826531771618"><ele>312.75</ele><time>2026-04-04T10:26:59Z</time></trkpt><trkpt lat="45.039132823937" lon="7.939022825044238"><ele>313.0</ele><time>2026-04-04T10:27:00Z</time></trkpt><trkpt lat="45.03911979941596" lon="7.939225720854929"><ele>314.0</ele><time>2026-04-04T10:27:01Z</time></trkpt><trkpt lat="45.03910400378163" lon="7.93943310525732"><ele>315.0</ele><time>2026-04-04T10:27:02Z</time></trkpt><trkpt lat="45.03908962650662" lon="7.939644290553007"><ele>316.0</ele><time>2026-04-04T10:27:03Z</time></trkpt><trkpt lat="45.0390724408381" lon="7.9398556157904245"><ele>317.0</ele><time>2026-04-04T10:27:04Z</time></trkpt><trkpt lat="45.03905755490031" lon="7.940076786809015"><ele>317.6666666666667</ele><time>2026-04-04T10:27:05Z</time></trkpt><trkpt lat="45.03904387281584" lon="7.940296666146389"><ele>318.3333333333333</ele><time>2026-04-04T10:27:06Z</time></trkpt><trkpt lat="45.03903085236096" lon="7.940525663641224"><ele>319.0</ele><time>2026-04-04T10:27:07Z</time></trkpt><trkpt lat="45.03901397864988" lon="7.940754493975111"><ele>319.3333333333333</ele><time>2026-04-04T10:27:08Z</time></trkpt><trkpt lat="45.0389963895538" lon="7.940984070417393"><ele>319.6666666666667</ele><time>2026-04-04T10:27:09Z</time></trkpt><trkpt lat="45.03898232019831" lon="7.9412042183241285"><ele>320.0</ele><time>2026-04-04T10:27:10Z</time></trkpt><trkpt lat="45.03896783330213" lon="7.941438265174256"><ele>320.0</ele><time>2026-04-04T10:27:11Z</time></trkpt><trkpt lat="45.03895915912488" lon="7.941652147073109"><ele>320.0</ele><time>2026-04-04T10:27:12Z</time></trkpt><trkpt lat="45.03895403950427" lon="7.941855354010509"><ele>320.0</ele><time>2026-04-04T10:27:13Z</time></trkpt><trkpt lat="45.03898974631977" lon="7.9420390853186325"><ele>320.0</ele><time>2026-04-04T10:27:14Z</time></trkpt><trkpt lat="45.03905931291946" lon="7.942193224031704"><ele>319.5</ele><time>2026-04-04T10:27:15Z</time></trkpt><trkpt lat="45.03912228745781" lon="7.942323670269071"><ele>319.0</ele><time>2026-04-04T10:27:16Z</time></trkpt><trkpt lat="45.03914500450261" lon="7.942452006928765"><ele>318.5</ele><time>2026-04-04T10:27:17Z</time></trkpt><trkpt lat="45.03913230250745" lon="7.942574675880551"><ele>318.0</ele><time>2026-04-04T10:27:18Z</time></trkpt><trkpt lat="45.03912267309008" lon="7.942682239551607"><ele>317.5</ele><time>2026-04-04T10:27:19Z</time></trkpt><trkpt lat="45.03910746887311" lon="7.9427897916222445"><ele>317.0</ele><time>2026-04-04T10:27:20Z</time></trkpt><trkpt lat="45.03908182484354" lon="7.942907709245499"><ele>316.8</ele><time>2026-04-04T10:27:21Z</time></trkpt><trkpt lat="45.03906205369377" lon="7.9430354955001"><ele>316.6</ele><time>2026-04-04T10:27:22Z</time></trkpt><trkpt lat="45.039053898472254" lon="7.943167414176356"><ele>316.40000000000003</ele><time>2026-04-04T10:27:23Z</time></trkpt><trkpt lat="45.03905771941025" lon="7.943309632389741"><ele>316.2</ele><time>2026-04-04T10:27:24Z</time></trkpt><trkpt lat="45.0390821942544" lon="7.943455627903284"><ele>316.0</ele><time>2026-04-04T10:27:25Z</time></trkpt><trkpt lat="45.03911555757802" lon="7.943596130302277"><ele>316.40000000000003</ele><time>2026-04-04T10:27:26Z</time></trkpt><trkpt lat="45.03914326141637" lon="7.943732104690892"><ele>316.8</ele><time>2026-04-04T10:27:27Z</time></trkpt><trkpt lat="45.03916666532726" lon="7.943853460248729"><ele>317.20000000000005</ele><time>2026-04-04T10:27:28Z</time></trkpt><trkpt lat="45.03918974632485" lon="7.943960018737723"><ele>317.6</ele><time>2026-04-04T10:27:29Z</time></trkpt><trkpt lat="45.039221161358014" lon="7.9440529588167035"><ele>318.0</ele><time>2026-04-04T10:27:30Z</time></trkpt><trkpt lat="45.03929768242512" lon="7.944187506762346"><ele>318.6666666666667</ele><time>2026-04-04T10:27:32Z</time></trkpt><trkpt lat="45.039357120949134" lon="7.944231618736939"><ele>319.3333333333333</ele><time>2026-04-04T10:27:33Z</time></trkpt><trkpt lat="45.03942659101929" lon="7.944274364823886"><ele>320.0</ele><time>2026-04-04T10:27:34Z</time></trkpt><trkpt lat="45.03950380982807" lon="7.944320368068152"><ele>320.66666666666663</ele><time>2026-04-04T10:27:35Z</time></trkpt><trkpt lat="45.03959262061782" lon="7.944376362876146"><ele>321.3333333333333</ele><time>2026-04-04T10:27:36Z</time></trkpt><trkpt lat="45.039669645907956" lon="7.944429924993022"><ele>322.0</ele><time>2026-04-04T10:27:37Z</time></trkpt><trkpt lat="45.039748699378485" lon="7.944485369544892"><ele>322.0</ele><time>2026-04-04T10:27:38Z</time></trkpt><trkpt lat="45.0398265416273" lon="7.944558817225068"><ele>322.0</ele><time>2026-04-04T10:27:39Z</time></trkpt><trkpt lat="45.0398934898666" lon="7.944656406024522"><ele>322.0</ele><time>2026-04-04T10:27:40Z</time></trkpt><trkpt lat="45.03993705679907" lon="7.9447763247207295"><ele>322.0</ele><time>2026-04-04T10:27:41Z</time></trkpt><trkpt lat="45.03992607501189" lon="7.944926445560738"><ele>322.0</ele><time>2026-04-04T10:27:42Z</time></trkpt><trkpt lat="45.03991685995517" lon="7.945093605058317"><ele>322.5</ele><time>2026-04-04T10:27:43Z</time></trkpt><trkpt lat="45.03992331108035" lon="7.945276850284927"><ele>323.0</ele><time>2026-04-04T10:27:44Z</time></trkpt><trkpt lat="45.03991214487416" lon="7.945465535281226"><ele>323.5</ele><time>2026-04-04T10:27:45Z</time></trkpt><trkpt lat="45.039909902858284" lon="7.94565315102126"><ele>324.0</ele><time>2026-04-04T10:27:46Z</time></trkpt><trkpt lat="45.039940541108464" lon="7.945812365385592"><ele>321.4</ele><time>2026-04-04T10:27:47Z</time></trkpt><trkpt lat="45.03998106280955" lon="7.945956248641308"><ele>318.79999999999995</ele><time>2026-04-04T10:27:48Z</time></trkpt><trkpt lat="45.04002060699297" lon="7.946110555812959"><ele>316.20000000000005</ele><time>2026-04-04T10:27:49Z</time></trkpt><trkpt lat="45.04000626526028" lon="7.946257544559416"><ele>313.6</ele><time>2026-04-04T10:27:50Z</time></trkpt><trkpt lat="45.03994214740125" lon="7.946395106582902"><ele>311.0</ele><time>2026-04-04T10:27:51Z</time></trkpt><trkpt lat="45.0398352428115" lon="7.9464353950307896"><ele>311.0</ele><time>2026-04-04T10:27:52Z</time></trkpt><trkpt lat="45.039722683959745" lon="7.946451816090604"><ele>311.0</ele><time>2026-04-04T10:27:53Z</time></trkpt><trkpt lat="45.039598105150276" lon="7.946480403384628"><ele>311.0</ele><time>2026-04-04T10:27:54Z</time></trkpt><trkpt lat="45.03947983073804" lon="7.946522295765765"><ele>311.0</ele><time>2026-04-04T10:27:55Z</time></trkpt><trkpt lat="45.039375664751944" lon="7.946623532290205"><ele>306.75</ele><time>2026-04-04T10:27:56Z</time></trkpt><trkpt lat="45.03932614819327" lon="7.946803834157822"><ele>302.5</ele><time>2026-04-04T10:27:57Z</time></trkpt><trkpt lat="45.03929402109575" lon="7.946974321245069"><ele>298.25</ele><time>2026-04-04T10:27:58Z</time></trkpt><trkpt lat="45.039251298488054" lon="7.947144669579572"><ele>294.0</ele><time>2026-04-04T10:27:59Z</time></trkpt><trkpt lat="45.03925757721463" lon="7.947332727128336"><ele>294.0</ele><time>2026-04-04T10:28:00Z</time></trkpt><trkpt lat="45.039250685842156" lon="7.947517598025478"><ele>294.0</ele><time>2026-04-04T10:28:01Z</time></trkpt><trkpt lat="45.03923700420213" lon="7.947694629473628"><ele>294.0</ele><time>2026-04-04T10:28:02Z</time></trkpt><trkpt lat="45.03919199942031" lon="7.947864531749317"><ele>294.0</ele><time>2026-04-04T10:28:03Z</time></trkpt><trkpt lat="45.039129923676036" lon="7.9480138950158095"><ele>289.75</ele><time>2026-04-04T10:28:04Z</time></trkpt><trkpt lat="45.039096654636104" lon="7.948174526436025"><ele>285.5</ele><time>2026-04-04T10:28:05Z</time></trkpt><trkpt lat="45.03908990928933" lon="7.948357246948322"><ele>281.25</ele><time>2026-04-04T10:28:06Z</time></trkpt><trkpt lat="45.03911229660356" lon="7.948550924373479"><ele>277.0</ele><time>2026-04-04T10:28:07Z</time></trkpt><trkpt lat="45.03914121127034" lon="7.94875643747881"><ele>275.0</ele><time>2026-04-04T10:28:08Z</time></trkpt><trkpt lat="45.03917214734998" lon="7.948964893416519"><ele>273.0</ele><time>2026-04-04T10:28:09Z</time></trkpt><trkpt lat="45.03920443437256" lon="7.949171676850495"><ele>271.0</ele><time>2026-04-04T10:28:10Z</time></trkpt><trkpt lat="45.039235530698576" lon="7.949376037718283"><ele>269.0</ele><time>2026-04-04T10:28:11Z</time></trkpt><trkpt lat="45.03926543046017" lon="7.949582495752448"><ele>268.25</ele><time>2026-04-04T10:28:12Z</time></trkpt><trkpt lat="45.039291310142104" lon="7.94978607258439"><ele>267.5</ele><time>2026-04-04T10:28:13Z</time></trkpt><trkpt lat="45.03930991379775" lon="7.949989317547009"><ele>266.75</ele><time>2026-04-04T10:28:14Z</time></trkpt><trkpt lat="45.0393016927829" lon="7.95019303369483"><ele>266.0</ele><time>2026-04-04T10:28:15Z</time></trkpt><trkpt lat="45.03926418957336" lon="7.950392440089464"><ele>265.6666666666667</ele><time>2026-04-04T10:28:16Z</time></trkpt><trkpt lat="45.03918769212171" lon="7.9505738269838915"><ele>265.3333333333333</ele><time>2026-04-04T10:28:17Z</time></trkpt><trkpt lat="45.03911012265279" lon="7.950755433059566"><ele>265.0</ele><time>2026-04-04T10:28:18Z</time></trkpt><trkpt lat="45.039029818001886" lon="7.950936382461601"><ele>262.25</ele><time>2026-04-04T10:28:19Z</time></trkpt><trkpt lat="45.038949784438636" lon="7.951113187039842"><ele>259.5</ele><time>2026-04-04T10:28:20Z</time></trkpt><trkpt lat="45.03886932305466" lon="7.951292724692503"><ele>256.75</ele><time>2026-04-04T10:28:21Z</time></trkpt><trkpt lat="45.03879303899735" lon="7.951473166386104"><ele>254.0</ele><time>2026-04-04T10:28:22Z</time></trkpt><trkpt lat="45.038720923910056" lon="7.9516588619773305"><ele>252.0</ele><time>2026-04-04T10:28:23Z</time></trkpt><trkpt lat="45.03865653323114" lon="7.951846982126317"><ele>250.0</ele><time>2026-04-04T10:28:24Z</time></trkpt><trkpt lat="45.038597988140666" lon="7.952046173969743"><ele>248.0</ele><time>2026-04-04T10:28:25Z</time></trkpt><trkpt lat="45.03855984082182" lon="7.952256775757893"><ele>248.0</ele><time>2026-04-04T10:28:26Z</time></trkpt><trkpt lat="45.038544912848394" lon="7.952472923722261"><ele>248.0</ele><time>2026-04-04T10:28:27Z</time></trkpt><trkpt lat="45.038558969626315" lon="7.952698617600608"><ele>248.0</ele><time>2026-04-04T10:28:28Z</time></trkpt><trkpt lat="45.03860826666335" lon="7.952919891642067"><ele>246.66666666666669</ele><time>2026-04-04T10:28:29Z</time></trkpt><trkpt lat="45.03866356433187" lon="7.953134124557325"><ele>245.33333333333331</ele><time>2026-04-04T10:28:30Z</time></trkpt><trkpt lat="45.03872202659893" lon="7.953353785436544"><ele>244.0</ele><time>2026-04-04T10:28:31Z</time></trkpt><trkpt lat="45.03877662822058" lon="7.953568042725394"><ele>243.66666666666666</ele><time>2026-04-04T10:28:32Z</time></trkpt><trkpt lat="45.03882985824445" lon="7.953785017615063"><ele>243.33333333333331</ele><time>2026-04-04T10:28:33Z</time></trkpt><trkpt lat="45.038884354866866" lon="7.954001733914775"><ele>243.0</ele><time>2026-04-04T10:28:34Z</time></trkpt><trkpt lat="45.03893784520567" lon="7.954223958566139"><ele>242.66666666666669</ele><time>2026-04-04T10:28:35Z</time></trkpt><trkpt lat="45.038990762513315" lon="7.954442238344573"><ele>242.33333333333334</ele><time>2026-04-04T10:28:36Z</time></trkpt><trkpt lat="45.03904692293287" lon="7.95466258371052"><ele>242.0</ele><time>2026-04-04T10:28:37Z</time></trkpt><trkpt lat="45.039102670950165" lon="7.9548858098380215"><ele>249.0</ele><time>2026-04-04T10:28:38Z</time></trkpt><trkpt lat="45.03915908762064" lon="7.95510544574478"><ele>256.0</ele><time>2026-04-04T10:28:39Z</time></trkpt><trkpt lat="45.039214694977694" lon="7.955323353346788"><ele>263.0</ele><time>2026-04-04T10:28:40Z</time></trkpt><trkpt lat="45.039269017949906" lon="7.95554450985602"><ele>263.0</ele><time>2026-04-04T10:28:41Z</time></trkpt><trkpt lat="45.03932295663199" lon="7.955765407297697"><ele>263.0</ele><time>2026-04-04T10:28:42Z</time></trkpt><trkpt lat="45.03938114447355" lon="7.955979243474398"><ele>263.0</ele><time>2026-04-04T10:28:43Z</time></trkpt><trkpt lat="45.03944392162964" lon="7.956190883631751"><ele>264.6666666666667</ele><time>2026-04-04T10:28:44Z</time></trkpt><trkpt lat="45.03950561735694" lon="7.956401089854026"><ele>266.3333333333333</ele><time>2026-04-04T10:28:45Z</time></trkpt><trkpt lat="45.03956797958351" lon="7.956611224095937"><ele>268.0</ele><time>2026-04-04T10:28:46Z</time></trkpt><trkpt lat="45.03963246919798" lon="7.956829818292575"><ele>268.0</ele><time>2026-04-04T10:28:47Z</time></trkpt><trkpt lat="45.03969976675771" lon="7.957055133568086"><ele>268.0</ele><time>2026-04-04T10:28:48Z</time></trkpt><trkpt lat="45.0397719758146" lon="7.957286995038456"><ele>268.0</ele><time>2026-04-04T10:28:49Z</time></trkpt><trkpt lat="45.039843842523716" lon="7.9575179683475294"><ele>266.0</ele><time>2026-04-04T10:28:50Z</time></trkpt><trkpt lat="45.039911867812485" lon="7.957737855693081"><ele>264.0</ele><time>2026-04-04T10:28:51Z</time></trkpt><trkpt lat="45.03997572856093" lon="7.957954258332815"><ele>262.0</ele><time>2026-04-04T10:28:52Z</time></trkpt><trkpt lat="45.04003792518705" lon="7.9581625928186295"><ele>258.75</ele><time>2026-04-04T10:28:53Z</time></trkpt><trkpt lat="45.040094912871155" lon="7.958352128908136"><ele>255.5</ele><time>2026-04-04T10:28:54Z</time></trkpt><trkpt lat="45.04014691601255" lon="7.958529746142687"><ele>252.25</ele><time>2026-04-04T10:28:55Z</time></trkpt><trkpt lat="45.040199931580695" lon="7.958706600983122"><ele>249.0</ele><time>2026-04-04T10:28:56Z</time></trkpt><trkpt lat="45.04024937798161" lon="7.958875262187398"><ele>249.0</ele><time>2026-04-04T10:28:57Z</time></trkpt><trkpt lat="45.040297892330926" lon="7.959040075836125"><ele>249.0</ele><time>2026-04-04T10:28:58Z</time></trkpt><trkpt lat="45.04034536257485" lon="7.959200772540996"><ele>249.0</ele><time>2026-04-04T10:28:59Z</time></trkpt><trkpt lat="45.040394271783285" lon="7.959358229883438"><ele>249.0</ele><time>2026-04-04T10:29:00Z</time></trkpt><trkpt lat="45.04044467642522" lon="7.9595125491104275"><ele>248.25</ele><time>2026-04-04T10:29:01Z</time></trkpt><trkpt lat="45.04049197497523" lon="7.959657757662478"><ele>247.5</ele><time>2026-04-04T10:29:02Z</time></trkpt><trkpt lat="45.04053459165194" lon="7.9598107407142"><ele>246.75</ele><time>2026-04-04T10:29:03Z</time></trkpt><trkpt lat="45.04058002129559" lon="7.959959184930697"><ele>246.0</ele><time>2026-04-04T10:29:04Z</time></trkpt><trkpt lat="45.0406219841337" lon="7.960104357501272"><ele>245.60000000000002</ele><time>2026-04-04T10:29:05Z</time></trkpt><trkpt lat="45.04066487144239" lon="7.960242262302598"><ele>245.20000000000002</ele><time>2026-04-04T10:29:06Z</time></trkpt><trkpt lat="45.040700763127184" lon="7.960372487653225"><ele>244.79999999999998</ele><time>2026-04-04T10:29:07Z</time></trkpt><trkpt lat="45.04073810413642" lon="7.960503409233322"><ele>244.39999999999998</ele><time>2026-04-04T10:29:08Z</time></trkpt><trkpt lat="45.04077771734168" lon="7.960630262349988"><ele>244.0</ele><time>2026-04-04T10:29:09Z</time></trkpt><trkpt lat="45.04081932176373" lon="7.960759093390331"><ele>243.79999999999998</ele><time>2026-04-04T10:29:10Z</time></trkpt><trkpt lat="45.04086311025464" lon="7.960890591813294"><ele>243.59999999999997</ele><time>2026-04-04T10:29:11Z</time></trkpt><trkpt lat="45.04090220707638" lon="7.961016934619784"><ele>243.4</ele><time>2026-04-04T10:29:12Z</time></trkpt><trkpt lat="45.040939845689486" lon="7.961137545507643"><ele>243.2</ele><time>2026-04-04T10:29:13Z</time></trkpt><trkpt lat="45.04097390550819" lon="7.961259728312233"><ele>243.0</ele><time>2026-04-04T10:29:14Z</time></trkpt><trkpt lat="45.04100664351489" lon="7.961376932368608"><ele>243.0</ele><time>2026-04-04T10:29:15Z</time></trkpt><trkpt lat="45.04104211721552" lon="7.9614923606784"><ele>243.0</ele><time>2026-04-04T10:29:16Z</time></trkpt><trkpt lat="45.041073141451626" lon="7.961589879993717"><ele>243.0</ele><time>2026-04-04T10:29:17Z</time></trkpt><trkpt lat="45.041112903584306" lon="7.961704187365737"><ele>243.0</ele><time>2026-04-04T10:29:19Z</time></trkpt><trkpt lat="45.04120028474864" lon="7.9616887868619"><ele>243.0</ele><time>2026-04-04T10:29:21Z</time></trkpt><trkpt lat="45.041297147566155" lon="7.961570599415207"><ele>243.0</ele><time>2026-04-04T10:29:23Z</time></trkpt><trkpt lat="45.04136297428571" lon="7.961492723209348"><ele>243.0</ele><time>2026-04-04T10:29:24Z</time></trkpt><trkpt lat="45.04143910309565" lon="7.961417862934936"><ele>243.0</ele><time>2026-04-04T10:29:25Z</time></trkpt><trkpt lat="45.04153274059038" lon="7.961341125816479"><ele>243.0</ele><time>2026-04-04T10:29:26Z</time></trkpt><trkpt lat="45.04162087501876" lon="7.961243357739376"><ele>243.0</ele><time>2026-04-04T10:29:27Z</time></trkpt><trkpt lat="45.04170290761452" lon="7.9611739192668445"><ele>242.8</ele><time>2026-04-04T10:29:28Z</time></trkpt><trkpt lat="45.04179017748465" lon="7.961098582712853"><ele>242.60000000000002</ele><time>2026-04-04T10:29:29Z</time></trkpt><trkpt lat="45.041871264103825" lon="7.961026582507092"><ele>242.39999999999998</ele><time>2026-04-04T10:29:30Z</time></trkpt><trkpt lat="45.04195550705891" lon="7.960950683825309"><ele>242.2</ele><time>2026-04-04T10:29:31Z</time></trkpt><trkpt lat="45.0420493145367" lon="7.960886910837441"><ele>242.0</ele><time>2026-04-04T10:29:32Z</time></trkpt><trkpt lat="45.042143769621056" lon="7.960849120096112"><ele>242.0</ele><time>2026-04-04T10:29:33Z</time></trkpt><trkpt lat="45.04224310317122" lon="7.960853525585796"><ele>242.0</ele><time>2026-04-04T10:29:34Z</time></trkpt><trkpt lat="45.042337435175" lon="7.960893635786264"><ele>242.0</ele><time>2026-04-04T10:29:35Z</time></trkpt><trkpt lat="45.04242367214397" lon="7.960972948618305"><ele>242.0</ele><time>2026-04-04T10:29:36Z</time></trkpt><trkpt lat="45.04251282349326" lon="7.961054772332735"><ele>242.0</ele><time>2026-04-04T10:29:37Z</time></trkpt><trkpt lat="45.04260203988481" lon="7.961129544813887"><ele>243.2</ele><time>2026-04-04T10:29:38Z</time></trkpt><trkpt lat="45.04268725640562" lon="7.961187954779269"><ele>244.39999999999998</ele><time>2026-04-04T10:29:39Z</time></trkpt><trkpt lat="45.04278082577387" lon="7.961207934229636"><ele>245.60000000000002</ele><time>2026-04-04T10:29:40Z</time></trkpt><trkpt lat="45.042869828094325" lon="7.961184011912258"><ele>246.8</ele><time>2026-04-04T10:29:41Z</time></trkpt><trkpt lat="45.04295974863008" lon="7.9611354112904005"><ele>248.0</ele><time>2026-04-04T10:29:42Z</time></trkpt><trkpt lat="45.04305288008685" lon="7.961072829053313"><ele>248.0</ele><time>2026-04-04T10:29:43Z</time></trkpt><trkpt lat="45.04315915211605" lon="7.961014312298551"><ele>248.0</ele><time>2026-04-04T10:29:44Z</time></trkpt><trkpt lat="45.04326635927079" lon="7.96097853251373"><ele>248.0</ele><time>2026-04-04T10:29:45Z</time></trkpt><trkpt lat="45.04338731917029" lon="7.96096100872101"><ele>248.0</ele><time>2026-04-04T10:29:46Z</time></trkpt><trkpt lat="45.043505769116706" lon="7.960919549985265"><ele>247.25</ele><time>2026-04-04T10:29:47Z</time></trkpt><trkpt lat="45.043632633315156" lon="7.960857123644447"><ele>246.5</ele><time>2026-04-04T10:29:48Z</time></trkpt><trkpt lat="45.04374819901128" lon="7.960765299304041"><ele>245.75</ele><time>2026-04-04T10:29:49Z</time></trkpt><trkpt lat="45.04384734595238" lon="7.960648710228343"><ele>245.0</ele><time>2026-04-04T10:29:50Z</time></trkpt><trkpt lat="45.04394360000994" lon="7.960548472691263"><ele>245.0</ele><time>2026-04-04T10:29:51Z</time></trkpt><trkpt lat="45.0440307524156" lon="7.960457998211587"><ele>245.0</ele><time>2026-04-04T10:29:52Z</time></trkpt><trkpt lat="45.04410086166807" lon="7.960390429975172"><ele>245.0</ele><time>2026-04-04T10:29:53Z</time></trkpt><trkpt lat="45.04416751591716" lon="7.960320158046061"><ele>245.0</ele><time>2026-04-04T10:29:54Z</time></trkpt><trkpt lat="45.04423416838963" lon="7.96022574229513"><ele>245.0</ele><time>2026-04-04T10:29:55Z</time></trkpt><trkpt lat="45.04429923393839" lon="7.960097713585584"><ele>244.0</ele><time>2026-04-04T10:29:56Z</time></trkpt><trkpt lat="45.04436577410541" lon="7.959943835363705"><ele>243.0</ele><time>2026-04-04T10:29:57Z</time></trkpt><trkpt lat="45.04444412765872" lon="7.959786842968892"><ele>242.0</ele><time>2026-04-04T10:29:58Z</time></trkpt><trkpt lat="45.04452679074517" lon="7.959620749187495"><ele>241.0</ele><time>2026-04-04T10:29:59Z</time></trkpt><trkpt lat="45.044612106401075" lon="7.959449829385224"><ele>241.0</ele><time>2026-04-04T10:30:00Z</time></trkpt><trkpt lat="45.04470876722356" lon="7.959264144420147"><ele>241.0</ele><time>2026-04-04T10:30:01Z</time></trkpt><trkpt lat="45.0448097420317" lon="7.959078162582689"><ele>241.0</ele><time>2026-04-04T10:30:02Z</time></trkpt><trkpt lat="45.044917512295015" lon="7.958881925959236"><ele>242.66666666666666</ele><time>2026-04-04T10:30:03Z</time></trkpt><trkpt lat="45.045027818231226" lon="7.9586929872710055"><ele>244.33333333333331</ele><time>2026-04-04T10:30:04Z</time></trkpt><trkpt lat="45.0451389747367" lon="7.958515667662481"><ele>246.0</ele><time>2026-04-04T10:30:05Z</time></trkpt><trkpt lat="45.04524486402884" lon="7.958350160099029"><ele>246.25</ele><time>2026-04-04T10:30:06Z</time></trkpt><trkpt lat="45.045345196648064" lon="7.958199365512963"><ele>246.5</ele><time>2026-04-04T10:30:07Z</time></trkpt><trkpt lat="45.04543779890174" lon="7.9580594095213835"><ele>246.75</ele><time>2026-04-04T10:30:08Z</time></trkpt><trkpt lat="45.04552879654159" lon="7.957930097970915"><ele>247.0</ele><time>2026-04-04T10:30:09Z</time></trkpt><trkpt lat="45.04562416317955" lon="7.957798459397737"><ele>247.0</ele><time>2026-04-04T10:30:10Z</time></trkpt><trkpt lat="45.045726965557876" lon="7.957659479770994"><ele>247.0</ele><time>2026-04-04T10:30:11Z</time></trkpt><trkpt lat="45.04583537149109" lon="7.957521887493909"><ele>247.0</ele><time>2026-04-04T10:30:12Z</time></trkpt><trkpt lat="45.04595128823592" lon="7.957385724550802"><ele>247.0</ele><time>2026-04-04T10:30:13Z</time></trkpt><trkpt lat="45.04607340407468" lon="7.957246289221761"><ele>247.66666666666666</ele><time>2026-04-04T10:30:14Z</time></trkpt><trkpt lat="45.04619736984936" lon="7.957108714631066"><ele>248.33333333333331</ele><time>2026-04-04T10:30:15Z</time></trkpt><trkpt lat="45.04632426289174" lon="7.956974245240641"><ele>249.0</ele><time>2026-04-04T10:30:16Z</time></trkpt><trkpt lat="45.046456517696896" lon="7.956852790710724"><ele>249.0</ele><time>2026-04-04T10:30:17Z</time></trkpt><trkpt lat="45.046588253827046" lon="7.956746671027667"><ele>249.0</ele><time>2026-04-04T10:30:18Z</time></trkpt><trkpt lat="45.04671821405425" lon="7.956665496254388"><ele>249.0</ele><time>2026-04-04T10:30:19Z</time></trkpt><trkpt lat="45.04685042726884" lon="7.956611299336007"><ele>249.0</ele><time>2026-04-04T10:30:20Z</time></trkpt><trkpt lat="45.046992058013714" lon="7.956613666497834"><ele>249.66666666666669</ele><time>2026-04-04T10:30:21Z</time></trkpt><trkpt lat="45.04713605583603" lon="7.956619184120586"><ele>250.33333333333334</ele><time>2026-04-04T10:30:22Z</time></trkpt><trkpt lat="45.047291688384895" lon="7.9566151068061535"><ele>251.0</ele><time>2026-04-04T10:30:23Z</time></trkpt><trkpt lat="45.04744262371148" lon="7.95657173431917"><ele>252.33333333333334</ele><time>2026-04-04T10:30:24Z</time></trkpt><trkpt lat="45.047601448643725" lon="7.956550076280852"><ele>253.66666666666669</ele><time>2026-04-04T10:30:25Z</time></trkpt><trkpt lat="45.04777463473217" lon="7.956486639280775"><ele>255.0</ele><time>2026-04-04T10:30:26Z</time></trkpt><trkpt lat="45.04795645815699" lon="7.956407712315587"><ele>255.0</ele><time>2026-04-04T10:30:27Z</time></trkpt><trkpt lat="45.04814106387756" lon="7.95630821624948"><ele>255.0</ele><time>2026-04-04T10:30:28Z</time></trkpt><trkpt lat="45.04832302072759" lon="7.956177960561829"><ele>255.0</ele><time>2026-04-04T10:30:29Z</time></trkpt><trkpt lat="45.048501755179764" lon="7.956021435578186"><ele>254.66666666666669</ele><time>2026-04-04T10:30:30Z</time></trkpt><trkpt lat="45.048657027534574" lon="7.955832025137632"><ele>254.33333333333334</ele><time>2026-04-04T10:30:31Z</time></trkpt><trkpt lat="45.048829415314245" lon="7.955667456844762"><ele>254.0</ele><time>2026-04-04T10:30:32Z</time></trkpt><trkpt lat="45.04899470138901" lon="7.9554901525486"><ele>254.0</ele><time>2026-04-04T10:30:33Z</time></trkpt><trkpt lat="45.04914511705654" lon="7.955301008617506"><ele>254.0</ele><time>2026-04-04T10:30:34Z</time></trkpt><trkpt lat="45.04930999112011" lon="7.95516285573268"><ele>254.0</ele><time>2026-04-04T10:30:35Z</time></trkpt><trkpt lat="45.04946946838981" lon="7.955023378811774"><ele>254.0</ele><time>2026-04-04T10:30:36Z</time></trkpt><trkpt lat="45.04963831729681" lon="7.954876147751343"><ele>254.0</ele><time>2026-04-04T10:30:37Z</time></trkpt><trkpt lat="45.04978588070413" lon="7.954683421231454"><ele>254.0</ele><time>2026-04-04T10:30:38Z</time></trkpt><trkpt lat="45.049929280961365" lon="7.954473305524317"><ele>254.33333333333334</ele><time>2026-04-04T10:30:39Z</time></trkpt><trkpt lat="45.05007053289695" lon="7.954286542970301"><ele>254.66666666666669</ele><time>2026-04-04T10:30:40Z</time></trkpt><trkpt lat="45.0502044693122" lon="7.954123952294223"><ele>255.0</ele><time>2026-04-04T10:30:41Z</time></trkpt><trkpt lat="45.05035592925678" lon="7.954016400935886"><ele>255.0</ele><time>2026-04-04T10:30:42Z</time></trkpt><trkpt lat="45.05051823559267" lon="7.95391802730831"><ele>255.0</ele><time>2026-04-04T10:30:43Z</time></trkpt><trkpt lat="45.05065999685346" lon="7.953785722558554"><ele>255.0</ele><time>2026-04-04T10:30:44Z</time></trkpt><trkpt lat="45.05080413714342" lon="7.953651305244267"><ele>255.66666666666669</ele><time>2026-04-04T10:30:45Z</time></trkpt><trkpt lat="45.050944165529295" lon="7.953525839587848"><ele>256.33333333333337</ele><time>2026-04-04T10:30:46Z</time></trkpt><trkpt lat="45.05108924614899" lon="7.953434150831944"><ele>257.0</ele><time>2026-04-04T10:30:47Z</time></trkpt><trkpt lat="45.051236483871556" lon="7.9533654593477685"><ele>257.0</ele><time>2026-04-04T10:30:48Z</time></trkpt><trkpt lat="45.05139722145136" lon="7.953355092725963"><ele>257.0</ele><time>2026-04-04T10:30:49Z</time></trkpt><trkpt lat="45.05157030972776" lon="7.953343922415263"><ele>257.0</ele><time>2026-04-04T10:30:50Z</time></trkpt><trkpt lat="45.051752504665956" lon="7.953340692311774"><ele>257.33333333333337</ele><time>2026-04-04T10:30:51Z</time></trkpt><trkpt lat="45.0519343655708" lon="7.953345130879894"><ele>257.6666666666667</ele><time>2026-04-04T10:30:52Z</time></trkpt><trkpt lat="45.052122853449376" lon="7.953337557168106"><ele>258.0</ele><time>2026-04-04T10:30:53Z</time></trkpt><trkpt lat="45.05230624879468" lon="7.953369698100039"><ele>264.3333333333333</ele><time>2026-04-04T10:30:54Z</time></trkpt><trkpt lat="45.05249376343627" lon="7.95339826877318"><ele>270.66666666666663</ele><time>2026-04-04T10:30:55Z</time></trkpt><trkpt lat="45.05267657884381" lon="7.953427543401558"><ele>277.0</ele><time>2026-04-04T10:30:56Z</time></trkpt><trkpt lat="45.052853529195566" lon="7.953467984650353"><ele>277.0</ele><time>2026-04-04T10:30:57Z</time></trkpt><trkpt lat="45.05302948780079" lon="7.953507441945225"><ele>277.0</ele><time>2026-04-04T10:30:58Z</time></trkpt><trkpt lat="45.05320316729282" lon="7.953538257182762"><ele>277.0</ele><time>2026-04-04T10:30:59Z</time></trkpt><trkpt lat="45.05337401930489" lon="7.9535537324656245"><ele>274.3333333333333</ele><time>2026-04-04T10:31:00Z</time></trkpt><trkpt lat="45.05353887250544" lon="7.95352770707077"><ele>271.6666666666667</ele><time>2026-04-04T10:31:01Z</time></trkpt><trkpt lat="45.053707576876675" lon="7.953447892439482"><ele>269.0</ele><time>2026-04-04T10:31:02Z</time></trkpt><trkpt lat="45.05386103686817" lon="7.953319370278678"><ele>266.6666666666667</ele><time>2026-04-04T10:31:03Z</time></trkpt><trkpt lat="45.054014961972186" lon="7.95321800362014"><ele>264.3333333333333</ele><time>2026-04-04T10:31:04Z</time></trkpt><trkpt lat="45.05416001487869" lon="7.953134740547875"><ele>262.0</ele><time>2026-04-04T10:31:05Z</time></trkpt><trkpt lat="45.054313350863694" lon="7.953109486042648"><ele>262.0</ele><time>2026-04-04T10:31:06Z</time></trkpt><trkpt lat="45.05447558692932" lon="7.953106338483741"><ele>262.0</ele><time>2026-04-04T10:31:07Z</time></trkpt><trkpt lat="45.05464796939724" lon="7.953113719465982"><ele>262.0</ele><time>2026-04-04T10:31:08Z</time></trkpt><trkpt lat="45.054822640327956" lon="7.953122918669676"><ele>262.66666666666663</ele><time>2026-04-04T10:31:09Z</time></trkpt><trkpt lat="45.05500395919642" lon="7.95313185350803"><ele>263.3333333333333</ele><time>2026-04-04T10:31:10Z</time></trkpt><trkpt lat="45.055174562472615" lon="7.953136565141515"><ele>264.0</ele><time>2026-04-04T10:31:11Z</time></trkpt><trkpt lat="45.055354113185636" lon="7.953131870839884"><ele>264.0</ele><time>2026-04-04T10:31:12Z</time></trkpt><trkpt lat="45.055527317123456" lon="7.953114572819242"><ele>264.0</ele><time>2026-04-04T10:31:13Z</time></trkpt><trkpt lat="45.055694566496236" lon="7.953057960837833"><ele>264.0</ele><time>2026-04-04T10:31:14Z</time></trkpt><trkpt lat="45.05585737235242" lon="7.952990400393413"><ele>265.0</ele><time>2026-04-04T10:31:15Z</time></trkpt><trkpt lat="45.05601821386208" lon="7.952897237601999"><ele>266.0</ele><time>2026-04-04T10:31:16Z</time></trkpt><trkpt lat="45.05618945720265" lon="7.952824471286573"><ele>267.0</ele><time>2026-04-04T10:31:17Z</time></trkpt><trkpt lat="45.0563569226933" lon="7.952739148895548"><ele>267.0</ele><time>2026-04-04T10:31:18Z</time></trkpt><trkpt lat="45.05651518824802" lon="7.9526663660364685"><ele>267.0</ele><time>2026-04-04T10:31:19Z</time></trkpt><trkpt lat="45.0566750076878" lon="7.952616564712989"><ele>267.0</ele><time>2026-04-04T10:31:20Z</time></trkpt><trkpt lat="45.05684046529688" lon="7.952583537598438"><ele>267.0</ele><time>2026-04-04T10:31:21Z</time></trkpt><trkpt lat="45.05701270914335" lon="7.952546277866865"><ele>267.0</ele><time>2026-04-04T10:31:22Z</time></trkpt><trkpt lat="45.05717987944975" lon="7.952494825539202"><ele>267.0</ele><time>2026-04-04T10:31:23Z</time></trkpt><trkpt lat="45.057338263319174" lon="7.952450481203286"><ele>266.0</ele><time>2026-04-04T10:31:24Z</time></trkpt><trkpt lat="45.05747735479554" lon="7.952364758672445"><ele>265.0</ele><time>2026-04-04T10:31:25Z</time></trkpt><trkpt lat="45.05760884547734" lon="7.952243276449202"><ele>264.0</ele><time>2026-04-04T10:31:26Z</time></trkpt><trkpt lat="45.05771961557928" lon="7.952081236626572"><ele>264.0</ele><time>2026-04-04T10:31:27Z</time></trkpt><trkpt lat="45.057821651169945" lon="7.951903861463839"><ele>264.0</ele><time>2026-04-04T10:31:28Z</time></trkpt><trkpt lat="45.05791329382128" lon="7.951734673776137"><ele>264.0</ele><time>2026-04-04T10:31:29Z</time></trkpt><trkpt lat="45.05800385036343" lon="7.951565803513952"><ele>263.0</ele><time>2026-04-04T10:31:30Z</time></trkpt><trkpt lat="45.058099891020774" lon="7.951398976280451"><ele>262.0</ele><time>2026-04-04T10:31:31Z</time></trkpt><trkpt lat="45.058209580500375" lon="7.951261232722732"><ele>261.0</ele><time>2026-04-04T10:31:32Z</time></trkpt><trkpt lat="45.058307618065825" lon="7.95111675136884"><ele>260.0</ele><time>2026-04-04T10:31:33Z</time></trkpt><trkpt lat="45.05840905182088" lon="7.9509762180143975"><ele>261.6666666666667</ele><time>2026-04-04T10:31:34Z</time></trkpt><trkpt lat="45.05854848632796" lon="7.950908076334425"><ele>263.3333333333333</ele><time>2026-04-04T10:31:35Z</time></trkpt><trkpt lat="45.058691329666296" lon="7.950827763063156"><ele>265.0</ele><time>2026-04-04T10:31:36Z</time></trkpt><trkpt lat="45.058831050187244" lon="7.950724504344834"><ele>265.0</ele><time>2026-04-04T10:31:37Z</time></trkpt><trkpt lat="45.058975096379825" lon="7.950647342276479"><ele>265.0</ele><time>2026-04-04T10:31:38Z</time></trkpt><trkpt lat="45.05911234859549" lon="7.950547465553133"><ele>265.0</ele><time>2026-04-04T10:31:39Z</time></trkpt><trkpt lat="45.0592382980117" lon="7.950415708033158"><ele>266.3333333333333</ele><time>2026-04-04T10:31:40Z</time></trkpt><trkpt lat="45.05936065628416" lon="7.950260708963089"><ele>267.6666666666667</ele><time>2026-04-04T10:31:41Z</time></trkpt><trkpt lat="45.05947280732278" lon="7.9500965137375665"><ele>269.0</ele><time>2026-04-04T10:31:42Z</time></trkpt><trkpt lat="45.0595761289262" lon="7.949943013135093"><ele>269.0</ele><time>2026-04-04T10:31:43Z</time></trkpt><trkpt lat="45.05966752123506" lon="7.949809855382306"><ele>269.0</ele><time>2026-04-04T10:31:44Z</time></trkpt><trkpt lat="45.05976356234895" lon="7.949686999616948"><ele>269.0</ele><time>2026-04-04T10:31:45Z</time></trkpt><trkpt lat="45.059893828107896" lon="7.949616685617972"><ele>269.0</ele><time>2026-04-04T10:31:46Z</time></trkpt><trkpt lat="45.06003030156978" lon="7.94952344410173"><ele>271.6666666666667</ele><time>2026-04-04T10:31:47Z</time></trkpt><trkpt lat="45.060169233815365" lon="7.94940779790588"><ele>274.3333333333333</ele><time>2026-04-04T10:31:48Z</time></trkpt><trkpt lat="45.06031605371653" lon="7.949310556246812"><ele>277.0</ele><time>2026-04-04T10:31:49Z</time></trkpt><trkpt lat="45.06046360256068" lon="7.949217291826776"><ele>276.3333333333333</ele><time>2026-04-04T10:31:50Z</time></trkpt><trkpt lat="45.06060439361832" lon="7.949120261588778"><ele>275.6666666666667</ele><time>2026-04-04T10:31:51Z</time></trkpt><trkpt lat="45.06073994704262" lon="7.94901382599994"><ele>275.0</ele><time>2026-04-04T10:31:52Z</time></trkpt><trkpt lat="45.060871885257924" lon="7.9488957794543635"><ele>275.0</ele><time>2026-04-04T10:31:53Z</time></trkpt><trkpt lat="45.060990693772176" lon="7.9487501548017425"><ele>275.0</ele><time>2026-04-04T10:31:54Z</time></trkpt><trkpt lat="45.061098174108146" lon="7.9485737934712475"><ele>275.0</ele><time>2026-04-04T10:31:55Z</time></trkpt><trkpt lat="45.06120305918297" lon="7.948395558779886"><ele>272.6666666666667</ele><time>2026-04-04T10:31:56Z</time></trkpt><trkpt lat="45.061313733598325" lon="7.9482169073227915"><ele>270.3333333333333</ele><time>2026-04-04T10:31:57Z</time></trkpt><trkpt lat="45.06143053590545" lon="7.948048989992413"><ele>268.0</ele><time>2026-04-04T10:31:58Z</time></trkpt><trkpt lat="45.06157912657529" lon="7.947925902606415"><ele>271.66666666666663</ele><time>2026-04-04T10:31:59Z</time></trkpt><trkpt lat="45.06171634958868" lon="7.947810068710947"><ele>275.3333333333333</ele><time>2026-04-04T10:32:00Z</time></trkpt><trkpt lat="45.06185215624545" lon="7.947701104543855"><ele>279.0</ele><time>2026-04-04T10:32:01Z</time></trkpt><trkpt lat="45.061979738861574" lon="7.947620210141494"><ele>279.0</ele><time>2026-04-04T10:32:02Z</time></trkpt><trkpt lat="45.062100633691806" lon="7.947576504330602"><ele>279.0</ele><time>2026-04-04T10:32:03Z</time></trkpt><trkpt lat="45.062220768950546" lon="7.947563846236428"><ele>279.0</ele><time>2026-04-04T10:32:04Z</time></trkpt><trkpt lat="45.062345571377264" lon="7.947569079711476"><ele>279.0</ele><time>2026-04-04T10:32:05Z</time></trkpt><trkpt lat="45.06247738521396" lon="7.947592554922607"><ele>280.75</ele><time>2026-04-04T10:32:06Z</time></trkpt><trkpt lat="45.06260898832793" lon="7.9476318549797975"><ele>282.5</ele><time>2026-04-04T10:32:07Z</time></trkpt><trkpt lat="45.06275375050807" lon="7.9476466831075205"><ele>284.25</ele><time>2026-04-04T10:32:08Z</time></trkpt><trkpt lat="45.06289443684388" lon="7.947701110897826"><ele>286.0</ele><time>2026-04-04T10:32:09Z</time></trkpt><trkpt lat="45.06302844427226" lon="7.947778995569754"><ele>286.0</ele><time>2026-04-04T10:32:10Z</time></trkpt><trkpt lat="45.06315946692612" lon="7.947853785728111"><ele>286.0</ele><time>2026-04-04T10:32:11Z</time></trkpt><trkpt lat="45.063298710528755" lon="7.9479021072957"><ele>286.0</ele><time>2026-04-04T10:32:12Z</time></trkpt><trkpt lat="45.06343950897929" lon="7.947926846112834"><ele>286.0</ele><time>2026-04-04T10:32:13Z</time></trkpt><trkpt lat="45.06358025249974" lon="7.9479410429533175"><ele>283.75</ele><time>2026-04-04T10:32:14Z</time></trkpt><trkpt lat="45.063713221342965" lon="7.947950008084432"><ele>281.5</ele><time>2026-04-04T10:32:15Z</time></trkpt><trkpt lat="45.063844326280226" lon="7.9479552238445415"><ele>279.25</ele><time>2026-04-04T10:32:16Z</time></trkpt><trkpt lat="45.06397080525577" lon="7.947970923042728"><ele>277.0</ele><time>2026-04-04T10:32:17Z</time></trkpt><trkpt lat="45.06409970209914" lon="7.94788576873662"><ele>276.0</ele><time>2026-04-04T10:32:18Z</time></trkpt><trkpt lat="45.06423134272608" lon="7.947788876722411"><ele>275.0</ele><time>2026-04-04T10:32:19Z</time></trkpt><trkpt lat="45.06435647839003" lon="7.947655848471623"><ele>274.0</ele><time>2026-04-04T10:32:20Z</time></trkpt><trkpt lat="45.06447049323943" lon="7.947493199315529"><ele>272.0</ele><time>2026-04-04T10:32:21Z</time></trkpt><trkpt lat="45.064566442384674" lon="7.9472961715416695"><ele>270.0</ele><time>2026-04-04T10:32:22Z</time></trkpt><trkpt lat="45.064650741841135" lon="7.947090876379795"><ele>268.0</ele><time>2026-04-04T10:32:23Z</time></trkpt><trkpt lat="45.06475664910131" lon="7.946915404768365"><ele>268.0</ele><time>2026-04-04T10:32:24Z</time></trkpt><trkpt lat="45.0648587261735" lon="7.946749450709188"><ele>268.0</ele><time>2026-04-04T10:32:25Z</time></trkpt><trkpt lat="45.064970792614155" lon="7.94661512939063"><ele>268.0</ele><time>2026-04-04T10:32:26Z</time></trkpt><trkpt lat="45.06509995644774" lon="7.946527139776379"><ele>268.0</ele><time>2026-04-04T10:32:27Z</time></trkpt><trkpt lat="45.065243930050286" lon="7.946464547317645"><ele>269.0</ele><time>2026-04-04T10:32:28Z</time></trkpt><trkpt lat="45.065397277174505" lon="7.946412357788182"><ele>270.0</ele><time>2026-04-04T10:32:29Z</time></trkpt><trkpt lat="45.06554961151315" lon="7.9463697933507405"><ele>271.0</ele><time>2026-04-04T10:32:30Z</time></trkpt><trkpt lat="45.065688836222456" lon="7.946372864423626"><ele>272.25</ele><time>2026-04-04T10:32:31Z</time></trkpt><trkpt lat="45.065816097645694" lon="7.946433458008218"><ele>273.5</ele><time>2026-04-04T10:32:32Z</time></trkpt><trkpt lat="45.0659522815835" lon="7.946527465536682"><ele>274.75</ele><time>2026-04-04T10:32:33Z</time></trkpt><trkpt lat="45.06609780793153" lon="7.946594432362501"><ele>276.0</ele><time>2026-04-04T10:32:34Z</time></trkpt><trkpt lat="45.06624369933914" lon="7.946646021551698"><ele>276.0</ele><time>2026-04-04T10:32:35Z</time></trkpt><trkpt lat="45.06640089009191" lon="7.946643551652263"><ele>276.0</ele><time>2026-04-04T10:32:36Z</time></trkpt><trkpt lat="45.06656616988708" lon="7.94660700252044"><ele>276.0</ele><time>2026-04-04T10:32:37Z</time></trkpt><trkpt lat="45.06672596440273" lon="7.946570917175041"><ele>276.6666666666667</ele><time>2026-04-04T10:32:38Z</time></trkpt><trkpt lat="45.066892585309795" lon="7.946534012586917"><ele>277.33333333333337</ele><time>2026-04-04T10:32:39Z</time></trkpt><trkpt lat="45.067055054967426" lon="7.9464924381187005"><ele>278.0</ele><time>2026-04-04T10:32:40Z</time></trkpt><trkpt lat="45.06721027485885" lon="7.946410215430352"><ele>278.0</ele><time>2026-04-04T10:32:41Z</time></trkpt><trkpt lat="45.06735124903334" lon="7.946281383478955"><ele>278.0</ele><time>2026-04-04T10:32:42Z</time></trkpt><trkpt lat="45.0674792564048" lon="7.946107338451127"><ele>278.0</ele><time>2026-04-04T10:32:43Z</time></trkpt><trkpt lat="45.06759410339677" lon="7.945912114724183"><ele>278.0</ele><time>2026-04-04T10:32:44Z</time></trkpt><trkpt lat="45.06769147670214" lon="7.945693426134174"><ele>278.0</ele><time>2026-04-04T10:32:45Z</time></trkpt><trkpt lat="45.0677901845831" lon="7.945475006324786"><ele>278.0</ele><time>2026-04-04T10:32:46Z</time></trkpt><trkpt lat="45.0678801365106" lon="7.945248790171976"><ele>277.0</ele><time>2026-04-04T10:32:47Z</time></trkpt><trkpt lat="45.067971142150604" lon="7.945025110904021"><ele>276.0</ele><time>2026-04-04T10:32:48Z</time></trkpt><trkpt lat="45.0680783086292" lon="7.9448251377766494"><ele>275.0</ele><time>2026-04-04T10:32:49Z</time></trkpt><trkpt lat="45.06817210765929" lon="7.944638349178253"><ele>277.25</ele><time>2026-04-04T10:32:50Z</time></trkpt><trkpt lat="45.068278165167364" lon="7.944478051851429"><ele>279.5</ele><time>2026-04-04T10:32:51Z</time></trkpt><trkpt lat="45.06839652412415" lon="7.944360822833469"><ele>281.75</ele><time>2026-04-04T10:32:52Z</time></trkpt><trkpt lat="45.06852503604867" lon="7.9442760855607695"><ele>284.0</ele><time>2026-04-04T10:32:53Z</time></trkpt><trkpt lat="45.068653469078434" lon="7.94423434926497"><ele>283.0</ele><time>2026-04-04T10:32:54Z</time></trkpt><trkpt lat="45.06875625182305" lon="7.9441663615742035"><ele>282.0</ele><time>2026-04-04T10:32:55Z</time></trkpt><trkpt lat="45.06885376186302" lon="7.944113176252883"><ele>281.0</ele><time>2026-04-04T10:32:56Z</time></trkpt><trkpt lat="45.06891847576374" lon="7.9440162574910715"><ele>280.0</ele><time>2026-04-04T10:32:57Z</time></trkpt><trkpt lat="45.068959901392994" lon="7.943877774696081"><ele>279.0</ele><time>2026-04-04T10:32:58Z</time></trkpt><trkpt lat="45.06897542859608" lon="7.94371366854891"><ele>279.0</ele><time>2026-04-04T10:32:59Z</time></trkpt><trkpt lat="45.06897679931365" lon="7.943541024351285"><ele>279.0</ele><time>2026-04-04T10:33:00Z</time></trkpt><trkpt lat="45.06898318229382" lon="7.9433549639693615"><ele>279.0</ele><time>2026-04-04T10:33:01Z</time></trkpt><trkpt lat="45.06899285285884" lon="7.943158313621797"><ele>279.0</ele><time>2026-04-04T10:33:02Z</time></trkpt><trkpt lat="45.06900235165489" lon="7.9429533819932265"><ele>278.3333333333333</ele><time>2026-04-04T10:33:03Z</time></trkpt><trkpt lat="45.06901503881928" lon="7.94274829143263"><ele>277.66666666666663</ele><time>2026-04-04T10:33:04Z</time></trkpt><trkpt lat="45.06902794247075" lon="7.942532418080489"><ele>277.0</ele><time>2026-04-04T10:33:05Z</time></trkpt><trkpt lat="45.06904140209215" lon="7.9423174610895915"><ele>278.0</ele><time>2026-04-04T10:33:06Z</time></trkpt><trkpt lat="45.06906638385598" lon="7.942104323071701"><ele>279.0</ele><time>2026-04-04T10:33:07Z</time></trkpt><trkpt lat="45.06910513172439" lon="7.941901798949509"><ele>280.0</ele><time>2026-04-04T10:33:08Z</time></trkpt><trkpt lat="45.06917498937671" lon="7.9417350834069635"><ele>281.0</ele><time>2026-04-04T10:33:09Z</time></trkpt><trkpt lat="45.06922749265846" lon="7.941563007435356"><ele>282.25</ele><time>2026-04-04T10:33:10Z</time></trkpt><trkpt lat="45.06929883555201" lon="7.9414318672079025"><ele>283.5</ele><time>2026-04-04T10:33:11Z</time></trkpt><trkpt lat="45.06935625059128" lon="7.94134435180681"><ele>284.75</ele><time>2026-04-04T10:33:12Z</time></trkpt><trkpt lat="45.06944977470823" lon="7.941278310662499"><ele>286.0</ele><time>2026-04-04T10:33:14Z</time></trkpt><trkpt lat="45.06937780050008" lon="7.941045750269652"><ele>286.0</ele><time>2026-04-04T10:33:16Z</time></trkpt><trkpt lat="45.06933753008687" lon="7.940941632997342"><ele>286.0</ele><time>2026-04-04T10:33:17Z</time></trkpt><trkpt lat="45.06928684636052" lon="7.940835077052768"><ele>286.0</ele><time>2026-04-04T10:33:18Z</time></trkpt><trkpt lat="45.069209501399286" lon="7.940759517271819"><ele>286.0</ele><time>2026-04-04T10:33:19Z</time></trkpt><trkpt lat="45.069105694137825" lon="7.9407452273732115"><ele>286.0</ele><time>2026-04-04T10:33:20Z</time></trkpt><trkpt lat="45.06899086316731" lon="7.94080019435235"><ele>286.75</ele><time>2026-04-04T10:33:21Z</time></trkpt><trkpt lat="45.068878990843864" lon="7.940928557819129"><ele>287.5</ele><time>2026-04-04T10:33:22Z</time></trkpt><trkpt lat="45.068760311919185" lon="7.941044151476492"><ele>288.25</ele><time>2026-04-04T10:33:23Z</time></trkpt><trkpt lat="45.06862280239013" lon="7.941150283408916"><ele>289.0</ele><time>2026-04-04T10:33:24Z</time></trkpt><trkpt lat="45.06847136377377" lon="7.941239527036299"><ele>289.0</ele><time>2026-04-04T10:33:25Z</time></trkpt><trkpt lat="45.06830056940118" lon="7.941341801649671"><ele>289.0</ele><time>2026-04-04T10:33:26Z</time></trkpt><trkpt lat="45.06814090934248" lon="7.941474454445783"><ele>289.0</ele><time>2026-04-04T10:33:27Z</time></trkpt><trkpt lat="45.06799116683503" lon="7.941627140833358"><ele>288.66666666666663</ele><time>2026-04-04T10:33:28Z</time></trkpt><trkpt lat="45.067824189811596" lon="7.941761933174821"><ele>288.3333333333333</ele><time>2026-04-04T10:33:29Z</time></trkpt><trkpt lat="45.067673913659355" lon="7.941932861488992"><ele>288.0</ele><time>2026-04-04T10:33:30Z</time></trkpt><trkpt lat="45.06751090394704" lon="7.942088640106919"><ele>287.3333333333333</ele><time>2026-04-04T10:33:31Z</time></trkpt><trkpt lat="45.06734827354919" lon="7.942246793218162"><ele>286.66666666666663</ele><time>2026-04-04T10:33:32Z</time></trkpt><trkpt lat="45.067188025642096" lon="7.942408400453394"><ele>286.0</ele><time>2026-04-04T10:33:33Z</time></trkpt><trkpt lat="45.06703816640615" lon="7.942550756708882"><ele>286.0</ele><time>2026-04-04T10:33:34Z</time></trkpt><trkpt lat="45.06690047860153" lon="7.942675548779793"><ele>286.0</ele><time>2026-04-04T10:33:35Z</time></trkpt><trkpt lat="45.066782055099665" lon="7.942765823369673"><ele>286.0</ele><time>2026-04-04T10:33:36Z</time></trkpt><trkpt lat="45.06667369276073" lon="7.942813793372123"><ele>286.0</ele><time>2026-04-04T10:33:37Z</time></trkpt><trkpt lat="45.06656980422741" lon="7.942803092536985"><ele>285.5</ele><time>2026-04-04T10:33:38Z</time></trkpt><trkpt lat="45.06647127345678" lon="7.942748153308467"><ele>285.0</ele><time>2026-04-04T10:33:39Z</time></trkpt><trkpt lat="45.066366018049735" lon="7.942655079674502"><ele>284.5</ele><time>2026-04-04T10:33:40Z</time></trkpt><trkpt lat="45.06624930037516" lon="7.942535532494492"><ele>284.0</ele><time>2026-04-04T10:33:41Z</time></trkpt><trkpt lat="45.06611468072338" lon="7.9424162693808835"><ele>284.33333333333337</ele><time>2026-04-04T10:33:42Z</time></trkpt><trkpt lat="45.065967595472635" lon="7.942302241134295"><ele>284.6666666666667</ele><time>2026-04-04T10:33:43Z</time></trkpt><trkpt lat="45.06580649842803" lon="7.942189496291479"><ele>285.0</ele><time>2026-04-04T10:33:44Z</time></trkpt><trkpt lat="45.06563753556808" lon="7.942075394158578"><ele>285.0</ele><time>2026-04-04T10:33:45Z</time></trkpt><trkpt lat="45.0654640154281" lon="7.94195812881548"><ele>285.0</ele><time>2026-04-04T10:33:46Z</time></trkpt><trkpt lat="45.06529045563462" lon="7.941835894700104"><ele>285.0</ele><time>2026-04-04T10:33:47Z</time></trkpt><trkpt lat="45.06511629407507" lon="7.941716267256259"><ele>289.3333333333333</ele><time>2026-04-04T10:33:48Z</time></trkpt><trkpt lat="45.06494137879116" lon="7.941599088829468"><ele>293.66666666666663</ele><time>2026-04-04T10:33:49Z</time></trkpt><trkpt lat="45.064768274835345" lon="7.941487176136467"><ele>298.0</ele><time>2026-04-04T10:33:50Z</time></trkpt><trkpt lat="45.06460321719673" lon="7.941371390098513"><ele>298.0</ele><time>2026-04-04T10:33:51Z</time></trkpt><trkpt lat="45.06444435657343" lon="7.941268105497027"><ele>298.0</ele><time>2026-04-04T10:33:52Z</time></trkpt><trkpt lat="45.06429203081975" lon="7.941176131469044"><ele>298.0</ele><time>2026-04-04T10:33:53Z</time></trkpt><trkpt lat="45.06414945067177" lon="7.941086050659757"><ele>298.5</ele><time>2026-04-04T10:33:54Z</time></trkpt><trkpt lat="45.0640249971053" lon="7.94097845775214"><ele>299.0</ele><time>2026-04-04T10:33:55Z</time></trkpt><trkpt lat="45.06390789719722" lon="7.940861579214097"><ele>299.5</ele><time>2026-04-04T10:33:56Z</time></trkpt><trkpt lat="45.063811345715386" lon="7.9407233339747645"><ele>300.0</ele><time>2026-04-04T10:33:57Z</time></trkpt><trkpt lat="45.06374616828173" lon="7.940572514141506"><ele>301.0</ele><time>2026-04-04T10:33:58Z</time></trkpt><trkpt lat="45.06372060644726" lon="7.9404219661574995"><ele>302.0</ele><time>2026-04-04T10:33:59Z</time></trkpt><trkpt lat="45.06374868122728" lon="7.940255605813227"><ele>303.0</ele><time>2026-04-04T10:34:00Z</time></trkpt><trkpt lat="45.06376008030604" lon="7.940078094203196"><ele>304.0</ele><time>2026-04-04T10:34:01Z</time></trkpt><trkpt lat="45.063789676666616" lon="7.939903469074401"><ele>305.4</ele><time>2026-04-04T10:34:02Z</time></trkpt><trkpt lat="45.063811448461806" lon="7.939731889943772"><ele>306.79999999999995</ele><time>2026-04-04T10:34:03Z</time></trkpt><trkpt lat="45.063825279182204" lon="7.939580211706906"><ele>308.20000000000005</ele><time>2026-04-04T10:34:04Z</time></trkpt><trkpt lat="45.06385450520239" lon="7.939445312242504"><ele>309.6</ele><time>2026-04-04T10:34:05Z</time></trkpt><trkpt lat="45.063867198415046" lon="7.939321132668902"><ele>311.0</ele><time>2026-04-04T10:34:06Z</time></trkpt><trkpt lat="45.06392538532818" lon="7.939234366744751"><ele>311.0</ele><time>2026-04-04T10:34:07Z</time></trkpt><trkpt lat="45.064014423069445" lon="7.939203454539231"><ele>311.0</ele><time>2026-04-04T10:34:08Z</time></trkpt><trkpt lat="45.06409908820478" lon="7.939253618221942"><ele>311.0</ele><time>2026-04-04T10:34:09Z</time></trkpt><trkpt lat="45.064165945553576" lon="7.93935410821921"><ele>311.0</ele><time>2026-04-04T10:34:10Z</time></trkpt><trkpt lat="45.06421498639252" lon="7.939497989937657"><ele>311.0</ele><time>2026-04-04T10:34:11Z</time></trkpt><trkpt lat="45.06428459841633" lon="7.939625570424789"><ele>311.2</ele><time>2026-04-04T10:34:12Z</time></trkpt><trkpt lat="45.06435509750325" lon="7.9397701338924715"><ele>311.40000000000003</ele><time>2026-04-04T10:34:13Z</time></trkpt><trkpt lat="45.06441204541639" lon="7.939895185865258"><ele>311.6</ele><time>2026-04-04T10:34:14Z</time></trkpt><trkpt lat="45.06447151338703" lon="7.939982767327151"><ele>311.8</ele><time>2026-04-04T10:34:15Z</time></trkpt><trkpt lat="45.06453913604907" lon="7.940016673575261"><ele>312.0</ele><time>2026-04-04T10:34:16Z</time></trkpt><trkpt lat="45.064639082299344" lon="7.939928093930981"><ele>312.0</ele><time>2026-04-04T10:34:18Z</time></trkpt><trkpt lat="45.06465098757614" lon="7.939812927741154"><ele>312.0</ele><time>2026-04-04T10:34:19Z</time></trkpt><trkpt lat="45.06465023118126" lon="7.93968605318204"><ele>312.0</ele><time>2026-04-04T10:34:20Z</time></trkpt><trkpt lat="45.06465652607382" lon="7.9395512891689535"><ele>312.0</ele><time>2026-04-04T10:34:21Z</time></trkpt><trkpt lat="45.064666524300726" lon="7.9394037184435415"><ele>312.0</ele><time>2026-04-04T10:34:22Z</time></trkpt><trkpt lat="45.06467660103895" lon="7.939244768775227"><ele>314.5</ele><time>2026-04-04T10:34:23Z</time></trkpt><trkpt lat="45.064685839399694" lon="7.93907536532071"><ele>317.0</ele><time>2026-04-04T10:34:24Z</time></trkpt><trkpt lat="45.064690660039815" lon="7.938904374054194"><ele>319.5</ele><time>2026-04-04T10:34:25Z</time></trkpt><trkpt lat="45.06468367745009" lon="7.938733948808277"><ele>322.0</ele><time>2026-04-04T10:34:26Z</time></trkpt><trkpt lat="45.06465779091345" lon="7.938574473008721"><ele>322.0</ele><time>2026-04-04T10:34:27Z</time></trkpt><trkpt lat="45.06461208853698" lon="7.938416582757697"><ele>322.0</ele><time>2026-04-04T10:34:28Z</time></trkpt><trkpt lat="45.06455323027876" lon="7.938263764589515"><ele>322.0</ele><time>2026-04-04T10:34:29Z</time></trkpt><trkpt lat="45.06447506622461" lon="7.938128394650941"><ele>322.0</ele><time>2026-04-04T10:34:30Z</time></trkpt><trkpt lat="45.06438961117085" lon="7.9380105748483"><ele>323.5</ele><time>2026-04-04T10:34:31Z</time></trkpt><trkpt lat="45.06430152561325" lon="7.93789577717507"><ele>325.0</ele><time>2026-04-04T10:34:32Z</time></trkpt><trkpt lat="45.064214723263696" lon="7.937776860512351"><ele>326.5</ele><time>2026-04-04T10:34:33Z</time></trkpt><trkpt lat="45.064124891559835" lon="7.937658785046849"><ele>328.0</ele><time>2026-04-04T10:34:34Z</time></trkpt><trkpt lat="45.06402997253031" lon="7.937552882606034"><ele>331.0</ele><time>2026-04-04T10:34:35Z</time></trkpt><trkpt lat="45.0639228020446" lon="7.937461052594116"><ele>334.0</ele><time>2026-04-04T10:34:36Z</time></trkpt><trkpt lat="45.0638247221107" lon="7.937365116952091"><ele>337.0</ele><time>2026-04-04T10:34:37Z</time></trkpt><trkpt lat="45.06375733012927" lon="7.937250860770016"><ele>340.0</ele><time>2026-04-04T10:34:38Z</time></trkpt><trkpt lat="45.063720251267945" lon="7.937110804777583"><ele>340.0</ele><time>2026-04-04T10:34:39Z</time></trkpt><trkpt lat="45.063688413051764" lon="7.936976679162491"><ele>340.0</ele><time>2026-04-04T10:34:40Z</time></trkpt><trkpt lat="45.06363101544484" lon="7.936897294824392"><ele>340.0</ele><time>2026-04-04T10:34:41Z</time></trkpt><trkpt lat="45.063559352256064" lon="7.936880499975235"><ele>340.0</ele><time>2026-04-04T10:34:42Z</time></trkpt><trkpt lat="45.06347846675354" lon="7.936897305642216"><ele>340.0</ele><time>2026-04-04T10:34:43Z</time></trkpt><trkpt lat="45.063382301008495" lon="7.936963037096227"><ele>340.0</ele><time>2026-04-04T10:34:44Z</time></trkpt><trkpt lat="45.06327634545754" lon="7.937059421019283"><ele>341.5</ele><time>2026-04-04T10:34:45Z</time></trkpt><trkpt lat="45.06316175226531" lon="7.937142560409995"><ele>343.0</ele><time>2026-04-04T10:34:46Z</time></trkpt><trkpt lat="45.06304538924489" lon="7.937218417191491"><ele>344.5</ele><time>2026-04-04T10:34:47Z</time></trkpt><trkpt lat="45.06293177691007" lon="7.937294347815621"><ele>346.0</ele><time>2026-04-04T10:34:48Z</time></trkpt><trkpt lat="45.06282215746111" lon="7.937363341220307"><ele>346.0</ele><time>2026-04-04T10:34:49Z</time></trkpt><trkpt lat="45.06272460273866" lon="7.937394679219581"><ele>346.0</ele><time>2026-04-04T10:34:50Z</time></trkpt><trkpt lat="45.06264928098336" lon="7.937372080867407"><ele>346.0</ele><time>2026-04-04T10:34:51Z</time></trkpt><trkpt lat="45.062602356052835" lon="7.937288804778065"><ele>346.0</ele><time>2026-04-04T10:34:52Z</time></trkpt><trkpt lat="45.062597660541435" lon="7.937170457847974"><ele>346.0</ele><time>2026-04-04T10:34:53Z</time></trkpt><trkpt lat="45.062623094034016" lon="7.9370454799103864"><ele>346.0</ele><time>2026-04-04T10:34:54Z</time></trkpt><trkpt lat="45.06266993071288" lon="7.936904787756615"><ele>346.0</ele><time>2026-04-04T10:34:55Z</time></trkpt><trkpt lat="45.06270610480214" lon="7.936755527001223"><ele>346.0</ele><time>2026-04-04T10:34:56Z</time></trkpt><trkpt lat="45.06273800251481" lon="7.9365931445523845"><ele>346.0</ele><time>2026-04-04T10:34:57Z</time></trkpt><trkpt lat="45.062761975899896" lon="7.936420962390465"><ele>346.0</ele><time>2026-04-04T10:34:58Z</time></trkpt><trkpt lat="45.06276968368323" lon="7.936250458779449"><ele>348.5</ele><time>2026-04-04T10:34:59Z</time></trkpt><trkpt lat="45.06274654050548" lon="7.936091508866398"><ele>351.0</ele><time>2026-04-04T10:35:00Z</time></trkpt><trkpt lat="45.06270231928121" lon="7.935925328939803"><ele>353.5</ele><time>2026-04-04T10:35:01Z</time></trkpt><trkpt lat="45.06265136957657" lon="7.935768607995705"><ele>356.0</ele><time>2026-04-04T10:35:02Z</time></trkpt><trkpt lat="45.06259838658073" lon="7.935648603672156"><ele>355.83333333333337</ele><time>2026-04-04T10:35:03Z</time></trkpt><trkpt lat="45.06253461393708" lon="7.935580963088124"><ele>355.6666666666667</ele><time>2026-04-04T10:35:04Z</time></trkpt><trkpt lat="45.06246389731414" lon="7.935579631550393"><ele>355.5</ele><time>2026-04-04T10:35:05Z</time></trkpt><trkpt lat="45.06239188945719" lon="7.935634204307405"><ele>355.3333333333333</ele><time>2026-04-04T10:35:06Z</time></trkpt><trkpt lat="45.062352569865176" lon="7.935741308187397"><ele>355.16666666666663</ele><time>2026-04-04T10:35:07Z</time></trkpt><trkpt lat="45.062333341068026" lon="7.935876015964994"><ele>355.0</ele><time>2026-04-04T10:35:08Z</time></trkpt><trkpt lat="45.06229479818859" lon="7.935979868232031"><ele>355.0</ele><time>2026-04-04T10:35:09Z</time></trkpt><trkpt lat="45.06223192109952" lon="7.936040107712869"><ele>355.0</ele><time>2026-04-04T10:35:10Z</time></trkpt><trkpt lat="45.062165408530575" lon="7.936019900860836"><ele>355.0</ele><time>2026-04-04T10:35:11Z</time></trkpt><trkpt lat="45.06208840164155" lon="7.936010803853708"><ele>355.0</ele><time>2026-04-04T10:35:13Z</time></trkpt><trkpt lat="45.062005625511944" lon="7.935946074951266"><ele>355.0</ele><time>2026-04-04T10:35:15Z</time></trkpt><trkpt lat="45.0619080361728" lon="7.936076975252076"><ele>355.0</ele><time>2026-04-04T10:35:16Z</time></trkpt><trkpt lat="45.0618262916493" lon="7.936129545961006"><ele>355.0</ele><time>2026-04-04T10:35:17Z</time></trkpt><trkpt lat="45.06172490337897" lon="7.936166113090674"><ele>355.0</ele><time>2026-04-04T10:35:18Z</time></trkpt><trkpt lat="45.06160191855666" lon="7.936150885417086"><ele>355.0</ele><time>2026-04-04T10:35:19Z</time></trkpt><trkpt lat="45.06147445119334" lon="7.936132515871996"><ele>355.0</ele><time>2026-04-04T10:35:20Z</time></trkpt><trkpt lat="45.0613455990544" lon="7.936097119020515"><ele>354.66666666666663</ele><time>2026-04-04T10:35:21Z</time></trkpt><trkpt lat="45.061200259481424" lon="7.936074671906409"><ele>354.3333333333333</ele><time>2026-04-04T10:35:22Z</time></trkpt><trkpt lat="45.061055240320286" lon="7.93602505928443"><ele>354.0</ele><time>2026-04-04T10:35:23Z</time></trkpt><trkpt lat="45.060904577523004" lon="7.935977523233772"><ele>354.3333333333333</ele><time>2026-04-04T10:35:24Z</time></trkpt><trkpt lat="45.06075240917869" lon="7.93593643774062"><ele>354.66666666666663</ele><time>2026-04-04T10:35:25Z</time></trkpt><trkpt lat="45.06060132731756" lon="7.935899876277266"><ele>355.0</ele><time>2026-04-04T10:35:26Z</time></trkpt><trkpt lat="45.060452474668686" lon="7.935871038893776"><ele>355.0</ele><time>2026-04-04T10:35:27Z</time></trkpt><trkpt lat="45.06031112575918" lon="7.935844661421193"><ele>355.0</ele><time>2026-04-04T10:35:28Z</time></trkpt><trkpt lat="45.06017505951664" lon="7.935808109888704"><ele>355.0</ele><time>2026-04-04T10:35:29Z</time></trkpt><trkpt lat="45.060039293981845" lon="7.935810069653277"><ele>355.0</ele><time>2026-04-04T10:35:30Z</time></trkpt><trkpt lat="45.059907785711786" lon="7.935831344763963"><ele>354.25</ele><time>2026-04-04T10:35:31Z</time></trkpt><trkpt lat="45.0597786635461" lon="7.935889441096129"><ele>353.5</ele><time>2026-04-04T10:35:32Z</time></trkpt><trkpt lat="45.05965574380295" lon="7.935985829310293"><ele>352.75</ele><time>2026-04-04T10:35:33Z</time></trkpt><trkpt lat="45.05953696355419" lon="7.936103571817423"><ele>352.0</ele><time>2026-04-04T10:35:34Z</time></trkpt><trkpt lat="45.059417425148" lon="7.936194571661323"><ele>352.0</ele><time>2026-04-04T10:35:35Z</time></trkpt><trkpt lat="45.05931425254976" lon="7.93630179672718"><ele>352.0</ele><time>2026-04-04T10:35:36Z</time></trkpt><trkpt lat="45.05920890614081" lon="7.936354701640203"><ele>352.0</ele><time>2026-04-04T10:35:37Z</time></trkpt><trkpt lat="45.05909581988201" lon="7.936351469219516"><ele>352.0</ele><time>2026-04-04T10:35:38Z</time></trkpt><trkpt lat="45.05897383838434" lon="7.9362961169806105"><ele>351.66666666666663</ele><time>2026-04-04T10:35:39Z</time></trkpt><trkpt lat="45.058843155838744" lon="7.936205424573337"><ele>351.3333333333333</ele><time>2026-04-04T10:35:40Z</time></trkpt><trkpt lat="45.05870639181481" lon="7.936117848549938"><ele>351.0</ele><time>2026-04-04T10:35:41Z</time></trkpt><trkpt lat="45.05855755444896" lon="7.936039425905264"><ele>351.0</ele><time>2026-04-04T10:35:42Z</time></trkpt><trkpt lat="45.05841043576443" lon="7.935960002795626"><ele>351.0</ele><time>2026-04-04T10:35:43Z</time></trkpt><trkpt lat="45.05825551358527" lon="7.9358968090466515"><ele>351.0</ele><time>2026-04-04T10:35:44Z</time></trkpt><trkpt lat="45.058090659050045" lon="7.93584674466366"><ele>347.0</ele><time>2026-04-04T10:35:45Z</time></trkpt><trkpt lat="45.0579121283544" lon="7.935805274305155"><ele>343.0</ele><time>2026-04-04T10:35:46Z</time></trkpt><trkpt lat="45.057729012464655" lon="7.935773091685441"><ele>339.0</ele><time>2026-04-04T10:35:47Z</time></trkpt><trkpt lat="45.05754867951557" lon="7.935734684607947"><ele>338.0</ele><time>2026-04-04T10:35:48Z</time></trkpt><trkpt lat="45.05736455303728" lon="7.935692590501593"><ele>337.0</ele><time>2026-04-04T10:35:49Z</time></trkpt><trkpt lat="45.05717774902482" lon="7.93565536864422"><ele>336.0</ele><time>2026-04-04T10:35:50Z</time></trkpt><trkpt lat="45.056985499358746" lon="7.935618350876064"><ele>336.0</ele><time>2026-04-04T10:35:51Z</time></trkpt><trkpt lat="45.056790507588396" lon="7.935586059358"><ele>336.0</ele><time>2026-04-04T10:35:52Z</time></trkpt><trkpt lat="45.056601448206784" lon="7.935570713986616"><ele>336.0</ele><time>2026-04-04T10:35:53Z</time></trkpt><trkpt lat="45.05640765274394" lon="7.935578701485782"><ele>336.3333333333333</ele><time>2026-04-04T10:35:54Z</time></trkpt><trkpt lat="45.05621227510132" lon="7.935614024608303"><ele>336.66666666666663</ele><time>2026-04-04T10:35:55Z</time></trkpt><trkpt lat="45.05601622074475" lon="7.935673372683394"><ele>337.0</ele><time>2026-04-04T10:35:56Z</time></trkpt><trkpt lat="45.05582171596203" lon="7.93575412562941"><ele>337.3333333333333</ele><time>2026-04-04T10:35:57Z</time></trkpt><trkpt lat="45.05562263806117" lon="7.935838609437466"><ele>337.6666666666667</ele><time>2026-04-04T10:35:58Z</time></trkpt><trkpt lat="45.055423760631186" lon="7.935920342733656"><ele>338.0</ele><time>2026-04-04T10:35:59Z</time></trkpt><trkpt lat="45.05522230015109" lon="7.93600588380541"><ele>338.0</ele><time>2026-04-04T10:36:00Z</time></trkpt><trkpt lat="45.05501724552844" lon="7.936097402750925"><ele>338.0</ele><time>2026-04-04T10:36:01Z</time></trkpt><trkpt lat="45.05481039263484" lon="7.936192275085045"><ele>338.0</ele><time>2026-04-04T10:36:02Z</time></trkpt><trkpt lat="45.054604273849584" lon="7.936292297156271"><ele>335.5</ele><time>2026-04-04T10:36:03Z</time></trkpt><trkpt lat="45.054387060977085" lon="7.936396359682363"><ele>333.0</ele><time>2026-04-04T10:36:04Z</time></trkpt><trkpt lat="45.054170128839516" lon="7.936493312780451"><ele>332.6666666666667</ele><time>2026-04-04T10:36:05Z</time></trkpt><trkpt lat="45.053954482377435" lon="7.936582840870309"><ele>332.33333333333337</ele><time>2026-04-04T10:36:06Z</time></trkpt><trkpt lat="45.05374396569747" lon="7.936674600068338"><ele>332.0</ele><time>2026-04-04T10:36:07Z</time></trkpt><trkpt lat="45.053529330620684" lon="7.936768570584811"><ele>332.6666666666667</ele><time>2026-04-04T10:36:08Z</time></trkpt><trkpt lat="45.05331365567422" lon="7.936862753649893"><ele>333.3333333333333</ele><time>2026-04-04T10:36:09Z</time></trkpt><trkpt lat="45.05310022330396" lon="7.9369517009879615"><ele>334.0</ele><time>2026-04-04T10:36:10Z</time></trkpt><trkpt lat="45.05288557794954" lon="7.937025176007306"><ele>334.0</ele><time>2026-04-04T10:36:11Z</time></trkpt><trkpt lat="45.05266851880394" lon="7.937065646378382"><ele>334.0</ele><time>2026-04-04T10:36:12Z</time></trkpt><trkpt lat="45.05244877373143" lon="7.937066285939662"><ele>334.0</ele><time>2026-04-04T10:36:13Z</time></trkpt><trkpt lat="45.05222885577577" lon="7.937055734150176"><ele>334.3333333333333</ele><time>2026-04-04T10:36:14Z</time></trkpt><trkpt lat="45.05200818828949" lon="7.937045482407222"><ele>334.6666666666667</ele><time>2026-04-04T10:36:15Z</time></trkpt><trkpt lat="45.05178706160773" lon="7.937042800445938"><ele>335.0</ele><time>2026-04-04T10:36:16Z</time></trkpt><trkpt lat="45.05156376986645" lon="7.937041618679839"><ele>335.33333333333337</ele><time>2026-04-04T10:36:17Z</time></trkpt><trkpt lat="45.05134323143638" lon="7.937037916066663"><ele>335.6666666666667</ele><time>2026-04-04T10:36:18Z</time></trkpt><trkpt lat="45.05112693234871" lon="7.937032662399451"><ele>336.0</ele><time>2026-04-04T10:36:19Z</time></trkpt><trkpt lat="45.05090655220441" lon="7.937031563312398"><ele>334.0</ele><time>2026-04-04T10:36:20Z</time></trkpt><trkpt lat="45.05068670270583" lon="7.9370292592626726"><ele>332.0</ele><time>2026-04-04T10:36:21Z</time></trkpt><trkpt lat="45.0504672618374" lon="7.937024325106438"><ele>330.0</ele><time>2026-04-04T10:36:22Z</time></trkpt><trkpt lat="45.050245884939464" lon="7.93701989948352"><ele>330.0</ele><time>2026-04-04T10:36:23Z</time></trkpt><trkpt lat="45.05002204338068" lon="7.937014595954793"><ele>330.0</ele><time>2026-04-04T10:36:24Z</time></trkpt><trkpt lat="45.0497988370075" lon="7.937011389568535"><ele>330.0</ele><time>2026-04-04T10:36:25Z</time></trkpt><trkpt lat="45.04957881059573" lon="7.937010138185059"><ele>330.0</ele><time>2026-04-04T10:36:26Z</time></trkpt><trkpt lat="45.04935892228227" lon="7.937008826427106"><ele>330.0</ele><time>2026-04-04T10:36:27Z</time></trkpt><trkpt lat="45.04914100844803" lon="7.937006694735119"><ele>330.0</ele><time>2026-04-04T10:36:28Z</time></trkpt><trkpt lat="45.0489230513007" lon="7.937004269747386"><ele>329.0</ele><time>2026-04-04T10:36:29Z</time></trkpt><trkpt lat="45.04870572159383" lon="7.93700231663472"><ele>328.0</ele><time>2026-04-04T10:36:30Z</time></trkpt><trkpt lat="45.048488474726305" lon="7.937001972053241"><ele>327.0</ele><time>2026-04-04T10:36:31Z</time></trkpt><trkpt lat="45.04827339015455" lon="7.937015194534257"><ele>325.6666666666667</ele><time>2026-04-04T10:36:32Z</time></trkpt><trkpt lat="45.04805762839423" lon="7.937014797911155"><ele>324.33333333333337</ele><time>2026-04-04T10:36:33Z</time></trkpt><trkpt lat="45.04784484919193" lon="7.937049734398331"><ele>323.0</ele><time>2026-04-04T10:36:34Z</time></trkpt><trkpt lat="45.04763308777266" lon="7.937107951422958"><ele>322.0</ele><time>2026-04-04T10:36:35Z</time></trkpt><trkpt lat="45.04742440020551" lon="7.937194691521109"><ele>321.0</ele><time>2026-04-04T10:36:36Z</time></trkpt><trkpt lat="45.04721943068429" lon="7.93730397918769"><ele>320.0</ele><time>2026-04-04T10:36:37Z</time></trkpt><trkpt lat="45.047012851215364" lon="7.937419779897807"><ele>320.0</ele><time>2026-04-04T10:36:38Z</time></trkpt><trkpt lat="45.04680472450751" lon="7.937536448185091"><ele>320.0</ele><time>2026-04-04T10:36:39Z</time></trkpt><trkpt lat="45.04659299683856" lon="7.937655134851934"><ele>320.0</ele><time>2026-04-04T10:36:40Z</time></trkpt><trkpt lat="45.04638369205739" lon="7.937796680002143"><ele>320.0</ele><time>2026-04-04T10:36:41Z</time></trkpt><trkpt lat="45.04616877868388" lon="7.9379175172386125"><ele>320.0</ele><time>2026-04-04T10:36:42Z</time></trkpt><trkpt lat="45.04595200269081" lon="7.938039865551529"><ele>320.0</ele><time>2026-04-04T10:36:43Z</time></trkpt><trkpt lat="45.04573493976454" lon="7.938157977271307"><ele>320.0</ele><time>2026-04-04T10:36:44Z</time></trkpt><trkpt lat="45.04552122782635" lon="7.938281772602839"><ele>320.0</ele><time>2026-04-04T10:36:45Z</time></trkpt><trkpt lat="45.045307749484934" lon="7.938403680603222"><ele>320.0</ele><time>2026-04-04T10:36:46Z</time></trkpt><trkpt lat="45.04509440265042" lon="7.93852057871383"><ele>320.0</ele><time>2026-04-04T10:36:47Z</time></trkpt><trkpt lat="45.04488585742891" lon="7.938641875815867"><ele>318.5</ele><time>2026-04-04T10:36:48Z</time></trkpt><trkpt lat="45.04467431998141" lon="7.938760990548918"><ele>317.0</ele><time>2026-04-04T10:36:49Z</time></trkpt><trkpt lat="45.04446031393762" lon="7.938862747202907"><ele>317.0</ele><time>2026-04-04T10:36:50Z</time></trkpt><trkpt lat="45.04424165284675" lon="7.938930953261872"><ele>317.0</ele><time>2026-04-04T10:36:51Z</time></trkpt><trkpt lat="45.04401656200964" lon="7.938958502380639"><ele>315.5</ele><time>2026-04-04T10:36:52Z</time></trkpt><trkpt lat="45.0437964526729" lon="7.939025965986311"><ele>314.0</ele><time>2026-04-04T10:36:53Z</time></trkpt><trkpt lat="45.04356975164579" lon="7.939072009641301"><ele>314.0</ele><time>2026-04-04T10:36:54Z</time></trkpt><trkpt lat="45.04334430039736" lon="7.9390954191252145"><ele>314.0</ele><time>2026-04-04T10:36:55Z</time></trkpt><trkpt lat="45.04312435973238" lon="7.939139732675577"><ele>314.0</ele><time>2026-04-04T10:36:56Z</time></trkpt><trkpt lat="45.04290750985838" lon="7.93918656402575"><ele>313.0</ele><time>2026-04-04T10:36:57Z</time></trkpt><trkpt lat="45.04269496746761" lon="7.939231365850299"><ele>312.0</ele><time>2026-04-04T10:36:58Z</time></trkpt><trkpt lat="45.04248773950513" lon="7.939290874608048"><ele>311.0</ele><time>2026-04-04T10:36:59Z</time></trkpt><trkpt lat="45.04228602278642" lon="7.939306915241414"><ele>310.6666666666667</ele><time>2026-04-04T10:37:00Z</time></trkpt><trkpt lat="45.04208286524183" lon="7.939288783274443"><ele>310.3333333333333</ele><time>2026-04-04T10:37:01Z</time></trkpt><trkpt lat="45.0418850859539" lon="7.939239270985374"><ele>310.0</ele><time>2026-04-04T10:37:02Z</time></trkpt><trkpt lat="45.04169810948564" lon="7.939168919541926"><ele>310.0</ele><time>2026-04-04T10:37:03Z</time></trkpt><trkpt lat="45.04153355845798" lon="7.9391018110167435"><ele>310.0</ele><time>2026-04-04T10:37:04Z</time></trkpt><trkpt lat="45.04139152547748" lon="7.939022528092303"><ele>310.0</ele><time>2026-04-04T10:37:05Z</time></trkpt><trkpt lat="45.0412533704823" lon="7.938966546052021"><ele>310.0</ele><time>2026-04-04T10:37:06Z</time></trkpt><trkpt lat="45.041129460534336" lon="7.938916335511444"><ele>310.0</ele><time>2026-04-04T10:37:07Z</time></trkpt><trkpt lat="45.04097427235616" lon="7.939017264988393"><ele>310.0</ele><time>2026-04-04T10:37:08Z</time></trkpt><trkpt lat="45.0408485157873" lon="7.9389878613745735"><ele>310.0</ele><time>2026-04-04T10:37:09Z</time></trkpt><trkpt lat="45.04072077750826" lon="7.938960224372158"><ele>310.25</ele><time>2026-04-04T10:37:10Z</time></trkpt><trkpt lat="45.04058990082974" lon="7.938936304057758"><ele>310.5</ele><time>2026-04-04T10:37:11Z</time></trkpt><trkpt lat="45.040467148423126" lon="7.938917449805359"><ele>310.75</ele><time>2026-04-04T10:37:12Z</time></trkpt><trkpt lat="45.04035296118943" lon="7.938902249778369"><ele>311.0</ele><time>2026-04-04T10:37:13Z</time></trkpt><trkpt lat="45.04025098552863" lon="7.938883384366374"><ele>311.0</ele><time>2026-04-04T10:37:14Z</time></trkpt><trkpt lat="45.04015526242192" lon="7.938855240645415"><ele>311.0</ele><time>2026-04-04T10:37:15Z</time></trkpt><trkpt lat="45.04007461047628" lon="7.938814820910771"><ele>311.0</ele><time>2026-04-04T10:37:16Z</time></trkpt><trkpt lat="45.040013004004514" lon="7.938790040027855"><ele>311.0</ele><time>2026-04-04T10:37:17Z</time></trkpt><trkpt lat="45.03993729555175" lon="7.93882218167548"><ele>311.0</ele><time>2026-04-04T10:37:19Z</time></trkpt><trkpt lat="45.039921973988505" lon="7.938955386020662"><ele>311.0</ele><time>2026-04-04T10:37:21Z</time></trkpt><trkpt lat="45.03993569740787" lon="7.939122914865923"><ele>311.33333333333337</ele><time>2026-04-04T10:37:23Z</time></trkpt><trkpt lat="45.0399253787995" lon="7.9392158075662005"><ele>311.6666666666667</ele><time>2026-04-04T10:37:24Z</time></trkpt><trkpt lat="45.039918445562854" lon="7.939325559048259"><ele>312.0</ele><time>2026-04-04T10:37:25Z</time></trkpt><trkpt lat="45.03988552399645" lon="7.939431308727373"><ele>312.3333333333333</ele><time>2026-04-04T10:37:26Z</time></trkpt><trkpt lat="45.039853422595954" lon="7.939530261498864"><ele>312.66666666666663</ele><time>2026-04-04T10:37:27Z</time></trkpt><trkpt lat="45.039774970173305" lon="7.939623897683379"><ele>313.0</ele><time>2026-04-04T10:37:29Z</time></trkpt><trkpt lat="45.03967712480395" lon="7.939638974326863"><ele>313.16666666666663</ele><time>2026-04-04T10:37:31Z</time></trkpt><trkpt lat="45.039583562141104" lon="7.939641683738489"><ele>313.3333333333333</ele><time>2026-04-04T10:37:33Z</time></trkpt><trkpt lat="45.03948583695546" lon="7.939649882143033"><ele>313.5</ele><time>2026-04-04T10:37:35Z</time></trkpt><trkpt lat="45.0394226752084" lon="7.93964741177255"><ele>313.6666666666667</ele><time>2026-04-04T10:37:36Z</time></trkpt><trkpt lat="45.039351771767585" lon="7.9396370420020705"><ele>313.83333333333337</ele><time>2026-04-04T10:37:37Z</time></trkpt><trkpt lat="45.039277817598624" lon="7.93962700000653"><ele>314.0</ele><time>2026-04-04T10:37:38Z</time></trkpt><trkpt lat="45.0391717301004" lon="7.939625271315121"><ele>314.59999999999997</ele><time>2026-04-04T10:37:40Z</time></trkpt><trkpt lat="45.03910300975127" lon="7.939579308468574"><ele>315.2</ele><time>2026-04-04T10:37:45Z</time></trkpt><trkpt lat="45.039070919002" lon="7.939778400587514"><ele>315.79999999999995</ele><time>2026-04-04T10:37:47Z</time></trkpt><trkpt lat="45.039066406296214" lon="7.939934892459299"><ele>316.4</ele><time>2026-04-04T10:37:49Z</time></trkpt><trkpt lat="45.03905503810956" lon="7.940097495808969"><ele>317.0</ele><time>2026-04-04T10:37:51Z</time></trkpt><trkpt lat="45.03904863066729" lon="7.940188179216162"><ele>317.33333333333337</ele><time>2026-04-04T10:37:52Z</time></trkpt><trkpt lat="45.03904145578382" lon="7.940278910183946"><ele>317.6666666666667</ele><time>2026-04-04T10:37:53Z</time></trkpt><trkpt lat="45.03903548273121" lon="7.940382079080598"><ele>318.0</ele><time>2026-04-04T10:37:54Z</time></trkpt><trkpt lat="45.03902905699856" lon="7.940499728249502"><ele>318.3333333333333</ele><time>2026-04-04T10:37:55Z</time></trkpt><trkpt lat="45.03902100439196" lon="7.94062879247998"><ele>318.66666666666663</ele><time>2026-04-04T10:37:56Z</time></trkpt><trkpt lat="45.03901062871113" lon="7.940774204202066"><ele>319.0</ele><time>2026-04-04T10:37:57Z</time></trkpt><trkpt lat="45.03899959941533" lon="7.9409268695224515"><ele>319.2</ele><time>2026-04-04T10:37:58Z</time></trkpt><trkpt lat="45.038993774336944" lon="7.9410744075149085"><ele>319.4</ele><time>2026-04-04T10:37:59Z</time></trkpt><trkpt lat="45.038984342220076" lon="7.941232377563044"><ele>319.6</ele><time>2026-04-04T10:38:00Z</time></trkpt><trkpt lat="45.03897596052257" lon="7.941396222799701"><ele>319.8</ele><time>2026-04-04T10:38:01Z</time></trkpt><trkpt lat="45.038966643520126" lon="7.941557672200053"><ele>320.0</ele><time>2026-04-04T10:38:02Z</time></trkpt><trkpt lat="45.03896303319356" lon="7.941720343484714"><ele>319.25</ele><time>2026-04-04T10:38:03Z</time></trkpt><trkpt lat="45.03897868385005" lon="7.941884882240002"><ele>318.5</ele><time>2026-04-04T10:38:04Z</time></trkpt><trkpt lat="45.03902275389437" lon="7.942035436783271"><ele>317.75</ele><time>2026-04-04T10:38:05Z</time></trkpt><trkpt lat="45.03907842080445" lon="7.942174896668608"><ele>317.0</ele><time>2026-04-04T10:38:06Z</time></trkpt><trkpt lat="45.0391229930495" lon="7.942313541110553"><ele>317.0</ele><time>2026-04-04T10:38:07Z</time></trkpt><trkpt lat="45.03913852050949" lon="7.942460272415771"><ele>317.0</ele><time>2026-04-04T10:38:08Z</time></trkpt><trkpt lat="45.03913352798471" lon="7.942605602078685"><ele>317.0</ele><time>2026-04-04T10:38:09Z</time></trkpt><trkpt lat="45.039106389136315" lon="7.942754060434866"><ele>317.0</ele><time>2026-04-04T10:38:10Z</time></trkpt><trkpt lat="45.03908122085436" lon="7.94290771224174"><ele>317.0</ele><time>2026-04-04T10:38:11Z</time></trkpt><trkpt lat="45.03906624069407" lon="7.9430648259896355"><ele>316.75</ele><time>2026-04-04T10:38:12Z</time></trkpt><trkpt lat="45.039066366185274" lon="7.943229626820016"><ele>316.5</ele><time>2026-04-04T10:38:13Z</time></trkpt><trkpt lat="45.03908902554482" lon="7.943383916530436"><ele>316.25</ele><time>2026-04-04T10:38:14Z</time></trkpt><trkpt lat="45.039096277176675" lon="7.943546758683318"><ele>316.0</ele><time>2026-04-04T10:38:15Z</time></trkpt><trkpt lat="45.03912683970403" lon="7.943694306248438"><ele>316.3333333333333</ele><time>2026-04-04T10:38:16Z</time></trkpt><trkpt lat="45.03915352105401" lon="7.943821731814879"><ele>316.66666666666663</ele><time>2026-04-04T10:38:17Z</time></trkpt><trkpt lat="45.03917798860056" lon="7.943928404196846"><ele>317.0</ele><time>2026-04-04T10:38:18Z</time></trkpt><trkpt lat="45.0392123837922" lon="7.944019929549831"><ele>317.3333333333333</ele><time>2026-04-04T10:38:19Z</time></trkpt><trkpt lat="45.03927031783879" lon="7.944091798920697"><ele>317.6666666666667</ele><time>2026-04-04T10:38:20Z</time></trkpt><trkpt lat="45.03933748971391" lon="7.944164467516848"><ele>318.0</ele><time>2026-04-04T10:38:21Z</time></trkpt><trkpt lat="45.039417393450314" lon="7.9442314095813344"><ele>318.8</ele><time>2026-04-04T10:38:22Z</time></trkpt><trkpt lat="45.03951064772968" lon="7.944288783383146"><ele>319.6</ele><time>2026-04-04T10:38:23Z</time></trkpt><trkpt lat="45.03960620721615" lon="7.944346120048087"><ele>320.40000000000003</ele><time>2026-04-04T10:38:24Z</time></trkpt><trkpt lat="45.03970740289988" lon="7.944416729738801"><ele>321.20000000000005</ele><time>2026-04-04T10:38:25Z</time></trkpt><trkpt lat="45.039808539495084" lon="7.944497189290584"><ele>322.0</ele><time>2026-04-04T10:38:26Z</time></trkpt><trkpt lat="45.039893201484844" lon="7.944600150233177"><ele>322.0</ele><time>2026-04-04T10:38:27Z</time></trkpt><trkpt lat="45.03994379924763" lon="7.944735516539868"><ele>322.0</ele><time>2026-04-04T10:38:28Z</time></trkpt><trkpt lat="45.03992552833372" lon="7.944899539561436"><ele>322.0</ele><time>2026-04-04T10:38:29Z</time></trkpt><trkpt lat="45.03991709579668" lon="7.945088511145245"><ele>322.0</ele><time>2026-04-04T10:38:30Z</time></trkpt><trkpt lat="45.039908633302474" lon="7.945295070531475"><ele>322.66666666666663</ele><time>2026-04-04T10:38:31Z</time></trkpt><trkpt lat="45.03991488091131" lon="7.945531798702495"><ele>323.3333333333333</ele><time>2026-04-04T10:38:32Z</time></trkpt><trkpt lat="45.03994033849473" lon="7.945744550683765"><ele>324.0</ele><time>2026-04-04T10:38:33Z</time></trkpt><trkpt lat="45.03998753154806" lon="7.945922143610359"><ele>320.75</ele><time>2026-04-04T10:38:34Z</time></trkpt><trkpt lat="45.04002117451836" lon="7.946078939613459"><ele>317.5</ele><time>2026-04-04T10:38:35Z</time></trkpt><trkpt lat="45.03999677759433" lon="7.946239769074675"><ele>314.25</ele><time>2026-04-04T10:38:36Z</time></trkpt><trkpt lat="45.03992490427832" lon="7.946363594898122"><ele>311.0</ele><time>2026-04-04T10:38:37Z</time></trkpt><trkpt lat="45.039821348585775" lon="7.946438795065131"><ele>311.0</ele><time>2026-04-04T10:38:38Z</time></trkpt><trkpt lat="45.03969189038561" lon="7.946464234714459"><ele>311.0</ele><time>2026-04-04T10:38:39Z</time></trkpt><trkpt lat="45.03955592597267" lon="7.946481486096576"><ele>311.0</ele><time>2026-04-04T10:38:40Z</time></trkpt><trkpt lat="45.039445442068995" lon="7.946549084191969"><ele>311.0</ele><time>2026-04-04T10:38:41Z</time></trkpt><trkpt lat="45.03936251275837" lon="7.946662110548366"><ele>306.75</ele><time>2026-04-04T10:38:42Z</time></trkpt><trkpt lat="45.039313486389496" lon="7.9468285510696015"><ele>302.5</ele><time>2026-04-04T10:38:43Z</time></trkpt><trkpt lat="45.03928304276737" lon="7.947007781214032"><ele>298.25</ele><time>2026-04-04T10:38:44Z</time></trkpt><trkpt lat="45.039248094264615" lon="7.947196710616974"><ele>294.0</ele><time>2026-04-04T10:38:45Z</time></trkpt><trkpt lat="45.039243027901264" lon="7.947405439306674"><ele>290.0</ele><time>2026-04-04T10:38:46Z</time></trkpt><trkpt lat="45.03924416052091" lon="7.94761297502196"><ele>286.0</ele><time>2026-04-04T10:38:47Z</time></trkpt><trkpt lat="45.03919842398756" lon="7.947803618122992"><ele>282.0</ele><time>2026-04-04T10:38:48Z</time></trkpt><trkpt lat="45.039134187742846" lon="7.947988119067491"><ele>278.0</ele><time>2026-04-04T10:38:49Z</time></trkpt><trkpt lat="45.03909815772753" lon="7.948186726403676"><ele>275.0</ele><time>2026-04-04T10:38:50Z</time></trkpt><trkpt lat="45.0390940384227" lon="7.948415688566777"><ele>272.0</ele><time>2026-04-04T10:38:51Z</time></trkpt><trkpt lat="45.0391221460368" lon="7.948659863829474"><ele>269.0</ele><time>2026-04-04T10:38:52Z</time></trkpt><trkpt lat="45.039166555656344" lon="7.948910553157846"><ele>269.0</ele><time>2026-04-04T10:38:53Z</time></trkpt><trkpt lat="45.0391909487729" lon="7.949168040770822"><ele>269.0</ele><time>2026-04-04T10:38:54Z</time></trkpt><trkpt lat="45.03922771928439" lon="7.949420936073692"><ele>269.0</ele><time>2026-04-04T10:38:55Z</time></trkpt><trkpt lat="45.03926318106289" lon="7.949664046185688"><ele>268.0</ele><time>2026-04-04T10:38:56Z</time></trkpt><trkpt lat="45.03929940604534" lon="7.949895525764052"><ele>267.0</ele><time>2026-04-04T10:38:57Z</time></trkpt><trkpt lat="45.039295525389726" lon="7.950127059890353"><ele>266.0</ele><time>2026-04-04T10:38:58Z</time></trkpt><trkpt lat="45.039260937650106" lon="7.950353896471614"><ele>265.6666666666667</ele><time>2026-04-04T10:38:59Z</time></trkpt><trkpt lat="45.03919309206042" lon="7.950581354080883"><ele>265.3333333333333</ele><time>2026-04-04T10:39:00Z</time></trkpt><trkpt lat="45.03909838572398" lon="7.950798786813589"><ele>265.0</ele><time>2026-04-04T10:39:01Z</time></trkpt><trkpt lat="45.038998710447295" lon="7.951015573968106"><ele>261.3333333333333</ele><time>2026-04-04T10:39:02Z</time></trkpt><trkpt lat="45.0388986608391" lon="7.9512387481619555"><ele>257.6666666666667</ele><time>2026-04-04T10:39:03Z</time></trkpt><trkpt lat="45.03880324285778" lon="7.951467799098826"><ele>254.0</ele><time>2026-04-04T10:39:04Z</time></trkpt><trkpt lat="45.03871669724303" lon="7.951699627551129"><ele>252.0</ele><time>2026-04-04T10:39:05Z</time></trkpt><trkpt lat="45.03864373132521" lon="7.951936466816373"><ele>250.0</ele><time>2026-04-04T10:39:06Z</time></trkpt><trkpt lat="45.03857135311605" lon="7.952170504789302"><ele>248.0</ele><time>2026-04-04T10:39:07Z</time></trkpt><trkpt lat="45.0385455425472" lon="7.952418152017668"><ele>246.66666666666669</ele><time>2026-04-04T10:39:08Z</time></trkpt><trkpt lat="45.03855675716695" lon="7.952677922321985"><ele>245.33333333333331</ele><time>2026-04-04T10:39:09Z</time></trkpt><trkpt lat="45.03862079794743" lon="7.952927149114855"><ele>244.0</ele><time>2026-04-04T10:39:10Z</time></trkpt><trkpt lat="45.038681375255074" lon="7.953175438075555"><ele>243.66666666666666</ele><time>2026-04-04T10:39:11Z</time></trkpt><trkpt lat="45.038732788819864" lon="7.953436895884372"><ele>243.33333333333331</ele><time>2026-04-04T10:39:12Z</time></trkpt><trkpt lat="45.038795776414354" lon="7.953693448431084"><ele>243.0</ele><time>2026-04-04T10:39:13Z</time></trkpt><trkpt lat="45.03885788375131" lon="7.953946415226164"><ele>243.0</ele><time>2026-04-04T10:39:14Z</time></trkpt><trkpt lat="45.03892057229469" lon="7.954200038693307"><ele>243.0</ele><time>2026-04-04T10:39:15Z</time></trkpt><trkpt lat="45.038998671806894" lon="7.954442127054635"><ele>243.0</ele><time>2026-04-04T10:39:16Z</time></trkpt><trkpt lat="45.039043851647016" lon="7.954691605117821"><ele>242.66666666666669</ele><time>2026-04-04T10:39:17Z</time></trkpt><trkpt lat="45.03910301800635" lon="7.954927409414696"><ele>242.33333333333334</ele><time>2026-04-04T10:39:18Z</time></trkpt><trkpt lat="45.03916266251633" lon="7.955165340013944"><ele>242.0</ele><time>2026-04-04T10:39:19Z</time></trkpt><trkpt lat="45.039222490228724" lon="7.955404010467676"><ele>249.0</ele><time>2026-04-04T10:39:20Z</time></trkpt><trkpt lat="45.039297093986576" lon="7.9556266407114355"><ele>256.0</ele><time>2026-04-04T10:39:21Z</time></trkpt><trkpt lat="45.03935881658248" lon="7.955856567548853"><ele>263.0</ele><time>2026-04-04T10:39:22Z</time></trkpt><trkpt lat="45.03940725587035" lon="7.956095333554879"><ele>264.6666666666667</ele><time>2026-04-04T10:39:23Z</time></trkpt><trkpt lat="45.0394693911176" lon="7.956315957345335"><ele>266.3333333333333</ele><time>2026-04-04T10:39:24Z</time></trkpt><trkpt lat="45.03953160605845" lon="7.956532625391345"><ele>268.0</ele><time>2026-04-04T10:39:25Z</time></trkpt><trkpt lat="45.03959582380911" lon="7.956746476369429"><ele>268.0</ele><time>2026-04-04T10:39:26Z</time></trkpt><trkpt lat="45.0396652798221" lon="7.95697208156789"><ele>268.0</ele><time>2026-04-04T10:39:27Z</time></trkpt><trkpt lat="45.03973511713806" lon="7.957200727843605"><ele>268.0</ele><time>2026-04-04T10:39:28Z</time></trkpt><trkpt lat="45.03980342524157" lon="7.957426666871662"><ele>266.5</ele><time>2026-04-04T10:39:29Z</time></trkpt><trkpt lat="45.03986571640061" lon="7.957632703967527"><ele>265.0</ele><time>2026-04-04T10:39:30Z</time></trkpt><trkpt lat="45.03992018407071" lon="7.957813277261363"><ele>263.5</ele><time>2026-04-04T10:39:31Z</time></trkpt><trkpt lat="45.039970083396234" lon="7.957978768298666"><ele>262.0</ele><time>2026-04-04T10:39:32Z</time></trkpt><trkpt lat="45.04002536348243" lon="7.958120303620637"><ele>260.8</ele><time>2026-04-04T10:39:33Z</time></trkpt><trkpt lat="45.040050564470796" lon="7.958258255812705"><ele>259.6</ele><time>2026-04-04T10:39:34Z</time></trkpt><trkpt lat="45.04005204229743" lon="7.958395404450268"><ele>258.40000000000003</ele><time>2026-04-04T10:39:35Z</time></trkpt><trkpt lat="45.040066863656236" lon="7.958509712086634"><ele>257.2</ele><time>2026-04-04T10:39:36Z</time></trkpt><trkpt lat="45.039944569309" lon="7.9586386515669085"><ele>256.0</ele><time>2026-04-04T10:39:37Z</time></trkpt><trkpt lat="45.03984769012404" lon="7.958747535794209"><ele>256.0</ele><time>2026-04-04T10:39:38Z</time></trkpt><trkpt lat="45.039747695868634" lon="7.958861813315359"><ele>256.0</ele><time>2026-04-04T10:39:39Z</time></trkpt><trkpt lat="45.03964373126854" lon="7.958981433423019"><ele>256.0</ele><time>2026-04-04T10:39:40Z</time></trkpt><trkpt lat="45.03953591982703" lon="7.95910547947031"><ele>256.0</ele><time>2026-04-04T10:39:41Z</time></trkpt><trkpt lat="45.0394259504901" lon="7.959232008485132"><ele>254.25</ele><time>2026-04-04T10:39:42Z</time></trkpt><trkpt lat="45.03932354410751" lon="7.959351050165773"><ele>252.5</ele><time>2026-04-04T10:39:43Z</time></trkpt><trkpt lat="45.03924430358349" lon="7.959478866739845"><ele>250.75</ele><time>2026-04-04T10:39:44Z</time></trkpt><trkpt lat="45.03915278157776" lon="7.95958552566522"><ele>249.0</ele><time>2026-04-04T10:39:45Z</time></trkpt><trkpt lat="45.03906429834837" lon="7.959708857825484"><ele>249.0</ele><time>2026-04-04T10:39:46Z</time></trkpt><trkpt lat="45.03897780331101" lon="7.959845397837958"><ele>249.0</ele><time>2026-04-04T10:39:47Z</time></trkpt><trkpt lat="45.03888985881335" lon="7.9599971774798"><ele>249.0</ele><time>2026-04-04T10:39:48Z</time></trkpt><trkpt lat="45.03880879394616" lon="7.9601678159245255"><ele>249.0</ele><time>2026-04-04T10:39:49Z</time></trkpt><trkpt lat="45.03874103298778" lon="7.960359152590522"><ele>246.66666666666669</ele><time>2026-04-04T10:39:50Z</time></trkpt><trkpt lat="45.03868864995503" lon="7.960577171128256"><ele>244.33333333333334</ele><time>2026-04-04T10:39:51Z</time></trkpt><trkpt lat="45.038650033074404" lon="7.9608053009708994"><ele>242.0</ele><time>2026-04-04T10:39:52Z</time></trkpt><trkpt lat="45.03861159404995" lon="7.9610284250410785"><ele>240.66666666666669</ele><time>2026-04-04T10:39:53Z</time></trkpt><trkpt lat="45.038603216453325" lon="7.961268301022829"><ele>239.33333333333331</ele><time>2026-04-04T10:39:54Z</time></trkpt><trkpt lat="45.03862250137822" lon="7.961521424715564"><ele>238.0</ele><time>2026-04-04T10:39:55Z</time></trkpt><trkpt lat="45.03863497390499" lon="7.9617792319445435"><ele>237.66666666666666</ele><time>2026-04-04T10:39:56Z</time></trkpt><trkpt lat="45.03864732596962" lon="7.962041397138404"><ele>237.33333333333331</ele><time>2026-04-04T10:39:57Z</time></trkpt><trkpt lat="45.0386590443948" lon="7.962306609516883"><ele>237.0</ele><time>2026-04-04T10:39:58Z</time></trkpt><trkpt lat="45.03867054452236" lon="7.962570364948529"><ele>236.66666666666669</ele><time>2026-04-04T10:39:59Z</time></trkpt><trkpt lat="45.03868000030859" lon="7.962828796781966"><ele>236.33333333333334</ele><time>2026-04-04T10:40:00Z</time></trkpt><trkpt lat="45.03869069055479" lon="7.963085782780762"><ele>236.0</ele><time>2026-04-04T10:40:01Z</time></trkpt><trkpt lat="45.038702340155695" lon="7.963331732536093"><ele>235.66666666666669</ele><time>2026-04-04T10:40:02Z</time></trkpt><trkpt lat="45.03871556975405" lon="7.963567053131906"><ele>235.33333333333331</ele><time>2026-04-04T10:40:03Z</time></trkpt><trkpt lat="45.038728982213925" lon="7.963791328984445"><ele>235.0</ele><time>2026-04-04T10:40:04Z</time></trkpt><trkpt lat="45.038756403778216" lon="7.963986960102955"><ele>235.0</ele><time>2026-04-04T10:40:05Z</time></trkpt><trkpt lat="45.038801919129696" lon="7.964162743741582"><ele>235.0</ele><time>2026-04-04T10:40:06Z</time></trkpt><trkpt lat="45.0388806923566" lon="7.964307288699202"><ele>235.0</ele><time>2026-04-04T10:40:07Z</time></trkpt><trkpt lat="45.03899040676463" lon="7.964429391939549"><ele>235.0</ele><time>2026-04-04T10:40:08Z</time></trkpt><trkpt lat="45.0391145507391" lon="7.9645379370920315"><ele>235.66666666666666</ele><time>2026-04-04T10:40:09Z</time></trkpt><trkpt lat="45.03924497334171" lon="7.964653531596859"><ele>236.33333333333331</ele><time>2026-04-04T10:40:10Z</time></trkpt><trkpt lat="45.039377727464746" lon="7.964781143261419"><ele>237.0</ele><time>2026-04-04T10:40:11Z</time></trkpt><trkpt lat="45.039502977651175" lon="7.964923595070743"><ele>237.33333333333331</ele><time>2026-04-04T10:40:12Z</time></trkpt><trkpt lat="45.03960789864599" lon="7.96510447924146"><ele>237.66666666666666</ele><time>2026-04-04T10:40:13Z</time></trkpt><trkpt lat="45.03972433191669" lon="7.96525800603058"><ele>238.0</ele><time>2026-04-04T10:40:14Z</time></trkpt><trkpt lat="45.03982926535839" lon="7.965379610181267"><ele>238.0</ele><time>2026-04-04T10:40:15Z</time></trkpt><trkpt lat="45.039914450866846" lon="7.9654891644729"><ele>238.0</ele><time>2026-04-04T10:40:16Z</time></trkpt><trkpt lat="45.039970619498476" lon="7.965570973935832"><ele>238.0</ele><time>2026-04-04T10:40:17Z</time></trkpt><trkpt lat="45.040012994356346" lon="7.965742495604028"><ele>238.0</ele><time>2026-04-04T10:40:19Z</time></trkpt><trkpt lat="45.039998513289426" lon="7.965842146527628"><ele>238.0</ele><time>2026-04-04T10:40:20Z</time></trkpt><trkpt lat="45.03996263302831" lon="7.965923563127586"><ele>238.0</ele><time>2026-04-04T10:40:21Z</time></trkpt><trkpt lat="45.03990891431157" lon="7.966013774654731"><ele>238.0</ele><time>2026-04-04T10:40:22Z</time></trkpt><trkpt lat="45.03984363857725" lon="7.96610000635982"><ele>238.0</ele><time>2026-04-04T10:40:23Z</time></trkpt><trkpt lat="45.03977196192479" lon="7.966202653777482"><ele>238.0</ele><time>2026-04-04T10:40:24Z</time></trkpt><trkpt lat="45.039700737619256" lon="7.966321791224486"><ele>238.0</ele><time>2026-04-04T10:40:25Z</time></trkpt><trkpt lat="45.03962646806879" lon="7.966441357318025"><ele>238.0</ele><time>2026-04-04T10:40:26Z</time></trkpt><trkpt lat="45.03956366732903" lon="7.966575994400589"><ele>238.0</ele><time>2026-04-04T10:40:27Z</time></trkpt><trkpt lat="45.03953598941131" lon="7.966741898571233"><ele>238.0</ele><time>2026-04-04T10:40:28Z</time></trkpt><trkpt lat="45.0395419096438" lon="7.966922004449431"><ele>238.0</ele><time>2026-04-04T10:40:29Z</time></trkpt><trkpt lat="45.03957996171491" lon="7.967113234226422"><ele>238.33333333333331</ele><time>2026-04-04T10:40:30Z</time></trkpt><trkpt lat="45.039622741850515" lon="7.967311060867812"><ele>238.66666666666669</ele><time>2026-04-04T10:40:31Z</time></trkpt><trkpt lat="45.03966269602107" lon="7.96751978128632"><ele>239.0</ele><time>2026-04-04T10:40:32Z</time></trkpt><trkpt lat="45.03970086517752" lon="7.967726644698555"><ele>239.66666666666669</ele><time>2026-04-04T10:40:33Z</time></trkpt><trkpt lat="45.03972327791204" lon="7.967935807006787"><ele>240.33333333333331</ele><time>2026-04-04T10:40:34Z</time></trkpt><trkpt lat="45.03976213878638" lon="7.9681426438260585"><ele>241.0</ele><time>2026-04-04T10:40:35Z</time></trkpt><trkpt lat="45.03980225461847" lon="7.968356250408067"><ele>242.33333333333331</ele><time>2026-04-04T10:40:36Z</time></trkpt><trkpt lat="45.03984270240708" lon="7.968571684149209"><ele>243.66666666666669</ele><time>2026-04-04T10:40:37Z</time></trkpt><trkpt lat="45.03988527058571" lon="7.968798411547178"><ele>245.0</ele><time>2026-04-04T10:40:38Z</time></trkpt><trkpt lat="45.03992708361822" lon="7.96902111683525"><ele>246.0</ele><time>2026-04-04T10:40:39Z</time></trkpt><trkpt lat="45.03996924956598" lon="7.9692457018448275"><ele>247.0</ele><time>2026-04-04T10:40:40Z</time></trkpt><trkpt lat="45.04001315465254" lon="7.9694795499379"><ele>248.0</ele><time>2026-04-04T10:40:41Z</time></trkpt><trkpt lat="45.040057250155904" lon="7.969716227376049"><ele>248.0</ele><time>2026-04-04T10:40:42Z</time></trkpt><trkpt lat="45.040101928624686" lon="7.9699568150905895"><ele>248.0</ele><time>2026-04-04T10:40:43Z</time></trkpt><trkpt lat="45.04014725658618" lon="7.970200900326217"><ele>248.0</ele><time>2026-04-04T10:40:44Z</time></trkpt><trkpt lat="45.04019221401469" lon="7.970444335478179"><ele>252.66666666666669</ele><time>2026-04-04T10:40:45Z</time></trkpt><trkpt lat="45.040237187693414" lon="7.9706904866890405"><ele>257.3333333333333</ele><time>2026-04-04T10:40:46Z</time></trkpt><trkpt lat="45.04029621721384" lon="7.970923070119107"><ele>262.0</ele><time>2026-04-04T10:40:47Z</time></trkpt><trkpt lat="45.040334940041326" lon="7.971169873369877"><ele>260.3333333333333</ele><time>2026-04-04T10:40:48Z</time></trkpt><trkpt lat="45.040368174598534" lon="7.97141317346424"><ele>258.6666666666667</ele><time>2026-04-04T10:40:49Z</time></trkpt><trkpt lat="45.04039965520518" lon="7.971667586883429"><ele>257.0</ele><time>2026-04-04T10:40:50Z</time></trkpt><trkpt lat="45.04041854542425" lon="7.971930098349337"><ele>257.0</ele><time>2026-04-04T10:40:51Z</time></trkpt><trkpt lat="45.04044999934188" lon="7.972194289247724"><ele>257.0</ele><time>2026-04-04T10:40:52Z</time></trkpt><trkpt lat="45.04048174681091" lon="7.972460946139277"><ele>257.0</ele><time>2026-04-04T10:40:53Z</time></trkpt><trkpt lat="45.04051319913045" lon="7.972725123590466"><ele>255.33333333333334</ele><time>2026-04-04T10:40:54Z</time></trkpt><trkpt lat="45.04055954257102" lon="7.972990885761793"><ele>253.66666666666669</ele><time>2026-04-04T10:40:55Z</time></trkpt><trkpt lat="45.040588243942594" lon="7.973255698132553"><ele>252.0</ele><time>2026-04-04T10:40:56Z</time></trkpt><trkpt lat="45.040618744593694" lon="7.973518998552529"><ele>256.6666666666667</ele><time>2026-04-04T10:40:57Z</time></trkpt><trkpt lat="45.04065313531385" lon="7.9737848761688985"><ele>261.33333333333337</ele><time>2026-04-04T10:40:58Z</time></trkpt><trkpt lat="45.04068670104476" lon="7.974046270309196"><ele>266.0</ele><time>2026-04-04T10:40:59Z</time></trkpt><trkpt lat="45.040715753334766" lon="7.974307188958973"><ele>272.6666666666667</ele><time>2026-04-04T10:41:00Z</time></trkpt><trkpt lat="45.04074940919908" lon="7.974570407913522"><ele>279.3333333333333</ele><time>2026-04-04T10:41:01Z</time></trkpt><trkpt lat="45.04076547650613" lon="7.974845053534716"><ele>286.0</ele><time>2026-04-04T10:41:02Z</time></trkpt><trkpt lat="45.04079889521107" lon="7.975125030699278"><ele>287.3333333333333</ele><time>2026-04-04T10:41:03Z</time></trkpt><trkpt lat="45.0408450083713" lon="7.9754063438811595"><ele>288.6666666666667</ele><time>2026-04-04T10:41:04Z</time></trkpt><trkpt lat="45.040877142848494" lon="7.975695499644166"><ele>290.0</ele><time>2026-04-04T10:41:05Z</time></trkpt><trkpt lat="45.04090968382616" lon="7.97599169480182"><ele>286.0</ele><time>2026-04-04T10:41:06.017Z</time></trkpt><trkpt lat="45.0409428725649" lon="7.976290861895861"><ele>282.0</ele><time>2026-04-04T10:41:07.03Z</time></trkpt><trkpt lat="45.04097141274511" lon="7.976576376583755"><ele>278.0</ele><time>2026-04-04T10:41:08Z</time></trkpt><trkpt lat="45.04102004538314" lon="7.976906057997445"><ele>271.6666666666667</ele><time>2026-04-04T10:41:09Z</time></trkpt><trkpt lat="45.04105753833429" lon="7.9771790417874024"><ele>265.3333333333333</ele><time>2026-04-04T10:41:10Z</time></trkpt><trkpt lat="45.04108644404601" lon="7.977432803491032"><ele>259.0</ele><time>2026-04-04T10:41:11Z</time></trkpt><trkpt lat="45.04110917451494" lon="7.977666255898007"><ele>257.25</ele><time>2026-04-04T10:41:12Z</time></trkpt><trkpt lat="45.041134753625514" lon="7.977869844810235"><ele>255.5</ele><time>2026-04-04T10:41:13Z</time></trkpt><trkpt lat="45.04115238886006" lon="7.978050715229415"><ele>253.75</ele><time>2026-04-04T10:41:14Z</time></trkpt><trkpt lat="45.04114920343845" lon="7.978197660872278"><ele>252.0</ele><time>2026-04-04T10:41:15Z</time></trkpt><trkpt lat="45.041121170570925" lon="7.9783308918220825"><ele>253.8</ele><time>2026-04-04T10:41:16Z</time></trkpt><trkpt lat="45.04106904852825" lon="7.978451463064558"><ele>255.6</ele><time>2026-04-04T10:41:17Z</time></trkpt><trkpt lat="45.04105104860922" lon="7.978586486656003"><ele>257.40000000000003</ele><time>2026-04-04T10:41:18Z</time></trkpt><trkpt lat="45.04107602788221" lon="7.978734326645658"><ele>259.2</ele><time>2026-04-04T10:41:19Z</time></trkpt><trkpt lat="45.04114700163615" lon="7.978861571191762"><ele>261.0</ele><time>2026-04-04T10:41:20Z</time></trkpt><trkpt lat="45.04124933578941" lon="7.978945553503035"><ele>261.0</ele><time>2026-04-04T10:41:21Z</time></trkpt><trkpt lat="45.041275884021864" lon="7.979149051286487"><ele>261.0</ele><time>2026-04-04T10:41:22Z</time></trkpt><trkpt lat="45.041297510067416" lon="7.97933774490843"><ele>261.0</ele><time>2026-04-04T10:41:23Z</time></trkpt><trkpt lat="45.04133456682643" lon="7.979534233364924"><ele>261.0</ele><time>2026-04-04T10:41:24Z</time></trkpt><trkpt lat="45.04135525238075" lon="7.979737609441602"><ele>264.6666666666667</ele><time>2026-04-04T10:41:25Z</time></trkpt><trkpt lat="45.04138402453569" lon="7.97995302290416"><ele>268.33333333333337</ele><time>2026-04-04T10:41:26Z</time></trkpt><trkpt lat="45.04140851815231" lon="7.980174605172255"><ele>272.0</ele><time>2026-04-04T10:41:27Z</time></trkpt><trkpt lat="45.04143675678179" lon="7.9804045888292885"><ele>276.33333333333337</ele><time>2026-04-04T10:41:28Z</time></trkpt><trkpt lat="45.041470534519625" lon="7.980642948760462"><ele>280.6666666666667</ele><time>2026-04-04T10:41:29Z</time></trkpt><trkpt lat="45.041510537524886" lon="7.980879650652791"><ele>285.0</ele><time>2026-04-04T10:41:30Z</time></trkpt><trkpt lat="45.041574983328175" lon="7.9811101256593"><ele>285.0</ele><time>2026-04-04T10:41:31Z</time></trkpt><trkpt lat="45.04166149030546" lon="7.981336738084496"><ele>285.0</ele><time>2026-04-04T10:41:32Z</time></trkpt><trkpt lat="45.04174709431491" lon="7.981576288346232"><ele>285.0</ele><time>2026-04-04T10:41:33Z</time></trkpt><trkpt lat="45.04182144198584" lon="7.981812448972844"><ele>285.0</ele><time>2026-04-04T10:41:34Z</time></trkpt><trkpt lat="45.041894815389306" lon="7.98205516318672"><ele>285.0</ele><time>2026-04-04T10:41:35Z</time></trkpt><trkpt lat="45.04199033234754" lon="7.98229603759418"><ele>285.0</ele><time>2026-04-04T10:41:36Z</time></trkpt><trkpt lat="45.04205857930857" lon="7.982548285251811"><ele>280.3333333333333</ele><time>2026-04-04T10:41:37Z</time></trkpt><trkpt lat="45.04208284472585" lon="7.982785743036684"><ele>275.66666666666663</ele><time>2026-04-04T10:41:38Z</time></trkpt><trkpt lat="45.04207381991219" lon="7.9830358945605715"><ele>271.0</ele><time>2026-04-04T10:41:39Z</time></trkpt><trkpt lat="45.042021845010794" lon="7.983285950865162"><ele>270.3333333333333</ele><time>2026-04-04T10:41:40Z</time></trkpt><trkpt lat="45.041940014649114" lon="7.983520371823911"><ele>269.6666666666667</ele><time>2026-04-04T10:41:41Z</time></trkpt><trkpt lat="45.041824355375624" lon="7.983734715515644"><ele>269.0</ele><time>2026-04-04T10:41:42Z</time></trkpt><trkpt lat="45.041699227445214" lon="7.983948884385334"><ele>269.0</ele><time>2026-04-04T10:41:43Z</time></trkpt><trkpt lat="45.041564056049396" lon="7.9841773604078385"><ele>269.0</ele><time>2026-04-04T10:41:44Z</time></trkpt><trkpt lat="45.04142591695627" lon="7.984410852388071"><ele>269.0</ele><time>2026-04-04T10:41:45Z</time></trkpt><trkpt lat="45.041295216760375" lon="7.984653686851839"><ele>269.0</ele><time>2026-04-04T10:41:46Z</time></trkpt><trkpt lat="45.04117365175883" lon="7.984901391763991"><ele>269.0</ele><time>2026-04-04T10:41:47Z</time></trkpt><trkpt lat="45.041057248970276" lon="7.985151187718408"><ele>269.0</ele><time>2026-04-04T10:41:48Z</time></trkpt><trkpt lat="45.04094106038798" lon="7.985406321152804"><ele>267.6666666666667</ele><time>2026-04-04T10:41:49Z</time></trkpt><trkpt lat="45.040824687971494" lon="7.985662558515336"><ele>266.3333333333333</ele><time>2026-04-04T10:41:50Z</time></trkpt><trkpt lat="45.040708328992636" lon="7.985918766669139"><ele>265.0</ele><time>2026-04-04T10:41:51Z</time></trkpt><trkpt lat="45.04059180253435" lon="7.986175342592715"><ele>265.3333333333333</ele><time>2026-04-04T10:41:52Z</time></trkpt><trkpt lat="45.040477526498734" lon="7.986430839101899"><ele>265.6666666666667</ele><time>2026-04-04T10:41:53Z</time></trkpt><trkpt lat="45.040362621187626" lon="7.986684645016984"><ele>266.0</ele><time>2026-04-04T10:41:54Z</time></trkpt><trkpt lat="45.04025900165509" lon="7.98694188833265"><ele>266.0</ele><time>2026-04-04T10:41:55Z</time></trkpt><trkpt lat="45.04012198478513" lon="7.9871668547892485"><ele>266.0</ele><time>2026-04-04T10:41:56Z</time></trkpt><trkpt lat="45.039963432243646" lon="7.9873645784384"><ele>266.0</ele><time>2026-04-04T10:41:57Z</time></trkpt><trkpt lat="45.039791443671014" lon="7.987539047479948"><ele>264.6666666666667</ele><time>2026-04-04T10:41:58Z</time></trkpt><trkpt lat="45.03961298594378" lon="7.9877044301161915"><ele>263.3333333333333</ele><time>2026-04-04T10:41:59Z</time></trkpt><trkpt lat="45.039430675752804" lon="7.987855440659695"><ele>262.0</ele><time>2026-04-04T10:42:00Z</time></trkpt><trkpt lat="45.0392448750569" lon="7.987997533505814"><ele>259.3333333333333</ele><time>2026-04-04T10:42:01Z</time></trkpt><trkpt lat="45.03904731533575" lon="7.988084647219454"><ele>256.6666666666667</ele><time>2026-04-04T10:42:02Z</time></trkpt><trkpt lat="45.038856826853014" lon="7.988185484553552"><ele>254.0</ele><time>2026-04-04T10:42:03Z</time></trkpt><trkpt lat="45.038668910301155" lon="7.988262518377449"><ele>252.0</ele><time>2026-04-04T10:42:04Z</time></trkpt><trkpt lat="45.038488263053836" lon="7.988362613615337"><ele>250.0</ele><time>2026-04-04T10:42:05Z</time></trkpt><trkpt lat="45.03831809985586" lon="7.988488797543881"><ele>248.0</ele><time>2026-04-04T10:42:06Z</time></trkpt><trkpt lat="45.03815985915067" lon="7.988640482348095"><ele>248.0</ele><time>2026-04-04T10:42:07Z</time></trkpt><trkpt lat="45.03801883528431" lon="7.988819489172402"><ele>248.0</ele><time>2026-04-04T10:42:08Z</time></trkpt><trkpt lat="45.03789145234223" lon="7.989024231669319"><ele>248.0</ele><time>2026-04-04T10:42:09Z</time></trkpt><trkpt lat="45.037779200253105" lon="7.989244574209203"><ele>250.66666666666669</ele><time>2026-04-04T10:42:10Z</time></trkpt><trkpt lat="45.037676262635294" lon="7.989470591571401"><ele>253.33333333333331</ele><time>2026-04-04T10:42:11Z</time></trkpt><trkpt lat="45.037580513326404" lon="7.989699667428534"><ele>256.0</ele><time>2026-04-04T10:42:12Z</time></trkpt><trkpt lat="45.03748607278183" lon="7.989921618897063"><ele>258.0</ele><time>2026-04-04T10:42:13Z</time></trkpt><trkpt lat="45.03739419424549" lon="7.990136017049749"><ele>260.0</ele><time>2026-04-04T10:42:14Z</time></trkpt><trkpt lat="45.037312057535104" lon="7.990327592617404"><ele>262.0</ele><time>2026-04-04T10:42:15Z</time></trkpt><trkpt lat="45.03724475656909" lon="7.990494900545493"><ele>262.0</ele><time>2026-04-04T10:42:16Z</time></trkpt><trkpt lat="45.03719134554953" lon="7.990656624082342"><ele>262.0</ele><time>2026-04-04T10:42:17Z</time></trkpt><trkpt lat="45.037160941331884" lon="7.9908080891963555"><ele>262.0</ele><time>2026-04-04T10:42:18Z</time></trkpt><trkpt lat="45.037150097479554" lon="7.99096798676424"><ele>262.0</ele><time>2026-04-04T10:42:19Z</time></trkpt><trkpt lat="45.03715820595848" lon="7.991133854230114"><ele>260.5</ele><time>2026-04-04T10:42:20Z</time></trkpt><trkpt lat="45.03718710321554" lon="7.991318916736478"><ele>259.0</ele><time>2026-04-04T10:42:21Z</time></trkpt><trkpt lat="45.03722428290722" lon="7.991507375193022"><ele>257.5</ele><time>2026-04-04T10:42:22Z</time></trkpt><trkpt lat="45.03726818005283" lon="7.9916955420487605"><ele>256.0</ele><time>2026-04-04T10:42:23Z</time></trkpt><trkpt lat="45.037309601760896" lon="7.991886532100652"><ele>254.25</ele><time>2026-04-04T10:42:24Z</time></trkpt><trkpt lat="45.037350896392326" lon="7.992081775490532"><ele>252.5</ele><time>2026-04-04T10:42:25Z</time></trkpt><trkpt lat="45.03739117415698" lon="7.99227233593489"><ele>250.75</ele><time>2026-04-04T10:42:26Z</time></trkpt><trkpt lat="45.03743177497268" lon="7.99245865584149"><ele>249.0</ele><time>2026-04-04T10:42:27Z</time></trkpt><trkpt lat="45.03747265702867" lon="7.992639197263454"><ele>248.25</ele><time>2026-04-04T10:42:28Z</time></trkpt><trkpt lat="45.037511591716864" lon="7.992814865062574"><ele>247.5</ele><time>2026-04-04T10:42:29Z</time></trkpt><trkpt lat="45.0375490582266" lon="7.992982922995031"><ele>246.75</ele><time>2026-04-04T10:42:30Z</time></trkpt><trkpt lat="45.03758552271394" lon="7.993143303642243"><ele>246.0</ele><time>2026-04-04T10:42:31Z</time></trkpt><trkpt lat="45.037618519380274" lon="7.993301069656528"><ele>245.8</ele><time>2026-04-04T10:42:32Z</time></trkpt><trkpt lat="45.03764796419882" lon="7.993451675679356"><ele>245.60000000000002</ele><time>2026-04-04T10:42:33Z</time></trkpt><trkpt lat="45.03767653918985" lon="7.993595841261419"><ele>245.4</ele><time>2026-04-04T10:42:34Z</time></trkpt><trkpt lat="45.03770297783066" lon="7.993730032953332"><ele>245.2</ele><time>2026-04-04T10:42:35Z</time></trkpt><trkpt lat="45.03772666540557" lon="7.9938464152752315"><ele>245.0</ele><time>2026-04-04T10:42:36Z</time></trkpt><trkpt lat="45.037751526050506" lon="7.9939519697974015"><ele>245.0</ele><time>2026-04-04T10:42:37Z</time></trkpt><trkpt lat="45.037773673295945" lon="7.994042782610451"><ele>245.0</ele><time>2026-04-04T10:42:38Z</time></trkpt><trkpt lat="45.03780949347559" lon="7.994196800575993"><ele>245.0</ele><time>2026-04-04T10:42:40Z</time></trkpt><trkpt lat="45.037832550055995" lon="7.9943218400119695"><ele>245.0</ele><time>2026-04-04T10:42:42Z</time></trkpt><trkpt lat="45.037853305862974" lon="7.994421194729635"><ele>245.0</ele><time>2026-04-04T10:42:45Z</time></trkpt><trkpt lat="45.037887318270684" lon="7.994565377763952"><ele>244.6</ele><time>2026-04-04T10:42:48Z</time></trkpt><trkpt lat="45.03792244771018" lon="7.994727910658071"><ele>244.2</ele><time>2026-04-04T10:42:50Z</time></trkpt><trkpt lat="45.03794434221551" lon="7.994830060079278"><ele>243.8</ele><time>2026-04-04T10:42:51Z</time></trkpt><trkpt lat="45.037967341417605" lon="7.994940617454611"><ele>243.4</ele><time>2026-04-04T10:42:52Z</time></trkpt><trkpt lat="45.037993182852155" lon="7.995057505810454"><ele>243.0</ele><time>2026-04-04T10:42:53Z</time></trkpt><trkpt lat="45.03802173190894" lon="7.995187684166454"><ele>242.8</ele><time>2026-04-04T10:42:54Z</time></trkpt><trkpt lat="45.03805060238927" lon="7.995323133675702"><ele>242.60000000000002</ele><time>2026-04-04T10:42:55Z</time></trkpt><trkpt lat="45.03808183598818" lon="7.995468868873177"><ele>242.39999999999998</ele><time>2026-04-04T10:42:56Z</time></trkpt><trkpt lat="45.03811541193355" lon="7.995618407254054"><ele>242.2</ele><time>2026-04-04T10:42:57Z</time></trkpt><trkpt lat="45.03815111728246" lon="7.995777027974951"><ele>242.0</ele><time>2026-04-04T10:42:58Z</time></trkpt><trkpt lat="45.03819007110771" lon="7.995949026531677"><ele>241.75</ele><time>2026-04-04T10:42:59Z</time></trkpt><trkpt lat="45.038230308960124" lon="7.996132566814059"><ele>241.5</ele><time>2026-04-04T10:43:00Z</time></trkpt><trkpt lat="45.03827182287023" lon="7.996326061319314"><ele>241.25</ele><time>2026-04-04T10:43:01Z</time></trkpt><trkpt lat="45.0383128808621" lon="7.996526839827314"><ele>241.0</ele><time>2026-04-04T10:43:02Z</time></trkpt><trkpt lat="45.03835701664866" lon="7.996739106530906"><ele>241.66666666666666</ele><time>2026-04-04T10:43:03Z</time></trkpt><trkpt lat="45.0384038218854" lon="7.996946779314554"><ele>242.33333333333331</ele><time>2026-04-04T10:43:04Z</time></trkpt><trkpt lat="45.03845423966686" lon="7.9971633339559425"><ele>243.0</ele><time>2026-04-04T10:43:05Z</time></trkpt><trkpt lat="45.03850397315549" lon="7.997384887431605"><ele>245.33333333333331</ele><time>2026-04-04T10:43:06Z</time></trkpt><trkpt lat="45.0385519582361" lon="7.997609741943943"><ele>247.66666666666666</ele><time>2026-04-04T10:43:07Z</time></trkpt><trkpt lat="45.038598262397095" lon="7.997830250840508"><ele>250.0</ele><time>2026-04-04T10:43:08Z</time></trkpt><trkpt lat="45.038646226427836" lon="7.998058256107297"><ele>250.0</ele><time>2026-04-04T10:43:09Z</time></trkpt><trkpt lat="45.03869381404768" lon="7.998289208621298"><ele>250.0</ele><time>2026-04-04T10:43:10Z</time></trkpt><trkpt lat="45.03874272512938" lon="7.998519185114163"><ele>250.0</ele><time>2026-04-04T10:43:11Z</time></trkpt><trkpt lat="45.03879284762676" lon="7.998750244646152"><ele>254.33333333333331</ele><time>2026-04-04T10:43:12Z</time></trkpt><trkpt lat="45.038843949906806" lon="7.998984057806126"><ele>258.6666666666667</ele><time>2026-04-04T10:43:13Z</time></trkpt><trkpt lat="45.038895502539326" lon="7.999227646554326"><ele>263.0</ele><time>2026-04-04T10:43:14Z</time></trkpt><trkpt lat="45.03894551649468" lon="7.999464965037684"><ele>267.6666666666667</ele><time>2026-04-04T10:43:15Z</time></trkpt><trkpt lat="45.03899610359648" lon="7.999704807727332"><ele>272.3333333333333</ele><time>2026-04-04T10:43:16Z</time></trkpt><trkpt lat="45.03904473533714" lon="7.999940980571862"><ele>277.0</ele><time>2026-04-04T10:43:17Z</time></trkpt><trkpt lat="45.03909437898672" lon="8.000172518821003"><ele>268.3333333333333</ele><time>2026-04-04T10:43:18Z</time></trkpt><trkpt lat="45.039143941106715" lon="8.000397174300339"><ele>259.6666666666667</ele><time>2026-04-04T10:43:19Z</time></trkpt><trkpt lat="45.03918867877057" lon="8.000614386250115"><ele>251.0</ele><time>2026-04-04T10:43:20Z</time></trkpt><trkpt lat="45.039222231818144" lon="8.000821133243663"><ele>253.66666666666669</ele><time>2026-04-04T10:43:21Z</time></trkpt><trkpt lat="45.03924634240595" lon="8.001030713602187"><ele>256.3333333333333</ele><time>2026-04-04T10:43:22Z</time></trkpt><trkpt lat="45.03924023624547" lon="8.001241816691053"><ele>259.0</ele><time>2026-04-04T10:43:23Z</time></trkpt><trkpt lat="45.039259885674326" lon="8.00146000924703"><ele>264.0</ele><time>2026-04-04T10:43:24Z</time></trkpt><trkpt lat="45.039262368640784" lon="8.001685180221983"><ele>269.0</ele><time>2026-04-04T10:43:25Z</time></trkpt><trkpt lat="45.03925055451506" lon="8.001903141123048"><ele>274.0</ele><time>2026-04-04T10:43:26Z</time></trkpt><trkpt lat="45.03925466585112" lon="8.002122926451499"><ele>274.0</ele><time>2026-04-04T10:43:27.022Z</time></trkpt><trkpt lat="45.039258455081445" lon="8.002334375128319"><ele>274.0</ele><time>2026-04-04T10:43:28.017Z</time></trkpt><trkpt lat="45.039262575958475" lon="8.002544203595082"><ele>274.0</ele><time>2026-04-04T10:43:29.015Z</time></trkpt><trkpt lat="45.03926651597441" lon="8.002748586826012"><ele>274.0</ele><time>2026-04-04T10:43:30.018Z</time></trkpt><trkpt lat="45.039270749242206" lon="8.002947357974094"><ele>274.0</ele><time>2026-04-04T10:43:31.02Z</time></trkpt><trkpt lat="45.03928987945659" lon="8.003467613839275"><ele>274.0</ele><time>2026-04-04T10:43:33Z</time></trkpt><trkpt lat="45.03935802361215" lon="8.0038728511457"><ele>274.0</ele><time>2026-04-04T10:43:34Z</time></trkpt><trkpt lat="45.039429417716725" lon="8.004125350314458"><ele>274.0</ele><time>2026-04-04T10:43:35Z</time></trkpt><trkpt lat="45.03948154271144" lon="8.004387504854567"><ele>274.0</ele><time>2026-04-04T10:43:36Z</time></trkpt><trkpt lat="45.039540904960795" lon="8.004648679936562"><ele>271.0</ele><time>2026-04-04T10:43:37Z</time></trkpt><trkpt lat="45.03961594597673" lon="8.004909320091798"><ele>268.0</ele><time>2026-04-04T10:43:38Z</time></trkpt><trkpt lat="45.03970704432038" lon="8.005158193001948"><ele>265.0</ele><time>2026-04-04T10:43:39Z</time></trkpt><trkpt lat="45.039820115059854" lon="8.005391706915344"><ele>265.0</ele><time>2026-04-04T10:43:40Z</time></trkpt><trkpt lat="45.039929829855645" lon="8.005603813507701"><ele>265.0</ele><time>2026-04-04T10:43:41Z</time></trkpt><trkpt lat="45.04001981026847" lon="8.005807156780689"><ele>265.0</ele><time>2026-04-04T10:43:42Z</time></trkpt><trkpt lat="45.04007468050668" lon="8.005998696205827"><ele>258.66666666666663</ele><time>2026-04-04T10:43:43Z</time></trkpt><trkpt lat="45.04009294599327" lon="8.00619670281213"><ele>252.33333333333331</ele><time>2026-04-04T10:43:44Z</time></trkpt><trkpt lat="45.04003720470492" lon="8.006396049964554"><ele>246.0</ele><time>2026-04-04T10:43:45Z</time></trkpt><trkpt lat="45.03996819710504" lon="8.006612216248648"><ele>251.0</ele><time>2026-04-04T10:43:46Z</time></trkpt><trkpt lat="45.0398973724856" lon="8.006834159878174"><ele>256.0</ele><time>2026-04-04T10:43:47Z</time></trkpt><trkpt lat="45.03983022967468" lon="8.007080109175305"><ele>261.0</ele><time>2026-04-04T10:43:48Z</time></trkpt><trkpt lat="45.03974984886523" lon="8.00732542585308"><ele>255.0</ele><time>2026-04-04T10:43:49Z</time></trkpt><trkpt lat="45.03966874124459" lon="8.007585880888337"><ele>249.0</ele><time>2026-04-04T10:43:50Z</time></trkpt><trkpt lat="45.03958852049518" lon="8.007849759716098"><ele>243.0</ele><time>2026-04-04T10:43:51Z</time></trkpt><trkpt lat="45.039505499117574" lon="8.00811796872902"><ele>243.66666666666669</ele><time>2026-04-04T10:43:52Z</time></trkpt><trkpt lat="45.03940175981351" lon="8.008384720396743"><ele>244.33333333333334</ele><time>2026-04-04T10:43:53Z</time></trkpt><trkpt lat="45.039255998482616" lon="8.008630202230831"><ele>245.0</ele><time>2026-04-04T10:43:54Z</time></trkpt><trkpt lat="45.03911384766939" lon="8.008907964140194"><ele>240.5</ele><time>2026-04-04T10:43:55Z</time></trkpt><trkpt lat="45.03895264614633" lon="8.009171289704586"><ele>236.0</ele><time>2026-04-04T10:43:56Z</time></trkpt><trkpt lat="45.0387969893894" lon="8.00943822198952"><ele>236.0</ele><time>2026-04-04T10:43:57Z</time></trkpt><trkpt lat="45.038644742973474" lon="8.009704706685149"><ele>236.0</ele><time>2026-04-04T10:43:58Z</time></trkpt><trkpt lat="45.0384975409882" lon="8.009962495651108"><ele>236.66666666666669</ele><time>2026-04-04T10:43:59Z</time></trkpt><trkpt lat="45.0383631693574" lon="8.010192556186794"><ele>237.33333333333331</ele><time>2026-04-04T10:44:00Z</time></trkpt><trkpt lat="45.038239852205706" lon="8.010420059878715"><ele>238.0</ele><time>2026-04-04T10:44:01Z</time></trkpt><trkpt lat="45.03814611123456" lon="8.010652295906725"><ele>236.0</ele><time>2026-04-04T10:44:02Z</time></trkpt><trkpt lat="45.03808577310667" lon="8.010918867356098"><ele>234.0</ele><time>2026-04-04T10:44:03Z</time></trkpt><trkpt lat="45.03805444983009" lon="8.011208586378558"><ele>232.0</ele><time>2026-04-04T10:44:04Z</time></trkpt><trkpt lat="45.0380257880546" lon="8.011511855702826"><ele>231.0</ele><time>2026-04-04T10:44:05Z</time></trkpt><trkpt lat="45.03798330488946" lon="8.011820979233098"><ele>230.0</ele><time>2026-04-04T10:44:06Z</time></trkpt><trkpt lat="45.03793920307442" lon="8.012129810075336"><ele>229.0</ele><time>2026-04-04T10:44:07Z</time></trkpt><trkpt lat="45.03789594204572" lon="8.012439100083624"><ele>227.66666666666666</ele><time>2026-04-04T10:44:08Z</time></trkpt><trkpt lat="45.037857969809394" lon="8.012741942482029"><ele>226.33333333333331</ele><time>2026-04-04T10:44:09Z</time></trkpt><trkpt lat="45.03781937746479" lon="8.013038383400742"><ele>225.0</ele><time>2026-04-04T10:44:10Z</time></trkpt><trkpt lat="45.0377780137469" lon="8.013331751036539"><ele>223.33333333333331</ele><time>2026-04-04T10:44:11Z</time></trkpt><trkpt lat="45.037739002262846" lon="8.013618168509447"><ele>221.66666666666666</ele><time>2026-04-04T10:44:12Z</time></trkpt><trkpt lat="45.03770108013096" lon="8.013899054183492"><ele>220.0</ele><time>2026-04-04T10:44:13Z</time></trkpt><trkpt lat="45.03766233011745" lon="8.014175196973605"><ele>219.0</ele><time>2026-04-04T10:44:14Z</time></trkpt><trkpt lat="45.037623726995754" lon="8.014445870016738"><ele>218.0</ele><time>2026-04-04T10:44:15Z</time></trkpt><trkpt lat="45.03758429900716" lon="8.014698383182976"><ele>217.0</ele><time>2026-04-04T10:44:16Z</time></trkpt><trkpt lat="45.03755027589695" lon="8.01491761518996"><ele>217.0</ele><time>2026-04-04T10:44:17Z</time></trkpt><trkpt lat="45.03752973650264" lon="8.015098504956562"><ele>217.0</ele><time>2026-04-04T10:44:18Z</time></trkpt><trkpt lat="45.03751528875736" lon="8.015254315581233"><ele>217.0</ele><time>2026-04-04T10:44:19Z</time></trkpt><trkpt lat="45.03750838738351" lon="8.015361771195126"><ele>217.0</ele><time>2026-04-04T10:44:20Z</time></trkpt><trkpt lat="45.0375099177216" lon="8.015498730928282"><ele>217.0</ele><time>2026-04-04T10:44:22Z</time></trkpt><trkpt lat="45.03750801611137" lon="8.015622107033414"><ele>217.0</ele><time>2026-04-04T10:44:25Z</time></trkpt><trkpt lat="45.037523321341546" lon="8.015759605934363"><ele>217.0</ele><time>2026-04-04T10:44:33Z</time></trkpt><trkpt lat="45.03753250306685" lon="8.015908891294597"><ele>217.0</ele><time>2026-04-04T10:44:35Z</time></trkpt><trkpt lat="45.03754748474548" lon="8.015998050023393"><ele>217.0</ele><time>2026-04-04T10:44:37Z</time></trkpt><trkpt lat="45.037677892604606" lon="8.01601808043091"><ele>217.0</ele><time>2026-04-04T10:44:41Z</time></trkpt><trkpt lat="45.037742040943115" lon="8.015976333128918"><ele>216.99999999999997</ele><time>2026-04-04T10:44:42Z</time></trkpt><trkpt lat="45.03781450162106" lon="8.015963223859055"><ele>217.0</ele><time>2026-04-04T10:44:43Z</time></trkpt><trkpt lat="45.03789177967534" lon="8.015948763299626"><ele>217.0</ele><time>2026-04-04T10:44:44Z</time></trkpt><trkpt lat="45.03797693409832" lon="8.015930315936146"><ele>217.0</ele><time>2026-04-04T10:44:45Z</time></trkpt><trkpt lat="45.038068734588606" lon="8.015904143013788"><ele>216.99999999999997</ele><time>2026-04-04T10:44:46Z</time></trkpt><trkpt lat="45.03816817783818" lon="8.015876873817385"><ele>217.0</ele><time>2026-04-04T10:44:47Z</time></trkpt><trkpt lat="45.03827166052019" lon="8.01585318445927"><ele>218.5</ele><time>2026-04-04T10:44:48Z</time></trkpt><trkpt lat="45.0383786075412" lon="8.01582730838307"><ele>220.0</ele><time>2026-04-04T10:44:49Z</time></trkpt><trkpt lat="45.038484192298846" lon="8.015805326971286"><ele>221.5</ele><time>2026-04-04T10:44:50Z</time></trkpt><trkpt lat="45.038596989880645" lon="8.015777536725963"><ele>223.0</ele><time>2026-04-04T10:44:51Z</time></trkpt><trkpt lat="45.03871981258014" lon="8.015754629732509"><ele>223.0</ele><time>2026-04-04T10:44:52Z</time></trkpt><trkpt lat="45.0388439244401" lon="8.015724744617357"><ele>223.0</ele><time>2026-04-04T10:44:53Z</time></trkpt><trkpt lat="45.038977830506745" lon="8.015697329289285"><ele>223.0</ele><time>2026-04-04T10:44:54Z</time></trkpt><trkpt lat="45.03911256284823" lon="8.01566763355151"><ele>223.0</ele><time>2026-04-04T10:44:55Z</time></trkpt><trkpt lat="45.03925457890998" lon="8.015635045900382"><ele>222.0</ele><time>2026-04-04T10:44:56Z</time></trkpt><trkpt lat="45.03940121421652" lon="8.015602341721372"><ele>221.0</ele><time>2026-04-04T10:44:57Z</time></trkpt><trkpt lat="45.03955294883764" lon="8.015574783354321"><ele>220.0</ele><time>2026-04-04T10:44:58Z</time></trkpt><trkpt lat="45.03970569094637" lon="8.01556052318828"><ele>220.0</ele><time>2026-04-04T10:44:59Z</time></trkpt><trkpt lat="45.03986104917144" lon="8.015558478243742"><ele>220.0</ele><time>2026-04-04T10:45:00Z</time></trkpt><trkpt lat="45.04002534931544" lon="8.015569555976853"><ele>220.0</ele><time>2026-04-04T10:45:01Z</time></trkpt><trkpt lat="45.04019275764429" lon="8.01558947749968"><ele>219.33333333333331</ele><time>2026-04-04T10:45:02Z</time></trkpt><trkpt lat="45.04037269421059" lon="8.015615612254592"><ele>218.66666666666669</ele><time>2026-04-04T10:45:03Z</time></trkpt><trkpt lat="45.04055029218985" lon="8.015638128196834"><ele>218.0</ele><time>2026-04-04T10:45:04Z</time></trkpt><trkpt lat="45.040730658069236" lon="8.01566331494293"><ele>218.0</ele><time>2026-04-04T10:45:05Z</time></trkpt><trkpt lat="45.04090936812543" lon="8.015684786045776"><ele>218.0</ele><time>2026-04-04T10:45:06Z</time></trkpt><trkpt lat="45.041091092616874" lon="8.015708029508962"><ele>218.0</ele><time>2026-04-04T10:45:07Z</time></trkpt><trkpt lat="45.041272052011884" lon="8.015728291707651"><ele>218.0</ele><time>2026-04-04T10:45:08Z</time></trkpt><trkpt lat="45.04145398914728" lon="8.015749003745146"><ele>218.0</ele><time>2026-04-04T10:45:09Z</time></trkpt><trkpt lat="45.041635064348704" lon="8.015777375865362"><ele>218.0</ele><time>2026-04-04T10:45:10Z</time></trkpt><trkpt lat="45.04182234669945" lon="8.015802482083124"><ele>217.66666666666669</ele><time>2026-04-04T10:45:11Z</time></trkpt><trkpt lat="45.042010675190895" lon="8.015832937298223"><ele>217.33333333333331</ele><time>2026-04-04T10:45:12Z</time></trkpt><trkpt lat="45.04220165581526" lon="8.01585915963019"><ele>217.0</ele><time>2026-04-04T10:45:13Z</time></trkpt><trkpt lat="45.04239518558807" lon="8.015883101966159"><ele>216.66666666666666</ele><time>2026-04-04T10:45:14Z</time></trkpt><trkpt lat="45.04258732704521" lon="8.015908257259193"><ele>216.33333333333331</ele><time>2026-04-04T10:45:15Z</time></trkpt><trkpt lat="45.042779137923475" lon="8.015931069427765"><ele>216.0</ele><time>2026-04-04T10:45:16Z</time></trkpt><trkpt lat="45.04297563852044" lon="8.015956879467407"><ele>216.0</ele><time>2026-04-04T10:45:17Z</time></trkpt><trkpt lat="45.043169868077094" lon="8.016003165968602"><ele>216.0</ele><time>2026-04-04T10:45:18Z</time></trkpt><trkpt lat="45.04336913770274" lon="8.016030044464083"><ele>216.0</ele><time>2026-04-04T10:45:19Z</time></trkpt><trkpt lat="45.0435684728325" lon="8.016056519100262"><ele>216.33333333333331</ele><time>2026-04-04T10:45:20Z</time></trkpt><trkpt lat="45.04376418832431" lon="8.016059756913386"><ele>216.66666666666666</ele><time>2026-04-04T10:45:21Z</time></trkpt><trkpt lat="45.04395787253754" lon="8.016091462840713"><ele>217.0</ele><time>2026-04-04T10:45:22Z</time></trkpt><trkpt lat="45.04414986595595" lon="8.0161181090935"><ele>217.0</ele><time>2026-04-04T10:45:23Z</time></trkpt><trkpt lat="45.04434369392708" lon="8.016145695870986"><ele>217.0</ele><time>2026-04-04T10:45:24Z</time></trkpt><trkpt lat="45.0445367209968" lon="8.016169269658706"><ele>217.0</ele><time>2026-04-04T10:45:25Z</time></trkpt><trkpt lat="45.04472972583552" lon="8.016216973310533"><ele>217.0</ele><time>2026-04-04T10:45:26Z</time></trkpt><trkpt lat="45.04492241072609" lon="8.01624472618072"><ele>217.0</ele><time>2026-04-04T10:45:27Z</time></trkpt><trkpt lat="45.04511524679706" lon="8.016269397687646"><ele>217.0</ele><time>2026-04-04T10:45:28Z</time></trkpt><trkpt lat="45.045308703317815" lon="8.016292314488458"><ele>218.0</ele><time>2026-04-04T10:45:29Z</time></trkpt><trkpt lat="45.04550266132162" lon="8.016316915488234"><ele>219.0</ele><time>2026-04-04T10:45:30Z</time></trkpt><trkpt lat="45.04569241568922" lon="8.016342487681944"><ele>220.0</ele><time>2026-04-04T10:45:31Z</time></trkpt><trkpt lat="45.04588635573519" lon="8.01636804012241"><ele>220.0</ele><time>2026-04-04T10:45:32Z</time></trkpt><trkpt lat="45.046078349933865" lon="8.01639145404836"><ele>220.0</ele><time>2026-04-04T10:45:33Z</time></trkpt><trkpt lat="45.04626869269138" lon="8.016414666578486"><ele>220.0</ele><time>2026-04-04T10:45:34Z</time></trkpt><trkpt lat="45.04646799499151" lon="8.01643897173854"><ele>220.0</ele><time>2026-04-04T10:45:35Z</time></trkpt><trkpt lat="45.04666727144888" lon="8.016463273745645"><ele>220.0</ele><time>2026-04-04T10:45:36Z</time></trkpt><trkpt lat="45.0468696534233" lon="8.01646869598516"><ele>220.0</ele><time>2026-04-04T10:45:37Z</time></trkpt><trkpt lat="45.04707118375517" lon="8.016492436117144"><ele>220.0</ele><time>2026-04-04T10:45:38Z</time></trkpt><trkpt lat="45.04727176634863" lon="8.016541657639085"><ele>220.0</ele><time>2026-04-04T10:45:39Z</time></trkpt><trkpt lat="45.04747336447731" lon="8.016568268618157"><ele>220.0</ele><time>2026-04-04T10:45:40Z</time></trkpt><trkpt lat="45.04767246901118" lon="8.01659272575609"><ele>220.0</ele><time>2026-04-04T10:45:41Z</time></trkpt><trkpt lat="45.047876944955924" lon="8.016620540122345"><ele>220.0</ele><time>2026-04-04T10:45:42Z</time></trkpt><trkpt lat="45.04808171159326" lon="8.016632826461347"><ele>220.0</ele><time>2026-04-04T10:45:43Z</time></trkpt><trkpt lat="45.04827370884781" lon="8.01671466352438"><ele>222.0</ele><time>2026-04-04T10:45:44Z</time></trkpt><trkpt lat="45.04846174681227" lon="8.0168105609434"><ele>224.0</ele><time>2026-04-04T10:45:45Z</time></trkpt><trkpt lat="45.04864830053792" lon="8.016916208260353"><ele>226.0</ele><time>2026-04-04T10:45:46Z</time></trkpt><trkpt lat="45.0488292712877" lon="8.017004916283991"><ele>226.0</ele><time>2026-04-04T10:45:47Z</time></trkpt><trkpt lat="45.04902381819828" lon="8.017050497876856"><ele>226.0</ele><time>2026-04-04T10:45:48Z</time></trkpt><trkpt lat="45.049213730487565" lon="8.01705222418326"><ele>226.0</ele><time>2026-04-04T10:45:49Z</time></trkpt><trkpt lat="45.04939816765009" lon="8.017075547088448"><ele>227.0</ele><time>2026-04-04T10:45:50Z</time></trkpt><trkpt lat="45.04958019453513" lon="8.017128459882679"><ele>228.0</ele><time>2026-04-04T10:45:51Z</time></trkpt><trkpt lat="45.04975175646729" lon="8.017246185067513"><ele>229.0</ele><time>2026-04-04T10:45:52Z</time></trkpt><trkpt lat="45.04994613091698" lon="8.017358399673572"><ele>228.0</ele><time>2026-04-04T10:45:53Z</time></trkpt><trkpt lat="45.05013419866518" lon="8.017456591787337"><ele>227.0</ele><time>2026-04-04T10:45:54Z</time></trkpt><trkpt lat="45.05032707177086" lon="8.01755069252745"><ele>226.0</ele><time>2026-04-04T10:45:55Z</time></trkpt><trkpt lat="45.0505174707499" lon="8.017634344802206"><ele>232.0</ele><time>2026-04-04T10:45:56Z</time></trkpt><trkpt lat="45.05070947828467" lon="8.017707779981652"><ele>238.0</ele><time>2026-04-04T10:45:57Z</time></trkpt><trkpt lat="45.050907877921205" lon="8.017754588265106"><ele>244.0</ele><time>2026-04-04T10:45:58Z</time></trkpt><trkpt lat="45.05110416942573" lon="8.017808525211766"><ele>245.0</ele><time>2026-04-04T10:45:59Z</time></trkpt><trkpt lat="45.05130102745622" lon="8.017851215854819"><ele>246.0</ele><time>2026-04-04T10:46:00Z</time></trkpt><trkpt lat="45.051500209018734" lon="8.017882820466324"><ele>247.0</ele><time>2026-04-04T10:46:01Z</time></trkpt><trkpt lat="45.05170680953264" lon="8.017907591211914"><ele>247.66666666666666</ele><time>2026-04-04T10:46:02Z</time></trkpt><trkpt lat="45.051921537240034" lon="8.017928105557358"><ele>248.33333333333331</ele><time>2026-04-04T10:46:03Z</time></trkpt><trkpt lat="45.052134080971584" lon="8.01792856595551"><ele>249.0</ele><time>2026-04-04T10:46:04Z</time></trkpt><trkpt lat="45.05236265331075" lon="8.01794340317527"><ele>248.5</ele><time>2026-04-04T10:46:05Z</time></trkpt><trkpt lat="45.05260085778161" lon="8.017922393894395"><ele>248.0</ele><time>2026-04-04T10:46:06Z</time></trkpt><trkpt lat="45.05284453783811" lon="8.01788862515983"><ele>248.0</ele><time>2026-04-04T10:46:07Z</time></trkpt><trkpt lat="45.05308659402997" lon="8.01781553473462"><ele>248.0</ele><time>2026-04-04T10:46:08Z</time></trkpt><trkpt lat="45.05332403538524" lon="8.017763739324824"><ele>251.66666666666669</ele><time>2026-04-04T10:46:09Z</time></trkpt><trkpt lat="45.05355344564365" lon="8.017739093719234"><ele>255.33333333333331</ele><time>2026-04-04T10:46:10Z</time></trkpt><trkpt lat="45.05376200217901" lon="8.017708759416447"><ele>259.0</ele><time>2026-04-04T10:46:11Z</time></trkpt><trkpt lat="45.05396512855266" lon="8.01769365306786"><ele>262.0</ele><time>2026-04-04T10:46:12Z</time></trkpt><trkpt lat="45.0541634961605" lon="8.017697450779679"><ele>265.0</ele><time>2026-04-04T10:46:13Z</time></trkpt><trkpt lat="45.05435621369049" lon="8.01772419829666"><ele>268.0</ele><time>2026-04-04T10:46:14Z</time></trkpt><trkpt lat="45.054535817594754" lon="8.017794167628837"><ele>268.0</ele><time>2026-04-04T10:46:15Z</time></trkpt><trkpt lat="45.05471526975191" lon="8.017893121812975"><ele>268.0</ele><time>2026-04-04T10:46:16Z</time></trkpt><trkpt lat="45.05489025933938" lon="8.017990551199732"><ele>268.0</ele><time>2026-04-04T10:46:17Z</time></trkpt><trkpt lat="45.05506388381871" lon="8.018070325196419"><ele>267.0</ele><time>2026-04-04T10:46:18Z</time></trkpt><trkpt lat="45.05523944708137" lon="8.01813462538883"><ele>266.0</ele><time>2026-04-04T10:46:19Z</time></trkpt><trkpt lat="45.055412296391594" lon="8.018186607887767"><ele>265.0</ele><time>2026-04-04T10:46:20Z</time></trkpt><trkpt lat="45.05558689693464" lon="8.018238300874517"><ele>265.0</ele><time>2026-04-04T10:46:21Z</time></trkpt><trkpt lat="45.0557543209569" lon="8.018270331936195"><ele>265.0</ele><time>2026-04-04T10:46:22Z</time></trkpt><trkpt lat="45.0559010482778" lon="8.018325557424093"><ele>265.0</ele><time>2026-04-04T10:46:23Z</time></trkpt><trkpt lat="45.0560488574029" lon="8.018369775581979"><ele>271.75</ele><time>2026-04-04T10:46:24Z</time></trkpt><trkpt lat="45.05619225090569" lon="8.018413916875138"><ele>278.5</ele><time>2026-04-04T10:46:25Z</time></trkpt><trkpt lat="45.05631859942574" lon="8.018476836732846"><ele>285.25</ele><time>2026-04-04T10:46:26Z</time></trkpt><trkpt lat="45.05645172005652" lon="8.018461554768374"><ele>292.0</ele><time>2026-04-04T10:46:27Z</time></trkpt><trkpt lat="45.05657579512914" lon="8.018487771579029"><ele>291.8</ele><time>2026-04-04T10:46:28Z</time></trkpt><trkpt lat="45.05667571499319" lon="8.01850195036748"><ele>291.6</ele><time>2026-04-04T10:46:29Z</time></trkpt><trkpt lat="45.05676777303918" lon="8.018484867248246"><ele>291.40000000000003</ele><time>2026-04-04T10:46:30Z</time></trkpt><trkpt lat="45.05685132299235" lon="8.01845671461858"><ele>291.2</ele><time>2026-04-04T10:46:31Z</time></trkpt><trkpt lat="45.05693880855918" lon="8.018422971056395"><ele>291.0</ele><time>2026-04-04T10:46:32Z</time></trkpt><trkpt lat="45.05702913492013" lon="8.018401712127671"><ele>291.0</ele><time>2026-04-04T10:46:33Z</time></trkpt><trkpt lat="45.05712305938462" lon="8.018384789634764"><ele>291.0</ele><time>2026-04-04T10:46:34Z</time></trkpt><trkpt lat="45.05721933915094" lon="8.018363319035457"><ele>291.0</ele><time>2026-04-04T10:46:35Z</time></trkpt><trkpt lat="45.05731738288586" lon="8.018342473619947"><ele>291.0</ele><time>2026-04-04T10:46:36Z</time></trkpt><trkpt lat="45.05742145515735" lon="8.018317708897467"><ele>291.0</ele><time>2026-04-04T10:46:37Z</time></trkpt><trkpt lat="45.0575202347731" lon="8.01829164913742"><ele>292.0</ele><time>2026-04-04T10:46:38Z</time></trkpt><trkpt lat="45.05763588242077" lon="8.018298843783366"><ele>293.0</ele><time>2026-04-04T10:46:39Z</time></trkpt><trkpt lat="45.05775743162267" lon="8.018329987576225"><ele>294.0</ele><time>2026-04-04T10:46:40Z</time></trkpt><trkpt lat="45.057877227722464" lon="8.018415322193343"><ele>295.0</ele><time>2026-04-04T10:46:41Z</time></trkpt><trkpt lat="45.057997644639926" lon="8.018500521206557"><ele>295.0</ele><time>2026-04-04T10:46:42Z</time></trkpt><trkpt lat="45.05811173118153" lon="8.018566963983389"><ele>295.0</ele><time>2026-04-04T10:46:43Z</time></trkpt><trkpt lat="45.05821273315896" lon="8.018584300321397"><ele>295.0</ele><time>2026-04-04T10:46:44Z</time></trkpt><trkpt lat="45.058322061892156" lon="8.018547921071555"><ele>295.0</ele><time>2026-04-04T10:46:45Z</time></trkpt><trkpt lat="45.05843169598763" lon="8.018470224906752"><ele>295.75</ele><time>2026-04-04T10:46:46Z</time></trkpt><trkpt lat="45.05853720855898" lon="8.01835418001745"><ele>296.5</ele><time>2026-04-04T10:46:47Z</time></trkpt><trkpt lat="45.058651621292675" lon="8.018240800064588"><ele>297.25</ele><time>2026-04-04T10:46:48Z</time></trkpt><trkpt lat="45.0587712819408" lon="8.0181207853609"><ele>298.0</ele><time>2026-04-04T10:46:49Z</time></trkpt><trkpt lat="45.05889600413837" lon="8.017997669930535"><ele>297.66666666666663</ele><time>2026-04-04T10:46:50Z</time></trkpt><trkpt lat="45.05902636979238" lon="8.017873275521712"><ele>297.3333333333333</ele><time>2026-04-04T10:46:51Z</time></trkpt><trkpt lat="45.05914902673998" lon="8.01774240395748"><ele>297.0</ele><time>2026-04-04T10:46:52Z</time></trkpt><trkpt lat="45.059272593482085" lon="8.017607863944148"><ele>295.0</ele><time>2026-04-04T10:46:53Z</time></trkpt><trkpt lat="45.059402078452116" lon="8.017482509186951"><ele>293.0</ele><time>2026-04-04T10:46:54Z</time></trkpt><trkpt lat="45.059537922801496" lon="8.017365837553426"><ele>291.0</ele><time>2026-04-04T10:46:55Z</time></trkpt><trkpt lat="45.05968449293494" lon="8.017268711763275"><ele>291.0</ele><time>2026-04-04T10:46:56Z</time></trkpt><trkpt lat="45.05983588423591" lon="8.01719597220252"><ele>291.0</ele><time>2026-04-04T10:46:57Z</time></trkpt><trkpt lat="45.06001329239465" lon="8.01715039046735"><ele>291.0</ele><time>2026-04-04T10:46:58Z</time></trkpt><trkpt lat="45.06018388907125" lon="8.017138942734341"><ele>291.6666666666667</ele><time>2026-04-04T10:46:59Z</time></trkpt><trkpt lat="45.060354433985694" lon="8.017142954497467"><ele>292.33333333333337</ele><time>2026-04-04T10:47:00Z</time></trkpt><trkpt lat="45.06053013406676" lon="8.017168536988834"><ele>293.0</ele><time>2026-04-04T10:47:01Z</time></trkpt><trkpt lat="45.060701189569876" lon="8.017213782764253"><ele>293.33333333333337</ele><time>2026-04-04T10:47:02Z</time></trkpt><trkpt lat="45.06086432688151" lon="8.017259457568867"><ele>293.6666666666667</ele><time>2026-04-04T10:47:03Z</time></trkpt><trkpt lat="45.061026003174504" lon="8.017312610283087"><ele>294.0</ele><time>2026-04-04T10:47:04Z</time></trkpt><trkpt lat="45.06117811804417" lon="8.017398797136474"><ele>297.3333333333333</ele><time>2026-04-04T10:47:05Z</time></trkpt><trkpt lat="45.06131738046391" lon="8.017513007797287"><ele>300.66666666666663</ele><time>2026-04-04T10:47:06Z</time></trkpt><trkpt lat="45.06144460278101" lon="8.017655875920958"><ele>304.0</ele><time>2026-04-04T10:47:07Z</time></trkpt><trkpt lat="45.061562252638964" lon="8.017814501802341"><ele>302.0</ele><time>2026-04-04T10:47:08Z</time></trkpt><trkpt lat="45.06168053367971" lon="8.017962906703517"><ele>300.0</ele><time>2026-04-04T10:47:09Z</time></trkpt><trkpt lat="45.06181408133151" lon="8.01808604263015"><ele>298.0</ele><time>2026-04-04T10:47:10Z</time></trkpt><trkpt lat="45.06196318339026" lon="8.01814786121499"><ele>298.0</ele><time>2026-04-04T10:47:11Z</time></trkpt><trkpt lat="45.06212472578788" lon="8.018177621615852"><ele>298.0</ele><time>2026-04-04T10:47:12Z</time></trkpt><trkpt lat="45.06229113593047" lon="8.018172502112574"><ele>298.0</ele><time>2026-04-04T10:47:13Z</time></trkpt><trkpt lat="45.06245742224824" lon="8.018169494321105"><ele>300.66666666666663</ele><time>2026-04-04T10:47:14Z</time></trkpt><trkpt lat="45.06262784249445" lon="8.018175697241617"><ele>303.3333333333333</ele><time>2026-04-04T10:47:15Z</time></trkpt><trkpt lat="45.06279692685231" lon="8.018169204375155"><ele>306.0</ele><time>2026-04-04T10:47:16Z</time></trkpt><trkpt lat="45.062953068959686" lon="8.018123859893933"><ele>306.0</ele><time>2026-04-04T10:47:17Z</time></trkpt><trkpt lat="45.06309745582518" lon="8.018050910029853"><ele>306.0</ele><time>2026-04-04T10:47:18Z</time></trkpt><trkpt lat="45.06323434148191" lon="8.018026051998778"><ele>306.0</ele><time>2026-04-04T10:47:19Z</time></trkpt><trkpt lat="45.06337574965291" lon="8.018075682871597"><ele>306.0</ele><time>2026-04-04T10:47:20Z</time></trkpt><trkpt lat="45.063506267931096" lon="8.018174333340092"><ele>306.0</ele><time>2026-04-04T10:47:21Z</time></trkpt><trkpt lat="45.06362438336472" lon="8.018301887377536"><ele>306.0</ele><time>2026-04-04T10:47:22Z</time></trkpt><trkpt lat="45.06372331805038" lon="8.018404362310227"><ele>306.0</ele><time>2026-04-04T10:47:23Z</time></trkpt><trkpt lat="45.06382500958898" lon="8.018420275238618"><ele>306.0</ele><time>2026-04-04T10:47:24Z</time></trkpt><trkpt lat="45.06392844781876" lon="8.01836387853944"><ele>306.0</ele><time>2026-04-04T10:47:25Z</time></trkpt><trkpt lat="45.064023104206534" lon="8.018242053358128"><ele>306.0</ele><time>2026-04-04T10:47:26Z</time></trkpt><trkpt lat="45.06410881758038" lon="8.01810769929415"><ele>306.0</ele><time>2026-04-04T10:47:27Z</time></trkpt><trkpt lat="45.06419867373061" lon="8.017992256838127"><ele>306.0</ele><time>2026-04-04T10:47:28Z</time></trkpt><trkpt lat="45.06427938758557" lon="8.017906214639112"><ele>306.8333333333333</ele><time>2026-04-04T10:47:29Z</time></trkpt><trkpt lat="45.06436296736912" lon="8.017893975570356"><ele>307.6666666666667</ele><time>2026-04-04T10:47:30Z</time></trkpt><trkpt lat="45.06442698353185" lon="8.017906229193986"><ele>308.5</ele><time>2026-04-04T10:47:31Z</time></trkpt><trkpt lat="45.06447271331793" lon="8.017975632002994"><ele>309.33333333333337</ele><time>2026-04-04T10:47:32Z</time></trkpt><trkpt lat="45.0644493851987" lon="8.018104057451767"><ele>310.1666666666667</ele><time>2026-04-04T10:47:33Z</time></trkpt><trkpt lat="45.06439692274965" lon="8.018190590007546"><ele>311.0</ele><time>2026-04-04T10:47:34Z</time></trkpt><trkpt lat="45.06431512609687" lon="8.018263167428548"><ele>314.8</ele><time>2026-04-04T10:47:35Z</time></trkpt><trkpt lat="45.06425139682263" lon="8.01837719744047"><ele>318.6</ele><time>2026-04-04T10:47:36Z</time></trkpt><trkpt lat="45.064235620328176" lon="8.018495473396582"><ele>322.4</ele><time>2026-04-04T10:47:37Z</time></trkpt><trkpt lat="45.06423881161952" lon="8.018634860910801"><ele>326.2</ele><time>2026-04-04T10:47:38Z</time></trkpt><trkpt lat="45.064270088177885" lon="8.018775902228715"><ele>330.0</ele><time>2026-04-04T10:47:39Z</time></trkpt><trkpt lat="45.06429618272115" lon="8.018909465118234"><ele>330.0</ele><time>2026-04-04T10:47:40Z</time></trkpt><trkpt lat="45.06432260222256" lon="8.019036450761226"><ele>330.0</ele><time>2026-04-04T10:47:41Z</time></trkpt><trkpt lat="45.064405172838654" lon="8.019100111130419"><ele>330.0</ele><time>2026-04-04T10:47:42Z</time></trkpt><trkpt lat="45.06449972942874" lon="8.019063042314214"><ele>330.0</ele><time>2026-04-04T10:47:43Z</time></trkpt><trkpt lat="45.06457165307402" lon="8.018988488641885"><ele>330.0</ele><time>2026-04-04T10:47:44Z</time></trkpt><trkpt lat="45.064609360005576" lon="8.018863955560946"><ele>330.0</ele><time>2026-04-04T10:47:45Z</time></trkpt><trkpt lat="45.064621759684805" lon="8.018714634601348"><ele>330.0</ele><time>2026-04-04T10:47:46Z</time></trkpt><trkpt lat="45.06466039348839" lon="8.018572153978067"><ele>330.0</ele><time>2026-04-04T10:47:47Z</time></trkpt><trkpt lat="45.06468758121795" lon="8.01844537628978"><ele>330.0</ele><time>2026-04-04T10:47:48Z</time></trkpt><trkpt lat="45.064719254128754" lon="8.018343120471345"><ele>330.0</ele><time>2026-04-04T10:47:49Z</time></trkpt><trkpt lat="45.06479789972129" lon="8.018297762196111"><ele>330.0</ele><time>2026-04-04T10:47:50Z</time></trkpt><trkpt lat="45.06488356458508" lon="8.018351129199939"><ele>330.0</ele><time>2026-04-04T10:47:51Z</time></trkpt><trkpt lat="45.064947997188334" lon="8.018431053784248"><ele>330.0</ele><time>2026-04-04T10:47:52Z</time></trkpt><trkpt lat="45.06499916335119" lon="8.018556093722363"><ele>330.0</ele><time>2026-04-04T10:47:53Z</time></trkpt><trkpt lat="45.065060448843575" lon="8.01869039767942"><ele>330.0</ele><time>2026-04-04T10:47:54Z</time></trkpt><trkpt lat="45.06511604042628" lon="8.018842348639993"><ele>332.5</ele><time>2026-04-04T10:47:55Z</time></trkpt><trkpt lat="45.06517642754475" lon="8.018990043660734"><ele>335.0</ele><time>2026-04-04T10:47:56Z</time></trkpt><trkpt lat="45.06523868005646" lon="8.019125204781236"><ele>337.5</ele><time>2026-04-04T10:47:57Z</time></trkpt><trkpt lat="45.06532328199171" lon="8.019224751284234"><ele>340.0</ele><time>2026-04-04T10:47:58Z</time></trkpt><trkpt lat="45.065434670137655" lon="8.019279263286077"><ele>343.25</ele><time>2026-04-04T10:47:59Z</time></trkpt><trkpt lat="45.06556075833173" lon="8.019305193725982"><ele>346.5</ele><time>2026-04-04T10:48:00Z</time></trkpt><trkpt lat="45.06569763835188" lon="8.019305017562926"><ele>349.75</ele><time>2026-04-04T10:48:01Z</time></trkpt><trkpt lat="45.06584228093501" lon="8.019341965960052"><ele>353.0</ele><time>2026-04-04T10:48:02Z</time></trkpt><trkpt lat="45.06599413716349" lon="8.019337274199314"><ele>353.6666666666667</ele><time>2026-04-04T10:48:03Z</time></trkpt><trkpt lat="45.066147711897244" lon="8.019371829813512"><ele>354.3333333333333</ele><time>2026-04-04T10:48:04Z</time></trkpt><trkpt lat="45.06629944833908" lon="8.019425099956065"><ele>355.0</ele><time>2026-04-04T10:48:05Z</time></trkpt><trkpt lat="45.066449383366226" lon="8.019496474604578"><ele>355.0</ele><time>2026-04-04T10:48:06Z</time></trkpt><trkpt lat="45.06659714147945" lon="8.019601838228652"><ele>355.0</ele><time>2026-04-04T10:48:07Z</time></trkpt><trkpt lat="45.06674609490036" lon="8.019703952372629"><ele>355.0</ele><time>2026-04-04T10:48:08Z</time></trkpt><trkpt lat="45.06688982388051" lon="8.019819300503052"><ele>354.0</ele><time>2026-04-04T10:48:09Z</time></trkpt><trkpt lat="45.067018704505266" lon="8.01995016663256"><ele>353.0</ele><time>2026-04-04T10:48:10Z</time></trkpt><trkpt lat="45.06714292367094" lon="8.020095878444693"><ele>352.0</ele><time>2026-04-04T10:48:11Z</time></trkpt><trkpt lat="45.067270470429385" lon="8.020221566958686"><ele>357.25</ele><time>2026-04-04T10:48:12Z</time></trkpt><trkpt lat="45.067374032970335" lon="8.020348485286629"><ele>362.5</ele><time>2026-04-04T10:48:13Z</time></trkpt><trkpt lat="45.06747461519324" lon="8.020454009209166"><ele>367.75</ele><time>2026-04-04T10:48:14Z</time></trkpt><trkpt lat="45.06757886603155" lon="8.020533036436818"><ele>373.0</ele><time>2026-04-04T10:48:15Z</time></trkpt><trkpt lat="45.06769248897657" lon="8.02058676940177"><ele>374.25</ele><time>2026-04-04T10:48:16Z</time></trkpt><trkpt lat="45.06780523571691" lon="8.0206048703305"><ele>375.5</ele><time>2026-04-04T10:48:17Z</time></trkpt><trkpt lat="45.067916192763576" lon="8.020596642412789"><ele>376.75</ele><time>2026-04-04T10:48:18Z</time></trkpt><trkpt lat="45.0680272267274" lon="8.020564809583146"><ele>378.0</ele><time>2026-04-04T10:48:19Z</time></trkpt><trkpt lat="45.068138455707434" lon="8.020535156530224"><ele>378.0</ele><time>2026-04-04T10:48:20Z</time></trkpt><trkpt lat="45.06823496428353" lon="8.020475102089557"><ele>378.0</ele><time>2026-04-04T10:48:21Z</time></trkpt><trkpt lat="45.06832882316024" lon="8.020402549461169"><ele>378.0</ele><time>2026-04-04T10:48:22Z</time></trkpt><trkpt lat="45.06841470382655" lon="8.020308166025739"><ele>378.0</ele><time>2026-04-04T10:48:23Z</time></trkpt><trkpt lat="45.06851204783722" lon="8.020253047622475"><ele>378.0</ele><time>2026-04-04T10:48:24Z</time></trkpt><trkpt lat="45.06860466647732" lon="8.020188095203466"><ele>379.79999999999995</ele><time>2026-04-04T10:48:25Z</time></trkpt><trkpt lat="45.06870130023225" lon="8.02014560246744"><ele>381.6</ele><time>2026-04-04T10:48:26Z</time></trkpt><trkpt lat="45.06880985024424" lon="8.020131111739243"><ele>383.4</ele><time>2026-04-04T10:48:27Z</time></trkpt><trkpt lat="45.068914969005284" lon="8.020157185303946"><ele>385.20000000000005</ele><time>2026-04-04T10:48:28Z</time></trkpt><trkpt lat="45.06902017488562" lon="8.020220166497676"><ele>387.0</ele><time>2026-04-04T10:48:29Z</time></trkpt><trkpt lat="45.06911137827652" lon="8.02030085186033"><ele>388.40000000000003</ele><time>2026-04-04T10:48:30Z</time></trkpt><trkpt lat="45.069195431398484" lon="8.0203875209241"><ele>389.8</ele><time>2026-04-04T10:48:31Z</time></trkpt><trkpt lat="45.06929073869929" lon="8.020447086100434"><ele>391.2</ele><time>2026-04-04T10:48:32Z</time></trkpt><trkpt lat="45.06936638707679" lon="8.020533184007663"><ele>392.6</ele><time>2026-04-04T10:48:33Z</time></trkpt><trkpt lat="45.0694418395615" lon="8.020610814263948"><ele>394.0</ele><time>2026-04-04T10:48:34Z</time></trkpt><trkpt lat="45.06952000965168" lon="8.020673265882847"><ele>394.0</ele><time>2026-04-04T10:48:35Z</time></trkpt><trkpt lat="45.069594798650805" lon="8.02074602948138"><ele>394.0</ele><time>2026-04-04T10:48:36Z</time></trkpt><trkpt lat="45.06971478197135" lon="8.020710347359456"><ele>394.0</ele><time>2026-04-04T10:48:37Z</time></trkpt><trkpt lat="45.069822888633546" lon="8.020705129508487"><ele>394.0</ele><time>2026-04-04T10:48:38Z</time></trkpt><trkpt lat="45.06993689670142" lon="8.020731377489842"><ele>394.0</ele><time>2026-04-04T10:48:39Z</time></trkpt><trkpt lat="45.070035759218364" lon="8.020740588683767"><ele>391.79999999999995</ele><time>2026-04-04T10:48:40Z</time></trkpt><trkpt lat="45.07014031997757" lon="8.020763716361293"><ele>389.59999999999997</ele><time>2026-04-04T10:48:41Z</time></trkpt><trkpt lat="45.07024027762199" lon="8.020793438847008"><ele>387.4</ele><time>2026-04-04T10:48:42Z</time></trkpt><trkpt lat="45.070337752928474" lon="8.020823268819072"><ele>385.2</ele><time>2026-04-04T10:48:43Z</time></trkpt><trkpt lat="45.07042923817378" lon="8.020851265691608"><ele>383.0</ele><time>2026-04-04T10:48:44Z</time></trkpt><trkpt lat="45.07051823943834" lon="8.020856503920367"><ele>383.0</ele><time>2026-04-04T10:48:45Z</time></trkpt><trkpt lat="45.070589463732546" lon="8.020904938273842"><ele>383.0</ele><time>2026-04-04T10:48:46Z</time></trkpt><trkpt lat="45.07066596360511" lon="8.020913551150763"><ele>383.0</ele><time>2026-04-04T10:48:47Z</time></trkpt><trkpt lat="45.07073601760022" lon="8.020943774554285"><ele>383.0</ele><time>2026-04-04T10:48:48Z</time></trkpt><trkpt lat="45.07079632843598" lon="8.020984610128991"><ele>383.0</ele><time>2026-04-04T10:48:49Z</time></trkpt><trkpt lat="45.07086114598815" lon="8.021032498765393"><ele>383.0</ele><time>2026-04-04T10:48:50Z</time></trkpt><trkpt lat="45.07092462832346" lon="8.021090234036864"><ele>383.0</ele><time>2026-04-04T10:48:51Z</time></trkpt><trkpt lat="45.07098890330572" lon="8.021158503129929"><ele>382.4</ele><time>2026-04-04T10:48:52Z</time></trkpt><trkpt lat="45.07105503402341" lon="8.021245871486752"><ele>381.79999999999995</ele><time>2026-04-04T10:48:53Z</time></trkpt><trkpt lat="45.071106840693496" lon="8.021355342726231"><ele>381.2</ele><time>2026-04-04T10:48:54Z</time></trkpt><trkpt lat="45.07115546299233" lon="8.021482301402953"><ele>380.6</ele><time>2026-04-04T10:48:55Z</time></trkpt><trkpt lat="45.07119178455271" lon="8.021609816660526"><ele>380.0</ele><time>2026-04-04T10:48:56Z</time></trkpt><trkpt lat="45.0712246901695" lon="8.021705712279205"><ele>380.0</ele><time>2026-04-04T10:48:57Z</time></trkpt><trkpt lat="45.071320958307304" lon="8.021742390864471"><ele>380.0</ele><time>2026-04-04T10:48:59Z</time></trkpt><trkpt lat="45.0713564307093" lon="8.021615873917057"><ele>380.0</ele><time>2026-04-04T10:49:01Z</time></trkpt><trkpt lat="45.071324253866244" lon="8.021517504720235"><ele>380.0</ele><time>2026-04-04T10:49:02Z</time></trkpt><trkpt lat="45.07128787123541" lon="8.021412639535196"><ele>380.0</ele><time>2026-04-04T10:49:03Z</time></trkpt><trkpt lat="45.07125444673975" lon="8.021289827412703"><ele>380.0</ele><time>2026-04-04T10:49:04Z</time></trkpt><trkpt lat="45.07122415411233" lon="8.021162024154581"><ele>380.0</ele><time>2026-04-04T10:49:05Z</time></trkpt><trkpt lat="45.07119973098228" lon="8.02103316258455"><ele>380.0</ele><time>2026-04-04T10:49:06Z</time></trkpt><trkpt lat="45.07117926788276" lon="8.02090151387728"><ele>380.0</ele><time>2026-04-04T10:49:07Z</time></trkpt><trkpt lat="45.07116410008041" lon="8.020766920253223"><ele>380.0</ele><time>2026-04-04T10:49:08Z</time></trkpt><trkpt lat="45.0711432628841" lon="8.02060871401318"><ele>380.0</ele><time>2026-04-04T10:49:09Z</time></trkpt><trkpt lat="45.071117471217626" lon="8.020436756463965"><ele>380.25</ele><time>2026-04-04T10:49:10Z</time></trkpt><trkpt lat="45.071093806892165" lon="8.02025090514381"><ele>380.5</ele><time>2026-04-04T10:49:11Z</time></trkpt><trkpt lat="45.071076484878226" lon="8.020059495767745"><ele>380.75</ele><time>2026-04-04T10:49:12Z</time></trkpt><trkpt lat="45.071073973919425" lon="8.019856973988672"><ele>381.0</ele><time>2026-04-04T10:49:13Z</time></trkpt><trkpt lat="45.07109138000899" lon="8.019652936058401"><ele>382.0</ele><time>2026-04-04T10:49:14Z</time></trkpt><trkpt lat="45.07112359537604" lon="8.019444666165144"><ele>383.0</ele><time>2026-04-04T10:49:15Z</time></trkpt><trkpt lat="45.07116721493622" lon="8.019242072739017"><ele>384.0</ele><time>2026-04-04T10:49:16Z</time></trkpt><trkpt lat="45.07120863339644" lon="8.019044086441172"><ele>385.0</ele><time>2026-04-04T10:49:17Z</time></trkpt><trkpt lat="45.07124807731808" lon="8.018860120022413"><ele>380.25</ele><time>2026-04-04T10:49:18Z</time></trkpt><trkpt lat="45.07128839003739" lon="8.01868130250538"><ele>375.5</ele><time>2026-04-04T10:49:19Z</time></trkpt><trkpt lat="45.07132672140089" lon="8.018506283209181"><ele>370.75</ele><time>2026-04-04T10:49:20Z</time></trkpt><trkpt lat="45.07138593399498" lon="8.018350110442231"><ele>366.0</ele><time>2026-04-04T10:49:21Z</time></trkpt><trkpt lat="45.07147784710571" lon="8.018213187909245"><ele>360.0</ele><time>2026-04-04T10:49:22Z</time></trkpt><trkpt lat="45.07160508494295" lon="8.018134388424604"><ele>354.0</ele><time>2026-04-04T10:49:23Z</time></trkpt><trkpt lat="45.07173016591428" lon="8.018033902347641"><ele>348.0</ele><time>2026-04-04T10:49:24Z</time></trkpt><trkpt lat="45.071848076027315" lon="8.017927847456342"><ele>342.0</ele><time>2026-04-04T10:49:25Z</time></trkpt><trkpt lat="45.07196508840222" lon="8.017820990324376"><ele>341.25</ele><time>2026-04-04T10:49:26Z</time></trkpt><trkpt lat="45.07206327371648" lon="8.017662074142928"><ele>340.5</ele><time>2026-04-04T10:49:27Z</time></trkpt><trkpt lat="45.0721441026802" lon="8.017488145513877"><ele>339.75</ele><time>2026-04-04T10:49:28Z</time></trkpt><trkpt lat="45.07221459853972" lon="8.017302450011142"><ele>339.0</ele><time>2026-04-04T10:49:29Z</time></trkpt><trkpt lat="45.072284133514145" lon="8.01711725302308"><ele>341.0</ele><time>2026-04-04T10:49:30Z</time></trkpt><trkpt lat="45.07236161842102" lon="8.016945045171152"><ele>343.0</ele><time>2026-04-04T10:49:31Z</time></trkpt><trkpt lat="45.072454206353015" lon="8.016794147675041"><ele>345.0</ele><time>2026-04-04T10:49:32Z</time></trkpt><trkpt lat="45.072579156737206" lon="8.016691274994548"><ele>347.0</ele><time>2026-04-04T10:49:33Z</time></trkpt><trkpt lat="45.072703209802015" lon="8.01659254150825"><ele>347.0</ele><time>2026-04-04T10:49:34Z</time></trkpt><trkpt lat="45.072833188305154" lon="8.016471481616968"><ele>347.0</ele><time>2026-04-04T10:49:35Z</time></trkpt><trkpt lat="45.07296665018009" lon="8.01636941270682"><ele>347.0</ele><time>2026-04-04T10:49:36Z</time></trkpt><trkpt lat="45.07308446045598" lon="8.016247302553586"><ele>347.0</ele><time>2026-04-04T10:49:37Z</time></trkpt><trkpt lat="45.073179357662724" lon="8.016112435449621"><ele>347.0</ele><time>2026-04-04T10:49:38Z</time></trkpt><trkpt lat="45.073245635770384" lon="8.015977774771809"><ele>347.0</ele><time>2026-04-04T10:49:39Z</time></trkpt><trkpt lat="45.07333100473213" lon="8.01589131512003"><ele>347.0</ele><time>2026-04-04T10:49:40Z</time></trkpt><trkpt lat="45.073410063613764" lon="8.015836980642801"><ele>347.0</ele><time>2026-04-04T10:49:41Z</time></trkpt><trkpt lat="45.07347706212937" lon="8.015813304739401"><ele>346.33333333333337</ele><time>2026-04-04T10:49:42Z</time></trkpt><trkpt lat="45.07354297727803" lon="8.015817354825831"><ele>345.6666666666667</ele><time>2026-04-04T10:49:44Z</time></trkpt><trkpt lat="45.073625973525566" lon="8.015848286952274"><ele>345.0</ele><time>2026-04-04T11:06:16Z</time></trkpt><trkpt lat="45.0737042132707" lon="8.015859294748841"><ele>344.3333333333333</ele><time>2026-04-04T11:06:18Z</time></trkpt><trkpt lat="45.073789842080075" lon="8.01589713071974"><ele>343.66666666666663</ele><time>2026-04-04T11:06:20Z</time></trkpt><trkpt lat="45.07387679024657" lon="8.015935037609214"><ele>343.0</ele><time>2026-04-04T11:06:22Z</time></trkpt><trkpt lat="45.07394294482076" lon="8.015953441189138"><ele>343.0</ele><time>2026-04-04T11:06:24Z</time></trkpt><trkpt lat="45.07400348686406" lon="8.016030520196553"><ele>343.0</ele><time>2026-04-04T11:07:04Z</time></trkpt><trkpt lat="45.07407009165323" lon="8.016025992376305"><ele>343.0</ele><time>2026-04-04T11:07:08Z</time></trkpt><trkpt lat="45.074154230910416" lon="8.016046582042005"><ele>343.0</ele><time>2026-04-04T11:07:10Z</time></trkpt><trkpt lat="45.07425678754855" lon="8.01608999895792"><ele>343.0</ele><time>2026-04-04T11:07:12Z</time></trkpt><trkpt lat="45.074375441804285" lon="8.016137321998617"><ele>342.0</ele><time>2026-04-04T11:07:14Z</time></trkpt><trkpt lat="45.074439892174105" lon="8.01616337066431"><ele>341.0</ele><time>2026-04-04T11:07:15Z</time></trkpt><trkpt lat="45.074507638807596" lon="8.01618898706308"><ele>340.0</ele><time>2026-04-04T11:07:16Z</time></trkpt><trkpt lat="45.07457856739527" lon="8.016214668158922"><ele>339.0</ele><time>2026-04-04T11:07:17Z</time></trkpt><trkpt lat="45.074647003825" lon="8.016240708340225"><ele>338.0</ele><time>2026-04-04T11:07:18Z</time></trkpt><trkpt lat="45.07471304222168" lon="8.016261796760292"><ele>337.0</ele><time>2026-04-04T11:07:19Z</time></trkpt><trkpt lat="45.07478087913059" lon="8.016274292364939"><ele>336.0</ele><time>2026-04-04T11:07:20Z</time></trkpt><trkpt lat="45.07484984217341" lon="8.016281010957675"><ele>336.0</ele><time>2026-04-04T11:07:21Z</time></trkpt><trkpt lat="45.0749251639822" lon="8.01628070494656"><ele>336.0</ele><time>2026-04-04T11:07:22Z</time></trkpt><trkpt lat="45.07500200205684" lon="8.016271699284603"><ele>336.0</ele><time>2026-04-04T11:07:23Z</time></trkpt><trkpt lat="45.07509005589098" lon="8.016250342122184"><ele>336.0</ele><time>2026-04-04T11:07:24Z</time></trkpt><trkpt lat="45.0751885100225" lon="8.016223404588436"><ele>336.0</ele><time>2026-04-04T11:07:25Z</time></trkpt><trkpt lat="45.0752923539897" lon="8.016188716841246"><ele>336.0</ele><time>2026-04-04T11:07:26Z</time></trkpt><trkpt lat="45.07540181610663" lon="8.016156204365096"><ele>336.75</ele><time>2026-04-04T11:07:27Z</time></trkpt><trkpt lat="45.075523085233996" lon="8.016124108760382"><ele>337.5</ele><time>2026-04-04T11:07:28Z</time></trkpt><trkpt lat="45.07563856558297" lon="8.016088545675249"><ele>338.25</ele><time>2026-04-04T11:07:29Z</time></trkpt><trkpt lat="45.075757412833354" lon="8.016054737999308"><ele>339.0</ele><time>2026-04-04T11:07:30Z</time></trkpt><trkpt lat="45.075872649864" lon="8.016016986485347"><ele>339.0</ele><time>2026-04-04T11:07:31Z</time></trkpt><trkpt lat="45.0759847614634" lon="8.015980208782425"><ele>339.0</ele><time>2026-04-04T11:07:32Z</time></trkpt><trkpt lat="45.07608616664168" lon="8.015924316534521"><ele>339.0</ele><time>2026-04-04T11:07:33Z</time></trkpt><trkpt lat="45.07618480879686" lon="8.015856459096844"><ele>339.0</ele><time>2026-04-04T11:07:34Z</time></trkpt><trkpt lat="45.076276086347676" lon="8.015773880667131"><ele>339.0</ele><time>2026-04-04T11:07:35Z</time></trkpt><trkpt lat="45.07636393290865" lon="8.015677717428215"><ele>339.6</ele><time>2026-04-04T11:07:36Z</time></trkpt><trkpt lat="45.076456454729225" lon="8.015579467983818"><ele>340.2</ele><time>2026-04-04T11:07:37Z</time></trkpt><trkpt lat="45.076548770002205" lon="8.015481271159677"><ele>340.8</ele><time>2026-04-04T11:07:38Z</time></trkpt><trkpt lat="45.07663786545132" lon="8.01538248053878"><ele>341.40000000000003</ele><time>2026-04-04T11:07:39Z</time></trkpt><trkpt lat="45.07672029010655" lon="8.015290317362984"><ele>342.0</ele><time>2026-04-04T11:07:40Z</time></trkpt><trkpt lat="45.07679602811621" lon="8.01520735682457"><ele>342.0</ele><time>2026-04-04T11:07:41Z</time></trkpt><trkpt lat="45.07686259574862" lon="8.015134016528243"><ele>342.0</ele><time>2026-04-04T11:07:42Z</time></trkpt><trkpt lat="45.076921635534575" lon="8.015069265927275"><ele>342.0</ele><time>2026-04-04T11:07:43Z</time></trkpt><trkpt lat="45.076972045900625" lon="8.015012635127253"><ele>342.0</ele><time>2026-04-04T11:07:44Z</time></trkpt><trkpt lat="45.07702204659609" lon="8.01495770947494"><ele>342.0</ele><time>2026-04-04T11:07:45Z</time></trkpt><trkpt lat="45.07711346938528" lon="8.014854272773219"><ele>342.0</ele><time>2026-04-04T11:07:47Z</time></trkpt><trkpt lat="45.07716386976243" lon="8.014797949186448"><ele>341.5</ele><time>2026-04-04T11:07:48Z</time></trkpt><trkpt lat="45.0772200664378" lon="8.014735132652055"><ele>341.0</ele><time>2026-04-04T11:07:49Z</time></trkpt><trkpt lat="45.07728232642081" lon="8.014672461062377"><ele>340.5</ele><time>2026-04-04T11:07:50Z</time></trkpt><trkpt lat="45.07733512676387" lon="8.01461691575516"><ele>340.0</ele><time>2026-04-04T11:07:51Z</time></trkpt><trkpt lat="45.07741298098839" lon="8.01456926167514"><ele>339.5</ele><time>2026-04-04T11:07:53Z</time></trkpt><trkpt lat="45.077477372104305" lon="8.01464848549346"><ele>339.0</ele><time>2026-04-04T11:07:55Z</time></trkpt><trkpt lat="45.0775413503531" lon="8.014677030272118"><ele>339.0</ele><time>2026-04-04T11:07:56Z</time></trkpt><trkpt lat="45.077610057358285" lon="8.014714688355163"><ele>339.0</ele><time>2026-04-04T11:07:57Z</time></trkpt><trkpt lat="45.07768932518071" lon="8.01475162143085"><ele>339.0</ele><time>2026-04-04T11:07:58Z</time></trkpt><trkpt lat="45.07777349881767" lon="8.014785016987446"><ele>339.0</ele><time>2026-04-04T11:07:59Z</time></trkpt><trkpt lat="45.077862729719115" lon="8.014806494081425"><ele>339.0</ele><time>2026-04-04T11:08:00Z</time></trkpt><trkpt lat="45.07795597410292" lon="8.014821706665117"><ele>339.0</ele><time>2026-04-04T11:08:01Z</time></trkpt><trkpt lat="45.07804912386019" lon="8.014839365973552"><ele>339.0</ele><time>2026-04-04T11:08:02Z</time></trkpt><trkpt lat="45.0781354612725" lon="8.01486242806674"><ele>339.0</ele><time>2026-04-04T11:08:03Z</time></trkpt><trkpt lat="45.07821384561135" lon="8.014862814819661"><ele>339.0</ele><time>2026-04-04T11:08:04Z</time></trkpt><trkpt lat="45.0782834434831" lon="8.014862206374247"><ele>339.0</ele><time>2026-04-04T11:08:05Z</time></trkpt><trkpt lat="45.07834350479614" lon="8.014908461251304"><ele>339.0</ele><time>2026-04-04T11:08:06Z</time></trkpt><trkpt lat="45.078452216978704" lon="8.014920411433733"><ele>339.0</ele><time>2026-04-04T11:08:08Z</time></trkpt><trkpt lat="45.078556208047175" lon="8.01494803342571"><ele>337.0</ele><time>2026-04-04T11:08:10Z</time></trkpt><trkpt lat="45.07864286039548" lon="8.015013930164924"><ele>335.0</ele><time>2026-04-04T11:08:12Z</time></trkpt><trkpt lat="45.078699567701186" lon="8.015129056807327"><ele>333.0</ele><time>2026-04-04T11:08:14Z</time></trkpt><trkpt lat="45.078732409217544" lon="8.015216571013276"><ele>331.0</ele><time>2026-04-04T11:08:15Z</time></trkpt><trkpt lat="45.078780417200676" lon="8.015314276954728"><ele>329.0</ele><time>2026-04-04T11:08:16Z</time></trkpt><trkpt lat="45.07881876155449" lon="8.01542438550859"><ele>327.0</ele><time>2026-04-04T11:08:17Z</time></trkpt><trkpt lat="45.07886125552749" lon="8.015537204105959"><ele>327.0</ele><time>2026-04-04T11:08:18Z</time></trkpt><trkpt lat="45.0789003620423" lon="8.015654672000778"><ele>327.0</ele><time>2026-04-04T11:08:19Z</time></trkpt><trkpt lat="45.07893878652799" lon="8.015752337712339"><ele>327.0</ele><time>2026-04-04T11:08:20Z</time></trkpt><trkpt lat="45.07897926186817" lon="8.015821964869119"><ele>327.0</ele><time>2026-04-04T11:08:21Z</time></trkpt><trkpt lat="45.07902881110655" lon="8.015877811436138"><ele>327.0</ele><time>2026-04-04T11:08:22Z</time></trkpt><trkpt lat="45.079146346448326" lon="8.01592348406636"><ele>327.0</ele><time>2026-04-04T11:08:24Z</time></trkpt><trkpt lat="45.07924356695539" lon="8.015948140884543"><ele>326.8333333333333</ele><time>2026-04-04T11:08:26Z</time></trkpt><trkpt lat="45.079314992220255" lon="8.016042979805926"><ele>326.6666666666667</ele><time>2026-04-04T11:08:28Z</time></trkpt><trkpt lat="45.07935271551242" lon="8.016121660407492"><ele>326.5</ele><time>2026-04-04T11:08:29Z</time></trkpt><trkpt lat="45.079399242206144" lon="8.016200946995557"><ele>326.33333333333337</ele><time>2026-04-04T11:08:30Z</time></trkpt><trkpt lat="45.0794543361249" lon="8.016280251034313"><ele>326.1666666666667</ele><time>2026-04-04T11:08:31Z</time></trkpt><trkpt lat="45.07951136986554" lon="8.016367260973075"><ele>326.0</ele><time>2026-04-04T11:08:32Z</time></trkpt><trkpt lat="45.07957079051477" lon="8.01644906048868"><ele>326.0</ele><time>2026-04-04T11:08:33Z</time></trkpt><trkpt lat="45.07958749702485" lon="8.016541756042107"><ele>326.0</ele><time>2026-04-04T11:08:34Z</time></trkpt><trkpt lat="45.07965112118908" lon="8.016645007851837"><ele>326.0</ele><time>2026-04-04T11:08:36Z</time></trkpt><trkpt lat="45.079698818516576" lon="8.016727267086448"><ele>326.0</ele><time>2026-04-04T11:08:39Z</time></trkpt><trkpt lat="45.07985144843259" lon="8.016608273755432"><ele>326.0</ele><time>2026-04-04T11:08:43Z</time></trkpt><trkpt lat="45.07991256331493" lon="8.016541539050476"><ele>326.5</ele><time>2026-04-04T11:08:44Z</time></trkpt><trkpt lat="45.07997512123074" lon="8.016488220309784"><ele>327.0</ele><time>2026-04-04T11:08:45Z</time></trkpt><trkpt lat="45.08005268156833" lon="8.016439472885965"><ele>327.5</ele><time>2026-04-04T11:08:46Z</time></trkpt><trkpt lat="45.0801259708488" lon="8.016402428012832"><ele>328.0</ele><time>2026-04-04T11:08:47Z</time></trkpt><trkpt lat="45.080202045016044" lon="8.016361426981321"><ele>328.5</ele><time>2026-04-04T11:08:48Z</time></trkpt><trkpt lat="45.08028486255607" lon="8.016324847152408"><ele>329.0</ele><time>2026-04-04T11:08:49Z</time></trkpt><trkpt lat="45.08036710794808" lon="8.016292752977353"><ele>329.0</ele><time>2026-04-04T11:08:50Z</time></trkpt><trkpt lat="45.0804567607797" lon="8.016267083481354"><ele>329.0</ele><time>2026-04-04T11:08:51Z</time></trkpt><trkpt lat="45.08054283978367" lon="8.01626415388922"><ele>329.0</ele><time>2026-04-04T11:08:52Z</time></trkpt><trkpt lat="45.08063033230529" lon="8.016269220236396"><ele>329.0</ele><time>2026-04-04T11:08:53Z</time></trkpt><trkpt lat="45.08072135672887" lon="8.01628847903313"><ele>329.0</ele><time>2026-04-04T11:08:54Z</time></trkpt><trkpt lat="45.08080675069795" lon="8.016318812033507"><ele>329.0</ele><time>2026-04-04T11:08:55Z</time></trkpt><trkpt lat="45.080896030427155" lon="8.016355851528466"><ele>328.0</ele><time>2026-04-04T11:08:56Z</time></trkpt><trkpt lat="45.08097946793219" lon="8.01638951859206"><ele>327.0</ele><time>2026-04-04T11:08:57Z</time></trkpt><trkpt lat="45.08104171498831" lon="8.016418465335821"><ele>326.0</ele><time>2026-04-04T11:08:58Z</time></trkpt><trkpt lat="45.0811390746818" lon="8.016482133185212"><ele>325.0</ele><time>2026-04-04T11:09:00Z</time></trkpt><trkpt lat="45.081179605601235" lon="8.016614791857851"><ele>324.0</ele><time>2026-04-04T11:09:02Z</time></trkpt><trkpt lat="45.081118873268466" lon="8.016702347551394"><ele>323.0</ele><time>2026-04-04T11:09:04Z</time></trkpt><trkpt lat="45.08105412909853" lon="8.016689000221385"><ele>323.0</ele><time>2026-04-04T11:09:05Z</time></trkpt><trkpt lat="45.0809890233245" lon="8.016647529240267"><ele>323.0</ele><time>2026-04-04T11:09:06Z</time></trkpt><trkpt lat="45.0809244788687" lon="8.016621967883557"><ele>323.0</ele><time>2026-04-04T11:09:07Z</time></trkpt><trkpt lat="45.08084246692848" lon="8.016604901939733"><ele>323.0</ele><time>2026-04-04T11:09:09Z</time></trkpt><trkpt lat="45.080809679990956" lon="8.016701322348972"><ele>323.0</ele><time>2026-04-04T11:09:12Z</time></trkpt><trkpt lat="45.08089476335196" lon="8.016798424379624"><ele>323.0</ele><time>2026-04-04T11:09:14Z</time></trkpt><trkpt lat="45.08095626727015" lon="8.016832111224103"><ele>320.5714285714286</ele><time>2026-04-04T11:09:15Z</time></trkpt><trkpt lat="45.08101315594323" lon="8.016895888794586"><ele>318.14285714285717</ele><time>2026-04-04T11:09:16Z</time></trkpt><trkpt lat="45.0810608449063" lon="8.016967129213462"><ele>315.7142857142857</ele><time>2026-04-04T11:09:17Z</time></trkpt><trkpt lat="45.08109814821445" lon="8.017056604236137"><ele>313.28571428571433</ele><time>2026-04-04T11:09:18Z</time></trkpt><trkpt lat="45.08112308155724" lon="8.017151270640271"><ele>310.8571428571429</ele><time>2026-04-04T11:09:19Z</time></trkpt><trkpt lat="45.08114668487986" lon="8.017252805098389"><ele>308.42857142857144</ele><time>2026-04-04T11:09:20Z</time></trkpt><trkpt lat="45.08116792799241" lon="8.017357303493561"><ele>306.0</ele><time>2026-04-04T11:09:21Z</time></trkpt><trkpt lat="45.081191614950455" lon="8.017468520420156"><ele>304.8333333333333</ele><time>2026-04-04T11:09:22Z</time></trkpt><trkpt lat="45.081208960287874" lon="8.017581166263575"><ele>303.6666666666667</ele><time>2026-04-04T11:09:23Z</time></trkpt><trkpt lat="45.08122233850906" lon="8.017674678705085"><ele>302.5</ele><time>2026-04-04T11:09:24Z</time></trkpt><trkpt lat="45.08126091321654" lon="8.017789951596571"><ele>301.33333333333337</ele><time>2026-04-04T11:09:26Z</time></trkpt><trkpt lat="45.081369869552994" lon="8.017846969243687"><ele>300.1666666666667</ele><time>2026-04-04T11:09:28Z</time></trkpt><trkpt lat="45.08144892738965" lon="8.01784167466728"><ele>299.0</ele><time>2026-04-04T11:09:29Z</time></trkpt><trkpt lat="45.08154074501334" lon="8.017829522900357"><ele>295.83333333333337</ele><time>2026-04-04T11:09:30Z</time></trkpt><trkpt lat="45.08163091878001" lon="8.017834508698744"><ele>292.6666666666667</ele><time>2026-04-04T11:09:31Z</time></trkpt><trkpt lat="45.08170481089147" lon="8.017844520735334"><ele>289.5</ele><time>2026-04-04T11:09:32Z</time></trkpt><trkpt lat="45.08177816255379" lon="8.017850172036587"><ele>286.3333333333333</ele><time>2026-04-04T11:09:33Z</time></trkpt><trkpt lat="45.08184975895815" lon="8.017849160722887"><ele>283.16666666666663</ele><time>2026-04-04T11:09:34Z</time></trkpt><trkpt lat="45.0819336428014" lon="8.0178373161924"><ele>280.0</ele><time>2026-04-04T11:09:35Z</time></trkpt><trkpt lat="45.08202030531406" lon="8.017800129371459"><ele>280.0</ele><time>2026-04-04T11:09:36Z</time></trkpt><trkpt lat="45.082105630039564" lon="8.017765063537505"><ele>280.0</ele><time>2026-04-04T11:09:37Z</time></trkpt><trkpt lat="45.08218573488792" lon="8.01774693017193"><ele>280.0</ele><time>2026-04-04T11:09:38Z</time></trkpt><trkpt lat="45.08226003561459" lon="8.017751378113914"><ele>280.0</ele><time>2026-04-04T11:09:39Z</time></trkpt><trkpt lat="45.08233529388468" lon="8.017780995978725"><ele>280.0</ele><time>2026-04-04T11:09:40Z</time></trkpt><trkpt lat="45.082407780824845" lon="8.017832017142423"><ele>280.0</ele><time>2026-04-04T11:09:41Z</time></trkpt><trkpt lat="45.082463142484016" lon="8.017911500982176"><ele>277.5</ele><time>2026-04-04T11:09:42Z</time></trkpt><trkpt lat="45.082498076962814" lon="8.018016482820109"><ele>275.0</ele><time>2026-04-04T11:09:43Z</time></trkpt><trkpt lat="45.08250773588465" lon="8.018129321925606"><ele>272.5</ele><time>2026-04-04T11:09:44Z</time></trkpt><trkpt lat="45.08250659826996" lon="8.01824450951273"><ele>270.0</ele><time>2026-04-04T11:09:45Z</time></trkpt><trkpt lat="45.0824952094358" lon="8.018363612732166"><ele>267.5</ele><time>2026-04-04T11:09:46Z</time></trkpt><trkpt lat="45.082482753827705" lon="8.018482785634854"><ele>265.0</ele><time>2026-04-04T11:09:47Z</time></trkpt><trkpt lat="45.08248334525007" lon="8.018605881022637"><ele>263.8333333333333</ele><time>2026-04-04T11:09:48Z</time></trkpt><trkpt lat="45.08248418271659" lon="8.018729332845078"><ele>262.66666666666663</ele><time>2026-04-04T11:09:49Z</time></trkpt><trkpt lat="45.082465052137636" lon="8.018863040025538"><ele>261.5</ele><time>2026-04-04T11:09:50Z</time></trkpt><trkpt lat="45.08245155905341" lon="8.018992302230362"><ele>260.3333333333333</ele><time>2026-04-04T11:09:51Z</time></trkpt><trkpt lat="45.082459735874544" lon="8.019113301059875"><ele>259.1666666666667</ele><time>2026-04-04T11:09:52Z</time></trkpt><trkpt lat="45.08247897339191" lon="8.019210342896715"><ele>258.0</ele><time>2026-04-04T11:09:53Z</time></trkpt><trkpt lat="45.082476129658104" lon="8.019341970751944"><ele>257.0</ele><time>2026-04-04T11:09:55Z</time></trkpt><trkpt lat="45.082365601256" lon="8.01946356995899"><ele>256.0</ele><time>2026-04-04T11:09:57Z</time></trkpt><trkpt lat="45.08228527582711" lon="8.019523406559642"><ele>255.0</ele><time>2026-04-04T11:09:58Z</time></trkpt><trkpt lat="45.082194805092136" lon="8.019594113331896"><ele>254.0</ele><time>2026-04-04T11:09:59Z</time></trkpt><trkpt lat="45.08209109826924" lon="8.019674896075186"><ele>254.0</ele><time>2026-04-04T11:10:00Z</time></trkpt><trkpt lat="45.08198288540117" lon="8.019766439512445"><ele>254.0</ele><time>2026-04-04T11:10:01Z</time></trkpt><trkpt lat="45.08186809128591" lon="8.019869922610505"><ele>254.0</ele><time>2026-04-04T11:10:02Z</time></trkpt><trkpt lat="45.0817476835529" lon="8.019980812304336"><ele>254.0</ele><time>2026-04-04T11:10:03Z</time></trkpt><trkpt lat="45.081620057460015" lon="8.020095179814598"><ele>253.33333333333334</ele><time>2026-04-04T11:10:04Z</time></trkpt><trkpt lat="45.08149202298822" lon="8.020210852540634"><ele>252.66666666666669</ele><time>2026-04-04T11:10:05Z</time></trkpt><trkpt lat="45.08135959060504" lon="8.020330924270697"><ele>252.0</ele><time>2026-04-04T11:10:06Z</time></trkpt><trkpt lat="45.08123286488708" lon="8.020461001840042"><ele>252.0</ele><time>2026-04-04T11:10:07Z</time></trkpt><trkpt lat="45.081104555896125" lon="8.020589417858623"><ele>252.0</ele><time>2026-04-04T11:10:08Z</time></trkpt><trkpt lat="45.080974579576804" lon="8.02072088448212"><ele>252.0</ele><time>2026-04-04T11:10:09Z</time></trkpt><trkpt lat="45.08083801462367" lon="8.0208552793842"><ele>253.0</ele><time>2026-04-04T11:10:10Z</time></trkpt><trkpt lat="45.080700461977806" lon="8.020989881292381"><ele>254.0</ele><time>2026-04-04T11:10:11Z</time></trkpt><trkpt lat="45.08056189889012" lon="8.021128152358855"><ele>255.0</ele><time>2026-04-04T11:10:12Z</time></trkpt><trkpt lat="45.08042585126245" lon="8.021267140110815"><ele>255.0</ele><time>2026-04-04T11:10:13Z</time></trkpt><trkpt lat="45.08029147902957" lon="8.021403435443547"><ele>255.0</ele><time>2026-04-04T11:10:14Z</time></trkpt><trkpt lat="45.080158414079385" lon="8.021538263589292"><ele>255.0</ele><time>2026-04-04T11:10:15Z</time></trkpt><trkpt lat="45.08002153760448" lon="8.02167350052651"><ele>255.33333333333331</ele><time>2026-04-04T11:10:16Z</time></trkpt><trkpt lat="45.079881433526445" lon="8.021807929272574"><ele>255.66666666666666</ele><time>2026-04-04T11:10:17Z</time></trkpt><trkpt lat="45.079741176897926" lon="8.021945510305525"><ele>256.0</ele><time>2026-04-04T11:10:18Z</time></trkpt><trkpt lat="45.07959793194561" lon="8.022086363553193"><ele>256.0</ele><time>2026-04-04T11:10:19Z</time></trkpt><trkpt lat="45.07945702314672" lon="8.022226354212762"><ele>256.0</ele><time>2026-04-04T11:10:20Z</time></trkpt><trkpt lat="45.07931213799619" lon="8.022370728433302"><ele>256.0</ele><time>2026-04-04T11:10:21Z</time></trkpt><trkpt lat="45.079170947108814" lon="8.02251348310163"><ele>256.66666666666663</ele><time>2026-04-04T11:10:22Z</time></trkpt><trkpt lat="45.079032553830494" lon="8.022652133455491"><ele>257.3333333333333</ele><time>2026-04-04T11:10:23Z</time></trkpt><trkpt lat="45.07889419457119" lon="8.022789814992173"><ele>258.0</ele><time>2026-04-04T11:10:24Z</time></trkpt><trkpt lat="45.07875516216585" lon="8.022923890477294"><ele>258.0</ele><time>2026-04-04T11:10:25Z</time></trkpt><trkpt lat="45.07861631363682" lon="8.023062316070863"><ele>258.0</ele><time>2026-04-04T11:10:26Z</time></trkpt><trkpt lat="45.07848067502463" lon="8.023195649045201"><ele>258.0</ele><time>2026-04-04T11:10:27Z</time></trkpt><trkpt lat="45.078343856767354" lon="8.0233286094057"><ele>255.33333333333331</ele><time>2026-04-04T11:10:28Z</time></trkpt><trkpt lat="45.07821581973889" lon="8.023458058905796"><ele>252.66666666666666</ele><time>2026-04-04T11:10:29Z</time></trkpt><trkpt lat="45.07809183281599" lon="8.023583317766427"><ele>250.0</ele><time>2026-04-04T11:10:30Z</time></trkpt><trkpt lat="45.07797846671517" lon="8.023704130517318"><ele>250.0</ele><time>2026-04-04T11:10:31Z</time></trkpt><trkpt lat="45.077872992867746" lon="8.023808887486089"><ele>250.0</ele><time>2026-04-04T11:10:32Z</time></trkpt><trkpt lat="45.07779106087807" lon="8.023908579286974"><ele>250.0</ele><time>2026-04-04T11:10:33Z</time></trkpt><trkpt lat="45.0777257423841" lon="8.024010760979692"><ele>250.0</ele><time>2026-04-04T11:10:34Z</time></trkpt><trkpt lat="45.07770482518595" lon="8.024124916476246"><ele>250.0</ele><time>2026-04-04T11:10:35Z</time></trkpt><trkpt lat="45.07771624230421" lon="8.024238065981116"><ele>249.49999999999997</ele><time>2026-04-04T11:10:36Z</time></trkpt><trkpt lat="45.07775897782816" lon="8.024336771800998"><ele>249.0</ele><time>2026-04-04T11:10:37Z</time></trkpt><trkpt lat="45.077819453309395" lon="8.024413462063347"><ele>248.5</ele><time>2026-04-04T11:10:38Z</time></trkpt><trkpt lat="45.077886607995076" lon="8.02447334174226"><ele>248.0</ele><time>2026-04-04T11:10:39Z</time></trkpt><trkpt lat="45.07794341009707" lon="8.02454857655169"><ele>247.49999999999997</ele><time>2026-04-04T11:10:40Z</time></trkpt><trkpt lat="45.07799489078098" lon="8.024642407882089"><ele>247.0</ele><time>2026-04-04T11:10:41Z</time></trkpt><trkpt lat="45.07804696257004" lon="8.024749265927891"><ele>247.0</ele><time>2026-04-04T11:10:42Z</time></trkpt><trkpt lat="45.07810196428329" lon="8.02486408957923"><ele>247.0</ele><time>2026-04-04T11:10:43Z</time></trkpt><trkpt lat="45.07815801247016" lon="8.024973076972824"><ele>247.0</ele><time>2026-04-04T11:10:44Z</time></trkpt><trkpt lat="45.07822199817302" lon="8.025095496275254"><ele>247.0</ele><time>2026-04-04T11:10:45Z</time></trkpt><trkpt lat="45.07830243887657" lon="8.025213232482194"><ele>247.0</ele><time>2026-04-04T11:10:46Z</time></trkpt><trkpt lat="45.078408627099094" lon="8.025301353754656"><ele>249.5</ele><time>2026-04-04T11:10:47Z</time></trkpt><trkpt lat="45.078529614584504" lon="8.025354057898909"><ele>252.0</ele><time>2026-04-04T11:10:48Z</time></trkpt><trkpt lat="45.078648822736305" lon="8.025363241387192"><ele>254.5</ele><time>2026-04-04T11:10:49Z</time></trkpt><trkpt lat="45.07876017765878" lon="8.02533951968517"><ele>257.0</ele><time>2026-04-04T11:10:50Z</time></trkpt><trkpt lat="45.07884298152279" lon="8.025265142631511"><ele>257.0</ele><time>2026-04-04T11:10:51Z</time></trkpt><trkpt lat="45.07891183276675" lon="8.025148295543767"><ele>257.0</ele><time>2026-04-04T11:10:52Z</time></trkpt><trkpt lat="45.07896416401094" lon="8.02499154960011"><ele>257.0</ele><time>2026-04-04T11:10:53Z</time></trkpt><trkpt lat="45.07902145631327" lon="8.024842662044588"><ele>257.0</ele><time>2026-04-04T11:10:54Z</time></trkpt><trkpt lat="45.07910075072236" lon="8.02471807215771"><ele>257.75</ele><time>2026-04-04T11:10:55Z</time></trkpt><trkpt lat="45.07920120211193" lon="8.024625534853513"><ele>258.5</ele><time>2026-04-04T11:10:56Z</time></trkpt><trkpt lat="45.07932029416349" lon="8.024560176814877"><ele>259.25</ele><time>2026-04-04T11:10:57Z</time></trkpt><trkpt lat="45.079450859526126" lon="8.024514676381914"><ele>260.0</ele><time>2026-04-04T11:10:58Z</time></trkpt><trkpt lat="45.07958239961276" lon="8.024470367987444"><ele>260.0</ele><time>2026-04-04T11:10:59Z</time></trkpt><trkpt lat="45.07971124618185" lon="8.024403278631077"><ele>260.0</ele><time>2026-04-04T11:11:00Z</time></trkpt><trkpt lat="45.07982111947204" lon="8.024317130209958"><ele>260.0</ele><time>2026-04-04T11:11:01Z</time></trkpt><trkpt lat="45.07991446740196" lon="8.024247879148499"><ele>260.0</ele><time>2026-04-04T11:11:02Z</time></trkpt><trkpt lat="45.0799939140528" lon="8.02422519526071"><ele>260.0</ele><time>2026-04-04T11:11:03Z</time></trkpt><trkpt lat="45.08005832484548" lon="8.024350260963915"><ele>260.0</ele><time>2026-04-04T11:11:05Z</time></trkpt><trkpt lat="45.080042110933014" lon="8.024439154164574"><ele>260.0</ele><time>2026-04-04T11:11:06Z</time></trkpt><trkpt lat="45.07997782443763" lon="8.02451445300536"><ele>260.0</ele><time>2026-04-04T11:11:07Z</time></trkpt><trkpt lat="45.07991206950724" lon="8.024595501822201"><ele>260.0</ele><time>2026-04-04T11:11:08Z</time></trkpt><trkpt lat="45.0798464592555" lon="8.024702214502135"><ele>260.0</ele><time>2026-04-04T11:11:09Z</time></trkpt><trkpt lat="45.07977191418989" lon="8.024816421346333"><ele>260.0</ele><time>2026-04-04T11:11:10Z</time></trkpt><trkpt lat="45.079695443186054" lon="8.024924450611636"><ele>261.1666666666667</ele><time>2026-04-04T11:11:11Z</time></trkpt><trkpt lat="45.07962761380828" lon="8.025020726889974"><ele>262.33333333333337</ele><time>2026-04-04T11:11:12Z</time></trkpt><trkpt lat="45.0795742919714" lon="8.025115319574535"><ele>263.5</ele><time>2026-04-04T11:11:13Z</time></trkpt><trkpt lat="45.0795602109072" lon="8.025213650173898"><ele>264.6666666666667</ele><time>2026-04-04T11:11:14Z</time></trkpt><trkpt lat="45.07959338803115" lon="8.025295538988471"><ele>265.8333333333333</ele><time>2026-04-04T11:11:15Z</time></trkpt><trkpt lat="45.07966099813611" lon="8.025325414325907"><ele>267.0</ele><time>2026-04-04T11:11:16Z</time></trkpt><trkpt lat="45.07973566528518" lon="8.025288142907057"><ele>267.0</ele><time>2026-04-04T11:11:17Z</time></trkpt><trkpt lat="45.07980344272848" lon="8.025202023693211"><ele>267.0</ele><time>2026-04-04T11:11:18Z</time></trkpt><trkpt lat="45.079878761516895" lon="8.025119826203932"><ele>267.0</ele><time>2026-04-04T11:11:19Z</time></trkpt><trkpt lat="45.07996666212451" lon="8.025066475220378"><ele>267.0</ele><time>2026-04-04T11:11:20Z</time></trkpt><trkpt lat="45.0800583190301" lon="8.025075043463643"><ele>267.0</ele><time>2026-04-04T11:11:21Z</time></trkpt><trkpt lat="45.08014475697234" lon="8.025135420155804"><ele>271.0</ele><time>2026-04-04T11:11:22Z</time></trkpt><trkpt lat="45.080224731878296" lon="8.025242231509145"><ele>275.0</ele><time>2026-04-04T11:11:23Z</time></trkpt><trkpt lat="45.08031180161092" lon="8.025345130716842"><ele>279.0</ele><time>2026-04-04T11:11:24Z</time></trkpt><trkpt lat="45.08042123355499" lon="8.02540715152347"><ele>283.0</ele><time>2026-04-04T11:11:25Z</time></trkpt><trkpt lat="45.080536060357964" lon="8.025410367722449"><ele>283.0</ele><time>2026-04-04T11:11:26Z</time></trkpt><trkpt lat="45.080653076306675" lon="8.02537777939403"><ele>283.0</ele><time>2026-04-04T11:11:27Z</time></trkpt><trkpt lat="45.08077222172954" lon="8.02531048704029"><ele>283.0</ele><time>2026-04-04T11:11:28Z</time></trkpt><trkpt lat="45.08089103403384" lon="8.025233168981257"><ele>283.0</ele><time>2026-04-04T11:11:29Z</time></trkpt><trkpt lat="45.080997985857515" lon="8.025182800761286"><ele>284.0</ele><time>2026-04-04T11:11:30Z</time></trkpt><trkpt lat="45.081090432498925" lon="8.025167628043402"><ele>285.0</ele><time>2026-04-04T11:11:31Z</time></trkpt><trkpt lat="45.081167282385614" lon="8.02520810779673"><ele>286.0</ele><time>2026-04-04T11:11:32Z</time></trkpt><trkpt lat="45.0812220101455" lon="8.025299948653352"><ele>287.0</ele><time>2026-04-04T11:11:33Z</time></trkpt><trkpt lat="45.08122407258437" lon="8.025422703760599"><ele>288.0</ele><time>2026-04-04T11:11:34Z</time></trkpt><trkpt lat="45.0811913527246" lon="8.025532827944492"><ele>289.0</ele><time>2026-04-04T11:11:35Z</time></trkpt><trkpt lat="45.08112607714335" lon="8.025626998012271"><ele>289.0</ele><time>2026-04-04T11:11:36Z</time></trkpt><trkpt lat="45.08105332138809" lon="8.025723486088491"><ele>289.0</ele><time>2026-04-04T11:11:37Z</time></trkpt><trkpt lat="45.0809733127283" lon="8.025832020055734"><ele>289.0</ele><time>2026-04-04T11:11:38Z</time></trkpt><trkpt lat="45.08088584146161" lon="8.025945718249316"><ele>289.0</ele><time>2026-04-04T11:11:39Z</time></trkpt><trkpt lat="45.080794567676286" lon="8.026071284440466"><ele>291.0</ele><time>2026-04-04T11:11:40Z</time></trkpt><trkpt lat="45.08070323094097" lon="8.026202909633593"><ele>293.0</ele><time>2026-04-04T11:11:41Z</time></trkpt><trkpt lat="45.08061386007816" lon="8.026336169651888"><ele>295.0</ele><time>2026-04-04T11:11:42Z</time></trkpt><trkpt lat="45.08053359432547" lon="8.026474631608059"><ele>297.0</ele><time>2026-04-04T11:11:43Z</time></trkpt><trkpt lat="45.08046015137951" lon="8.026631024089085"><ele>298.75</ele><time>2026-04-04T11:11:44Z</time></trkpt><trkpt lat="45.08040555339574" lon="8.026794386384"><ele>300.5</ele><time>2026-04-04T11:11:45Z</time></trkpt><trkpt lat="45.080373432930855" lon="8.0269615763238"><ele>302.25</ele><time>2026-04-04T11:11:46Z</time></trkpt><trkpt lat="45.08036983473066" lon="8.027146066739814"><ele>304.0</ele><time>2026-04-04T11:11:47Z</time></trkpt><trkpt lat="45.08037219535965" lon="8.02734771254123"><ele>303.5</ele><time>2026-04-04T11:11:48Z</time></trkpt><trkpt lat="45.08039223115673" lon="8.027537149377991"><ele>303.0</ele><time>2026-04-04T11:11:49Z</time></trkpt><trkpt lat="45.080417385285415" lon="8.027714573243975"><ele>302.5</ele><time>2026-04-04T11:11:50Z</time></trkpt><trkpt lat="45.08046040812175" lon="8.027876000671691"><ele>302.0</ele><time>2026-04-04T11:11:51Z</time></trkpt><trkpt lat="45.08052804889061" lon="8.028016907632079"><ele>302.0</ele><time>2026-04-04T11:11:52Z</time></trkpt><trkpt lat="45.080621126543335" lon="8.028150847741912"><ele>302.0</ele><time>2026-04-04T11:11:53Z</time></trkpt><trkpt lat="45.080725678847465" lon="8.02827995411427"><ele>302.0</ele><time>2026-04-04T11:11:54Z</time></trkpt><trkpt lat="45.08083355894985" lon="8.02841283010912"><ele>302.0</ele><time>2026-04-04T11:11:55Z</time></trkpt><trkpt lat="45.080948381784204" lon="8.028530899155296"><ele>308.33333333333337</ele><time>2026-04-04T11:11:56Z</time></trkpt><trkpt lat="45.081075260782065" lon="8.028633756887182"><ele>314.6666666666667</ele><time>2026-04-04T11:11:57Z</time></trkpt><trkpt lat="45.08120995201855" lon="8.028727400383813"><ele>321.0</ele><time>2026-04-04T11:11:58Z</time></trkpt><trkpt lat="45.08135270746101" lon="8.02881765945058"><ele>321.0</ele><time>2026-04-04T11:11:59Z</time></trkpt><trkpt lat="45.08148807410018" lon="8.028914794138345"><ele>321.0</ele><time>2026-04-04T11:12:00Z</time></trkpt><trkpt lat="45.08161817843827" lon="8.029029713482851"><ele>321.0</ele><time>2026-04-04T11:12:01Z</time></trkpt><trkpt lat="45.081738435383635" lon="8.029168806471818"><ele>323.5</ele><time>2026-04-04T11:12:02Z</time></trkpt><trkpt lat="45.081827758271615" lon="8.029345671238"><ele>326.0</ele><time>2026-04-04T11:12:03Z</time></trkpt><trkpt lat="45.081893838889066" lon="8.02952531258219"><ele>328.5</ele><time>2026-04-04T11:12:04Z</time></trkpt><trkpt lat="45.08196058770753" lon="8.029669288863944"><ele>331.0</ele><time>2026-04-04T11:12:05Z</time></trkpt><trkpt lat="45.08205801646251" lon="8.029771695403884"><ele>331.0</ele><time>2026-04-04T11:12:06Z</time></trkpt><trkpt lat="45.08217632420375" lon="8.029841682232858"><ele>331.0</ele><time>2026-04-04T11:12:07Z</time></trkpt><trkpt lat="45.0822942453873" lon="8.02990221139079"><ele>331.0</ele><time>2026-04-04T11:12:08Z</time></trkpt><trkpt lat="45.082428867676505" lon="8.029931716190932"><ele>331.0</ele><time>2026-04-04T11:12:09Z</time></trkpt><trkpt lat="45.08257270953033" lon="8.029936246684182"><ele>332.75</ele><time>2026-04-04T11:12:10Z</time></trkpt><trkpt lat="45.082720608247406" lon="8.029912305562947"><ele>334.5</ele><time>2026-04-04T11:12:11Z</time></trkpt><trkpt lat="45.08286259420633" lon="8.02991050317293"><ele>336.25</ele><time>2026-04-04T11:12:12Z</time></trkpt><trkpt lat="45.08300190202754" lon="8.029969811214578"><ele>338.0</ele><time>2026-04-04T11:12:13Z</time></trkpt><trkpt lat="45.08313739049816" lon="8.030047511395683"><ele>340.5</ele><time>2026-04-04T11:12:14Z</time></trkpt><trkpt lat="45.08327109690803" lon="8.030104865486864"><ele>343.0</ele><time>2026-04-04T11:12:15Z</time></trkpt><trkpt lat="45.083408592794946" lon="8.030097588703068"><ele>345.5</ele><time>2026-04-04T11:12:16Z</time></trkpt><trkpt lat="45.0835483259918" lon="8.030058778569252"><ele>348.0</ele><time>2026-04-04T11:12:17Z</time></trkpt><trkpt lat="45.083693013656074" lon="8.03003514743761"><ele>348.0</ele><time>2026-04-04T11:12:18Z</time></trkpt><trkpt lat="45.083832959499766" lon="8.030042827954741"><ele>348.0</ele><time>2026-04-04T11:12:19Z</time></trkpt><trkpt lat="45.08396436613265" lon="8.030085302653648"><ele>348.0</ele><time>2026-04-04T11:12:20Z</time></trkpt><trkpt lat="45.08407812407416" lon="8.030168684431874"><ele>348.0</ele><time>2026-04-04T11:12:21Z</time></trkpt><trkpt lat="45.08417358761195" lon="8.030296507236184"><ele>350.59999999999997</ele><time>2026-04-04T11:12:22Z</time></trkpt><trkpt lat="45.08425429578686" lon="8.030446680537658"><ele>353.2</ele><time>2026-04-04T11:12:23Z</time></trkpt><trkpt lat="45.084326662913654" lon="8.030595897359175"><ele>355.8</ele><time>2026-04-04T11:12:24Z</time></trkpt><trkpt lat="45.084386307089794" lon="8.03071010404637"><ele>358.4</ele><time>2026-04-04T11:12:25Z</time></trkpt><trkpt lat="45.084436102814145" lon="8.030779750150694"><ele>361.0</ele><time>2026-04-04T11:12:26Z</time></trkpt><trkpt lat="45.0845502335468" lon="8.030735770423266"><ele>361.0</ele><time>2026-04-04T11:12:28Z</time></trkpt><trkpt lat="45.08456594289169" lon="8.030627620269986"><ele>361.0</ele><time>2026-04-04T11:12:29Z</time></trkpt><trkpt lat="45.084533052339566" lon="8.0305087886699"><ele>361.0</ele><time>2026-04-04T11:12:30Z</time></trkpt><trkpt lat="45.08446353284893" lon="8.030403936599782"><ele>361.0</ele><time>2026-04-04T11:12:31Z</time></trkpt><trkpt lat="45.08438574398565" lon="8.030288548317003"><ele>361.0</ele><time>2026-04-04T11:12:32Z</time></trkpt><trkpt lat="45.08430929328122" lon="8.030153885470648"><ele>361.0</ele><time>2026-04-04T11:12:33Z</time></trkpt><trkpt lat="45.08423009706936" lon="8.03000984862071"><ele>361.0</ele><time>2026-04-04T11:12:34Z</time></trkpt><trkpt lat="45.08415322674907" lon="8.029864480752774"><ele>361.0</ele><time>2026-04-04T11:12:35Z</time></trkpt><trkpt lat="45.084073451903585" lon="8.02972789938623"><ele>361.0</ele><time>2026-04-04T11:12:36Z</time></trkpt><trkpt lat="45.08397712970492" lon="8.029622537317287"><ele>363.8</ele><time>2026-04-04T11:12:37Z</time></trkpt><trkpt lat="45.08386670189157" lon="8.029576837531714"><ele>366.6</ele><time>2026-04-04T11:12:38Z</time></trkpt><trkpt lat="45.083782487930456" lon="8.02955473741846"><ele>369.4</ele><time>2026-04-04T11:12:39Z</time></trkpt><trkpt lat="45.083748098904806" lon="8.029420471387104"><ele>372.2</ele><time>2026-04-04T11:12:41Z</time></trkpt><trkpt lat="45.08386065669242" lon="8.029345955469738"><ele>375.0</ele><time>2026-04-04T11:12:43Z</time></trkpt><trkpt lat="45.083940645706654" lon="8.029361361419083"><ele>375.0</ele><time>2026-04-04T11:12:44Z</time></trkpt><trkpt lat="45.08403273667547" lon="8.029384647993032"><ele>375.0</ele><time>2026-04-04T11:12:45Z</time></trkpt><trkpt lat="45.084130232745345" lon="8.029430674713458"><ele>375.0</ele><time>2026-04-04T11:12:46Z</time></trkpt><trkpt lat="45.08422723133944" lon="8.029511243281947"><ele>375.0</ele><time>2026-04-04T11:12:47Z</time></trkpt><trkpt lat="45.084311383628375" lon="8.029643166289897"><ele>375.0</ele><time>2026-04-04T11:12:48Z</time></trkpt><trkpt lat="45.08440013889513" lon="8.02976364808427"><ele>378.0</ele><time>2026-04-04T11:12:49Z</time></trkpt><trkpt lat="45.0845082845962" lon="8.029858952060193"><ele>381.0</ele><time>2026-04-04T11:12:50Z</time></trkpt><trkpt lat="45.0846320172172" lon="8.029930779319926"><ele>384.0</ele><time>2026-04-04T11:12:51Z</time></trkpt><trkpt lat="45.084766148083695" lon="8.030002011842777"><ele>387.0</ele><time>2026-04-04T11:12:52Z</time></trkpt><trkpt lat="45.08489654313741" lon="8.03007955561481"><ele>386.5</ele><time>2026-04-04T11:12:53Z</time></trkpt><trkpt lat="45.08502123497407" lon="8.03016579935101"><ele>386.0</ele><time>2026-04-04T11:12:54Z</time></trkpt><trkpt lat="45.08514468375063" lon="8.030220368731987"><ele>385.5</ele><time>2026-04-04T11:12:55Z</time></trkpt><trkpt lat="45.085273966867966" lon="8.030224402374273"><ele>385.0</ele><time>2026-04-04T11:12:56Z</time></trkpt><trkpt lat="45.085395426547606" lon="8.030227726052166"><ele>385.0</ele><time>2026-04-04T11:12:57Z</time></trkpt><trkpt lat="45.085510611043134" lon="8.0302993484378"><ele>385.0</ele><time>2026-04-04T11:12:58Z</time></trkpt><trkpt lat="45.08560432704128" lon="8.030426528183803"><ele>385.0</ele><time>2026-04-04T11:12:59Z</time></trkpt><trkpt lat="45.08568116668375" lon="8.03057459882291"><ele>385.0</ele><time>2026-04-04T11:13:00Z</time></trkpt><trkpt lat="45.085781542511164" lon="8.030701712214132"><ele>385.5</ele><time>2026-04-04T11:13:01Z</time></trkpt><trkpt lat="45.08591037523526" lon="8.030809898620367"><ele>386.0</ele><time>2026-04-04T11:13:02Z</time></trkpt><trkpt lat="45.08601377004964" lon="8.030943125325503"><ele>386.5</ele><time>2026-04-04T11:13:03Z</time></trkpt><trkpt lat="45.08608811251753" lon="8.031119872918179"><ele>387.0</ele><time>2026-04-04T11:13:04Z</time></trkpt><trkpt lat="45.08614464304369" lon="8.031305282274472"><ele>387.0</ele><time>2026-04-04T11:13:05Z</time></trkpt><trkpt lat="45.08618066232862" lon="8.031501004269856"><ele>387.0</ele><time>2026-04-04T11:13:06Z</time></trkpt><trkpt lat="45.08617702617726" lon="8.03170120493563"><ele>387.0</ele><time>2026-04-04T11:13:07Z</time></trkpt><trkpt lat="45.08615602445065" lon="8.031899290644144"><ele>387.0</ele><time>2026-04-04T11:13:08Z</time></trkpt><trkpt lat="45.086164577939876" lon="8.03207106998794"><ele>386.0</ele><time>2026-04-04T11:13:09Z</time></trkpt><trkpt lat="45.08621422982818" lon="8.032231111004785"><ele>385.0</ele><time>2026-04-04T11:13:10Z</time></trkpt><trkpt lat="45.08628482360612" lon="8.032393705953167"><ele>384.0</ele><time>2026-04-04T11:13:11Z</time></trkpt><trkpt lat="45.08636858641981" lon="8.0325648476506"><ele>383.0</ele><time>2026-04-04T11:13:12Z</time></trkpt><trkpt lat="45.08645194889711" lon="8.032761823153756"><ele>383.0</ele><time>2026-04-04T11:13:13Z</time></trkpt><trkpt lat="45.08653623993814" lon="8.032964982840072"><ele>383.0</ele><time>2026-04-04T11:13:14Z</time></trkpt><trkpt lat="45.08660091045142" lon="8.03306127220732"><ele>383.0</ele><time>2026-04-04T11:13:15Z</time></trkpt><trkpt lat="45.086659900226465" lon="8.033175695000807"><ele>383.0</ele><time>2026-04-04T11:13:16Z</time></trkpt><trkpt lat="45.08669629198962" lon="8.033298819543552"><ele>387.75</ele><time>2026-04-04T11:13:17Z</time></trkpt><trkpt lat="45.08667617731778" lon="8.033439367583501"><ele>392.5</ele><time>2026-04-04T11:13:18Z</time></trkpt><trkpt lat="45.0865894174813" lon="8.033555342720375"><ele>397.25</ele><time>2026-04-04T11:13:19Z</time></trkpt><trkpt lat="45.08648268321311" lon="8.03363094501911"><ele>402.0</ele><time>2026-04-04T11:13:20Z</time></trkpt><trkpt lat="45.08635705593004" lon="8.03366936482834"><ele>402.0</ele><time>2026-04-04T11:13:21Z</time></trkpt><trkpt lat="45.08622749426575" lon="8.033680557335812"><ele>402.0</ele><time>2026-04-04T11:13:22Z</time></trkpt><trkpt lat="45.0860913297414" lon="8.033666139146897"><ele>402.0</ele><time>2026-04-04T11:13:23Z</time></trkpt><trkpt lat="45.085955600874094" lon="8.033598636249057"><ele>402.0</ele><time>2026-04-04T11:13:24Z</time></trkpt><trkpt lat="45.0858252991109" lon="8.033559129978991"><ele>401.0</ele><time>2026-04-04T11:13:25Z</time></trkpt><trkpt lat="45.085712376654136" lon="8.03354431098247"><ele>400.0</ele><time>2026-04-04T11:13:26Z</time></trkpt><trkpt lat="45.08559847050762" lon="8.033548331553371"><ele>399.0</ele><time>2026-04-04T11:13:27Z</time></trkpt><trkpt lat="45.08548028846105" lon="8.033568608706432"><ele>398.0</ele><time>2026-04-04T11:13:28Z</time></trkpt><trkpt lat="45.085374532217514" lon="8.033626709874904"><ele>398.0</ele><time>2026-04-04T11:13:29Z</time></trkpt><trkpt lat="45.08528392330035" lon="8.033724588395748"><ele>398.0</ele><time>2026-04-04T11:13:30Z</time></trkpt><trkpt lat="45.08522261277526" lon="8.033854713316646"><ele>398.0</ele><time>2026-04-04T11:13:31Z</time></trkpt><trkpt lat="45.085181225660044" lon="8.034007339474208"><ele>398.0</ele><time>2026-04-04T11:13:32Z</time></trkpt><trkpt lat="45.08516621330818" lon="8.034152801174065"><ele>398.0</ele><time>2026-04-04T11:13:33Z</time></trkpt><trkpt lat="45.085185085875835" lon="8.03427515184599"><ele>399.66666666666663</ele><time>2026-04-04T11:13:34Z</time></trkpt><trkpt lat="45.08524864668153" lon="8.03436089622876"><ele>401.3333333333333</ele><time>2026-04-04T11:13:35Z</time></trkpt><trkpt lat="45.08533537407269" lon="8.034389599731329"><ele>403.0</ele><time>2026-04-04T11:13:36Z</time></trkpt><trkpt lat="45.08542061570294" lon="8.034362635776587"><ele>404.66666666666663</ele><time>2026-04-04T11:13:37Z</time></trkpt><trkpt lat="45.08548291726007" lon="8.034318265064835"><ele>406.3333333333333</ele><time>2026-04-04T11:13:38Z</time></trkpt><trkpt lat="45.08553793214854" lon="8.03426177200048"><ele>408.0</ele><time>2026-04-04T11:13:39Z</time></trkpt><trkpt lat="45.08560589631586" lon="8.034201321896562"><ele>408.0</ele><time>2026-04-04T11:13:40Z</time></trkpt><trkpt lat="45.085688367106975" lon="8.03417292406981"><ele>408.0</ele><time>2026-04-04T11:13:41Z</time></trkpt><trkpt lat="45.08577583877496" lon="8.034177243797602"><ele>408.0</ele><time>2026-04-04T11:13:42Z</time></trkpt><trkpt lat="45.08587074380437" lon="8.034199945843957"><ele>408.0</ele><time>2026-04-04T11:13:43Z</time></trkpt><trkpt lat="45.08597027364441" lon="8.034229382657195"><ele>408.0</ele><time>2026-04-04T11:13:44Z</time></trkpt><trkpt lat="45.08606949801912" lon="8.034283199230316"><ele>410.59999999999997</ele><time>2026-04-04T11:13:45Z</time></trkpt><trkpt lat="45.0861577121718" lon="8.034355010797384"><ele>413.2</ele><time>2026-04-04T11:13:46Z</time></trkpt><trkpt lat="45.08622773986364" lon="8.03446233964365"><ele>415.8</ele><time>2026-04-04T11:13:47Z</time></trkpt><trkpt lat="45.086281827693384" lon="8.034581833661298"><ele>418.4</ele><time>2026-04-04T11:13:48Z</time></trkpt><trkpt lat="45.08634953185068" lon="8.034665016743178"><ele>421.0</ele><time>2026-04-04T11:13:49Z</time></trkpt><trkpt lat="45.086443367224526" lon="8.034720635823632"><ele>421.0</ele><time>2026-04-04T11:13:50Z</time></trkpt><trkpt lat="45.086547244878474" lon="8.034758677747082"><ele>421.0</ele><time>2026-04-04T11:13:51Z</time></trkpt><trkpt lat="45.086661005328054" lon="8.034773565503286"><ele>421.0</ele><time>2026-04-04T11:13:52Z</time></trkpt><trkpt lat="45.08677720011568" lon="8.034785049245363"><ele>421.0</ele><time>2026-04-04T11:13:53Z</time></trkpt><trkpt lat="45.08689568182109" lon="8.034808115220539"><ele>422.75</ele><time>2026-04-04T11:13:54Z</time></trkpt><trkpt lat="45.08701498080701" lon="8.034845872002577"><ele>424.5</ele><time>2026-04-04T11:13:55Z</time></trkpt><trkpt lat="45.0871308906027" lon="8.034905022877643"><ele>426.25</ele><time>2026-04-04T11:13:56Z</time></trkpt><trkpt lat="45.08724283945545" lon="8.034970034406657"><ele>428.0</ele><time>2026-04-04T11:13:57Z</time></trkpt><trkpt lat="45.08734330277096" lon="8.035051176935838"><ele>428.0</ele><time>2026-04-04T11:13:58Z</time></trkpt><trkpt lat="45.08742649699464" lon="8.035168795538917"><ele>427.99999999999994</ele><time>2026-04-04T11:13:59Z</time></trkpt><trkpt lat="45.08749845149242" lon="8.035304549702948"><ele>427.99999999999994</ele><time>2026-04-04T11:14:00Z</time></trkpt><trkpt lat="45.0875619218355" lon="8.035435130095816"><ele>428.0</ele><time>2026-04-04T11:14:01Z</time></trkpt><trkpt lat="45.0876116678292" lon="8.035556015071565"><ele>428.0</ele><time>2026-04-04T11:14:02Z</time></trkpt><trkpt lat="45.08764193244302" lon="8.035680465012264"><ele>430.79999999999995</ele><time>2026-04-04T11:14:03Z</time></trkpt><trkpt lat="45.08764239294767" lon="8.03581406378914"><ele>433.59999999999997</ele><time>2026-04-04T11:14:04Z</time></trkpt><trkpt lat="45.0876236872738" lon="8.035943068130571"><ele>436.40000000000003</ele><time>2026-04-04T11:14:05Z</time></trkpt><trkpt lat="45.087583928779914" lon="8.036072551085637"><ele>439.20000000000005</ele><time>2026-04-04T11:14:06Z</time></trkpt><trkpt lat="45.08753941445703" lon="8.036171995853023"><ele>442.0</ele><time>2026-04-04T11:14:07Z</time></trkpt><trkpt lat="45.08747480529381" lon="8.036288850660515"><ele>437.8</ele><time>2026-04-04T11:14:09Z</time></trkpt><trkpt lat="45.08741442386882" lon="8.036369340803247"><ele>433.6</ele><time>2026-04-04T11:14:11Z</time></trkpt><trkpt lat="45.08734842369448" lon="8.036463434852179"><ele>429.40000000000003</ele><time>2026-04-04T11:14:13Z</time></trkpt><trkpt lat="45.087254966490804" lon="8.036574849105824"><ele>425.20000000000005</ele><time>2026-04-04T11:14:15Z</time></trkpt><trkpt lat="45.08716657237893" lon="8.036699056836307"><ele>421.0</ele><time>2026-04-04T11:14:17Z</time></trkpt><trkpt lat="45.08710477339931" lon="8.036824160447324"><ele>421.0</ele><time>2026-04-04T11:14:19Z</time></trkpt><trkpt lat="45.08703730958258" lon="8.036956441294931"><ele>421.0</ele><time>2026-04-04T11:14:21Z</time></trkpt><trkpt lat="45.086970580917836" lon="8.03709340420639"><ele>421.0</ele><time>2026-04-04T11:14:23Z</time></trkpt><trkpt lat="45.08693108561971" lon="8.037234569851508"><ele>421.0</ele><time>2026-04-04T11:14:25Z</time></trkpt><trkpt lat="45.08692271014073" lon="8.037328766307605"><ele>421.0</ele><time>2026-04-04T11:14:28Z</time></trkpt><trkpt lat="45.08701363142043" lon="8.037324638491055"><ele>421.00000000000006</ele><time>2026-04-04T11:15:11Z</time></trkpt><trkpt lat="45.08705812248107" lon="8.037413107258766"><ele>421.0</ele><time>2026-04-04T11:15:14Z</time></trkpt><trkpt lat="45.08707896073596" lon="8.03749766782916"><ele>421.0</ele><time>2026-04-04T11:15:15Z</time></trkpt><trkpt lat="45.0871160435698" lon="8.037672135777976"><ele>421.0</ele><time>2026-04-04T11:15:17Z</time></trkpt><trkpt lat="45.08713946979958" lon="8.03777432944945"><ele>421.00000000000006</ele><time>2026-04-04T11:15:18Z</time></trkpt><trkpt lat="45.087162333383965" lon="8.037878807170609"><ele>421.0</ele><time>2026-04-04T11:15:19Z</time></trkpt><trkpt lat="45.08716773666688" lon="8.037992414805812"><ele>421.33333333333337</ele><time>2026-04-04T11:15:20Z</time></trkpt><trkpt lat="45.0871697458845" lon="8.03810149223832"><ele>421.6666666666667</ele><time>2026-04-04T11:15:21Z</time></trkpt><trkpt lat="45.08716378171318" lon="8.038206414352036"><ele>422.0</ele><time>2026-04-04T11:15:22Z</time></trkpt><trkpt lat="45.08715027485113" lon="8.03830379061061"><ele>422.33333333333337</ele><time>2026-04-04T11:15:23Z</time></trkpt><trkpt lat="45.08712968341938" lon="8.038400405253524"><ele>422.6666666666667</ele><time>2026-04-04T11:15:24Z</time></trkpt><trkpt lat="45.087081327198" lon="8.038485171661787"><ele>423.0</ele><time>2026-04-04T11:15:26Z</time></trkpt><trkpt lat="45.08704095309099" lon="8.038583046997372"><ele>423.0</ele><time>2026-04-04T11:15:44Z</time></trkpt><trkpt lat="45.086983982281005" lon="8.038674079865007"><ele>423.0</ele><time>2026-04-04T11:15:46Z</time></trkpt><trkpt lat="45.086903737313435" lon="8.038780360187658"><ele>423.0</ele><time>2026-04-04T11:15:48Z</time></trkpt><trkpt lat="45.086830409824834" lon="8.038898220661366"><ele>423.0</ele><time>2026-04-04T11:15:50Z</time></trkpt><trkpt lat="45.086770555461804" lon="8.039024487573403"><ele>423.0</ele><time>2026-04-04T11:15:52Z</time></trkpt><trkpt lat="45.08670804240979" lon="8.039148330183055"><ele>424.0</ele><time>2026-04-04T11:15:54Z</time></trkpt><trkpt lat="45.08662536390363" lon="8.039254392813342"><ele>425.0</ele><time>2026-04-04T11:15:56Z</time></trkpt><trkpt lat="45.086529055222464" lon="8.039336852657254"><ele>426.0</ele><time>2026-04-04T11:15:58Z</time></trkpt><trkpt lat="45.086414086938696" lon="8.039396489308448"><ele>427.0</ele><time>2026-04-04T11:16:00Z</time></trkpt><trkpt lat="45.08630468820499" lon="8.039440218174619"><ele>427.0</ele><time>2026-04-04T11:16:02Z</time></trkpt><trkpt lat="45.08624029185526" lon="8.039457822191626"><ele>427.0</ele><time>2026-04-04T11:16:04Z</time></trkpt><trkpt lat="45.086175065156226" lon="8.039389413074167"><ele>427.0</ele><time>2026-04-04T11:16:07Z</time></trkpt><trkpt lat="45.086151297781996" lon="8.039300986422777"><ele>427.0</ele><time>2026-04-04T11:16:09Z</time></trkpt><trkpt lat="45.08614482618011" lon="8.039202840758605"><ele>427.0</ele><time>2026-04-04T11:16:12Z</time></trkpt><trkpt lat="45.08620768322806" lon="8.039161357959257"><ele>427.0</ele><time>2026-04-04T11:16:15Z</time></trkpt><trkpt lat="45.08627161766588" lon="8.03912997519323"><ele>427.0</ele><time>2026-04-04T11:16:19Z</time></trkpt><trkpt lat="45.08621452006777" lon="8.039090880862313"><ele>427.00000000000006</ele><time>2026-04-04T11:16:25Z</time></trkpt><trkpt lat="45.086153507643125" lon="8.039130366115751"><ele>427.0</ele><time>2026-04-04T11:16:28Z</time></trkpt><trkpt lat="45.08614175938011" lon="8.039239901125587"><ele>427.0</ele><time>2026-04-04T11:16:38Z</time></trkpt><trkpt lat="45.08615920599611" lon="8.039331269750527"><ele>427.0</ele><time>2026-04-04T11:16:41Z</time></trkpt><trkpt lat="45.08621372895178" lon="8.039434073484626"><ele>427.00000000000006</ele><time>2026-04-04T11:17:02Z</time></trkpt><trkpt lat="45.0863138013855" lon="8.039431854821188"><ele>427.0</ele><time>2026-04-04T11:17:04Z</time></trkpt><trkpt lat="45.08637298916788" lon="8.039398971033522"><ele>427.0</ele><time>2026-04-04T11:17:05Z</time></trkpt><trkpt lat="45.08647717558598" lon="8.039351586075068"><ele>427.00000000000006</ele><time>2026-04-04T11:17:07Z</time></trkpt><trkpt lat="45.08656365784404" lon="8.039292547393766"><ele>427.00000000000006</ele><time>2026-04-04T11:17:09Z</time></trkpt><trkpt lat="45.08664275144821" lon="8.039197429813825"><ele>427.0</ele><time>2026-04-04T11:17:11Z</time></trkpt><trkpt lat="45.08670873339683" lon="8.039078716352426"><ele>427.0</ele><time>2026-04-04T11:17:13Z</time></trkpt><trkpt lat="45.086760823141695" lon="8.038970006661165"><ele>426.33333333333337</ele><time>2026-04-04T11:17:15Z</time></trkpt><trkpt lat="45.0868015221305" lon="8.038886977345708"><ele>425.6666666666667</ele><time>2026-04-04T11:17:17Z</time></trkpt><trkpt lat="45.08685861240097" lon="8.038788878961952"><ele>425.0</ele><time>2026-04-04T11:17:20Z</time></trkpt><trkpt lat="45.08692604880355" lon="8.038690631072992"><ele>424.33333333333337</ele><time>2026-04-04T11:17:23Z</time></trkpt><trkpt lat="45.086914546135674" lon="8.038590262064082"><ele>423.6666666666667</ele><time>2026-04-04T11:17:26Z</time></trkpt><trkpt lat="45.08692506373108" lon="8.038685995603952"><ele>423.0</ele><time>2026-04-04T11:19:42Z</time></trkpt><trkpt lat="45.08688109820477" lon="8.038766480102131"><ele>423.0</ele><time>2026-04-04T11:19:49Z</time></trkpt><trkpt lat="45.08683932778062" lon="8.03883718487048"><ele>423.0</ele><time>2026-04-04T11:19:55Z</time></trkpt><trkpt lat="45.08680653050434" lon="8.038917725230856"><ele>423.0</ele><time>2026-04-04T11:20:01Z</time></trkpt><trkpt lat="45.08676132949443" lon="8.038988191409521"><ele>423.0</ele><time>2026-04-04T11:20:07Z</time></trkpt><trkpt lat="45.08671899722343" lon="8.039063304312359"><ele>423.0</ele><time>2026-04-04T11:20:13Z</time></trkpt><trkpt lat="45.08667342331477" lon="8.039130382591814"><ele>423.0</ele><time>2026-04-04T11:20:19Z</time></trkpt><trkpt lat="45.08661761251668" lon="8.03918233584997"><ele>423.0</ele><time>2026-04-04T11:20:24Z</time></trkpt><trkpt lat="45.0865568681917" lon="8.039238739226882"><ele>423.57142857142856</ele><time>2026-04-04T11:20:29Z</time></trkpt><trkpt lat="45.086507621397054" lon="8.03930066534848"><ele>424.14285714285717</ele><time>2026-04-04T11:20:34Z</time></trkpt><trkpt lat="45.08643857349924" lon="8.039341808513221"><ele>424.7142857142857</ele><time>2026-04-04T11:20:40Z</time></trkpt><trkpt lat="45.08637698868247" lon="8.039364577403964"><ele>425.2857142857143</ele><time>2026-04-04T11:20:45Z</time></trkpt><trkpt lat="45.08631917132786" lon="8.039407325449952"><ele>425.8571428571429</ele><time>2026-04-04T11:20:53Z</time></trkpt><trkpt lat="45.0862467369226" lon="8.03943888761275"><ele>426.42857142857144</ele><time>2026-04-04T11:21:00Z</time></trkpt><trkpt lat="45.08616871574805" lon="8.03943673471442"><ele>427.0</ele><time>2026-04-04T11:21:05Z</time></trkpt><trkpt lat="45.08610944901085" lon="8.039475941328622"><ele>427.0</ele><time>2026-04-04T11:21:10Z</time></trkpt><trkpt lat="45.08605741195783" lon="8.03952892983453"><ele>427.0</ele><time>2026-04-04T11:21:16Z</time></trkpt><trkpt lat="45.08602154668912" lon="8.03961523491619"><ele>427.0</ele><time>2026-04-04T11:21:22Z</time></trkpt><trkpt lat="45.08605451510893" lon="8.039691871725159"><ele>427.0</ele><time>2026-04-04T11:21:26Z</time></trkpt><trkpt lat="45.086113703781926" lon="8.039755450980676"><ele>427.0</ele><time>2026-04-04T11:21:29Z</time></trkpt><trkpt lat="45.086110152825434" lon="8.039851142542883"><ele>427.0</ele><time>2026-04-04T11:21:36Z</time></trkpt><trkpt lat="45.08604927242764" lon="8.039896212548975"><ele>427.0</ele><time>2026-04-04T11:21:41Z</time></trkpt><trkpt lat="45.085983734086845" lon="8.039938811046365"><ele>427.0</ele><time>2026-04-04T11:22:06Z</time></trkpt><trkpt lat="45.085927391780025" lon="8.039889939418808"><ele>427.0</ele><time>2026-04-04T11:23:24Z</time></trkpt><trkpt lat="45.085880651977575" lon="8.039970936742519"><ele>435.0</ele><time>2026-04-04T11:27:36Z</time></trkpt><trkpt lat="45.0859551291135" lon="8.039833973320555"><ele>427.0</ele><time>2026-04-04T11:32:27Z</time></trkpt></trkseg><trkseg><trkpt lat="45.08689022002125" lon="8.038557795342143"><ele>423.0</ele><time>2026-04-04T12:35:09Z</time></trkpt><trkpt lat="45.086929664962156" lon="8.038636719778093"><ele>423.0</ele><time>2026-04-04T12:38:17Z</time></trkpt><trkpt lat="45.08690569087468" lon="8.038721736790636"><ele>423.0</ele><time>2026-04-04T12:38:22Z</time></trkpt><trkpt lat="45.0868615214313" lon="8.03880686321033"><ele>423.0</ele><time>2026-04-04T12:38:26Z</time></trkpt><trkpt lat="45.08692511366632" lon="8.038749635949236"><ele>423.0</ele><time>2026-04-04T12:38:30Z</time></trkpt><trkpt lat="45.086953543711985" lon="8.038637000253292"><ele>423.0</ele><time>2026-04-04T12:38:32Z</time></trkpt><trkpt lat="45.0870228847832" lon="8.038530907744372"><ele>423.0</ele><time>2026-04-04T12:38:34Z</time></trkpt><trkpt lat="45.08708203846861" lon="8.038410341891305"><ele>423.0</ele><time>2026-04-04T12:38:36Z</time></trkpt><trkpt lat="45.087121009769675" lon="8.038287033089677"><ele>423.0</ele><time>2026-04-04T12:38:38Z</time></trkpt><trkpt lat="45.08713150294594" lon="8.038128437282985"><ele>423.0</ele><time>2026-04-04T12:38:40Z</time></trkpt><trkpt lat="45.08712558320947" lon="8.038036171883107"><ele>423.0</ele><time>2026-04-04T12:38:41Z</time></trkpt><trkpt lat="45.087117901069846" lon="8.03793943944277"><ele>423.0</ele><time>2026-04-04T12:38:42Z</time></trkpt><trkpt lat="45.08710664048322" lon="8.037843445615175"><ele>422.7142857142857</ele><time>2026-04-04T12:38:43Z</time></trkpt><trkpt lat="45.08708827592726" lon="8.037743729201386"><ele>422.42857142857144</ele><time>2026-04-04T12:38:44Z</time></trkpt><trkpt lat="45.08705417606107" lon="8.03764816258481"><ele>422.14285714285717</ele><time>2026-04-04T12:38:45Z</time></trkpt><trkpt lat="45.087018140023446" lon="8.037548854720416"><ele>421.8571428571429</ele><time>2026-04-04T12:38:46Z</time></trkpt><trkpt lat="45.0869904811429" lon="8.037453848765924"><ele>421.57142857142856</ele><time>2026-04-04T12:38:47Z</time></trkpt><trkpt lat="45.086964028749115" lon="8.037360683079237"><ele>421.28571428571433</ele><time>2026-04-04T12:38:48Z</time></trkpt><trkpt lat="45.08693897089415" lon="8.037266836227293"><ele>421.0</ele><time>2026-04-04T12:38:49Z</time></trkpt><trkpt lat="45.08692874298951" lon="8.037176300868103"><ele>421.0</ele><time>2026-04-04T12:38:50Z</time></trkpt><trkpt lat="45.0869659252267" lon="8.03708698803558"><ele>421.0</ele><time>2026-04-04T12:38:51Z</time></trkpt><trkpt lat="45.0870393701374" lon="8.036952162082216"><ele>421.0</ele><time>2026-04-04T12:38:53Z</time></trkpt><trkpt lat="45.08709788490479" lon="8.03682556674266"><ele>421.0</ele><time>2026-04-04T12:38:55Z</time></trkpt><trkpt lat="45.08715915452463" lon="8.03670702792635"><ele>421.0</ele><time>2026-04-04T12:38:57Z</time></trkpt><trkpt lat="45.087234242239106" lon="8.036591321676235"><ele>419.4</ele><time>2026-04-04T12:38:59Z</time></trkpt><trkpt lat="45.08731614761355" lon="8.036472620377705"><ele>417.8</ele><time>2026-04-04T12:39:01Z</time></trkpt><trkpt lat="45.08740863980966" lon="8.036380533493663"><ele>416.2</ele><time>2026-04-04T12:39:03Z</time></trkpt><trkpt lat="45.087461150217386" lon="8.03631372005201"><ele>414.59999999999997</ele><time>2026-04-04T12:39:05Z</time></trkpt><trkpt lat="45.08752073822461" lon="8.036204371701317"><ele>413.0</ele><time>2026-04-04T12:39:08Z</time></trkpt><trkpt lat="45.08756994195727" lon="8.036098033554278"><ele>418.79999999999995</ele><time>2026-04-04T12:39:10Z</time></trkpt><trkpt lat="45.08761306095389" lon="8.035956722514504"><ele>424.6</ele><time>2026-04-04T12:39:12Z</time></trkpt><trkpt lat="45.0876511637756" lon="8.035820059073876"><ele>430.40000000000003</ele><time>2026-04-04T12:39:14Z</time></trkpt><trkpt lat="45.08764655239482" lon="8.035687382629716"><ele>436.20000000000005</ele><time>2026-04-04T12:39:16Z</time></trkpt><trkpt lat="45.08763474098257" lon="8.035570945675778"><ele>442.0</ele><time>2026-04-04T12:39:18Z</time></trkpt><trkpt lat="45.08761803160214" lon="8.035463508532818"><ele>442.83333333333337</ele><time>2026-04-04T12:39:20Z</time></trkpt><trkpt lat="45.087613854437414" lon="8.035302439832629"><ele>443.6666666666667</ele><time>2026-04-04T12:39:22Z</time></trkpt><trkpt lat="45.08758296411209" lon="8.03521795327031"><ele>444.5</ele><time>2026-04-04T12:39:23Z</time></trkpt><trkpt lat="45.087558023498886" lon="8.035133596764258"><ele>445.33333333333337</ele><time>2026-04-04T12:39:24Z</time></trkpt><trkpt lat="45.08752683452003" lon="8.03504552363376"><ele>446.1666666666667</ele><time>2026-04-04T12:39:25Z</time></trkpt><trkpt lat="45.08748815588091" lon="8.034958727343811"><ele>447.0</ele><time>2026-04-04T12:39:26Z</time></trkpt><trkpt lat="45.08744247816281" lon="8.034872948211776"><ele>444.85714285714283</ele><time>2026-04-04T12:39:27Z</time></trkpt><trkpt lat="45.087388461020794" lon="8.03479056080779"><ele>442.7142857142857</ele><time>2026-04-04T12:39:28Z</time></trkpt><trkpt lat="45.08733219838889" lon="8.034716026507676"><ele>440.57142857142856</ele><time>2026-04-04T12:39:29Z</time></trkpt><trkpt lat="45.087287539198414" lon="8.034651377887679"><ele>438.42857142857144</ele><time>2026-04-04T12:39:30Z</time></trkpt><trkpt lat="45.08721715515616" lon="8.034554297782638"><ele>436.2857142857143</ele><time>2026-04-04T12:39:32Z</time></trkpt><trkpt lat="45.087178634316146" lon="8.034481784558523"><ele>434.1428571428571</ele><time>2026-04-04T12:39:35Z</time></trkpt><trkpt lat="45.08712353551672" lon="8.034437903030089"><ele>432.0</ele><time>2026-04-04T12:40:11Z</time></trkpt><trkpt lat="45.08704127576272" lon="8.034486113454266"><ele>432.0</ele><time>2026-04-04T12:40:13Z</time></trkpt><trkpt lat="45.086970314837615" lon="8.034450551007382"><ele>432.0</ele><time>2026-04-04T12:40:15Z</time></trkpt><trkpt lat="45.08688725206432" lon="8.034419428949263"><ele>432.0</ele><time>2026-04-04T12:40:17Z</time></trkpt><trkpt lat="45.08679950809821" lon="8.034389928087425"><ele>432.0</ele><time>2026-04-04T12:40:19Z</time></trkpt><trkpt lat="45.086729468074275" lon="8.0343409733102"><ele>432.0</ele><time>2026-04-04T12:40:21Z</time></trkpt><trkpt lat="45.08666107088923" lon="8.034280651076559"><ele>432.0</ele><time>2026-04-04T12:40:24Z</time></trkpt><trkpt lat="45.08659715697644" lon="8.034264622095941"><ele>432.0</ele><time>2026-04-04T12:40:27Z</time></trkpt><trkpt lat="45.08653657670099" lon="8.034297549663638"><ele>432.0</ele><time>2026-04-04T12:40:31Z</time></trkpt><trkpt lat="45.08662652746451" lon="8.034242528085777"><ele>432.0</ele><time>2026-04-04T12:40:58Z</time></trkpt><trkpt lat="45.0867427785604" lon="8.03477932448922"><ele>432.0</ele><time>2026-04-04T12:41:01Z</time></trkpt><trkpt lat="45.08684282042019" lon="8.03479690890013"><ele>432.0</ele><time>2026-04-04T12:41:03Z</time></trkpt><trkpt lat="45.08693852925688" lon="8.03482521652275"><ele>432.0</ele><time>2026-04-04T12:41:05Z</time></trkpt><trkpt lat="45.08701958221181" lon="8.034857632902566"><ele>432.0</ele><time>2026-04-04T12:41:08Z</time></trkpt><trkpt lat="45.08711734523442" lon="8.034397375275274"><ele>432.0</ele><time>2026-04-04T12:41:10Z</time></trkpt><trkpt lat="45.08709193076127" lon="8.03428793352691"><ele>432.00000000000006</ele><time>2026-04-04T12:41:12Z</time></trkpt><trkpt lat="45.0871742978314" lon="8.034171043286953"><ele>432.00000000000006</ele><time>2026-04-04T12:41:14Z</time></trkpt><trkpt lat="45.087266777015664" lon="8.034061169102516"><ele>432.0</ele><time>2026-04-04T12:41:16Z</time></trkpt><trkpt lat="45.0873220267687" lon="8.033997790976233"><ele>432.0</ele><time>2026-04-04T12:41:17Z</time></trkpt><trkpt lat="45.08736971935216" lon="8.033935943830553"><ele>434.6</ele><time>2026-04-04T12:41:18Z</time></trkpt><trkpt lat="45.08744112352912" lon="8.033791861033999"><ele>437.20000000000005</ele><time>2026-04-04T12:41:20Z</time></trkpt><trkpt lat="45.087456082173595" lon="8.033698018754569"><ele>439.8</ele><time>2026-04-04T12:41:21Z</time></trkpt><trkpt lat="45.08746734655325" lon="8.033588395258866"><ele>442.4</ele><time>2026-04-04T12:41:22Z</time></trkpt><trkpt lat="45.087467303731536" lon="8.033459517113647"><ele>445.0</ele><time>2026-04-04T12:41:23Z</time></trkpt><trkpt lat="45.08746188860553" lon="8.033331639139366"><ele>444.00000000000006</ele><time>2026-04-04T12:41:24Z</time></trkpt><trkpt lat="45.08745596766832" lon="8.033204869793005"><ele>443.0</ele><time>2026-04-04T12:41:25Z</time></trkpt><trkpt lat="45.08745068577836" lon="8.033082048274116"><ele>442.0</ele><time>2026-04-04T12:41:26Z</time></trkpt><trkpt lat="45.08745084564071" lon="8.032964493528599"><ele>441.0</ele><time>2026-04-04T12:41:27Z</time></trkpt><trkpt lat="45.087456944563584" lon="8.03284793657845"><ele>440.00000000000006</ele><time>2026-04-04T12:41:28Z</time></trkpt><trkpt lat="45.08746108225708" lon="8.03273501060267"><ele>439.0</ele><time>2026-04-04T12:41:29Z</time></trkpt><trkpt lat="45.087476211129285" lon="8.03260709099215"><ele>439.00000000000006</ele><time>2026-04-04T12:41:31Z</time></trkpt><trkpt lat="45.087550999068526" lon="8.032565335244836"><ele>439.0</ele><time>2026-04-04T12:41:34Z</time></trkpt><trkpt lat="45.08759933063572" lon="8.03263380527216"><ele>439.0</ele><time>2026-04-04T12:41:35Z</time></trkpt><trkpt lat="45.08771884666773" lon="8.032701018920166"><ele>439.0</ele><time>2026-04-04T12:41:37Z</time></trkpt><trkpt lat="45.08778563485217" lon="8.032736703486483"><ele>439.00000000000006</ele><time>2026-04-04T12:41:38Z</time></trkpt><trkpt lat="45.087836306184634" lon="8.032810531378376"><ele>439.0</ele><time>2026-04-04T12:41:39Z</time></trkpt><trkpt lat="45.0878802934444" lon="8.032916845726561"><ele>439.00000000000006</ele><time>2026-04-04T12:41:40Z</time></trkpt><trkpt lat="45.087937236178014" lon="8.033014786396125"><ele>439.0</ele><time>2026-04-04T12:41:41Z</time></trkpt><trkpt lat="45.08799218866736" lon="8.033112735167515"><ele>439.0</ele><time>2026-04-04T12:41:42Z</time></trkpt><trkpt lat="45.08804364201818" lon="8.033203669192291"><ele>439.0</ele><time>2026-04-04T12:41:43Z</time></trkpt><trkpt lat="45.08810638502363" lon="8.033282930389484"><ele>439.00000000000006</ele><time>2026-04-04T12:41:44Z</time></trkpt><trkpt lat="45.088139379930745" lon="8.03339719796873"><ele>439.0</ele><time>2026-04-04T12:41:45Z</time></trkpt><trkpt lat="45.0881639747206" lon="8.033496530614235"><ele>440.00000000000006</ele><time>2026-04-04T12:41:46Z</time></trkpt><trkpt lat="45.088182690655294" lon="8.033593654640915"><ele>441.0</ele><time>2026-04-04T12:41:47Z</time></trkpt><trkpt lat="45.08819807413864" lon="8.033700487383474"><ele>442.0</ele><time>2026-04-04T12:41:48Z</time></trkpt><trkpt lat="45.08821243182289" lon="8.033807545758615"><ele>443.0</ele><time>2026-04-04T12:41:49Z</time></trkpt><trkpt lat="45.0882248165844" lon="8.033900330965073"><ele>444.00000000000006</ele><time>2026-04-04T12:41:50Z</time></trkpt><trkpt lat="45.08825822612332" lon="8.034080178306908"><ele>445.0</ele><time>2026-04-04T12:41:52Z</time></trkpt><trkpt lat="45.08829526312577" lon="8.034182508888009"><ele>448.33333333333337</ele><time>2026-04-04T12:41:53Z</time></trkpt><trkpt lat="45.088327490698035" lon="8.034281406559085"><ele>451.6666666666667</ele><time>2026-04-04T12:41:54Z</time></trkpt><trkpt lat="45.08836037302056" lon="8.034376227511736"><ele>455.0</ele><time>2026-04-04T12:41:55Z</time></trkpt><trkpt lat="45.0883873320427" lon="8.034468758096043"><ele>458.33333333333337</ele><time>2026-04-04T12:41:56Z</time></trkpt><trkpt lat="45.08842110420372" lon="8.034546656453278"><ele>461.6666666666667</ele><time>2026-04-04T12:41:57Z</time></trkpt><trkpt lat="45.088437122628854" lon="8.034674278525655"><ele>465.0</ele><time>2026-04-04T12:41:59Z</time></trkpt><trkpt lat="45.088436073857984" lon="8.034775998255133"><ele>465.0</ele><time>2026-04-04T12:42:02Z</time></trkpt><trkpt lat="45.088626871278144" lon="8.03478190066923"><ele>465.0</ele><time>2026-04-04T12:42:04Z</time></trkpt><trkpt lat="45.088712494596926" lon="8.034783565714704"><ele>465.0</ele><time>2026-04-04T12:42:05Z</time></trkpt><trkpt lat="45.08879879716117" lon="8.034796018303686"><ele>465.0</ele><time>2026-04-04T12:42:06Z</time></trkpt><trkpt lat="45.0888847857695" lon="8.03480015635137"><ele>465.0</ele><time>2026-04-04T12:42:07Z</time></trkpt><trkpt lat="45.08896316552044" lon="8.03480468690831"><ele>465.0</ele><time>2026-04-04T12:42:08Z</time></trkpt><trkpt lat="45.089034208588785" lon="8.034796744833667"><ele>465.0</ele><time>2026-04-04T12:42:09Z</time></trkpt><trkpt lat="45.089140883726756" lon="8.034782520612962"><ele>465.0</ele><time>2026-04-04T12:42:11Z</time></trkpt><trkpt lat="45.08921087169287" lon="8.034778599769831"><ele>465.0</ele><time>2026-04-04T12:42:13Z</time></trkpt><trkpt lat="45.08928894018643" lon="8.034625358552734"><ele>465.0</ele><time>2026-04-04T12:42:15Z</time></trkpt><trkpt lat="45.089380503350625" lon="8.03449169995421"><ele>462.2</ele><time>2026-04-04T12:42:17Z</time></trkpt><trkpt lat="45.08943746341095" lon="8.034409795136039"><ele>459.4</ele><time>2026-04-04T12:42:18Z</time></trkpt><trkpt lat="45.08948529112983" lon="8.03430750783974"><ele>456.6</ele><time>2026-04-04T12:42:19Z</time></trkpt><trkpt lat="45.08955064187425" lon="8.034230022960477"><ele>453.8</ele><time>2026-04-04T12:42:20Z</time></trkpt><trkpt lat="45.08961897582185" lon="8.03413304907132"><ele>451.0</ele><time>2026-04-04T12:42:21Z</time></trkpt><trkpt lat="45.08969241870748" lon="8.0340236992279"><ele>449.0</ele><time>2026-04-04T12:42:22Z</time></trkpt><trkpt lat="45.089764858650845" lon="8.033910674904543"><ele>447.0</ele><time>2026-04-04T12:42:23Z</time></trkpt><trkpt lat="45.08984255334911" lon="8.033796721840513"><ele>445.0</ele><time>2026-04-04T12:42:24Z</time></trkpt><trkpt lat="45.08992185455514" lon="8.033680464886693"><ele>443.0</ele><time>2026-04-04T12:42:25Z</time></trkpt><trkpt lat="45.090007757538814" lon="8.033568936143356"><ele>443.0</ele><time>2026-04-04T12:42:26Z</time></trkpt><trkpt lat="45.090090120261394" lon="8.033458299969965"><ele>443.0</ele><time>2026-04-04T12:42:27Z</time></trkpt><trkpt lat="45.09018241558091" lon="8.033356502970442"><ele>443.0</ele><time>2026-04-04T12:42:28Z</time></trkpt><trkpt lat="45.09026910516977" lon="8.033254176626508"><ele>443.0</ele><time>2026-04-04T12:42:29Z</time></trkpt><trkpt lat="45.09036340016084" lon="8.033154368243117"><ele>436.75</ele><time>2026-04-04T12:42:30Z</time></trkpt><trkpt lat="45.09044714159484" lon="8.033039955681692"><ele>430.5</ele><time>2026-04-04T12:42:31Z</time></trkpt><trkpt lat="45.09052859449563" lon="8.032912118034588"><ele>424.25</ele><time>2026-04-04T12:42:32Z</time></trkpt><trkpt lat="45.09060845807973" lon="8.032780523282533"><ele>418.0</ele><time>2026-04-04T12:42:33Z</time></trkpt><trkpt lat="45.090692754785515" lon="8.032644012461015"><ele>422.0</ele><time>2026-04-04T12:42:34Z</time></trkpt><trkpt lat="45.09077575362165" lon="8.03250406297904"><ele>426.0</ele><time>2026-04-04T12:42:35Z</time></trkpt><trkpt lat="45.0908602761562" lon="8.032365600178183"><ele>430.0</ele><time>2026-04-04T12:42:36Z</time></trkpt><trkpt lat="45.090926167823" lon="8.032207548429147"><ele>434.0</ele><time>2026-04-04T12:42:37Z</time></trkpt><trkpt lat="45.09098589429061" lon="8.032044959469621"><ele>434.0</ele><time>2026-04-04T12:42:38Z</time></trkpt><trkpt lat="45.09103707610402" lon="8.031890182582554"><ele>434.0</ele><time>2026-04-04T12:42:39Z</time></trkpt><trkpt lat="45.09109123912365" lon="8.03174357277888"><ele>434.0</ele><time>2026-04-04T12:42:40Z</time></trkpt><trkpt lat="45.091158733604274" lon="8.031619616937736"><ele>434.0</ele><time>2026-04-04T12:42:41Z</time></trkpt><trkpt lat="45.09126105748269" lon="8.031549227094338"><ele>432.75</ele><time>2026-04-04T12:42:42Z</time></trkpt><trkpt lat="45.0913531187095" lon="8.031454828371173"><ele>431.5</ele><time>2026-04-04T12:42:43Z</time></trkpt><trkpt lat="45.0914761729421" lon="8.03140359571077"><ele>430.25</ele><time>2026-04-04T12:42:44Z</time></trkpt><trkpt lat="45.09160247801413" lon="8.031339466577956"><ele>429.0</ele><time>2026-04-04T12:42:45Z</time></trkpt><trkpt lat="45.09173712067778" lon="8.031278290377756"><ele>429.0</ele><time>2026-04-04T12:42:46Z</time></trkpt><trkpt lat="45.09187756466456" lon="8.031203569236656"><ele>429.0</ele><time>2026-04-04T12:42:47Z</time></trkpt><trkpt lat="45.09201889129783" lon="8.031162631035377"><ele>429.0</ele><time>2026-04-04T12:42:48Z</time></trkpt><trkpt lat="45.09215710811839" lon="8.031090890067958"><ele>429.0</ele><time>2026-04-04T12:42:49Z</time></trkpt><trkpt lat="45.09228047295545" lon="8.030987712786226"><ele>429.0</ele><time>2026-04-04T12:42:50Z</time></trkpt><trkpt lat="45.092408002250046" lon="8.030891763624558"><ele>429.0</ele><time>2026-04-04T12:42:51Z</time></trkpt><trkpt lat="45.09252938305469" lon="8.030793618892034"><ele>429.0</ele><time>2026-04-04T12:42:52Z</time></trkpt><trkpt lat="45.09264394942009" lon="8.030678778832193"><ele>429.0</ele><time>2026-04-04T12:42:53Z</time></trkpt><trkpt lat="45.09275317645142" lon="8.030564196018801"><ele>426.0</ele><time>2026-04-04T12:42:54Z</time></trkpt><trkpt lat="45.09285493200955" lon="8.030432161038982"><ele>423.0</ele><time>2026-04-04T12:42:55Z</time></trkpt><trkpt lat="45.092933419282396" lon="8.030269829403634"><ele>420.0</ele><time>2026-04-04T12:42:56Z</time></trkpt><trkpt lat="45.09301194370089" lon="8.030112683523612"><ele>417.0</ele><time>2026-04-04T12:42:57Z</time></trkpt><trkpt lat="45.09309512256781" lon="8.029953360764722"><ele>415.75</ele><time>2026-04-04T12:42:58Z</time></trkpt><trkpt lat="45.09317934350034" lon="8.029804084490443"><ele>414.5</ele><time>2026-04-04T12:42:59Z</time></trkpt><trkpt lat="45.09327692484104" lon="8.029669540393696"><ele>413.25</ele><time>2026-04-04T12:43:00Z</time></trkpt><trkpt lat="45.093363054757276" lon="8.029519667476027"><ele>412.0</ele><time>2026-04-04T12:43:01Z</time></trkpt><trkpt lat="45.09341531242733" lon="8.029336500973173"><ele>421.25</ele><time>2026-04-04T12:43:02Z</time></trkpt><trkpt lat="45.093435830090286" lon="8.029139344068627"><ele>430.5</ele><time>2026-04-04T12:43:03Z</time></trkpt><trkpt lat="45.09341599871909" lon="8.028933111594323"><ele>439.75</ele><time>2026-04-04T12:43:04Z</time></trkpt><trkpt lat="45.09337368154367" lon="8.028722530344314"><ele>449.0</ele><time>2026-04-04T12:43:05Z</time></trkpt><trkpt lat="45.09331741930279" lon="8.028519535481289"><ele>443.3333333333333</ele><time>2026-04-04T12:43:06Z</time></trkpt><trkpt lat="45.09324955203765" lon="8.028323992828282"><ele>437.66666666666663</ele><time>2026-04-04T12:43:07Z</time></trkpt><trkpt lat="45.09316753710157" lon="8.028140242424948"><ele>432.0</ele><time>2026-04-04T12:43:08Z</time></trkpt><trkpt lat="45.093082017752245" lon="8.027961758396948"><ele>432.0</ele><time>2026-04-04T12:43:09Z</time></trkpt><trkpt lat="45.093014223784024" lon="8.02780032378764"><ele>432.0</ele><time>2026-04-04T12:43:10Z</time></trkpt><trkpt lat="45.092977104862214" lon="8.02765173726095"><ele>432.0</ele><time>2026-04-04T12:43:11Z</time></trkpt><trkpt lat="45.0929781204635" lon="8.02751073431546"><ele>432.0</ele><time>2026-04-04T12:43:12Z</time></trkpt><trkpt lat="45.09304150895138" lon="8.02738446965256"><ele>433.8</ele><time>2026-04-04T12:43:13Z</time></trkpt><trkpt lat="45.09310476046463" lon="8.02725783217374"><ele>435.6</ele><time>2026-04-04T12:43:14Z</time></trkpt><trkpt lat="45.09315763238815" lon="8.027106399737956"><ele>437.40000000000003</ele><time>2026-04-04T12:43:15Z</time></trkpt><trkpt lat="45.0932206122002" lon="8.026973653503743"><ele>439.20000000000005</ele><time>2026-04-04T12:43:16Z</time></trkpt><trkpt lat="45.0932979015318" lon="8.026902026090527"><ele>441.0</ele><time>2026-04-04T12:43:17Z</time></trkpt><trkpt lat="45.09336863882402" lon="8.026831895056736"><ele>441.0</ele><time>2026-04-04T12:43:18Z</time></trkpt><trkpt lat="45.09344039300916" lon="8.02672280367966"><ele>441.0</ele><time>2026-04-04T12:43:19Z</time></trkpt><trkpt lat="45.09358339361131" lon="8.026753786772705"><ele>441.0</ele><time>2026-04-04T12:43:20Z</time></trkpt><trkpt lat="45.09369376138279" lon="8.02669361378042"><ele>441.0</ele><time>2026-04-04T12:43:21Z</time></trkpt><trkpt lat="45.093811157400076" lon="8.02662341803042"><ele>440.25</ele><time>2026-04-04T12:43:22Z</time></trkpt><trkpt lat="45.093934516230966" lon="8.026546985399618"><ele>439.5</ele><time>2026-04-04T12:43:23Z</time></trkpt><trkpt lat="45.094068144171764" lon="8.026489594562634"><ele>438.75</ele><time>2026-04-04T12:43:24Z</time></trkpt><trkpt lat="45.094187487664705" lon="8.02640560491209"><ele>438.0</ele><time>2026-04-04T12:43:25Z</time></trkpt><trkpt lat="45.094305768307336" lon="8.026321773219317"><ele>438.0</ele><time>2026-04-04T12:43:26Z</time></trkpt><trkpt lat="45.09442586012468" lon="8.026216222055819"><ele>438.0</ele><time>2026-04-04T12:43:27Z</time></trkpt><trkpt lat="45.09455348182437" lon="8.026132452255874"><ele>438.0</ele><time>2026-04-04T12:43:28Z</time></trkpt><trkpt lat="45.094682857364575" lon="8.02604942913637"><ele>438.0</ele><time>2026-04-04T12:43:29Z</time></trkpt><trkpt lat="45.09481371735919" lon="8.025969056434135"><ele>437.25</ele><time>2026-04-04T12:43:30Z</time></trkpt><trkpt lat="45.094950191047914" lon="8.025903893888106"><ele>436.5</ele><time>2026-04-04T12:43:31Z</time></trkpt><trkpt lat="45.09509315347259" lon="8.025851744225841"><ele>435.75</ele><time>2026-04-04T12:43:32Z</time></trkpt><trkpt lat="45.09524732744967" lon="8.025805030726335"><ele>435.0</ele><time>2026-04-04T12:43:33Z</time></trkpt><trkpt lat="45.09539676683676" lon="8.025760549035773"><ele>435.0</ele><time>2026-04-04T12:43:34Z</time></trkpt><trkpt lat="45.095548773119226" lon="8.02572350452771"><ele>435.0</ele><time>2026-04-04T12:43:35Z</time></trkpt><trkpt lat="45.09570324453661" lon="8.025698191395538"><ele>435.0</ele><time>2026-04-04T12:43:36Z</time></trkpt><trkpt lat="45.095859277290465" lon="8.025691310780227"><ele>435.33333333333337</ele><time>2026-04-04T12:43:37Z</time></trkpt><trkpt lat="45.09600679239633" lon="8.025658833408762"><ele>435.6666666666667</ele><time>2026-04-04T12:43:38Z</time></trkpt><trkpt lat="45.09614749277315" lon="8.02557591317505"><ele>436.0</ele><time>2026-04-04T12:43:39Z</time></trkpt><trkpt lat="45.0962852661748" lon="8.025494315036989"><ele>436.0</ele><time>2026-04-04T12:43:40Z</time></trkpt><trkpt lat="45.09640641478106" lon="8.0253996012439"><ele>436.0</ele><time>2026-04-04T12:43:41Z</time></trkpt><trkpt lat="45.09652740354503" lon="8.025299919354122"><ele>436.0</ele><time>2026-04-04T12:43:42Z</time></trkpt><trkpt lat="45.096664944874185" lon="8.025287323691378"><ele>436.0</ele><time>2026-04-04T12:43:43Z</time></trkpt><trkpt lat="45.096803937316096" lon="8.025246775167274"><ele>438.6666666666667</ele><time>2026-04-04T12:43:44Z</time></trkpt><trkpt lat="45.09694958583467" lon="8.02523581922087"><ele>441.33333333333337</ele><time>2026-04-04T12:43:45Z</time></trkpt><trkpt lat="45.09710125721325" lon="8.025215720683438"><ele>444.0</ele><time>2026-04-04T12:43:46Z</time></trkpt><trkpt lat="45.09725942923271" lon="8.02522165368932"><ele>445.0</ele><time>2026-04-04T12:43:47Z</time></trkpt><trkpt lat="45.09742388260705" lon="8.025205749528583"><ele>446.0</ele><time>2026-04-04T12:43:48Z</time></trkpt><trkpt lat="45.09759254158705" lon="8.025187468959471"><ele>447.0</ele><time>2026-04-04T12:43:49Z</time></trkpt><trkpt lat="45.09776127612832" lon="8.025167087032179"><ele>447.0</ele><time>2026-04-04T12:43:50Z</time></trkpt><trkpt lat="45.097932800576665" lon="8.025144878101989"><ele>447.0</ele><time>2026-04-04T12:43:51Z</time></trkpt><trkpt lat="45.09810800225746" lon="8.025100413260489"><ele>447.0</ele><time>2026-04-04T12:43:52Z</time></trkpt><trkpt lat="45.09827224850094" lon="8.02501101673467"><ele>441.0</ele><time>2026-04-04T12:43:53Z</time></trkpt><trkpt lat="45.09843508232067" lon="8.024910633643447"><ele>435.0</ele><time>2026-04-04T12:43:54Z</time></trkpt><trkpt lat="45.098606448821364" lon="8.024814717829347"><ele>429.0</ele><time>2026-04-04T12:43:55Z</time></trkpt><trkpt lat="45.09877688268313" lon="8.024695359041782"><ele>429.0</ele><time>2026-04-04T12:43:56Z</time></trkpt><trkpt lat="45.09894299473927" lon="8.02457769635242"><ele>429.0</ele><time>2026-04-04T12:43:57Z</time></trkpt><trkpt lat="45.09910737826707" lon="8.024461258002937"><ele>429.0</ele><time>2026-04-04T12:43:58Z</time></trkpt><trkpt lat="45.09926987410433" lon="8.024346603132706"><ele>428.33333333333337</ele><time>2026-04-04T12:43:59Z</time></trkpt><trkpt lat="45.0994224162221" lon="8.024240118967114"><ele>427.6666666666667</ele><time>2026-04-04T12:44:00Z</time></trkpt><trkpt lat="45.09957968023353" lon="8.024126953759893"><ele>427.0</ele><time>2026-04-04T12:44:01Z</time></trkpt><trkpt lat="45.09971873003694" lon="8.023986487303787"><ele>427.0</ele><time>2026-04-04T12:44:02Z</time></trkpt><trkpt lat="45.09986504734919" lon="8.023881550160798"><ele>427.0</ele><time>2026-04-04T12:44:03Z</time></trkpt><trkpt lat="45.10001203590473" lon="8.023742028006502"><ele>427.0</ele><time>2026-04-04T12:44:04Z</time></trkpt><trkpt lat="45.10015492102423" lon="8.023606063813396"><ele>425.0</ele><time>2026-04-04T12:44:05Z</time></trkpt><trkpt lat="45.100299372771545" lon="8.023468940600312"><ele>423.0</ele><time>2026-04-04T12:44:06Z</time></trkpt><trkpt lat="45.10044000176036" lon="8.023335560187812"><ele>421.0</ele><time>2026-04-04T12:44:07Z</time></trkpt><trkpt lat="45.10058583032191" lon="8.023196007413896"><ele>421.0</ele><time>2026-04-04T12:44:08Z</time></trkpt><trkpt lat="45.10072006867883" lon="8.023064928445233"><ele>421.0</ele><time>2026-04-04T12:44:09Z</time></trkpt><trkpt lat="45.10085352989133" lon="8.022930855357682"><ele>421.0</ele><time>2026-04-04T12:44:10Z</time></trkpt><trkpt lat="45.10098289853022" lon="8.02280077003168"><ele>420.5</ele><time>2026-04-04T12:44:11Z</time></trkpt><trkpt lat="45.10109731512086" lon="8.022654958179471"><ele>420.0</ele><time>2026-04-04T12:44:12Z</time></trkpt><trkpt lat="45.101222228109314" lon="8.022528118011667"><ele>419.5</ele><time>2026-04-04T12:44:13Z</time></trkpt><trkpt lat="45.10135559331076" lon="8.022461089132841"><ele>419.0</ele><time>2026-04-04T12:44:14Z</time></trkpt><trkpt lat="45.10150635110072" lon="8.022432708004045"><ele>426.3333333333333</ele><time>2026-04-04T12:44:15Z</time></trkpt><trkpt lat="45.10166244312169" lon="8.022404882096245"><ele>433.66666666666663</ele><time>2026-04-04T12:44:16Z</time></trkpt><trkpt lat="45.10181270996259" lon="8.022346025226772"><ele>441.0</ele><time>2026-04-04T12:44:17Z</time></trkpt><trkpt lat="45.101967146160455" lon="8.02230415760966"><ele>441.0</ele><time>2026-04-04T12:44:18Z</time></trkpt><trkpt lat="45.10212086728147" lon="8.022243335312634"><ele>441.0</ele><time>2026-04-04T12:44:19Z</time></trkpt><trkpt lat="45.102284390592516" lon="8.022180849020742"><ele>441.0</ele><time>2026-04-04T12:44:20Z</time></trkpt><trkpt lat="45.10245573741871" lon="8.022121508691232"><ele>441.66666666666663</ele><time>2026-04-04T12:44:21Z</time></trkpt><trkpt lat="45.10263319612156" lon="8.022084097217318"><ele>442.3333333333333</ele><time>2026-04-04T12:44:22Z</time></trkpt><trkpt lat="45.10279625789081" lon="8.021989309227136"><ele>443.0</ele><time>2026-04-04T12:44:23Z</time></trkpt><trkpt lat="45.10294753153426" lon="8.021913473187082"><ele>443.0</ele><time>2026-04-04T12:44:24Z</time></trkpt><trkpt lat="45.10307139848255" lon="8.021774238413236"><ele>443.0</ele><time>2026-04-04T12:44:25Z</time></trkpt><trkpt lat="45.1032057102359" lon="8.021707030587498"><ele>443.0</ele><time>2026-04-04T12:44:26Z</time></trkpt><trkpt lat="45.10333763919211" lon="8.021654007467028"><ele>443.0</ele><time>2026-04-04T12:44:27Z</time></trkpt><trkpt lat="45.10347056099744" lon="8.021612775194592"><ele>444.75</ele><time>2026-04-04T12:44:28Z</time></trkpt><trkpt lat="45.10360059395913" lon="8.02161074662539"><ele>446.5</ele><time>2026-04-04T12:44:29Z</time></trkpt><trkpt lat="45.10373204665451" lon="8.021628728792132"><ele>448.25</ele><time>2026-04-04T12:44:30Z</time></trkpt><trkpt lat="45.10387161815634" lon="8.021655259553766"><ele>450.0</ele><time>2026-04-04T12:44:31Z</time></trkpt><trkpt lat="45.104012921033274" lon="8.021665209220972"><ele>447.0</ele><time>2026-04-04T12:44:32Z</time></trkpt><trkpt lat="45.104154148026375" lon="8.021685959551972"><ele>444.0</ele><time>2026-04-04T12:44:33Z</time></trkpt><trkpt lat="45.10430365913123" lon="8.02168614749875"><ele>441.0</ele><time>2026-04-04T12:44:34Z</time></trkpt><trkpt lat="45.10444274301652" lon="8.021696980956449"><ele>438.0</ele><time>2026-04-04T12:44:35Z</time></trkpt><trkpt lat="45.104579675463064" lon="8.021681958176602"><ele>438.0</ele><time>2026-04-04T12:44:36Z</time></trkpt><trkpt lat="45.10470157052928" lon="8.021720738127355"><ele>438.0</ele><time>2026-04-04T12:44:37Z</time></trkpt><trkpt lat="45.10481888545604" lon="8.02179997451632"><ele>438.0</ele><time>2026-04-04T12:44:38Z</time></trkpt><trkpt lat="45.104923584443675" lon="8.021923279021829"><ele>438.0</ele><time>2026-04-04T12:44:39Z</time></trkpt><trkpt lat="45.10504582270832" lon="8.022004774807629"><ele>438.75</ele><time>2026-04-04T12:44:40Z</time></trkpt><trkpt lat="45.105164632272704" lon="8.022103258237385"><ele>439.5</ele><time>2026-04-04T12:44:41Z</time></trkpt><trkpt lat="45.10528168253894" lon="8.022201396142925"><ele>440.25</ele><time>2026-04-04T12:44:42Z</time></trkpt><trkpt lat="45.10539602576062" lon="8.02229947642012"><ele>441.0</ele><time>2026-04-04T12:44:43Z</time></trkpt><trkpt lat="45.105506028963305" lon="8.02239952199179"><ele>439.0</ele><time>2026-04-04T12:44:44Z</time></trkpt><trkpt lat="45.10561282243838" lon="8.022505636503237"><ele>437.0</ele><time>2026-04-04T12:44:45Z</time></trkpt><trkpt lat="45.1057134722752" lon="8.022611894982298"><ele>435.0</ele><time>2026-04-04T12:44:46Z</time></trkpt><trkpt lat="45.10581091102964" lon="8.022718603392724"><ele>433.0</ele><time>2026-04-04T12:44:47Z</time></trkpt><trkpt lat="45.10590303735524" lon="8.022824231161126"><ele>433.0</ele><time>2026-04-04T12:44:48Z</time></trkpt><trkpt lat="45.10600256102014" lon="8.022879171824002"><ele>432.99999999999994</ele><time>2026-04-04T12:44:49Z</time></trkpt><trkpt lat="45.10606934733269" lon="8.023004550425599"><ele>432.99999999999994</ele><time>2026-04-04T12:44:50Z</time></trkpt><trkpt lat="45.10613407193858" lon="8.023068443479731"><ele>433.0</ele><time>2026-04-04T12:44:51Z</time></trkpt><trkpt lat="45.106220291740705" lon="8.02314241617953"><ele>433.0</ele><time>2026-04-04T12:44:53Z</time></trkpt><trkpt lat="45.106293521039014" lon="8.023156889401175"><ele>433.0</ele><time>2026-04-04T12:44:55Z</time></trkpt><trkpt lat="45.10635467434986" lon="8.02311763807658"><ele>433.0</ele><time>2026-04-04T12:44:57Z</time></trkpt><trkpt lat="45.10645662104444" lon="8.02322516926193"><ele>433.0</ele><time>2026-04-04T12:44:59Z</time></trkpt><trkpt lat="45.10625851728384" lon="8.023041881725812"><ele>433.0</ele><time>2026-04-04T12:45:02Z</time></trkpt><trkpt lat="45.10616952045737" lon="8.023049003543456"><ele>433.00000000000006</ele><time>2026-04-04T12:45:05Z</time></trkpt><trkpt lat="45.10611740608346" lon="8.022994698109994"><ele>433.0</ele><time>2026-04-04T12:45:06Z</time></trkpt><trkpt lat="45.10605546808474" lon="8.022931080557145"><ele>433.0</ele><time>2026-04-04T12:45:08Z</time></trkpt><trkpt lat="45.10609431159199" lon="8.02285874033447"><ele>433.0</ele><time>2026-04-04T12:45:10Z</time></trkpt><trkpt lat="45.106180753560544" lon="8.022855640866489"><ele>433.00000000000006</ele><time>2026-04-04T12:45:12Z</time></trkpt><trkpt lat="45.10630031050909" lon="8.022904555825187"><ele>433.0</ele><time>2026-04-04T12:45:14Z</time></trkpt><trkpt lat="45.10638023177064" lon="8.022915580697049"><ele>433.00000000000006</ele><time>2026-04-04T12:45:15Z</time></trkpt><trkpt lat="45.10646866922468" lon="8.022932440266592"><ele>433.0</ele><time>2026-04-04T12:45:16Z</time></trkpt><trkpt lat="45.10656308180851" lon="8.022952023412769"><ele>433.0</ele><time>2026-04-04T12:45:17Z</time></trkpt><trkpt lat="45.106651770399445" lon="8.022970708647575"><ele>433.0</ele><time>2026-04-04T12:45:18Z</time></trkpt><trkpt lat="45.10673596047601" lon="8.022980231558643"><ele>433.00000000000006</ele><time>2026-04-04T12:45:19Z</time></trkpt><trkpt lat="45.10682572358587" lon="8.02299479406932"><ele>433.0</ele><time>2026-04-04T12:45:20Z</time></trkpt><trkpt lat="45.106901659268054" lon="8.02321580065027"><ele>432.5</ele><time>2026-04-04T12:45:21Z</time></trkpt><trkpt lat="45.106992567452956" lon="8.023229469905548"><ele>432.0</ele><time>2026-04-04T12:45:22Z</time></trkpt><trkpt lat="45.10709732277855" lon="8.023240468542433"><ele>431.5</ele><time>2026-04-04T12:45:23Z</time></trkpt><trkpt lat="45.107212265695175" lon="8.023244711579302"><ele>431.0</ele><time>2026-04-04T12:45:24Z</time></trkpt><trkpt lat="45.107356239372194" lon="8.023233667988771"><ele>431.0</ele><time>2026-04-04T12:45:25Z</time></trkpt><trkpt lat="45.107502319117266" lon="8.023195359864786"><ele>431.0</ele><time>2026-04-04T12:45:26Z</time></trkpt><trkpt lat="45.10763883424075" lon="8.02315159045159"><ele>431.0</ele><time>2026-04-04T12:45:27Z</time></trkpt><trkpt lat="45.10777520684428" lon="8.023109169793454"><ele>431.0</ele><time>2026-04-04T12:45:28Z</time></trkpt><trkpt lat="45.1079162614543" lon="8.02306631338399"><ele>431.0</ele><time>2026-04-04T12:45:29Z</time></trkpt><trkpt lat="45.1080571565969" lon="8.023023505834137"><ele>431.0</ele><time>2026-04-04T12:45:30Z</time></trkpt><trkpt lat="45.10819667357325" lon="8.022981118274902"><ele>431.0</ele><time>2026-04-04T12:45:31Z</time></trkpt><trkpt lat="45.10834009146114" lon="8.022937545555633"><ele>431.0</ele><time>2026-04-04T12:45:32Z</time></trkpt><trkpt lat="45.10847677211146" lon="8.02286148142052"><ele>413.0</ele><time>2026-04-04T12:45:33Z</time></trkpt><trkpt lat="45.10851658615165" lon="8.022151590111504"><ele>413.0</ele><time>2026-04-04T12:45:34Z</time></trkpt><trkpt lat="45.10864268286287" lon="8.022065357866936"><ele>413.0</ele><time>2026-04-04T12:45:35Z</time></trkpt><trkpt lat="45.10876610796587" lon="8.021956348183576"><ele>413.0</ele><time>2026-04-04T12:45:36Z</time></trkpt><trkpt lat="45.108898844503074" lon="8.021864442840531"><ele>413.0</ele><time>2026-04-04T12:45:37Z</time></trkpt><trkpt lat="45.109007832337014" lon="8.021726727919836"><ele>413.25</ele><time>2026-04-04T12:45:38Z</time></trkpt><trkpt lat="45.10910933520885" lon="8.02159017933499"><ele>413.5</ele><time>2026-04-04T12:45:39Z</time></trkpt><trkpt lat="45.10921152733695" lon="8.021454489862553"><ele>413.75</ele><time>2026-04-04T12:45:40Z</time></trkpt><trkpt lat="45.10931377888668" lon="8.021317875060625"><ele>414.0</ele><time>2026-04-04T12:45:41Z</time></trkpt><trkpt lat="45.10941488072197" lon="8.021182682936573"><ele>414.0</ele><time>2026-04-04T12:45:42Z</time></trkpt><trkpt lat="45.10951639785657" lon="8.021046935505682"><ele>414.0</ele><time>2026-04-04T12:45:43Z</time></trkpt><trkpt lat="45.10961956116549" lon="8.020909472055457"><ele>414.0</ele><time>2026-04-04T12:45:44Z</time></trkpt><trkpt lat="45.109726358529365" lon="8.020776746160816"><ele>414.0</ele><time>2026-04-04T12:45:45Z</time></trkpt><trkpt lat="45.10983950405411" lon="8.02066342910476"><ele>413.0</ele><time>2026-04-04T12:45:46Z</time></trkpt><trkpt lat="45.109976929428285" lon="8.02056918275604"><ele>412.0</ele><time>2026-04-04T12:45:47Z</time></trkpt><trkpt lat="45.110121408361735" lon="8.020487326420467"><ele>411.0</ele><time>2026-04-04T12:45:48Z</time></trkpt><trkpt lat="45.11026914474822" lon="8.02040535064679"><ele>411.0</ele><time>2026-04-04T12:45:49Z</time></trkpt><trkpt lat="45.11042024278782" lon="8.020322941128233"><ele>411.0</ele><time>2026-04-04T12:45:50Z</time></trkpt><trkpt lat="45.1105734734336" lon="8.020239368474485"><ele>411.0</ele><time>2026-04-04T12:45:51Z</time></trkpt><trkpt lat="45.11072885297867" lon="8.020154623740897"><ele>412.5</ele><time>2026-04-04T12:45:52Z</time></trkpt><trkpt lat="45.11087400351269" lon="8.020075457975175"><ele>414.0</ele><time>2026-04-04T12:45:53Z</time></trkpt><trkpt lat="45.11099698798339" lon="8.020006057696115"><ele>415.5</ele><time>2026-04-04T12:45:54Z</time></trkpt><trkpt lat="45.11108690200939" lon="8.019940493281991"><ele>417.0</ele><time>2026-04-04T12:45:55Z</time></trkpt><trkpt lat="45.111155485254336" lon="8.019929341027627"><ele>417.5</ele><time>2026-04-04T12:45:56Z</time></trkpt><trkpt lat="45.11121463254233" lon="8.020033791488803"><ele>418.0</ele><time>2026-04-04T12:45:57Z</time></trkpt><trkpt lat="45.1112892017527" lon="8.020060569645876"><ele>418.5</ele><time>2026-04-04T12:45:58Z</time></trkpt><trkpt lat="45.111361987408024" lon="8.020047350110838"><ele>419.0</ele><time>2026-04-04T12:45:59Z</time></trkpt><trkpt lat="45.11143444854736" lon="8.020020337654065"><ele>419.5</ele><time>2026-04-04T12:46:00Z</time></trkpt><trkpt lat="45.11151988161738" lon="8.019998693822743"><ele>420.0</ele><time>2026-04-04T12:46:01Z</time></trkpt><trkpt lat="45.11161050539631" lon="8.019944759086146"><ele>421.0</ele><time>2026-04-04T12:46:02Z</time></trkpt><trkpt lat="45.111703709890136" lon="8.019861064667312"><ele>422.0</ele><time>2026-04-04T12:46:03Z</time></trkpt><trkpt lat="45.111793113790426" lon="8.019756307594735"><ele>423.0</ele><time>2026-04-04T12:46:04Z</time></trkpt><trkpt lat="45.11186293563157" lon="8.019652041026509"><ele>424.0</ele><time>2026-04-04T12:46:05Z</time></trkpt><trkpt lat="45.11191400614144" lon="8.019519391553223"><ele>425.0</ele><time>2026-04-04T12:46:06Z</time></trkpt><trkpt lat="45.11193555410856" lon="8.01936708413706"><ele>425.0</ele><time>2026-04-04T12:46:07Z</time></trkpt><trkpt lat="45.111944033705306" lon="8.019209947048777"><ele>425.0</ele><time>2026-04-04T12:46:08Z</time></trkpt><trkpt lat="45.11195129574746" lon="8.019036938760715"><ele>425.0</ele><time>2026-04-04T12:46:09Z</time></trkpt><trkpt lat="45.11197258086278" lon="8.01886389956883"><ele>425.0</ele><time>2026-04-04T12:46:10Z</time></trkpt><trkpt lat="45.11201315317418" lon="8.01869894511943"><ele>424.25</ele><time>2026-04-04T12:46:11Z</time></trkpt><trkpt lat="45.11207148326859" lon="8.018546072818593"><ele>423.5</ele><time>2026-04-04T12:46:12Z</time></trkpt><trkpt lat="45.11213615636822" lon="8.018411708580382"><ele>422.75</ele><time>2026-04-04T12:46:13Z</time></trkpt><trkpt lat="45.11221080820921" lon="8.018298082032183"><ele>422.0</ele><time>2026-04-04T12:46:14Z</time></trkpt><trkpt lat="45.112299150160226" lon="8.018206607130201"><ele>421.0</ele><time>2026-04-04T12:46:15Z</time></trkpt><trkpt lat="45.112409284855076" lon="8.018173266895003"><ele>420.0</ele><time>2026-04-04T12:46:16Z</time></trkpt><trkpt lat="45.11252329648334" lon="8.018185327658278"><ele>419.0</ele><time>2026-04-04T12:46:17Z</time></trkpt><trkpt lat="45.11263484457486" lon="8.01824526248947"><ele>418.0</ele><time>2026-04-04T12:46:18Z</time></trkpt><trkpt lat="45.11272338416833" lon="8.018345200122052"><ele>418.0</ele><time>2026-04-04T12:46:19Z</time></trkpt><trkpt lat="45.11279920810935" lon="8.018433322223432"><ele>418.0</ele><time>2026-04-04T12:46:20Z</time></trkpt><trkpt lat="45.11288445756221" lon="8.018464734797831"><ele>418.0</ele><time>2026-04-04T12:46:21Z</time></trkpt><trkpt lat="45.11299509664672" lon="8.018458438526636"><ele>418.0</ele><time>2026-04-04T12:46:22Z</time></trkpt><trkpt lat="45.11310997390847" lon="8.018439248011024"><ele>418.0</ele><time>2026-04-04T12:46:23Z</time></trkpt><trkpt lat="45.113225797656206" lon="8.018461671508751"><ele>419.0</ele><time>2026-04-04T12:46:24Z</time></trkpt><trkpt lat="45.113329728947484" lon="8.018563708594698"><ele>420.0</ele><time>2026-04-04T12:46:25Z</time></trkpt><trkpt lat="45.113431898399696" lon="8.01868179726877"><ele>421.0</ele><time>2026-04-04T12:46:26Z</time></trkpt><trkpt lat="45.11354637899121" lon="8.018767665167811"><ele>422.0</ele><time>2026-04-04T12:46:27Z</time></trkpt><trkpt lat="45.11365146295592" lon="8.01886782157515"><ele>422.0</ele><time>2026-04-04T12:46:28Z</time></trkpt><trkpt lat="45.113746697474454" lon="8.018963646973285"><ele>422.0</ele><time>2026-04-04T12:46:29Z</time></trkpt><trkpt lat="45.11384395662405" lon="8.019024562552259"><ele>422.0</ele><time>2026-04-04T12:46:30Z</time></trkpt><trkpt lat="45.113953078537214" lon="8.019047689878718"><ele>422.0</ele><time>2026-04-04T12:46:31Z</time></trkpt><trkpt lat="45.11406738220307" lon="8.019030612191163"><ele>422.0</ele><time>2026-04-04T12:46:32Z</time></trkpt><trkpt lat="45.11417580850135" lon="8.018960050472167"><ele>420.75</ele><time>2026-04-04T12:46:33Z</time></trkpt><trkpt lat="45.11429168832217" lon="8.01891455339352"><ele>419.5</ele><time>2026-04-04T12:46:34Z</time></trkpt><trkpt lat="45.11438152044618" lon="8.01878399890814"><ele>418.25</ele><time>2026-04-04T12:46:35Z</time></trkpt><trkpt lat="45.11447711755788" lon="8.018662790600228"><ele>417.0</ele><time>2026-04-04T12:46:36Z</time></trkpt><trkpt lat="45.11459021704697" lon="8.018567101711277"><ele>417.0</ele><time>2026-04-04T12:46:37Z</time></trkpt><trkpt lat="45.11471328583927" lon="8.018502203931678"><ele>417.0</ele><time>2026-04-04T12:46:38Z</time></trkpt><trkpt lat="45.114851052202255" lon="8.018462286210006"><ele>417.0</ele><time>2026-04-04T12:46:39Z</time></trkpt><trkpt lat="45.11499054487115" lon="8.018438537209"><ele>417.0</ele><time>2026-04-04T12:46:40Z</time></trkpt><trkpt lat="45.11512535875337" lon="8.01847105203976"><ele>410.75</ele><time>2026-04-04T12:46:41Z</time></trkpt><trkpt lat="45.11525819289825" lon="8.01850787990387"><ele>404.5</ele><time>2026-04-04T12:46:42Z</time></trkpt><trkpt lat="45.11539589637566" lon="8.018518839103569"><ele>398.25</ele><time>2026-04-04T12:46:43Z</time></trkpt><trkpt lat="45.11552654961177" lon="8.01853245080546"><ele>392.0</ele><time>2026-04-04T12:46:44Z</time></trkpt><trkpt lat="45.115650359215735" lon="8.018507569324942"><ele>390.25</ele><time>2026-04-04T12:46:45Z</time></trkpt><trkpt lat="45.11576283844255" lon="8.018440582617224"><ele>388.5</ele><time>2026-04-04T12:46:46Z</time></trkpt><trkpt lat="45.1158697006678" lon="8.018330770688996"><ele>386.75</ele><time>2026-04-04T12:46:47Z</time></trkpt><trkpt lat="45.11598809231035" lon="8.018232417660803"><ele>385.0</ele><time>2026-04-04T12:46:48Z</time></trkpt><trkpt lat="45.11611372603714" lon="8.018136951863308"><ele>385.0</ele><time>2026-04-04T12:46:49Z</time></trkpt><trkpt lat="45.11625435371272" lon="8.018072042411413"><ele>385.0</ele><time>2026-04-04T12:46:50Z</time></trkpt><trkpt lat="45.1163984170739" lon="8.018024135929725"><ele>385.0</ele><time>2026-04-04T12:46:51Z</time></trkpt><trkpt lat="45.11654438415414" lon="8.017988054134149"><ele>385.0</ele><time>2026-04-04T12:46:52Z</time></trkpt><trkpt lat="45.116688877057975" lon="8.017952520367126"><ele>385.25</ele><time>2026-04-04T12:46:53Z</time></trkpt><trkpt lat="45.11682900556559" lon="8.017907594558874"><ele>385.5</ele><time>2026-04-04T12:46:54Z</time></trkpt><trkpt lat="45.116956092431295" lon="8.017832601787815"><ele>385.75</ele><time>2026-04-04T12:46:55Z</time></trkpt><trkpt lat="45.117071140585985" lon="8.017720100075662"><ele>386.0</ele><time>2026-04-04T12:46:56Z</time></trkpt><trkpt lat="45.11718126317715" lon="8.01760836570268"><ele>385.99999999999994</ele><time>2026-04-04T12:46:57Z</time></trkpt><trkpt lat="45.11726565682213" lon="8.017503792206155"><ele>386.0</ele><time>2026-04-04T12:46:58Z</time></trkpt><trkpt lat="45.11734015892384" lon="8.017458862391488"><ele>386.0</ele><time>2026-04-04T12:46:59Z</time></trkpt><trkpt lat="45.117405586679126" lon="8.017445050666302"><ele>386.0</ele><time>2026-04-04T12:47:00Z</time></trkpt><trkpt lat="45.11747252378696" lon="8.017461407374578"><ele>385.99999999999994</ele><time>2026-04-04T12:47:01Z</time></trkpt><trkpt lat="45.117526818465016" lon="8.017507141758403"><ele>386.0</ele><time>2026-04-04T12:47:02Z</time></trkpt><trkpt lat="45.11757498768457" lon="8.017575315500405"><ele>384.49999999999994</ele><time>2026-04-04T12:47:03Z</time></trkpt><trkpt lat="45.11761850080813" lon="8.017659092424543"><ele>383.0</ele><time>2026-04-04T12:47:04Z</time></trkpt><trkpt lat="45.11766682880899" lon="8.017753081150369"><ele>381.5</ele><time>2026-04-04T12:47:05Z</time></trkpt><trkpt lat="45.1177183949212" lon="8.017851568443971"><ele>380.0</ele><time>2026-04-04T12:47:06Z</time></trkpt><trkpt lat="45.11777534230937" lon="8.017958365204246"><ele>378.5</ele><time>2026-04-04T12:47:07Z</time></trkpt><trkpt lat="45.11783564422016" lon="8.018067178682374"><ele>377.0</ele><time>2026-04-04T12:47:08Z</time></trkpt><trkpt lat="45.11787767861314" lon="8.01819762983736"><ele>376.6</ele><time>2026-04-04T12:47:09Z</time></trkpt><trkpt lat="45.11788127132952" lon="8.018339877030972"><ele>376.20000000000005</ele><time>2026-04-04T12:47:10Z</time></trkpt><trkpt lat="45.117862088794524" lon="8.018481810011272"><ele>375.8</ele><time>2026-04-04T12:47:11Z</time></trkpt><trkpt lat="45.11782478090039" lon="8.018610526336056"><ele>375.4</ele><time>2026-04-04T12:47:12Z</time></trkpt><trkpt lat="45.11778226170894" lon="8.01871604694875"><ele>375.0</ele><time>2026-04-04T12:47:13Z</time></trkpt><trkpt lat="45.11773322982452" lon="8.018833110564058"><ele>375.0</ele><time>2026-04-04T12:47:15Z</time></trkpt><trkpt lat="45.11769749465912" lon="8.018967223743319"><ele>375.0</ele><time>2026-04-04T12:47:31Z</time></trkpt><trkpt lat="45.11767606308424" lon="8.019061505571992"><ele>375.0</ele><time>2026-04-04T12:47:32Z</time></trkpt><trkpt lat="45.11764040846258" lon="8.019171944448345"><ele>375.0</ele><time>2026-04-04T12:47:33Z</time></trkpt><trkpt lat="45.11760579668047" lon="8.019278028979148"><ele>375.0</ele><time>2026-04-04T12:47:34Z</time></trkpt><trkpt lat="45.117569080781394" lon="8.019399989868804"><ele>375.0</ele><time>2026-04-04T12:47:35Z</time></trkpt><trkpt lat="45.117531223277794" lon="8.01953428646396"><ele>375.0</ele><time>2026-04-04T12:47:36Z</time></trkpt><trkpt lat="45.117487196135514" lon="8.019676786923615"><ele>375.0</ele><time>2026-04-04T12:47:37Z</time></trkpt><trkpt lat="45.117437709837525" lon="8.019828447195724"><ele>375.0</ele><time>2026-04-04T12:47:38Z</time></trkpt><trkpt lat="45.117388914975166" lon="8.019976033701614"><ele>375.0</ele><time>2026-04-04T12:47:39Z</time></trkpt><trkpt lat="45.11734051632818" lon="8.020134420087048"><ele>375.0</ele><time>2026-04-04T12:47:40Z</time></trkpt><trkpt lat="45.117286984208576" lon="8.020293444686036"><ele>375.0</ele><time>2026-04-04T12:47:41Z</time></trkpt><trkpt lat="45.11722599820867" lon="8.020442375969555"><ele>375.0</ele><time>2026-04-04T12:47:42Z</time></trkpt><trkpt lat="45.1171479575227" lon="8.020573915336643"><ele>375.0</ele><time>2026-04-04T12:47:43Z</time></trkpt><trkpt lat="45.1170589695357" lon="8.020699591385211"><ele>377.5</ele><time>2026-04-04T12:47:44Z</time></trkpt><trkpt lat="45.11696622371045" lon="8.020818025474108"><ele>380.0</ele><time>2026-04-04T12:47:45Z</time></trkpt><trkpt lat="45.116884289100966" lon="8.02094831754495"><ele>382.5</ele><time>2026-04-04T12:47:46Z</time></trkpt><trkpt lat="45.116808328433834" lon="8.021106884081828"><ele>385.0</ele><time>2026-04-04T12:47:47Z</time></trkpt><trkpt lat="45.116737819103626" lon="8.02128602482849"><ele>385.0</ele><time>2026-04-04T12:47:48Z</time></trkpt><trkpt lat="45.116668190011836" lon="8.021479796628388"><ele>385.0</ele><time>2026-04-04T12:47:49Z</time></trkpt><trkpt lat="45.11659571630248" lon="8.021675900579687"><ele>385.0</ele><time>2026-04-04T12:47:50Z</time></trkpt><trkpt lat="45.116519491051136" lon="8.021874956256594"><ele>383.0</ele><time>2026-04-04T12:47:51Z</time></trkpt><trkpt lat="45.11643111160458" lon="8.022069262876729"><ele>381.0</ele><time>2026-04-04T12:47:52Z</time></trkpt><trkpt lat="45.11632908787656" lon="8.022257593315562"><ele>379.0</ele><time>2026-04-04T12:47:53Z</time></trkpt><trkpt lat="45.11621832440204" lon="8.02243938580299"><ele>383.66666666666663</ele><time>2026-04-04T12:47:54Z</time></trkpt><trkpt lat="45.11610184115391" lon="8.022606496982114"><ele>388.3333333333333</ele><time>2026-04-04T12:47:55Z</time></trkpt><trkpt lat="45.11599223635726" lon="8.022761305996022"><ele>393.0</ele><time>2026-04-04T12:47:56Z</time></trkpt><trkpt lat="45.11589220421457" lon="8.02290999407694"><ele>393.0</ele><time>2026-04-04T12:47:57Z</time></trkpt><trkpt lat="45.115806522076475" lon="8.023057329012635"><ele>393.0</ele><time>2026-04-04T12:47:58Z</time></trkpt><trkpt lat="45.11573273162611" lon="8.023228346962846"><ele>393.0</ele><time>2026-04-04T12:47:59Z</time></trkpt><trkpt lat="45.1156757116119" lon="8.023399920357138"><ele>393.0</ele><time>2026-04-04T12:48:00Z</time></trkpt><trkpt lat="45.115623278062344" lon="8.023555805014242"><ele>393.79999999999995</ele><time>2026-04-04T12:48:01Z</time></trkpt><trkpt lat="45.11557756176906" lon="8.023701745944244"><ele>394.6</ele><time>2026-04-04T12:48:02Z</time></trkpt><trkpt lat="45.11553435491861" lon="8.023838599912013"><ele>395.4</ele><time>2026-04-04T12:48:03Z</time></trkpt><trkpt lat="45.115490657086" lon="8.023960939927692"><ele>396.20000000000005</ele><time>2026-04-04T12:48:04Z</time></trkpt><trkpt lat="45.11545049051383" lon="8.024053326210458"><ele>397.0</ele><time>2026-04-04T12:48:05Z</time></trkpt><trkpt lat="45.115437114929776" lon="8.02422404476366"><ele>397.00000000000006</ele><time>2026-04-04T12:48:07Z</time></trkpt><trkpt lat="45.11544246521281" lon="8.02432031059174"><ele>397.0</ele><time>2026-04-04T12:48:08Z</time></trkpt><trkpt lat="45.11552692167297" lon="8.024381209608839"><ele>397.0</ele><time>2026-04-04T12:48:09Z</time></trkpt><trkpt lat="45.11559910949703" lon="8.024421602284333"><ele>397.0</ele><time>2026-04-04T12:48:10Z</time></trkpt><trkpt lat="45.11568086073879" lon="8.024431013522499"><ele>397.00000000000006</ele><time>2026-04-04T12:48:11Z</time></trkpt><trkpt lat="45.11577030412517" lon="8.024432680205011"><ele>397.0</ele><time>2026-04-04T12:48:12Z</time></trkpt><trkpt lat="45.1158736940611" lon="8.02443767168242"><ele>399.5</ele><time>2026-04-04T12:48:13Z</time></trkpt><trkpt lat="45.115993278691846" lon="8.024449069398543"><ele>402.0</ele><time>2026-04-04T12:48:14Z</time></trkpt><trkpt lat="45.11611776449625" lon="8.024459323319562"><ele>404.5</ele><time>2026-04-04T12:48:15Z</time></trkpt><trkpt lat="45.116255115555255" lon="8.024475329619007"><ele>407.0</ele><time>2026-04-04T12:48:16Z</time></trkpt><trkpt lat="45.11639723520379" lon="8.024495879795563"><ele>407.0</ele><time>2026-04-04T12:48:17Z</time></trkpt><trkpt lat="45.116539779598305" lon="8.024524394634591"><ele>407.0</ele><time>2026-04-04T12:48:18Z</time></trkpt><trkpt lat="45.116684698236114" lon="8.024542935564947"><ele>407.0</ele><time>2026-04-04T12:48:19Z</time></trkpt><trkpt lat="45.11682530120441" lon="8.024558765316655"><ele>407.0</ele><time>2026-04-04T12:48:20Z</time></trkpt><trkpt lat="45.11696450748741" lon="8.024542428667445"><ele>408.25</ele><time>2026-04-04T12:48:21Z</time></trkpt><trkpt lat="45.117100938899306" lon="8.024549417236804"><ele>409.5</ele><time>2026-04-04T12:48:22Z</time></trkpt><trkpt lat="45.11723876771859" lon="8.024578677529105"><ele>410.75</ele><time>2026-04-04T12:48:23Z</time></trkpt><trkpt lat="45.11738081056363" lon="8.024629694266423"><ele>412.0</ele><time>2026-04-04T12:48:24Z</time></trkpt><trkpt lat="45.117517850094195" lon="8.024693613817384"><ele>408.75</ele><time>2026-04-04T12:48:25Z</time></trkpt><trkpt lat="45.11764576186432" lon="8.024771877662285"><ele>405.5</ele><time>2026-04-04T12:48:26Z</time></trkpt><trkpt lat="45.11776715873568" lon="8.02485702964959"><ele>402.25</ele><time>2026-04-04T12:48:27Z</time></trkpt><trkpt lat="45.11786908353546" lon="8.0249605548342"><ele>399.0</ele><time>2026-04-04T12:48:28Z</time></trkpt><trkpt lat="45.11793745741511" lon="8.025068742020958"><ele>395.4</ele><time>2026-04-04T12:48:29Z</time></trkpt><trkpt lat="45.11797805125161" lon="8.025191332665925"><ele>391.79999999999995</ele><time>2026-04-04T12:48:30Z</time></trkpt><trkpt lat="45.11799065883127" lon="8.025341360241558"><ele>388.20000000000005</ele><time>2026-04-04T12:48:31Z</time></trkpt><trkpt lat="45.117972819690785" lon="8.02550673286818"><ele>384.6</ele><time>2026-04-04T12:48:32Z</time></trkpt><trkpt lat="45.11796316776458" lon="8.025669920271563"><ele>381.0</ele><time>2026-04-04T12:48:33Z</time></trkpt><trkpt lat="45.11799081489778" lon="8.025818230746086"><ele>382.75</ele><time>2026-04-04T12:48:34Z</time></trkpt><trkpt lat="45.118048462126396" lon="8.025968782287311"><ele>384.5</ele><time>2026-04-04T12:48:35Z</time></trkpt><trkpt lat="45.11812455055011" lon="8.026118130572979"><ele>386.25</ele><time>2026-04-04T12:48:36Z</time></trkpt><trkpt lat="45.11820449991421" lon="8.026273761976128"><ele>388.0</ele><time>2026-04-04T12:48:37Z</time></trkpt><trkpt lat="45.11826955741382" lon="8.026453267600393"><ele>388.0</ele><time>2026-04-04T12:48:38Z</time></trkpt><trkpt lat="45.11834388957537" lon="8.026611311641517"><ele>388.0</ele><time>2026-04-04T12:48:39Z</time></trkpt><trkpt lat="45.11839787496061" lon="8.02676817670823"><ele>388.0</ele><time>2026-04-04T12:48:40Z</time></trkpt><trkpt lat="45.11845138670505" lon="8.02688978156599"><ele>388.0</ele><time>2026-04-04T12:48:41Z</time></trkpt><trkpt lat="45.11851902895574" lon="8.02696241643736"><ele>388.0</ele><time>2026-04-04T12:48:42Z</time></trkpt><trkpt lat="45.118611877425906" lon="8.026985753678664"><ele>386.2</ele><time>2026-04-04T12:48:43Z</time></trkpt><trkpt lat="45.11871707484995" lon="8.027018140062614"><ele>384.4</ele><time>2026-04-04T12:48:44Z</time></trkpt><trkpt lat="45.11882510444322" lon="8.027065279988651"><ele>382.59999999999997</ele><time>2026-04-04T12:48:45Z</time></trkpt><trkpt lat="45.11892840222076" lon="8.027104681635134"><ele>380.79999999999995</ele><time>2026-04-04T12:48:46Z</time></trkpt><trkpt lat="45.11902551730922" lon="8.027136276745122"><ele>379.0</ele><time>2026-04-04T12:48:47Z</time></trkpt><trkpt lat="45.119141280553045" lon="8.027098533555241"><ele>379.0</ele><time>2026-04-04T12:48:48Z</time></trkpt><trkpt lat="45.11926501863207" lon="8.027048934453223"><ele>379.0</ele><time>2026-04-04T12:48:49Z</time></trkpt><trkpt lat="45.119393102116724" lon="8.027024427419413"><ele>379.0</ele><time>2026-04-04T12:48:50Z</time></trkpt><trkpt lat="45.1195259415869" lon="8.027040107701595"><ele>379.0</ele><time>2026-04-04T12:48:51Z</time></trkpt><trkpt lat="45.11965258683708" lon="8.027089785713121"><ele>379.0</ele><time>2026-04-04T12:48:52Z</time></trkpt><trkpt lat="45.11977242064946" lon="8.027176658761162"><ele>379.0</ele><time>2026-04-04T12:48:53Z</time></trkpt><trkpt lat="45.119878450984686" lon="8.027298609149847"><ele>379.0</ele><time>2026-04-04T12:48:54Z</time></trkpt><trkpt lat="45.11996681662332" lon="8.027451327574065"><ele>379.0</ele><time>2026-04-04T12:48:55Z</time></trkpt><trkpt lat="45.12008300155722" lon="8.027542280334673"><ele>376.0</ele><time>2026-04-04T12:48:56Z</time></trkpt><trkpt lat="45.120194093763686" lon="8.027638973054401"><ele>373.0</ele><time>2026-04-04T12:48:57Z</time></trkpt><trkpt lat="45.12029428116174" lon="8.027744188881178"><ele>370.0</ele><time>2026-04-04T12:48:58Z</time></trkpt><trkpt lat="45.120374377925216" lon="8.027873334180342"><ele>367.0</ele><time>2026-04-04T12:48:59Z</time></trkpt><trkpt lat="45.12042558355525" lon="8.028026433400417"><ele>367.0</ele><time>2026-04-04T12:49:00Z</time></trkpt><trkpt lat="45.12045012707039" lon="8.02819359593947"><ele>367.0</ele><time>2026-04-04T12:49:01Z</time></trkpt><trkpt lat="45.12045982612145" lon="8.028335834840096"><ele>367.0</ele><time>2026-04-04T12:49:02Z</time></trkpt><trkpt lat="45.12051273063858" lon="8.028431063680056"><ele>367.0</ele><time>2026-04-04T12:49:03Z</time></trkpt><trkpt lat="45.12058535479448" lon="8.028479635073838"><ele>367.0</ele><time>2026-04-04T12:49:04Z</time></trkpt><trkpt lat="45.120681454470315" lon="8.028474211109351"><ele>365.20000000000005</ele><time>2026-04-04T12:49:05Z</time></trkpt><trkpt lat="45.12077966085864" lon="8.0284489275681"><ele>363.4</ele><time>2026-04-04T12:49:06Z</time></trkpt><trkpt lat="45.120888389949585" lon="8.028424725416567"><ele>361.6</ele><time>2026-04-04T12:49:07Z</time></trkpt><trkpt lat="45.120994979108126" lon="8.028405440216956"><ele>359.79999999999995</ele><time>2026-04-04T12:49:08Z</time></trkpt><trkpt lat="45.12108724476195" lon="8.028408289612523"><ele>358.0</ele><time>2026-04-04T12:49:09Z</time></trkpt><trkpt lat="45.1211809892809" lon="8.028435227584815"><ele>358.0</ele><time>2026-04-04T12:49:10Z</time></trkpt><trkpt lat="45.12124469176135" lon="8.02856277474205"><ele>358.0</ele><time>2026-04-04T12:49:11Z</time></trkpt><trkpt lat="45.1213105190337" lon="8.028684631305646"><ele>358.0</ele><time>2026-04-04T12:49:12Z</time></trkpt><trkpt lat="45.121337383925585" lon="8.02882887558119"><ele>358.0</ele><time>2026-04-04T12:49:13Z</time></trkpt><trkpt lat="45.121335525239544" lon="8.028976289445206"><ele>358.0</ele><time>2026-04-04T12:49:14Z</time></trkpt><trkpt lat="45.12132713885612" lon="8.02911657199954"><ele>354.59999999999997</ele><time>2026-04-04T12:49:15Z</time></trkpt><trkpt lat="45.121310054363406" lon="8.029245010764791"><ele>351.2</ele><time>2026-04-04T12:49:16Z</time></trkpt><trkpt lat="45.121367286407036" lon="8.029386935746517"><ele>347.8</ele><time>2026-04-04T12:49:17Z</time></trkpt><trkpt lat="45.121371445486744" lon="8.029525245264985"><ele>344.4</ele><time>2026-04-04T12:49:18Z</time></trkpt><trkpt lat="45.12136446408625" lon="8.029652399360659"><ele>341.0</ele><time>2026-04-04T12:49:19Z</time></trkpt><trkpt lat="45.12129343336112" lon="8.029737892150315"><ele>341.0</ele><time>2026-04-04T12:49:20Z</time></trkpt><trkpt lat="45.12123501147596" lon="8.029867517686318"><ele>341.0</ele><time>2026-04-04T12:49:21Z</time></trkpt><trkpt lat="45.12118721296216" lon="8.030002629310253"><ele>341.0</ele><time>2026-04-04T12:49:22Z</time></trkpt><trkpt lat="45.12116776995643" lon="8.030156885376451"><ele>341.0</ele><time>2026-04-04T12:49:23Z</time></trkpt><trkpt lat="45.12114027940981" lon="8.030297957057158"><ele>341.0</ele><time>2026-04-04T12:49:24Z</time></trkpt><trkpt lat="45.121121278607525" lon="8.030420867673252"><ele>339.5</ele><time>2026-04-04T12:49:25Z</time></trkpt><trkpt lat="45.121113124149744" lon="8.030515347207528"><ele>338.0</ele><time>2026-04-04T12:49:26Z</time></trkpt><trkpt lat="45.12117269538722" lon="8.030661711361553"><ele>336.5</ele><time>2026-04-04T12:49:28Z</time></trkpt><trkpt lat="45.12123352865736" lon="8.030703007678044"><ele>335.0</ele><time>2026-04-04T12:49:29Z</time></trkpt><trkpt lat="45.12131241070656" lon="8.030715321495395"><ele>333.5</ele><time>2026-04-04T12:49:30Z</time></trkpt><trkpt lat="45.12141033864862" lon="8.03073149289221"><ele>332.0</ele><time>2026-04-04T12:49:31Z</time></trkpt><trkpt lat="45.121506605861946" lon="8.030762820313553"><ele>333.6666666666667</ele><time>2026-04-04T12:49:32Z</time></trkpt><trkpt lat="45.12157912017307" lon="8.030853745817263"><ele>335.33333333333337</ele><time>2026-04-04T12:49:33Z</time></trkpt><trkpt lat="45.121647576625655" lon="8.030918426828947"><ele>337.0</ele><time>2026-04-04T12:49:34Z</time></trkpt><trkpt lat="45.121716902860584" lon="8.030941689309131"><ele>338.6666666666667</ele><time>2026-04-04T12:49:35Z</time></trkpt><trkpt lat="45.121793690031026" lon="8.030933198401529"><ele>340.3333333333333</ele><time>2026-04-04T12:49:36Z</time></trkpt><trkpt lat="45.121866394384384" lon="8.03086035377331"><ele>342.0</ele><time>2026-04-04T12:49:37Z</time></trkpt><trkpt lat="45.12193747317922" lon="8.030781932610351"><ele>345.40000000000003</ele><time>2026-04-04T12:49:38Z</time></trkpt><trkpt lat="45.12202406807493" lon="8.030726500244526"><ele>348.8</ele><time>2026-04-04T12:49:39Z</time></trkpt><trkpt lat="45.12212069258194" lon="8.030714044217406"><ele>352.2</ele><time>2026-04-04T12:49:40Z</time></trkpt><trkpt lat="45.12221077048144" lon="8.030671585567154"><ele>355.6</ele><time>2026-04-04T12:49:41Z</time></trkpt><trkpt lat="45.1222907839673" lon="8.030587070971457"><ele>359.0</ele><time>2026-04-04T12:49:42Z</time></trkpt><trkpt lat="45.122386133082756" lon="8.030525134754065"><ele>359.0</ele><time>2026-04-04T12:49:43Z</time></trkpt><trkpt lat="45.12247314551507" lon="8.030450821327332"><ele>359.0</ele><time>2026-04-04T12:49:44Z</time></trkpt><trkpt lat="45.12256829596632" lon="8.030430123513055"><ele>359.0</ele><time>2026-04-04T12:49:45Z</time></trkpt><trkpt lat="45.122663501950846" lon="8.03042243052901"><ele>359.0</ele><time>2026-04-04T12:49:46Z</time></trkpt><trkpt lat="45.12275064053045" lon="8.03044367329331"><ele>359.0</ele><time>2026-04-04T12:49:47Z</time></trkpt><trkpt lat="45.12281508993312" lon="8.03053967208048"><ele>359.0</ele><time>2026-04-04T12:49:48Z</time></trkpt><trkpt lat="45.12284154185434" lon="8.030671139398082"><ele>359.0</ele><time>2026-04-04T12:49:49Z</time></trkpt><trkpt lat="45.12286144210572" lon="8.030838574338068"><ele>359.0</ele><time>2026-04-04T12:49:50Z</time></trkpt><trkpt lat="45.12290229304466" lon="8.031034679411123"><ele>359.0</ele><time>2026-04-04T12:49:51Z</time></trkpt><trkpt lat="45.1229573640433" lon="8.031234325175665"><ele>352.5</ele><time>2026-04-04T12:49:52Z</time></trkpt><trkpt lat="45.12302961227178" lon="8.03141126081355"><ele>346.0</ele><time>2026-04-04T12:49:53Z</time></trkpt><trkpt lat="45.123079588511615" lon="8.031578202403978"><ele>339.5</ele><time>2026-04-04T12:49:54Z</time></trkpt><trkpt lat="45.123119352810285" lon="8.031728832696336"><ele>333.0</ele><time>2026-04-04T12:49:55Z</time></trkpt><trkpt lat="45.12317132826688" lon="8.031849202778833"><ele>333.2</ele><time>2026-04-04T12:49:56Z</time></trkpt><trkpt lat="45.123246829541316" lon="8.031946595969787"><ele>333.4</ele><time>2026-04-04T12:49:57Z</time></trkpt><trkpt lat="45.12334662338172" lon="8.03202353362449"><ele>333.59999999999997</ele><time>2026-04-04T12:49:58Z</time></trkpt><trkpt lat="45.123441932611094" lon="8.032112719424852"><ele>333.79999999999995</ele><time>2026-04-04T12:49:59Z</time></trkpt><trkpt lat="45.12347372352485" lon="8.032265698732704"><ele>334.0</ele><time>2026-04-04T12:50:00Z</time></trkpt><trkpt lat="45.12351376728123" lon="8.032425526729813"><ele>329.5</ele><time>2026-04-04T12:50:01Z</time></trkpt><trkpt lat="45.12354101428877" lon="8.032599112054417"><ele>325.0</ele><time>2026-04-04T12:50:02Z</time></trkpt><trkpt lat="45.12356175020917" lon="8.032769556293692"><ele>320.5</ele><time>2026-04-04T12:50:03Z</time></trkpt><trkpt lat="45.12358332654111" lon="8.03293885805297"><ele>316.0</ele><time>2026-04-04T12:50:04Z</time></trkpt><trkpt lat="45.12362112268748" lon="8.033075070152181"><ele>316.0</ele><time>2026-04-04T12:50:05Z</time></trkpt><trkpt lat="45.12364716713682" lon="8.033194731720986"><ele>316.0</ele><time>2026-04-04T12:50:06Z</time></trkpt><trkpt lat="45.12370076569026" lon="8.033269700551742"><ele>316.0</ele><time>2026-04-04T12:50:07Z</time></trkpt><trkpt lat="45.12377097696933" lon="8.033286380010429"><ele>316.0</ele><time>2026-04-04T12:50:08Z</time></trkpt><trkpt lat="45.12385052992958" lon="8.033241801838752"><ele>316.0</ele><time>2026-04-04T12:50:09Z</time></trkpt><trkpt lat="45.12391913334573" lon="8.033168858914747"><ele>316.0</ele><time>2026-04-04T12:50:10Z</time></trkpt><trkpt lat="45.1239853902365" lon="8.033118329900077"><ele>319.0</ele><time>2026-04-04T12:50:11Z</time></trkpt><trkpt lat="45.12408293448843" lon="8.033186530130791"><ele>322.0</ele><time>2026-04-04T12:50:13Z</time></trkpt><trkpt lat="45.124076273923734" lon="8.033279254046565"><ele>325.0</ele><time>2026-04-04T12:50:14Z</time></trkpt><trkpt lat="45.12401193746449" lon="8.033346588682564"><ele>328.0</ele><time>2026-04-04T12:50:15Z</time></trkpt><trkpt lat="45.12391770114054" lon="8.033342256740415"><ele>331.0</ele><time>2026-04-04T12:50:16Z</time></trkpt><trkpt lat="45.12381773479304" lon="8.033368807653732"><ele>328.5</ele><time>2026-04-04T12:50:17Z</time></trkpt><trkpt lat="45.12372775368985" lon="8.03338599044843"><ele>326.0</ele><time>2026-04-04T12:50:18Z</time></trkpt><trkpt lat="45.12364571729535" lon="8.033360407859037"><ele>323.5</ele><time>2026-04-04T12:50:19Z</time></trkpt><trkpt lat="45.123582376385755" lon="8.03328629369035"><ele>321.0</ele><time>2026-04-04T12:50:20Z</time></trkpt><trkpt lat="45.12354295327956" lon="8.03318684103757"><ele>318.5</ele><time>2026-04-04T12:50:21Z</time></trkpt><trkpt lat="45.12344489193649" lon="8.033203714546095"><ele>316.0</ele><time>2026-04-04T12:50:23Z</time></trkpt><trkpt lat="45.123435623006266" lon="8.033297526266182"><ele>313.0</ele><time>2026-04-04T12:50:24Z</time></trkpt><trkpt lat="45.12349202291403" lon="8.033423893427607"><ele>310.0</ele><time>2026-04-04T12:50:25Z</time></trkpt><trkpt lat="45.12355711248922" lon="8.033515490034851"><ele>307.0</ele><time>2026-04-04T12:50:26Z</time></trkpt><trkpt lat="45.123633194661444" lon="8.033586332474355"><ele>304.0</ele><time>2026-04-04T12:50:27Z</time></trkpt><trkpt lat="45.12372160375015" lon="8.033623237252506"><ele>301.0</ele><time>2026-04-04T12:50:28Z</time></trkpt><trkpt lat="45.123817117308434" lon="8.033629667490624"><ele>301.0</ele><time>2026-04-04T12:50:29Z</time></trkpt><trkpt lat="45.1239252843281" lon="8.033596420987019"><ele>301.0</ele><time>2026-04-04T12:50:30Z</time></trkpt><trkpt lat="45.12402179630881" lon="8.033616709561427"><ele>301.0</ele><time>2026-04-04T12:50:31Z</time></trkpt><trkpt lat="45.12412143560391" lon="8.033669517790369"><ele>301.0</ele><time>2026-04-04T12:50:32Z</time></trkpt><trkpt lat="45.12420163749112" lon="8.033765225786219"><ele>301.0</ele><time>2026-04-04T12:50:33Z</time></trkpt><trkpt lat="45.124272223811126" lon="8.033880994886589"><ele>299.75</ele><time>2026-04-04T12:50:34Z</time></trkpt><trkpt lat="45.12434123319065" lon="8.034001995051174"><ele>298.5</ele><time>2026-04-04T12:50:35Z</time></trkpt><trkpt lat="45.124370568095564" lon="8.034159592191017"><ele>297.25</ele><time>2026-04-04T12:50:36Z</time></trkpt><trkpt lat="45.124353000720774" lon="8.034322294098214"><ele>296.0</ele><time>2026-04-04T12:50:37Z</time></trkpt><trkpt lat="45.124352107436025" lon="8.034492177430861"><ele>296.0</ele><time>2026-04-04T12:50:38Z</time></trkpt><trkpt lat="45.12436219144055" lon="8.03466048521283"><ele>296.0</ele><time>2026-04-04T12:50:39Z</time></trkpt><trkpt lat="45.124362614159686" lon="8.034817061169857"><ele>296.0</ele><time>2026-04-04T12:50:40Z</time></trkpt><trkpt lat="45.12437930495721" lon="8.034948293108929"><ele>296.0</ele><time>2026-04-04T12:50:41Z</time></trkpt><trkpt lat="45.12441461268015" lon="8.035047870036529"><ele>296.0</ele><time>2026-04-04T12:50:42Z</time></trkpt><trkpt lat="45.12443428088988" lon="8.035133676712213"><ele>296.0</ele><time>2026-04-04T12:50:43Z</time></trkpt><trkpt lat="45.12444619845506" lon="8.035228736082455"><ele>296.0</ele><time>2026-04-04T12:50:45Z</time></trkpt><trkpt lat="45.12435395669391" lon="8.035221570150366"><ele>296.0</ele><time>2026-04-04T12:50:47Z</time></trkpt><trkpt lat="45.12431876548703" lon="8.035120928653143"><ele>296.0</ele><time>2026-04-04T12:50:48Z</time></trkpt><trkpt lat="45.1242695192019" lon="8.035027840211994"><ele>296.0</ele><time>2026-04-04T12:50:49Z</time></trkpt><trkpt lat="45.12423428986309" lon="8.034903480794169"><ele>296.0</ele><time>2026-04-04T12:50:50Z</time></trkpt><trkpt lat="45.12419994619973" lon="8.034768164777354"><ele>296.0</ele><time>2026-04-04T12:50:51Z</time></trkpt><trkpt lat="45.12416545502767" lon="8.034627317271212"><ele>296.0</ele><time>2026-04-04T12:50:52Z</time></trkpt><trkpt lat="45.12411534114939" lon="8.034494657713028"><ele>296.0</ele><time>2026-04-04T12:50:53Z</time></trkpt><trkpt lat="45.1240389977599" lon="8.03439321822836"><ele>296.0</ele><time>2026-04-04T12:50:54Z</time></trkpt><trkpt lat="45.12394300037823" lon="8.034323854469653"><ele>296.0</ele><time>2026-04-04T12:50:55Z</time></trkpt><trkpt lat="45.123834012747245" lon="8.03427937825298"><ele>292.5</ele><time>2026-04-04T12:50:56Z</time></trkpt><trkpt lat="45.12372121914036" lon="8.034242800626835"><ele>289.0</ele><time>2026-04-04T12:50:57Z</time></trkpt><trkpt lat="45.12360615542625" lon="8.034210686540117"><ele>285.5</ele><time>2026-04-04T12:50:58Z</time></trkpt><trkpt lat="45.12349206508352" lon="8.03419486298614"><ele>282.0</ele><time>2026-04-04T12:50:59Z</time></trkpt><trkpt lat="45.12337729396561" lon="8.034191340597978"><ele>282.0</ele><time>2026-04-04T12:51:00Z</time></trkpt><trkpt lat="45.12326260040767" lon="8.034180486507616"><ele>282.0</ele><time>2026-04-04T12:51:01Z</time></trkpt><trkpt lat="45.12315401457633" lon="8.034118189384786"><ele>282.0</ele><time>2026-04-04T12:51:02Z</time></trkpt><trkpt lat="45.123037925474264" lon="8.034049348253847"><ele>282.0</ele><time>2026-04-04T12:51:03Z</time></trkpt><trkpt lat="45.12291096505962" lon="8.033992575829801"><ele>281.0</ele><time>2026-04-04T12:51:04Z</time></trkpt><trkpt lat="45.122786142336615" lon="8.033918623396923"><ele>280.0</ele><time>2026-04-04T12:51:05Z</time></trkpt><trkpt lat="45.12266846403069" lon="8.033851552888196"><ele>279.0</ele><time>2026-04-04T12:51:06Z</time></trkpt><trkpt lat="45.12255706420098" lon="8.03378219142372"><ele>278.0</ele><time>2026-04-04T12:51:07Z</time></trkpt><trkpt lat="45.122469419699335" lon="8.033720688267955"><ele>276.8</ele><time>2026-04-04T12:51:08Z</time></trkpt><trkpt lat="45.12239501238619" lon="8.033705748173755"><ele>275.6</ele><time>2026-04-04T12:51:09Z</time></trkpt><trkpt lat="45.12229435085644" lon="8.033816616868153"><ele>274.4</ele><time>2026-04-04T12:51:11Z</time></trkpt><trkpt lat="45.12227775121987" lon="8.033929994692958"><ele>273.2</ele><time>2026-04-04T12:51:12Z</time></trkpt><trkpt lat="45.12229308454775" lon="8.034054209696404"><ele>272.0</ele><time>2026-04-04T12:51:13Z</time></trkpt><trkpt lat="45.12233656615589" lon="8.034166871954069"><ele>271.5</ele><time>2026-04-04T12:51:14Z</time></trkpt><trkpt lat="45.12240935015186" lon="8.03425744333326"><ele>271.0</ele><time>2026-04-04T12:51:15Z</time></trkpt><trkpt lat="45.12251169536965" lon="8.034320686847991"><ele>270.5</ele><time>2026-04-04T12:51:16Z</time></trkpt><trkpt lat="45.12262752701146" lon="8.034378993471814"><ele>270.0</ele><time>2026-04-04T12:51:17Z</time></trkpt><trkpt lat="45.12272403405157" lon="8.034481593237649"><ele>270.0</ele><time>2026-04-04T12:51:18Z</time></trkpt><trkpt lat="45.12282152100786" lon="8.034602168311046"><ele>270.0</ele><time>2026-04-04T12:51:19Z</time></trkpt><trkpt lat="45.12291133057582" lon="8.034740518471938"><ele>270.0</ele><time>2026-04-04T12:51:20Z</time></trkpt><trkpt lat="45.12299953716556" lon="8.034870397073515"><ele>270.0</ele><time>2026-04-04T12:51:21Z</time></trkpt><trkpt lat="45.1230901592099" lon="8.034989672116822"><ele>268.2</ele><time>2026-04-04T12:51:22Z</time></trkpt><trkpt lat="45.12316744459922" lon="8.035098560870528"><ele>266.4</ele><time>2026-04-04T12:51:23Z</time></trkpt><trkpt lat="45.12321127007817" lon="8.03521529154465"><ele>264.6</ele><time>2026-04-04T12:51:24Z</time></trkpt><trkpt lat="45.123215879175795" lon="8.035330921635179"><ele>262.8</ele><time>2026-04-04T12:51:25Z</time></trkpt><trkpt lat="45.12316446171603" lon="8.035435951426289"><ele>261.0</ele><time>2026-04-04T12:51:26Z</time></trkpt><trkpt lat="45.123153645965054" lon="8.035572325205358"><ele>261.0</ele><time>2026-04-04T12:51:27Z</time></trkpt><trkpt lat="45.12312744087311" lon="8.035701931691392"><ele>261.0</ele><time>2026-04-04T12:51:28Z</time></trkpt><trkpt lat="45.12315490714403" lon="8.035845316544664"><ele>261.0</ele><time>2026-04-04T12:51:29Z</time></trkpt><trkpt lat="45.12322454118686" lon="8.035982542706625"><ele>261.0</ele><time>2026-04-04T12:51:30Z</time></trkpt><trkpt lat="45.12332127313531" lon="8.036105224250988"><ele>261.0</ele><time>2026-04-04T12:51:31Z</time></trkpt><trkpt lat="45.123430920909314" lon="8.036222910827032"><ele>260.5</ele><time>2026-04-04T12:51:32Z</time></trkpt><trkpt lat="45.12354094560124" lon="8.036339884806074"><ele>260.0</ele><time>2026-04-04T12:51:33Z</time></trkpt><trkpt lat="45.12362259507156" lon="8.036492231722445"><ele>259.5</ele><time>2026-04-04T12:51:34Z</time></trkpt><trkpt lat="45.123715501179454" lon="8.03662595012199"><ele>259.0</ele><time>2026-04-04T12:51:35Z</time></trkpt><trkpt lat="45.12382946441699" lon="8.036713655037024"><ele>259.5</ele><time>2026-04-04T12:51:36Z</time></trkpt><trkpt lat="45.12394503951326" lon="8.036810428443369"><ele>260.0</ele><time>2026-04-04T12:51:37Z</time></trkpt><trkpt lat="45.124048883079354" lon="8.036927036359524"><ele>260.5</ele><time>2026-04-04T12:51:38Z</time></trkpt><trkpt lat="45.124166322839926" lon="8.037026241601138"><ele>261.0</ele><time>2026-04-04T12:51:39Z</time></trkpt><trkpt lat="45.12426956367687" lon="8.037159163985207"><ele>261.0</ele><time>2026-04-04T12:51:40Z</time></trkpt><trkpt lat="45.12436924542752" lon="8.0372880533997"><ele>261.0</ele><time>2026-04-04T12:51:41Z</time></trkpt><trkpt lat="45.12446615066502" lon="8.03741641350869"><ele>261.0</ele><time>2026-04-04T12:51:42Z</time></trkpt><trkpt lat="45.12455910718683" lon="8.037526612426056"><ele>261.0</ele><time>2026-04-04T12:51:43Z</time></trkpt><trkpt lat="45.124646004513096" lon="8.037613130614844"><ele>258.0</ele><time>2026-04-04T12:51:44Z</time></trkpt><trkpt lat="45.124745548418666" lon="8.037645198766729"><ele>255.0</ele><time>2026-04-04T12:51:45Z</time></trkpt><trkpt lat="45.12486217612482" lon="8.037631430850148"><ele>252.0</ele><time>2026-04-04T12:51:46Z</time></trkpt><trkpt lat="45.12498758322539" lon="8.037593161925061"><ele>249.0</ele><time>2026-04-04T12:51:47Z</time></trkpt><trkpt lat="45.125115707938946" lon="8.03759340858552"><ele>247.25</ele><time>2026-04-04T12:51:48Z</time></trkpt><trkpt lat="45.12524905806519" lon="8.037582345169012"><ele>245.5</ele><time>2026-04-04T12:51:49Z</time></trkpt><trkpt lat="45.12537821844866" lon="8.037598273462256"><ele>243.75</ele><time>2026-04-04T12:51:50Z</time></trkpt><trkpt lat="45.12551587930134" lon="8.037630253368595"><ele>242.0</ele><time>2026-04-04T12:51:51Z</time></trkpt><trkpt lat="45.125659473969044" lon="8.037664250754077"><ele>241.5</ele><time>2026-04-04T12:51:52Z</time></trkpt><trkpt lat="45.125810244237236" lon="8.037699946999124"><ele>241.0</ele><time>2026-04-04T12:51:53Z</time></trkpt><trkpt lat="45.12595614885623" lon="8.037733121345344"><ele>240.5</ele><time>2026-04-04T12:51:54Z</time></trkpt><trkpt lat="45.12610294076129" lon="8.03776539326792"><ele>240.0</ele><time>2026-04-04T12:51:55Z</time></trkpt><trkpt lat="45.1262486942574" lon="8.037775300179756"><ele>240.0</ele><time>2026-04-04T12:51:56Z</time></trkpt><trkpt lat="45.12638132471119" lon="8.037814549979247"><ele>240.0</ele><time>2026-04-04T12:51:57Z</time></trkpt><trkpt lat="45.12651180727147" lon="8.037846091728904"><ele>240.0</ele><time>2026-04-04T12:51:58Z</time></trkpt><trkpt lat="45.12663184723648" lon="8.037895508413012"><ele>240.0</ele><time>2026-04-04T12:51:59Z</time></trkpt><trkpt lat="45.12675266065474" lon="8.03794718525717"><ele>240.25</ele><time>2026-04-04T12:52:00Z</time></trkpt><trkpt lat="45.12687259562077" lon="8.038030581499179"><ele>240.5</ele><time>2026-04-04T12:52:01Z</time></trkpt><trkpt lat="45.126994734697156" lon="8.038147149520716"><ele>240.75</ele><time>2026-04-04T12:52:02Z</time></trkpt><trkpt lat="45.127116970364" lon="8.038278588433586"><ele>241.0</ele><time>2026-04-04T12:52:03Z</time></trkpt><trkpt lat="45.127240594843904" lon="8.038406803897267"><ele>241.0</ele><time>2026-04-04T12:52:04Z</time></trkpt><trkpt lat="45.127365998966184" lon="8.03853447555348"><ele>241.0</ele><time>2026-04-04T12:52:05Z</time></trkpt><trkpt lat="45.127488127043364" lon="8.038659059620231"><ele>241.0</ele><time>2026-04-04T12:52:06Z</time></trkpt><trkpt lat="45.12760672918053" lon="8.038776042010761"><ele>241.0</ele><time>2026-04-04T12:52:07Z</time></trkpt><trkpt lat="45.12773405298853" lon="8.038872412815978"><ele>242.66666666666666</ele><time>2026-04-04T12:52:08Z</time></trkpt><trkpt lat="45.127877835292466" lon="8.03893087029828"><ele>244.33333333333331</ele><time>2026-04-04T12:52:09Z</time></trkpt><trkpt lat="45.12803009800044" lon="8.038951718392926"><ele>246.0</ele><time>2026-04-04T12:52:10Z</time></trkpt><trkpt lat="45.12819026986565" lon="8.03894091866114"><ele>246.66666666666669</ele><time>2026-04-04T12:52:11Z</time></trkpt><trkpt lat="45.128350521017765" lon="8.038907968278984"><ele>247.33333333333334</ele><time>2026-04-04T12:52:12Z</time></trkpt><trkpt lat="45.12850408001315" lon="8.03885457264489"><ele>248.0</ele><time>2026-04-04T12:52:13Z</time></trkpt><trkpt lat="45.128650355893846" lon="8.038854964004214"><ele>248.0</ele><time>2026-04-04T12:52:14Z</time></trkpt><trkpt lat="45.128795130492556" lon="8.038879231698978"><ele>248.0</ele><time>2026-04-04T12:52:15Z</time></trkpt><trkpt lat="45.12894058270011" lon="8.038938298829777"><ele>248.0</ele><time>2026-04-04T12:52:16Z</time></trkpt><trkpt lat="45.12909371109983" lon="8.038989231532625"><ele>249.0</ele><time>2026-04-04T12:52:17Z</time></trkpt><trkpt lat="45.129216830457366" lon="8.039049764796058"><ele>250.0</ele><time>2026-04-04T12:52:18Z</time></trkpt><trkpt lat="45.12934086285278" lon="8.039051647628353"><ele>251.0</ele><time>2026-04-04T12:52:19Z</time></trkpt><trkpt lat="45.12946825387496" lon="8.03898958638694"><ele>252.0</ele><time>2026-04-04T12:52:20Z</time></trkpt><trkpt lat="45.12961530307565" lon="8.038949702603599"><ele>252.0</ele><time>2026-04-04T12:52:21Z</time></trkpt><trkpt lat="45.1297668956023" lon="8.038954231488061"><ele>252.0</ele><time>2026-04-04T12:52:22Z</time></trkpt><trkpt lat="45.129926079340684" lon="8.038989339357384"><ele>252.0</ele><time>2026-04-04T12:52:23Z</time></trkpt><trkpt lat="45.13007666823311" lon="8.039052848390313"><ele>253.5</ele><time>2026-04-04T12:52:24Z</time></trkpt><trkpt lat="45.13020794548422" lon="8.039131100156641"><ele>255.0</ele><time>2026-04-04T12:52:25Z</time></trkpt><trkpt lat="45.130332954477694" lon="8.0391800042092"><ele>256.5</ele><time>2026-04-04T12:52:26Z</time></trkpt><trkpt lat="45.13043934379338" lon="8.039204641648215"><ele>258.0</ele><time>2026-04-04T12:52:27Z</time></trkpt><trkpt lat="45.13054077771491" lon="8.039180235404807"><ele>258.0</ele><time>2026-04-04T12:52:28Z</time></trkpt><trkpt lat="45.130626076910076" lon="8.039094168526582"><ele>258.0</ele><time>2026-04-04T12:52:29Z</time></trkpt><trkpt lat="45.1306913843336" lon="8.038961866138735"><ele>258.0</ele><time>2026-04-04T12:52:30Z</time></trkpt><trkpt lat="45.13073779522622" lon="8.038798500340496"><ele>258.0</ele><time>2026-04-04T12:52:31Z</time></trkpt><trkpt lat="45.13077763690857" lon="8.038630609527083"><ele>253.75</ele><time>2026-04-04T12:52:32Z</time></trkpt><trkpt lat="45.130864062371465" lon="8.03850522282505"><ele>249.5</ele><time>2026-04-04T12:52:33Z</time></trkpt><trkpt lat="45.130968799463126" lon="8.03844735025314"><ele>245.25</ele><time>2026-04-04T12:52:34Z</time></trkpt><trkpt lat="45.131079359991034" lon="8.038428040251665"><ele>241.0</ele><time>2026-04-04T12:52:35Z</time></trkpt><trkpt lat="45.13120409725448" lon="8.038390879254946"><ele>241.0</ele><time>2026-04-04T12:52:36Z</time></trkpt><trkpt lat="45.13132072980157" lon="8.03830385699476"><ele>241.0</ele><time>2026-04-04T12:52:37Z</time></trkpt><trkpt lat="45.13143850514089" lon="8.038221926904386"><ele>241.0</ele><time>2026-04-04T12:52:38Z</time></trkpt><trkpt lat="45.13155856134703" lon="8.038136849642527"><ele>241.0</ele><time>2026-04-04T12:52:39Z</time></trkpt><trkpt lat="45.13169605671637" lon="8.038087167099313"><ele>241.75</ele><time>2026-04-04T12:52:40Z</time></trkpt><trkpt lat="45.13182883498351" lon="8.03801358391295"><ele>242.5</ele><time>2026-04-04T12:52:41Z</time></trkpt><trkpt lat="45.131948726368634" lon="8.037887692449397"><ele>243.25</ele><time>2026-04-04T12:52:42Z</time></trkpt><trkpt lat="45.13208792237233" lon="8.037793185842485"><ele>244.0</ele><time>2026-04-04T12:52:43Z</time></trkpt><trkpt lat="45.13222868210116" lon="8.0377402725529"><ele>244.0</ele><time>2026-04-04T12:52:44Z</time></trkpt><trkpt lat="45.132375201341965" lon="8.037724766837576"><ele>244.0</ele><time>2026-04-04T12:52:45Z</time></trkpt><trkpt lat="45.13251822198899" lon="8.037703636103647"><ele>244.0</ele><time>2026-04-04T12:52:46Z</time></trkpt><trkpt lat="45.13266262034825" lon="8.037673443669673"><ele>244.0</ele><time>2026-04-04T12:52:47Z</time></trkpt><trkpt lat="45.13280906950466" lon="8.037684854526573"><ele>240.66666666666666</ele><time>2026-04-04T12:52:48Z</time></trkpt><trkpt lat="45.13295527771355" lon="8.037746905076515"><ele>237.33333333333331</ele><time>2026-04-04T12:52:49Z</time></trkpt><trkpt lat="45.13310728152906" lon="8.037771506764008"><ele>234.0</ele><time>2026-04-04T12:52:50Z</time></trkpt><trkpt lat="45.13325466265603" lon="8.03781881793718"><ele>234.0</ele><time>2026-04-04T12:52:51Z</time></trkpt><trkpt lat="45.13341012099904" lon="8.037853433621923"><ele>234.0</ele><time>2026-04-04T12:52:52Z</time></trkpt><trkpt lat="45.13355821976041" lon="8.037875893081768"><ele>234.0</ele><time>2026-04-04T12:52:53Z</time></trkpt><trkpt lat="45.13370631592362" lon="8.037902583683778"><ele>234.0</ele><time>2026-04-04T12:52:54Z</time></trkpt><trkpt lat="45.13385578461632" lon="8.03792668149068"><ele>234.0</ele><time>2026-04-04T12:52:55Z</time></trkpt><trkpt lat="45.134000247886505" lon="8.037939373906372"><ele>234.0</ele><time>2026-04-04T12:52:56Z</time></trkpt><trkpt lat="45.13414735392971" lon="8.037967253007503"><ele>234.0</ele><time>2026-04-04T12:52:57Z</time></trkpt><trkpt lat="45.13430029927597" lon="8.037936082793543"><ele>234.5</ele><time>2026-04-04T12:52:58Z</time></trkpt><trkpt lat="45.13444179639738" lon="8.037887729155381"><ele>235.0</ele><time>2026-04-04T12:52:59Z</time></trkpt><trkpt lat="45.13458312027692" lon="8.037818332838958"><ele>235.5</ele><time>2026-04-04T12:53:00Z</time></trkpt><trkpt lat="45.13473373130347" lon="8.03777565734183"><ele>236.0</ele><time>2026-04-04T12:53:01Z</time></trkpt><trkpt lat="45.13487615328009" lon="8.037790402442658"><ele>233.8</ele><time>2026-04-04T12:53:02Z</time></trkpt><trkpt lat="45.13501065458882" lon="8.037794178082157"><ele>231.60000000000002</ele><time>2026-04-04T12:53:03Z</time></trkpt><trkpt lat="45.1351282093934" lon="8.037824913356463"><ele>229.4</ele><time>2026-04-04T12:53:04Z</time></trkpt><trkpt lat="45.13522528243344" lon="8.037813003855298"><ele>227.2</ele><time>2026-04-04T12:53:05Z</time></trkpt><trkpt lat="45.135304581660215" lon="8.037777735865971"><ele>225.0</ele><time>2026-04-04T12:53:06Z</time></trkpt><trkpt lat="45.13534075755885" lon="8.037635690500018"><ele>225.0</ele><time>2026-04-04T12:53:07Z</time></trkpt><trkpt lat="45.13535536188912" lon="8.037494924094"><ele>225.0</ele><time>2026-04-04T12:53:08Z</time></trkpt><trkpt lat="45.13536617123801" lon="8.0373372877076"><ele>225.0</ele><time>2026-04-04T12:53:09Z</time></trkpt><trkpt lat="45.135364824258026" lon="8.037173749141617"><ele>225.0</ele><time>2026-04-04T12:53:10Z</time></trkpt><trkpt lat="45.13536432403913" lon="8.037020292089927"><ele>225.0</ele><time>2026-04-04T12:53:11Z</time></trkpt><trkpt lat="45.13537384535433" lon="8.036878731159911"><ele>224.0</ele><time>2026-04-04T12:53:12Z</time></trkpt><trkpt lat="45.135402177724394" lon="8.036761970546186"><ele>223.0</ele><time>2026-04-04T12:53:13Z</time></trkpt><trkpt lat="45.1354717600458" lon="8.036696530762677"><ele>222.0</ele><time>2026-04-04T12:53:14Z</time></trkpt><trkpt lat="45.13556311306951" lon="8.036698827274718"><ele>221.0</ele><time>2026-04-04T12:53:15Z</time></trkpt><trkpt lat="45.13566818506062" lon="8.036679483705155"><ele>220.0</ele><time>2026-04-04T12:53:16Z</time></trkpt><trkpt lat="45.13577863067276" lon="8.036649770619672"><ele>225.25</ele><time>2026-04-04T12:53:17Z</time></trkpt><trkpt lat="45.13589314715999" lon="8.036623397192782"><ele>230.5</ele><time>2026-04-04T12:53:18Z</time></trkpt><trkpt lat="45.13601106306316" lon="8.036595156267731"><ele>235.75</ele><time>2026-04-04T12:53:19Z</time></trkpt><trkpt lat="45.13609692111033" lon="8.036436627997096"><ele>241.0</ele><time>2026-04-04T12:53:20Z</time></trkpt><trkpt lat="45.13619837415492" lon="8.036346485927854"><ele>241.0</ele><time>2026-04-04T12:53:21Z</time></trkpt><trkpt lat="45.13631523629092" lon="8.036292274412373"><ele>241.0</ele><time>2026-04-04T12:53:22Z</time></trkpt><trkpt lat="45.13644036563954" lon="8.036292087301977"><ele>241.0</ele><time>2026-04-04T12:53:23Z</time></trkpt><trkpt lat="45.136568252446466" lon="8.036339731417465"><ele>241.0</ele><time>2026-04-04T12:53:24Z</time></trkpt><trkpt lat="45.13669563430653" lon="8.036423329222394"><ele>236.0</ele><time>2026-04-04T12:53:25Z</time></trkpt><trkpt lat="45.13682494311722" lon="8.03650936320796"><ele>231.0</ele><time>2026-04-04T12:53:26Z</time></trkpt><trkpt lat="45.136962855106745" lon="8.036578751464178"><ele>226.0</ele><time>2026-04-04T12:53:27Z</time></trkpt><trkpt lat="45.13710516930703" lon="8.036636754896843"><ele>221.0</ele><time>2026-04-04T12:53:28Z</time></trkpt><trkpt lat="45.13724667494966" lon="8.03669402040995"><ele>217.5</ele><time>2026-04-04T12:53:29Z</time></trkpt><trkpt lat="45.13738897451926" lon="8.036737553160565"><ele>214.0</ele><time>2026-04-04T12:53:30Z</time></trkpt><trkpt lat="45.1375304964878" lon="8.036756614690612"><ele>210.5</ele><time>2026-04-04T12:53:31Z</time></trkpt><trkpt lat="45.13767081938148" lon="8.036749922488646"><ele>207.0</ele><time>2026-04-04T12:53:32Z</time></trkpt><trkpt lat="45.13781331500974" lon="8.03672772662084"><ele>207.0</ele><time>2026-04-04T12:53:33Z</time></trkpt><trkpt lat="45.137960596141575" lon="8.03670046909946"><ele>207.0</ele><time>2026-04-04T12:53:34Z</time></trkpt><trkpt lat="45.138106646380116" lon="8.0366635042959"><ele>207.0</ele><time>2026-04-04T12:53:35Z</time></trkpt><trkpt lat="45.13825886646118" lon="8.036614733720143"><ele>206.0</ele><time>2026-04-04T12:53:36Z</time></trkpt><trkpt lat="45.138409940066985" lon="8.036565929955955"><ele>205.0</ele><time>2026-04-04T12:53:37Z</time></trkpt><trkpt lat="45.138561935183446" lon="8.036519884035917"><ele>204.0</ele><time>2026-04-04T12:53:38Z</time></trkpt><trkpt lat="45.138718840327556" lon="8.036478224004439"><ele>204.0</ele><time>2026-04-04T12:53:39Z</time></trkpt><trkpt lat="45.138882060989935" lon="8.036434704364394"><ele>204.0</ele><time>2026-04-04T12:53:40Z</time></trkpt><trkpt lat="45.13904535548234" lon="8.036387940130709"><ele>204.0</ele><time>2026-04-04T12:53:41Z</time></trkpt><trkpt lat="45.13921029539878" lon="8.036337364531967"><ele>203.0</ele><time>2026-04-04T12:53:42Z</time></trkpt><trkpt lat="45.13937638612075" lon="8.036297661523392"><ele>202.0</ele><time>2026-04-04T12:53:43Z</time></trkpt><trkpt lat="45.13954049651604" lon="8.036265517070518"><ele>201.0</ele><time>2026-04-04T12:53:44Z</time></trkpt><trkpt lat="45.139700303957326" lon="8.03623515930738"><ele>201.0</ele><time>2026-04-04T12:53:45Z</time></trkpt><trkpt lat="45.1398582420227" lon="8.036205709012709"><ele>201.0</ele><time>2026-04-04T12:53:46Z</time></trkpt><trkpt lat="45.14001144254917" lon="8.036185220384278"><ele>201.0</ele><time>2026-04-04T12:53:47Z</time></trkpt><trkpt lat="45.140150427111344" lon="8.036189111721976"><ele>200.8</ele><time>2026-04-04T12:53:48Z</time></trkpt><trkpt lat="45.140267427535576" lon="8.036217619940302"><ele>200.60000000000002</ele><time>2026-04-04T12:53:49Z</time></trkpt><trkpt lat="45.14036777218819" lon="8.036273739210602"><ele>200.4</ele><time>2026-04-04T12:53:50Z</time></trkpt><trkpt lat="45.1404471736029" lon="8.036365626398737"><ele>200.2</ele><time>2026-04-04T12:53:51Z</time></trkpt><trkpt lat="45.140512651131544" lon="8.036502397485659"><ele>200.0</ele><time>2026-04-04T12:53:52Z</time></trkpt><trkpt lat="45.14057650345696" lon="8.0366604396891"><ele>199.75</ele><time>2026-04-04T12:53:53Z</time></trkpt><trkpt lat="45.14065777000769" lon="8.036817244295996"><ele>199.5</ele><time>2026-04-04T12:53:54Z</time></trkpt><trkpt lat="45.14075417269552" lon="8.036951909386016"><ele>199.25</ele><time>2026-04-04T12:53:55Z</time></trkpt><trkpt lat="45.14087811957483" lon="8.037060398861065"><ele>199.0</ele><time>2026-04-04T12:53:56Z</time></trkpt><trkpt lat="45.14102628011792" lon="8.037131961242293"><ele>199.0</ele><time>2026-04-04T12:53:57Z</time></trkpt><trkpt lat="45.141188175727855" lon="8.037173510255858"><ele>199.0</ele><time>2026-04-04T12:53:58Z</time></trkpt><trkpt lat="45.14135853935597" lon="8.037214552378707"><ele>199.0</ele><time>2026-04-04T12:53:59Z</time></trkpt><trkpt lat="45.14152341935092" lon="8.03726657568088"><ele>197.66666666666666</ele><time>2026-04-04T12:54:00Z</time></trkpt><trkpt lat="45.14168464592743" lon="8.037320093474614"><ele>196.33333333333331</ele><time>2026-04-04T12:54:01Z</time></trkpt><trkpt lat="45.14183967796228" lon="8.037370897828822"><ele>195.0</ele><time>2026-04-04T12:54:02Z</time></trkpt><trkpt lat="45.141991105298615" lon="8.037416009177457"><ele>195.0</ele><time>2026-04-04T12:54:03Z</time></trkpt><trkpt lat="45.142142526238196" lon="8.03745611550334"><ele>195.0</ele><time>2026-04-04T12:54:04Z</time></trkpt><trkpt lat="45.14228621016375" lon="8.037500504202631"><ele>195.0</ele><time>2026-04-04T12:54:05Z</time></trkpt><trkpt lat="45.14242774351835" lon="8.037552836984487"><ele>195.0</ele><time>2026-04-04T12:54:06Z</time></trkpt><trkpt lat="45.14255417429054" lon="8.037663552424029"><ele>194.5</ele><time>2026-04-04T12:54:07Z</time></trkpt><trkpt lat="45.14268063113629" lon="8.037786989784333"><ele>194.0</ele><time>2026-04-04T12:54:08Z</time></trkpt><trkpt lat="45.14278225223613" lon="8.037939602911589"><ele>193.5</ele><time>2026-04-04T12:54:09Z</time></trkpt><trkpt lat="45.142882677430656" lon="8.038045756825948"><ele>193.0</ele><time>2026-04-04T12:54:10Z</time></trkpt><trkpt lat="45.14300624933638" lon="8.038101602171603"><ele>193.0</ele><time>2026-04-04T12:54:11Z</time></trkpt><trkpt lat="45.143144234466604" lon="8.0381023275522"><ele>193.0</ele><time>2026-04-04T12:54:12Z</time></trkpt><trkpt lat="45.14328739371585" lon="8.038067462935626"><ele>193.0</ele><time>2026-04-04T12:54:13Z</time></trkpt><trkpt lat="45.14343696942864" lon="8.038037782842583"><ele>193.0</ele><time>2026-04-04T12:54:14Z</time></trkpt><trkpt lat="45.14356693824774" lon="8.038013098465079"><ele>193.5</ele><time>2026-04-04T12:54:15Z</time></trkpt><trkpt lat="45.14368458160266" lon="8.03803502734813"><ele>194.0</ele><time>2026-04-04T12:54:16Z</time></trkpt><trkpt lat="45.14378443722836" lon="8.038146872224443"><ele>194.5</ele><time>2026-04-04T12:54:17Z</time></trkpt><trkpt lat="45.14390058326618" lon="8.03824102543533"><ele>195.0</ele><time>2026-04-04T12:54:18Z</time></trkpt><trkpt lat="45.144007618696605" lon="8.038380722380301"><ele>193.0</ele><time>2026-04-04T12:54:19Z</time></trkpt><trkpt lat="45.144113038921375" lon="8.038533809681624"><ele>191.0</ele><time>2026-04-04T12:54:20Z</time></trkpt><trkpt lat="45.14421954456317" lon="8.038698367531913"><ele>189.0</ele><time>2026-04-04T12:54:21Z</time></trkpt><trkpt lat="45.144329209705376" lon="8.03886025191608"><ele>189.0</ele><time>2026-04-04T12:54:22Z</time></trkpt><trkpt lat="45.14445062951519" lon="8.039027259094588"><ele>189.0</ele><time>2026-04-04T12:54:23Z</time></trkpt><trkpt lat="45.144568861352916" lon="8.039187326458075"><ele>189.0</ele><time>2026-04-04T12:54:24Z</time></trkpt><trkpt lat="45.144692722223084" lon="8.039362533740464"><ele>189.66666666666666</ele><time>2026-04-04T12:54:25Z</time></trkpt><trkpt lat="45.144815893655334" lon="8.039542668624435"><ele>190.33333333333331</ele><time>2026-04-04T12:54:26Z</time></trkpt><trkpt lat="45.144939776845945" lon="8.039716289755372"><ele>191.0</ele><time>2026-04-04T12:54:27Z</time></trkpt><trkpt lat="45.1450730899047" lon="8.03989808361622"><ele>190.0</ele><time>2026-04-04T12:54:28Z</time></trkpt><trkpt lat="45.14521702584828" lon="8.040095526251605"><ele>189.0</ele><time>2026-04-04T12:54:29Z</time></trkpt><trkpt lat="45.145363008362516" lon="8.040293032016194"><ele>188.0</ele><time>2026-04-04T12:54:30Z</time></trkpt><trkpt lat="45.145514778566024" lon="8.040498907826313"><ele>188.0</ele><time>2026-04-04T12:54:31Z</time></trkpt><trkpt lat="45.145675257506994" lon="8.040717763508903"><ele>188.0</ele><time>2026-04-04T12:54:32Z</time></trkpt><trkpt lat="45.1458381100206" lon="8.040937464213984"><ele>188.0</ele><time>2026-04-04T12:54:33Z</time></trkpt><trkpt lat="45.1459983443397" lon="8.04115533267751"><ele>187.66666666666666</ele><time>2026-04-04T12:54:34Z</time></trkpt><trkpt lat="45.14615711687976" lon="8.041374218585611"><ele>187.33333333333334</ele><time>2026-04-04T12:54:35Z</time></trkpt><trkpt lat="45.14630964111489" lon="8.041587744579347"><ele>187.0</ele><time>2026-04-04T12:54:36Z</time></trkpt><trkpt lat="45.146463503813465" lon="8.041811143454312"><ele>189.33333333333334</ele><time>2026-04-04T12:54:37Z</time></trkpt><trkpt lat="45.14661127534517" lon="8.04202706316807"><ele>191.66666666666669</ele><time>2026-04-04T12:54:38Z</time></trkpt><trkpt lat="45.1467465154909" lon="8.042226787708644"><ele>194.0</ele><time>2026-04-04T12:54:39Z</time></trkpt><trkpt lat="45.14688178508201" lon="8.042436880028426"><ele>191.66666666666669</ele><time>2026-04-04T12:54:40Z</time></trkpt><trkpt lat="45.1470026152232" lon="8.042667595070835"><ele>189.33333333333334</ele><time>2026-04-04T12:54:41Z</time></trkpt><trkpt lat="45.147101560170846" lon="8.042918956107274"><ele>187.0</ele><time>2026-04-04T12:54:42Z</time></trkpt><trkpt lat="45.14719234463447" lon="8.043186703015449"><ele>186.0</ele><time>2026-04-04T12:54:43Z</time></trkpt><trkpt lat="45.147283767772926" lon="8.043454129921853"><ele>185.0</ele><time>2026-04-04T12:54:44Z</time></trkpt><trkpt lat="45.14737540481879" lon="8.043716925219794"><ele>184.0</ele><time>2026-04-04T12:54:45Z</time></trkpt><trkpt lat="45.147469979114966" lon="8.043972062646214"><ele>185.66666666666669</ele><time>2026-04-04T12:54:46Z</time></trkpt><trkpt lat="45.14756131071687" lon="8.044197646697723"><ele>187.33333333333334</ele><time>2026-04-04T12:54:47Z</time></trkpt><trkpt lat="45.147660750259384" lon="8.044400828970135"><ele>189.0</ele><time>2026-04-04T12:54:48Z</time></trkpt><trkpt lat="45.147777443414114" lon="8.044592063943062"><ele>189.0</ele><time>2026-04-04T12:54:49Z</time></trkpt><trkpt lat="45.14788763752965" lon="8.044761093672058"><ele>189.0</ele><time>2026-04-04T12:54:50Z</time></trkpt><trkpt lat="45.147983998243376" lon="8.044912928016348"><ele>189.0</ele><time>2026-04-04T12:54:51Z</time></trkpt><trkpt lat="45.148062240026725" lon="8.045067541557772"><ele>189.0</ele><time>2026-04-04T12:54:52Z</time></trkpt><trkpt lat="45.14809499637066" lon="8.045242202118343"><ele>188.0</ele><time>2026-04-04T12:54:53Z</time></trkpt><trkpt lat="45.14812987754147" lon="8.04541597411818"><ele>187.0</ele><time>2026-04-04T12:54:54Z</time></trkpt><trkpt lat="45.14816520644479" lon="8.045596172000979"><ele>186.0</ele><time>2026-04-04T12:54:55Z</time></trkpt><trkpt lat="45.14817377727439" lon="8.04577738327689"><ele>185.0</ele><time>2026-04-04T12:54:56Z</time></trkpt><trkpt lat="45.148189657351686" lon="8.045943365399989"><ele>185.0</ele><time>2026-04-04T12:54:57Z</time></trkpt><trkpt lat="45.14822018847212" lon="8.04609705135474"><ele>185.0</ele><time>2026-04-04T12:54:58Z</time></trkpt><trkpt lat="45.148264241801705" lon="8.046242406280367"><ele>185.0</ele><time>2026-04-04T12:54:59Z</time></trkpt><trkpt lat="45.14831270951828" lon="8.046385295048534"><ele>185.0</ele><time>2026-04-04T12:55:00Z</time></trkpt><trkpt lat="45.14836655859426" lon="8.046527199241659"><ele>184.75</ele><time>2026-04-04T12:55:01Z</time></trkpt><trkpt lat="45.14843556284223" lon="8.04667632136823"><ele>184.5</ele><time>2026-04-04T12:55:02Z</time></trkpt><trkpt lat="45.14850107861536" lon="8.046830371812321"><ele>184.25</ele><time>2026-04-04T12:55:03Z</time></trkpt><trkpt lat="45.148571691879106" lon="8.046987692417147"><ele>184.0</ele><time>2026-04-04T12:55:04Z</time></trkpt><trkpt lat="45.14864756087735" lon="8.047138960327526"><ele>184.0</ele><time>2026-04-04T12:55:05Z</time></trkpt><trkpt lat="45.14873122790959" lon="8.047288279426613"><ele>184.0</ele><time>2026-04-04T12:55:06Z</time></trkpt><trkpt lat="45.14880947869476" lon="8.047430545281937"><ele>184.0</ele><time>2026-04-04T12:55:07Z</time></trkpt><trkpt lat="45.148878020713376" lon="8.047569881597349"><ele>184.0</ele><time>2026-04-04T12:55:08Z</time></trkpt><trkpt lat="45.14893583756307" lon="8.047708417039326"><ele>184.0</ele><time>2026-04-04T12:55:09Z</time></trkpt><trkpt lat="45.14898870242675" lon="8.047846311017281"><ele>184.0</ele><time>2026-04-04T12:55:10Z</time></trkpt><trkpt lat="45.14903422377968" lon="8.047976811257579"><ele>184.0</ele><time>2026-04-04T12:55:11Z</time></trkpt><trkpt lat="45.14907239614621" lon="8.048104166155891"><ele>184.0</ele><time>2026-04-04T12:55:12Z</time></trkpt><trkpt lat="45.149104648883494" lon="8.04823658391233"><ele>184.0</ele><time>2026-04-04T12:55:13Z</time></trkpt><trkpt lat="45.149126445868944" lon="8.048346074498207"><ele>184.0</ele><time>2026-04-04T12:55:14Z</time></trkpt><trkpt lat="45.14915016322747" lon="8.048458217197197"><ele>184.0</ele><time>2026-04-04T12:55:16Z</time></trkpt><trkpt lat="45.14917878472419" lon="8.048545531639594"><ele>184.0</ele><time>2026-04-04T12:55:18Z</time></trkpt><trkpt lat="45.14925591823727" lon="8.048641465281946"><ele>184.0</ele><time>2026-04-04T12:55:20Z</time></trkpt><trkpt lat="45.149293628125896" lon="8.048715185718745"><ele>184.0</ele><time>2026-04-04T12:55:21Z</time></trkpt><trkpt lat="45.149331629610764" lon="8.048800802036327"><ele>184.0</ele><time>2026-04-04T12:55:22Z</time></trkpt><trkpt lat="45.14937115019454" lon="8.048885793150903"><ele>184.0</ele><time>2026-04-04T12:55:23Z</time></trkpt><trkpt lat="45.14941453561955" lon="8.048963611762534"><ele>184.0</ele><time>2026-04-04T12:55:24Z</time></trkpt><trkpt lat="45.14946352199491" lon="8.049043810167694"><ele>184.0</ele><time>2026-04-04T12:55:25Z</time></trkpt><trkpt lat="45.14951534287952" lon="8.049125202937216"><ele>184.0</ele><time>2026-04-04T12:55:26Z</time></trkpt><trkpt lat="45.14956492483256" lon="8.049204852949625"><ele>184.0</ele><time>2026-04-04T12:55:27Z</time></trkpt><trkpt lat="45.14961106391911" lon="8.0492859961333"><ele>184.0</ele><time>2026-04-04T12:55:28Z</time></trkpt><trkpt lat="45.14965303698597" lon="8.049370729284915"><ele>184.0</ele><time>2026-04-04T12:55:29Z</time></trkpt><trkpt lat="45.149692359655695" lon="8.049454510225198"><ele>183.85714285714286</ele><time>2026-04-04T12:55:30Z</time></trkpt><trkpt lat="45.14973490062874" lon="8.049534586658526"><ele>183.7142857142857</ele><time>2026-04-04T12:55:31Z</time></trkpt><trkpt lat="45.14977756281449" lon="8.049618062087987"><ele>183.57142857142856</ele><time>2026-04-04T12:55:32Z</time></trkpt><trkpt lat="45.14981288238472" lon="8.049701449591685"><ele>183.42857142857144</ele><time>2026-04-04T12:55:33Z</time></trkpt><trkpt lat="45.14985624050117" lon="8.049785205625913"><ele>183.28571428571428</ele><time>2026-04-04T12:55:34Z</time></trkpt><trkpt lat="45.14990114928583" lon="8.049873014087215"><ele>183.14285714285714</ele><time>2026-04-04T12:55:35Z</time></trkpt><trkpt lat="45.1499515810566" lon="8.04996491118578"><ele>183.0</ele><time>2026-04-04T12:55:36Z</time></trkpt><trkpt lat="45.15000232438789" lon="8.050059446036824"><ele>182.33333333333334</ele><time>2026-04-04T12:55:37Z</time></trkpt><trkpt lat="45.15005814455362" lon="8.050157049766874"><ele>181.66666666666666</ele><time>2026-04-04T12:55:38Z</time></trkpt><trkpt lat="45.15011372132472" lon="8.050252598271944"><ele>181.0</ele><time>2026-04-04T12:55:39Z</time></trkpt><trkpt lat="45.150175229711884" lon="8.050346297571615"><ele>180.33333333333331</ele><time>2026-04-04T12:55:40Z</time></trkpt><trkpt lat="45.150235476788126" lon="8.05043597493132"><ele>179.66666666666666</ele><time>2026-04-04T12:55:41Z</time></trkpt><trkpt lat="45.15029760350332" lon="8.050523167726215"><ele>179.0</ele><time>2026-04-04T12:55:42Z</time></trkpt><trkpt lat="45.15035552080919" lon="8.050610522914578"><ele>179.0</ele><time>2026-04-04T12:55:43Z</time></trkpt><trkpt lat="45.15041052759767" lon="8.050695655721098"><ele>179.0</ele><time>2026-04-04T12:55:44Z</time></trkpt><trkpt lat="45.15046652588083" lon="8.050785885787109"><ele>179.0</ele><time>2026-04-04T12:55:45Z</time></trkpt><trkpt lat="45.15052174329982" lon="8.050876694109858"><ele>179.0</ele><time>2026-04-04T12:55:46Z</time></trkpt><trkpt lat="45.15057351230249" lon="8.050975863411855"><ele>179.0</ele><time>2026-04-04T12:55:47Z</time></trkpt><trkpt lat="45.15062974069507" lon="8.051077298753341"><ele>179.0</ele><time>2026-04-04T12:55:48Z</time></trkpt><trkpt lat="45.150683192119686" lon="8.051179849744011"><ele>178.6</ele><time>2026-04-04T12:55:49Z</time></trkpt><trkpt lat="45.15073821345189" lon="8.051279764884386"><ele>178.2</ele><time>2026-04-04T12:55:50Z</time></trkpt><trkpt lat="45.15077755361317" lon="8.051398182171294"><ele>177.79999999999998</ele><time>2026-04-04T12:55:51Z</time></trkpt><trkpt lat="45.15083034839342" lon="8.051504983647549"><ele>177.39999999999998</ele><time>2026-04-04T12:55:52Z</time></trkpt><trkpt lat="45.150898320256445" lon="8.051595521552766"><ele>177.0</ele><time>2026-04-04T12:55:53Z</time></trkpt><trkpt lat="45.15094070732282" lon="8.051701190900104"><ele>176.83333333333334</ele><time>2026-04-04T12:55:54Z</time></trkpt><trkpt lat="45.15098453933647" lon="8.051798783956984"><ele>176.66666666666666</ele><time>2026-04-04T12:55:55Z</time></trkpt><trkpt lat="45.151029307035024" lon="8.051888280071969"><ele>176.5</ele><time>2026-04-04T12:55:56Z</time></trkpt><trkpt lat="45.15106958655963" lon="8.051973572996841"><ele>176.33333333333331</ele><time>2026-04-04T12:55:57Z</time></trkpt><trkpt lat="45.15110635108332" lon="8.052053395984078"><ele>176.16666666666666</ele><time>2026-04-04T12:55:58Z</time></trkpt><trkpt lat="45.151152390482736" lon="8.052183477943434"><ele>176.0</ele><time>2026-04-04T12:56:00Z</time></trkpt><trkpt lat="45.15117702490168" lon="8.05229249029886"><ele>176.0</ele><time>2026-04-04T12:56:09Z</time></trkpt><trkpt lat="45.15130524038902" lon="8.052226277311545"><ele>176.0</ele><time>2026-04-04T12:56:10Z</time></trkpt><trkpt lat="45.15137501189557" lon="8.052160862965849"><ele>176.0</ele><time>2026-04-04T12:56:11Z</time></trkpt><trkpt lat="45.15145555768168" lon="8.052107237926327"><ele>176.0</ele><time>2026-04-04T12:56:12Z</time></trkpt><trkpt lat="45.15154845926639" lon="8.052042592348068"><ele>176.0</ele><time>2026-04-04T12:56:13Z</time></trkpt><trkpt lat="45.15164352783101" lon="8.051976074971074"><ele>176.16666666666666</ele><time>2026-04-04T12:56:14Z</time></trkpt><trkpt lat="45.15173494496362" lon="8.051914867374894"><ele>176.33333333333331</ele><time>2026-04-04T12:56:15Z</time></trkpt><trkpt lat="45.15181788599208" lon="8.051858339819464"><ele>176.5</ele><time>2026-04-04T12:56:16Z</time></trkpt><trkpt lat="45.1519016245663" lon="8.051828599598203"><ele>176.66666666666666</ele><time>2026-04-04T12:56:17Z</time></trkpt><trkpt lat="45.15197735134978" lon="8.051780929462696"><ele>176.83333333333334</ele><time>2026-04-04T12:56:18Z</time></trkpt><trkpt lat="45.15204530317195" lon="8.051737825683931"><ele>177.0</ele><time>2026-04-04T12:56:19Z</time></trkpt><trkpt lat="45.152097779797344" lon="8.051680221783958"><ele>177.0</ele><time>2026-04-04T12:56:20Z</time></trkpt><trkpt lat="45.15220063562603" lon="8.051708533021195"><ele>177.0</ele><time>2026-04-04T12:56:22Z</time></trkpt><trkpt lat="45.15223874386056" lon="8.051781210601188"><ele>177.0</ele><time>2026-04-04T12:56:23Z</time></trkpt><trkpt lat="45.152266526107816" lon="8.051885208035213"><ele>177.0</ele><time>2026-04-04T12:56:24Z</time></trkpt><trkpt lat="45.15230244618109" lon="8.05199320117103"><ele>177.0</ele><time>2026-04-04T12:56:25Z</time></trkpt><trkpt lat="45.15234310253067" lon="8.05211374190335"><ele>177.0</ele><time>2026-04-04T12:56:26Z</time></trkpt><trkpt lat="45.15239055582275" lon="8.052245223224968"><ele>176.8</ele><time>2026-04-04T12:56:27Z</time></trkpt><trkpt lat="45.15243608629419" lon="8.052375032222095"><ele>176.6</ele><time>2026-04-04T12:56:28Z</time></trkpt><trkpt lat="45.152483074076" lon="8.052508461826006"><ele>176.4</ele><time>2026-04-04T12:56:29Z</time></trkpt><trkpt lat="45.15252997336976" lon="8.052657141443628"><ele>176.20000000000002</ele><time>2026-04-04T12:56:30Z</time></trkpt><trkpt lat="45.152581727879095" lon="8.052814961158834"><ele>176.0</ele><time>2026-04-04T12:56:31Z</time></trkpt><trkpt lat="45.15264086312786" lon="8.052969939805154"><ele>176.0</ele><time>2026-04-04T12:56:32Z</time></trkpt><trkpt lat="45.15269886348698" lon="8.05313125262478"><ele>176.0</ele><time>2026-04-04T12:56:33Z</time></trkpt><trkpt lat="45.152752368041476" lon="8.053298539896492"><ele>176.0</ele><time>2026-04-04T12:56:34Z</time></trkpt><trkpt lat="45.15280828395895" lon="8.053467392238089"><ele>176.0</ele><time>2026-04-04T12:56:35Z</time></trkpt><trkpt lat="45.15286153521555" lon="8.053635400274246"><ele>175.5</ele><time>2026-04-04T12:56:36Z</time></trkpt><trkpt lat="45.15291745116188" lon="8.053807089319205"><ele>175.0</ele><time>2026-04-04T12:56:37Z</time></trkpt><trkpt lat="45.152975086366574" lon="8.053977848712936"><ele>174.5</ele><time>2026-04-04T12:56:38Z</time></trkpt><trkpt lat="45.15303556764285" lon="8.054150392313687"><ele>174.0</ele><time>2026-04-04T12:56:39Z</time></trkpt><trkpt lat="45.15309694152341" lon="8.05432706957076"><ele>174.0</ele><time>2026-04-04T12:56:40Z</time></trkpt><trkpt lat="45.15315626697638" lon="8.054500093970717"><ele>174.0</ele><time>2026-04-04T12:56:41Z</time></trkpt><trkpt lat="45.153214936455036" lon="8.054673501016156"><ele>174.0</ele><time>2026-04-04T12:56:42Z</time></trkpt><trkpt lat="45.15327339880404" lon="8.054846975536728"><ele>174.0</ele><time>2026-04-04T12:56:43Z</time></trkpt><trkpt lat="45.15333299033883" lon="8.055017049569908"><ele>174.0</ele><time>2026-04-04T12:56:44Z</time></trkpt><trkpt lat="45.15338994520138" lon="8.055186139058495"><ele>174.0</ele><time>2026-04-04T12:56:45Z</time></trkpt><trkpt lat="45.153446427058135" lon="8.055352409950274"><ele>174.0</ele><time>2026-04-04T12:56:46Z</time></trkpt><trkpt lat="45.15350636972452" lon="8.055509185884777"><ele>174.0</ele><time>2026-04-04T12:56:47Z</time></trkpt><trkpt lat="45.15355455805541" lon="8.055660243718926"><ele>174.0</ele><time>2026-04-04T12:56:48Z</time></trkpt><trkpt lat="45.15359949357861" lon="8.055809495334733"><ele>174.0</ele><time>2026-04-04T12:56:49Z</time></trkpt><trkpt lat="45.153646388132174" lon="8.055955084795269"><ele>174.0</ele><time>2026-04-04T12:56:50Z</time></trkpt><trkpt lat="45.15370406904935" lon="8.056089051338036"><ele>174.0</ele><time>2026-04-04T12:56:51Z</time></trkpt><trkpt lat="45.15377794144764" lon="8.056202972846572"><ele>174.0</ele><time>2026-04-04T12:56:52Z</time></trkpt><trkpt lat="45.153884664900545" lon="8.056277575069958"><ele>174.0</ele><time>2026-04-04T12:56:53Z</time></trkpt><trkpt lat="45.153998321726064" lon="8.056338614703623"><ele>174.0</ele><time>2026-04-04T12:56:54Z</time></trkpt><trkpt lat="45.15410084593799" lon="8.056431581982181"><ele>174.0</ele><time>2026-04-04T12:56:55Z</time></trkpt><trkpt lat="45.15418336138896" lon="8.056541084157246"><ele>174.0</ele><time>2026-04-04T12:56:56Z</time></trkpt><trkpt lat="45.15425895876952" lon="8.05664762472988"><ele>173.5</ele><time>2026-04-04T12:56:57Z</time></trkpt><trkpt lat="45.154337809187034" lon="8.056755553225369"><ele>173.0</ele><time>2026-04-04T12:56:58Z</time></trkpt><trkpt lat="45.15441891080157" lon="8.056864584901822"><ele>172.5</ele><time>2026-04-04T12:56:59Z</time></trkpt><trkpt lat="45.154503379204" lon="8.056974093193043"><ele>172.0</ele><time>2026-04-04T12:57:00Z</time></trkpt><trkpt lat="45.15459218748007" lon="8.05708685322146"><ele>172.0</ele><time>2026-04-04T12:57:01Z</time></trkpt><trkpt lat="45.15468668252995" lon="8.0572020859755"><ele>172.0</ele><time>2026-04-04T12:57:02Z</time></trkpt><trkpt lat="45.1547865088791" lon="8.057321051716217"><ele>172.0</ele><time>2026-04-04T12:57:03Z</time></trkpt><trkpt lat="45.154890002788534" lon="8.057444659448079"><ele>172.0</ele><time>2026-04-04T12:57:04Z</time></trkpt><trkpt lat="45.1550002618583" lon="8.057570116760598"><ele>172.0</ele><time>2026-04-04T12:57:05Z</time></trkpt><trkpt lat="45.15511220472496" lon="8.057703840110726"><ele>172.0</ele><time>2026-04-04T12:57:06Z</time></trkpt><trkpt lat="45.155221867347734" lon="8.057839779444192"><ele>172.0</ele><time>2026-04-04T12:57:07Z</time></trkpt><trkpt lat="45.155332577680426" lon="8.057979782730254"><ele>172.0</ele><time>2026-04-04T12:57:08Z</time></trkpt><trkpt lat="45.155439134269585" lon="8.058122757294678"><ele>172.0</ele><time>2026-04-04T12:57:09Z</time></trkpt><trkpt lat="45.155541084443925" lon="8.058255651083716"><ele>172.0</ele><time>2026-04-04T12:57:10Z</time></trkpt><trkpt lat="45.15563624322909" lon="8.058380613027683"><ele>172.0</ele><time>2026-04-04T12:57:11Z</time></trkpt><trkpt lat="45.15572595200846" lon="8.058506215481998"><ele>172.0</ele><time>2026-04-04T12:57:12Z</time></trkpt><trkpt lat="45.15580366611048" lon="8.058635387975302"><ele>171.8</ele><time>2026-04-04T12:57:13Z</time></trkpt><trkpt lat="45.15587120141535" lon="8.058769484975596"><ele>171.6</ele><time>2026-04-04T12:57:14Z</time></trkpt><trkpt lat="45.15592242687799" lon="8.058904193888852"><ele>171.4</ele><time>2026-04-04T12:57:15Z</time></trkpt><trkpt lat="45.155972295969455" lon="8.059035739448746"><ele>171.20000000000002</ele><time>2026-04-04T12:57:16Z</time></trkpt><trkpt lat="45.15601564940486" lon="8.05916345239144"><ele>171.0</ele><time>2026-04-04T12:57:17Z</time></trkpt><trkpt lat="45.15605251488882" lon="8.059284745654413"><ele>171.0</ele><time>2026-04-04T12:57:18Z</time></trkpt><trkpt lat="45.15607479184386" lon="8.059394304434209"><ele>171.0</ele><time>2026-04-04T12:57:19Z</time></trkpt><trkpt lat="45.15608709912237" lon="8.059515265150887"><ele>171.0</ele><time>2026-04-04T12:57:21Z</time></trkpt><trkpt lat="45.1561157980403" lon="8.059625942168319"><ele>171.0</ele><time>2026-04-04T12:57:39Z</time></trkpt><trkpt lat="45.156144490464825" lon="8.059777718708665"><ele>171.0</ele><time>2026-04-04T12:57:41Z</time></trkpt><trkpt lat="45.156156669080566" lon="8.059870699813484"><ele>171.0</ele><time>2026-04-04T12:57:42Z</time></trkpt><trkpt lat="45.15616445702842" lon="8.05996996758518"><ele>171.0</ele><time>2026-04-04T12:57:43Z</time></trkpt><trkpt lat="45.156166680309504" lon="8.06009292749211"><ele>171.0</ele><time>2026-04-04T12:57:44Z</time></trkpt><trkpt lat="45.156160898123524" lon="8.060224998605545"><ele>171.0</ele><time>2026-04-04T12:57:45Z</time></trkpt><trkpt lat="45.15615950182293" lon="8.060365018504516"><ele>171.0</ele><time>2026-04-04T12:57:46Z</time></trkpt><trkpt lat="45.15615352085662" lon="8.060507400057723"><ele>171.0</ele><time>2026-04-04T12:57:47Z</time></trkpt><trkpt lat="45.15614733067499" lon="8.060668115906603"><ele>170.75</ele><time>2026-04-04T12:57:48Z</time></trkpt><trkpt lat="45.156136110061475" lon="8.060839529806586"><ele>170.5</ele><time>2026-04-04T12:57:49Z</time></trkpt><trkpt lat="45.15612623207939" lon="8.06101814937059"><ele>170.25</ele><time>2026-04-04T12:57:50Z</time></trkpt><trkpt lat="45.15611500074985" lon="8.061202855679971"><ele>170.0</ele><time>2026-04-04T12:57:51Z</time></trkpt><trkpt lat="45.156098134042864" lon="8.061389680473853"><ele>170.0</ele><time>2026-04-04T12:57:52Z</time></trkpt><trkpt lat="45.15608396321162" lon="8.061579131617213"><ele>170.0</ele><time>2026-04-04T12:57:53Z</time></trkpt><trkpt lat="45.15606839169326" lon="8.061761655858993"><ele>170.0</ele><time>2026-04-04T12:57:54Z</time></trkpt><trkpt lat="45.15605528526026" lon="8.061954208994592"><ele>170.0</ele><time>2026-04-04T12:57:55Z</time></trkpt><trkpt lat="45.156038126855236" lon="8.062149926699773"><ele>169.75</ele><time>2026-04-04T12:57:56Z</time></trkpt><trkpt lat="45.15601779765225" lon="8.062351807334833"><ele>169.5</ele><time>2026-04-04T12:57:57Z</time></trkpt><trkpt lat="45.15599206599201" lon="8.062561601762082"><ele>169.25</ele><time>2026-04-04T12:57:58Z</time></trkpt><trkpt lat="45.15596396106642" lon="8.062765691342594"><ele>169.0</ele><time>2026-04-04T12:57:59Z</time></trkpt><trkpt lat="45.15593330629577" lon="8.06297243897507"><ele>169.25</ele><time>2026-04-04T12:58:00Z</time></trkpt><trkpt lat="45.15590487060082" lon="8.063175458599583"><ele>169.5</ele><time>2026-04-04T12:58:01Z</time></trkpt><trkpt lat="45.155874044128645" lon="8.063386024736817"><ele>169.75</ele><time>2026-04-04T12:58:02Z</time></trkpt><trkpt lat="45.15584346639795" lon="8.063595289280947"><ele>170.0</ele><time>2026-04-04T12:58:03Z</time></trkpt><trkpt lat="45.15581289925004" lon="8.063799691612294"><ele>170.0</ele><time>2026-04-04T12:58:04Z</time></trkpt><trkpt lat="45.155787484032054" lon="8.064008476620517"><ele>170.0</ele><time>2026-04-04T12:58:05Z</time></trkpt><trkpt lat="45.15575733785217" lon="8.064218572387972"><ele>170.0</ele><time>2026-04-04T12:58:06Z</time></trkpt><trkpt lat="45.15573180442443" lon="8.064425731057925"><ele>170.0</ele><time>2026-04-04T12:58:07Z</time></trkpt><trkpt lat="45.15570671142594" lon="8.064633345068954"><ele>171.25</ele><time>2026-04-04T12:58:08Z</time></trkpt><trkpt lat="45.155684509181285" lon="8.064828017445343"><ele>172.5</ele><time>2026-04-04T12:58:09Z</time></trkpt><trkpt lat="45.15566450308726" lon="8.065002465334004"><ele>173.75</ele><time>2026-04-04T12:58:10Z</time></trkpt><trkpt lat="45.15564423571298" lon="8.065169034439062"><ele>175.0</ele><time>2026-04-04T12:58:11Z</time></trkpt><trkpt lat="45.155624185427584" lon="8.065324647880699"><ele>175.0</ele><time>2026-04-04T12:58:12Z</time></trkpt><trkpt lat="45.15559940632765" lon="8.065469921338927"><ele>175.0</ele><time>2026-04-04T12:58:13Z</time></trkpt><trkpt lat="45.1555550068632" lon="8.065604821629"><ele>175.0</ele><time>2026-04-04T12:58:14Z</time></trkpt><trkpt lat="45.155492686311824" lon="8.06570237389445"><ele>175.0</ele><time>2026-04-04T12:58:15Z</time></trkpt><trkpt lat="45.15540707027156" lon="8.06578153181295"><ele>175.0</ele><time>2026-04-04T12:58:16Z</time></trkpt><trkpt lat="45.15535094095516" lon="8.065884633169949"><ele>175.0</ele><time>2026-04-04T12:58:17Z</time></trkpt><trkpt lat="45.15533962184876" lon="8.066000570830203"><ele>175.0</ele><time>2026-04-04T12:58:18Z</time></trkpt><trkpt lat="45.15536654397071" lon="8.066097070977726"><ele>175.0</ele><time>2026-04-04T12:58:19Z</time></trkpt><trkpt lat="45.15542636071779" lon="8.06617552658762"><ele>175.0</ele><time>2026-04-04T12:58:20Z</time></trkpt><trkpt lat="45.15551184124007" lon="8.066220631038917"><ele>175.0</ele><time>2026-04-04T12:58:21Z</time></trkpt><trkpt lat="45.15560444161207" lon="8.066262468444695"><ele>175.0</ele><time>2026-04-04T12:58:22Z</time></trkpt><trkpt lat="45.155675614438174" lon="8.066348496392092"><ele>174.0</ele><time>2026-04-04T12:58:23Z</time></trkpt><trkpt lat="45.155727199296976" lon="8.066465010607633"><ele>173.0</ele><time>2026-04-04T12:58:24Z</time></trkpt><trkpt lat="45.15577326197021" lon="8.066605289405128"><ele>172.0</ele><time>2026-04-04T12:58:25Z</time></trkpt><trkpt lat="45.15581390279997" lon="8.066757855353039"><ele>171.0</ele><time>2026-04-04T12:58:26Z</time></trkpt><trkpt lat="45.15585122440342" lon="8.066911189378"><ele>170.0</ele><time>2026-04-04T12:58:27Z</time></trkpt><trkpt lat="45.15589234922986" lon="8.067069045041466"><ele>170.0</ele><time>2026-04-04T12:58:28Z</time></trkpt><trkpt lat="45.155938202417765" lon="8.067237574510283"><ele>170.0</ele><time>2026-04-04T12:58:29Z</time></trkpt><trkpt lat="45.15598766371656" lon="8.06741549376026"><ele>170.0</ele><time>2026-04-04T12:58:30Z</time></trkpt><trkpt lat="45.1560364660398" lon="8.067590641870686"><ele>170.0</ele><time>2026-04-04T12:58:31Z</time></trkpt><trkpt lat="45.1560825337907" lon="8.067760582001052"><ele>170.5</ele><time>2026-04-04T12:58:32Z</time></trkpt><trkpt lat="45.15612808576824" lon="8.06794397151456"><ele>171.0</ele><time>2026-04-04T12:58:33Z</time></trkpt><trkpt lat="45.156175496324934" lon="8.068129313274424"><ele>171.5</ele><time>2026-04-04T12:58:34Z</time></trkpt><trkpt lat="45.15622667727811" lon="8.068317807666727"><ele>172.0</ele><time>2026-04-04T12:58:35Z</time></trkpt><trkpt lat="45.15627988739933" lon="8.068517068199707"><ele>172.66666666666669</ele><time>2026-04-04T12:58:36Z</time></trkpt><trkpt lat="45.15633317926992" lon="8.06871563712776"><ele>173.33333333333334</ele><time>2026-04-04T12:58:37Z</time></trkpt><trkpt lat="45.1563871850414" lon="8.068916409899868"><ele>174.0</ele><time>2026-04-04T12:58:38Z</time></trkpt><trkpt lat="45.156442264350616" lon="8.069122615621113"><ele>173.66666666666666</ele><time>2026-04-04T12:58:39Z</time></trkpt><trkpt lat="45.15649724838712" lon="8.069330834304347"><ele>173.33333333333331</ele><time>2026-04-04T12:58:40Z</time></trkpt><trkpt lat="45.1565552450219" lon="8.069540103418676"><ele>173.0</ele><time>2026-04-04T12:58:41Z</time></trkpt><trkpt lat="45.1566162252174" lon="8.069755851780098"><ele>172.66666666666666</ele><time>2026-04-04T12:58:42Z</time></trkpt><trkpt lat="45.15667570769586" lon="8.069972730801322"><ele>172.33333333333334</ele><time>2026-04-04T12:58:43Z</time></trkpt><trkpt lat="45.15673882498049" lon="8.07020469113632"><ele>172.0</ele><time>2026-04-04T12:58:44Z</time></trkpt><trkpt lat="45.15678962929521" lon="8.07040599529408"><ele>172.0</ele><time>2026-04-04T12:58:45Z</time></trkpt><trkpt lat="45.15685035742605" lon="8.070616641440852"><ele>172.0</ele><time>2026-04-04T12:58:46Z</time></trkpt><trkpt lat="45.15691365828742" lon="8.070835981531761"><ele>172.0</ele><time>2026-04-04T12:58:47Z</time></trkpt><trkpt lat="45.15697066214329" lon="8.07105344127473"><ele>172.0</ele><time>2026-04-04T12:58:48Z</time></trkpt><trkpt lat="45.15703103697326" lon="8.071273423209833"><ele>172.0</ele><time>2026-04-04T12:58:49Z</time></trkpt><trkpt lat="45.15709135244803" lon="8.071492343282223"><ele>172.0</ele><time>2026-04-04T12:58:50Z</time></trkpt><trkpt lat="45.15715091381992" lon="8.071709084499053"><ele>172.33333333333334</ele><time>2026-04-04T12:58:51Z</time></trkpt><trkpt lat="45.15720876139014" lon="8.07193200953201"><ele>172.66666666666666</ele><time>2026-04-04T12:58:52Z</time></trkpt><trkpt lat="45.15726644628272" lon="8.072151141071307"><ele>173.0</ele><time>2026-04-04T12:58:53Z</time></trkpt><trkpt lat="45.157327319280355" lon="8.072372954026223"><ele>172.66666666666666</ele><time>2026-04-04T12:58:54Z</time></trkpt><trkpt lat="45.15739029161535" lon="8.072595754800355"><ele>172.33333333333334</ele><time>2026-04-04T12:58:55Z</time></trkpt><trkpt lat="45.1574494761034" lon="8.072811521163231"><ele>172.0</ele><time>2026-04-04T12:58:56Z</time></trkpt><trkpt lat="45.15750345853482" lon="8.073012626157624"><ele>172.0</ele><time>2026-04-04T12:58:57Z</time></trkpt><trkpt lat="45.15755728931073" lon="8.073207899397522"><ele>172.0</ele><time>2026-04-04T12:58:58Z</time></trkpt><trkpt lat="45.157611813887215" lon="8.073391686148506"><ele>172.0</ele><time>2026-04-04T12:58:59Z</time></trkpt><trkpt lat="45.157662046763626" lon="8.073561240982084"><ele>172.0</ele><time>2026-04-04T12:59:00Z</time></trkpt><trkpt lat="45.15770065425375" lon="8.073716853652833"><ele>171.8</ele><time>2026-04-04T12:59:01Z</time></trkpt><trkpt lat="45.15772242720649" lon="8.073861206606367"><ele>171.6</ele><time>2026-04-04T12:59:02Z</time></trkpt><trkpt lat="45.15773843286511" lon="8.073995161541125"><ele>171.4</ele><time>2026-04-04T12:59:03Z</time></trkpt><trkpt lat="45.15775880744236" lon="8.074119360050348"><ele>171.20000000000002</ele><time>2026-04-04T12:59:04Z</time></trkpt><trkpt lat="45.15780000648254" lon="8.074212374490708"><ele>171.0</ele><time>2026-04-04T12:59:05Z</time></trkpt><trkpt lat="45.157899764404384" lon="8.074251697857724"><ele>171.0</ele><time>2026-04-04T12:59:07Z</time></trkpt><trkpt lat="45.15797824926744" lon="8.074189009848157"><ele>171.0</ele><time>2026-04-04T12:59:09Z</time></trkpt><trkpt lat="45.15799039773204" lon="8.074035147042974"><ele>171.0</ele><time>2026-04-04T12:59:11Z</time></trkpt><trkpt lat="45.15796493420031" lon="8.073931692775723"><ele>171.0</ele><time>2026-04-04T12:59:12Z</time></trkpt><trkpt lat="45.157893321448235" lon="8.073864415386849"><ele>171.0</ele><time>2026-04-04T12:59:13Z</time></trkpt><trkpt lat="45.15781875257406" lon="8.073878410131138"><ele>171.0</ele><time>2026-04-04T12:59:14Z</time></trkpt><trkpt lat="45.157772568542214" lon="8.073944120310014"><ele>171.0</ele><time>2026-04-04T12:59:15Z</time></trkpt><trkpt lat="45.15774857820218" lon="8.074096426829357"><ele>171.0</ele><time>2026-04-04T12:59:17Z</time></trkpt><trkpt lat="45.157782054678194" lon="8.074176708001158"><ele>171.0</ele><time>2026-04-04T12:59:18Z</time></trkpt><trkpt lat="45.15783625959268" lon="8.074237716611496"><ele>171.0</ele><time>2026-04-04T12:59:19Z</time></trkpt><trkpt lat="45.157899448572074" lon="8.074298718828432"><ele>171.0</ele><time>2026-04-04T12:59:20Z</time></trkpt><trkpt lat="45.157965279410426" lon="8.07437818376002"><ele>171.0</ele><time>2026-04-04T12:59:21Z</time></trkpt><trkpt lat="45.15803617591432" lon="8.07447745161009"><ele>171.0</ele><time>2026-04-04T12:59:22Z</time></trkpt><trkpt lat="45.158110299732286" lon="8.074596837332571"><ele>171.0</ele><time>2026-04-04T12:59:23Z</time></trkpt><trkpt lat="45.15819373507961" lon="8.074722127070716"><ele>171.0</ele><time>2026-04-04T12:59:24Z</time></trkpt><trkpt lat="45.15829108781895" lon="8.074854560999917"><ele>171.0</ele><time>2026-04-04T12:59:25Z</time></trkpt><trkpt lat="45.15839608595967" lon="8.074996610428329"><ele>171.33333333333334</ele><time>2026-04-04T12:59:26Z</time></trkpt><trkpt lat="45.15851943693011" lon="8.075136768367571"><ele>171.66666666666669</ele><time>2026-04-04T12:59:27Z</time></trkpt><trkpt lat="45.15864749917232" lon="8.07526776647189"><ele>172.0</ele><time>2026-04-04T12:59:28Z</time></trkpt><trkpt lat="45.1587835341905" lon="8.075402542143694"><ele>172.0</ele><time>2026-04-04T12:59:29Z</time></trkpt><trkpt lat="45.1589196773448" lon="8.075541448787908"><ele>172.0</ele><time>2026-04-04T12:59:30Z</time></trkpt><trkpt lat="45.159065272620204" lon="8.075685385899119"><ele>172.0</ele><time>2026-04-04T12:59:31Z</time></trkpt><trkpt lat="45.15921498094092" lon="8.075827181907965"><ele>170.66666666666669</ele><time>2026-04-04T12:59:32Z</time></trkpt><trkpt lat="45.159365453893265" lon="8.07597156540366"><ele>169.33333333333334</ele><time>2026-04-04T12:59:33Z</time></trkpt><trkpt lat="45.15951968637373" lon="8.076121092678234"><ele>168.0</ele><time>2026-04-04T12:59:34Z</time></trkpt><trkpt lat="45.15966930961884" lon="8.076270063510796"><ele>168.0</ele><time>2026-04-04T12:59:35Z</time></trkpt><trkpt lat="45.15982360888204" lon="8.07642325685691"><ele>168.0</ele><time>2026-04-04T12:59:36Z</time></trkpt><trkpt lat="45.15998233339525" lon="8.076579751741445"><ele>168.0</ele><time>2026-04-04T12:59:37Z</time></trkpt><trkpt lat="45.16013979920737" lon="8.076734984964272"><ele>167.33333333333334</ele><time>2026-04-04T12:59:38Z</time></trkpt><trkpt lat="45.1602983438937" lon="8.076889704823737"><ele>166.66666666666669</ele><time>2026-04-04T12:59:39Z</time></trkpt><trkpt lat="45.160458610201495" lon="8.077046650011042"><ele>166.0</ele><time>2026-04-04T12:59:40Z</time></trkpt><trkpt lat="45.160616769529106" lon="8.07720410711116"><ele>165.66666666666669</ele><time>2026-04-04T12:59:41Z</time></trkpt><trkpt lat="45.160774479340766" lon="8.077358707386198"><ele>165.33333333333334</ele><time>2026-04-04T12:59:42Z</time></trkpt><trkpt lat="45.16093014327236" lon="8.077511355555481"><ele>165.0</ele><time>2026-04-04T12:59:43Z</time></trkpt><trkpt lat="45.1610880702146" lon="8.07766359047618"><ele>165.66666666666666</ele><time>2026-04-04T12:59:44Z</time></trkpt><trkpt lat="45.16123877848823" lon="8.077807214854584"><ele>166.33333333333331</ele><time>2026-04-04T12:59:45Z</time></trkpt><trkpt lat="45.16138628430132" lon="8.07795200221241"><ele>167.0</ele><time>2026-04-04T12:59:46Z</time></trkpt><trkpt lat="45.161541468218346" lon="8.078104468989348"><ele>167.33333333333331</ele><time>2026-04-04T12:59:47Z</time></trkpt><trkpt lat="45.16169699776299" lon="8.078257747425143"><ele>167.66666666666666</ele><time>2026-04-04T12:59:48Z</time></trkpt><trkpt lat="45.161855594193135" lon="8.078411719801702"><ele>168.0</ele><time>2026-04-04T12:59:49Z</time></trkpt><trkpt lat="45.162022234409214" lon="8.07856772528636"><ele>168.0</ele><time>2026-04-04T12:59:50Z</time></trkpt><trkpt lat="45.162187608137906" lon="8.078726451134271"><ele>168.0</ele><time>2026-04-04T12:59:51Z</time></trkpt><trkpt lat="45.1623549386312" lon="8.078892476627422"><ele>168.0</ele><time>2026-04-04T12:59:52Z</time></trkpt><trkpt lat="45.162522011841915" lon="8.079060990645559"><ele>167.0</ele><time>2026-04-04T12:59:53Z</time></trkpt><trkpt lat="45.16269094961051" lon="8.079227034890591"><ele>166.0</ele><time>2026-04-04T12:59:54Z</time></trkpt><trkpt lat="45.162866668836834" lon="8.07939777480704"><ele>165.0</ele><time>2026-04-04T12:59:55Z</time></trkpt><trkpt lat="45.163039340476956" lon="8.079567535382663"><ele>164.33333333333334</ele><time>2026-04-04T12:59:56Z</time></trkpt><trkpt lat="45.16321459355776" lon="8.079736959322013"><ele>163.66666666666669</ele><time>2026-04-04T12:59:57Z</time></trkpt><trkpt lat="45.16339058881382" lon="8.07990389738264"><ele>163.0</ele><time>2026-04-04T12:59:58Z</time></trkpt><trkpt lat="45.1635613090329" lon="8.080069379934807"><ele>163.0</ele><time>2026-04-04T12:59:59Z</time></trkpt><trkpt lat="45.163727250514235" lon="8.080229326573301"><ele>163.0</ele><time>2026-04-04T13:00:00Z</time></trkpt><trkpt lat="45.16389370529313" lon="8.08038919735872"><ele>163.0</ele><time>2026-04-04T13:00:01Z</time></trkpt><trkpt lat="45.16406067343711" lon="8.080552005931029"><ele>163.0</ele><time>2026-04-04T13:00:02Z</time></trkpt><trkpt lat="45.16422386645401" lon="8.080714703793685"><ele>163.0</ele><time>2026-04-04T13:00:03Z</time></trkpt><trkpt lat="45.16438418182722" lon="8.080882945533189"><ele>163.0</ele><time>2026-04-04T13:00:04Z</time></trkpt><trkpt lat="45.16454845347561" lon="8.081057037746655"><ele>163.0</ele><time>2026-04-04T13:00:05Z</time></trkpt><trkpt lat="45.16470768348051" lon="8.081239580312523"><ele>163.0</ele><time>2026-04-04T13:00:06Z</time></trkpt><trkpt lat="45.16485443778651" lon="8.081435561568288"><ele>163.0</ele><time>2026-04-04T13:00:07Z</time></trkpt><trkpt lat="45.164995188442894" lon="8.081645425042462"><ele>162.0</ele><time>2026-04-04T13:00:08Z</time></trkpt><trkpt lat="45.165130437603295" lon="8.081859178157595"><ele>161.0</ele><time>2026-04-04T13:00:09Z</time></trkpt><trkpt lat="45.16526039255723" lon="8.082080469129865"><ele>160.0</ele><time>2026-04-04T13:00:10Z</time></trkpt><trkpt lat="45.16538459563881" lon="8.08231152524749"><ele>160.33333333333334</ele><time>2026-04-04T13:00:11Z</time></trkpt><trkpt lat="45.16550569984168" lon="8.082554416743394"><ele>160.66666666666666</ele><time>2026-04-04T13:00:12Z</time></trkpt><trkpt lat="45.165620174247444" lon="8.082809977568338"><ele>161.0</ele><time>2026-04-04T13:00:13Z</time></trkpt><trkpt lat="45.165724706908506" lon="8.083076282898503"><ele>159.66666666666666</ele><time>2026-04-04T13:00:14Z</time></trkpt><trkpt lat="45.16582580258884" lon="8.083348658157831"><ele>158.33333333333334</ele><time>2026-04-04T13:00:15Z</time></trkpt><trkpt lat="45.16592780439653" lon="8.083620089068908"><ele>157.0</ele><time>2026-04-04T13:00:16Z</time></trkpt><trkpt lat="45.16602563959106" lon="8.083896023495496"><ele>158.0</ele><time>2026-04-04T13:00:17Z</time></trkpt><trkpt lat="45.16612538427159" lon="8.084167263309215"><ele>159.0</ele><time>2026-04-04T13:00:18Z</time></trkpt><trkpt lat="45.16622365282578" lon="8.084440027265618"><ele>160.0</ele><time>2026-04-04T13:00:19Z</time></trkpt><trkpt lat="45.16632187159192" lon="8.084713992230704"><ele>160.0</ele><time>2026-04-04T13:00:20Z</time></trkpt><trkpt lat="45.166421940999726" lon="8.084979496590396"><ele>160.0</ele><time>2026-04-04T13:00:21Z</time></trkpt><trkpt lat="45.166519862329565" lon="8.085242897138702"><ele>160.0</ele><time>2026-04-04T13:00:22Z</time></trkpt><trkpt lat="45.16661504935753" lon="8.085503689515646"><ele>160.33333333333334</ele><time>2026-04-04T13:00:23Z</time></trkpt><trkpt lat="45.16670861800391" lon="8.085761550493464"><ele>160.66666666666666</ele><time>2026-04-04T13:00:24Z</time></trkpt><trkpt lat="45.166804545660526" lon="8.086014919905633"><ele>161.0</ele><time>2026-04-04T13:00:25Z</time></trkpt><trkpt lat="45.16689566956033" lon="8.08627218058332"><ele>160.0</ele><time>2026-04-04T13:00:26Z</time></trkpt><trkpt lat="45.16699000951002" lon="8.086524319657402"><ele>159.0</ele><time>2026-04-04T13:00:27Z</time></trkpt><trkpt lat="45.16709111517453" lon="8.086774054056622"><ele>158.0</ele><time>2026-04-04T13:00:28Z</time></trkpt><trkpt lat="45.167192982115786" lon="8.087012823680567"><ele>158.0</ele><time>2026-04-04T13:00:29Z</time></trkpt><trkpt lat="45.167296996764165" lon="8.087258905459711"><ele>158.0</ele><time>2026-04-04T13:00:30Z</time></trkpt><trkpt lat="45.167404605408215" lon="8.087494489452967"><ele>158.0</ele><time>2026-04-04T13:00:31Z</time></trkpt><trkpt lat="45.1675193013267" lon="8.087724920698824"><ele>158.33333333333331</ele><time>2026-04-04T13:00:32Z</time></trkpt><trkpt lat="45.16763547025178" lon="8.08795592979938"><ele>158.66666666666666</ele><time>2026-04-04T13:00:33Z</time></trkpt><trkpt lat="45.16776010430272" lon="8.088183911005583"><ele>159.0</ele><time>2026-04-04T13:00:34Z</time></trkpt><trkpt lat="45.16788549469339" lon="8.088408902056367"><ele>159.0</ele><time>2026-04-04T13:00:35Z</time></trkpt><trkpt lat="45.16801654306531" lon="8.088637650188613"><ele>159.0</ele><time>2026-04-04T13:00:36Z</time></trkpt><trkpt lat="45.168151791741636" lon="8.088861806097414"><ele>159.0</ele><time>2026-04-04T13:00:37Z</time></trkpt><trkpt lat="45.168293721447384" lon="8.08908384669194"><ele>157.33333333333334</ele><time>2026-04-04T13:00:38Z</time></trkpt><trkpt lat="45.168437136237976" lon="8.089298466492117"><ele>155.66666666666669</ele><time>2026-04-04T13:00:39Z</time></trkpt><trkpt lat="45.16858300019926" lon="8.089516249649416"><ele>154.0</ele><time>2026-04-04T13:00:40Z</time></trkpt><trkpt lat="45.168727933225384" lon="8.089737597455088"><ele>154.33333333333334</ele><time>2026-04-04T13:00:41Z</time></trkpt><trkpt lat="45.16887509850956" lon="8.089960669986295"><ele>154.66666666666666</ele><time>2026-04-04T13:00:42Z</time></trkpt><trkpt lat="45.16902273720892" lon="8.09018176020036"><ele>155.0</ele><time>2026-04-04T13:00:43Z</time></trkpt><trkpt lat="45.169172362467904" lon="8.090405913883306"><ele>154.0</ele><time>2026-04-04T13:00:44Z</time></trkpt><trkpt lat="45.16932181277275" lon="8.090629638098372"><ele>153.0</ele><time>2026-04-04T13:00:45Z</time></trkpt><trkpt lat="45.16947337546907" lon="8.090854483969322"><ele>152.0</ele><time>2026-04-04T13:00:46Z</time></trkpt><trkpt lat="45.16962602466106" lon="8.091085126507044"><ele>152.0</ele><time>2026-04-04T13:00:47Z</time></trkpt><trkpt lat="45.169778884832645" lon="8.091318705358887"><ele>152.0</ele><time>2026-04-04T13:00:48Z</time></trkpt><trkpt lat="45.169932820421856" lon="8.091553571018464"><ele>153.0</ele><time>2026-04-04T13:00:49Z</time></trkpt><trkpt lat="45.17008914652576" lon="8.091785906681292"><ele>154.0</ele><time>2026-04-04T13:00:50Z</time></trkpt><trkpt lat="45.1702452447017" lon="8.092014421246237"><ele>154.0</ele><time>2026-04-04T13:00:51Z</time></trkpt><trkpt lat="45.17040190597422" lon="8.092245333817008"><ele>154.0</ele><time>2026-04-04T13:00:52Z</time></trkpt><trkpt lat="45.170558253600554" lon="8.092484545861753"><ele>153.5</ele><time>2026-04-04T13:00:53Z</time></trkpt><trkpt lat="45.170716043838134" lon="8.092723602083414"><ele>153.0</ele><time>2026-04-04T13:00:54Z</time></trkpt><trkpt lat="45.170869762355196" lon="8.092962086190765"><ele>153.0</ele><time>2026-04-04T13:00:55Z</time></trkpt><trkpt lat="45.17102935818625" lon="8.093202284717695"><ele>153.0</ele><time>2026-04-04T13:00:56Z</time></trkpt><trkpt lat="45.17119200001293" lon="8.0934394717458"><ele>154.5</ele><time>2026-04-04T13:00:57Z</time></trkpt><trkpt lat="45.171348689829586" lon="8.09367805388684"><ele>156.0</ele><time>2026-04-04T13:00:58Z</time></trkpt><trkpt lat="45.17150657122582" lon="8.093921452428427"><ele>154.5</ele><time>2026-04-04T13:00:59Z</time></trkpt><trkpt lat="45.17166807146935" lon="8.094170283806546"><ele>153.0</ele><time>2026-04-04T13:01:00Z</time></trkpt><trkpt lat="45.17183242519036" lon="8.094420612445582"><ele>153.0</ele><time>2026-04-04T13:01:01Z</time></trkpt><trkpt lat="45.17199213364625" lon="8.09466466956801"><ele>153.0</ele><time>2026-04-04T13:01:02Z</time></trkpt><trkpt lat="45.17215728208886" lon="8.094911404108883"><ele>153.0</ele><time>2026-04-04T13:01:03Z</time></trkpt><trkpt lat="45.17232054577315" lon="8.095153796206779"><ele>153.0</ele><time>2026-04-04T13:01:04Z</time></trkpt><trkpt lat="45.17248383292767" lon="8.095397746079797"><ele>153.0</ele><time>2026-04-04T13:01:05Z</time></trkpt><trkpt lat="45.172648348205094" lon="8.095642893642852"><ele>153.0</ele><time>2026-04-04T13:01:06Z</time></trkpt><trkpt lat="45.17281214931493" lon="8.095886238439398"><ele>155.0</ele><time>2026-04-04T13:01:07Z</time></trkpt><trkpt lat="45.17297401298482" lon="8.09613158365837"><ele>157.0</ele><time>2026-04-04T13:01:08Z</time></trkpt><trkpt lat="45.17312977387136" lon="8.096384093075374"><ele>161.0</ele><time>2026-04-04T13:01:09Z</time></trkpt><trkpt lat="45.1732785767327" lon="8.096644250303108"><ele>165.0</ele><time>2026-04-04T13:01:10Z</time></trkpt><trkpt lat="45.1734181285899" lon="8.096913170616661"><ele>165.0</ele><time>2026-04-04T13:01:11Z</time></trkpt><trkpt lat="45.17354650803429" lon="8.097202074849267"><ele>165.0</ele><time>2026-04-04T13:01:12Z</time></trkpt><trkpt lat="45.173673041945875" lon="8.097487871150541"><ele>165.0</ele><time>2026-04-04T13:01:13Z</time></trkpt><trkpt lat="45.173799031284965" lon="8.097751335446622"><ele>165.0</ele><time>2026-04-04T13:01:14Z</time></trkpt><trkpt lat="45.17393655846012" lon="8.09799060216342"><ele>165.0</ele><time>2026-04-04T13:01:15Z</time></trkpt><trkpt lat="45.17407210176991" lon="8.098200389478489"><ele>164.66666666666666</ele><time>2026-04-04T13:01:16Z</time></trkpt><trkpt lat="45.174216273119455" lon="8.098367915580006"><ele>164.33333333333331</ele><time>2026-04-04T13:01:17Z</time></trkpt><trkpt lat="45.17438168440631" lon="8.09849927029563"><ele>164.0</ele><time>2026-04-04T13:01:18Z</time></trkpt><trkpt lat="45.174562781595434" lon="8.098608649758154"><ele>164.0</ele><time>2026-04-04T13:01:19Z</time></trkpt><trkpt lat="45.17474686105268" lon="8.098684428833575"><ele>164.0</ele><time>2026-04-04T13:01:20Z</time></trkpt><trkpt lat="45.1749392235543" lon="8.098727384300005"><ele>164.0</ele><time>2026-04-04T13:01:21Z</time></trkpt><trkpt lat="45.17513077349864" lon="8.098753115664366"><ele>161.33333333333331</ele><time>2026-04-04T13:01:22Z</time></trkpt><trkpt lat="45.17530588409317" lon="8.098784436220088"><ele>158.66666666666666</ele><time>2026-04-04T13:01:23Z</time></trkpt><trkpt lat="45.17546175981622" lon="8.098816610953858"><ele>156.0</ele><time>2026-04-04T13:01:24Z</time></trkpt><trkpt lat="45.17561562490363" lon="8.098844774461055"><ele>154.33333333333334</ele><time>2026-04-04T13:01:25Z</time></trkpt><trkpt lat="45.17577327328904" lon="8.098875725067467"><ele>152.66666666666669</ele><time>2026-04-04T13:01:26Z</time></trkpt><trkpt lat="45.175921032595255" lon="8.098910570024902"><ele>151.0</ele><time>2026-04-04T13:01:27Z</time></trkpt><trkpt lat="45.17606183420804" lon="8.098944944015201"><ele>151.0</ele><time>2026-04-04T13:01:28Z</time></trkpt><trkpt lat="45.17617625552956" lon="8.098972710336508"><ele>151.0</ele><time>2026-04-04T13:01:29Z</time></trkpt><trkpt lat="45.17624891548556" lon="8.098991267316782"><ele>151.0</ele><time>2026-04-04T13:01:30Z</time></trkpt><trkpt lat="45.17632025177108" lon="8.099016057595975"><ele>151.0</ele><time>2026-04-04T13:01:48Z</time></trkpt><trkpt lat="45.17641216179169" lon="8.099036552960223"><ele>151.0</ele><time>2026-04-04T13:01:51Z</time></trkpt><trkpt lat="45.17650288767855" lon="8.099053817704709"><ele>151.0</ele><time>2026-04-04T13:01:53Z</time></trkpt><trkpt lat="45.176599892173265" lon="8.099074916765467"><ele>150.4</ele><time>2026-04-04T13:01:55Z</time></trkpt><trkpt lat="45.17669609406386" lon="8.099097957941426"><ele>149.8</ele><time>2026-04-04T13:01:57Z</time></trkpt><trkpt lat="45.17681499452327" lon="8.099091742585832"><ele>149.20000000000002</ele><time>2026-04-04T13:01:59Z</time></trkpt><trkpt lat="45.17693426156832" lon="8.099099974060595"><ele>148.6</ele><time>2026-04-04T13:02:01Z</time></trkpt><trkpt lat="45.17700102833741" lon="8.099115035166147"><ele>148.0</ele><time>2026-04-04T13:02:02Z</time></trkpt><trkpt lat="45.17707919853658" lon="8.099135047389613"><ele>148.0</ele><time>2026-04-04T13:02:03Z</time></trkpt><trkpt lat="45.17716153100582" lon="8.099153941690368"><ele>148.0</ele><time>2026-04-04T13:02:04Z</time></trkpt><trkpt lat="45.17724543039425" lon="8.09917602168377"><ele>148.0</ele><time>2026-04-04T13:02:05Z</time></trkpt><trkpt lat="45.17733575406118" lon="8.099199773720688"><ele>148.0</ele><time>2026-04-04T13:02:06Z</time></trkpt><trkpt lat="45.177430302728254" lon="8.099222663720733"><ele>148.0</ele><time>2026-04-04T13:02:07Z</time></trkpt><trkpt lat="45.17753148256014" lon="8.099244661687008"><ele>148.0</ele><time>2026-04-04T13:02:08Z</time></trkpt><trkpt lat="45.17763293720867" lon="8.099311459568662"><ele>148.0</ele><time>2026-04-04T13:02:09Z</time></trkpt><trkpt lat="45.177737928862825" lon="8.099335637663312"><ele>148.0</ele><time>2026-04-04T13:02:10Z</time></trkpt><trkpt lat="45.17784607400134" lon="8.099361508040515"><ele>148.0</ele><time>2026-04-04T13:02:11Z</time></trkpt><trkpt lat="45.17795589883233" lon="8.099387780218791"><ele>148.0</ele><time>2026-04-04T13:02:12Z</time></trkpt><trkpt lat="45.178068927680584" lon="8.099414818868157"><ele>148.0</ele><time>2026-04-04T13:02:13Z</time></trkpt><trkpt lat="45.178189098957645" lon="8.09944356612367"><ele>148.0</ele><time>2026-04-04T13:02:14Z</time></trkpt><trkpt lat="45.17831896161711" lon="8.099474455829185"><ele>148.0</ele><time>2026-04-04T13:02:15Z</time></trkpt><trkpt lat="45.178451667960196" lon="8.099504991357874"><ele>148.0</ele><time>2026-04-04T13:02:16Z</time></trkpt><trkpt lat="45.178589033408855" lon="8.099535224488008"><ele>148.0</ele><time>2026-04-04T13:02:17Z</time></trkpt><trkpt lat="45.1787348996582" lon="8.099578906842765"><ele>148.0</ele><time>2026-04-04T13:02:18Z</time></trkpt><trkpt lat="45.17888475899058" lon="8.099614750616372"><ele>148.0</ele><time>2026-04-04T13:02:19Z</time></trkpt><trkpt lat="45.179039323701026" lon="8.099649213285343"><ele>147.66666666666669</ele><time>2026-04-04T13:02:20Z</time></trkpt><trkpt lat="45.1791907028042" lon="8.09968595853295"><ele>147.33333333333334</ele><time>2026-04-04T13:02:21Z</time></trkpt><trkpt lat="45.17934508100522" lon="8.099726332899838"><ele>147.0</ele><time>2026-04-04T13:02:22Z</time></trkpt><trkpt lat="45.179494216127324" lon="8.099761364342871"><ele>147.0</ele><time>2026-04-04T13:02:23Z</time></trkpt><trkpt lat="45.1796424991831" lon="8.099794298081774"><ele>147.0</ele><time>2026-04-04T13:02:24Z</time></trkpt><trkpt lat="45.179800320505905" lon="8.0998303434177"><ele>147.0</ele><time>2026-04-04T13:02:25Z</time></trkpt><trkpt lat="45.17995444980681" lon="8.0998669653305"><ele>148.0</ele><time>2026-04-04T13:02:26Z</time></trkpt><trkpt lat="45.180111691233144" lon="8.099899894178032"><ele>149.0</ele><time>2026-04-04T13:02:27Z</time></trkpt><trkpt lat="45.180271758422535" lon="8.099935124474316"><ele>150.0</ele><time>2026-04-04T13:02:28Z</time></trkpt><trkpt lat="45.18043341329415" lon="8.099970322929666"><ele>150.33333333333334</ele><time>2026-04-04T13:02:29Z</time></trkpt><trkpt lat="45.18059450881084" lon="8.100007902231154"><ele>150.66666666666669</ele><time>2026-04-04T13:02:30Z</time></trkpt><trkpt lat="45.180766176723004" lon="8.100046541639669"><ele>151.0</ele><time>2026-04-04T13:02:31Z</time></trkpt><trkpt lat="45.18093440341849" lon="8.10008775894658"><ele>151.33333333333334</ele><time>2026-04-04T13:02:32Z</time></trkpt><trkpt lat="45.181112731524415" lon="8.100130698972295"><ele>151.66666666666666</ele><time>2026-04-04T13:02:33Z</time></trkpt><trkpt lat="45.181275329202656" lon="8.100170693785781"><ele>152.0</ele><time>2026-04-04T13:02:34Z</time></trkpt><trkpt lat="45.181443813176735" lon="8.100211331076054"><ele>152.66666666666666</ele><time>2026-04-04T13:02:35Z</time></trkpt><trkpt lat="45.18160668338083" lon="8.100252824244874"><ele>153.33333333333334</ele><time>2026-04-04T13:02:36Z</time></trkpt><trkpt lat="45.18177174597274" lon="8.100297292524038"><ele>154.0</ele><time>2026-04-04T13:02:37Z</time></trkpt><trkpt lat="45.181938664820926" lon="8.10033344947474"><ele>154.0</ele><time>2026-04-04T13:02:38Z</time></trkpt><trkpt lat="45.182104484561364" lon="8.100365952401676"><ele>154.0</ele><time>2026-04-04T13:02:39Z</time></trkpt><trkpt lat="45.18227359591212" lon="8.100404742482139"><ele>154.0</ele><time>2026-04-04T13:02:40Z</time></trkpt><trkpt lat="45.18244214907555" lon="8.100443771527658"><ele>155.0</ele><time>2026-04-04T13:02:41Z</time></trkpt><trkpt lat="45.18260775900061" lon="8.100478994650812"><ele>156.0</ele><time>2026-04-04T13:02:42Z</time></trkpt><trkpt lat="45.18277261642314" lon="8.100522110221055"><ele>157.0</ele><time>2026-04-04T13:02:43Z</time></trkpt><trkpt lat="45.182935091533366" lon="8.10056459627163"><ele>157.0</ele><time>2026-04-04T13:02:44Z</time></trkpt><trkpt lat="45.183099606231615" lon="8.100604238957569"><ele>157.0</ele><time>2026-04-04T13:02:45Z</time></trkpt><trkpt lat="45.18326505728689" lon="8.100641636193426"><ele>157.0</ele><time>2026-04-04T13:02:46Z</time></trkpt><trkpt lat="45.1834287096796" lon="8.100675511232959"><ele>156.66666666666669</ele><time>2026-04-04T13:02:47Z</time></trkpt><trkpt lat="45.183586446941156" lon="8.100712650889035"><ele>156.33333333333334</ele><time>2026-04-04T13:02:48Z</time></trkpt><trkpt lat="45.183744388876185" lon="8.100752343580341"><ele>156.0</ele><time>2026-04-04T13:02:49Z</time></trkpt><trkpt lat="45.18389875123649" lon="8.100789463121115"><ele>154.75</ele><time>2026-04-04T13:02:50Z</time></trkpt><trkpt lat="45.18405080603683" lon="8.100825438357765"><ele>153.5</ele><time>2026-04-04T13:02:51Z</time></trkpt><trkpt lat="45.18419098908109" lon="8.100858677809567"><ele>152.25</ele><time>2026-04-04T13:02:52Z</time></trkpt><trkpt lat="45.18431714644327" lon="8.100887596374141"><ele>151.0</ele><time>2026-04-04T13:02:53Z</time></trkpt><trkpt lat="45.1844405613526" lon="8.100914667197072"><ele>151.0</ele><time>2026-04-04T13:02:54Z</time></trkpt><trkpt lat="45.18455084648953" lon="8.100936986254707"><ele>151.0</ele><time>2026-04-04T13:02:55Z</time></trkpt><trkpt lat="45.1846294042817" lon="8.100956167706439"><ele>151.0</ele><time>2026-04-04T13:02:56Z</time></trkpt><trkpt lat="45.18470718965861" lon="8.100979722944272"><ele>151.0</ele><time>2026-04-04T13:02:57Z</time></trkpt><trkpt lat="45.18478094009448" lon="8.100991686534194"><ele>151.0</ele><time>2026-04-04T13:02:58Z</time></trkpt><trkpt lat="45.184853815615206" lon="8.101002059721303"><ele>151.0</ele><time>2026-04-04T13:02:59Z</time></trkpt><trkpt lat="45.184931265774345" lon="8.101013614123621"><ele>151.0</ele><time>2026-04-04T13:03:00Z</time></trkpt><trkpt lat="45.185014040174444" lon="8.101028184178018"><ele>151.0</ele><time>2026-04-04T13:03:01Z</time></trkpt><trkpt lat="45.18509129178842" lon="8.101035214999804"><ele>151.0</ele><time>2026-04-04T13:03:02Z</time></trkpt><trkpt lat="45.18515628201941" lon="8.10104542357275"><ele>151.0</ele><time>2026-04-04T13:03:03Z</time></trkpt><trkpt lat="45.1852282846984" lon="8.10105300695641"><ele>151.0</ele><time>2026-04-04T13:03:05Z</time></trkpt><trkpt lat="45.18531009790695" lon="8.101064159131719"><ele>151.0</ele><time>2026-04-04T13:03:07Z</time></trkpt><trkpt lat="45.18542624080624" lon="8.101103332772787"><ele>151.0</ele><time>2026-04-04T13:03:09Z</time></trkpt><trkpt lat="45.18554234739476" lon="8.101140624163431"><ele>151.0</ele><time>2026-04-04T13:03:11Z</time></trkpt><trkpt lat="45.18561418893824" lon="8.101158311775544"><ele>151.0</ele><time>2026-04-04T13:03:12Z</time></trkpt><trkpt lat="45.185685841887725" lon="8.101175956173291"><ele>151.0</ele><time>2026-04-04T13:03:13Z</time></trkpt><trkpt lat="45.18575289333803" lon="8.101203421558884"><ele>151.0</ele><time>2026-04-04T13:03:14Z</time></trkpt><trkpt lat="45.185817519863086" lon="8.10123808092096"><ele>151.0</ele><time>2026-04-04T13:03:15Z</time></trkpt><trkpt lat="45.18586804161987" lon="8.101296022599445"><ele>151.00000000000003</ele><time>2026-04-04T13:03:16Z</time></trkpt><trkpt lat="45.18592674798652" lon="8.101338241580063"><ele>151.0</ele><time>2026-04-04T13:03:17Z</time></trkpt><trkpt lat="45.18596866455045" lon="8.101411398672754"><ele>151.0</ele><time>2026-04-04T13:03:18Z</time></trkpt><trkpt lat="45.18600373368513" lon="8.101485690352856"><ele>151.0</ele><time>2026-04-04T13:03:19Z</time></trkpt><trkpt lat="45.18599146277996" lon="8.101609651577908"><ele>151.0</ele><time>2026-04-04T13:03:20Z</time></trkpt><trkpt lat="45.1860068017301" lon="8.101714984184648"><ele>151.00000000000003</ele><time>2026-04-04T13:03:21Z</time></trkpt><trkpt lat="45.18601408810286" lon="8.101838611603911"><ele>151.0</ele><time>2026-04-04T13:03:22Z</time></trkpt><trkpt lat="45.18601790873276" lon="8.101977262880903"><ele>151.0</ele><time>2026-04-04T13:03:23Z</time></trkpt><trkpt lat="45.18602409257332" lon="8.102133470188896"><ele>151.0</ele><time>2026-04-04T13:03:24Z</time></trkpt><trkpt lat="45.18603558122708" lon="8.102303038489298"><ele>151.0</ele><time>2026-04-04T13:03:25Z</time></trkpt><trkpt lat="45.186046319906524" lon="8.102474702949205"><ele>151.0</ele><time>2026-04-04T13:03:26Z</time></trkpt><trkpt lat="45.18605879103976" lon="8.102661856623527"><ele>151.0</ele><time>2026-04-04T13:03:27Z</time></trkpt><trkpt lat="45.18607054740845" lon="8.102858332948534"><ele>151.0</ele><time>2026-04-04T13:03:28Z</time></trkpt><trkpt lat="45.186085349204085" lon="8.103055757393463"><ele>151.0</ele><time>2026-04-04T13:03:29Z</time></trkpt><trkpt lat="45.18611555538477" lon="8.103247530172306"><ele>151.0</ele><time>2026-04-04T13:03:30Z</time></trkpt><trkpt lat="45.1861800100216" lon="8.10342717317107"><ele>150.75</ele><time>2026-04-04T13:03:31Z</time></trkpt><trkpt lat="45.18626441224506" lon="8.103585980726752"><ele>150.5</ele><time>2026-04-04T13:03:32Z</time></trkpt><trkpt lat="45.18631952895751" lon="8.103732558727625"><ele>150.25</ele><time>2026-04-04T13:03:33Z</time></trkpt><trkpt lat="45.18633009268719" lon="8.103882684851111"><ele>150.0</ele><time>2026-04-04T13:03:34Z</time></trkpt><trkpt lat="45.18630534747797" lon="8.104028382300378"><ele>150.0</ele><time>2026-04-04T13:03:35Z</time></trkpt><trkpt lat="45.18624898119188" lon="8.104144722451304"><ele>150.0</ele><time>2026-04-04T13:03:36Z</time></trkpt><trkpt lat="45.18616644253871" lon="8.104230093460123"><ele>150.0</ele><time>2026-04-04T13:03:37Z</time></trkpt><trkpt lat="45.18607084124258" lon="8.104276274009656"><ele>150.0</ele><time>2026-04-04T13:03:38Z</time></trkpt><trkpt lat="45.18597477036009" lon="8.104265826133828"><ele>150.0</ele><time>2026-04-04T13:03:39Z</time></trkpt><trkpt lat="45.18588912685137" lon="8.104209945192675"><ele>150.0</ele><time>2026-04-04T13:03:40Z</time></trkpt><trkpt lat="45.18581678486326" lon="8.104114905507918"><ele>150.0</ele><time>2026-04-04T13:03:41Z</time></trkpt><trkpt lat="45.185768151967956" lon="8.103985958852139"><ele>150.0</ele><time>2026-04-04T13:03:42Z</time></trkpt><trkpt lat="45.18574937364218" lon="8.103818529657724"><ele>150.0</ele><time>2026-04-04T13:03:43Z</time></trkpt><trkpt lat="45.18575067893461" lon="8.10363597390143"><ele>150.0</ele><time>2026-04-04T13:03:44Z</time></trkpt><trkpt lat="45.185747998794035" lon="8.103434455316703"><ele>150.0</ele><time>2026-04-04T13:03:45Z</time></trkpt><trkpt lat="45.185734941656044" lon="8.103202235026453"><ele>150.0</ele><time>2026-04-04T13:03:46Z</time></trkpt><trkpt lat="45.185721973874564" lon="8.102959690074039"><ele>150.33333333333334</ele><time>2026-04-04T13:03:47Z</time></trkpt><trkpt lat="45.18571518100243" lon="8.102702138677458"><ele>150.66666666666669</ele><time>2026-04-04T13:03:48Z</time></trkpt><trkpt lat="45.1857169903704" lon="8.10242731326345"><ele>151.0</ele><time>2026-04-04T13:03:49Z</time></trkpt><trkpt lat="45.18574057107003" lon="8.102132469144065"><ele>151.0</ele><time>2026-04-04T13:03:50Z</time></trkpt><trkpt lat="45.18575342976114" lon="8.101847440023477"><ele>151.0</ele><time>2026-04-04T13:03:51Z</time></trkpt><trkpt lat="45.185773699709465" lon="8.101554715425928"><ele>151.0</ele><time>2026-04-04T13:03:52Z</time></trkpt><trkpt lat="45.185784246496716" lon="8.10124250509778"><ele>151.0</ele><time>2026-04-04T13:03:53Z</time></trkpt><trkpt lat="45.18581527946138" lon="8.100924269478178"><ele>151.0</ele><time>2026-04-04T13:03:54Z</time></trkpt><trkpt lat="45.185848850404945" lon="8.100603467985684"><ele>151.0</ele><time>2026-04-04T13:03:55Z</time></trkpt><trkpt lat="45.185906728819" lon="8.100282763642946"><ele>151.0</ele><time>2026-04-04T13:03:56Z</time></trkpt><trkpt lat="45.18595581899325" lon="8.099940198289014"><ele>150.5</ele><time>2026-04-04T13:03:57Z</time></trkpt><trkpt lat="45.185996772611674" lon="8.099570448398632"><ele>150.0</ele><time>2026-04-04T13:03:58Z</time></trkpt><trkpt lat="45.1860652367454" lon="8.099193510635887"><ele>150.5</ele><time>2026-04-04T13:03:59Z</time></trkpt><trkpt lat="45.18614229763857" lon="8.098802365454386"><ele>151.0</ele><time>2026-04-04T13:04:00Z</time></trkpt><trkpt lat="45.186225644372705" lon="8.098406738004329"><ele>151.0</ele><time>2026-04-04T13:04:01Z</time></trkpt><trkpt lat="45.186335173454225" lon="8.098026902481877"><ele>151.0</ele><time>2026-04-04T13:04:02Z</time></trkpt><trkpt lat="45.186433667012885" lon="8.097647025080613"><ele>151.0</ele><time>2026-04-04T13:04:03Z</time></trkpt><trkpt lat="45.18653932529374" lon="8.097278340609796"><ele>151.0</ele><time>2026-04-04T13:04:04Z</time></trkpt><trkpt lat="45.186650500070954" lon="8.096920582102959"><ele>151.0</ele><time>2026-04-04T13:04:05Z</time></trkpt><trkpt lat="45.18676520608178" lon="8.096569727652243"><ele>151.0</ele><time>2026-04-04T13:04:06Z</time></trkpt><trkpt lat="45.18688486495213" lon="8.096221239142551"><ele>151.0</ele><time>2026-04-04T13:04:07Z</time></trkpt><trkpt lat="45.18701439165392" lon="8.095871785525205"><ele>151.0</ele><time>2026-04-04T13:04:08Z</time></trkpt><trkpt lat="45.18714537333474" lon="8.09553558213295"><ele>151.0</ele><time>2026-04-04T13:04:09Z</time></trkpt><trkpt lat="45.18726659682385" lon="8.09520136066725"><ele>151.0</ele><time>2026-04-04T13:04:10Z</time></trkpt><trkpt lat="45.187406329308956" lon="8.094890254870013"><ele>151.0</ele><time>2026-04-04T13:04:11Z</time></trkpt><trkpt lat="45.18754610365118" lon="8.094556934890507"><ele>151.0</ele><time>2026-04-04T13:04:12Z</time></trkpt><trkpt lat="45.18770648712563" lon="8.09422497397319"><ele>150.5</ele><time>2026-04-04T13:04:13Z</time></trkpt><trkpt lat="45.187863963621695" lon="8.093866489564743"><ele>150.0</ele><time>2026-04-04T13:04:14Z</time></trkpt><trkpt lat="45.18801937714976" lon="8.09351675725949"><ele>150.0</ele><time>2026-04-04T13:04:15Z</time></trkpt><trkpt lat="45.188175031879936" lon="8.09316065973546"><ele>150.0</ele><time>2026-04-04T13:04:16Z</time></trkpt><trkpt lat="45.18833571353112" lon="8.092789969467894"><ele>150.5</ele><time>2026-04-04T13:04:17Z</time></trkpt><trkpt lat="45.18850242331991" lon="8.092405372336552"><ele>151.0</ele><time>2026-04-04T13:04:18Z</time></trkpt><trkpt lat="45.188672054088464" lon="8.092018341543056"><ele>151.0</ele><time>2026-04-04T13:04:19Z</time></trkpt><trkpt lat="45.18883662410411" lon="8.091642298598853"><ele>151.0</ele><time>2026-04-04T13:04:20Z</time></trkpt><trkpt lat="45.188993848063326" lon="8.091279406903057"><ele>152.5</ele><time>2026-04-04T13:04:21Z</time></trkpt><trkpt lat="45.18914774728764" lon="8.09092709109827"><ele>154.0</ele><time>2026-04-04T13:04:22Z</time></trkpt><trkpt lat="45.18929596849209" lon="8.090587400236315"><ele>154.0</ele><time>2026-04-04T13:04:23Z</time></trkpt><trkpt lat="45.18943893844459" lon="8.090259672631658"><ele>154.0</ele><time>2026-04-04T13:04:24Z</time></trkpt><trkpt lat="45.18958120964278" lon="8.089933546789755"><ele>154.0</ele><time>2026-04-04T13:04:25Z</time></trkpt><trkpt lat="45.18972331168124" lon="8.089607808712719"><ele>154.0</ele><time>2026-04-04T13:04:26Z</time></trkpt><trkpt lat="45.18986672003389" lon="8.089279331764514"><ele>154.0</ele><time>2026-04-04T13:04:27Z</time></trkpt><trkpt lat="45.190011076990295" lon="8.088948933915944"><ele>154.0</ele><time>2026-04-04T13:04:28Z</time></trkpt><trkpt lat="45.1901583322508" lon="8.088611742571622"><ele>154.0</ele><time>2026-04-04T13:04:29Z</time></trkpt><trkpt lat="45.190308674734375" lon="8.088267266327012"><ele>154.0</ele><time>2026-04-04T13:04:30Z</time></trkpt><trkpt lat="45.19046396247687" lon="8.087911459028787"><ele>154.5</ele><time>2026-04-04T13:04:31Z</time></trkpt><trkpt lat="45.19060955883579" lon="8.087577857461776"><ele>155.0</ele><time>2026-04-04T13:04:32Z</time></trkpt><trkpt lat="45.19074828789826" lon="8.087259990797834"><ele>155.0</ele><time>2026-04-04T13:04:33Z</time></trkpt><trkpt lat="45.19088117945032" lon="8.086955148975097"><ele>155.0</ele><time>2026-04-04T13:04:34Z</time></trkpt><trkpt lat="45.19102036338239" lon="8.086635541427084"><ele>155.0</ele><time>2026-04-04T13:04:35Z</time></trkpt><trkpt lat="45.191162723756236" lon="8.086308639856233"><ele>155.0</ele><time>2026-04-04T13:04:36Z</time></trkpt><trkpt lat="45.19132049524758" lon="8.085946366788594"><ele>155.0</ele><time>2026-04-04T13:04:37Z</time></trkpt><trkpt lat="45.191492549391484" lon="8.085553193494615"><ele>155.0</ele><time>2026-04-04T13:04:38Z</time></trkpt><trkpt lat="45.191674250072296" lon="8.085137977280155"><ele>154.5</ele><time>2026-04-04T13:04:39Z</time></trkpt><trkpt lat="45.191861057436874" lon="8.084711089242793"><ele>154.0</ele><time>2026-04-04T13:04:40Z</time></trkpt><trkpt lat="45.19204349241905" lon="8.084294205542934"><ele>155.0</ele><time>2026-04-04T13:04:41Z</time></trkpt><trkpt lat="45.192214355465886" lon="8.08390387513771"><ele>156.0</ele><time>2026-04-04T13:04:42Z</time></trkpt><trkpt lat="45.192373196434154" lon="8.083541009320717"><ele>155.5</ele><time>2026-04-04T13:04:43Z</time></trkpt><trkpt lat="45.19251839818468" lon="8.0832075132406"><ele>155.0</ele><time>2026-04-04T13:04:44Z</time></trkpt><trkpt lat="45.192648388171406" lon="8.082903511999408"><ele>155.0</ele><time>2026-04-04T13:04:45Z</time></trkpt><trkpt lat="45.19276102091195" lon="8.082623562158908"><ele>155.0</ele><time>2026-04-04T13:04:46Z</time></trkpt><trkpt lat="45.192857169802274" lon="8.082364817540137"><ele>155.0</ele><time>2026-04-04T13:04:47Z</time></trkpt><trkpt lat="45.1929308378457" lon="8.082145852246054"><ele>155.0</ele><time>2026-04-04T13:04:48Z</time></trkpt><trkpt lat="45.19299561403497" lon="8.081948291883986"><ele>155.0</ele><time>2026-04-04T13:04:49Z</time></trkpt><trkpt lat="45.193055001013654" lon="8.081765761216902"><ele>155.0</ele><time>2026-04-04T13:04:50Z</time></trkpt><trkpt lat="45.19309540765188" lon="8.081607944419888"><ele>155.0</ele><time>2026-04-04T13:04:51Z</time></trkpt><trkpt lat="45.19316029560509" lon="8.081504039149028"><ele>155.6</ele><time>2026-04-04T13:04:52Z</time></trkpt><trkpt lat="45.193241713998994" lon="8.081452484735268"><ele>156.2</ele><time>2026-04-04T13:04:53Z</time></trkpt><trkpt lat="45.19332101636419" lon="8.081461181937668"><ele>156.8</ele><time>2026-04-04T13:04:54Z</time></trkpt><trkpt lat="45.19339706994566" lon="8.081527443653954"><ele>157.4</ele><time>2026-04-04T13:04:55Z</time></trkpt><trkpt lat="45.193463189351256" lon="8.081637232349356"><ele>158.0</ele><time>2026-04-04T13:04:56Z</time></trkpt><trkpt lat="45.19353468681825" lon="8.08174537957872"><ele>158.0</ele><time>2026-04-04T13:04:57Z</time></trkpt><trkpt lat="45.19353550711183" lon="8.081944804062806"><ele>158.0</ele><time>2026-04-04T13:04:58Z</time></trkpt><trkpt lat="45.19354883604526" lon="8.082123857058063"><ele>158.0</ele><time>2026-04-04T13:04:59Z</time></trkpt><trkpt lat="45.19355114249234" lon="8.082309172629383"><ele>158.0</ele><time>2026-04-04T13:05:00Z</time></trkpt><trkpt lat="45.19355334064117" lon="8.082497569478539"><ele>157.75</ele><time>2026-04-04T13:05:01Z</time></trkpt><trkpt lat="45.193556486508136" lon="8.082682938152022"><ele>157.5</ele><time>2026-04-04T13:05:02Z</time></trkpt><trkpt lat="45.19356194986555" lon="8.082861083506018"><ele>157.25</ele><time>2026-04-04T13:05:03Z</time></trkpt><trkpt lat="45.19356694751543" lon="8.083043885973055"><ele>157.0</ele><time>2026-04-04T13:05:04Z</time></trkpt><trkpt lat="45.19357123318401" lon="8.083237446187736"><ele>157.0</ele><time>2026-04-04T13:05:05Z</time></trkpt><trkpt lat="45.193576573109965" lon="8.08343742930104"><ele>157.0</ele><time>2026-04-04T13:05:06Z</time></trkpt><trkpt lat="45.19358217307848" lon="8.083641312989773"><ele>157.0</ele><time>2026-04-04T13:05:07Z</time></trkpt><trkpt lat="45.19359148417598" lon="8.083854470127065"><ele>157.0</ele><time>2026-04-04T13:05:08Z</time></trkpt><trkpt lat="45.19359526047605" lon="8.084073884820649"><ele>157.0</ele><time>2026-04-04T13:05:09Z</time></trkpt><trkpt lat="45.193600926417254" lon="8.084306916362152"><ele>157.0</ele><time>2026-04-04T13:05:10Z</time></trkpt><trkpt lat="45.19360402327021" lon="8.084525860076283"><ele>157.0</ele><time>2026-04-04T13:05:11Z</time></trkpt><trkpt lat="45.19361473562704" lon="8.084767425071302"><ele>156.66666666666669</ele><time>2026-04-04T13:05:12Z</time></trkpt><trkpt lat="45.19362401484667" lon="8.085006239616146"><ele>156.33333333333334</ele><time>2026-04-04T13:05:13Z</time></trkpt><trkpt lat="45.193633220462935" lon="8.085251750522415"><ele>156.0</ele><time>2026-04-04T13:05:14Z</time></trkpt><trkpt lat="45.193644906131176" lon="8.085500417842555"><ele>156.0</ele><time>2026-04-04T13:05:15Z</time></trkpt><trkpt lat="45.19365694702898" lon="8.08575117623565"><ele>156.0</ele><time>2026-04-04T13:05:16Z</time></trkpt><trkpt lat="45.19366315199683" lon="8.086003322577831"><ele>156.0</ele><time>2026-04-04T13:05:17Z</time></trkpt><trkpt lat="45.193664407835136" lon="8.086259873153795"><ele>155.33333333333334</ele><time>2026-04-04T13:05:18Z</time></trkpt><trkpt lat="45.19366807599205" lon="8.086522620087088"><ele>154.66666666666669</ele><time>2026-04-04T13:05:19Z</time></trkpt><trkpt lat="45.19367253298396" lon="8.086784605131385"><ele>154.0</ele><time>2026-04-04T13:05:20Z</time></trkpt><trkpt lat="45.193676420832674" lon="8.087046601765554"><ele>154.0</ele><time>2026-04-04T13:05:21Z</time></trkpt><trkpt lat="45.193687302972045" lon="8.08730963792043"><ele>154.0</ele><time>2026-04-04T13:05:22Z</time></trkpt><trkpt lat="45.193693845780885" lon="8.087572414885773"><ele>154.0</ele><time>2026-04-04T13:05:23Z</time></trkpt><trkpt lat="45.19369773377698" lon="8.08783026578155"><ele>155.0</ele><time>2026-04-04T13:05:24Z</time></trkpt><trkpt lat="45.193702621682235" lon="8.088072810176223"><ele>156.0</ele><time>2026-04-04T13:05:25Z</time></trkpt><trkpt lat="45.193706224293265" lon="8.088285891153669"><ele>157.0</ele><time>2026-04-04T13:05:26Z</time></trkpt><trkpt lat="45.193713898806834" lon="8.088477816314095"><ele>157.0</ele><time>2026-04-04T13:05:27Z</time></trkpt><trkpt lat="45.19371676917146" lon="8.088650794402586"><ele>157.0</ele><time>2026-04-04T13:05:28Z</time></trkpt><trkpt lat="45.193719869132906" lon="8.088813114909703"><ele>157.0</ele><time>2026-04-04T13:05:29Z</time></trkpt><trkpt lat="45.19372305503419" lon="8.088972039691571"><ele>157.0</ele><time>2026-04-04T13:05:30Z</time></trkpt><trkpt lat="45.19372900791262" lon="8.08913205828119"><ele>156.5</ele><time>2026-04-04T13:05:31Z</time></trkpt><trkpt lat="45.19373421159918" lon="8.089295973409715"><ele>156.0</ele><time>2026-04-04T13:05:32Z</time></trkpt><trkpt lat="45.19373742325505" lon="8.089468773683983"><ele>155.5</ele><time>2026-04-04T13:05:33Z</time></trkpt><trkpt lat="45.19374220622037" lon="8.08964769332083"><ele>155.0</ele><time>2026-04-04T13:05:34Z</time></trkpt><trkpt lat="45.19373711971187" lon="8.089837794967346"><ele>154.75</ele><time>2026-04-04T13:05:35Z</time></trkpt><trkpt lat="45.19373608226523" lon="8.090020126748698"><ele>154.5</ele><time>2026-04-04T13:05:36Z</time></trkpt><trkpt lat="45.1937331180795" lon="8.090205791015157"><ele>154.25</ele><time>2026-04-04T13:05:37Z</time></trkpt><trkpt lat="45.19372666974053" lon="8.09040340409155"><ele>154.0</ele><time>2026-04-04T13:05:38Z</time></trkpt><trkpt lat="45.193720579777185" lon="8.090602562839463"><ele>153.75</ele><time>2026-04-04T13:05:39Z</time></trkpt><trkpt lat="45.19371230812985" lon="8.090807166507584"><ele>153.5</ele><time>2026-04-04T13:05:40Z</time></trkpt><trkpt lat="45.193690543277825" lon="8.091014256474311"><ele>153.25</ele><time>2026-04-04T13:05:41Z</time></trkpt><trkpt lat="45.19366308551487" lon="8.09121344239801"><ele>153.0</ele><time>2026-04-04T13:05:42Z</time></trkpt><trkpt lat="45.1936358633187" lon="8.091408786169067"><ele>153.75</ele><time>2026-04-04T13:05:43Z</time></trkpt><trkpt lat="45.193608144387824" lon="8.091614312041372"><ele>154.5</ele><time>2026-04-04T13:05:44Z</time></trkpt><trkpt lat="45.19358317431877" lon="8.091819085649693"><ele>155.25</ele><time>2026-04-04T13:05:45Z</time></trkpt><trkpt lat="45.193550945548054" lon="8.092020351579496"><ele>156.0</ele><time>2026-04-04T13:05:46Z</time></trkpt><trkpt lat="45.193523222172644" lon="8.092215363925002"><ele>156.0</ele><time>2026-04-04T13:05:47Z</time></trkpt><trkpt lat="45.19349635803406" lon="8.092410511295233"><ele>156.0</ele><time>2026-04-04T13:05:48Z</time></trkpt><trkpt lat="45.19346480785552" lon="8.092593589147715"><ele>156.0</ele><time>2026-04-04T13:05:49Z</time></trkpt><trkpt lat="45.19343987172836" lon="8.092769189631342"><ele>156.0</ele><time>2026-04-04T13:05:50Z</time></trkpt><trkpt lat="45.1934168317396" lon="8.092939999097114"><ele>156.0</ele><time>2026-04-04T13:05:51Z</time></trkpt><trkpt lat="45.19339366355251" lon="8.093104508308619"><ele>156.0</ele><time>2026-04-04T13:05:52Z</time></trkpt><trkpt lat="45.19337012819144" lon="8.09326909957067"><ele>156.0</ele><time>2026-04-04T13:05:53Z</time></trkpt><trkpt lat="45.19334438906554" lon="8.093436138844796"><ele>156.0</ele><time>2026-04-04T13:05:54Z</time></trkpt><trkpt lat="45.19332725989978" lon="8.09359375873846"><ele>156.2</ele><time>2026-04-04T13:05:55Z</time></trkpt><trkpt lat="45.19331729281607" lon="8.093748384754258"><ele>156.39999999999998</ele><time>2026-04-04T13:05:56Z</time></trkpt><trkpt lat="45.19331144739878" lon="8.093887504712837"><ele>156.6</ele><time>2026-04-04T13:05:57Z</time></trkpt><trkpt lat="45.19329179836138" lon="8.094018127204432"><ele>156.79999999999998</ele><time>2026-04-04T13:05:58Z</time></trkpt><trkpt lat="45.193265049200754" lon="8.094133737675586"><ele>157.0</ele><time>2026-04-04T13:05:59Z</time></trkpt><trkpt lat="45.193271861747455" lon="8.09422720341893"><ele>157.0</ele><time>2026-04-04T13:06:00Z</time></trkpt><trkpt lat="45.19331834825679" lon="8.094311138287537"><ele>157.0</ele><time>2026-04-04T13:06:01Z</time></trkpt><trkpt lat="45.1933927505897" lon="8.09438014655024"><ele>157.0</ele><time>2026-04-04T13:06:02Z</time></trkpt><trkpt lat="45.19345658421022" lon="8.094475664193302"><ele>157.0</ele><time>2026-04-04T13:06:03Z</time></trkpt><trkpt lat="45.19349260025238" lon="8.094617919352068"><ele>157.0</ele><time>2026-04-04T13:06:04Z</time></trkpt><trkpt lat="45.193514262347875" lon="8.09476402849758"><ele>157.0</ele><time>2026-04-04T13:06:05Z</time></trkpt><trkpt lat="45.19353700764899" lon="8.094911258154259"><ele>157.0</ele><time>2026-04-04T13:06:06Z</time></trkpt><trkpt lat="45.19355874251057" lon="8.09506680508781"><ele>157.0</ele><time>2026-04-04T13:06:07Z</time></trkpt><trkpt lat="45.19357443600542" lon="8.095234458658531"><ele>157.0</ele><time>2026-04-04T13:06:08Z</time></trkpt><trkpt lat="45.19359930972299" lon="8.095398902506153"><ele>156.75</ele><time>2026-04-04T13:06:09Z</time></trkpt><trkpt lat="45.19363989113442" lon="8.095566682764737"><ele>156.5</ele><time>2026-04-04T13:06:10Z</time></trkpt><trkpt lat="45.19369580975284" lon="8.095734307451043"><ele>156.25</ele><time>2026-04-04T13:06:11Z</time></trkpt><trkpt lat="45.19376785419982" lon="8.095901190321499"><ele>156.0</ele><time>2026-04-04T13:06:12Z</time></trkpt><trkpt lat="45.1938519843159" lon="8.096063466517938"><ele>155.33333333333334</ele><time>2026-04-04T13:06:13Z</time></trkpt><trkpt lat="45.193952538557575" lon="8.096225273842517"><ele>154.66666666666669</ele><time>2026-04-04T13:06:14Z</time></trkpt><trkpt lat="45.19405784151176" lon="8.096379826639604"><ele>154.0</ele><time>2026-04-04T13:06:15Z</time></trkpt><trkpt lat="45.194176381046034" lon="8.09652027347177"><ele>154.33333333333334</ele><time>2026-04-04T13:06:16Z</time></trkpt><trkpt lat="45.194314100570274" lon="8.096644997626326"><ele>154.66666666666666</ele><time>2026-04-04T13:06:17Z</time></trkpt><trkpt lat="45.19446035708322" lon="8.096763017242528"><ele>155.0</ele><time>2026-04-04T13:06:18Z</time></trkpt><trkpt lat="45.19461222553328" lon="8.096876098641877"><ele>155.0</ele><time>2026-04-04T13:06:19Z</time></trkpt><trkpt lat="45.19476485793575" lon="8.09698998298758"><ele>155.0</ele><time>2026-04-04T13:06:20Z</time></trkpt><trkpt lat="45.194921608838335" lon="8.097102302060017"><ele>155.0</ele><time>2026-04-04T13:06:21Z</time></trkpt><trkpt lat="45.19508345339433" lon="8.097221901834827"><ele>155.0</ele><time>2026-04-04T13:06:22Z</time></trkpt><trkpt lat="45.19524420569827" lon="8.097340875744477"><ele>155.0</ele><time>2026-04-04T13:06:23Z</time></trkpt><trkpt lat="45.195406654736864" lon="8.097465096975077"><ele>155.0</ele><time>2026-04-04T13:06:24Z</time></trkpt><trkpt lat="45.195562053642696" lon="8.097585642329278"><ele>155.66666666666666</ele><time>2026-04-04T13:06:25Z</time></trkpt><trkpt lat="45.195721319158835" lon="8.097708550928623"><ele>156.33333333333334</ele><time>2026-04-04T13:06:26Z</time></trkpt><trkpt lat="45.19586739292337" lon="8.097829408378445"><ele>157.0</ele><time>2026-04-04T13:06:27Z</time></trkpt><trkpt lat="45.196006465594984" lon="8.097960455198837"><ele>157.0</ele><time>2026-04-04T13:06:28Z</time></trkpt><trkpt lat="45.19612710041845" lon="8.098112679096173"><ele>157.0</ele><time>2026-04-04T13:06:29Z</time></trkpt><trkpt lat="45.19622946984164" lon="8.098270599349629"><ele>157.0</ele><time>2026-04-04T13:06:30Z</time></trkpt><trkpt lat="45.196315801023935" lon="8.098432877868479"><ele>157.0</ele><time>2026-04-04T13:06:31Z</time></trkpt><trkpt lat="45.19638951307007" lon="8.098596087365548"><ele>157.0</ele><time>2026-04-04T13:06:32Z</time></trkpt><trkpt lat="45.19644192404543" lon="8.09877939151619"><ele>157.0</ele><time>2026-04-04T13:06:33Z</time></trkpt><trkpt lat="45.19644851159391" lon="8.098989867361578"><ele>157.0</ele><time>2026-04-04T13:06:34Z</time></trkpt><trkpt lat="45.196513809357825" lon="8.099164627413751"><ele>157.0</ele><time>2026-04-04T13:06:35Z</time></trkpt><trkpt lat="45.196601513740276" lon="8.099330826209812"><ele>157.0</ele><time>2026-04-04T13:06:36Z</time></trkpt><trkpt lat="45.19667923251303" lon="8.0995082748424"><ele>157.0</ele><time>2026-04-04T13:06:37Z</time></trkpt><trkpt lat="45.19674093749453" lon="8.099713913323827"><ele>157.33333333333334</ele><time>2026-04-04T13:06:38Z</time></trkpt><trkpt lat="45.19679750815541" lon="8.0999321143161"><ele>157.66666666666666</ele><time>2026-04-04T13:06:39Z</time></trkpt><trkpt lat="45.19685484566163" lon="8.100148886492907"><ele>158.0</ele><time>2026-04-04T13:06:40Z</time></trkpt><trkpt lat="45.19691453096253" lon="8.100372419743474"><ele>158.0</ele><time>2026-04-04T13:06:41Z</time></trkpt><trkpt lat="45.196976207836244" lon="8.100601026308029"><ele>158.0</ele><time>2026-04-04T13:06:42Z</time></trkpt><trkpt lat="45.19703620963896" lon="8.100825921541121"><ele>158.0</ele><time>2026-04-04T13:06:43Z</time></trkpt><trkpt lat="45.19709416122454" lon="8.101041731529065"><ele>158.0</ele><time>2026-04-04T13:06:44Z</time></trkpt><trkpt lat="45.197147411182875" lon="8.101241009665861"><ele>158.0</ele><time>2026-04-04T13:06:45Z</time></trkpt><trkpt lat="45.19719260318743" lon="8.10141613215269"><ele>158.0</ele><time>2026-04-04T13:06:46Z</time></trkpt><trkpt lat="45.19723327876179" lon="8.10157288335675"><ele>158.0</ele><time>2026-04-04T13:06:47Z</time></trkpt><trkpt lat="45.19727473958774" lon="8.101725884307081"><ele>158.0</ele><time>2026-04-04T13:06:48Z</time></trkpt><trkpt lat="45.19731774412307" lon="8.101882936632471"><ele>158.0</ele><time>2026-04-04T13:06:49Z</time></trkpt><trkpt lat="45.19736328978202" lon="8.102048674408799"><ele>158.0</ele><time>2026-04-04T13:06:50Z</time></trkpt><trkpt lat="45.19741025379339" lon="8.102226404317541"><ele>158.0</ele><time>2026-04-04T13:06:51Z</time></trkpt><trkpt lat="45.19745947388832" lon="8.102412872910133"><ele>158.25</ele><time>2026-04-04T13:06:52Z</time></trkpt><trkpt lat="45.197512075366056" lon="8.102597839318666"><ele>158.5</ele><time>2026-04-04T13:06:53Z</time></trkpt><trkpt lat="45.19756627195925" lon="8.102784412725722"><ele>158.75</ele><time>2026-04-04T13:06:54Z</time></trkpt><trkpt lat="45.19761856232866" lon="8.102970335460297"><ele>159.0</ele><time>2026-04-04T13:06:55Z</time></trkpt><trkpt lat="45.19766405924057" lon="8.103128788121523"><ele>158.5</ele><time>2026-04-04T13:06:56Z</time></trkpt><trkpt lat="45.19770283516801" lon="8.103311239881554"><ele>158.0</ele><time>2026-04-04T13:06:57Z</time></trkpt><trkpt lat="45.197726269983356" lon="8.103466067517461"><ele>157.5</ele><time>2026-04-04T13:06:58Z</time></trkpt><trkpt lat="45.19773013406731" lon="8.103620160386692"><ele>157.0</ele><time>2026-04-04T13:06:59Z</time></trkpt><trkpt lat="45.19772063073996" lon="8.103771599078595"><ele>157.0</ele><time>2026-04-04T13:07:00Z</time></trkpt><trkpt lat="45.19773742733021" lon="8.103916520495902"><ele>157.0</ele><time>2026-04-04T13:07:01Z</time></trkpt><trkpt lat="45.197797868026036" lon="8.104038322647773"><ele>157.0</ele><time>2026-04-04T13:07:02Z</time></trkpt><trkpt lat="45.19789473018311" lon="8.104140844268542"><ele>157.0</ele><time>2026-04-04T13:07:03Z</time></trkpt><trkpt lat="45.19800584082068" lon="8.104237885434713"><ele>157.0</ele><time>2026-04-04T13:07:04Z</time></trkpt><trkpt lat="45.19811319587353" lon="8.104361955182688"><ele>157.0</ele><time>2026-04-04T13:07:05Z</time></trkpt><trkpt lat="45.1982085150467" lon="8.104514910460678"><ele>157.0</ele><time>2026-04-04T13:07:06Z</time></trkpt><trkpt lat="45.19829244621644" lon="8.104689362406996"><ele>157.0</ele><time>2026-04-04T13:07:07Z</time></trkpt><trkpt lat="45.19837432121778" lon="8.104875097831124"><ele>157.0</ele><time>2026-04-04T13:07:08Z</time></trkpt><trkpt lat="45.198461553845554" lon="8.10505986325471"><ele>157.0</ele><time>2026-04-04T13:07:09Z</time></trkpt><trkpt lat="45.19855117123911" lon="8.105232710292647"><ele>157.0</ele><time>2026-04-04T13:07:10Z</time></trkpt><trkpt lat="45.198644881045674" lon="8.10540886119145"><ele>157.0</ele><time>2026-04-04T13:07:11Z</time></trkpt><trkpt lat="45.19874042820604" lon="8.10559658497109"><ele>157.0</ele><time>2026-04-04T13:07:12Z</time></trkpt><trkpt lat="45.19883671464604" lon="8.105788485201487"><ele>157.0</ele><time>2026-04-04T13:07:13Z</time></trkpt><trkpt lat="45.19893512519713" lon="8.105978647008707"><ele>157.33333333333334</ele><time>2026-04-04T13:07:14Z</time></trkpt><trkpt lat="45.19903640021781" lon="8.1061746777567"><ele>157.66666666666666</ele><time>2026-04-04T13:07:15Z</time></trkpt><trkpt lat="45.19913835732651" lon="8.106374143782368"><ele>158.0</ele><time>2026-04-04T13:07:16Z</time></trkpt><trkpt lat="45.199240991598614" lon="8.106574210023151"><ele>157.33333333333331</ele><time>2026-04-04T13:07:17Z</time></trkpt><trkpt lat="45.19934749012209" lon="8.106780914011244"><ele>156.66666666666666</ele><time>2026-04-04T13:07:18Z</time></trkpt><trkpt lat="45.199451726631025" lon="8.106984036735643"><ele>156.0</ele><time>2026-04-04T13:07:19Z</time></trkpt><trkpt lat="45.1995577159517" lon="8.107189564964738"><ele>156.0</ele><time>2026-04-04T13:07:20Z</time></trkpt><trkpt lat="45.199664869999346" lon="8.107398493500273"><ele>156.0</ele><time>2026-04-04T13:07:21Z</time></trkpt><trkpt lat="45.19977179160687" lon="8.107604670979315"><ele>156.0</ele><time>2026-04-04T13:07:22Z</time></trkpt><trkpt lat="45.19988031700733" lon="8.107816052140365"><ele>156.0</ele><time>2026-04-04T13:07:23Z</time></trkpt><trkpt lat="45.199987890839" lon="8.10802697858078"><ele>156.0</ele><time>2026-04-04T13:07:24Z</time></trkpt><trkpt lat="45.20009979869545" lon="8.10824144784482"><ele>156.0</ele><time>2026-04-04T13:07:25Z</time></trkpt><trkpt lat="45.200208813080174" lon="8.108450473031366"><ele>155.33333333333334</ele><time>2026-04-04T13:07:26Z</time></trkpt><trkpt lat="45.20031633436497" lon="8.108653758573293"><ele>154.66666666666669</ele><time>2026-04-04T13:07:27Z</time></trkpt><trkpt lat="45.200419120704304" lon="8.108847600532572"><ele>154.0</ele><time>2026-04-04T13:07:28Z</time></trkpt><trkpt lat="45.20051398187912" lon="8.109036755443103"><ele>153.75</ele><time>2026-04-04T13:07:29Z</time></trkpt><trkpt lat="45.20060174485097" lon="8.109217512621026"><ele>153.5</ele><time>2026-04-04T13:07:30Z</time></trkpt><trkpt lat="45.20068449924184" lon="8.109392260794698"><ele>153.25</ele><time>2026-04-04T13:07:31Z</time></trkpt><trkpt lat="45.20074993473892" lon="8.109560686697158"><ele>153.0</ele><time>2026-04-04T13:07:32Z</time></trkpt><trkpt lat="45.20078711641285" lon="8.10972496797647"><ele>153.0</ele><time>2026-04-04T13:07:33Z</time></trkpt><trkpt lat="45.200787021301615" lon="8.109883269448645"><ele>153.0</ele><time>2026-04-04T13:07:34Z</time></trkpt><trkpt lat="45.20079306918969" lon="8.110024281388426"><ele>153.0</ele><time>2026-04-04T13:07:35Z</time></trkpt><trkpt lat="45.20084845762944" lon="8.110126324843758"><ele>153.0</ele><time>2026-04-04T13:07:36Z</time></trkpt><trkpt lat="45.20094524265538" lon="8.110194163654786"><ele>153.0</ele><time>2026-04-04T13:07:37Z</time></trkpt><trkpt lat="45.20106179260637" lon="8.110245161318266"><ele>153.0</ele><time>2026-04-04T13:07:38Z</time></trkpt><trkpt lat="45.20117167860737" lon="8.110338868664547"><ele>153.0</ele><time>2026-04-04T13:07:39Z</time></trkpt><trkpt lat="45.20126319694372" lon="8.110486912751108"><ele>153.0</ele><time>2026-04-04T13:07:40Z</time></trkpt><trkpt lat="45.20134201486333" lon="8.110659275924661"><ele>153.0</ele><time>2026-04-04T13:07:41Z</time></trkpt><trkpt lat="45.201422119073186" lon="8.110841282573798"><ele>153.0</ele><time>2026-04-04T13:07:42Z</time></trkpt><trkpt lat="45.20150881973549" lon="8.111024662710095"><ele>153.0</ele><time>2026-04-04T13:07:43Z</time></trkpt><trkpt lat="45.20160297669051" lon="8.111210182075117"><ele>153.0</ele><time>2026-04-04T13:07:44Z</time></trkpt><trkpt lat="45.20170167308156" lon="8.111397443313129"><ele>152.66666666666666</ele><time>2026-04-04T13:07:45Z</time></trkpt><trkpt lat="45.2017943418271" lon="8.111576214790327"><ele>152.33333333333331</ele><time>2026-04-04T13:07:46Z</time></trkpt><trkpt lat="45.20188434636889" lon="8.111765234587653"><ele>152.0</ele><time>2026-04-04T13:07:47Z</time></trkpt><trkpt lat="45.20198802498509" lon="8.111961206956702"><ele>152.0</ele><time>2026-04-04T13:07:48Z</time></trkpt><trkpt lat="45.20208482182981" lon="8.112147446038804"><ele>152.0</ele><time>2026-04-04T13:07:49Z</time></trkpt><trkpt lat="45.202184921048065" lon="8.112343980788715"><ele>152.0</ele><time>2026-04-04T13:07:50Z</time></trkpt><trkpt lat="45.20228677306197" lon="8.112541685325402"><ele>151.66666666666666</ele><time>2026-04-04T13:07:51Z</time></trkpt><trkpt lat="45.20238931840279" lon="8.112739123315766"><ele>151.33333333333334</ele><time>2026-04-04T13:07:52Z</time></trkpt><trkpt lat="45.20249067468893" lon="8.112940736289227"><ele>151.0</ele><time>2026-04-04T13:07:53Z</time></trkpt><trkpt lat="45.20259242691372" lon="8.113142363767194"><ele>151.33333333333334</ele><time>2026-04-04T13:07:54Z</time></trkpt><trkpt lat="45.20269803613148" lon="8.113345365645973"><ele>151.66666666666666</ele><time>2026-04-04T13:07:55Z</time></trkpt><trkpt lat="45.20280514655109" lon="8.11354605738398"><ele>152.0</ele><time>2026-04-04T13:07:56Z</time></trkpt><trkpt lat="45.20290989555832" lon="8.113749936429876"><ele>152.0</ele><time>2026-04-04T13:07:57Z</time></trkpt><trkpt lat="45.20302090386107" lon="8.11394973742388"><ele>152.0</ele><time>2026-04-04T13:07:58Z</time></trkpt><trkpt lat="45.20314487423439" lon="8.114137109311397"><ele>152.0</ele><time>2026-04-04T13:07:59Z</time></trkpt><trkpt lat="45.20326588017986" lon="8.114327134631445"><ele>152.0</ele><time>2026-04-04T13:08:00Z</time></trkpt><trkpt lat="45.20338624629271" lon="8.114522662924358"><ele>152.0</ele><time>2026-04-04T13:08:01Z</time></trkpt><trkpt lat="45.203510544951946" lon="8.114718978762701"><ele>152.0</ele><time>2026-04-04T13:08:02Z</time></trkpt><trkpt lat="45.20363630743939" lon="8.114917542978972"><ele>152.0</ele><time>2026-04-04T13:08:03Z</time></trkpt><trkpt lat="45.20376326598555" lon="8.115118726269985"><ele>152.0</ele><time>2026-04-04T13:08:04Z</time></trkpt><trkpt lat="45.20388420492498" lon="8.115311714389472"><ele>152.0</ele><time>2026-04-04T13:08:05Z</time></trkpt><trkpt lat="45.20400232389493" lon="8.115498034177413"><ele>152.33333333333331</ele><time>2026-04-04T13:08:06Z</time></trkpt><trkpt lat="45.20411571682717" lon="8.115681126446239"><ele>152.66666666666666</ele><time>2026-04-04T13:08:07Z</time></trkpt><trkpt lat="45.204226636318374" lon="8.115857521399741"><ele>153.0</ele><time>2026-04-04T13:08:08Z</time></trkpt><trkpt lat="45.20433402580929" lon="8.116022999897696"><ele>153.0</ele><time>2026-04-04T13:08:09Z</time></trkpt><trkpt lat="45.204441161962094" lon="8.116185930893042"><ele>153.0</ele><time>2026-04-04T13:08:10Z</time></trkpt><trkpt lat="45.204543500747725" lon="8.116344202005905"><ele>153.0</ele><time>2026-04-04T13:08:11Z</time></trkpt><trkpt lat="45.20464068840757" lon="8.116499144785285"><ele>152.66666666666666</ele><time>2026-04-04T13:08:12Z</time></trkpt><trkpt lat="45.20473915025482" lon="8.116655519032726"><ele>152.33333333333331</ele><time>2026-04-04T13:08:13Z</time></trkpt><trkpt lat="45.20484240123116" lon="8.11681857021451"><ele>152.0</ele><time>2026-04-04T13:08:14Z</time></trkpt><trkpt lat="45.204949255387824" lon="8.116979501529325"><ele>152.0</ele><time>2026-04-04T13:08:15Z</time></trkpt><trkpt lat="45.2050562606527" lon="8.117141971680288"><ele>152.0</ele><time>2026-04-04T13:08:16Z</time></trkpt><trkpt lat="45.20516283231022" lon="8.117310582820423"><ele>152.0</ele><time>2026-04-04T13:08:17Z</time></trkpt><trkpt lat="45.20527421304644" lon="8.117485961265414"><ele>152.0</ele><time>2026-04-04T13:08:18Z</time></trkpt><trkpt lat="45.20538741478073" lon="8.117664238425775"><ele>152.0</ele><time>2026-04-04T13:08:19Z</time></trkpt><trkpt lat="45.20550266694272" lon="8.11784610127482"><ele>152.0</ele><time>2026-04-04T13:08:20Z</time></trkpt><trkpt lat="45.205620005648605" lon="8.118029881710509"><ele>151.66666666666666</ele><time>2026-04-04T13:08:21Z</time></trkpt><trkpt lat="45.20573653871846" lon="8.118210320655061"><ele>151.33333333333334</ele><time>2026-04-04T13:08:22Z</time></trkpt><trkpt lat="45.20585618949307" lon="8.11839637513645"><ele>151.0</ele><time>2026-04-04T13:08:23Z</time></trkpt><trkpt lat="45.20597602019959" lon="8.1185827620775"><ele>150.66666666666669</ele><time>2026-04-04T13:08:24Z</time></trkpt><trkpt lat="45.206094002204885" lon="8.118764833845885"><ele>150.33333333333334</ele><time>2026-04-04T13:08:25Z</time></trkpt><trkpt lat="45.20621202091062" lon="8.118950944722263"><ele>150.0</ele><time>2026-04-04T13:08:26Z</time></trkpt><trkpt lat="45.206329982454875" lon="8.11914280349461"><ele>150.0</ele><time>2026-04-04T13:08:27Z</time></trkpt><trkpt lat="45.20644810001389" lon="8.119335084456551"><ele>150.0</ele><time>2026-04-04T13:08:28Z</time></trkpt><trkpt lat="45.206571129192334" lon="8.11952478551297"><ele>150.0</ele><time>2026-04-04T13:08:29Z</time></trkpt><trkpt lat="45.20669228514435" lon="8.119708272199984"><ele>150.0</ele><time>2026-04-04T13:08:30Z</time></trkpt><trkpt lat="45.206812964820436" lon="8.119894425395493"><ele>150.0</ele><time>2026-04-04T13:08:31Z</time></trkpt><trkpt lat="45.20693334581576" lon="8.120082492492555"><ele>150.0</ele><time>2026-04-04T13:08:32Z</time></trkpt><trkpt lat="45.207051688255156" lon="8.120265767765874"><ele>150.33333333333334</ele><time>2026-04-04T13:08:33Z</time></trkpt><trkpt lat="45.20717112977567" lon="8.120453007218918"><ele>150.66666666666669</ele><time>2026-04-04T13:08:34Z</time></trkpt><trkpt lat="45.207291297311265" lon="8.120644097904924"><ele>151.0</ele><time>2026-04-04T13:08:35Z</time></trkpt><trkpt lat="45.2074105631321" lon="8.120833078533247"><ele>151.0</ele><time>2026-04-04T13:08:36Z</time></trkpt><trkpt lat="45.20752956937086" lon="8.12102017333674"><ele>151.0</ele><time>2026-04-04T13:08:37Z</time></trkpt><trkpt lat="45.20764937075219" lon="8.121207406771601"><ele>151.0</ele><time>2026-04-04T13:08:38Z</time></trkpt><trkpt lat="45.20777109718336" lon="8.121396123648298"><ele>150.66666666666669</ele><time>2026-04-04T13:08:39Z</time></trkpt><trkpt lat="45.20789155148597" lon="8.121584044112677"><ele>150.33333333333334</ele><time>2026-04-04T13:08:40Z</time></trkpt><trkpt lat="45.20801377954311" lon="8.121775401245502"><ele>150.0</ele><time>2026-04-04T13:08:41Z</time></trkpt><trkpt lat="45.208131302804865" lon="8.12196656550686"><ele>150.0</ele><time>2026-04-04T13:08:42Z</time></trkpt><trkpt lat="45.20825138400543" lon="8.12216053987385"><ele>150.0</ele><time>2026-04-04T13:08:43Z</time></trkpt><trkpt lat="45.208369559344774" lon="8.12234671577939"><ele>150.0</ele><time>2026-04-04T13:08:44Z</time></trkpt><trkpt lat="45.20849329804667" lon="8.122540201515966"><ele>150.33333333333334</ele><time>2026-04-04T13:08:45Z</time></trkpt><trkpt lat="45.20861398789951" lon="8.122727930066471"><ele>150.66666666666669</ele><time>2026-04-04T13:08:46Z</time></trkpt><trkpt lat="45.20873917644335" lon="8.12291782032803"><ele>151.0</ele><time>2026-04-04T13:08:47Z</time></trkpt><trkpt lat="45.20886580320109" lon="8.12310715345814"><ele>150.66666666666669</ele><time>2026-04-04T13:08:48Z</time></trkpt><trkpt lat="45.20898803295693" lon="8.12329938101328"><ele>150.33333333333334</ele><time>2026-04-04T13:08:49Z</time></trkpt><trkpt lat="45.209109221546235" lon="8.123495070295906"><ele>150.0</ele><time>2026-04-04T13:08:50Z</time></trkpt><trkpt lat="45.209232220926495" lon="8.123699368154282"><ele>150.33333333333334</ele><time>2026-04-04T13:08:51Z</time></trkpt><trkpt lat="45.209359421526344" lon="8.123903290162104"><ele>150.66666666666669</ele><time>2026-04-04T13:08:52Z</time></trkpt><trkpt lat="45.209486135021244" lon="8.124101574985179"><ele>151.0</ele><time>2026-04-04T13:08:53Z</time></trkpt><trkpt lat="45.20961560124461" lon="8.12430707598252"><ele>151.0</ele><time>2026-04-04T13:08:54Z</time></trkpt><trkpt lat="45.209741625175575" lon="8.124505229063354"><ele>151.0</ele><time>2026-04-04T13:08:55Z</time></trkpt><trkpt lat="45.209873969981516" lon="8.124714133984003"><ele>151.0</ele><time>2026-04-04T13:08:56Z</time></trkpt><trkpt lat="45.210005228655724" lon="8.124917539581103"><ele>150.66666666666669</ele><time>2026-04-04T13:08:57Z</time></trkpt><trkpt lat="45.21013751537299" lon="8.125121970722947"><ele>150.33333333333334</ele><time>2026-04-04T13:08:58Z</time></trkpt><trkpt lat="45.21027157015464" lon="8.12532689550727"><ele>150.0</ele><time>2026-04-04T13:08:59Z</time></trkpt><trkpt lat="45.210402744082096" lon="8.125526562653286"><ele>150.66666666666666</ele><time>2026-04-04T13:09:00Z</time></trkpt><trkpt lat="45.21053230264159" lon="8.125729348822864"><ele>151.33333333333331</ele><time>2026-04-04T13:09:01Z</time></trkpt><trkpt lat="45.21066181620544" lon="8.125938875792654"><ele>152.0</ele><time>2026-04-04T13:09:02Z</time></trkpt><trkpt lat="45.210791053930365" lon="8.126147612404418"><ele>152.0</ele><time>2026-04-04T13:09:03Z</time></trkpt><trkpt lat="45.21091929563309" lon="8.126346566909305"><ele>152.0</ele><time>2026-04-04T13:09:04Z</time></trkpt><trkpt lat="45.21104746112826" lon="8.126554828524055"><ele>152.0</ele><time>2026-04-04T13:09:05Z</time></trkpt><trkpt lat="45.21117137081552" lon="8.126756957619758"><ele>152.33333333333331</ele><time>2026-04-04T13:09:06Z</time></trkpt><trkpt lat="45.211297872681534" lon="8.12695595961882"><ele>152.66666666666666</ele><time>2026-04-04T13:09:07Z</time></trkpt><trkpt lat="45.21142528735456" lon="8.127149367757887"><ele>153.0</ele><time>2026-04-04T13:09:08Z</time></trkpt><trkpt lat="45.211552528653066" lon="8.12733753734171"><ele>152.33333333333334</ele><time>2026-04-04T13:09:09Z</time></trkpt><trkpt lat="45.211679030332675" lon="8.127531294642118"><ele>151.66666666666669</ele><time>2026-04-04T13:09:10Z</time></trkpt><trkpt lat="45.21180340848905" lon="8.127728601539893"><ele>151.0</ele><time>2026-04-04T13:09:11Z</time></trkpt><trkpt lat="45.21192425411478" lon="8.127924559325615"><ele>151.0</ele><time>2026-04-04T13:09:12Z</time></trkpt><trkpt lat="45.212049289803694" lon="8.128125544539465"><ele>151.0</ele><time>2026-04-04T13:09:13Z</time></trkpt><trkpt lat="45.21217731670972" lon="8.128325287139273"><ele>151.0</ele><time>2026-04-04T13:09:14Z</time></trkpt><trkpt lat="45.21230321454778" lon="8.128524046234084"><ele>151.0</ele><time>2026-04-04T13:09:15Z</time></trkpt><trkpt lat="45.21243264379293" lon="8.128727131618797"><ele>151.0</ele><time>2026-04-04T13:09:16Z</time></trkpt><trkpt lat="45.21256889093118" lon="8.12893914595545"><ele>151.0</ele><time>2026-04-04T13:09:17Z</time></trkpt><trkpt lat="45.21270473228542" lon="8.129145162190166"><ele>151.33333333333334</ele><time>2026-04-04T13:09:18Z</time></trkpt><trkpt lat="45.21284259473292" lon="8.129355622229747"><ele>151.66666666666666</ele><time>2026-04-04T13:09:19Z</time></trkpt><trkpt lat="45.21297879516694" lon="8.129568812459436"><ele>152.0</ele><time>2026-04-04T13:09:20Z</time></trkpt><trkpt lat="45.213112468747475" lon="8.129782720528027"><ele>152.66666666666666</ele><time>2026-04-04T13:09:21Z</time></trkpt><trkpt lat="45.21324395550402" lon="8.129990456188596"><ele>153.33333333333334</ele><time>2026-04-04T13:09:22Z</time></trkpt><trkpt lat="45.213376304129284" lon="8.130198316079703"><ele>154.0</ele><time>2026-04-04T13:09:23Z</time></trkpt><trkpt lat="45.21351138042259" lon="8.130411115309"><ele>154.0</ele><time>2026-04-04T13:09:24Z</time></trkpt><trkpt lat="45.2136464356757" lon="8.130635087636364"><ele>154.0</ele><time>2026-04-04T13:09:25Z</time></trkpt><trkpt lat="45.21378248895321" lon="8.13085692746872"><ele>154.0</ele><time>2026-04-04T13:09:26Z</time></trkpt><trkpt lat="45.21392186854474" lon="8.13107914646601"><ele>153.66666666666669</ele><time>2026-04-04T13:09:27Z</time></trkpt><trkpt lat="45.21406054050336" lon="8.131290546247131"><ele>153.33333333333334</ele><time>2026-04-04T13:09:28Z</time></trkpt><trkpt lat="45.214201267659014" lon="8.131508061612172"><ele>153.0</ele><time>2026-04-04T13:09:29Z</time></trkpt><trkpt lat="45.21434405621329" lon="8.13172822739389"><ele>153.0</ele><time>2026-04-04T13:09:30Z</time></trkpt><trkpt lat="45.21448269488982" lon="8.131946076226333"><ele>153.0</ele><time>2026-04-04T13:09:31Z</time></trkpt><trkpt lat="45.21462199817422" lon="8.132162994154365"><ele>153.0</ele><time>2026-04-04T13:09:32Z</time></trkpt><trkpt lat="45.214762968780946" lon="8.132383585504947"><ele>153.33333333333334</ele><time>2026-04-04T13:09:33Z</time></trkpt><trkpt lat="45.214905088733204" lon="8.132603345188947"><ele>153.66666666666669</ele><time>2026-04-04T13:09:34Z</time></trkpt><trkpt lat="45.215046967898886" lon="8.132825881764372"><ele>154.0</ele><time>2026-04-04T13:09:35Z</time></trkpt><trkpt lat="45.21518687733563" lon="8.133044836688931"><ele>153.66666666666669</ele><time>2026-04-04T13:09:36Z</time></trkpt><trkpt lat="45.21532809057748" lon="8.133266503103094"><ele>153.33333333333334</ele><time>2026-04-04T13:09:37Z</time></trkpt><trkpt lat="45.215467868553866" lon="8.133486530266154"><ele>153.0</ele><time>2026-04-04T13:09:38Z</time></trkpt><trkpt lat="45.215609315627674" lon="8.133713761525227"><ele>152.66666666666666</ele><time>2026-04-04T13:09:39Z</time></trkpt><trkpt lat="45.21575139283" lon="8.133935885903572"><ele>152.33333333333331</ele><time>2026-04-04T13:09:40Z</time></trkpt><trkpt lat="45.21589494688052" lon="8.13416061769704"><ele>152.0</ele><time>2026-04-04T13:09:41Z</time></trkpt><trkpt lat="45.216034248656236" lon="8.134380068453886"><ele>152.0</ele><time>2026-04-04T13:09:42Z</time></trkpt><trkpt lat="45.21617709612058" lon="8.134601953003367"><ele>152.0</ele><time>2026-04-04T13:09:43Z</time></trkpt><trkpt lat="45.21632091572912" lon="8.134820299889292"><ele>152.0</ele><time>2026-04-04T13:09:44Z</time></trkpt><trkpt lat="45.21646411833357" lon="8.135039762065247"><ele>152.0</ele><time>2026-04-04T13:09:45Z</time></trkpt><trkpt lat="45.216606929546145" lon="8.135260239717589"><ele>152.0</ele><time>2026-04-04T13:09:46Z</time></trkpt><trkpt lat="45.21674959230792" lon="8.135481119065352"><ele>152.0</ele><time>2026-04-04T13:09:47Z</time></trkpt><trkpt lat="45.216890990870255" lon="8.135703851254515"><ele>152.0</ele><time>2026-04-04T13:09:48Z</time></trkpt><trkpt lat="45.21703239426924" lon="8.135929198868626"><ele>152.0</ele><time>2026-04-04T13:09:49Z</time></trkpt><trkpt lat="45.217174498456785" lon="8.136153003065816"><ele>152.0</ele><time>2026-04-04T13:09:50Z</time></trkpt><trkpt lat="45.21732202499708" lon="8.136380957202597"><ele>151.66666666666666</ele><time>2026-04-04T13:09:51Z</time></trkpt><trkpt lat="45.217470860723225" lon="8.136603580282657"><ele>151.33333333333334</ele><time>2026-04-04T13:09:52Z</time></trkpt><trkpt lat="45.21761746004627" lon="8.136827406161688"><ele>151.0</ele><time>2026-04-04T13:09:53Z</time></trkpt><trkpt lat="45.21776314097254" lon="8.13706515270049"><ele>151.0</ele><time>2026-04-04T13:09:54Z</time></trkpt><trkpt lat="45.21790726068352" lon="8.137292278135618"><ele>151.0</ele><time>2026-04-04T13:09:55Z</time></trkpt><trkpt lat="45.218054151382745" lon="8.137518961196458"><ele>151.0</ele><time>2026-04-04T13:09:56Z</time></trkpt><trkpt lat="45.21820101675344" lon="8.137746793660616"><ele>151.0</ele><time>2026-04-04T13:09:57Z</time></trkpt><trkpt lat="45.2184905387307" lon="8.138204451325018"><ele>151.0</ele><time>2026-04-04T13:09:59Z</time></trkpt><trkpt lat="45.2186305254135" lon="8.138420542414854"><ele>151.0</ele><time>2026-04-04T13:10:00Z</time></trkpt><trkpt lat="45.218771419107185" lon="8.138641278464126"><ele>151.0</ele><time>2026-04-04T13:10:01Z</time></trkpt><trkpt lat="45.218912760751984" lon="8.138865422548553"><ele>151.0</ele><time>2026-04-04T13:10:02Z</time></trkpt><trkpt lat="45.219052436344754" lon="8.139091917234527"><ele>151.0</ele><time>2026-04-04T13:10:03Z</time></trkpt><trkpt lat="45.219195855180516" lon="8.13932187436309"><ele>151.0</ele><time>2026-04-04T13:10:04Z</time></trkpt><trkpt lat="45.2193342059637" lon="8.13954765705232"><ele>151.0</ele><time>2026-04-04T13:10:05Z</time></trkpt><trkpt lat="45.21948006156892" lon="8.139780281798012"><ele>151.33333333333334</ele><time>2026-04-04T13:10:06Z</time></trkpt><trkpt lat="45.21962449953525" lon="8.14000481829519"><ele>151.66666666666666</ele><time>2026-04-04T13:10:07Z</time></trkpt><trkpt lat="45.219774177064316" lon="8.140228282350936"><ele>152.0</ele><time>2026-04-04T13:10:08Z</time></trkpt><trkpt lat="45.219920487088075" lon="8.140449931978239"><ele>152.0</ele><time>2026-04-04T13:10:09Z</time></trkpt><trkpt lat="45.22006525807506" lon="8.140677026449856"><ele>152.0</ele><time>2026-04-04T13:10:10Z</time></trkpt><trkpt lat="45.22020815944597" lon="8.140904205904363"><ele>152.0</ele><time>2026-04-04T13:10:11Z</time></trkpt><trkpt lat="45.220353454656774" lon="8.141133382317019"><ele>152.0</ele><time>2026-04-04T13:10:12Z</time></trkpt><trkpt lat="45.22049538382666" lon="8.141357072455389"><ele>152.0</ele><time>2026-04-04T13:10:13Z</time></trkpt><trkpt lat="45.2206407456256" lon="8.141588795102157"><ele>152.0</ele><time>2026-04-04T13:10:14Z</time></trkpt><trkpt lat="45.22078262300409" lon="8.141813304171103"><ele>152.33333333333331</ele><time>2026-04-04T13:10:15Z</time></trkpt><trkpt lat="45.22092735128724" lon="8.142039751905378"><ele>152.66666666666666</ele><time>2026-04-04T13:10:16Z</time></trkpt><trkpt lat="45.22106964509944" lon="8.14226253448651"><ele>153.0</ele><time>2026-04-04T13:10:17Z</time></trkpt><trkpt lat="45.221215158538854" lon="8.142493333281903"><ele>153.0</ele><time>2026-04-04T13:10:18Z</time></trkpt><trkpt lat="45.22136676748199" lon="8.1427270381709"><ele>153.0</ele><time>2026-04-04T13:10:19Z</time></trkpt><trkpt lat="45.22152167831859" lon="8.142954326695515"><ele>153.0</ele><time>2026-04-04T13:10:20Z</time></trkpt><trkpt lat="45.22168559950937" lon="8.143179174155456"><ele>152.5</ele><time>2026-04-04T13:10:21Z</time></trkpt><trkpt lat="45.22185380084412" lon="8.143390728327013"><ele>152.0</ele><time>2026-04-04T13:10:22Z</time></trkpt><trkpt lat="45.22202532919367" lon="8.143600012775192"><ele>152.0</ele><time>2026-04-04T13:10:23Z</time></trkpt><trkpt lat="45.22220092467291" lon="8.143812119532756"><ele>152.0</ele><time>2026-04-04T13:10:24Z</time></trkpt><trkpt lat="45.22236999644089" lon="8.144021298068127"><ele>152.0</ele><time>2026-04-04T13:10:25Z</time></trkpt><trkpt lat="45.22254070859195" lon="8.144233779341667"><ele>152.0</ele><time>2026-04-04T13:10:26Z</time></trkpt><trkpt lat="45.22271138517775" lon="8.144440991251146"><ele>152.0</ele><time>2026-04-04T13:10:27Z</time></trkpt><trkpt lat="45.222883366061446" lon="8.144647911045327"><ele>152.0</ele><time>2026-04-04T13:10:28Z</time></trkpt><trkpt lat="45.223051093457045" lon="8.144853934418782"><ele>152.0</ele><time>2026-04-04T13:10:29Z</time></trkpt><trkpt lat="45.22321808773883" lon="8.145061300366235"><ele>152.0</ele><time>2026-04-04T13:10:30Z</time></trkpt><trkpt lat="45.22338345406974" lon="8.14526005063902"><ele>152.0</ele><time>2026-04-04T13:10:31Z</time></trkpt><trkpt lat="45.2235501378586" lon="8.1454569653052"><ele>152.0</ele><time>2026-04-04T13:10:32Z</time></trkpt><trkpt lat="45.22371614514958" lon="8.1456543727384"><ele>152.33333333333331</ele><time>2026-04-04T13:10:33Z</time></trkpt><trkpt lat="45.223884824150495" lon="8.145863290735027"><ele>152.66666666666666</ele><time>2026-04-04T13:10:34Z</time></trkpt><trkpt lat="45.224052093776365" lon="8.146072871535035"><ele>153.0</ele><time>2026-04-04T13:10:35Z</time></trkpt><trkpt lat="45.22421962601592" lon="8.14628137733366"><ele>153.5</ele><time>2026-04-04T13:10:36Z</time></trkpt><trkpt lat="45.224393188445696" lon="8.14649081682929"><ele>154.0</ele><time>2026-04-04T13:10:37Z</time></trkpt><trkpt lat="45.22456462693504" lon="8.146696087853135"><ele>154.0</ele><time>2026-04-04T13:10:38Z</time></trkpt><trkpt lat="45.224738678470764" lon="8.146908169114898"><ele>154.0</ele><time>2026-04-04T13:10:39Z</time></trkpt><trkpt lat="45.22490910894784" lon="8.147116274864224"><ele>154.5</ele><time>2026-04-04T13:10:40Z</time></trkpt><trkpt lat="45.225082562329696" lon="8.147329893864745"><ele>155.0</ele><time>2026-04-04T13:10:41Z</time></trkpt><trkpt lat="45.22525443392872" lon="8.14754104669246"><ele>155.0</ele><time>2026-04-04T13:10:42Z</time></trkpt><trkpt lat="45.225429585359564" lon="8.14775512011464"><ele>155.0</ele><time>2026-04-04T13:10:43Z</time></trkpt><trkpt lat="45.22560484453277" lon="8.14796535458994"><ele>155.5</ele><time>2026-04-04T13:10:44Z</time></trkpt><trkpt lat="45.225780368624726" lon="8.148176489044541"><ele>156.0</ele><time>2026-04-04T13:10:45Z</time></trkpt><trkpt lat="45.225960383067864" lon="8.14838564806804"><ele>156.5</ele><time>2026-04-04T13:10:46Z</time></trkpt><trkpt lat="45.226140130615896" lon="8.148591697048369"><ele>157.0</ele><time>2026-04-04T13:10:47Z</time></trkpt><trkpt lat="45.22631947607441" lon="8.148801972262136"><ele>157.0</ele><time>2026-04-04T13:10:48Z</time></trkpt><trkpt lat="45.22649750358551" lon="8.149019104851009"><ele>157.0</ele><time>2026-04-04T13:10:49Z</time></trkpt><trkpt lat="45.22666943626244" lon="8.149237735086695"><ele>156.5</ele><time>2026-04-04T13:10:50Z</time></trkpt><trkpt lat="45.22683989869335" lon="8.149465298986168"><ele>156.0</ele><time>2026-04-04T13:10:51Z</time></trkpt><trkpt lat="45.227001357711984" lon="8.149699559300506"><ele>156.0</ele><time>2026-04-04T13:10:52Z</time></trkpt><trkpt lat="45.227154313173045" lon="8.149951200650086"><ele>156.0</ele><time>2026-04-04T13:10:53Z</time></trkpt><trkpt lat="45.22729275196036" lon="8.150216293970304"><ele>156.5</ele><time>2026-04-04T13:10:54Z</time></trkpt><trkpt lat="45.2274132856578" lon="8.15048503180936"><ele>157.0</ele><time>2026-04-04T13:10:55Z</time></trkpt><trkpt lat="45.22754420253109" lon="8.150781128545283"><ele>155.5</ele><time>2026-04-04T13:10:56Z</time></trkpt><trkpt lat="45.22766977848503" lon="8.151064192152084"><ele>154.0</ele><time>2026-04-04T13:10:57Z</time></trkpt><trkpt lat="45.22779520939959" lon="8.151351163440397"><ele>154.0</ele><time>2026-04-04T13:10:58Z</time></trkpt><trkpt lat="45.22792221209941" lon="8.15163894708505"><ele>154.0</ele><time>2026-04-04T13:10:59Z</time></trkpt><trkpt lat="45.22805118737986" lon="8.151921671682723"><ele>154.0</ele><time>2026-04-04T13:11:00Z</time></trkpt><trkpt lat="45.228182177315944" lon="8.15221204741236"><ele>154.0</ele><time>2026-04-04T13:11:01Z</time></trkpt><trkpt lat="45.228312609515584" lon="8.15249641279094"><ele>154.0</ele><time>2026-04-04T13:11:02Z</time></trkpt><trkpt lat="45.228441967749525" lon="8.152781716357406"><ele>154.0</ele><time>2026-04-04T13:11:03Z</time></trkpt><trkpt lat="45.228570758689315" lon="8.153070337232922"><ele>154.0</ele><time>2026-04-04T13:11:04Z</time></trkpt><trkpt lat="45.22869790297019" lon="8.153359327423665"><ele>154.0</ele><time>2026-04-04T13:11:05Z</time></trkpt><trkpt lat="45.228825329450004" lon="8.15364324440009"><ele>154.0</ele><time>2026-04-04T13:11:06Z</time></trkpt><trkpt lat="45.2289544637436" lon="8.153928581926813"><ele>154.0</ele><time>2026-04-04T13:11:07Z</time></trkpt><trkpt lat="45.22908138687453" lon="8.154207079206447"><ele>153.5</ele><time>2026-04-04T13:11:08Z</time></trkpt><trkpt lat="45.229208159533265" lon="8.154490297936592"><ele>153.0</ele><time>2026-04-04T13:11:09Z</time></trkpt><trkpt lat="45.229334415385544" lon="8.154772264042252"><ele>153.5</ele><time>2026-04-04T13:11:10Z</time></trkpt><trkpt lat="45.229458018455915" lon="8.15505507395127"><ele>154.0</ele><time>2026-04-04T13:11:11Z</time></trkpt><trkpt lat="45.22957992886595" lon="8.155336955462477"><ele>154.0</ele><time>2026-04-04T13:11:12Z</time></trkpt><trkpt lat="45.22970334932546" lon="8.15561606808046"><ele>154.0</ele><time>2026-04-04T13:11:13Z</time></trkpt><trkpt lat="45.2298288109117" lon="8.155893656335618"><ele>154.0</ele><time>2026-04-04T13:11:14Z</time></trkpt><trkpt lat="45.22995395927626" lon="8.156167581822727"><ele>154.0</ele><time>2026-04-04T13:11:15Z</time></trkpt><trkpt lat="45.230079182503886" lon="8.15644295088826"><ele>153.0</ele><time>2026-04-04T13:11:16Z</time></trkpt><trkpt lat="45.230202844695846" lon="8.15671634820688"><ele>152.0</ele><time>2026-04-04T13:11:17Z</time></trkpt><trkpt lat="45.230323609629984" lon="8.156989193214066"><ele>152.0</ele><time>2026-04-04T13:11:18Z</time></trkpt><trkpt lat="45.230446193841615" lon="8.157266875731068"><ele>152.0</ele><time>2026-04-04T13:11:19Z</time></trkpt><trkpt lat="45.230565717772485" lon="8.157542020227718"><ele>153.5</ele><time>2026-04-04T13:11:20Z</time></trkpt><trkpt lat="45.2306895108617" lon="8.15781905817572"><ele>155.0</ele><time>2026-04-04T13:11:21Z</time></trkpt><trkpt lat="45.23081387565591" lon="8.15808882276656"><ele>154.5</ele><time>2026-04-04T13:11:22Z</time></trkpt><trkpt lat="45.23093766603446" lon="8.158365001790543"><ele>154.0</ele><time>2026-04-04T13:11:23Z</time></trkpt><trkpt lat="45.23106154788605" lon="8.158637055262766"><ele>154.0</ele><time>2026-04-04T13:11:24Z</time></trkpt><trkpt lat="45.23118576021256" lon="8.158906479231916"><ele>154.0</ele><time>2026-04-04T13:11:25Z</time></trkpt><trkpt lat="45.231311667032124" lon="8.159175814870899"><ele>154.0</ele><time>2026-04-04T13:11:26Z</time></trkpt><trkpt lat="45.2314322385507" lon="8.159445008734693"><ele>154.0</ele><time>2026-04-04T13:11:27Z</time></trkpt><trkpt lat="45.23155214650844" lon="8.159718816749695"><ele>154.5</ele><time>2026-04-04T13:11:28Z</time></trkpt><trkpt lat="45.231670857519426" lon="8.15999326665407"><ele>155.0</ele><time>2026-04-04T13:11:29Z</time></trkpt><trkpt lat="45.23179282077065" lon="8.160267691375413"><ele>155.0</ele><time>2026-04-04T13:11:30Z</time></trkpt><trkpt lat="45.231915705744086" lon="8.160538327808078"><ele>155.0</ele><time>2026-04-04T13:11:31Z</time></trkpt><trkpt lat="45.23203880216238" lon="8.160808791687579"><ele>154.5</ele><time>2026-04-04T13:11:32Z</time></trkpt><trkpt lat="45.23216077678431" lon="8.161081432991566"><ele>154.0</ele><time>2026-04-04T13:11:33Z</time></trkpt><trkpt lat="45.23228151548883" lon="8.161358779224276"><ele>154.0</ele><time>2026-04-04T13:11:34Z</time></trkpt><trkpt lat="45.23240245349534" lon="8.161628869266135"><ele>154.0</ele><time>2026-04-04T13:11:35Z</time></trkpt><trkpt lat="45.23252517961947" lon="8.161900959067074"><ele>154.0</ele><time>2026-04-04T13:11:36Z</time></trkpt><trkpt lat="45.232648207672625" lon="8.162175813270036"><ele>154.0</ele><time>2026-04-04T13:11:37Z</time></trkpt><trkpt lat="45.232770403285464" lon="8.162448246496119"><ele>153.5</ele><time>2026-04-04T13:11:38Z</time></trkpt><trkpt lat="45.23289399978312" lon="8.162719246825976"><ele>153.0</ele><time>2026-04-04T13:11:39Z</time></trkpt><trkpt lat="45.23301794901526" lon="8.162989058890222"><ele>154.0</ele><time>2026-04-04T13:11:40Z</time></trkpt><trkpt lat="45.23313932402621" lon="8.163256770625983"><ele>155.0</ele><time>2026-04-04T13:11:41Z</time></trkpt><trkpt lat="45.23326333038388" lon="8.16353069484389"><ele>155.0</ele><time>2026-04-04T13:11:42Z</time></trkpt><trkpt lat="45.23338045890232" lon="8.163797267900431"><ele>155.0</ele><time>2026-04-04T13:11:43Z</time></trkpt><trkpt lat="45.233497866260905" lon="8.164069683500026"><ele>155.0</ele><time>2026-04-04T13:11:44Z</time></trkpt><trkpt lat="45.23361736928868" lon="8.164338767891133"><ele>154.66666666666666</ele><time>2026-04-04T13:11:45Z</time></trkpt><trkpt lat="45.23373668865042" lon="8.164603373246019"><ele>154.33333333333334</ele><time>2026-04-04T13:11:46Z</time></trkpt><trkpt lat="45.23385787572998" lon="8.164870968249696"><ele>154.0</ele><time>2026-04-04T13:11:47Z</time></trkpt><trkpt lat="45.233978698110185" lon="8.165135395626299"><ele>154.0</ele><time>2026-04-04T13:11:48Z</time></trkpt><trkpt lat="45.2340999057899" lon="8.165398088713594"><ele>154.0</ele><time>2026-04-04T13:11:49Z</time></trkpt><trkpt lat="45.23421988832717" lon="8.165665592813106"><ele>154.0</ele><time>2026-04-04T13:11:50Z</time></trkpt><trkpt lat="45.234337315140166" lon="8.165929748143677"><ele>154.0</ele><time>2026-04-04T13:11:51Z</time></trkpt><trkpt lat="45.234454116621855" lon="8.1661977700364"><ele>154.0</ele><time>2026-04-04T13:11:52Z</time></trkpt><trkpt lat="45.23457130366532" lon="8.166465629542554"><ele>154.0</ele><time>2026-04-04T13:11:53Z</time></trkpt><trkpt lat="45.23468980306067" lon="8.16672684961533"><ele>153.66666666666669</ele><time>2026-04-04T13:11:54Z</time></trkpt><trkpt lat="45.23480825426352" lon="8.166990065742064"><ele>153.33333333333334</ele><time>2026-04-04T13:11:55Z</time></trkpt><trkpt lat="45.23492518003218" lon="8.167252794671096"><ele>153.0</ele><time>2026-04-04T13:11:56Z</time></trkpt><trkpt lat="45.235040254486826" lon="8.167513707924947"><ele>153.33333333333334</ele><time>2026-04-04T13:11:57Z</time></trkpt><trkpt lat="45.23515608560631" lon="8.167777348953125"><ele>153.66666666666669</ele><time>2026-04-04T13:11:58Z</time></trkpt><trkpt lat="45.235270401868384" lon="8.16803309995536"><ele>154.0</ele><time>2026-04-04T13:11:59Z</time></trkpt><trkpt lat="45.23538449625424" lon="8.168295780633525"><ele>154.0</ele><time>2026-04-04T13:12:00Z</time></trkpt><trkpt lat="45.23549817135159" lon="8.16855593269699"><ele>154.0</ele><time>2026-04-04T13:12:01Z</time></trkpt><trkpt lat="45.23561353696686" lon="8.168806110023175"><ele>154.0</ele><time>2026-04-04T13:12:02Z</time></trkpt><trkpt lat="45.23572705310131" lon="8.169056709072928"><ele>153.66666666666669</ele><time>2026-04-04T13:12:03Z</time></trkpt><trkpt lat="45.23584037555864" lon="8.169320637833543"><ele>153.33333333333334</ele><time>2026-04-04T13:12:04Z</time></trkpt><trkpt lat="45.2359512000897" lon="8.169572701424535"><ele>153.0</ele><time>2026-04-04T13:12:05Z</time></trkpt><trkpt lat="45.23606533336091" lon="8.169829034256693"><ele>153.66666666666666</ele><time>2026-04-04T13:12:06Z</time></trkpt><trkpt lat="45.23618314027685" lon="8.170083358722925"><ele>154.33333333333331</ele><time>2026-04-04T13:12:07Z</time></trkpt><trkpt lat="45.236299796109265" lon="8.170333473893468"><ele>155.0</ele><time>2026-04-04T13:12:08Z</time></trkpt><trkpt lat="45.23641553140035" lon="8.170596587793474"><ele>154.66666666666666</ele><time>2026-04-04T13:12:09Z</time></trkpt><trkpt lat="45.236530090818384" lon="8.170847816017279"><ele>154.33333333333334</ele><time>2026-04-04T13:12:10Z</time></trkpt><trkpt lat="45.23664576670849" lon="8.171099963879543"><ele>154.0</ele><time>2026-04-04T13:12:11Z</time></trkpt><trkpt lat="45.23676129372129" lon="8.171355400327561"><ele>154.66666666666669</ele><time>2026-04-04T13:12:12Z</time></trkpt><trkpt lat="45.23687795173037" lon="8.1716096214153"><ele>155.33333333333334</ele><time>2026-04-04T13:12:13Z</time></trkpt><trkpt lat="45.23699422990343" lon="8.1718591483683"><ele>156.0</ele><time>2026-04-04T13:12:14Z</time></trkpt><trkpt lat="45.237108765905184" lon="8.172116178839168"><ele>155.33333333333334</ele><time>2026-04-04T13:12:15Z</time></trkpt><trkpt lat="45.23722203419939" lon="8.17237141339143"><ele>154.66666666666669</ele><time>2026-04-04T13:12:16Z</time></trkpt><trkpt lat="45.23733826632781" lon="8.172624035647711"><ele>154.0</ele><time>2026-04-04T13:12:17Z</time></trkpt><trkpt lat="45.237453876491394" lon="8.172882657527241"><ele>154.0</ele><time>2026-04-04T13:12:18Z</time></trkpt><trkpt lat="45.23756824187034" lon="8.17314024101803"><ele>154.0</ele><time>2026-04-04T13:12:19Z</time></trkpt><trkpt lat="45.23768294166185" lon="8.173395811116478"><ele>154.0</ele><time>2026-04-04T13:12:20Z</time></trkpt><trkpt lat="45.23779819486178" lon="8.17365304913409"><ele>154.0</ele><time>2026-04-04T13:12:21Z</time></trkpt><trkpt lat="45.23791447719214" lon="8.173910330320913"><ele>154.0</ele><time>2026-04-04T13:12:22Z</time></trkpt><trkpt lat="45.23803011139162" lon="8.174167534691561"><ele>154.0</ele><time>2026-04-04T13:12:23Z</time></trkpt><trkpt lat="45.238145185038846" lon="8.174432220197467"><ele>154.0</ele><time>2026-04-04T13:12:24Z</time></trkpt><trkpt lat="45.238261334544056" lon="8.174682966474245"><ele>154.0</ele><time>2026-04-04T13:12:25Z</time></trkpt><trkpt lat="45.2383790089628" lon="8.17494278631858"><ele>154.0</ele><time>2026-04-04T13:12:26Z</time></trkpt><trkpt lat="45.23849540693505" lon="8.175203893992752"><ele>153.66666666666669</ele><time>2026-04-04T13:12:27Z</time></trkpt><trkpt lat="45.238610654642514" lon="8.175463345248621"><ele>153.33333333333334</ele><time>2026-04-04T13:12:28Z</time></trkpt><trkpt lat="45.23872487045248" lon="8.175718502442892"><ele>153.0</ele><time>2026-04-04T13:12:29Z</time></trkpt><trkpt lat="45.23883761183958" lon="8.175983342121278"><ele>153.0</ele><time>2026-04-04T13:12:30Z</time></trkpt><trkpt lat="45.238949761662624" lon="8.176244096522264"><ele>153.0</ele><time>2026-04-04T13:12:31Z</time></trkpt><trkpt lat="45.23906309503336" lon="8.176507269414348"><ele>153.0</ele><time>2026-04-04T13:12:32Z</time></trkpt><trkpt lat="45.23917674640032" lon="8.176772323426157"><ele>153.33333333333334</ele><time>2026-04-04T13:12:33Z</time></trkpt><trkpt lat="45.23929156585062" lon="8.177032734318843"><ele>153.66666666666669</ele><time>2026-04-04T13:12:34Z</time></trkpt><trkpt lat="45.23940714830602" lon="8.177305156085838"><ele>154.0</ele><time>2026-04-04T13:12:35Z</time></trkpt><trkpt lat="45.23952058963484" lon="8.177572237978643"><ele>154.33333333333334</ele><time>2026-04-04T13:12:36Z</time></trkpt><trkpt lat="45.23963263107894" lon="8.177835650899748"><ele>154.66666666666666</ele><time>2026-04-04T13:12:37Z</time></trkpt><trkpt lat="45.23974603326062" lon="8.178098625426994"><ele>155.0</ele><time>2026-04-04T13:12:38Z</time></trkpt><trkpt lat="45.239860415977304" lon="8.178355474063618"><ele>155.0</ele><time>2026-04-04T13:12:39Z</time></trkpt><trkpt lat="45.23996763857348" lon="8.178600470364762"><ele>155.0</ele><time>2026-04-04T13:12:40Z</time></trkpt><trkpt lat="45.24006344529526" lon="8.178828234767542"><ele>155.0</ele><time>2026-04-04T13:12:41Z</time></trkpt><trkpt lat="45.24015271346113" lon="8.179048477201809"><ele>154.66666666666666</ele><time>2026-04-04T13:12:42Z</time></trkpt><trkpt lat="45.24023574151809" lon="8.179247128370823"><ele>154.33333333333334</ele><time>2026-04-04T13:12:43Z</time></trkpt><trkpt lat="45.240318585957425" lon="8.179432337734449"><ele>154.0</ele><time>2026-04-04T13:12:44Z</time></trkpt><trkpt lat="45.24039272670529" lon="8.179612007042897"><ele>154.0</ele><time>2026-04-04T13:12:45Z</time></trkpt><trkpt lat="45.24046169593175" lon="8.179779037798104"><ele>154.0</ele><time>2026-04-04T13:12:46Z</time></trkpt><trkpt lat="45.2405123007245" lon="8.179936930684027"><ele>154.0</ele><time>2026-04-04T13:12:47Z</time></trkpt><trkpt lat="45.24053854615324" lon="8.180085751420052"><ele>154.0</ele><time>2026-04-04T13:12:48Z</time></trkpt><trkpt lat="45.24048801299823" lon="8.180227563512284"><ele>153.83333333333334</ele><time>2026-04-04T13:12:49Z</time></trkpt><trkpt lat="45.24049808839072" lon="8.180365432616039"><ele>153.66666666666669</ele><time>2026-04-04T13:12:50Z</time></trkpt><trkpt lat="45.24049585469393" lon="8.180488033108317"><ele>153.5</ele><time>2026-04-04T13:12:51Z</time></trkpt><trkpt lat="45.24052602732877" lon="8.180589878942452"><ele>153.33333333333334</ele><time>2026-04-04T13:12:52Z</time></trkpt><trkpt lat="45.24057859496423" lon="8.180664418120337"><ele>153.16666666666666</ele><time>2026-04-04T13:12:53Z</time></trkpt><trkpt lat="45.24064359151663" lon="8.180715337571682"><ele>153.0</ele><time>2026-04-04T13:12:54Z</time></trkpt><trkpt lat="45.240711413332434" lon="8.180744820884271"><ele>153.5</ele><time>2026-04-04T13:12:55Z</time></trkpt><trkpt lat="45.24078485710222" lon="8.180746419474604"><ele>154.0</ele><time>2026-04-04T13:12:56Z</time></trkpt><trkpt lat="45.24085712415383" lon="8.180763636053912"><ele>154.5</ele><time>2026-04-04T13:12:57Z</time></trkpt><trkpt lat="45.24090303699321" lon="8.180923760622928"><ele>155.0</ele><time>2026-04-04T13:12:58Z</time></trkpt><trkpt lat="45.24095170057582" lon="8.18101465458943"><ele>155.5</ele><time>2026-04-04T13:12:59Z</time></trkpt><trkpt lat="45.24099405443629" lon="8.181119548149226"><ele>156.0</ele><time>2026-04-04T13:13:00Z</time></trkpt><trkpt lat="45.241029517897175" lon="8.181223926266362"><ele>156.0</ele><time>2026-04-04T13:13:01Z</time></trkpt><trkpt lat="45.241068013765855" lon="8.181339980880491"><ele>156.0</ele><time>2026-04-04T13:13:02Z</time></trkpt><trkpt lat="45.24111143774893" lon="8.181460648992477"><ele>156.0</ele><time>2026-04-04T13:13:03Z</time></trkpt><trkpt lat="45.2411608943218" lon="8.181586590957798"><ele>156.0</ele><time>2026-04-04T13:13:04Z</time></trkpt><trkpt lat="45.2412111749316" lon="8.181714531037805"><ele>156.0</ele><time>2026-04-04T13:13:05Z</time></trkpt><trkpt lat="45.24126274348115" lon="8.1818534871741"><ele>155.8</ele><time>2026-04-04T13:13:06Z</time></trkpt><trkpt lat="45.24131124370848" lon="8.1819934242094"><ele>155.6</ele><time>2026-04-04T13:13:07Z</time></trkpt><trkpt lat="45.24136035580759" lon="8.182130860578722"><ele>155.4</ele><time>2026-04-04T13:13:08Z</time></trkpt><trkpt lat="45.24141153059499" lon="8.182269635208117"><ele>155.2</ele><time>2026-04-04T13:13:09Z</time></trkpt><trkpt lat="45.24146307991055" lon="8.182409445516894"><ele>155.0</ele><time>2026-04-04T13:13:10Z</time></trkpt><trkpt lat="45.24151264261628" lon="8.182549122814777"><ele>154.8</ele><time>2026-04-04T13:13:11Z</time></trkpt><trkpt lat="45.24156554288679" lon="8.182691202026243"><ele>154.6</ele><time>2026-04-04T13:13:12Z</time></trkpt><trkpt lat="45.24161747398489" lon="8.18282754883413"><ele>154.4</ele><time>2026-04-04T13:13:13Z</time></trkpt><trkpt lat="45.24167158858725" lon="8.18296523573093"><ele>154.2</ele><time>2026-04-04T13:13:14Z</time></trkpt><trkpt lat="45.241726670075614" lon="8.183102518825807"><ele>154.0</ele><time>2026-04-04T13:13:15Z</time></trkpt><trkpt lat="45.24178053567042" lon="8.18324108636648"><ele>153.75</ele><time>2026-04-04T13:13:16Z</time></trkpt><trkpt lat="45.241834349033326" lon="8.18338263973735"><ele>153.5</ele><time>2026-04-04T13:13:17Z</time></trkpt><trkpt lat="45.24188739056512" lon="8.183524772150506"><ele>153.25</ele><time>2026-04-04T13:13:18Z</time></trkpt><trkpt lat="45.24193892845007" lon="8.183666844906872"><ele>153.0</ele><time>2026-04-04T13:13:19Z</time></trkpt><trkpt lat="45.24198941407737" lon="8.18381460808647"><ele>153.0</ele><time>2026-04-04T13:13:20Z</time></trkpt><trkpt lat="45.242040549513696" lon="8.183978822229586"><ele>153.0</ele><time>2026-04-04T13:13:21Z</time></trkpt><trkpt lat="45.24209820805303" lon="8.184155534465138"><ele>153.0</ele><time>2026-04-04T13:13:22Z</time></trkpt><trkpt lat="45.24215959899184" lon="8.184330199105808"><ele>153.0</ele><time>2026-04-04T13:13:23Z</time></trkpt><trkpt lat="45.24222909212396" lon="8.184511143176856"><ele>153.25</ele><time>2026-04-04T13:13:24Z</time></trkpt><trkpt lat="45.242297328377944" lon="8.184688487426108"><ele>153.5</ele><time>2026-04-04T13:13:25Z</time></trkpt><trkpt lat="45.2423655598446" lon="8.184878457402984"><ele>153.75</ele><time>2026-04-04T13:13:26Z</time></trkpt><trkpt lat="45.2424317904278" lon="8.185066266680296"><ele>154.0</ele><time>2026-04-04T13:13:27Z</time></trkpt><trkpt lat="45.24249831155482" lon="8.185251762980513"><ele>154.0</ele><time>2026-04-04T13:13:28Z</time></trkpt><trkpt lat="45.242564474954555" lon="8.185439672913025"><ele>154.0</ele><time>2026-04-04T13:13:29Z</time></trkpt><trkpt lat="45.242631899660246" lon="8.185627421846354"><ele>154.0</ele><time>2026-04-04T13:13:30Z</time></trkpt><trkpt lat="45.24270052921461" lon="8.185817135530613"><ele>154.0</ele><time>2026-04-04T13:13:31Z</time></trkpt><trkpt lat="45.24277159867406" lon="8.186008419788713"><ele>153.75</ele><time>2026-04-04T13:13:32Z</time></trkpt><trkpt lat="45.242842268151314" lon="8.186197945679726"><ele>153.5</ele><time>2026-04-04T13:13:33Z</time></trkpt><trkpt lat="45.242913924847066" lon="8.186387757906996"><ele>153.25</ele><time>2026-04-04T13:13:34Z</time></trkpt><trkpt lat="45.24298321196821" lon="8.18657161775129"><ele>153.0</ele><time>2026-04-04T13:13:35Z</time></trkpt><trkpt lat="45.24305157344304" lon="8.186756351186807"><ele>153.0</ele><time>2026-04-04T13:13:36Z</time></trkpt><trkpt lat="45.24311476153642" lon="8.186935973461214"><ele>153.0</ele><time>2026-04-04T13:13:37Z</time></trkpt><trkpt lat="45.24317970021833" lon="8.187116852307811"><ele>153.0</ele><time>2026-04-04T13:13:38Z</time></trkpt><trkpt lat="45.243246584095075" lon="8.187291592547547"><ele>153.0</ele><time>2026-04-04T13:13:39Z</time></trkpt><trkpt lat="45.243310697839775" lon="8.187468242862822"><ele>153.5</ele><time>2026-04-04T13:13:40Z</time></trkpt><trkpt lat="45.24337393518511" lon="8.187647827763618"><ele>154.0</ele><time>2026-04-04T13:13:41Z</time></trkpt><trkpt lat="45.24343787023261" lon="8.18782522115944"><ele>154.5</ele><time>2026-04-04T13:13:42Z</time></trkpt><trkpt lat="45.24349940728032" lon="8.18799661354873"><ele>155.0</ele><time>2026-04-04T13:13:43Z</time></trkpt><trkpt lat="45.24356112051896" lon="8.188165072551564"><ele>155.25</ele><time>2026-04-04T13:13:44Z</time></trkpt><trkpt lat="45.24362177412052" lon="8.188329129065549"><ele>155.5</ele><time>2026-04-04T13:13:45Z</time></trkpt><trkpt lat="45.243681066800896" lon="8.1884957281406"><ele>155.75</ele><time>2026-04-04T13:13:46Z</time></trkpt><trkpt lat="45.24373859254488" lon="8.18865992637618"><ele>156.0</ele><time>2026-04-04T13:13:47Z</time></trkpt><trkpt lat="45.24379719650328" lon="8.188826468883795"><ele>156.0</ele><time>2026-04-04T13:13:48Z</time></trkpt><trkpt lat="45.24385781337289" lon="8.18899265423386"><ele>156.0</ele><time>2026-04-04T13:13:49Z</time></trkpt><trkpt lat="45.24391962690279" lon="8.189158175256239"><ele>156.0</ele><time>2026-04-04T13:13:50Z</time></trkpt><trkpt lat="45.243982870578876" lon="8.189324458533745"><ele>156.0</ele><time>2026-04-04T13:13:51Z</time></trkpt><trkpt lat="45.2440445051242" lon="8.189491698419255"><ele>155.75</ele><time>2026-04-04T13:13:52Z</time></trkpt><trkpt lat="45.24410510637383" lon="8.189655772694278"><ele>155.5</ele><time>2026-04-04T13:13:53Z</time></trkpt><trkpt lat="45.24416389218554" lon="8.189821351320258"><ele>155.25</ele><time>2026-04-04T13:13:54Z</time></trkpt><trkpt lat="45.24422443430411" lon="8.189989372020698"><ele>155.0</ele><time>2026-04-04T13:13:55Z</time></trkpt><trkpt lat="45.24428339249464" lon="8.190145548682692"><ele>154.75</ele><time>2026-04-04T13:13:56Z</time></trkpt><trkpt lat="45.24434347566599" lon="8.190304009689672"><ele>154.5</ele><time>2026-04-04T13:13:57Z</time></trkpt><trkpt lat="45.24440362050057" lon="8.190460009450675"><ele>154.25</ele><time>2026-04-04T13:13:58Z</time></trkpt><trkpt lat="45.24446275705019" lon="8.190617087258188"><ele>154.0</ele><time>2026-04-04T13:13:59Z</time></trkpt><trkpt lat="45.24452074939784" lon="8.190774755704592"><ele>153.75</ele><time>2026-04-04T13:14:00Z</time></trkpt><trkpt lat="45.24457862739225" lon="8.190928418235094"><ele>153.5</ele><time>2026-04-04T13:14:01Z</time></trkpt><trkpt lat="45.24463443026349" lon="8.191083452135464"><ele>153.25</ele><time>2026-04-04T13:14:02Z</time></trkpt><trkpt lat="45.24468961699152" lon="8.191238753720866"><ele>153.0</ele><time>2026-04-04T13:14:03Z</time></trkpt><trkpt lat="45.24474518320531" lon="8.191390164948954"><ele>153.0</ele><time>2026-04-04T13:14:04Z</time></trkpt><trkpt lat="45.24480062434832" lon="8.191544001827317"><ele>153.0</ele><time>2026-04-04T13:14:05Z</time></trkpt><trkpt lat="45.2448543976149" lon="8.19169793427442"><ele>153.0</ele><time>2026-04-04T13:14:06Z</time></trkpt><trkpt lat="45.244909829288865" lon="8.191851727713296"><ele>153.0</ele><time>2026-04-04T13:14:07Z</time></trkpt><trkpt lat="45.24496397224168" lon="8.192008079348714"><ele>153.0</ele><time>2026-04-04T13:14:08Z</time></trkpt><trkpt lat="45.24501802965547" lon="8.19216485367831"><ele>153.0</ele><time>2026-04-04T13:14:09Z</time></trkpt><trkpt lat="45.245073400819095" lon="8.192322142843395"><ele>153.0</ele><time>2026-04-04T13:14:10Z</time></trkpt><trkpt lat="45.24512894856743" lon="8.192476990838074"><ele>153.0</ele><time>2026-04-04T13:14:11Z</time></trkpt><trkpt lat="45.24518323317303" lon="8.192633593089504"><ele>153.0</ele><time>2026-04-04T13:14:12Z</time></trkpt><trkpt lat="45.24523636064098" lon="8.192793060008745"><ele>153.0</ele><time>2026-04-04T13:14:13Z</time></trkpt><trkpt lat="45.24528603166256" lon="8.19294607976484"><ele>153.0</ele><time>2026-04-04T13:14:14Z</time></trkpt><trkpt lat="45.24533817869363" lon="8.193099058143845"><ele>153.0</ele><time>2026-04-04T13:14:15Z</time></trkpt><trkpt lat="45.24539041889672" lon="8.193246712588444"><ele>152.6</ele><time>2026-04-04T13:14:16Z</time></trkpt><trkpt lat="45.24543772607067" lon="8.193389854036653"><ele>152.20000000000002</ele><time>2026-04-04T13:14:17Z</time></trkpt><trkpt lat="45.24547997619208" lon="8.193532201472104"><ele>151.8</ele><time>2026-04-04T13:14:18Z</time></trkpt><trkpt lat="45.24551107129875" lon="8.193674019181929"><ele>151.4</ele><time>2026-04-04T13:14:19Z</time></trkpt><trkpt lat="45.24552597271483" lon="8.193816800172787"><ele>151.0</ele><time>2026-04-04T13:14:20Z</time></trkpt><trkpt lat="45.24552620403572" lon="8.193954371065288"><ele>151.4</ele><time>2026-04-04T13:14:21Z</time></trkpt><trkpt lat="45.245507991202025" lon="8.194094083012786"><ele>151.8</ele><time>2026-04-04T13:14:22Z</time></trkpt><trkpt lat="45.24547301105152" lon="8.194234943278751"><ele>152.20000000000002</ele><time>2026-04-04T13:14:23Z</time></trkpt><trkpt lat="45.245421560080594" lon="8.194367187740463"><ele>152.6</ele><time>2026-04-04T13:14:24Z</time></trkpt><trkpt lat="45.245360497115016" lon="8.1945033924232"><ele>153.0</ele><time>2026-04-04T13:14:25Z</time></trkpt><trkpt lat="45.245300036694616" lon="8.194640861436387"><ele>153.0</ele><time>2026-04-04T13:14:26Z</time></trkpt><trkpt lat="45.245255207179035" lon="8.19479371148225"><ele>153.0</ele><time>2026-04-04T13:14:27Z</time></trkpt><trkpt lat="45.24517964744511" lon="8.194934408225771"><ele>153.0</ele><time>2026-04-04T13:14:28Z</time></trkpt><trkpt lat="45.24512876326882" lon="8.195084703658306"><ele>153.0</ele><time>2026-04-04T13:14:29Z</time></trkpt><trkpt lat="45.24509691073251" lon="8.195236469610904"><ele>153.0</ele><time>2026-04-04T13:14:30Z</time></trkpt><trkpt lat="45.24509313910856" lon="8.195401506852312"><ele>153.0</ele><time>2026-04-04T13:14:31Z</time></trkpt><trkpt lat="45.2451173830445" lon="8.195567669861914"><ele>153.0</ele><time>2026-04-04T13:14:32Z</time></trkpt><trkpt lat="45.24516901381159" lon="8.195728669426058"><ele>153.0</ele><time>2026-04-04T13:14:33Z</time></trkpt><trkpt lat="45.245248322019535" lon="8.195868041394084"><ele>153.0</ele><time>2026-04-04T13:14:34Z</time></trkpt><trkpt lat="45.24533817944768" lon="8.195999738695482"><ele>153.0</ele><time>2026-04-04T13:14:35Z</time></trkpt><trkpt lat="45.24542825831225" lon="8.19613087212401"><ele>153.0</ele><time>2026-04-04T13:14:36Z</time></trkpt><trkpt lat="45.245518199475455" lon="8.196270619636817"><ele>153.0</ele><time>2026-04-04T13:14:37Z</time></trkpt><trkpt lat="45.24560717322468" lon="8.196412595752907"><ele>153.25</ele><time>2026-04-04T13:14:38Z</time></trkpt><trkpt lat="45.24569938951993" lon="8.196558141208524"><ele>153.5</ele><time>2026-04-04T13:14:39Z</time></trkpt><trkpt lat="45.24579321705293" lon="8.19670392754685"><ele>153.75</ele><time>2026-04-04T13:14:40Z</time></trkpt><trkpt lat="45.24588758248678" lon="8.196852628027713"><ele>154.0</ele><time>2026-04-04T13:14:41Z</time></trkpt><trkpt lat="45.24597558824186" lon="8.196999553741009"><ele>154.0</ele><time>2026-04-04T13:14:42Z</time></trkpt><trkpt lat="45.24606775423037" lon="8.197127749152104"><ele>154.0</ele><time>2026-04-04T13:14:43Z</time></trkpt><trkpt lat="45.246183018688" lon="8.197225532540864"><ele>154.0</ele><time>2026-04-04T13:14:44Z</time></trkpt><trkpt lat="45.24631384220935" lon="8.197277274148687"><ele>154.0</ele><time>2026-04-04T13:14:45Z</time></trkpt><trkpt lat="45.24645190296864" lon="8.197290024141354"><ele>154.5</ele><time>2026-04-04T13:14:46Z</time></trkpt><trkpt lat="45.24659100880995" lon="8.197283129280024"><ele>155.0</ele><time>2026-04-04T13:14:47Z</time></trkpt><trkpt lat="45.24673280411689" lon="8.197277481307827"><ele>155.5</ele><time>2026-04-04T13:14:48Z</time></trkpt><trkpt lat="45.24687345901695" lon="8.197269888100262"><ele>156.0</ele><time>2026-04-04T13:14:49Z</time></trkpt><trkpt lat="45.247016294436605" lon="8.197264813452147"><ele>156.0</ele><time>2026-04-04T13:14:50Z</time></trkpt><trkpt lat="45.24715653357185" lon="8.197263759789346"><ele>156.0</ele><time>2026-04-04T13:14:51Z</time></trkpt><trkpt lat="45.24728555345513" lon="8.197263003057207"><ele>156.0</ele><time>2026-04-04T13:14:52Z</time></trkpt><trkpt lat="45.24741300189066" lon="8.197261162840755"><ele>156.0</ele><time>2026-04-04T13:14:53Z</time></trkpt><trkpt lat="45.247538036218174" lon="8.197258321854008"><ele>155.5</ele><time>2026-04-04T13:14:54Z</time></trkpt><trkpt lat="45.24766069852659" lon="8.19725892863834"><ele>155.0</ele><time>2026-04-04T13:14:55Z</time></trkpt><trkpt lat="45.247776577762565" lon="8.197258925659906"><ele>154.5</ele><time>2026-04-04T13:14:56Z</time></trkpt><trkpt lat="45.247885637486746" lon="8.197260975575176"><ele>154.0</ele><time>2026-04-04T13:14:57Z</time></trkpt><trkpt lat="45.24799368982355" lon="8.197270561919904"><ele>154.0</ele><time>2026-04-04T13:14:58Z</time></trkpt><trkpt lat="45.248092347252964" lon="8.197292062432853"><ele>154.0</ele><time>2026-04-04T13:14:59Z</time></trkpt><trkpt lat="45.2481845151718" lon="8.19732463470429"><ele>154.0</ele><time>2026-04-04T13:15:00Z</time></trkpt><trkpt lat="45.248268139425036" lon="8.197360095703885"><ele>154.0</ele><time>2026-04-04T13:15:01Z</time></trkpt><trkpt lat="45.24834672724429" lon="8.197395869182815"><ele>154.0</ele><time>2026-04-04T13:15:02Z</time></trkpt><trkpt lat="45.24842062527026" lon="8.19743413453543"><ele>154.0</ele><time>2026-04-04T13:15:03Z</time></trkpt><trkpt lat="45.24849452244765" lon="8.197475756311198"><ele>154.33333333333334</ele><time>2026-04-04T13:15:04Z</time></trkpt><trkpt lat="45.24856989324536" lon="8.197527820193185"><ele>154.66666666666669</ele><time>2026-04-04T13:15:05Z</time></trkpt><trkpt lat="45.24864094826625" lon="8.19758784922939"><ele>155.0</ele><time>2026-04-04T13:15:06Z</time></trkpt><trkpt lat="45.24871137182003" lon="8.197636695057135"><ele>155.33333333333334</ele><time>2026-04-04T13:15:07Z</time></trkpt><trkpt lat="45.2487646562272" lon="8.197712921044177"><ele>155.66666666666666</ele><time>2026-04-04T13:15:08Z</time></trkpt><trkpt lat="45.24881841183648" lon="8.197778579931448"><ele>156.0</ele><time>2026-04-04T13:15:09Z</time></trkpt><trkpt lat="45.248869456600204" lon="8.197843021853249"><ele>156.16666666666666</ele><time>2026-04-04T13:15:10Z</time></trkpt><trkpt lat="45.24897038255391" lon="8.197959531041452"><ele>156.33333333333334</ele><time>2026-04-04T13:15:12Z</time></trkpt><trkpt lat="45.249032344778776" lon="8.198004011846649"><ele>156.5</ele><time>2026-04-04T13:15:13Z</time></trkpt><trkpt lat="45.249091399836715" lon="8.198055263917826"><ele>156.66666666666669</ele><time>2026-04-04T13:15:14Z</time></trkpt><trkpt lat="45.24914719869797" lon="8.198133947176379"><ele>156.83333333333334</ele><time>2026-04-04T13:15:15Z</time></trkpt><trkpt lat="45.249185649749585" lon="8.198233048766555"><ele>157.0</ele><time>2026-04-04T13:15:16Z</time></trkpt><trkpt lat="45.24923233530711" lon="8.198317863319254"><ele>157.0</ele><time>2026-04-04T13:15:17Z</time></trkpt><trkpt lat="45.24927897566861" lon="8.198401338855522"><ele>157.0</ele><time>2026-04-04T13:15:18Z</time></trkpt><trkpt lat="45.2493258183419" lon="8.198487170955236"><ele>157.0</ele><time>2026-04-04T13:15:19Z</time></trkpt><trkpt lat="45.24937822360549" lon="8.198574358430609"><ele>157.0</ele><time>2026-04-04T13:15:20Z</time></trkpt><trkpt lat="45.24943621814079" lon="8.198667154592354"><ele>157.0</ele><time>2026-04-04T13:15:21Z</time></trkpt><trkpt lat="45.24949578136528" lon="8.198757295927788"><ele>157.0</ele><time>2026-04-04T13:15:22Z</time></trkpt><trkpt lat="45.24956395868132" lon="8.198846508028137"><ele>157.0</ele><time>2026-04-04T13:15:23Z</time></trkpt><trkpt lat="45.249623463323324" lon="8.198953874671949"><ele>157.0</ele><time>2026-04-04T13:15:24Z</time></trkpt><trkpt lat="45.24968453106371" lon="8.199065284493605"><ele>157.0</ele><time>2026-04-04T13:15:25Z</time></trkpt><trkpt lat="45.24974254451115" lon="8.19916610764911"><ele>157.0</ele><time>2026-04-04T13:15:26Z</time></trkpt><trkpt lat="45.24980328452945" lon="8.199272927603587"><ele>157.0</ele><time>2026-04-04T13:15:27Z</time></trkpt><trkpt lat="45.249868693414854" lon="8.199385082199969"><ele>156.79999999999998</ele><time>2026-04-04T13:15:28Z</time></trkpt><trkpt lat="45.24993292255971" lon="8.199496677316347"><ele>156.6</ele><time>2026-04-04T13:15:29Z</time></trkpt><trkpt lat="45.249999931391386" lon="8.199610108922618"><ele>156.39999999999998</ele><time>2026-04-04T13:15:30Z</time></trkpt><trkpt lat="45.25006592812534" lon="8.199727706759024"><ele>156.2</ele><time>2026-04-04T13:15:31Z</time></trkpt><trkpt lat="45.25012115401771" lon="8.199860588529964"><ele>156.0</ele><time>2026-04-04T13:15:32Z</time></trkpt><trkpt lat="45.250189665361425" lon="8.199981457352777"><ele>156.0</ele><time>2026-04-04T13:15:33Z</time></trkpt><trkpt lat="45.250270205538676" lon="8.200090626728066"><ele>156.0</ele><time>2026-04-04T13:15:34Z</time></trkpt><trkpt lat="45.250340131207764" lon="8.200217194417348"><ele>156.0</ele><time>2026-04-04T13:15:35Z</time></trkpt><trkpt lat="45.2504123457102" lon="8.20034394044885"><ele>156.0</ele><time>2026-04-04T13:15:36Z</time></trkpt><trkpt lat="45.250468826505895" lon="8.200490140638934"><ele>156.0</ele><time>2026-04-04T13:15:37Z</time></trkpt><trkpt lat="45.250541128472044" lon="8.20061549687969"><ele>156.0</ele><time>2026-04-04T13:15:38Z</time></trkpt><trkpt lat="45.25062455962354" lon="8.20071469024555"><ele>156.0</ele><time>2026-04-04T13:15:39Z</time></trkpt><trkpt lat="45.25072272987537" lon="8.200793534422788"><ele>156.0</ele><time>2026-04-04T13:15:40Z</time></trkpt><trkpt lat="45.250825079351614" lon="8.200851104350932"><ele>156.0</ele><time>2026-04-04T13:15:41Z</time></trkpt><trkpt lat="45.25093509399998" lon="8.200874097457554"><ele>155.75</ele><time>2026-04-04T13:15:42Z</time></trkpt><trkpt lat="45.25104561284891" lon="8.200862321836748"><ele>155.5</ele><time>2026-04-04T13:15:43Z</time></trkpt><trkpt lat="45.25115561742681" lon="8.200820017314095"><ele>155.25</ele><time>2026-04-04T13:15:44Z</time></trkpt><trkpt lat="45.25126261669838" lon="8.200753632690816"><ele>155.0</ele><time>2026-04-04T13:15:45Z</time></trkpt><trkpt lat="45.25136500177729" lon="8.200668417993569"><ele>155.2</ele><time>2026-04-04T13:15:46Z</time></trkpt><trkpt lat="45.25146135208904" lon="8.200566763385297"><ele>155.4</ele><time>2026-04-04T13:15:47Z</time></trkpt><trkpt lat="45.25154840184135" lon="8.200455920089588"><ele>155.6</ele><time>2026-04-04T13:15:48Z</time></trkpt><trkpt lat="45.25163095787384" lon="8.200354042933643"><ele>155.8</ele><time>2026-04-04T13:15:49Z</time></trkpt><trkpt lat="45.25170907587214" lon="8.200263135567758"><ele>156.0</ele><time>2026-04-04T13:15:50Z</time></trkpt><trkpt lat="45.251784413979486" lon="8.200183337350932"><ele>156.0</ele><time>2026-04-04T13:15:51Z</time></trkpt><trkpt lat="45.251856824075844" lon="8.200110532309953"><ele>156.0</ele><time>2026-04-04T13:15:52Z</time></trkpt><trkpt lat="45.251921720784765" lon="8.20004491620602"><ele>156.0</ele><time>2026-04-04T13:15:53Z</time></trkpt><trkpt lat="45.25198242492372" lon="8.199977762023874"><ele>156.0</ele><time>2026-04-04T13:15:54Z</time></trkpt><trkpt lat="45.25203558170975" lon="8.199904232382364"><ele>156.0</ele><time>2026-04-04T13:15:55Z</time></trkpt><trkpt lat="45.25208803928486" lon="8.199837267865309"><ele>156.0</ele><time>2026-04-04T13:15:56Z</time></trkpt><trkpt lat="45.25217847952104" lon="8.19971359531977"><ele>155.0</ele><time>2026-04-04T13:15:58Z</time></trkpt><trkpt lat="45.25226673148945" lon="8.199599686695944"><ele>155.0</ele><time>2026-04-04T13:16:00Z</time></trkpt><trkpt lat="45.25234895553295" lon="8.199499692995238"><ele>156.0</ele><time>2026-04-04T13:16:02Z</time></trkpt><trkpt lat="45.2524083960429" lon="8.199440572875398"><ele>156.0</ele><time>2026-04-04T13:16:04Z</time></trkpt><trkpt lat="45.25247023945826" lon="8.199369521828343"><ele>156.0</ele><time>2026-04-04T13:16:07Z</time></trkpt></trkseg></trk></gpx>